<?xml version="1.0" encoding="UTF-8" standalone="no" ?>
<gpx xmlns="http://www.topografix.com/GPX/1/1" xmlns:xsi="http://www.w3.org/2001/XMLSchema-instance" xsi:schemaLocation="http://www.topografix.com/GPX/1/1 http://www.topografix.com/GPX/1/1/gpx.xsd" version="1.1" creator="VisuGPX - https://www.visugpx.com">
  <metadata>
    <name>V - 83 - Lorgues</name>
    <desc><![CDATA[V - 83 - Lorgues : Mauniers Vignaubiere Blacassous
2023-03-03]]></desc>
  </metadata>
  <trk>
    <name><![CDATA[Lorgues Mauniers Vignaubiere Blacassous 2023-03-03-01]]></name>
    <trkseg>
      <trkpt lat="43.48136" lon="6.32824">
        <ele>151.7</ele>
        <time>2023-03-03T12:44:49Z</time>
      </trkpt>
      <trkpt lat="43.48137" lon="6.32827">
        <ele>151.7</ele>
        <time>2023-03-03T12:44:50Z</time>
      </trkpt>
      <trkpt lat="43.48136" lon="6.32827">
        <ele>151.7</ele>
        <time>2023-03-03T12:44:51Z</time>
      </trkpt>
      <trkpt lat="43.48136" lon="6.32826">
        <ele>151.6</ele>
        <time>2023-03-03T12:44:52Z</time>
      </trkpt>
      <trkpt lat="43.48136" lon="6.32826">
        <ele>151.6</ele>
        <time>2023-03-03T12:44:53Z</time>
      </trkpt>
      <trkpt lat="43.48136" lon="6.32825">
        <ele>151.6</ele>
        <time>2023-03-03T12:44:54Z</time>
      </trkpt>
      <trkpt lat="43.48135" lon="6.32824">
        <ele>151.5</ele>
        <time>2023-03-03T12:44:55Z</time>
      </trkpt>
      <trkpt lat="43.48135" lon="6.32823">
        <ele>151.5</ele>
        <time>2023-03-03T12:44:56Z</time>
      </trkpt>
      <trkpt lat="43.48136" lon="6.32824">
        <ele>151.4</ele>
        <time>2023-03-03T12:44:57Z</time>
      </trkpt>
      <trkpt lat="43.48136" lon="6.32824">
        <ele>151.4</ele>
        <time>2023-03-03T12:44:58Z</time>
      </trkpt>
      <trkpt lat="43.48136" lon="6.32824">
        <ele>151.4</ele>
        <time>2023-03-03T12:44:59Z</time>
      </trkpt>
      <trkpt lat="43.48135" lon="6.32824">
        <ele>151.4</ele>
        <time>2023-03-03T12:45:00Z</time>
      </trkpt>
      <trkpt lat="43.48135" lon="6.32824">
        <ele>151.4</ele>
        <time>2023-03-03T12:45:01Z</time>
      </trkpt>
      <trkpt lat="43.48135" lon="6.32824">
        <ele>151.4</ele>
        <time>2023-03-03T12:45:02Z</time>
      </trkpt>
      <trkpt lat="43.48135" lon="6.32824">
        <ele>151.5</ele>
        <time>2023-03-03T12:45:03Z</time>
      </trkpt>
      <trkpt lat="43.48135" lon="6.32824">
        <ele>151.5</ele>
        <time>2023-03-03T12:45:04Z</time>
      </trkpt>
      <trkpt lat="43.48135" lon="6.32824">
        <ele>151.5</ele>
        <time>2023-03-03T12:45:05Z</time>
      </trkpt>
      <trkpt lat="43.48135" lon="6.32824">
        <ele>151.5</ele>
        <time>2023-03-03T12:45:06Z</time>
      </trkpt>
      <trkpt lat="43.48135" lon="6.32823">
        <ele>151.5</ele>
        <time>2023-03-03T12:45:07Z</time>
      </trkpt>
      <trkpt lat="43.48135" lon="6.32823">
        <ele>151.5</ele>
        <time>2023-03-03T12:45:08Z</time>
      </trkpt>
      <trkpt lat="43.48135" lon="6.32824">
        <ele>151.6</ele>
        <time>2023-03-03T12:45:09Z</time>
      </trkpt>
      <trkpt lat="43.48135" lon="6.32824">
        <ele>151.6</ele>
        <time>2023-03-03T12:45:10Z</time>
      </trkpt>
      <trkpt lat="43.48135" lon="6.32824">
        <ele>151.5</ele>
        <time>2023-03-03T12:45:11Z</time>
      </trkpt>
      <trkpt lat="43.48135" lon="6.32824">
        <ele>151.5</ele>
        <time>2023-03-03T12:45:12Z</time>
      </trkpt>
      <trkpt lat="43.48135" lon="6.32824">
        <ele>151.5</ele>
        <time>2023-03-03T12:45:13Z</time>
      </trkpt>
      <trkpt lat="43.48135" lon="6.32824">
        <ele>151.5</ele>
        <time>2023-03-03T12:45:14Z</time>
      </trkpt>
      <trkpt lat="43.48135" lon="6.32824">
        <ele>151.5</ele>
        <time>2023-03-03T12:45:15Z</time>
      </trkpt>
      <trkpt lat="43.48135" lon="6.32824">
        <ele>151.5</ele>
        <time>2023-03-03T12:45:16Z</time>
      </trkpt>
      <trkpt lat="43.48134" lon="6.32824">
        <ele>151.5</ele>
        <time>2023-03-03T12:45:17Z</time>
      </trkpt>
      <trkpt lat="43.48134" lon="6.32824">
        <ele>151.4</ele>
        <time>2023-03-03T12:45:18Z</time>
      </trkpt>
      <trkpt lat="43.48134" lon="6.32824">
        <ele>151.5</ele>
        <time>2023-03-03T12:45:19Z</time>
      </trkpt>
      <trkpt lat="43.48134" lon="6.32824">
        <ele>151.5</ele>
        <time>2023-03-03T12:45:20Z</time>
      </trkpt>
      <trkpt lat="43.48134" lon="6.32824">
        <ele>151.5</ele>
        <time>2023-03-03T12:45:21Z</time>
      </trkpt>
      <trkpt lat="43.48134" lon="6.32824">
        <ele>151.6</ele>
        <time>2023-03-03T12:45:22Z</time>
      </trkpt>
      <trkpt lat="43.48135" lon="6.32824">
        <ele>151.5</ele>
        <time>2023-03-03T12:45:23Z</time>
      </trkpt>
      <trkpt lat="43.48135" lon="6.32824">
        <ele>151.4</ele>
        <time>2023-03-03T12:45:24Z</time>
      </trkpt>
      <trkpt lat="43.48135" lon="6.32824">
        <ele>151.4</ele>
        <time>2023-03-03T12:45:25Z</time>
      </trkpt>
      <trkpt lat="43.48135" lon="6.32824">
        <ele>151.4</ele>
        <time>2023-03-03T12:45:26Z</time>
      </trkpt>
      <trkpt lat="43.48135" lon="6.32824">
        <ele>151.4</ele>
        <time>2023-03-03T12:45:27Z</time>
      </trkpt>
      <trkpt lat="43.48135" lon="6.32824">
        <ele>151.2</ele>
        <time>2023-03-03T12:45:28Z</time>
      </trkpt>
      <trkpt lat="43.48136" lon="6.32824">
        <ele>151.3</ele>
        <time>2023-03-03T12:45:29Z</time>
      </trkpt>
      <trkpt lat="43.48135" lon="6.32825">
        <ele>151.3</ele>
        <time>2023-03-03T12:45:30Z</time>
      </trkpt>
      <trkpt lat="43.48136" lon="6.32825">
        <ele>151.3</ele>
        <time>2023-03-03T12:45:31Z</time>
      </trkpt>
      <trkpt lat="43.48136" lon="6.32824">
        <ele>151.3</ele>
        <time>2023-03-03T12:45:32Z</time>
      </trkpt>
      <trkpt lat="43.48136" lon="6.32824">
        <ele>151.3</ele>
        <time>2023-03-03T12:45:33Z</time>
      </trkpt>
      <trkpt lat="43.48135" lon="6.32824">
        <ele>151.4</ele>
        <time>2023-03-03T12:45:34Z</time>
      </trkpt>
      <trkpt lat="43.48135" lon="6.32824">
        <ele>151.4</ele>
        <time>2023-03-03T12:45:35Z</time>
      </trkpt>
      <trkpt lat="43.48135" lon="6.32825">
        <ele>151.4</ele>
        <time>2023-03-03T12:45:36Z</time>
      </trkpt>
      <trkpt lat="43.48135" lon="6.32825">
        <ele>151.4</ele>
        <time>2023-03-03T12:45:37Z</time>
      </trkpt>
      <trkpt lat="43.48136" lon="6.32826">
        <ele>151.4</ele>
        <time>2023-03-03T12:45:38Z</time>
      </trkpt>
      <trkpt lat="43.48137" lon="6.32826">
        <ele>151.4</ele>
        <time>2023-03-03T12:45:39Z</time>
      </trkpt>
      <trkpt lat="43.48137" lon="6.32825">
        <ele>151.4</ele>
        <time>2023-03-03T12:45:40Z</time>
      </trkpt>
      <trkpt lat="43.48138" lon="6.32825">
        <ele>151.4</ele>
        <time>2023-03-03T12:45:41Z</time>
      </trkpt>
      <trkpt lat="43.48138" lon="6.32825">
        <ele>151.4</ele>
        <time>2023-03-03T12:45:42Z</time>
      </trkpt>
      <trkpt lat="43.48138" lon="6.32825">
        <ele>151.3</ele>
        <time>2023-03-03T12:45:43Z</time>
      </trkpt>
      <trkpt lat="43.48138" lon="6.32825">
        <ele>151.3</ele>
        <time>2023-03-03T12:45:44Z</time>
      </trkpt>
      <trkpt lat="43.48139" lon="6.32825">
        <ele>151.3</ele>
        <time>2023-03-03T12:45:45Z</time>
      </trkpt>
      <trkpt lat="43.48139" lon="6.32825">
        <ele>151.3</ele>
        <time>2023-03-03T12:45:46Z</time>
      </trkpt>
      <trkpt lat="43.48139" lon="6.32825">
        <ele>151.3</ele>
        <time>2023-03-03T12:45:47Z</time>
      </trkpt>
      <trkpt lat="43.4814" lon="6.32825">
        <ele>151.3</ele>
        <time>2023-03-03T12:45:48Z</time>
      </trkpt>
      <trkpt lat="43.4814" lon="6.32825">
        <ele>151.3</ele>
        <time>2023-03-03T12:45:49Z</time>
      </trkpt>
      <trkpt lat="43.48139" lon="6.32824">
        <ele>151.3</ele>
        <time>2023-03-03T12:45:50Z</time>
      </trkpt>
      <trkpt lat="43.48139" lon="6.32824">
        <ele>151.3</ele>
        <time>2023-03-03T12:45:51Z</time>
      </trkpt>
      <trkpt lat="43.48138" lon="6.32824">
        <ele>151.2</ele>
        <time>2023-03-03T12:45:52Z</time>
      </trkpt>
      <trkpt lat="43.48137" lon="6.32824">
        <ele>151.1</ele>
        <time>2023-03-03T12:45:53Z</time>
      </trkpt>
      <trkpt lat="43.48137" lon="6.32824">
        <ele>151.1</ele>
        <time>2023-03-03T12:45:54Z</time>
      </trkpt>
      <trkpt lat="43.48137" lon="6.32825">
        <ele>151</ele>
        <time>2023-03-03T12:45:55Z</time>
      </trkpt>
      <trkpt lat="43.48136" lon="6.32825">
        <ele>151</ele>
        <time>2023-03-03T12:45:56Z</time>
      </trkpt>
      <trkpt lat="43.48136" lon="6.32825">
        <ele>151</ele>
        <time>2023-03-03T12:45:57Z</time>
      </trkpt>
      <trkpt lat="43.48136" lon="6.32825">
        <ele>151.1</ele>
        <time>2023-03-03T12:45:58Z</time>
      </trkpt>
      <trkpt lat="43.48136" lon="6.32824">
        <ele>151.1</ele>
        <time>2023-03-03T12:45:59Z</time>
      </trkpt>
      <trkpt lat="43.48136" lon="6.32825">
        <ele>151.1</ele>
        <time>2023-03-03T12:46:00Z</time>
      </trkpt>
      <trkpt lat="43.48137" lon="6.32826">
        <ele>151.2</ele>
        <time>2023-03-03T12:46:01Z</time>
      </trkpt>
      <trkpt lat="43.48138" lon="6.32827">
        <ele>151.1</ele>
        <time>2023-03-03T12:46:02Z</time>
      </trkpt>
      <trkpt lat="43.48138" lon="6.32827">
        <ele>151.1</ele>
        <time>2023-03-03T12:46:03Z</time>
      </trkpt>
      <trkpt lat="43.48138" lon="6.32828">
        <ele>151.1</ele>
        <time>2023-03-03T12:46:04Z</time>
      </trkpt>
      <trkpt lat="43.48139" lon="6.32828">
        <ele>151.1</ele>
        <time>2023-03-03T12:46:05Z</time>
      </trkpt>
      <trkpt lat="43.48139" lon="6.32828">
        <ele>151.1</ele>
        <time>2023-03-03T12:46:06Z</time>
      </trkpt>
      <trkpt lat="43.4814" lon="6.32829">
        <ele>151.1</ele>
        <time>2023-03-03T12:46:07Z</time>
      </trkpt>
      <trkpt lat="43.4814" lon="6.32828">
        <ele>151.1</ele>
        <time>2023-03-03T12:46:08Z</time>
      </trkpt>
      <trkpt lat="43.48141" lon="6.32827">
        <ele>151.1</ele>
        <time>2023-03-03T12:46:09Z</time>
      </trkpt>
      <trkpt lat="43.48141" lon="6.32827">
        <ele>151.2</ele>
        <time>2023-03-03T12:46:10Z</time>
      </trkpt>
      <trkpt lat="43.48141" lon="6.32826">
        <ele>151.2</ele>
        <time>2023-03-03T12:46:11Z</time>
      </trkpt>
      <trkpt lat="43.48141" lon="6.32825">
        <ele>151.2</ele>
        <time>2023-03-03T12:46:12Z</time>
      </trkpt>
      <trkpt lat="43.48141" lon="6.32825">
        <ele>151.2</ele>
        <time>2023-03-03T12:46:13Z</time>
      </trkpt>
      <trkpt lat="43.48141" lon="6.32825">
        <ele>151.2</ele>
        <time>2023-03-03T12:46:14Z</time>
      </trkpt>
      <trkpt lat="43.48141" lon="6.32825">
        <ele>151.2</ele>
        <time>2023-03-03T12:46:15Z</time>
      </trkpt>
      <trkpt lat="43.48141" lon="6.32825">
        <ele>151.2</ele>
        <time>2023-03-03T12:46:16Z</time>
      </trkpt>
      <trkpt lat="43.4814" lon="6.32825">
        <ele>151.2</ele>
        <time>2023-03-03T12:46:17Z</time>
      </trkpt>
      <trkpt lat="43.4814" lon="6.32825">
        <ele>151.2</ele>
        <time>2023-03-03T12:46:18Z</time>
      </trkpt>
      <trkpt lat="43.4814" lon="6.32825">
        <ele>151.3</ele>
        <time>2023-03-03T12:46:19Z</time>
      </trkpt>
      <trkpt lat="43.4814" lon="6.32824">
        <ele>151.3</ele>
        <time>2023-03-03T12:46:20Z</time>
      </trkpt>
      <trkpt lat="43.4814" lon="6.32824">
        <ele>151.3</ele>
        <time>2023-03-03T12:46:21Z</time>
      </trkpt>
      <trkpt lat="43.48139" lon="6.32822">
        <ele>151.4</ele>
        <time>2023-03-03T12:46:22Z</time>
      </trkpt>
      <trkpt lat="43.48139" lon="6.32822">
        <ele>151.4</ele>
        <time>2023-03-03T12:46:23Z</time>
      </trkpt>
      <trkpt lat="43.48139" lon="6.32821">
        <ele>151.4</ele>
        <time>2023-03-03T12:46:24Z</time>
      </trkpt>
      <trkpt lat="43.48139" lon="6.3282">
        <ele>151.4</ele>
        <time>2023-03-03T12:46:25Z</time>
      </trkpt>
      <trkpt lat="43.48139" lon="6.32819">
        <ele>151.4</ele>
        <time>2023-03-03T12:46:26Z</time>
      </trkpt>
      <trkpt lat="43.48139" lon="6.32819">
        <ele>151.4</ele>
        <time>2023-03-03T12:46:27Z</time>
      </trkpt>
      <trkpt lat="43.48138" lon="6.32818">
        <ele>151.3</ele>
        <time>2023-03-03T12:46:28Z</time>
      </trkpt>
      <trkpt lat="43.48138" lon="6.32817">
        <ele>151.2</ele>
        <time>2023-03-03T12:46:29Z</time>
      </trkpt>
      <trkpt lat="43.48137" lon="6.32817">
        <ele>151.1</ele>
        <time>2023-03-03T12:46:30Z</time>
      </trkpt>
      <trkpt lat="43.48137" lon="6.32817">
        <ele>151</ele>
        <time>2023-03-03T12:46:31Z</time>
      </trkpt>
      <trkpt lat="43.48137" lon="6.32816">
        <ele>151</ele>
        <time>2023-03-03T12:46:32Z</time>
      </trkpt>
      <trkpt lat="43.48137" lon="6.32816">
        <ele>150.9</ele>
        <time>2023-03-03T12:46:33Z</time>
      </trkpt>
      <trkpt lat="43.48137" lon="6.32815">
        <ele>150.9</ele>
        <time>2023-03-03T12:46:34Z</time>
      </trkpt>
      <trkpt lat="43.48138" lon="6.32814">
        <ele>150.9</ele>
        <time>2023-03-03T12:46:35Z</time>
      </trkpt>
      <trkpt lat="43.48138" lon="6.32814">
        <ele>150.9</ele>
        <time>2023-03-03T12:46:36Z</time>
      </trkpt>
      <trkpt lat="43.48138" lon="6.32813">
        <ele>150.8</ele>
        <time>2023-03-03T12:46:37Z</time>
      </trkpt>
      <trkpt lat="43.48138" lon="6.32813">
        <ele>150.8</ele>
        <time>2023-03-03T12:46:38Z</time>
      </trkpt>
      <trkpt lat="43.48138" lon="6.32813">
        <ele>150.8</ele>
        <time>2023-03-03T12:46:39Z</time>
      </trkpt>
      <trkpt lat="43.48138" lon="6.32813">
        <ele>150.7</ele>
        <time>2023-03-03T12:46:40Z</time>
      </trkpt>
      <trkpt lat="43.48138" lon="6.32813">
        <ele>150.7</ele>
        <time>2023-03-03T12:46:41Z</time>
      </trkpt>
      <trkpt lat="43.48138" lon="6.32813">
        <ele>150.7</ele>
        <time>2023-03-03T12:46:42Z</time>
      </trkpt>
      <trkpt lat="43.48138" lon="6.32813">
        <ele>150.7</ele>
        <time>2023-03-03T12:46:43Z</time>
      </trkpt>
      <trkpt lat="43.48138" lon="6.32813">
        <ele>150.7</ele>
        <time>2023-03-03T12:46:44Z</time>
      </trkpt>
      <trkpt lat="43.48138" lon="6.32813">
        <ele>150.7</ele>
        <time>2023-03-03T12:46:45Z</time>
      </trkpt>
      <trkpt lat="43.48138" lon="6.32813">
        <ele>150.8</ele>
        <time>2023-03-03T12:46:46Z</time>
      </trkpt>
      <trkpt lat="43.48138" lon="6.32813">
        <ele>150.9</ele>
        <time>2023-03-03T12:46:47Z</time>
      </trkpt>
      <trkpt lat="43.48138" lon="6.32813">
        <ele>151</ele>
        <time>2023-03-03T12:46:48Z</time>
      </trkpt>
      <trkpt lat="43.48138" lon="6.32813">
        <ele>150.9</ele>
        <time>2023-03-03T12:46:49Z</time>
      </trkpt>
      <trkpt lat="43.48138" lon="6.32813">
        <ele>150.8</ele>
        <time>2023-03-03T12:46:50Z</time>
      </trkpt>
      <trkpt lat="43.48138" lon="6.32813">
        <ele>150.8</ele>
        <time>2023-03-03T12:46:51Z</time>
      </trkpt>
      <trkpt lat="43.48137" lon="6.32813">
        <ele>150.8</ele>
        <time>2023-03-03T12:46:52Z</time>
      </trkpt>
      <trkpt lat="43.48137" lon="6.32814">
        <ele>150.9</ele>
        <time>2023-03-03T12:46:53Z</time>
      </trkpt>
      <trkpt lat="43.48137" lon="6.32814">
        <ele>150.9</ele>
        <time>2023-03-03T12:46:54Z</time>
      </trkpt>
      <trkpt lat="43.48137" lon="6.32814">
        <ele>150.9</ele>
        <time>2023-03-03T12:46:55Z</time>
      </trkpt>
      <trkpt lat="43.48137" lon="6.32814">
        <ele>150.9</ele>
        <time>2023-03-03T12:46:56Z</time>
      </trkpt>
      <trkpt lat="43.48137" lon="6.32814">
        <ele>150.9</ele>
        <time>2023-03-03T12:46:57Z</time>
      </trkpt>
      <trkpt lat="43.48137" lon="6.32814">
        <ele>150.8</ele>
        <time>2023-03-03T12:46:58Z</time>
      </trkpt>
      <trkpt lat="43.48137" lon="6.32814">
        <ele>150.8</ele>
        <time>2023-03-03T12:46:59Z</time>
      </trkpt>
      <trkpt lat="43.48137" lon="6.32815">
        <ele>150.8</ele>
        <time>2023-03-03T12:47:00Z</time>
      </trkpt>
      <trkpt lat="43.48137" lon="6.32815">
        <ele>150.8</ele>
        <time>2023-03-03T12:47:01Z</time>
      </trkpt>
      <trkpt lat="43.48137" lon="6.32815">
        <ele>150.7</ele>
        <time>2023-03-03T12:47:02Z</time>
      </trkpt>
      <trkpt lat="43.48137" lon="6.32815">
        <ele>150.8</ele>
        <time>2023-03-03T12:47:03Z</time>
      </trkpt>
      <trkpt lat="43.48137" lon="6.32815">
        <ele>150.8</ele>
        <time>2023-03-03T12:47:04Z</time>
      </trkpt>
      <trkpt lat="43.48137" lon="6.32815">
        <ele>150.8</ele>
        <time>2023-03-03T12:47:05Z</time>
      </trkpt>
      <trkpt lat="43.48137" lon="6.32815">
        <ele>150.9</ele>
        <time>2023-03-03T12:47:06Z</time>
      </trkpt>
      <trkpt lat="43.48137" lon="6.32815">
        <ele>151</ele>
        <time>2023-03-03T12:47:07Z</time>
      </trkpt>
      <trkpt lat="43.48137" lon="6.32814">
        <ele>151.1</ele>
        <time>2023-03-03T12:47:08Z</time>
      </trkpt>
      <trkpt lat="43.48137" lon="6.32813">
        <ele>151.1</ele>
        <time>2023-03-03T12:47:09Z</time>
      </trkpt>
      <trkpt lat="43.48137" lon="6.32811">
        <ele>151.2</ele>
        <time>2023-03-03T12:47:10Z</time>
      </trkpt>
      <trkpt lat="43.48136" lon="6.3281">
        <ele>151.1</ele>
        <time>2023-03-03T12:47:11Z</time>
      </trkpt>
      <trkpt lat="43.48136" lon="6.32809">
        <ele>151.1</ele>
        <time>2023-03-03T12:47:12Z</time>
      </trkpt>
      <trkpt lat="43.48136" lon="6.32807">
        <ele>151.2</ele>
        <time>2023-03-03T12:47:13Z</time>
      </trkpt>
      <trkpt lat="43.48135" lon="6.32806">
        <ele>151.2</ele>
        <time>2023-03-03T12:47:14Z</time>
      </trkpt>
      <trkpt lat="43.48135" lon="6.32805">
        <ele>151.1</ele>
        <time>2023-03-03T12:47:15Z</time>
      </trkpt>
      <trkpt lat="43.48135" lon="6.32804">
        <ele>151.1</ele>
        <time>2023-03-03T12:47:16Z</time>
      </trkpt>
      <trkpt lat="43.48135" lon="6.32802">
        <ele>151.1</ele>
        <time>2023-03-03T12:47:17Z</time>
      </trkpt>
      <trkpt lat="43.48135" lon="6.32802">
        <ele>151.2</ele>
        <time>2023-03-03T12:47:18Z</time>
      </trkpt>
      <trkpt lat="43.48134" lon="6.32801">
        <ele>151.2</ele>
        <time>2023-03-03T12:47:19Z</time>
      </trkpt>
      <trkpt lat="43.48134" lon="6.328">
        <ele>151.2</ele>
        <time>2023-03-03T12:47:20Z</time>
      </trkpt>
      <trkpt lat="43.48134" lon="6.328">
        <ele>151.1</ele>
        <time>2023-03-03T12:47:21Z</time>
      </trkpt>
      <trkpt lat="43.48134" lon="6.328">
        <ele>151.1</ele>
        <time>2023-03-03T12:47:22Z</time>
      </trkpt>
      <trkpt lat="43.48134" lon="6.32801">
        <ele>151.1</ele>
        <time>2023-03-03T12:47:23Z</time>
      </trkpt>
      <trkpt lat="43.48133" lon="6.32801">
        <ele>151.1</ele>
        <time>2023-03-03T12:47:24Z</time>
      </trkpt>
      <trkpt lat="43.48133" lon="6.32801">
        <ele>151.1</ele>
        <time>2023-03-03T12:47:25Z</time>
      </trkpt>
      <trkpt lat="43.48133" lon="6.32802">
        <ele>151.1</ele>
        <time>2023-03-03T12:47:26Z</time>
      </trkpt>
      <trkpt lat="43.48133" lon="6.32802">
        <ele>151.1</ele>
        <time>2023-03-03T12:47:27Z</time>
      </trkpt>
      <trkpt lat="43.48132" lon="6.32803">
        <ele>151.1</ele>
        <time>2023-03-03T12:47:28Z</time>
      </trkpt>
      <trkpt lat="43.48132" lon="6.32803">
        <ele>151.1</ele>
        <time>2023-03-03T12:47:29Z</time>
      </trkpt>
      <trkpt lat="43.48132" lon="6.32804">
        <ele>151</ele>
        <time>2023-03-03T12:47:30Z</time>
      </trkpt>
      <trkpt lat="43.48131" lon="6.32805">
        <ele>151</ele>
        <time>2023-03-03T12:47:31Z</time>
      </trkpt>
      <trkpt lat="43.48132" lon="6.32806">
        <ele>150.9</ele>
        <time>2023-03-03T12:47:32Z</time>
      </trkpt>
      <trkpt lat="43.48132" lon="6.32807">
        <ele>150.9</ele>
        <time>2023-03-03T12:47:33Z</time>
      </trkpt>
      <trkpt lat="43.48132" lon="6.32807">
        <ele>150.9</ele>
        <time>2023-03-03T12:47:34Z</time>
      </trkpt>
      <trkpt lat="43.48132" lon="6.32808">
        <ele>150.8</ele>
        <time>2023-03-03T12:47:35Z</time>
      </trkpt>
      <trkpt lat="43.48132" lon="6.32808">
        <ele>150.7</ele>
        <time>2023-03-03T12:47:36Z</time>
      </trkpt>
      <trkpt lat="43.48132" lon="6.32807">
        <ele>150.7</ele>
        <time>2023-03-03T12:47:37Z</time>
      </trkpt>
      <trkpt lat="43.48131" lon="6.32807">
        <ele>150.8</ele>
        <time>2023-03-03T12:47:38Z</time>
      </trkpt>
      <trkpt lat="43.48131" lon="6.32807">
        <ele>150.9</ele>
        <time>2023-03-03T12:47:39Z</time>
      </trkpt>
      <trkpt lat="43.4813" lon="6.32807">
        <ele>151</ele>
        <time>2023-03-03T12:47:40Z</time>
      </trkpt>
      <trkpt lat="43.4813" lon="6.32806">
        <ele>151</ele>
        <time>2023-03-03T12:47:41Z</time>
      </trkpt>
      <trkpt lat="43.48129" lon="6.32806">
        <ele>151</ele>
        <time>2023-03-03T12:47:42Z</time>
      </trkpt>
      <trkpt lat="43.48129" lon="6.32806">
        <ele>151</ele>
        <time>2023-03-03T12:47:43Z</time>
      </trkpt>
      <trkpt lat="43.48129" lon="6.32806">
        <ele>151</ele>
        <time>2023-03-03T12:47:44Z</time>
      </trkpt>
      <trkpt lat="43.48128" lon="6.32806">
        <ele>151</ele>
        <time>2023-03-03T12:47:45Z</time>
      </trkpt>
      <trkpt lat="43.48127" lon="6.32805">
        <ele>151</ele>
        <time>2023-03-03T12:47:46Z</time>
      </trkpt>
      <trkpt lat="43.48126" lon="6.32805">
        <ele>150.9</ele>
        <time>2023-03-03T12:47:47Z</time>
      </trkpt>
      <trkpt lat="43.48125" lon="6.32805">
        <ele>150.8</ele>
        <time>2023-03-03T12:47:48Z</time>
      </trkpt>
      <trkpt lat="43.48124" lon="6.32806">
        <ele>150.7</ele>
        <time>2023-03-03T12:47:49Z</time>
      </trkpt>
      <trkpt lat="43.48123" lon="6.32807">
        <ele>150.7</ele>
        <time>2023-03-03T12:47:50Z</time>
      </trkpt>
      <trkpt lat="43.48122" lon="6.32808">
        <ele>150.7</ele>
        <time>2023-03-03T12:47:51Z</time>
      </trkpt>
      <trkpt lat="43.48121" lon="6.32809">
        <ele>150.7</ele>
        <time>2023-03-03T12:47:52Z</time>
      </trkpt>
      <trkpt lat="43.48121" lon="6.3281">
        <ele>150.7</ele>
        <time>2023-03-03T12:47:53Z</time>
      </trkpt>
      <trkpt lat="43.4812" lon="6.32811">
        <ele>150.7</ele>
        <time>2023-03-03T12:47:54Z</time>
      </trkpt>
      <trkpt lat="43.4812" lon="6.32812">
        <ele>150.7</ele>
        <time>2023-03-03T12:47:55Z</time>
      </trkpt>
      <trkpt lat="43.4812" lon="6.32812">
        <ele>150.8</ele>
        <time>2023-03-03T12:47:56Z</time>
      </trkpt>
      <trkpt lat="43.4812" lon="6.32812">
        <ele>150.9</ele>
        <time>2023-03-03T12:47:57Z</time>
      </trkpt>
      <trkpt lat="43.4812" lon="6.32812">
        <ele>150.9</ele>
        <time>2023-03-03T12:47:58Z</time>
      </trkpt>
      <trkpt lat="43.4812" lon="6.32812">
        <ele>150.9</ele>
        <time>2023-03-03T12:47:59Z</time>
      </trkpt>
      <trkpt lat="43.4812" lon="6.32813">
        <ele>151</ele>
        <time>2023-03-03T12:48:00Z</time>
      </trkpt>
      <trkpt lat="43.4812" lon="6.32813">
        <ele>150.9</ele>
        <time>2023-03-03T12:48:01Z</time>
      </trkpt>
      <trkpt lat="43.4812" lon="6.32813">
        <ele>151</ele>
        <time>2023-03-03T12:48:02Z</time>
      </trkpt>
      <trkpt lat="43.4812" lon="6.32813">
        <ele>151</ele>
        <time>2023-03-03T12:48:03Z</time>
      </trkpt>
      <trkpt lat="43.4812" lon="6.32813">
        <ele>151</ele>
        <time>2023-03-03T12:48:04Z</time>
      </trkpt>
      <trkpt lat="43.4812" lon="6.32813">
        <ele>150.9</ele>
        <time>2023-03-03T12:48:05Z</time>
      </trkpt>
      <trkpt lat="43.4812" lon="6.32813">
        <ele>150.9</ele>
        <time>2023-03-03T12:48:06Z</time>
      </trkpt>
      <trkpt lat="43.4812" lon="6.32814">
        <ele>150.9</ele>
        <time>2023-03-03T12:48:07Z</time>
      </trkpt>
      <trkpt lat="43.4812" lon="6.32814">
        <ele>150.9</ele>
        <time>2023-03-03T12:48:08Z</time>
      </trkpt>
      <trkpt lat="43.4812" lon="6.32814">
        <ele>150.9</ele>
        <time>2023-03-03T12:48:09Z</time>
      </trkpt>
      <trkpt lat="43.4812" lon="6.32814">
        <ele>150.8</ele>
        <time>2023-03-03T12:48:10Z</time>
      </trkpt>
      <trkpt lat="43.4812" lon="6.32814">
        <ele>150.8</ele>
        <time>2023-03-03T12:48:11Z</time>
      </trkpt>
      <trkpt lat="43.4812" lon="6.32814">
        <ele>150.8</ele>
        <time>2023-03-03T12:48:12Z</time>
      </trkpt>
      <trkpt lat="43.4812" lon="6.32815">
        <ele>150.8</ele>
        <time>2023-03-03T12:48:13Z</time>
      </trkpt>
      <trkpt lat="43.4812" lon="6.32814">
        <ele>150.8</ele>
        <time>2023-03-03T12:48:14Z</time>
      </trkpt>
      <trkpt lat="43.4812" lon="6.32814">
        <ele>150.8</ele>
        <time>2023-03-03T12:48:15Z</time>
      </trkpt>
      <trkpt lat="43.4812" lon="6.32814">
        <ele>150.9</ele>
        <time>2023-03-03T12:48:16Z</time>
      </trkpt>
      <trkpt lat="43.48121" lon="6.32815">
        <ele>150.9</ele>
        <time>2023-03-03T12:48:17Z</time>
      </trkpt>
      <trkpt lat="43.48121" lon="6.32815">
        <ele>150.8</ele>
        <time>2023-03-03T12:48:18Z</time>
      </trkpt>
      <trkpt lat="43.48121" lon="6.32815">
        <ele>150.8</ele>
        <time>2023-03-03T12:48:19Z</time>
      </trkpt>
      <trkpt lat="43.48121" lon="6.32814">
        <ele>150.8</ele>
        <time>2023-03-03T12:48:20Z</time>
      </trkpt>
      <trkpt lat="43.4812" lon="6.32815">
        <ele>150.8</ele>
        <time>2023-03-03T12:48:21Z</time>
      </trkpt>
      <trkpt lat="43.48121" lon="6.32815">
        <ele>150.8</ele>
        <time>2023-03-03T12:48:22Z</time>
      </trkpt>
      <trkpt lat="43.48121" lon="6.32815">
        <ele>150.8</ele>
        <time>2023-03-03T12:48:23Z</time>
      </trkpt>
      <trkpt lat="43.48121" lon="6.32816">
        <ele>150.8</ele>
        <time>2023-03-03T12:48:24Z</time>
      </trkpt>
      <trkpt lat="43.4812" lon="6.32816">
        <ele>150.9</ele>
        <time>2023-03-03T12:48:25Z</time>
      </trkpt>
      <trkpt lat="43.4812" lon="6.32816">
        <ele>151</ele>
        <time>2023-03-03T12:48:26Z</time>
      </trkpt>
      <trkpt lat="43.48119" lon="6.32816">
        <ele>151</ele>
        <time>2023-03-03T12:48:27Z</time>
      </trkpt>
      <trkpt lat="43.48119" lon="6.32815">
        <ele>151</ele>
        <time>2023-03-03T12:48:28Z</time>
      </trkpt>
      <trkpt lat="43.48119" lon="6.32815">
        <ele>151</ele>
        <time>2023-03-03T12:48:29Z</time>
      </trkpt>
      <trkpt lat="43.48118" lon="6.32814">
        <ele>151</ele>
        <time>2023-03-03T12:48:30Z</time>
      </trkpt>
      <trkpt lat="43.48118" lon="6.32814">
        <ele>151</ele>
        <time>2023-03-03T12:48:31Z</time>
      </trkpt>
      <trkpt lat="43.48117" lon="6.32814">
        <ele>150.9</ele>
        <time>2023-03-03T12:48:32Z</time>
      </trkpt>
      <trkpt lat="43.48117" lon="6.32813">
        <ele>150.9</ele>
        <time>2023-03-03T12:48:33Z</time>
      </trkpt>
      <trkpt lat="43.48117" lon="6.32813">
        <ele>150.9</ele>
        <time>2023-03-03T12:48:34Z</time>
      </trkpt>
      <trkpt lat="43.48116" lon="6.32812">
        <ele>150.9</ele>
        <time>2023-03-03T12:48:35Z</time>
      </trkpt>
      <trkpt lat="43.48115" lon="6.32812">
        <ele>150.9</ele>
        <time>2023-03-03T12:48:36Z</time>
      </trkpt>
      <trkpt lat="43.48115" lon="6.32812">
        <ele>150.9</ele>
        <time>2023-03-03T12:48:37Z</time>
      </trkpt>
      <trkpt lat="43.48115" lon="6.32812">
        <ele>150.9</ele>
        <time>2023-03-03T12:48:38Z</time>
      </trkpt>
      <trkpt lat="43.48115" lon="6.32812">
        <ele>150.9</ele>
        <time>2023-03-03T12:48:39Z</time>
      </trkpt>
      <trkpt lat="43.48114" lon="6.32812">
        <ele>150.9</ele>
        <time>2023-03-03T12:48:40Z</time>
      </trkpt>
      <trkpt lat="43.48114" lon="6.32812">
        <ele>150.9</ele>
        <time>2023-03-03T12:48:41Z</time>
      </trkpt>
      <trkpt lat="43.48114" lon="6.32812">
        <ele>150.8</ele>
        <time>2023-03-03T12:48:42Z</time>
      </trkpt>
      <trkpt lat="43.48114" lon="6.32812">
        <ele>150.8</ele>
        <time>2023-03-03T12:48:43Z</time>
      </trkpt>
      <trkpt lat="43.48114" lon="6.32812">
        <ele>150.8</ele>
        <time>2023-03-03T12:48:44Z</time>
      </trkpt>
      <trkpt lat="43.48114" lon="6.32812">
        <ele>150.8</ele>
        <time>2023-03-03T12:48:45Z</time>
      </trkpt>
      <trkpt lat="43.48114" lon="6.32812">
        <ele>150.8</ele>
        <time>2023-03-03T12:48:46Z</time>
      </trkpt>
      <trkpt lat="43.48114" lon="6.32812">
        <ele>150.8</ele>
        <time>2023-03-03T12:48:47Z</time>
      </trkpt>
      <trkpt lat="43.48114" lon="6.32812">
        <ele>150.8</ele>
        <time>2023-03-03T12:48:48Z</time>
      </trkpt>
      <trkpt lat="43.48114" lon="6.32812">
        <ele>150.8</ele>
        <time>2023-03-03T12:48:49Z</time>
      </trkpt>
      <trkpt lat="43.48114" lon="6.32812">
        <ele>150.8</ele>
        <time>2023-03-03T12:48:50Z</time>
      </trkpt>
      <trkpt lat="43.48114" lon="6.32812">
        <ele>150.9</ele>
        <time>2023-03-03T12:48:51Z</time>
      </trkpt>
      <trkpt lat="43.48114" lon="6.32812">
        <ele>150.8</ele>
        <time>2023-03-03T12:48:52Z</time>
      </trkpt>
      <trkpt lat="43.48114" lon="6.32812">
        <ele>150.8</ele>
        <time>2023-03-03T12:48:53Z</time>
      </trkpt>
      <trkpt lat="43.48114" lon="6.32813">
        <ele>150.8</ele>
        <time>2023-03-03T12:48:54Z</time>
      </trkpt>
      <trkpt lat="43.48114" lon="6.32813">
        <ele>150.8</ele>
        <time>2023-03-03T12:48:55Z</time>
      </trkpt>
      <trkpt lat="43.48114" lon="6.32813">
        <ele>150.8</ele>
        <time>2023-03-03T12:48:56Z</time>
      </trkpt>
      <trkpt lat="43.48114" lon="6.32813">
        <ele>150.8</ele>
        <time>2023-03-03T12:48:57Z</time>
      </trkpt>
      <trkpt lat="43.48114" lon="6.32813">
        <ele>150.8</ele>
        <time>2023-03-03T12:48:58Z</time>
      </trkpt>
      <trkpt lat="43.48114" lon="6.32813">
        <ele>150.8</ele>
        <time>2023-03-03T12:48:59Z</time>
      </trkpt>
      <trkpt lat="43.48113" lon="6.32813">
        <ele>150.8</ele>
        <time>2023-03-03T12:49:00Z</time>
      </trkpt>
      <trkpt lat="43.48114" lon="6.32813">
        <ele>150.8</ele>
        <time>2023-03-03T12:49:01Z</time>
      </trkpt>
      <trkpt lat="43.48114" lon="6.32813">
        <ele>150.9</ele>
        <time>2023-03-03T12:49:02Z</time>
      </trkpt>
      <trkpt lat="43.48114" lon="6.32813">
        <ele>150.8</ele>
        <time>2023-03-03T12:49:03Z</time>
      </trkpt>
      <trkpt lat="43.48113" lon="6.32813">
        <ele>150.8</ele>
        <time>2023-03-03T12:49:04Z</time>
      </trkpt>
      <trkpt lat="43.48113" lon="6.32813">
        <ele>150.8</ele>
        <time>2023-03-03T12:49:05Z</time>
      </trkpt>
      <trkpt lat="43.48113" lon="6.32813">
        <ele>150.8</ele>
        <time>2023-03-03T12:49:06Z</time>
      </trkpt>
      <trkpt lat="43.48113" lon="6.32813">
        <ele>150.8</ele>
        <time>2023-03-03T12:49:07Z</time>
      </trkpt>
      <trkpt lat="43.48113" lon="6.32813">
        <ele>150.9</ele>
        <time>2023-03-03T12:49:08Z</time>
      </trkpt>
      <trkpt lat="43.48113" lon="6.32813">
        <ele>150.9</ele>
        <time>2023-03-03T12:49:09Z</time>
      </trkpt>
      <trkpt lat="43.48113" lon="6.32813">
        <ele>151</ele>
        <time>2023-03-03T12:49:10Z</time>
      </trkpt>
      <trkpt lat="43.48113" lon="6.32812">
        <ele>151</ele>
        <time>2023-03-03T12:49:11Z</time>
      </trkpt>
      <trkpt lat="43.48113" lon="6.32812">
        <ele>151</ele>
        <time>2023-03-03T12:49:12Z</time>
      </trkpt>
      <trkpt lat="43.48114" lon="6.32812">
        <ele>151.1</ele>
        <time>2023-03-03T12:49:13Z</time>
      </trkpt>
      <trkpt lat="43.48113" lon="6.32811">
        <ele>151</ele>
        <time>2023-03-03T12:49:14Z</time>
      </trkpt>
      <trkpt lat="43.48113" lon="6.32811">
        <ele>150.9</ele>
        <time>2023-03-03T12:49:15Z</time>
      </trkpt>
      <trkpt lat="43.48112" lon="6.32811">
        <ele>150.9</ele>
        <time>2023-03-03T12:49:16Z</time>
      </trkpt>
      <trkpt lat="43.48112" lon="6.3281">
        <ele>150.8</ele>
        <time>2023-03-03T12:49:17Z</time>
      </trkpt>
      <trkpt lat="43.48112" lon="6.32809">
        <ele>150.8</ele>
        <time>2023-03-03T12:49:18Z</time>
      </trkpt>
      <trkpt lat="43.48112" lon="6.32808">
        <ele>150.7</ele>
        <time>2023-03-03T12:49:19Z</time>
      </trkpt>
      <trkpt lat="43.48111" lon="6.32807">
        <ele>150.7</ele>
        <time>2023-03-03T12:49:20Z</time>
      </trkpt>
      <trkpt lat="43.48111" lon="6.32807">
        <ele>150.7</ele>
        <time>2023-03-03T12:49:21Z</time>
      </trkpt>
      <trkpt lat="43.48111" lon="6.32806">
        <ele>150.6</ele>
        <time>2023-03-03T12:49:22Z</time>
      </trkpt>
      <trkpt lat="43.48111" lon="6.32806">
        <ele>150.6</ele>
        <time>2023-03-03T12:49:23Z</time>
      </trkpt>
      <trkpt lat="43.48111" lon="6.32805">
        <ele>150.5</ele>
        <time>2023-03-03T12:49:24Z</time>
      </trkpt>
      <trkpt lat="43.48111" lon="6.32804">
        <ele>150.6</ele>
        <time>2023-03-03T12:49:25Z</time>
      </trkpt>
      <trkpt lat="43.48111" lon="6.32802">
        <ele>150.6</ele>
        <time>2023-03-03T12:49:26Z</time>
      </trkpt>
      <trkpt lat="43.4811" lon="6.32801">
        <ele>150.6</ele>
        <time>2023-03-03T12:49:27Z</time>
      </trkpt>
      <trkpt lat="43.48108" lon="6.328">
        <ele>150.6</ele>
        <time>2023-03-03T12:49:28Z</time>
      </trkpt>
      <trkpt lat="43.48108" lon="6.32799">
        <ele>150.5</ele>
        <time>2023-03-03T12:49:29Z</time>
      </trkpt>
      <trkpt lat="43.48106" lon="6.32798">
        <ele>150.4</ele>
        <time>2023-03-03T12:49:30Z</time>
      </trkpt>
      <trkpt lat="43.48105" lon="6.32797">
        <ele>150.3</ele>
        <time>2023-03-03T12:49:31Z</time>
      </trkpt>
      <trkpt lat="43.48104" lon="6.32795">
        <ele>150.3</ele>
        <time>2023-03-03T12:49:32Z</time>
      </trkpt>
      <trkpt lat="43.48104" lon="6.32793">
        <ele>150.2</ele>
        <time>2023-03-03T12:49:33Z</time>
      </trkpt>
      <trkpt lat="43.48103" lon="6.32791">
        <ele>150.2</ele>
        <time>2023-03-03T12:49:34Z</time>
      </trkpt>
      <trkpt lat="43.48102" lon="6.3279">
        <ele>150</ele>
        <time>2023-03-03T12:49:35Z</time>
      </trkpt>
      <trkpt lat="43.48102" lon="6.32789">
        <ele>149.9</ele>
        <time>2023-03-03T12:49:36Z</time>
      </trkpt>
      <trkpt lat="43.48102" lon="6.32787">
        <ele>149.8</ele>
        <time>2023-03-03T12:49:37Z</time>
      </trkpt>
      <trkpt lat="43.48101" lon="6.32785">
        <ele>149.7</ele>
        <time>2023-03-03T12:49:38Z</time>
      </trkpt>
      <trkpt lat="43.481" lon="6.32783">
        <ele>149.6</ele>
        <time>2023-03-03T12:49:39Z</time>
      </trkpt>
      <trkpt lat="43.481" lon="6.32782">
        <ele>149.4</ele>
        <time>2023-03-03T12:49:40Z</time>
      </trkpt>
      <trkpt lat="43.481" lon="6.32781">
        <ele>149.4</ele>
        <time>2023-03-03T12:49:41Z</time>
      </trkpt>
      <trkpt lat="43.48099" lon="6.3278">
        <ele>149.3</ele>
        <time>2023-03-03T12:49:42Z</time>
      </trkpt>
      <trkpt lat="43.48098" lon="6.32778">
        <ele>149.2</ele>
        <time>2023-03-03T12:49:43Z</time>
      </trkpt>
      <trkpt lat="43.48098" lon="6.32776">
        <ele>149.1</ele>
        <time>2023-03-03T12:49:44Z</time>
      </trkpt>
      <trkpt lat="43.48097" lon="6.32776">
        <ele>149.1</ele>
        <time>2023-03-03T12:49:45Z</time>
      </trkpt>
      <trkpt lat="43.48095" lon="6.32774">
        <ele>148.9</ele>
        <time>2023-03-03T12:49:46Z</time>
      </trkpt>
      <trkpt lat="43.48095" lon="6.32774">
        <ele>148.7</ele>
        <time>2023-03-03T12:49:47Z</time>
      </trkpt>
      <trkpt lat="43.48094" lon="6.32773">
        <ele>148.5</ele>
        <time>2023-03-03T12:49:48Z</time>
      </trkpt>
      <trkpt lat="43.48094" lon="6.32772">
        <ele>148.4</ele>
        <time>2023-03-03T12:49:49Z</time>
      </trkpt>
      <trkpt lat="43.48093" lon="6.32771">
        <ele>148.3</ele>
        <time>2023-03-03T12:49:50Z</time>
      </trkpt>
      <trkpt lat="43.48092" lon="6.3277">
        <ele>148.2</ele>
        <time>2023-03-03T12:49:51Z</time>
      </trkpt>
      <trkpt lat="43.48091" lon="6.32769">
        <ele>148.1</ele>
        <time>2023-03-03T12:49:52Z</time>
      </trkpt>
      <trkpt lat="43.4809" lon="6.32768">
        <ele>148</ele>
        <time>2023-03-03T12:49:53Z</time>
      </trkpt>
      <trkpt lat="43.48089" lon="6.32767">
        <ele>147.8</ele>
        <time>2023-03-03T12:49:54Z</time>
      </trkpt>
      <trkpt lat="43.48087" lon="6.32766">
        <ele>147.7</ele>
        <time>2023-03-03T12:49:55Z</time>
      </trkpt>
      <trkpt lat="43.48086" lon="6.32766">
        <ele>147.5</ele>
        <time>2023-03-03T12:49:56Z</time>
      </trkpt>
      <trkpt lat="43.48084" lon="6.32766">
        <ele>147.4</ele>
        <time>2023-03-03T12:49:57Z</time>
      </trkpt>
      <trkpt lat="43.48082" lon="6.32766">
        <ele>147.2</ele>
        <time>2023-03-03T12:49:58Z</time>
      </trkpt>
      <trkpt lat="43.48078" lon="6.32773">
        <ele>148.8</ele>
        <time>2023-03-03T13:05:22Z</time>
      </trkpt>
      <trkpt lat="43.48078" lon="6.32773">
        <ele>148.7</ele>
        <time>2023-03-03T13:05:23Z</time>
      </trkpt>
      <trkpt lat="43.48078" lon="6.32773">
        <ele>148.7</ele>
        <time>2023-03-03T13:05:24Z</time>
      </trkpt>
      <trkpt lat="43.48078" lon="6.32773">
        <ele>148.7</ele>
        <time>2023-03-03T13:05:26Z</time>
      </trkpt>
      <trkpt lat="43.48078" lon="6.32773">
        <ele>148.6</ele>
        <time>2023-03-03T13:05:27Z</time>
      </trkpt>
      <trkpt lat="43.48078" lon="6.32773">
        <ele>148.6</ele>
        <time>2023-03-03T13:05:28Z</time>
      </trkpt>
      <trkpt lat="43.48078" lon="6.32771">
        <ele>148.6</ele>
        <time>2023-03-03T13:05:29Z</time>
      </trkpt>
      <trkpt lat="43.48078" lon="6.32771">
        <ele>148.5</ele>
        <time>2023-03-03T13:05:30Z</time>
      </trkpt>
      <trkpt lat="43.48077" lon="6.3277">
        <ele>148.4</ele>
        <time>2023-03-03T13:05:31Z</time>
      </trkpt>
      <trkpt lat="43.48077" lon="6.32771">
        <ele>148.4</ele>
        <time>2023-03-03T13:05:32Z</time>
      </trkpt>
      <trkpt lat="43.48076" lon="6.3277">
        <ele>148.3</ele>
        <time>2023-03-03T13:05:33Z</time>
      </trkpt>
      <trkpt lat="43.48075" lon="6.3277">
        <ele>148.3</ele>
        <time>2023-03-03T13:05:34Z</time>
      </trkpt>
      <trkpt lat="43.48076" lon="6.32768">
        <ele>148.2</ele>
        <time>2023-03-03T13:05:35Z</time>
      </trkpt>
      <trkpt lat="43.48076" lon="6.32768">
        <ele>148.1</ele>
        <time>2023-03-03T13:05:36Z</time>
      </trkpt>
      <trkpt lat="43.48075" lon="6.32768">
        <ele>148</ele>
        <time>2023-03-03T13:05:37Z</time>
      </trkpt>
      <trkpt lat="43.48074" lon="6.32767">
        <ele>147.9</ele>
        <time>2023-03-03T13:05:38Z</time>
      </trkpt>
      <trkpt lat="43.48073" lon="6.32766">
        <ele>147.8</ele>
        <time>2023-03-03T13:05:39Z</time>
      </trkpt>
      <trkpt lat="43.48071" lon="6.32764">
        <ele>147.8</ele>
        <time>2023-03-03T13:05:40Z</time>
      </trkpt>
      <trkpt lat="43.4807" lon="6.32762">
        <ele>147.6</ele>
        <time>2023-03-03T13:05:41Z</time>
      </trkpt>
      <trkpt lat="43.48068" lon="6.3276">
        <ele>147.3</ele>
        <time>2023-03-03T13:05:42Z</time>
      </trkpt>
      <trkpt lat="43.48067" lon="6.32758">
        <ele>147.5</ele>
        <time>2023-03-03T13:05:43Z</time>
      </trkpt>
      <trkpt lat="43.48067" lon="6.32757">
        <ele>147.4</ele>
        <time>2023-03-03T13:05:44Z</time>
      </trkpt>
      <trkpt lat="43.48068" lon="6.32755">
        <ele>147.2</ele>
        <time>2023-03-03T13:05:45Z</time>
      </trkpt>
      <trkpt lat="43.48068" lon="6.32753">
        <ele>146.9</ele>
        <time>2023-03-03T13:05:46Z</time>
      </trkpt>
      <trkpt lat="43.48068" lon="6.3275">
        <ele>146.7</ele>
        <time>2023-03-03T13:05:47Z</time>
      </trkpt>
      <trkpt lat="43.48068" lon="6.32749">
        <ele>146.3</ele>
        <time>2023-03-03T13:05:48Z</time>
      </trkpt>
      <trkpt lat="43.48067" lon="6.32747">
        <ele>146.1</ele>
        <time>2023-03-03T13:05:49Z</time>
      </trkpt>
      <trkpt lat="43.48065" lon="6.32747">
        <ele>145.9</ele>
        <time>2023-03-03T13:05:50Z</time>
      </trkpt>
      <trkpt lat="43.48063" lon="6.32746">
        <ele>145</ele>
        <time>2023-03-03T13:05:51Z</time>
      </trkpt>
      <trkpt lat="43.48061" lon="6.32746">
        <ele>144.8</ele>
        <time>2023-03-03T13:05:52Z</time>
      </trkpt>
      <trkpt lat="43.48059" lon="6.32745">
        <ele>144.7</ele>
        <time>2023-03-03T13:05:53Z</time>
      </trkpt>
      <trkpt lat="43.48056" lon="6.32745">
        <ele>144.7</ele>
        <time>2023-03-03T13:05:54Z</time>
      </trkpt>
      <trkpt lat="43.48053" lon="6.32745">
        <ele>144.6</ele>
        <time>2023-03-03T13:05:55Z</time>
      </trkpt>
      <trkpt lat="43.48052" lon="6.32744">
        <ele>144.5</ele>
        <time>2023-03-03T13:05:56Z</time>
      </trkpt>
      <trkpt lat="43.48051" lon="6.32744">
        <ele>144.4</ele>
        <time>2023-03-03T13:05:57Z</time>
      </trkpt>
      <trkpt lat="43.48049" lon="6.32743">
        <ele>144.3</ele>
        <time>2023-03-03T13:05:58Z</time>
      </trkpt>
      <trkpt lat="43.48046" lon="6.32742">
        <ele>144.2</ele>
        <time>2023-03-03T13:05:59Z</time>
      </trkpt>
      <trkpt lat="43.48043" lon="6.3274">
        <ele>144.1</ele>
        <time>2023-03-03T13:06:00Z</time>
      </trkpt>
      <trkpt lat="43.48041" lon="6.3274">
        <ele>143.9</ele>
        <time>2023-03-03T13:06:01Z</time>
      </trkpt>
      <trkpt lat="43.48038" lon="6.32739">
        <ele>143.9</ele>
        <time>2023-03-03T13:06:02Z</time>
      </trkpt>
      <trkpt lat="43.48035" lon="6.32738">
        <ele>143.8</ele>
        <time>2023-03-03T13:06:03Z</time>
      </trkpt>
      <trkpt lat="43.48032" lon="6.32738">
        <ele>143.7</ele>
        <time>2023-03-03T13:06:04Z</time>
      </trkpt>
      <trkpt lat="43.48029" lon="6.32738">
        <ele>143.6</ele>
        <time>2023-03-03T13:06:05Z</time>
      </trkpt>
      <trkpt lat="43.48026" lon="6.32737">
        <ele>143.6</ele>
        <time>2023-03-03T13:06:06Z</time>
      </trkpt>
      <trkpt lat="43.48024" lon="6.32736">
        <ele>143.5</ele>
        <time>2023-03-03T13:06:07Z</time>
      </trkpt>
      <trkpt lat="43.48021" lon="6.32736">
        <ele>143.4</ele>
        <time>2023-03-03T13:06:08Z</time>
      </trkpt>
      <trkpt lat="43.48018" lon="6.32736">
        <ele>143.3</ele>
        <time>2023-03-03T13:06:09Z</time>
      </trkpt>
      <trkpt lat="43.48016" lon="6.32736">
        <ele>143.2</ele>
        <time>2023-03-03T13:06:10Z</time>
      </trkpt>
      <trkpt lat="43.48014" lon="6.32735">
        <ele>143.2</ele>
        <time>2023-03-03T13:06:11Z</time>
      </trkpt>
      <trkpt lat="43.4801" lon="6.32734">
        <ele>143.3</ele>
        <time>2023-03-03T13:06:12Z</time>
      </trkpt>
      <trkpt lat="43.48007" lon="6.32734">
        <ele>143.4</ele>
        <time>2023-03-03T13:06:13Z</time>
      </trkpt>
      <trkpt lat="43.48005" lon="6.32734">
        <ele>143.5</ele>
        <time>2023-03-03T13:06:14Z</time>
      </trkpt>
      <trkpt lat="43.48002" lon="6.32733">
        <ele>143.4</ele>
        <time>2023-03-03T13:06:15Z</time>
      </trkpt>
      <trkpt lat="43.48" lon="6.32733">
        <ele>143.4</ele>
        <time>2023-03-03T13:06:16Z</time>
      </trkpt>
      <trkpt lat="43.47998" lon="6.32733">
        <ele>143.3</ele>
        <time>2023-03-03T13:06:17Z</time>
      </trkpt>
      <trkpt lat="43.47995" lon="6.32733">
        <ele>143.2</ele>
        <time>2023-03-03T13:06:18Z</time>
      </trkpt>
      <trkpt lat="43.47992" lon="6.32732">
        <ele>143</ele>
        <time>2023-03-03T13:06:19Z</time>
      </trkpt>
      <trkpt lat="43.47988" lon="6.32732">
        <ele>143.1</ele>
        <time>2023-03-03T13:06:20Z</time>
      </trkpt>
      <trkpt lat="43.47986" lon="6.32732">
        <ele>143.1</ele>
        <time>2023-03-03T13:06:21Z</time>
      </trkpt>
      <trkpt lat="43.47982" lon="6.32731">
        <ele>143</ele>
        <time>2023-03-03T13:06:22Z</time>
      </trkpt>
      <trkpt lat="43.4798" lon="6.32732">
        <ele>143</ele>
        <time>2023-03-03T13:06:23Z</time>
      </trkpt>
      <trkpt lat="43.47976" lon="6.32732">
        <ele>142.9</ele>
        <time>2023-03-03T13:06:24Z</time>
      </trkpt>
      <trkpt lat="43.47973" lon="6.32732">
        <ele>143</ele>
        <time>2023-03-03T13:06:25Z</time>
      </trkpt>
      <trkpt lat="43.4797" lon="6.32732">
        <ele>143</ele>
        <time>2023-03-03T13:06:26Z</time>
      </trkpt>
      <trkpt lat="43.47969" lon="6.32732">
        <ele>143.1</ele>
        <time>2023-03-03T13:06:27Z</time>
      </trkpt>
      <trkpt lat="43.47967" lon="6.32734">
        <ele>143.2</ele>
        <time>2023-03-03T13:06:28Z</time>
      </trkpt>
      <trkpt lat="43.47964" lon="6.32734">
        <ele>143.1</ele>
        <time>2023-03-03T13:06:29Z</time>
      </trkpt>
      <trkpt lat="43.47961" lon="6.32734">
        <ele>143.2</ele>
        <time>2023-03-03T13:06:30Z</time>
      </trkpt>
      <trkpt lat="43.47959" lon="6.32734">
        <ele>143.3</ele>
        <time>2023-03-03T13:06:31Z</time>
      </trkpt>
      <trkpt lat="43.47956" lon="6.32734">
        <ele>143.5</ele>
        <time>2023-03-03T13:06:32Z</time>
      </trkpt>
      <trkpt lat="43.47954" lon="6.32735">
        <ele>143.6</ele>
        <time>2023-03-03T13:06:33Z</time>
      </trkpt>
      <trkpt lat="43.4795" lon="6.32735">
        <ele>143.7</ele>
        <time>2023-03-03T13:06:34Z</time>
      </trkpt>
      <trkpt lat="43.47947" lon="6.32734">
        <ele>143.8</ele>
        <time>2023-03-03T13:06:35Z</time>
      </trkpt>
      <trkpt lat="43.47944" lon="6.32735">
        <ele>143.9</ele>
        <time>2023-03-03T13:06:36Z</time>
      </trkpt>
      <trkpt lat="43.47941" lon="6.32735">
        <ele>144</ele>
        <time>2023-03-03T13:06:37Z</time>
      </trkpt>
      <trkpt lat="43.47938" lon="6.32735">
        <ele>144</ele>
        <time>2023-03-03T13:06:38Z</time>
      </trkpt>
      <trkpt lat="43.47936" lon="6.32736">
        <ele>144.2</ele>
        <time>2023-03-03T13:06:39Z</time>
      </trkpt>
      <trkpt lat="43.47933" lon="6.32736">
        <ele>144.3</ele>
        <time>2023-03-03T13:06:40Z</time>
      </trkpt>
      <trkpt lat="43.47933" lon="6.32737">
        <ele>144.4</ele>
        <time>2023-03-03T13:06:41Z</time>
      </trkpt>
      <trkpt lat="43.47931" lon="6.32737">
        <ele>144.6</ele>
        <time>2023-03-03T13:06:42Z</time>
      </trkpt>
      <trkpt lat="43.4793" lon="6.32737">
        <ele>144.7</ele>
        <time>2023-03-03T13:06:43Z</time>
      </trkpt>
      <trkpt lat="43.47927" lon="6.32737">
        <ele>144.9</ele>
        <time>2023-03-03T13:06:44Z</time>
      </trkpt>
      <trkpt lat="43.47925" lon="6.32737">
        <ele>145</ele>
        <time>2023-03-03T13:06:45Z</time>
      </trkpt>
      <trkpt lat="43.47923" lon="6.32737">
        <ele>145.1</ele>
        <time>2023-03-03T13:06:46Z</time>
      </trkpt>
      <trkpt lat="43.47922" lon="6.32737">
        <ele>145.2</ele>
        <time>2023-03-03T13:06:47Z</time>
      </trkpt>
      <trkpt lat="43.47919" lon="6.32738">
        <ele>145.2</ele>
        <time>2023-03-03T13:06:48Z</time>
      </trkpt>
      <trkpt lat="43.47918" lon="6.32737">
        <ele>145.3</ele>
        <time>2023-03-03T13:06:49Z</time>
      </trkpt>
      <trkpt lat="43.47916" lon="6.32736">
        <ele>145.2</ele>
        <time>2023-03-03T13:06:50Z</time>
      </trkpt>
      <trkpt lat="43.47915" lon="6.32735">
        <ele>145</ele>
        <time>2023-03-03T13:06:51Z</time>
      </trkpt>
      <trkpt lat="43.47913" lon="6.32734">
        <ele>145</ele>
        <time>2023-03-03T13:06:52Z</time>
      </trkpt>
      <trkpt lat="43.47912" lon="6.32734">
        <ele>144.9</ele>
        <time>2023-03-03T13:06:53Z</time>
      </trkpt>
      <trkpt lat="43.47911" lon="6.32733">
        <ele>144.8</ele>
        <time>2023-03-03T13:06:54Z</time>
      </trkpt>
      <trkpt lat="43.4791" lon="6.32731">
        <ele>144.8</ele>
        <time>2023-03-03T13:06:55Z</time>
      </trkpt>
      <trkpt lat="43.47909" lon="6.32729">
        <ele>144.8</ele>
        <time>2023-03-03T13:06:56Z</time>
      </trkpt>
      <trkpt lat="43.47909" lon="6.32728">
        <ele>144.8</ele>
        <time>2023-03-03T13:06:57Z</time>
      </trkpt>
      <trkpt lat="43.47908" lon="6.32727">
        <ele>144.7</ele>
        <time>2023-03-03T13:06:58Z</time>
      </trkpt>
      <trkpt lat="43.47907" lon="6.32726">
        <ele>144.6</ele>
        <time>2023-03-03T13:06:59Z</time>
      </trkpt>
      <trkpt lat="43.47905" lon="6.32724">
        <ele>144.5</ele>
        <time>2023-03-03T13:07:00Z</time>
      </trkpt>
      <trkpt lat="43.47903" lon="6.32723">
        <ele>144.4</ele>
        <time>2023-03-03T13:07:01Z</time>
      </trkpt>
      <trkpt lat="43.47901" lon="6.32721">
        <ele>144.4</ele>
        <time>2023-03-03T13:07:02Z</time>
      </trkpt>
      <trkpt lat="43.479" lon="6.3272">
        <ele>144.4</ele>
        <time>2023-03-03T13:07:03Z</time>
      </trkpt>
      <trkpt lat="43.47898" lon="6.3272">
        <ele>144.3</ele>
        <time>2023-03-03T13:07:04Z</time>
      </trkpt>
      <trkpt lat="43.47898" lon="6.3272">
        <ele>144.9</ele>
        <time>2023-03-03T13:07:05Z</time>
      </trkpt>
      <trkpt lat="43.47896" lon="6.32719">
        <ele>144.7</ele>
        <time>2023-03-03T13:07:06Z</time>
      </trkpt>
      <trkpt lat="43.47895" lon="6.32717">
        <ele>144.6</ele>
        <time>2023-03-03T13:07:07Z</time>
      </trkpt>
      <trkpt lat="43.47894" lon="6.32715">
        <ele>144.6</ele>
        <time>2023-03-03T13:07:08Z</time>
      </trkpt>
      <trkpt lat="43.47891" lon="6.32714">
        <ele>144.6</ele>
        <time>2023-03-03T13:07:09Z</time>
      </trkpt>
      <trkpt lat="43.47889" lon="6.32712">
        <ele>144.7</ele>
        <time>2023-03-03T13:07:10Z</time>
      </trkpt>
      <trkpt lat="43.47887" lon="6.32711">
        <ele>144.9</ele>
        <time>2023-03-03T13:07:11Z</time>
      </trkpt>
      <trkpt lat="43.47885" lon="6.32709">
        <ele>145</ele>
        <time>2023-03-03T13:07:12Z</time>
      </trkpt>
      <trkpt lat="43.47883" lon="6.32709">
        <ele>145.1</ele>
        <time>2023-03-03T13:07:13Z</time>
      </trkpt>
      <trkpt lat="43.47882" lon="6.32707">
        <ele>145.2</ele>
        <time>2023-03-03T13:07:14Z</time>
      </trkpt>
      <trkpt lat="43.47881" lon="6.32706">
        <ele>145.3</ele>
        <time>2023-03-03T13:07:15Z</time>
      </trkpt>
      <trkpt lat="43.47881" lon="6.32705">
        <ele>145.5</ele>
        <time>2023-03-03T13:07:16Z</time>
      </trkpt>
      <trkpt lat="43.4788" lon="6.32703">
        <ele>145.7</ele>
        <time>2023-03-03T13:07:17Z</time>
      </trkpt>
      <trkpt lat="43.47879" lon="6.32702">
        <ele>145.9</ele>
        <time>2023-03-03T13:07:18Z</time>
      </trkpt>
      <trkpt lat="43.47877" lon="6.32701">
        <ele>146</ele>
        <time>2023-03-03T13:07:19Z</time>
      </trkpt>
      <trkpt lat="43.47874" lon="6.32699">
        <ele>146</ele>
        <time>2023-03-03T13:07:20Z</time>
      </trkpt>
      <trkpt lat="43.47871" lon="6.32696">
        <ele>146.1</ele>
        <time>2023-03-03T13:07:21Z</time>
      </trkpt>
      <trkpt lat="43.47867" lon="6.32692">
        <ele>146.1</ele>
        <time>2023-03-03T13:07:22Z</time>
      </trkpt>
      <trkpt lat="43.47864" lon="6.32689">
        <ele>146.2</ele>
        <time>2023-03-03T13:07:23Z</time>
      </trkpt>
      <trkpt lat="43.47861" lon="6.32687">
        <ele>146.3</ele>
        <time>2023-03-03T13:07:24Z</time>
      </trkpt>
      <trkpt lat="43.47858" lon="6.32685">
        <ele>146.3</ele>
        <time>2023-03-03T13:07:25Z</time>
      </trkpt>
      <trkpt lat="43.47856" lon="6.32683">
        <ele>146.3</ele>
        <time>2023-03-03T13:07:26Z</time>
      </trkpt>
      <trkpt lat="43.47854" lon="6.32681">
        <ele>146.2</ele>
        <time>2023-03-03T13:07:27Z</time>
      </trkpt>
      <trkpt lat="43.47852" lon="6.32678">
        <ele>146.2</ele>
        <time>2023-03-03T13:07:28Z</time>
      </trkpt>
      <trkpt lat="43.4785" lon="6.32676">
        <ele>146.2</ele>
        <time>2023-03-03T13:07:29Z</time>
      </trkpt>
      <trkpt lat="43.47849" lon="6.32674">
        <ele>146.1</ele>
        <time>2023-03-03T13:07:30Z</time>
      </trkpt>
      <trkpt lat="43.47847" lon="6.32671">
        <ele>145.6</ele>
        <time>2023-03-03T13:07:31Z</time>
      </trkpt>
      <trkpt lat="43.47846" lon="6.32668">
        <ele>145.6</ele>
        <time>2023-03-03T13:07:32Z</time>
      </trkpt>
      <trkpt lat="43.47844" lon="6.32665">
        <ele>145.7</ele>
        <time>2023-03-03T13:07:33Z</time>
      </trkpt>
      <trkpt lat="43.47843" lon="6.32663">
        <ele>145.6</ele>
        <time>2023-03-03T13:07:34Z</time>
      </trkpt>
      <trkpt lat="43.47841" lon="6.3266">
        <ele>145.6</ele>
        <time>2023-03-03T13:07:35Z</time>
      </trkpt>
      <trkpt lat="43.47839" lon="6.32657">
        <ele>145.4</ele>
        <time>2023-03-03T13:07:36Z</time>
      </trkpt>
      <trkpt lat="43.47837" lon="6.32654">
        <ele>145</ele>
        <time>2023-03-03T13:07:37Z</time>
      </trkpt>
      <trkpt lat="43.47836" lon="6.32652">
        <ele>144.9</ele>
        <time>2023-03-03T13:07:38Z</time>
      </trkpt>
      <trkpt lat="43.47835" lon="6.3265">
        <ele>144.7</ele>
        <time>2023-03-03T13:07:39Z</time>
      </trkpt>
      <trkpt lat="43.47833" lon="6.32647">
        <ele>144.5</ele>
        <time>2023-03-03T13:07:40Z</time>
      </trkpt>
      <trkpt lat="43.47832" lon="6.32644">
        <ele>144</ele>
        <time>2023-03-03T13:07:41Z</time>
      </trkpt>
      <trkpt lat="43.47831" lon="6.32642">
        <ele>143.8</ele>
        <time>2023-03-03T13:07:42Z</time>
      </trkpt>
      <trkpt lat="43.47829" lon="6.32639">
        <ele>143.6</ele>
        <time>2023-03-03T13:07:43Z</time>
      </trkpt>
      <trkpt lat="43.47828" lon="6.32638">
        <ele>143.4</ele>
        <time>2023-03-03T13:07:44Z</time>
      </trkpt>
      <trkpt lat="43.47827" lon="6.32635">
        <ele>143.2</ele>
        <time>2023-03-03T13:07:45Z</time>
      </trkpt>
      <trkpt lat="43.47825" lon="6.32633">
        <ele>142.9</ele>
        <time>2023-03-03T13:07:46Z</time>
      </trkpt>
      <trkpt lat="43.47824" lon="6.32631">
        <ele>142.7</ele>
        <time>2023-03-03T13:07:47Z</time>
      </trkpt>
      <trkpt lat="43.47823" lon="6.32629">
        <ele>142.4</ele>
        <time>2023-03-03T13:07:48Z</time>
      </trkpt>
      <trkpt lat="43.47822" lon="6.32626">
        <ele>142.4</ele>
        <time>2023-03-03T13:07:49Z</time>
      </trkpt>
      <trkpt lat="43.4782" lon="6.32623">
        <ele>142.1</ele>
        <time>2023-03-03T13:07:50Z</time>
      </trkpt>
      <trkpt lat="43.4782" lon="6.3262">
        <ele>141.9</ele>
        <time>2023-03-03T13:07:51Z</time>
      </trkpt>
      <trkpt lat="43.47817" lon="6.32618">
        <ele>141.7</ele>
        <time>2023-03-03T13:07:52Z</time>
      </trkpt>
      <trkpt lat="43.47816" lon="6.32615">
        <ele>141.4</ele>
        <time>2023-03-03T13:07:53Z</time>
      </trkpt>
      <trkpt lat="43.47814" lon="6.32612">
        <ele>141.2</ele>
        <time>2023-03-03T13:07:54Z</time>
      </trkpt>
      <trkpt lat="43.47813" lon="6.32609">
        <ele>141</ele>
        <time>2023-03-03T13:07:55Z</time>
      </trkpt>
      <trkpt lat="43.47812" lon="6.32608">
        <ele>140.9</ele>
        <time>2023-03-03T13:07:56Z</time>
      </trkpt>
      <trkpt lat="43.47811" lon="6.32606">
        <ele>141</ele>
        <time>2023-03-03T13:07:57Z</time>
      </trkpt>
      <trkpt lat="43.47811" lon="6.32603">
        <ele>140.7</ele>
        <time>2023-03-03T13:07:58Z</time>
      </trkpt>
      <trkpt lat="43.4781" lon="6.32601">
        <ele>140.7</ele>
        <time>2023-03-03T13:07:59Z</time>
      </trkpt>
      <trkpt lat="43.47809" lon="6.32599">
        <ele>140.1</ele>
        <time>2023-03-03T13:08:00Z</time>
      </trkpt>
      <trkpt lat="43.47808" lon="6.32596">
        <ele>139.8</ele>
        <time>2023-03-03T13:08:01Z</time>
      </trkpt>
      <trkpt lat="43.47806" lon="6.32593">
        <ele>139.5</ele>
        <time>2023-03-03T13:08:02Z</time>
      </trkpt>
      <trkpt lat="43.47805" lon="6.32591">
        <ele>139.2</ele>
        <time>2023-03-03T13:08:03Z</time>
      </trkpt>
      <trkpt lat="43.47804" lon="6.32589">
        <ele>139</ele>
        <time>2023-03-03T13:08:04Z</time>
      </trkpt>
      <trkpt lat="43.47803" lon="6.32586">
        <ele>138.9</ele>
        <time>2023-03-03T13:08:05Z</time>
      </trkpt>
      <trkpt lat="43.47802" lon="6.32584">
        <ele>138.5</ele>
        <time>2023-03-03T13:08:06Z</time>
      </trkpt>
      <trkpt lat="43.47801" lon="6.32582">
        <ele>138.2</ele>
        <time>2023-03-03T13:08:07Z</time>
      </trkpt>
      <trkpt lat="43.478" lon="6.32579">
        <ele>138.1</ele>
        <time>2023-03-03T13:08:08Z</time>
      </trkpt>
      <trkpt lat="43.47799" lon="6.32576">
        <ele>138.2</ele>
        <time>2023-03-03T13:08:09Z</time>
      </trkpt>
      <trkpt lat="43.47799" lon="6.32573">
        <ele>137.7</ele>
        <time>2023-03-03T13:08:10Z</time>
      </trkpt>
      <trkpt lat="43.47798" lon="6.3257">
        <ele>137.4</ele>
        <time>2023-03-03T13:08:11Z</time>
      </trkpt>
      <trkpt lat="43.47798" lon="6.32567">
        <ele>137.2</ele>
        <time>2023-03-03T13:08:12Z</time>
      </trkpt>
      <trkpt lat="43.47797" lon="6.32564">
        <ele>136.9</ele>
        <time>2023-03-03T13:08:13Z</time>
      </trkpt>
      <trkpt lat="43.47796" lon="6.3256">
        <ele>136.7</ele>
        <time>2023-03-03T13:08:14Z</time>
      </trkpt>
      <trkpt lat="43.47795" lon="6.32556">
        <ele>136.5</ele>
        <time>2023-03-03T13:08:15Z</time>
      </trkpt>
      <trkpt lat="43.47795" lon="6.32553">
        <ele>136.3</ele>
        <time>2023-03-03T13:08:16Z</time>
      </trkpt>
      <trkpt lat="43.47794" lon="6.3255">
        <ele>136.2</ele>
        <time>2023-03-03T13:08:17Z</time>
      </trkpt>
      <trkpt lat="43.47794" lon="6.32548">
        <ele>136</ele>
        <time>2023-03-03T13:08:18Z</time>
      </trkpt>
      <trkpt lat="43.47793" lon="6.32545">
        <ele>135.9</ele>
        <time>2023-03-03T13:08:19Z</time>
      </trkpt>
      <trkpt lat="43.47792" lon="6.32542">
        <ele>135.7</ele>
        <time>2023-03-03T13:08:20Z</time>
      </trkpt>
      <trkpt lat="43.47791" lon="6.32539">
        <ele>135.4</ele>
        <time>2023-03-03T13:08:21Z</time>
      </trkpt>
      <trkpt lat="43.4779" lon="6.32537">
        <ele>135</ele>
        <time>2023-03-03T13:08:22Z</time>
      </trkpt>
      <trkpt lat="43.4779" lon="6.32534">
        <ele>134.8</ele>
        <time>2023-03-03T13:08:23Z</time>
      </trkpt>
      <trkpt lat="43.47789" lon="6.3253">
        <ele>134.6</ele>
        <time>2023-03-03T13:08:24Z</time>
      </trkpt>
      <trkpt lat="43.47789" lon="6.32528">
        <ele>134.4</ele>
        <time>2023-03-03T13:08:25Z</time>
      </trkpt>
      <trkpt lat="43.47789" lon="6.32525">
        <ele>134.2</ele>
        <time>2023-03-03T13:08:26Z</time>
      </trkpt>
      <trkpt lat="43.47789" lon="6.32522">
        <ele>134</ele>
        <time>2023-03-03T13:08:27Z</time>
      </trkpt>
      <trkpt lat="43.47789" lon="6.32518">
        <ele>133.8</ele>
        <time>2023-03-03T13:08:28Z</time>
      </trkpt>
      <trkpt lat="43.47789" lon="6.32515">
        <ele>133.6</ele>
        <time>2023-03-03T13:08:29Z</time>
      </trkpt>
      <trkpt lat="43.47788" lon="6.32513">
        <ele>133.1</ele>
        <time>2023-03-03T13:08:30Z</time>
      </trkpt>
      <trkpt lat="43.47787" lon="6.32511">
        <ele>132.9</ele>
        <time>2023-03-03T13:08:31Z</time>
      </trkpt>
      <trkpt lat="43.47787" lon="6.32508">
        <ele>132.6</ele>
        <time>2023-03-03T13:08:32Z</time>
      </trkpt>
      <trkpt lat="43.47787" lon="6.32505">
        <ele>132.3</ele>
        <time>2023-03-03T13:08:33Z</time>
      </trkpt>
      <trkpt lat="43.47787" lon="6.32503">
        <ele>132</ele>
        <time>2023-03-03T13:08:34Z</time>
      </trkpt>
      <trkpt lat="43.47786" lon="6.325">
        <ele>131.7</ele>
        <time>2023-03-03T13:08:35Z</time>
      </trkpt>
      <trkpt lat="43.47786" lon="6.32497">
        <ele>131.5</ele>
        <time>2023-03-03T13:08:36Z</time>
      </trkpt>
      <trkpt lat="43.47786" lon="6.32493">
        <ele>130.7</ele>
        <time>2023-03-03T13:08:37Z</time>
      </trkpt>
      <trkpt lat="43.47787" lon="6.3249">
        <ele>130.5</ele>
        <time>2023-03-03T13:08:38Z</time>
      </trkpt>
      <trkpt lat="43.47788" lon="6.32487">
        <ele>130.2</ele>
        <time>2023-03-03T13:08:39Z</time>
      </trkpt>
      <trkpt lat="43.47789" lon="6.32483">
        <ele>130.2</ele>
        <time>2023-03-03T13:08:40Z</time>
      </trkpt>
      <trkpt lat="43.47788" lon="6.3248">
        <ele>130.1</ele>
        <time>2023-03-03T13:08:41Z</time>
      </trkpt>
      <trkpt lat="43.47787" lon="6.32477">
        <ele>129.9</ele>
        <time>2023-03-03T13:08:42Z</time>
      </trkpt>
      <trkpt lat="43.47786" lon="6.32474">
        <ele>129.7</ele>
        <time>2023-03-03T13:08:43Z</time>
      </trkpt>
      <trkpt lat="43.47785" lon="6.32471">
        <ele>129.7</ele>
        <time>2023-03-03T13:08:44Z</time>
      </trkpt>
      <trkpt lat="43.47784" lon="6.32468">
        <ele>129.7</ele>
        <time>2023-03-03T13:08:45Z</time>
      </trkpt>
      <trkpt lat="43.47785" lon="6.32465">
        <ele>129.7</ele>
        <time>2023-03-03T13:08:46Z</time>
      </trkpt>
      <trkpt lat="43.47785" lon="6.32461">
        <ele>129.5</ele>
        <time>2023-03-03T13:08:47Z</time>
      </trkpt>
      <trkpt lat="43.47785" lon="6.32458">
        <ele>129.5</ele>
        <time>2023-03-03T13:08:48Z</time>
      </trkpt>
      <trkpt lat="43.47785" lon="6.32455">
        <ele>129.3</ele>
        <time>2023-03-03T13:08:49Z</time>
      </trkpt>
      <trkpt lat="43.47785" lon="6.32452">
        <ele>129.2</ele>
        <time>2023-03-03T13:08:50Z</time>
      </trkpt>
      <trkpt lat="43.47786" lon="6.32448">
        <ele>129.3</ele>
        <time>2023-03-03T13:08:51Z</time>
      </trkpt>
      <trkpt lat="43.47785" lon="6.32445">
        <ele>129.4</ele>
        <time>2023-03-03T13:08:52Z</time>
      </trkpt>
      <trkpt lat="43.47785" lon="6.32441">
        <ele>129.2</ele>
        <time>2023-03-03T13:08:53Z</time>
      </trkpt>
      <trkpt lat="43.47783" lon="6.32439">
        <ele>129.3</ele>
        <time>2023-03-03T13:08:54Z</time>
      </trkpt>
      <trkpt lat="43.47783" lon="6.32436">
        <ele>129.4</ele>
        <time>2023-03-03T13:08:55Z</time>
      </trkpt>
      <trkpt lat="43.47782" lon="6.32434">
        <ele>129.5</ele>
        <time>2023-03-03T13:08:56Z</time>
      </trkpt>
      <trkpt lat="43.47782" lon="6.32431">
        <ele>129.4</ele>
        <time>2023-03-03T13:08:57Z</time>
      </trkpt>
      <trkpt lat="43.47782" lon="6.32428">
        <ele>129.2</ele>
        <time>2023-03-03T13:08:58Z</time>
      </trkpt>
      <trkpt lat="43.47781" lon="6.32425">
        <ele>129.2</ele>
        <time>2023-03-03T13:08:59Z</time>
      </trkpt>
      <trkpt lat="43.47781" lon="6.32422">
        <ele>129.3</ele>
        <time>2023-03-03T13:09:00Z</time>
      </trkpt>
      <trkpt lat="43.47781" lon="6.32419">
        <ele>129.3</ele>
        <time>2023-03-03T13:09:01Z</time>
      </trkpt>
      <trkpt lat="43.47779" lon="6.32415">
        <ele>129.3</ele>
        <time>2023-03-03T13:09:02Z</time>
      </trkpt>
      <trkpt lat="43.47778" lon="6.32412">
        <ele>129.3</ele>
        <time>2023-03-03T13:09:03Z</time>
      </trkpt>
      <trkpt lat="43.47778" lon="6.32409">
        <ele>129.3</ele>
        <time>2023-03-03T13:09:04Z</time>
      </trkpt>
      <trkpt lat="43.47777" lon="6.32406">
        <ele>129.5</ele>
        <time>2023-03-03T13:09:05Z</time>
      </trkpt>
      <trkpt lat="43.47775" lon="6.32403">
        <ele>129.6</ele>
        <time>2023-03-03T13:09:06Z</time>
      </trkpt>
      <trkpt lat="43.47774" lon="6.324">
        <ele>129.6</ele>
        <time>2023-03-03T13:09:07Z</time>
      </trkpt>
      <trkpt lat="43.47774" lon="6.32398">
        <ele>129.6</ele>
        <time>2023-03-03T13:09:08Z</time>
      </trkpt>
      <trkpt lat="43.47774" lon="6.32396">
        <ele>129.6</ele>
        <time>2023-03-03T13:09:09Z</time>
      </trkpt>
      <trkpt lat="43.47771" lon="6.32394">
        <ele>129.4</ele>
        <time>2023-03-03T13:09:10Z</time>
      </trkpt>
      <trkpt lat="43.47771" lon="6.32392">
        <ele>129.4</ele>
        <time>2023-03-03T13:09:11Z</time>
      </trkpt>
      <trkpt lat="43.4777" lon="6.3239">
        <ele>129.5</ele>
        <time>2023-03-03T13:09:12Z</time>
      </trkpt>
      <trkpt lat="43.47768" lon="6.32388">
        <ele>129.6</ele>
        <time>2023-03-03T13:09:13Z</time>
      </trkpt>
      <trkpt lat="43.47768" lon="6.32386">
        <ele>129.8</ele>
        <time>2023-03-03T13:09:14Z</time>
      </trkpt>
      <trkpt lat="43.47767" lon="6.32384">
        <ele>129.8</ele>
        <time>2023-03-03T13:09:15Z</time>
      </trkpt>
      <trkpt lat="43.47765" lon="6.32381">
        <ele>129.9</ele>
        <time>2023-03-03T13:09:16Z</time>
      </trkpt>
      <trkpt lat="43.47765" lon="6.32379">
        <ele>130.1</ele>
        <time>2023-03-03T13:09:17Z</time>
      </trkpt>
      <trkpt lat="43.47763" lon="6.32376">
        <ele>130</ele>
        <time>2023-03-03T13:09:18Z</time>
      </trkpt>
      <trkpt lat="43.47761" lon="6.32375">
        <ele>130.5</ele>
        <time>2023-03-03T13:09:19Z</time>
      </trkpt>
      <trkpt lat="43.47759" lon="6.32372">
        <ele>130.6</ele>
        <time>2023-03-03T13:09:20Z</time>
      </trkpt>
      <trkpt lat="43.47757" lon="6.32369">
        <ele>130.7</ele>
        <time>2023-03-03T13:09:21Z</time>
      </trkpt>
      <trkpt lat="43.47756" lon="6.32366">
        <ele>130.8</ele>
        <time>2023-03-03T13:09:22Z</time>
      </trkpt>
      <trkpt lat="43.47754" lon="6.32363">
        <ele>131</ele>
        <time>2023-03-03T13:09:23Z</time>
      </trkpt>
      <trkpt lat="43.47752" lon="6.32361">
        <ele>131.1</ele>
        <time>2023-03-03T13:09:24Z</time>
      </trkpt>
      <trkpt lat="43.47751" lon="6.32359">
        <ele>131.2</ele>
        <time>2023-03-03T13:09:25Z</time>
      </trkpt>
      <trkpt lat="43.47751" lon="6.32356">
        <ele>131.2</ele>
        <time>2023-03-03T13:09:26Z</time>
      </trkpt>
      <trkpt lat="43.47751" lon="6.32353">
        <ele>131.4</ele>
        <time>2023-03-03T13:09:27Z</time>
      </trkpt>
      <trkpt lat="43.4775" lon="6.32352">
        <ele>131.5</ele>
        <time>2023-03-03T13:09:28Z</time>
      </trkpt>
      <trkpt lat="43.47749" lon="6.32349">
        <ele>131.8</ele>
        <time>2023-03-03T13:09:29Z</time>
      </trkpt>
      <trkpt lat="43.47747" lon="6.32346">
        <ele>132.1</ele>
        <time>2023-03-03T13:09:30Z</time>
      </trkpt>
      <trkpt lat="43.47747" lon="6.32345">
        <ele>132.4</ele>
        <time>2023-03-03T13:09:31Z</time>
      </trkpt>
      <trkpt lat="43.47745" lon="6.32343">
        <ele>132.5</ele>
        <time>2023-03-03T13:09:32Z</time>
      </trkpt>
      <trkpt lat="43.47744" lon="6.3234">
        <ele>132.6</ele>
        <time>2023-03-03T13:09:33Z</time>
      </trkpt>
      <trkpt lat="43.47744" lon="6.32339">
        <ele>132.7</ele>
        <time>2023-03-03T13:09:34Z</time>
      </trkpt>
      <trkpt lat="43.47744" lon="6.32337">
        <ele>132.6</ele>
        <time>2023-03-03T13:09:35Z</time>
      </trkpt>
      <trkpt lat="43.47743" lon="6.32335">
        <ele>132.8</ele>
        <time>2023-03-03T13:09:36Z</time>
      </trkpt>
      <trkpt lat="43.47742" lon="6.32332">
        <ele>133</ele>
        <time>2023-03-03T13:09:37Z</time>
      </trkpt>
      <trkpt lat="43.47742" lon="6.32329">
        <ele>133.3</ele>
        <time>2023-03-03T13:09:38Z</time>
      </trkpt>
      <trkpt lat="43.4774" lon="6.32326">
        <ele>133.5</ele>
        <time>2023-03-03T13:09:39Z</time>
      </trkpt>
      <trkpt lat="43.47739" lon="6.32323">
        <ele>133.6</ele>
        <time>2023-03-03T13:09:40Z</time>
      </trkpt>
      <trkpt lat="43.47738" lon="6.3232">
        <ele>133.9</ele>
        <time>2023-03-03T13:09:41Z</time>
      </trkpt>
      <trkpt lat="43.47738" lon="6.32318">
        <ele>134.1</ele>
        <time>2023-03-03T13:09:42Z</time>
      </trkpt>
      <trkpt lat="43.47737" lon="6.32316">
        <ele>134.3</ele>
        <time>2023-03-03T13:09:43Z</time>
      </trkpt>
      <trkpt lat="43.47736" lon="6.32314">
        <ele>134.4</ele>
        <time>2023-03-03T13:09:44Z</time>
      </trkpt>
      <trkpt lat="43.47734" lon="6.32311">
        <ele>134.5</ele>
        <time>2023-03-03T13:09:45Z</time>
      </trkpt>
      <trkpt lat="43.47732" lon="6.32309">
        <ele>134.8</ele>
        <time>2023-03-03T13:09:46Z</time>
      </trkpt>
      <trkpt lat="43.47732" lon="6.32307">
        <ele>134.9</ele>
        <time>2023-03-03T13:09:47Z</time>
      </trkpt>
      <trkpt lat="43.47731" lon="6.32305">
        <ele>135.1</ele>
        <time>2023-03-03T13:09:48Z</time>
      </trkpt>
      <trkpt lat="43.4773" lon="6.32302">
        <ele>135.2</ele>
        <time>2023-03-03T13:09:49Z</time>
      </trkpt>
      <trkpt lat="43.47729" lon="6.32299">
        <ele>135.2</ele>
        <time>2023-03-03T13:09:50Z</time>
      </trkpt>
      <trkpt lat="43.47727" lon="6.32296">
        <ele>135.5</ele>
        <time>2023-03-03T13:09:51Z</time>
      </trkpt>
      <trkpt lat="43.47726" lon="6.32294">
        <ele>135.6</ele>
        <time>2023-03-03T13:09:52Z</time>
      </trkpt>
      <trkpt lat="43.47725" lon="6.32291">
        <ele>135.7</ele>
        <time>2023-03-03T13:09:53Z</time>
      </trkpt>
      <trkpt lat="43.47724" lon="6.32289">
        <ele>135.8</ele>
        <time>2023-03-03T13:09:54Z</time>
      </trkpt>
      <trkpt lat="43.47723" lon="6.32286">
        <ele>135.9</ele>
        <time>2023-03-03T13:09:55Z</time>
      </trkpt>
      <trkpt lat="43.47721" lon="6.32285">
        <ele>136.1</ele>
        <time>2023-03-03T13:09:56Z</time>
      </trkpt>
      <trkpt lat="43.47721" lon="6.32284">
        <ele>136.3</ele>
        <time>2023-03-03T13:09:57Z</time>
      </trkpt>
      <trkpt lat="43.47721" lon="6.32281">
        <ele>136.5</ele>
        <time>2023-03-03T13:09:58Z</time>
      </trkpt>
      <trkpt lat="43.4772" lon="6.32279">
        <ele>136.6</ele>
        <time>2023-03-03T13:09:59Z</time>
      </trkpt>
      <trkpt lat="43.47718" lon="6.32277">
        <ele>136.7</ele>
        <time>2023-03-03T13:10:00Z</time>
      </trkpt>
      <trkpt lat="43.47717" lon="6.32274">
        <ele>136.8</ele>
        <time>2023-03-03T13:10:01Z</time>
      </trkpt>
      <trkpt lat="43.47716" lon="6.32271">
        <ele>137</ele>
        <time>2023-03-03T13:10:02Z</time>
      </trkpt>
      <trkpt lat="43.47714" lon="6.32268">
        <ele>137.1</ele>
        <time>2023-03-03T13:10:03Z</time>
      </trkpt>
      <trkpt lat="43.47713" lon="6.32264">
        <ele>137.2</ele>
        <time>2023-03-03T13:10:04Z</time>
      </trkpt>
      <trkpt lat="43.47713" lon="6.32261">
        <ele>137.3</ele>
        <time>2023-03-03T13:10:05Z</time>
      </trkpt>
      <trkpt lat="43.47712" lon="6.32259">
        <ele>137.6</ele>
        <time>2023-03-03T13:10:06Z</time>
      </trkpt>
      <trkpt lat="43.4771" lon="6.32256">
        <ele>137.9</ele>
        <time>2023-03-03T13:10:07Z</time>
      </trkpt>
      <trkpt lat="43.47709" lon="6.32253">
        <ele>138.1</ele>
        <time>2023-03-03T13:10:08Z</time>
      </trkpt>
      <trkpt lat="43.47707" lon="6.32249">
        <ele>138.2</ele>
        <time>2023-03-03T13:10:09Z</time>
      </trkpt>
      <trkpt lat="43.47705" lon="6.32246">
        <ele>138.3</ele>
        <time>2023-03-03T13:10:10Z</time>
      </trkpt>
      <trkpt lat="43.47704" lon="6.32242">
        <ele>138.5</ele>
        <time>2023-03-03T13:10:11Z</time>
      </trkpt>
      <trkpt lat="43.47702" lon="6.32239">
        <ele>138.7</ele>
        <time>2023-03-03T13:10:12Z</time>
      </trkpt>
      <trkpt lat="43.47701" lon="6.32236">
        <ele>138.7</ele>
        <time>2023-03-03T13:10:13Z</time>
      </trkpt>
      <trkpt lat="43.47699" lon="6.32234">
        <ele>138.9</ele>
        <time>2023-03-03T13:10:14Z</time>
      </trkpt>
      <trkpt lat="43.47697" lon="6.32232">
        <ele>138.9</ele>
        <time>2023-03-03T13:10:15Z</time>
      </trkpt>
      <trkpt lat="43.47695" lon="6.32229">
        <ele>139.1</ele>
        <time>2023-03-03T13:10:16Z</time>
      </trkpt>
      <trkpt lat="43.47693" lon="6.32227">
        <ele>139.3</ele>
        <time>2023-03-03T13:10:17Z</time>
      </trkpt>
      <trkpt lat="43.47691" lon="6.32225">
        <ele>138.6</ele>
        <time>2023-03-03T13:10:18Z</time>
      </trkpt>
      <trkpt lat="43.4769" lon="6.32223">
        <ele>139</ele>
        <time>2023-03-03T13:10:19Z</time>
      </trkpt>
      <trkpt lat="43.4769" lon="6.3222">
        <ele>139.3</ele>
        <time>2023-03-03T13:10:20Z</time>
      </trkpt>
      <trkpt lat="43.47689" lon="6.32218">
        <ele>139.6</ele>
        <time>2023-03-03T13:10:21Z</time>
      </trkpt>
      <trkpt lat="43.47688" lon="6.32216">
        <ele>139.9</ele>
        <time>2023-03-03T13:10:22Z</time>
      </trkpt>
      <trkpt lat="43.47686" lon="6.32214">
        <ele>140.2</ele>
        <time>2023-03-03T13:10:23Z</time>
      </trkpt>
      <trkpt lat="43.47684" lon="6.32212">
        <ele>140.5</ele>
        <time>2023-03-03T13:10:24Z</time>
      </trkpt>
      <trkpt lat="43.47683" lon="6.32208">
        <ele>140.6</ele>
        <time>2023-03-03T13:10:25Z</time>
      </trkpt>
      <trkpt lat="43.47683" lon="6.32205">
        <ele>140.7</ele>
        <time>2023-03-03T13:10:26Z</time>
      </trkpt>
      <trkpt lat="43.47682" lon="6.32203">
        <ele>140.9</ele>
        <time>2023-03-03T13:10:27Z</time>
      </trkpt>
      <trkpt lat="43.47681" lon="6.32201">
        <ele>141</ele>
        <time>2023-03-03T13:10:28Z</time>
      </trkpt>
      <trkpt lat="43.4768" lon="6.32198">
        <ele>141.2</ele>
        <time>2023-03-03T13:10:29Z</time>
      </trkpt>
      <trkpt lat="43.47679" lon="6.32196">
        <ele>141.3</ele>
        <time>2023-03-03T13:10:30Z</time>
      </trkpt>
      <trkpt lat="43.47678" lon="6.32193">
        <ele>141.5</ele>
        <time>2023-03-03T13:10:31Z</time>
      </trkpt>
      <trkpt lat="43.47677" lon="6.3219">
        <ele>141.6</ele>
        <time>2023-03-03T13:10:32Z</time>
      </trkpt>
      <trkpt lat="43.47676" lon="6.32188">
        <ele>141.8</ele>
        <time>2023-03-03T13:10:33Z</time>
      </trkpt>
      <trkpt lat="43.47675" lon="6.32186">
        <ele>142</ele>
        <time>2023-03-03T13:10:34Z</time>
      </trkpt>
      <trkpt lat="43.47675" lon="6.32185">
        <ele>142.2</ele>
        <time>2023-03-03T13:10:35Z</time>
      </trkpt>
      <trkpt lat="43.47675" lon="6.32183">
        <ele>142.4</ele>
        <time>2023-03-03T13:10:36Z</time>
      </trkpt>
      <trkpt lat="43.47673" lon="6.32181">
        <ele>142.7</ele>
        <time>2023-03-03T13:10:37Z</time>
      </trkpt>
      <trkpt lat="43.47673" lon="6.32178">
        <ele>143.1</ele>
        <time>2023-03-03T13:10:38Z</time>
      </trkpt>
      <trkpt lat="43.47672" lon="6.32175">
        <ele>143.4</ele>
        <time>2023-03-03T13:10:39Z</time>
      </trkpt>
      <trkpt lat="43.47671" lon="6.32172">
        <ele>143.6</ele>
        <time>2023-03-03T13:10:40Z</time>
      </trkpt>
      <trkpt lat="43.4767" lon="6.3217">
        <ele>143.7</ele>
        <time>2023-03-03T13:10:41Z</time>
      </trkpt>
      <trkpt lat="43.4767" lon="6.32169">
        <ele>143.7</ele>
        <time>2023-03-03T13:10:42Z</time>
      </trkpt>
      <trkpt lat="43.47669" lon="6.32167">
        <ele>143.7</ele>
        <time>2023-03-03T13:10:43Z</time>
      </trkpt>
      <trkpt lat="43.47669" lon="6.32165">
        <ele>144.1</ele>
        <time>2023-03-03T13:10:44Z</time>
      </trkpt>
      <trkpt lat="43.47668" lon="6.32163">
        <ele>144.4</ele>
        <time>2023-03-03T13:10:45Z</time>
      </trkpt>
      <trkpt lat="43.47667" lon="6.3216">
        <ele>144.6</ele>
        <time>2023-03-03T13:10:46Z</time>
      </trkpt>
      <trkpt lat="43.47666" lon="6.32158">
        <ele>144.8</ele>
        <time>2023-03-03T13:10:47Z</time>
      </trkpt>
      <trkpt lat="43.47664" lon="6.32156">
        <ele>144.9</ele>
        <time>2023-03-03T13:10:48Z</time>
      </trkpt>
      <trkpt lat="43.47662" lon="6.32154">
        <ele>145</ele>
        <time>2023-03-03T13:10:49Z</time>
      </trkpt>
      <trkpt lat="43.4766" lon="6.32153">
        <ele>145.2</ele>
        <time>2023-03-03T13:10:50Z</time>
      </trkpt>
      <trkpt lat="43.47659" lon="6.32151">
        <ele>145.2</ele>
        <time>2023-03-03T13:10:51Z</time>
      </trkpt>
      <trkpt lat="43.47656" lon="6.32149">
        <ele>145.3</ele>
        <time>2023-03-03T13:10:52Z</time>
      </trkpt>
      <trkpt lat="43.47655" lon="6.32147">
        <ele>145.4</ele>
        <time>2023-03-03T13:10:53Z</time>
      </trkpt>
      <trkpt lat="43.47654" lon="6.32145">
        <ele>145.4</ele>
        <time>2023-03-03T13:10:54Z</time>
      </trkpt>
      <trkpt lat="43.47653" lon="6.32142">
        <ele>145.6</ele>
        <time>2023-03-03T13:10:55Z</time>
      </trkpt>
      <trkpt lat="43.47651" lon="6.3214">
        <ele>145.5</ele>
        <time>2023-03-03T13:10:56Z</time>
      </trkpt>
      <trkpt lat="43.4765" lon="6.32138">
        <ele>145.6</ele>
        <time>2023-03-03T13:10:57Z</time>
      </trkpt>
      <trkpt lat="43.47649" lon="6.32136">
        <ele>145.7</ele>
        <time>2023-03-03T13:10:58Z</time>
      </trkpt>
      <trkpt lat="43.47647" lon="6.32134">
        <ele>145.8</ele>
        <time>2023-03-03T13:10:59Z</time>
      </trkpt>
      <trkpt lat="43.47645" lon="6.32132">
        <ele>145.9</ele>
        <time>2023-03-03T13:11:00Z</time>
      </trkpt>
      <trkpt lat="43.47644" lon="6.3213">
        <ele>146</ele>
        <time>2023-03-03T13:11:01Z</time>
      </trkpt>
      <trkpt lat="43.47643" lon="6.32128">
        <ele>146.1</ele>
        <time>2023-03-03T13:11:02Z</time>
      </trkpt>
      <trkpt lat="43.47641" lon="6.32125">
        <ele>146.3</ele>
        <time>2023-03-03T13:11:03Z</time>
      </trkpt>
      <trkpt lat="43.4764" lon="6.32122">
        <ele>146.5</ele>
        <time>2023-03-03T13:11:04Z</time>
      </trkpt>
      <trkpt lat="43.47638" lon="6.3212">
        <ele>146.7</ele>
        <time>2023-03-03T13:11:05Z</time>
      </trkpt>
      <trkpt lat="43.47636" lon="6.32118">
        <ele>146.9</ele>
        <time>2023-03-03T13:11:06Z</time>
      </trkpt>
      <trkpt lat="43.47635" lon="6.32116">
        <ele>147</ele>
        <time>2023-03-03T13:11:07Z</time>
      </trkpt>
      <trkpt lat="43.47634" lon="6.32114">
        <ele>147.2</ele>
        <time>2023-03-03T13:11:08Z</time>
      </trkpt>
      <trkpt lat="43.47633" lon="6.32111">
        <ele>147.3</ele>
        <time>2023-03-03T13:11:09Z</time>
      </trkpt>
      <trkpt lat="43.47632" lon="6.32109">
        <ele>147.3</ele>
        <time>2023-03-03T13:11:10Z</time>
      </trkpt>
      <trkpt lat="43.4763" lon="6.32106">
        <ele>147.5</ele>
        <time>2023-03-03T13:11:11Z</time>
      </trkpt>
      <trkpt lat="43.47629" lon="6.32104">
        <ele>147.7</ele>
        <time>2023-03-03T13:11:12Z</time>
      </trkpt>
      <trkpt lat="43.47628" lon="6.32102">
        <ele>147.9</ele>
        <time>2023-03-03T13:11:13Z</time>
      </trkpt>
      <trkpt lat="43.47626" lon="6.321">
        <ele>148</ele>
        <time>2023-03-03T13:11:14Z</time>
      </trkpt>
      <trkpt lat="43.47624" lon="6.32098">
        <ele>148.2</ele>
        <time>2023-03-03T13:11:15Z</time>
      </trkpt>
      <trkpt lat="43.47624" lon="6.32096">
        <ele>148.3</ele>
        <time>2023-03-03T13:11:16Z</time>
      </trkpt>
      <trkpt lat="43.47623" lon="6.32094">
        <ele>148.5</ele>
        <time>2023-03-03T13:11:17Z</time>
      </trkpt>
      <trkpt lat="43.47622" lon="6.32091">
        <ele>148.4</ele>
        <time>2023-03-03T13:11:18Z</time>
      </trkpt>
      <trkpt lat="43.47621" lon="6.32089">
        <ele>148.6</ele>
        <time>2023-03-03T13:11:19Z</time>
      </trkpt>
      <trkpt lat="43.4762" lon="6.32087">
        <ele>148.9</ele>
        <time>2023-03-03T13:11:20Z</time>
      </trkpt>
      <trkpt lat="43.47619" lon="6.32085">
        <ele>149.1</ele>
        <time>2023-03-03T13:11:21Z</time>
      </trkpt>
      <trkpt lat="43.47619" lon="6.32083">
        <ele>149.3</ele>
        <time>2023-03-03T13:11:22Z</time>
      </trkpt>
      <trkpt lat="43.47618" lon="6.32082">
        <ele>149.4</ele>
        <time>2023-03-03T13:11:23Z</time>
      </trkpt>
      <trkpt lat="43.47617" lon="6.3208">
        <ele>149.5</ele>
        <time>2023-03-03T13:11:24Z</time>
      </trkpt>
      <trkpt lat="43.47616" lon="6.32078">
        <ele>149.6</ele>
        <time>2023-03-03T13:11:25Z</time>
      </trkpt>
      <trkpt lat="43.47615" lon="6.32076">
        <ele>149.7</ele>
        <time>2023-03-03T13:11:26Z</time>
      </trkpt>
      <trkpt lat="43.47614" lon="6.32074">
        <ele>149.7</ele>
        <time>2023-03-03T13:11:27Z</time>
      </trkpt>
      <trkpt lat="43.47613" lon="6.32071">
        <ele>149.8</ele>
        <time>2023-03-03T13:11:28Z</time>
      </trkpt>
      <trkpt lat="43.47612" lon="6.32069">
        <ele>149.9</ele>
        <time>2023-03-03T13:11:29Z</time>
      </trkpt>
      <trkpt lat="43.47612" lon="6.32067">
        <ele>150</ele>
        <time>2023-03-03T13:11:30Z</time>
      </trkpt>
      <trkpt lat="43.47612" lon="6.32066">
        <ele>150.1</ele>
        <time>2023-03-03T13:11:31Z</time>
      </trkpt>
      <trkpt lat="43.47611" lon="6.32065">
        <ele>150.1</ele>
        <time>2023-03-03T13:11:32Z</time>
      </trkpt>
      <trkpt lat="43.47611" lon="6.32063">
        <ele>150.1</ele>
        <time>2023-03-03T13:11:33Z</time>
      </trkpt>
      <trkpt lat="43.4761" lon="6.32061">
        <ele>150.2</ele>
        <time>2023-03-03T13:11:34Z</time>
      </trkpt>
      <trkpt lat="43.47609" lon="6.32058">
        <ele>150.3</ele>
        <time>2023-03-03T13:11:35Z</time>
      </trkpt>
      <trkpt lat="43.47609" lon="6.32057">
        <ele>150.3</ele>
        <time>2023-03-03T13:11:36Z</time>
      </trkpt>
      <trkpt lat="43.47608" lon="6.32055">
        <ele>150.4</ele>
        <time>2023-03-03T13:11:37Z</time>
      </trkpt>
      <trkpt lat="43.47607" lon="6.32053">
        <ele>150.5</ele>
        <time>2023-03-03T13:11:38Z</time>
      </trkpt>
      <trkpt lat="43.47606" lon="6.32051">
        <ele>150.6</ele>
        <time>2023-03-03T13:11:39Z</time>
      </trkpt>
      <trkpt lat="43.47605" lon="6.32049">
        <ele>150.7</ele>
        <time>2023-03-03T13:11:40Z</time>
      </trkpt>
      <trkpt lat="43.47604" lon="6.32048">
        <ele>150.8</ele>
        <time>2023-03-03T13:11:41Z</time>
      </trkpt>
      <trkpt lat="43.47604" lon="6.32047">
        <ele>150.9</ele>
        <time>2023-03-03T13:11:42Z</time>
      </trkpt>
      <trkpt lat="43.47604" lon="6.32045">
        <ele>151</ele>
        <time>2023-03-03T13:11:43Z</time>
      </trkpt>
      <trkpt lat="43.47603" lon="6.32043">
        <ele>151.1</ele>
        <time>2023-03-03T13:11:44Z</time>
      </trkpt>
      <trkpt lat="43.47602" lon="6.32042">
        <ele>151.1</ele>
        <time>2023-03-03T13:11:45Z</time>
      </trkpt>
      <trkpt lat="43.47602" lon="6.3204">
        <ele>151.2</ele>
        <time>2023-03-03T13:11:46Z</time>
      </trkpt>
      <trkpt lat="43.47601" lon="6.32038">
        <ele>151.3</ele>
        <time>2023-03-03T13:11:47Z</time>
      </trkpt>
      <trkpt lat="43.47601" lon="6.32036">
        <ele>151.4</ele>
        <time>2023-03-03T13:11:48Z</time>
      </trkpt>
      <trkpt lat="43.476" lon="6.32034">
        <ele>151.5</ele>
        <time>2023-03-03T13:11:49Z</time>
      </trkpt>
      <trkpt lat="43.47599" lon="6.32032">
        <ele>151.6</ele>
        <time>2023-03-03T13:11:50Z</time>
      </trkpt>
      <trkpt lat="43.476" lon="6.3203">
        <ele>151.7</ele>
        <time>2023-03-03T13:11:51Z</time>
      </trkpt>
      <trkpt lat="43.47599" lon="6.32028">
        <ele>151.8</ele>
        <time>2023-03-03T13:11:52Z</time>
      </trkpt>
      <trkpt lat="43.47599" lon="6.32026">
        <ele>151.9</ele>
        <time>2023-03-03T13:11:53Z</time>
      </trkpt>
      <trkpt lat="43.47598" lon="6.32025">
        <ele>152</ele>
        <time>2023-03-03T13:11:54Z</time>
      </trkpt>
      <trkpt lat="43.47598" lon="6.32023">
        <ele>152</ele>
        <time>2023-03-03T13:11:55Z</time>
      </trkpt>
      <trkpt lat="43.47598" lon="6.32021">
        <ele>152.1</ele>
        <time>2023-03-03T13:11:56Z</time>
      </trkpt>
      <trkpt lat="43.47597" lon="6.32019">
        <ele>152.1</ele>
        <time>2023-03-03T13:11:57Z</time>
      </trkpt>
      <trkpt lat="43.47596" lon="6.32018">
        <ele>152.2</ele>
        <time>2023-03-03T13:11:58Z</time>
      </trkpt>
      <trkpt lat="43.47596" lon="6.32016">
        <ele>152.2</ele>
        <time>2023-03-03T13:11:59Z</time>
      </trkpt>
      <trkpt lat="43.47595" lon="6.32014">
        <ele>152.3</ele>
        <time>2023-03-03T13:12:00Z</time>
      </trkpt>
      <trkpt lat="43.47595" lon="6.32012">
        <ele>152.3</ele>
        <time>2023-03-03T13:12:01Z</time>
      </trkpt>
      <trkpt lat="43.47594" lon="6.32011">
        <ele>152.4</ele>
        <time>2023-03-03T13:12:02Z</time>
      </trkpt>
      <trkpt lat="43.47593" lon="6.32009">
        <ele>152.5</ele>
        <time>2023-03-03T13:12:03Z</time>
      </trkpt>
      <trkpt lat="43.47592" lon="6.32008">
        <ele>152.6</ele>
        <time>2023-03-03T13:12:04Z</time>
      </trkpt>
      <trkpt lat="43.47591" lon="6.32007">
        <ele>152.6</ele>
        <time>2023-03-03T13:12:05Z</time>
      </trkpt>
      <trkpt lat="43.4759" lon="6.32005">
        <ele>152.7</ele>
        <time>2023-03-03T13:12:06Z</time>
      </trkpt>
      <trkpt lat="43.47589" lon="6.32003">
        <ele>152.8</ele>
        <time>2023-03-03T13:12:07Z</time>
      </trkpt>
      <trkpt lat="43.47589" lon="6.32002">
        <ele>152.9</ele>
        <time>2023-03-03T13:12:08Z</time>
      </trkpt>
      <trkpt lat="43.47588" lon="6.32">
        <ele>153</ele>
        <time>2023-03-03T13:12:09Z</time>
      </trkpt>
      <trkpt lat="43.47587" lon="6.31999">
        <ele>153</ele>
        <time>2023-03-03T13:12:10Z</time>
      </trkpt>
      <trkpt lat="43.47586" lon="6.31997">
        <ele>153.1</ele>
        <time>2023-03-03T13:12:11Z</time>
      </trkpt>
      <trkpt lat="43.47586" lon="6.31995">
        <ele>153.2</ele>
        <time>2023-03-03T13:12:12Z</time>
      </trkpt>
      <trkpt lat="43.47585" lon="6.31993">
        <ele>153.3</ele>
        <time>2023-03-03T13:12:13Z</time>
      </trkpt>
      <trkpt lat="43.47584" lon="6.31991">
        <ele>153.3</ele>
        <time>2023-03-03T13:12:14Z</time>
      </trkpt>
      <trkpt lat="43.47583" lon="6.3199">
        <ele>153.4</ele>
        <time>2023-03-03T13:12:15Z</time>
      </trkpt>
      <trkpt lat="43.47583" lon="6.31988">
        <ele>153.6</ele>
        <time>2023-03-03T13:12:16Z</time>
      </trkpt>
      <trkpt lat="43.47582" lon="6.31986">
        <ele>153.7</ele>
        <time>2023-03-03T13:12:17Z</time>
      </trkpt>
      <trkpt lat="43.47582" lon="6.31984">
        <ele>153.8</ele>
        <time>2023-03-03T13:12:18Z</time>
      </trkpt>
      <trkpt lat="43.47582" lon="6.31982">
        <ele>154</ele>
        <time>2023-03-03T13:12:19Z</time>
      </trkpt>
      <trkpt lat="43.47581" lon="6.31981">
        <ele>154.1</ele>
        <time>2023-03-03T13:12:20Z</time>
      </trkpt>
      <trkpt lat="43.47581" lon="6.31979">
        <ele>154.1</ele>
        <time>2023-03-03T13:12:21Z</time>
      </trkpt>
      <trkpt lat="43.4758" lon="6.31978">
        <ele>154.1</ele>
        <time>2023-03-03T13:12:22Z</time>
      </trkpt>
      <trkpt lat="43.47579" lon="6.31976">
        <ele>154.1</ele>
        <time>2023-03-03T13:12:23Z</time>
      </trkpt>
      <trkpt lat="43.47578" lon="6.31974">
        <ele>154</ele>
        <time>2023-03-03T13:12:24Z</time>
      </trkpt>
      <trkpt lat="43.47577" lon="6.31972">
        <ele>154</ele>
        <time>2023-03-03T13:12:25Z</time>
      </trkpt>
      <trkpt lat="43.47576" lon="6.3197">
        <ele>154</ele>
        <time>2023-03-03T13:12:26Z</time>
      </trkpt>
      <trkpt lat="43.47575" lon="6.31969">
        <ele>154</ele>
        <time>2023-03-03T13:12:27Z</time>
      </trkpt>
      <trkpt lat="43.47574" lon="6.31967">
        <ele>153.9</ele>
        <time>2023-03-03T13:12:28Z</time>
      </trkpt>
      <trkpt lat="43.47573" lon="6.31966">
        <ele>154</ele>
        <time>2023-03-03T13:12:29Z</time>
      </trkpt>
      <trkpt lat="43.47573" lon="6.31964">
        <ele>154.1</ele>
        <time>2023-03-03T13:12:30Z</time>
      </trkpt>
      <trkpt lat="43.47572" lon="6.31961">
        <ele>154.1</ele>
        <time>2023-03-03T13:12:31Z</time>
      </trkpt>
      <trkpt lat="43.47571" lon="6.31959">
        <ele>153.9</ele>
        <time>2023-03-03T13:12:32Z</time>
      </trkpt>
      <trkpt lat="43.47569" lon="6.31957">
        <ele>153.8</ele>
        <time>2023-03-03T13:12:33Z</time>
      </trkpt>
      <trkpt lat="43.47568" lon="6.31955">
        <ele>153.8</ele>
        <time>2023-03-03T13:12:34Z</time>
      </trkpt>
      <trkpt lat="43.47566" lon="6.31953">
        <ele>153.9</ele>
        <time>2023-03-03T13:12:35Z</time>
      </trkpt>
      <trkpt lat="43.47565" lon="6.31951">
        <ele>153.9</ele>
        <time>2023-03-03T13:12:36Z</time>
      </trkpt>
      <trkpt lat="43.47564" lon="6.31949">
        <ele>153.9</ele>
        <time>2023-03-03T13:12:37Z</time>
      </trkpt>
      <trkpt lat="43.47564" lon="6.31947">
        <ele>153.9</ele>
        <time>2023-03-03T13:12:38Z</time>
      </trkpt>
      <trkpt lat="43.47563" lon="6.31945">
        <ele>153.8</ele>
        <time>2023-03-03T13:12:39Z</time>
      </trkpt>
      <trkpt lat="43.47562" lon="6.31943">
        <ele>153.6</ele>
        <time>2023-03-03T13:12:40Z</time>
      </trkpt>
      <trkpt lat="43.47562" lon="6.31941">
        <ele>153.4</ele>
        <time>2023-03-03T13:12:41Z</time>
      </trkpt>
      <trkpt lat="43.47561" lon="6.3194">
        <ele>153.3</ele>
        <time>2023-03-03T13:12:42Z</time>
      </trkpt>
      <trkpt lat="43.4756" lon="6.31938">
        <ele>153.2</ele>
        <time>2023-03-03T13:12:43Z</time>
      </trkpt>
      <trkpt lat="43.47559" lon="6.31936">
        <ele>153.1</ele>
        <time>2023-03-03T13:12:44Z</time>
      </trkpt>
      <trkpt lat="43.47559" lon="6.31934">
        <ele>153</ele>
        <time>2023-03-03T13:12:45Z</time>
      </trkpt>
      <trkpt lat="43.47558" lon="6.31932">
        <ele>152.9</ele>
        <time>2023-03-03T13:12:46Z</time>
      </trkpt>
      <trkpt lat="43.47557" lon="6.3193">
        <ele>152.9</ele>
        <time>2023-03-03T13:12:47Z</time>
      </trkpt>
      <trkpt lat="43.47556" lon="6.31928">
        <ele>152.8</ele>
        <time>2023-03-03T13:12:48Z</time>
      </trkpt>
      <trkpt lat="43.47556" lon="6.31926">
        <ele>152.7</ele>
        <time>2023-03-03T13:12:49Z</time>
      </trkpt>
      <trkpt lat="43.47556" lon="6.31924">
        <ele>152.6</ele>
        <time>2023-03-03T13:12:50Z</time>
      </trkpt>
      <trkpt lat="43.47555" lon="6.31921">
        <ele>152.6</ele>
        <time>2023-03-03T13:12:51Z</time>
      </trkpt>
      <trkpt lat="43.47555" lon="6.31919">
        <ele>152.5</ele>
        <time>2023-03-03T13:12:52Z</time>
      </trkpt>
      <trkpt lat="43.47555" lon="6.31917">
        <ele>152.5</ele>
        <time>2023-03-03T13:12:53Z</time>
      </trkpt>
      <trkpt lat="43.47554" lon="6.31915">
        <ele>152.4</ele>
        <time>2023-03-03T13:12:54Z</time>
      </trkpt>
      <trkpt lat="43.47554" lon="6.31913">
        <ele>152.3</ele>
        <time>2023-03-03T13:12:55Z</time>
      </trkpt>
      <trkpt lat="43.47554" lon="6.31911">
        <ele>152.3</ele>
        <time>2023-03-03T13:12:56Z</time>
      </trkpt>
      <trkpt lat="43.47554" lon="6.3191">
        <ele>152.2</ele>
        <time>2023-03-03T13:12:57Z</time>
      </trkpt>
      <trkpt lat="43.47554" lon="6.31908">
        <ele>152.2</ele>
        <time>2023-03-03T13:12:58Z</time>
      </trkpt>
      <trkpt lat="43.47553" lon="6.31906">
        <ele>152.2</ele>
        <time>2023-03-03T13:12:59Z</time>
      </trkpt>
      <trkpt lat="43.47553" lon="6.31904">
        <ele>152.2</ele>
        <time>2023-03-03T13:13:00Z</time>
      </trkpt>
      <trkpt lat="43.47553" lon="6.31902">
        <ele>152.1</ele>
        <time>2023-03-03T13:13:01Z</time>
      </trkpt>
      <trkpt lat="43.47552" lon="6.31899">
        <ele>151.9</ele>
        <time>2023-03-03T13:13:02Z</time>
      </trkpt>
      <trkpt lat="43.47552" lon="6.31897">
        <ele>151.8</ele>
        <time>2023-03-03T13:13:03Z</time>
      </trkpt>
      <trkpt lat="43.47552" lon="6.31895">
        <ele>151.8</ele>
        <time>2023-03-03T13:13:04Z</time>
      </trkpt>
      <trkpt lat="43.47551" lon="6.31893">
        <ele>151.8</ele>
        <time>2023-03-03T13:13:05Z</time>
      </trkpt>
      <trkpt lat="43.47551" lon="6.31891">
        <ele>151.7</ele>
        <time>2023-03-03T13:13:06Z</time>
      </trkpt>
      <trkpt lat="43.47551" lon="6.31888">
        <ele>151.7</ele>
        <time>2023-03-03T13:13:07Z</time>
      </trkpt>
      <trkpt lat="43.4755" lon="6.31886">
        <ele>151.6</ele>
        <time>2023-03-03T13:13:08Z</time>
      </trkpt>
      <trkpt lat="43.4755" lon="6.31884">
        <ele>151.6</ele>
        <time>2023-03-03T13:13:09Z</time>
      </trkpt>
      <trkpt lat="43.4755" lon="6.31882">
        <ele>151.5</ele>
        <time>2023-03-03T13:13:10Z</time>
      </trkpt>
      <trkpt lat="43.47549" lon="6.31881">
        <ele>151.6</ele>
        <time>2023-03-03T13:13:11Z</time>
      </trkpt>
      <trkpt lat="43.47549" lon="6.3188">
        <ele>151.6</ele>
        <time>2023-03-03T13:13:12Z</time>
      </trkpt>
      <trkpt lat="43.47549" lon="6.3188">
        <ele>151.6</ele>
        <time>2023-03-03T13:13:13Z</time>
      </trkpt>
      <trkpt lat="43.47549" lon="6.3188">
        <ele>151.6</ele>
        <time>2023-03-03T13:13:14Z</time>
      </trkpt>
      <trkpt lat="43.47549" lon="6.31878">
        <ele>151.5</ele>
        <time>2023-03-03T13:13:15Z</time>
      </trkpt>
      <trkpt lat="43.47548" lon="6.31876">
        <ele>151.5</ele>
        <time>2023-03-03T13:13:16Z</time>
      </trkpt>
      <trkpt lat="43.47548" lon="6.31875">
        <ele>151.6</ele>
        <time>2023-03-03T13:13:17Z</time>
      </trkpt>
      <trkpt lat="43.47547" lon="6.31873">
        <ele>151.6</ele>
        <time>2023-03-03T13:13:18Z</time>
      </trkpt>
      <trkpt lat="43.47547" lon="6.31871">
        <ele>151.6</ele>
        <time>2023-03-03T13:13:19Z</time>
      </trkpt>
      <trkpt lat="43.47547" lon="6.31869">
        <ele>151.6</ele>
        <time>2023-03-03T13:13:20Z</time>
      </trkpt>
      <trkpt lat="43.47547" lon="6.31867">
        <ele>151.6</ele>
        <time>2023-03-03T13:13:21Z</time>
      </trkpt>
      <trkpt lat="43.47547" lon="6.31865">
        <ele>151.6</ele>
        <time>2023-03-03T13:13:22Z</time>
      </trkpt>
      <trkpt lat="43.47546" lon="6.31863">
        <ele>151.6</ele>
        <time>2023-03-03T13:13:23Z</time>
      </trkpt>
      <trkpt lat="43.47545" lon="6.31862">
        <ele>151.6</ele>
        <time>2023-03-03T13:13:24Z</time>
      </trkpt>
      <trkpt lat="43.47545" lon="6.3186">
        <ele>151.6</ele>
        <time>2023-03-03T13:13:25Z</time>
      </trkpt>
      <trkpt lat="43.47545" lon="6.31858">
        <ele>151.6</ele>
        <time>2023-03-03T13:13:26Z</time>
      </trkpt>
      <trkpt lat="43.47544" lon="6.31856">
        <ele>151.6</ele>
        <time>2023-03-03T13:13:27Z</time>
      </trkpt>
      <trkpt lat="43.47544" lon="6.31854">
        <ele>151.6</ele>
        <time>2023-03-03T13:13:28Z</time>
      </trkpt>
      <trkpt lat="43.47544" lon="6.31853">
        <ele>151.5</ele>
        <time>2023-03-03T13:13:29Z</time>
      </trkpt>
      <trkpt lat="43.47543" lon="6.31851">
        <ele>151.6</ele>
        <time>2023-03-03T13:13:30Z</time>
      </trkpt>
      <trkpt lat="43.47543" lon="6.31849">
        <ele>151.6</ele>
        <time>2023-03-03T13:13:31Z</time>
      </trkpt>
      <trkpt lat="43.47543" lon="6.31847">
        <ele>151.6</ele>
        <time>2023-03-03T13:13:32Z</time>
      </trkpt>
      <trkpt lat="43.47542" lon="6.31845">
        <ele>151.6</ele>
        <time>2023-03-03T13:13:33Z</time>
      </trkpt>
      <trkpt lat="43.47542" lon="6.31843">
        <ele>151.6</ele>
        <time>2023-03-03T13:13:34Z</time>
      </trkpt>
      <trkpt lat="43.47542" lon="6.31841">
        <ele>151.6</ele>
        <time>2023-03-03T13:13:35Z</time>
      </trkpt>
      <trkpt lat="43.47541" lon="6.31839">
        <ele>151.5</ele>
        <time>2023-03-03T13:13:36Z</time>
      </trkpt>
      <trkpt lat="43.47541" lon="6.31837">
        <ele>151.4</ele>
        <time>2023-03-03T13:13:37Z</time>
      </trkpt>
      <trkpt lat="43.4754" lon="6.31835">
        <ele>151.4</ele>
        <time>2023-03-03T13:13:38Z</time>
      </trkpt>
      <trkpt lat="43.4754" lon="6.31833">
        <ele>151.3</ele>
        <time>2023-03-03T13:13:39Z</time>
      </trkpt>
      <trkpt lat="43.4754" lon="6.31831">
        <ele>151.2</ele>
        <time>2023-03-03T13:13:40Z</time>
      </trkpt>
      <trkpt lat="43.47539" lon="6.31829">
        <ele>151.2</ele>
        <time>2023-03-03T13:13:41Z</time>
      </trkpt>
      <trkpt lat="43.47539" lon="6.31826">
        <ele>151.2</ele>
        <time>2023-03-03T13:13:42Z</time>
      </trkpt>
      <trkpt lat="43.47538" lon="6.31824">
        <ele>151.2</ele>
        <time>2023-03-03T13:13:43Z</time>
      </trkpt>
      <trkpt lat="43.47538" lon="6.31822">
        <ele>151</ele>
        <time>2023-03-03T13:13:44Z</time>
      </trkpt>
      <trkpt lat="43.47537" lon="6.31819">
        <ele>151</ele>
        <time>2023-03-03T13:13:45Z</time>
      </trkpt>
      <trkpt lat="43.47537" lon="6.31817">
        <ele>151</ele>
        <time>2023-03-03T13:13:46Z</time>
      </trkpt>
      <trkpt lat="43.47536" lon="6.31815">
        <ele>151.1</ele>
        <time>2023-03-03T13:13:47Z</time>
      </trkpt>
      <trkpt lat="43.47536" lon="6.31813">
        <ele>151.2</ele>
        <time>2023-03-03T13:13:48Z</time>
      </trkpt>
      <trkpt lat="43.47535" lon="6.3181">
        <ele>151.3</ele>
        <time>2023-03-03T13:13:49Z</time>
      </trkpt>
      <trkpt lat="43.47535" lon="6.31808">
        <ele>151.3</ele>
        <time>2023-03-03T13:13:50Z</time>
      </trkpt>
      <trkpt lat="43.47535" lon="6.31807">
        <ele>151.3</ele>
        <time>2023-03-03T13:13:51Z</time>
      </trkpt>
      <trkpt lat="43.47534" lon="6.31805">
        <ele>151.3</ele>
        <time>2023-03-03T13:13:52Z</time>
      </trkpt>
      <trkpt lat="43.47534" lon="6.31803">
        <ele>151.4</ele>
        <time>2023-03-03T13:13:53Z</time>
      </trkpt>
      <trkpt lat="43.47534" lon="6.31802">
        <ele>151.4</ele>
        <time>2023-03-03T13:13:54Z</time>
      </trkpt>
      <trkpt lat="43.47533" lon="6.318">
        <ele>151.4</ele>
        <time>2023-03-03T13:13:55Z</time>
      </trkpt>
      <trkpt lat="43.47533" lon="6.31798">
        <ele>151.5</ele>
        <time>2023-03-03T13:13:56Z</time>
      </trkpt>
      <trkpt lat="43.47532" lon="6.31796">
        <ele>151.5</ele>
        <time>2023-03-03T13:13:57Z</time>
      </trkpt>
      <trkpt lat="43.47532" lon="6.31794">
        <ele>151.5</ele>
        <time>2023-03-03T13:13:58Z</time>
      </trkpt>
      <trkpt lat="43.47531" lon="6.31793">
        <ele>151.6</ele>
        <time>2023-03-03T13:13:59Z</time>
      </trkpt>
      <trkpt lat="43.4753" lon="6.3179">
        <ele>151.6</ele>
        <time>2023-03-03T13:14:00Z</time>
      </trkpt>
      <trkpt lat="43.47529" lon="6.31789">
        <ele>151.6</ele>
        <time>2023-03-03T13:14:01Z</time>
      </trkpt>
      <trkpt lat="43.47529" lon="6.31787">
        <ele>151.6</ele>
        <time>2023-03-03T13:14:02Z</time>
      </trkpt>
      <trkpt lat="43.47528" lon="6.31785">
        <ele>151.7</ele>
        <time>2023-03-03T13:14:03Z</time>
      </trkpt>
      <trkpt lat="43.47528" lon="6.31783">
        <ele>151.8</ele>
        <time>2023-03-03T13:14:04Z</time>
      </trkpt>
      <trkpt lat="43.47527" lon="6.31781">
        <ele>151.8</ele>
        <time>2023-03-03T13:14:05Z</time>
      </trkpt>
      <trkpt lat="43.47527" lon="6.31779">
        <ele>151.8</ele>
        <time>2023-03-03T13:14:06Z</time>
      </trkpt>
      <trkpt lat="43.47527" lon="6.31777">
        <ele>151.8</ele>
        <time>2023-03-03T13:14:07Z</time>
      </trkpt>
      <trkpt lat="43.47526" lon="6.31775">
        <ele>151.8</ele>
        <time>2023-03-03T13:14:08Z</time>
      </trkpt>
      <trkpt lat="43.47526" lon="6.31773">
        <ele>151.9</ele>
        <time>2023-03-03T13:14:09Z</time>
      </trkpt>
      <trkpt lat="43.47525" lon="6.31771">
        <ele>151.9</ele>
        <time>2023-03-03T13:14:10Z</time>
      </trkpt>
      <trkpt lat="43.47525" lon="6.31769">
        <ele>151.9</ele>
        <time>2023-03-03T13:14:11Z</time>
      </trkpt>
      <trkpt lat="43.47525" lon="6.31766">
        <ele>151.8</ele>
        <time>2023-03-03T13:14:12Z</time>
      </trkpt>
      <trkpt lat="43.47524" lon="6.31764">
        <ele>151.9</ele>
        <time>2023-03-03T13:14:13Z</time>
      </trkpt>
      <trkpt lat="43.47524" lon="6.31762">
        <ele>152</ele>
        <time>2023-03-03T13:14:14Z</time>
      </trkpt>
      <trkpt lat="43.47524" lon="6.3176">
        <ele>152.1</ele>
        <time>2023-03-03T13:14:15Z</time>
      </trkpt>
      <trkpt lat="43.47523" lon="6.31758">
        <ele>152.1</ele>
        <time>2023-03-03T13:14:16Z</time>
      </trkpt>
      <trkpt lat="43.47523" lon="6.31756">
        <ele>152.1</ele>
        <time>2023-03-03T13:14:17Z</time>
      </trkpt>
      <trkpt lat="43.47522" lon="6.31754">
        <ele>152.1</ele>
        <time>2023-03-03T13:14:18Z</time>
      </trkpt>
      <trkpt lat="43.47522" lon="6.31752">
        <ele>152.2</ele>
        <time>2023-03-03T13:14:19Z</time>
      </trkpt>
      <trkpt lat="43.47521" lon="6.3175">
        <ele>152.2</ele>
        <time>2023-03-03T13:14:20Z</time>
      </trkpt>
      <trkpt lat="43.47521" lon="6.31748">
        <ele>152.1</ele>
        <time>2023-03-03T13:14:21Z</time>
      </trkpt>
      <trkpt lat="43.47521" lon="6.31746">
        <ele>152.1</ele>
        <time>2023-03-03T13:14:22Z</time>
      </trkpt>
      <trkpt lat="43.47521" lon="6.31744">
        <ele>152.1</ele>
        <time>2023-03-03T13:14:23Z</time>
      </trkpt>
      <trkpt lat="43.4752" lon="6.31742">
        <ele>152.1</ele>
        <time>2023-03-03T13:14:24Z</time>
      </trkpt>
      <trkpt lat="43.4752" lon="6.3174">
        <ele>152.2</ele>
        <time>2023-03-03T13:14:25Z</time>
      </trkpt>
      <trkpt lat="43.4752" lon="6.31739">
        <ele>152.2</ele>
        <time>2023-03-03T13:14:26Z</time>
      </trkpt>
      <trkpt lat="43.47519" lon="6.31737">
        <ele>152.2</ele>
        <time>2023-03-03T13:14:27Z</time>
      </trkpt>
      <trkpt lat="43.47519" lon="6.31735">
        <ele>152.2</ele>
        <time>2023-03-03T13:14:28Z</time>
      </trkpt>
      <trkpt lat="43.47519" lon="6.31733">
        <ele>152.3</ele>
        <time>2023-03-03T13:14:29Z</time>
      </trkpt>
      <trkpt lat="43.47518" lon="6.31731">
        <ele>152.3</ele>
        <time>2023-03-03T13:14:30Z</time>
      </trkpt>
      <trkpt lat="43.47518" lon="6.31729">
        <ele>152.3</ele>
        <time>2023-03-03T13:14:31Z</time>
      </trkpt>
      <trkpt lat="43.47518" lon="6.31727">
        <ele>152.4</ele>
        <time>2023-03-03T13:14:32Z</time>
      </trkpt>
      <trkpt lat="43.47517" lon="6.31725">
        <ele>152.4</ele>
        <time>2023-03-03T13:14:33Z</time>
      </trkpt>
      <trkpt lat="43.47517" lon="6.31723">
        <ele>152.4</ele>
        <time>2023-03-03T13:14:34Z</time>
      </trkpt>
      <trkpt lat="43.47517" lon="6.31721">
        <ele>152.5</ele>
        <time>2023-03-03T13:14:35Z</time>
      </trkpt>
      <trkpt lat="43.47516" lon="6.31718">
        <ele>152.5</ele>
        <time>2023-03-03T13:14:36Z</time>
      </trkpt>
      <trkpt lat="43.47515" lon="6.31716">
        <ele>152.5</ele>
        <time>2023-03-03T13:14:37Z</time>
      </trkpt>
      <trkpt lat="43.47515" lon="6.31714">
        <ele>152.6</ele>
        <time>2023-03-03T13:14:38Z</time>
      </trkpt>
      <trkpt lat="43.47514" lon="6.31711">
        <ele>152.6</ele>
        <time>2023-03-03T13:14:39Z</time>
      </trkpt>
      <trkpt lat="43.47514" lon="6.31709">
        <ele>152.7</ele>
        <time>2023-03-03T13:14:40Z</time>
      </trkpt>
      <trkpt lat="43.47513" lon="6.31707">
        <ele>152.8</ele>
        <time>2023-03-03T13:14:41Z</time>
      </trkpt>
      <trkpt lat="43.47513" lon="6.31705">
        <ele>153</ele>
        <time>2023-03-03T13:14:42Z</time>
      </trkpt>
      <trkpt lat="43.47513" lon="6.31703">
        <ele>153.1</ele>
        <time>2023-03-03T13:14:43Z</time>
      </trkpt>
      <trkpt lat="43.47513" lon="6.31701">
        <ele>153.1</ele>
        <time>2023-03-03T13:14:44Z</time>
      </trkpt>
      <trkpt lat="43.47512" lon="6.31699">
        <ele>153.2</ele>
        <time>2023-03-03T13:14:45Z</time>
      </trkpt>
      <trkpt lat="43.47512" lon="6.31697">
        <ele>153.3</ele>
        <time>2023-03-03T13:14:46Z</time>
      </trkpt>
      <trkpt lat="43.47512" lon="6.31695">
        <ele>153.4</ele>
        <time>2023-03-03T13:14:47Z</time>
      </trkpt>
      <trkpt lat="43.47511" lon="6.31693">
        <ele>153.5</ele>
        <time>2023-03-03T13:14:48Z</time>
      </trkpt>
      <trkpt lat="43.47511" lon="6.31691">
        <ele>153.7</ele>
        <time>2023-03-03T13:14:49Z</time>
      </trkpt>
      <trkpt lat="43.47511" lon="6.31689">
        <ele>153.9</ele>
        <time>2023-03-03T13:14:50Z</time>
      </trkpt>
      <trkpt lat="43.4751" lon="6.31687">
        <ele>154</ele>
        <time>2023-03-03T13:14:51Z</time>
      </trkpt>
      <trkpt lat="43.4751" lon="6.31685">
        <ele>154.2</ele>
        <time>2023-03-03T13:14:52Z</time>
      </trkpt>
      <trkpt lat="43.4751" lon="6.31684">
        <ele>154.3</ele>
        <time>2023-03-03T13:14:53Z</time>
      </trkpt>
      <trkpt lat="43.4751" lon="6.31682">
        <ele>154.5</ele>
        <time>2023-03-03T13:14:54Z</time>
      </trkpt>
      <trkpt lat="43.4751" lon="6.31681">
        <ele>154.6</ele>
        <time>2023-03-03T13:14:55Z</time>
      </trkpt>
      <trkpt lat="43.47509" lon="6.31679">
        <ele>154.7</ele>
        <time>2023-03-03T13:14:56Z</time>
      </trkpt>
      <trkpt lat="43.4751" lon="6.31677">
        <ele>154.8</ele>
        <time>2023-03-03T13:14:57Z</time>
      </trkpt>
      <trkpt lat="43.4751" lon="6.31675">
        <ele>155</ele>
        <time>2023-03-03T13:14:58Z</time>
      </trkpt>
      <trkpt lat="43.4751" lon="6.31673">
        <ele>155</ele>
        <time>2023-03-03T13:14:59Z</time>
      </trkpt>
      <trkpt lat="43.4751" lon="6.31671">
        <ele>155</ele>
        <time>2023-03-03T13:15:00Z</time>
      </trkpt>
      <trkpt lat="43.4751" lon="6.31669">
        <ele>155.1</ele>
        <time>2023-03-03T13:15:01Z</time>
      </trkpt>
      <trkpt lat="43.4751" lon="6.31667">
        <ele>155.2</ele>
        <time>2023-03-03T13:15:02Z</time>
      </trkpt>
      <trkpt lat="43.4751" lon="6.31665">
        <ele>155.3</ele>
        <time>2023-03-03T13:15:03Z</time>
      </trkpt>
      <trkpt lat="43.4751" lon="6.31663">
        <ele>155.4</ele>
        <time>2023-03-03T13:15:04Z</time>
      </trkpt>
      <trkpt lat="43.4751" lon="6.31661">
        <ele>155.5</ele>
        <time>2023-03-03T13:15:05Z</time>
      </trkpt>
      <trkpt lat="43.47511" lon="6.31659">
        <ele>155.6</ele>
        <time>2023-03-03T13:15:06Z</time>
      </trkpt>
      <trkpt lat="43.47511" lon="6.31657">
        <ele>155.6</ele>
        <time>2023-03-03T13:15:07Z</time>
      </trkpt>
      <trkpt lat="43.47511" lon="6.31655">
        <ele>155.7</ele>
        <time>2023-03-03T13:15:08Z</time>
      </trkpt>
      <trkpt lat="43.47512" lon="6.31652">
        <ele>155.7</ele>
        <time>2023-03-03T13:15:09Z</time>
      </trkpt>
      <trkpt lat="43.47512" lon="6.3165">
        <ele>155.8</ele>
        <time>2023-03-03T13:15:10Z</time>
      </trkpt>
      <trkpt lat="43.47512" lon="6.31648">
        <ele>155.8</ele>
        <time>2023-03-03T13:15:11Z</time>
      </trkpt>
      <trkpt lat="43.47512" lon="6.31646">
        <ele>155.9</ele>
        <time>2023-03-03T13:15:12Z</time>
      </trkpt>
      <trkpt lat="43.47513" lon="6.31644">
        <ele>155.8</ele>
        <time>2023-03-03T13:15:13Z</time>
      </trkpt>
      <trkpt lat="43.47513" lon="6.31643">
        <ele>155.8</ele>
        <time>2023-03-03T13:15:14Z</time>
      </trkpt>
      <trkpt lat="43.47513" lon="6.3164">
        <ele>155.9</ele>
        <time>2023-03-03T13:15:15Z</time>
      </trkpt>
      <trkpt lat="43.47513" lon="6.31638">
        <ele>155.9</ele>
        <time>2023-03-03T13:15:16Z</time>
      </trkpt>
      <trkpt lat="43.47513" lon="6.31636">
        <ele>155.9</ele>
        <time>2023-03-03T13:15:17Z</time>
      </trkpt>
      <trkpt lat="43.47513" lon="6.31634">
        <ele>155.9</ele>
        <time>2023-03-03T13:15:18Z</time>
      </trkpt>
      <trkpt lat="43.47513" lon="6.31632">
        <ele>155.9</ele>
        <time>2023-03-03T13:15:19Z</time>
      </trkpt>
      <trkpt lat="43.47513" lon="6.3163">
        <ele>155.9</ele>
        <time>2023-03-03T13:15:20Z</time>
      </trkpt>
      <trkpt lat="43.47513" lon="6.31628">
        <ele>156</ele>
        <time>2023-03-03T13:15:21Z</time>
      </trkpt>
      <trkpt lat="43.47513" lon="6.31627">
        <ele>156.1</ele>
        <time>2023-03-03T13:15:22Z</time>
      </trkpt>
      <trkpt lat="43.47513" lon="6.31625">
        <ele>156.2</ele>
        <time>2023-03-03T13:15:23Z</time>
      </trkpt>
      <trkpt lat="43.47513" lon="6.31624">
        <ele>156.3</ele>
        <time>2023-03-03T13:15:24Z</time>
      </trkpt>
      <trkpt lat="43.47513" lon="6.31622">
        <ele>156.3</ele>
        <time>2023-03-03T13:15:25Z</time>
      </trkpt>
      <trkpt lat="43.47513" lon="6.3162">
        <ele>156.5</ele>
        <time>2023-03-03T13:15:26Z</time>
      </trkpt>
      <trkpt lat="43.47513" lon="6.31618">
        <ele>156.7</ele>
        <time>2023-03-03T13:15:27Z</time>
      </trkpt>
      <trkpt lat="43.47513" lon="6.31616">
        <ele>156.9</ele>
        <time>2023-03-03T13:15:28Z</time>
      </trkpt>
      <trkpt lat="43.47514" lon="6.31613">
        <ele>157</ele>
        <time>2023-03-03T13:15:29Z</time>
      </trkpt>
      <trkpt lat="43.47514" lon="6.31612">
        <ele>157.1</ele>
        <time>2023-03-03T13:15:30Z</time>
      </trkpt>
      <trkpt lat="43.47515" lon="6.3161">
        <ele>157.2</ele>
        <time>2023-03-03T13:15:31Z</time>
      </trkpt>
      <trkpt lat="43.47516" lon="6.31608">
        <ele>157.3</ele>
        <time>2023-03-03T13:15:32Z</time>
      </trkpt>
      <trkpt lat="43.47516" lon="6.31606">
        <ele>157.4</ele>
        <time>2023-03-03T13:15:33Z</time>
      </trkpt>
      <trkpt lat="43.47517" lon="6.31604">
        <ele>157.5</ele>
        <time>2023-03-03T13:15:34Z</time>
      </trkpt>
      <trkpt lat="43.47518" lon="6.31602">
        <ele>157.7</ele>
        <time>2023-03-03T13:15:35Z</time>
      </trkpt>
      <trkpt lat="43.47518" lon="6.316">
        <ele>157.6</ele>
        <time>2023-03-03T13:15:36Z</time>
      </trkpt>
      <trkpt lat="43.47518" lon="6.31598">
        <ele>157.7</ele>
        <time>2023-03-03T13:15:37Z</time>
      </trkpt>
      <trkpt lat="43.47519" lon="6.31597">
        <ele>157.8</ele>
        <time>2023-03-03T13:15:38Z</time>
      </trkpt>
      <trkpt lat="43.47519" lon="6.31595">
        <ele>157.8</ele>
        <time>2023-03-03T13:15:39Z</time>
      </trkpt>
      <trkpt lat="43.47519" lon="6.31593">
        <ele>157.9</ele>
        <time>2023-03-03T13:15:40Z</time>
      </trkpt>
      <trkpt lat="43.47519" lon="6.31591">
        <ele>157.9</ele>
        <time>2023-03-03T13:15:41Z</time>
      </trkpt>
      <trkpt lat="43.47519" lon="6.31588">
        <ele>158</ele>
        <time>2023-03-03T13:15:42Z</time>
      </trkpt>
      <trkpt lat="43.47519" lon="6.31586">
        <ele>158.1</ele>
        <time>2023-03-03T13:15:43Z</time>
      </trkpt>
      <trkpt lat="43.47519" lon="6.31583">
        <ele>158.2</ele>
        <time>2023-03-03T13:15:44Z</time>
      </trkpt>
      <trkpt lat="43.47519" lon="6.31581">
        <ele>158.3</ele>
        <time>2023-03-03T13:15:45Z</time>
      </trkpt>
      <trkpt lat="43.47519" lon="6.31579">
        <ele>158.2</ele>
        <time>2023-03-03T13:15:46Z</time>
      </trkpt>
      <trkpt lat="43.47519" lon="6.31577">
        <ele>158.1</ele>
        <time>2023-03-03T13:15:47Z</time>
      </trkpt>
      <trkpt lat="43.47519" lon="6.31575">
        <ele>158.1</ele>
        <time>2023-03-03T13:15:48Z</time>
      </trkpt>
      <trkpt lat="43.47519" lon="6.31573">
        <ele>158</ele>
        <time>2023-03-03T13:15:49Z</time>
      </trkpt>
      <trkpt lat="43.47519" lon="6.31571">
        <ele>158</ele>
        <time>2023-03-03T13:15:50Z</time>
      </trkpt>
      <trkpt lat="43.47519" lon="6.31569">
        <ele>157.9</ele>
        <time>2023-03-03T13:15:51Z</time>
      </trkpt>
      <trkpt lat="43.4752" lon="6.31567">
        <ele>157.9</ele>
        <time>2023-03-03T13:15:52Z</time>
      </trkpt>
      <trkpt lat="43.47521" lon="6.31565">
        <ele>157.9</ele>
        <time>2023-03-03T13:15:53Z</time>
      </trkpt>
      <trkpt lat="43.47521" lon="6.31563">
        <ele>157.9</ele>
        <time>2023-03-03T13:15:54Z</time>
      </trkpt>
      <trkpt lat="43.47521" lon="6.31561">
        <ele>158</ele>
        <time>2023-03-03T13:15:55Z</time>
      </trkpt>
      <trkpt lat="43.47522" lon="6.31559">
        <ele>158</ele>
        <time>2023-03-03T13:15:56Z</time>
      </trkpt>
      <trkpt lat="43.47522" lon="6.31557">
        <ele>158</ele>
        <time>2023-03-03T13:15:57Z</time>
      </trkpt>
      <trkpt lat="43.47522" lon="6.31554">
        <ele>158</ele>
        <time>2023-03-03T13:15:58Z</time>
      </trkpt>
      <trkpt lat="43.47523" lon="6.31552">
        <ele>158</ele>
        <time>2023-03-03T13:15:59Z</time>
      </trkpt>
      <trkpt lat="43.47523" lon="6.3155">
        <ele>158</ele>
        <time>2023-03-03T13:16:00Z</time>
      </trkpt>
      <trkpt lat="43.47523" lon="6.31548">
        <ele>158</ele>
        <time>2023-03-03T13:16:01Z</time>
      </trkpt>
      <trkpt lat="43.47524" lon="6.31546">
        <ele>158</ele>
        <time>2023-03-03T13:16:02Z</time>
      </trkpt>
      <trkpt lat="43.47526" lon="6.31544">
        <ele>158</ele>
        <time>2023-03-03T13:16:03Z</time>
      </trkpt>
      <trkpt lat="43.47527" lon="6.31543">
        <ele>158</ele>
        <time>2023-03-03T13:16:04Z</time>
      </trkpt>
      <trkpt lat="43.47528" lon="6.31541">
        <ele>158</ele>
        <time>2023-03-03T13:16:05Z</time>
      </trkpt>
      <trkpt lat="43.47529" lon="6.31539">
        <ele>158</ele>
        <time>2023-03-03T13:16:06Z</time>
      </trkpt>
      <trkpt lat="43.47529" lon="6.31537">
        <ele>157.9</ele>
        <time>2023-03-03T13:16:07Z</time>
      </trkpt>
      <trkpt lat="43.4753" lon="6.31535">
        <ele>157.9</ele>
        <time>2023-03-03T13:16:08Z</time>
      </trkpt>
      <trkpt lat="43.47531" lon="6.31533">
        <ele>157.8</ele>
        <time>2023-03-03T13:16:09Z</time>
      </trkpt>
      <trkpt lat="43.47531" lon="6.31531">
        <ele>157.8</ele>
        <time>2023-03-03T13:16:10Z</time>
      </trkpt>
      <trkpt lat="43.47531" lon="6.31529">
        <ele>157.7</ele>
        <time>2023-03-03T13:16:11Z</time>
      </trkpt>
      <trkpt lat="43.47531" lon="6.31527">
        <ele>157.8</ele>
        <time>2023-03-03T13:16:12Z</time>
      </trkpt>
      <trkpt lat="43.47531" lon="6.31526">
        <ele>157.9</ele>
        <time>2023-03-03T13:16:13Z</time>
      </trkpt>
      <trkpt lat="43.47532" lon="6.31524">
        <ele>157.9</ele>
        <time>2023-03-03T13:16:14Z</time>
      </trkpt>
      <trkpt lat="43.47532" lon="6.31522">
        <ele>158</ele>
        <time>2023-03-03T13:16:15Z</time>
      </trkpt>
      <trkpt lat="43.47533" lon="6.31521">
        <ele>158</ele>
        <time>2023-03-03T13:16:16Z</time>
      </trkpt>
      <trkpt lat="43.47534" lon="6.31519">
        <ele>158</ele>
        <time>2023-03-03T13:16:17Z</time>
      </trkpt>
      <trkpt lat="43.47534" lon="6.31517">
        <ele>158</ele>
        <time>2023-03-03T13:16:18Z</time>
      </trkpt>
      <trkpt lat="43.47535" lon="6.31516">
        <ele>158</ele>
        <time>2023-03-03T13:16:19Z</time>
      </trkpt>
      <trkpt lat="43.47535" lon="6.31514">
        <ele>158.1</ele>
        <time>2023-03-03T13:16:20Z</time>
      </trkpt>
      <trkpt lat="43.47535" lon="6.31512">
        <ele>158.2</ele>
        <time>2023-03-03T13:16:21Z</time>
      </trkpt>
      <trkpt lat="43.47535" lon="6.3151">
        <ele>158.3</ele>
        <time>2023-03-03T13:16:22Z</time>
      </trkpt>
      <trkpt lat="43.47536" lon="6.31509">
        <ele>158.2</ele>
        <time>2023-03-03T13:16:23Z</time>
      </trkpt>
      <trkpt lat="43.47536" lon="6.31507">
        <ele>158.2</ele>
        <time>2023-03-03T13:16:24Z</time>
      </trkpt>
      <trkpt lat="43.47536" lon="6.31505">
        <ele>158.2</ele>
        <time>2023-03-03T13:16:25Z</time>
      </trkpt>
      <trkpt lat="43.47537" lon="6.31503">
        <ele>158.3</ele>
        <time>2023-03-03T13:16:26Z</time>
      </trkpt>
      <trkpt lat="43.47537" lon="6.31502">
        <ele>158.4</ele>
        <time>2023-03-03T13:16:27Z</time>
      </trkpt>
      <trkpt lat="43.47538" lon="6.315">
        <ele>158.6</ele>
        <time>2023-03-03T13:16:28Z</time>
      </trkpt>
      <trkpt lat="43.47538" lon="6.31498">
        <ele>158.7</ele>
        <time>2023-03-03T13:16:29Z</time>
      </trkpt>
      <trkpt lat="43.47537" lon="6.31496">
        <ele>158.9</ele>
        <time>2023-03-03T13:16:30Z</time>
      </trkpt>
      <trkpt lat="43.47537" lon="6.31494">
        <ele>159</ele>
        <time>2023-03-03T13:16:31Z</time>
      </trkpt>
      <trkpt lat="43.47537" lon="6.31492">
        <ele>159.1</ele>
        <time>2023-03-03T13:16:32Z</time>
      </trkpt>
      <trkpt lat="43.47538" lon="6.31491">
        <ele>159.1</ele>
        <time>2023-03-03T13:16:33Z</time>
      </trkpt>
      <trkpt lat="43.47538" lon="6.31489">
        <ele>159.1</ele>
        <time>2023-03-03T13:16:34Z</time>
      </trkpt>
      <trkpt lat="43.47538" lon="6.31487">
        <ele>159.1</ele>
        <time>2023-03-03T13:16:35Z</time>
      </trkpt>
      <trkpt lat="43.47538" lon="6.31485">
        <ele>159.2</ele>
        <time>2023-03-03T13:16:36Z</time>
      </trkpt>
      <trkpt lat="43.47538" lon="6.31483">
        <ele>159.2</ele>
        <time>2023-03-03T13:16:37Z</time>
      </trkpt>
      <trkpt lat="43.47539" lon="6.31482">
        <ele>159.4</ele>
        <time>2023-03-03T13:16:38Z</time>
      </trkpt>
      <trkpt lat="43.47539" lon="6.3148">
        <ele>159.5</ele>
        <time>2023-03-03T13:16:39Z</time>
      </trkpt>
      <trkpt lat="43.47539" lon="6.31479">
        <ele>159.5</ele>
        <time>2023-03-03T13:16:40Z</time>
      </trkpt>
      <trkpt lat="43.47539" lon="6.31477">
        <ele>159.6</ele>
        <time>2023-03-03T13:16:41Z</time>
      </trkpt>
      <trkpt lat="43.47539" lon="6.31476">
        <ele>159.7</ele>
        <time>2023-03-03T13:16:42Z</time>
      </trkpt>
      <trkpt lat="43.47539" lon="6.31475">
        <ele>159.8</ele>
        <time>2023-03-03T13:16:43Z</time>
      </trkpt>
      <trkpt lat="43.4754" lon="6.31474">
        <ele>159.9</ele>
        <time>2023-03-03T13:16:44Z</time>
      </trkpt>
      <trkpt lat="43.4754" lon="6.31472">
        <ele>160</ele>
        <time>2023-03-03T13:16:45Z</time>
      </trkpt>
      <trkpt lat="43.4754" lon="6.31471">
        <ele>160.1</ele>
        <time>2023-03-03T13:16:46Z</time>
      </trkpt>
      <trkpt lat="43.4754" lon="6.3147">
        <ele>160.2</ele>
        <time>2023-03-03T13:16:47Z</time>
      </trkpt>
      <trkpt lat="43.4754" lon="6.31469">
        <ele>160.2</ele>
        <time>2023-03-03T13:16:48Z</time>
      </trkpt>
      <trkpt lat="43.47541" lon="6.31467">
        <ele>160.2</ele>
        <time>2023-03-03T13:16:49Z</time>
      </trkpt>
      <trkpt lat="43.47541" lon="6.31466">
        <ele>160.3</ele>
        <time>2023-03-03T13:16:50Z</time>
      </trkpt>
      <trkpt lat="43.47541" lon="6.31465">
        <ele>160.3</ele>
        <time>2023-03-03T13:16:51Z</time>
      </trkpt>
      <trkpt lat="43.47541" lon="6.31464">
        <ele>160.3</ele>
        <time>2023-03-03T13:16:52Z</time>
      </trkpt>
      <trkpt lat="43.47541" lon="6.31464">
        <ele>160.4</ele>
        <time>2023-03-03T13:16:53Z</time>
      </trkpt>
      <trkpt lat="43.47541" lon="6.31463">
        <ele>160.3</ele>
        <time>2023-03-03T13:16:54Z</time>
      </trkpt>
      <trkpt lat="43.47541" lon="6.31463">
        <ele>160.3</ele>
        <time>2023-03-03T13:16:55Z</time>
      </trkpt>
      <trkpt lat="43.47541" lon="6.31463">
        <ele>160.4</ele>
        <time>2023-03-03T13:16:56Z</time>
      </trkpt>
      <trkpt lat="43.47541" lon="6.31463">
        <ele>160.3</ele>
        <time>2023-03-03T13:16:57Z</time>
      </trkpt>
      <trkpt lat="43.47541" lon="6.31463">
        <ele>160.2</ele>
        <time>2023-03-03T13:16:58Z</time>
      </trkpt>
      <trkpt lat="43.47541" lon="6.31462">
        <ele>160.2</ele>
        <time>2023-03-03T13:16:59Z</time>
      </trkpt>
      <trkpt lat="43.47541" lon="6.31462">
        <ele>160.2</ele>
        <time>2023-03-03T13:17:00Z</time>
      </trkpt>
      <trkpt lat="43.47541" lon="6.31462">
        <ele>160.2</ele>
        <time>2023-03-03T13:17:01Z</time>
      </trkpt>
      <trkpt lat="43.47541" lon="6.31461">
        <ele>160.2</ele>
        <time>2023-03-03T13:17:02Z</time>
      </trkpt>
      <trkpt lat="43.47541" lon="6.31461">
        <ele>160.2</ele>
        <time>2023-03-03T13:17:03Z</time>
      </trkpt>
      <trkpt lat="43.47541" lon="6.31461">
        <ele>160.3</ele>
        <time>2023-03-03T13:17:04Z</time>
      </trkpt>
      <trkpt lat="43.47541" lon="6.31461">
        <ele>160.3</ele>
        <time>2023-03-03T13:17:05Z</time>
      </trkpt>
      <trkpt lat="43.47541" lon="6.31461">
        <ele>160.4</ele>
        <time>2023-03-03T13:17:06Z</time>
      </trkpt>
      <trkpt lat="43.47541" lon="6.31461">
        <ele>160.4</ele>
        <time>2023-03-03T13:17:07Z</time>
      </trkpt>
      <trkpt lat="43.47541" lon="6.31461">
        <ele>160.4</ele>
        <time>2023-03-03T13:17:08Z</time>
      </trkpt>
      <trkpt lat="43.47542" lon="6.31461">
        <ele>160.4</ele>
        <time>2023-03-03T13:17:09Z</time>
      </trkpt>
      <trkpt lat="43.47542" lon="6.31461">
        <ele>160.5</ele>
        <time>2023-03-03T13:17:10Z</time>
      </trkpt>
      <trkpt lat="43.47542" lon="6.31461">
        <ele>160.5</ele>
        <time>2023-03-03T13:17:11Z</time>
      </trkpt>
      <trkpt lat="43.47542" lon="6.3146">
        <ele>160.5</ele>
        <time>2023-03-03T13:17:12Z</time>
      </trkpt>
      <trkpt lat="43.47542" lon="6.3146">
        <ele>160.5</ele>
        <time>2023-03-03T13:17:13Z</time>
      </trkpt>
      <trkpt lat="43.47542" lon="6.31459">
        <ele>160.4</ele>
        <time>2023-03-03T13:17:14Z</time>
      </trkpt>
      <trkpt lat="43.47542" lon="6.31458">
        <ele>160.4</ele>
        <time>2023-03-03T13:17:15Z</time>
      </trkpt>
      <trkpt lat="43.47542" lon="6.31457">
        <ele>160.4</ele>
        <time>2023-03-03T13:17:16Z</time>
      </trkpt>
      <trkpt lat="43.47542" lon="6.31456">
        <ele>160.3</ele>
        <time>2023-03-03T13:17:17Z</time>
      </trkpt>
      <trkpt lat="43.47543" lon="6.31455">
        <ele>160.2</ele>
        <time>2023-03-03T13:17:18Z</time>
      </trkpt>
      <trkpt lat="43.47543" lon="6.31455">
        <ele>160.1</ele>
        <time>2023-03-03T13:17:19Z</time>
      </trkpt>
      <trkpt lat="43.47543" lon="6.31454">
        <ele>160.1</ele>
        <time>2023-03-03T13:17:20Z</time>
      </trkpt>
      <trkpt lat="43.47543" lon="6.31453">
        <ele>160.1</ele>
        <time>2023-03-03T13:17:21Z</time>
      </trkpt>
      <trkpt lat="43.47543" lon="6.31452">
        <ele>160</ele>
        <time>2023-03-03T13:17:22Z</time>
      </trkpt>
      <trkpt lat="43.47544" lon="6.31451">
        <ele>160</ele>
        <time>2023-03-03T13:17:23Z</time>
      </trkpt>
      <trkpt lat="43.47544" lon="6.3145">
        <ele>160.1</ele>
        <time>2023-03-03T13:17:24Z</time>
      </trkpt>
      <trkpt lat="43.47544" lon="6.31448">
        <ele>160.1</ele>
        <time>2023-03-03T13:17:25Z</time>
      </trkpt>
      <trkpt lat="43.47544" lon="6.31447">
        <ele>160.1</ele>
        <time>2023-03-03T13:17:26Z</time>
      </trkpt>
      <trkpt lat="43.47544" lon="6.31446">
        <ele>160.1</ele>
        <time>2023-03-03T13:17:27Z</time>
      </trkpt>
      <trkpt lat="43.47545" lon="6.31445">
        <ele>160.1</ele>
        <time>2023-03-03T13:17:28Z</time>
      </trkpt>
      <trkpt lat="43.47545" lon="6.31444">
        <ele>160.2</ele>
        <time>2023-03-03T13:17:29Z</time>
      </trkpt>
      <trkpt lat="43.47545" lon="6.31443">
        <ele>160.2</ele>
        <time>2023-03-03T13:17:30Z</time>
      </trkpt>
      <trkpt lat="43.47545" lon="6.31441">
        <ele>160.2</ele>
        <time>2023-03-03T13:17:31Z</time>
      </trkpt>
      <trkpt lat="43.47546" lon="6.3144">
        <ele>160.3</ele>
        <time>2023-03-03T13:17:32Z</time>
      </trkpt>
      <trkpt lat="43.47546" lon="6.31439">
        <ele>160.3</ele>
        <time>2023-03-03T13:17:33Z</time>
      </trkpt>
      <trkpt lat="43.47546" lon="6.31437">
        <ele>160.3</ele>
        <time>2023-03-03T13:17:34Z</time>
      </trkpt>
      <trkpt lat="43.47547" lon="6.31436">
        <ele>160.2</ele>
        <time>2023-03-03T13:17:35Z</time>
      </trkpt>
      <trkpt lat="43.47547" lon="6.31435">
        <ele>160.2</ele>
        <time>2023-03-03T13:17:36Z</time>
      </trkpt>
      <trkpt lat="43.47547" lon="6.31434">
        <ele>160.3</ele>
        <time>2023-03-03T13:17:37Z</time>
      </trkpt>
      <trkpt lat="43.47547" lon="6.31432">
        <ele>160.4</ele>
        <time>2023-03-03T13:17:38Z</time>
      </trkpt>
      <trkpt lat="43.47547" lon="6.31431">
        <ele>160.4</ele>
        <time>2023-03-03T13:17:39Z</time>
      </trkpt>
      <trkpt lat="43.47547" lon="6.3143">
        <ele>160.4</ele>
        <time>2023-03-03T13:17:40Z</time>
      </trkpt>
      <trkpt lat="43.47547" lon="6.31429">
        <ele>160.6</ele>
        <time>2023-03-03T13:17:41Z</time>
      </trkpt>
      <trkpt lat="43.47548" lon="6.31428">
        <ele>160.6</ele>
        <time>2023-03-03T13:17:42Z</time>
      </trkpt>
      <trkpt lat="43.47548" lon="6.31427">
        <ele>160.5</ele>
        <time>2023-03-03T13:17:43Z</time>
      </trkpt>
      <trkpt lat="43.47548" lon="6.31426">
        <ele>160.5</ele>
        <time>2023-03-03T13:17:44Z</time>
      </trkpt>
      <trkpt lat="43.47548" lon="6.31424">
        <ele>160.5</ele>
        <time>2023-03-03T13:17:45Z</time>
      </trkpt>
      <trkpt lat="43.47549" lon="6.31424">
        <ele>160.5</ele>
        <time>2023-03-03T13:17:46Z</time>
      </trkpt>
      <trkpt lat="43.47549" lon="6.31423">
        <ele>160.5</ele>
        <time>2023-03-03T13:17:47Z</time>
      </trkpt>
      <trkpt lat="43.47549" lon="6.31422">
        <ele>160.5</ele>
        <time>2023-03-03T13:17:48Z</time>
      </trkpt>
      <trkpt lat="43.47549" lon="6.31422">
        <ele>160.5</ele>
        <time>2023-03-03T13:17:49Z</time>
      </trkpt>
      <trkpt lat="43.47549" lon="6.31422">
        <ele>160.5</ele>
        <time>2023-03-03T13:17:50Z</time>
      </trkpt>
      <trkpt lat="43.47549" lon="6.31422">
        <ele>160.5</ele>
        <time>2023-03-03T13:17:51Z</time>
      </trkpt>
      <trkpt lat="43.47549" lon="6.31421">
        <ele>160.5</ele>
        <time>2023-03-03T13:17:52Z</time>
      </trkpt>
      <trkpt lat="43.47549" lon="6.31421">
        <ele>160.5</ele>
        <time>2023-03-03T13:17:53Z</time>
      </trkpt>
      <trkpt lat="43.47549" lon="6.3142">
        <ele>160.5</ele>
        <time>2023-03-03T13:17:54Z</time>
      </trkpt>
      <trkpt lat="43.47549" lon="6.31419">
        <ele>160.4</ele>
        <time>2023-03-03T13:17:55Z</time>
      </trkpt>
      <trkpt lat="43.4755" lon="6.31417">
        <ele>160.4</ele>
        <time>2023-03-03T13:17:56Z</time>
      </trkpt>
      <trkpt lat="43.4755" lon="6.31416">
        <ele>160.4</ele>
        <time>2023-03-03T13:17:57Z</time>
      </trkpt>
      <trkpt lat="43.4755" lon="6.31415">
        <ele>160.4</ele>
        <time>2023-03-03T13:17:58Z</time>
      </trkpt>
      <trkpt lat="43.4755" lon="6.31415">
        <ele>160.4</ele>
        <time>2023-03-03T13:17:59Z</time>
      </trkpt>
      <trkpt lat="43.4755" lon="6.31414">
        <ele>160.4</ele>
        <time>2023-03-03T13:18:00Z</time>
      </trkpt>
      <trkpt lat="43.4755" lon="6.31414">
        <ele>160.4</ele>
        <time>2023-03-03T13:18:01Z</time>
      </trkpt>
      <trkpt lat="43.4755" lon="6.31414">
        <ele>160.4</ele>
        <time>2023-03-03T13:18:02Z</time>
      </trkpt>
      <trkpt lat="43.4755" lon="6.31414">
        <ele>160.4</ele>
        <time>2023-03-03T13:18:03Z</time>
      </trkpt>
      <trkpt lat="43.4755" lon="6.31414">
        <ele>160.3</ele>
        <time>2023-03-03T13:18:04Z</time>
      </trkpt>
      <trkpt lat="43.4755" lon="6.31413">
        <ele>160.3</ele>
        <time>2023-03-03T13:18:05Z</time>
      </trkpt>
      <trkpt lat="43.47551" lon="6.31412">
        <ele>160.3</ele>
        <time>2023-03-03T13:18:06Z</time>
      </trkpt>
      <trkpt lat="43.47551" lon="6.31411">
        <ele>160.3</ele>
        <time>2023-03-03T13:18:07Z</time>
      </trkpt>
      <trkpt lat="43.47551" lon="6.31411">
        <ele>160.4</ele>
        <time>2023-03-03T13:18:08Z</time>
      </trkpt>
      <trkpt lat="43.47551" lon="6.31409">
        <ele>160.5</ele>
        <time>2023-03-03T13:18:09Z</time>
      </trkpt>
      <trkpt lat="43.47552" lon="6.31409">
        <ele>160.5</ele>
        <time>2023-03-03T13:18:10Z</time>
      </trkpt>
      <trkpt lat="43.47552" lon="6.31407">
        <ele>160.5</ele>
        <time>2023-03-03T13:18:11Z</time>
      </trkpt>
      <trkpt lat="43.47552" lon="6.31406">
        <ele>160.5</ele>
        <time>2023-03-03T13:18:12Z</time>
      </trkpt>
      <trkpt lat="43.47552" lon="6.31405">
        <ele>160.5</ele>
        <time>2023-03-03T13:18:13Z</time>
      </trkpt>
      <trkpt lat="43.47552" lon="6.31404">
        <ele>160.5</ele>
        <time>2023-03-03T13:18:14Z</time>
      </trkpt>
      <trkpt lat="43.47553" lon="6.31403">
        <ele>160.6</ele>
        <time>2023-03-03T13:18:15Z</time>
      </trkpt>
      <trkpt lat="43.47553" lon="6.31401">
        <ele>160.7</ele>
        <time>2023-03-03T13:18:16Z</time>
      </trkpt>
      <trkpt lat="43.47553" lon="6.314">
        <ele>160.7</ele>
        <time>2023-03-03T13:18:17Z</time>
      </trkpt>
      <trkpt lat="43.47553" lon="6.31399">
        <ele>160.7</ele>
        <time>2023-03-03T13:18:18Z</time>
      </trkpt>
      <trkpt lat="43.47553" lon="6.31397">
        <ele>160.8</ele>
        <time>2023-03-03T13:18:19Z</time>
      </trkpt>
      <trkpt lat="43.47553" lon="6.31396">
        <ele>160.8</ele>
        <time>2023-03-03T13:18:20Z</time>
      </trkpt>
      <trkpt lat="43.47553" lon="6.31395">
        <ele>160.7</ele>
        <time>2023-03-03T13:18:21Z</time>
      </trkpt>
      <trkpt lat="43.47553" lon="6.31393">
        <ele>160.7</ele>
        <time>2023-03-03T13:18:22Z</time>
      </trkpt>
      <trkpt lat="43.47553" lon="6.31392">
        <ele>160.8</ele>
        <time>2023-03-03T13:18:23Z</time>
      </trkpt>
      <trkpt lat="43.47554" lon="6.31391">
        <ele>160.8</ele>
        <time>2023-03-03T13:18:24Z</time>
      </trkpt>
      <trkpt lat="43.47554" lon="6.3139">
        <ele>160.8</ele>
        <time>2023-03-03T13:18:25Z</time>
      </trkpt>
      <trkpt lat="43.47554" lon="6.31389">
        <ele>160.8</ele>
        <time>2023-03-03T13:18:26Z</time>
      </trkpt>
      <trkpt lat="43.47555" lon="6.31388">
        <ele>160.9</ele>
        <time>2023-03-03T13:18:27Z</time>
      </trkpt>
      <trkpt lat="43.47555" lon="6.31387">
        <ele>160.9</ele>
        <time>2023-03-03T13:18:28Z</time>
      </trkpt>
      <trkpt lat="43.47555" lon="6.31386">
        <ele>160.9</ele>
        <time>2023-03-03T13:18:29Z</time>
      </trkpt>
      <trkpt lat="43.47555" lon="6.31385">
        <ele>160.9</ele>
        <time>2023-03-03T13:18:30Z</time>
      </trkpt>
      <trkpt lat="43.47555" lon="6.31383">
        <ele>160.9</ele>
        <time>2023-03-03T13:18:31Z</time>
      </trkpt>
      <trkpt lat="43.47556" lon="6.31382">
        <ele>161</ele>
        <time>2023-03-03T13:18:32Z</time>
      </trkpt>
      <trkpt lat="43.47556" lon="6.31381">
        <ele>161</ele>
        <time>2023-03-03T13:18:33Z</time>
      </trkpt>
      <trkpt lat="43.47556" lon="6.3138">
        <ele>161.1</ele>
        <time>2023-03-03T13:18:34Z</time>
      </trkpt>
      <trkpt lat="43.47556" lon="6.31379">
        <ele>161.1</ele>
        <time>2023-03-03T13:18:35Z</time>
      </trkpt>
      <trkpt lat="43.47556" lon="6.31377">
        <ele>161.1</ele>
        <time>2023-03-03T13:18:36Z</time>
      </trkpt>
      <trkpt lat="43.47557" lon="6.31376">
        <ele>161.1</ele>
        <time>2023-03-03T13:18:37Z</time>
      </trkpt>
      <trkpt lat="43.47557" lon="6.31375">
        <ele>161.1</ele>
        <time>2023-03-03T13:18:38Z</time>
      </trkpt>
      <trkpt lat="43.47557" lon="6.31373">
        <ele>161.1</ele>
        <time>2023-03-03T13:18:39Z</time>
      </trkpt>
      <trkpt lat="43.47558" lon="6.31372">
        <ele>161.1</ele>
        <time>2023-03-03T13:18:40Z</time>
      </trkpt>
      <trkpt lat="43.47558" lon="6.31371">
        <ele>161.2</ele>
        <time>2023-03-03T13:18:41Z</time>
      </trkpt>
      <trkpt lat="43.47558" lon="6.3137">
        <ele>161.2</ele>
        <time>2023-03-03T13:18:42Z</time>
      </trkpt>
      <trkpt lat="43.47558" lon="6.31368">
        <ele>161.1</ele>
        <time>2023-03-03T13:18:43Z</time>
      </trkpt>
      <trkpt lat="43.47558" lon="6.31367">
        <ele>161.2</ele>
        <time>2023-03-03T13:18:44Z</time>
      </trkpt>
      <trkpt lat="43.47558" lon="6.31366">
        <ele>161.3</ele>
        <time>2023-03-03T13:18:45Z</time>
      </trkpt>
      <trkpt lat="43.47558" lon="6.31364">
        <ele>161.3</ele>
        <time>2023-03-03T13:18:46Z</time>
      </trkpt>
      <trkpt lat="43.47558" lon="6.31362">
        <ele>161.4</ele>
        <time>2023-03-03T13:18:47Z</time>
      </trkpt>
      <trkpt lat="43.47558" lon="6.31361">
        <ele>161.5</ele>
        <time>2023-03-03T13:18:48Z</time>
      </trkpt>
      <trkpt lat="43.47558" lon="6.3136">
        <ele>161.7</ele>
        <time>2023-03-03T13:18:49Z</time>
      </trkpt>
      <trkpt lat="43.47558" lon="6.31358">
        <ele>161.7</ele>
        <time>2023-03-03T13:18:50Z</time>
      </trkpt>
      <trkpt lat="43.47558" lon="6.31357">
        <ele>161.9</ele>
        <time>2023-03-03T13:18:51Z</time>
      </trkpt>
      <trkpt lat="43.47558" lon="6.31355">
        <ele>162</ele>
        <time>2023-03-03T13:18:52Z</time>
      </trkpt>
      <trkpt lat="43.47557" lon="6.31354">
        <ele>162</ele>
        <time>2023-03-03T13:18:53Z</time>
      </trkpt>
      <trkpt lat="43.47557" lon="6.31352">
        <ele>162.1</ele>
        <time>2023-03-03T13:18:54Z</time>
      </trkpt>
      <trkpt lat="43.47557" lon="6.31351">
        <ele>162.2</ele>
        <time>2023-03-03T13:18:55Z</time>
      </trkpt>
      <trkpt lat="43.47557" lon="6.31349">
        <ele>162.3</ele>
        <time>2023-03-03T13:18:56Z</time>
      </trkpt>
      <trkpt lat="43.47557" lon="6.31348">
        <ele>162.3</ele>
        <time>2023-03-03T13:18:57Z</time>
      </trkpt>
      <trkpt lat="43.47557" lon="6.31346">
        <ele>162.4</ele>
        <time>2023-03-03T13:18:58Z</time>
      </trkpt>
      <trkpt lat="43.47557" lon="6.31345">
        <ele>162.4</ele>
        <time>2023-03-03T13:18:59Z</time>
      </trkpt>
      <trkpt lat="43.47557" lon="6.31343">
        <ele>162.5</ele>
        <time>2023-03-03T13:19:00Z</time>
      </trkpt>
      <trkpt lat="43.47557" lon="6.31342">
        <ele>162.5</ele>
        <time>2023-03-03T13:19:01Z</time>
      </trkpt>
      <trkpt lat="43.47557" lon="6.3134">
        <ele>162.6</ele>
        <time>2023-03-03T13:19:02Z</time>
      </trkpt>
      <trkpt lat="43.47557" lon="6.31338">
        <ele>162.7</ele>
        <time>2023-03-03T13:19:03Z</time>
      </trkpt>
      <trkpt lat="43.47557" lon="6.31337">
        <ele>162.8</ele>
        <time>2023-03-03T13:19:04Z</time>
      </trkpt>
      <trkpt lat="43.47557" lon="6.31335">
        <ele>162.8</ele>
        <time>2023-03-03T13:19:05Z</time>
      </trkpt>
      <trkpt lat="43.47556" lon="6.31334">
        <ele>162.9</ele>
        <time>2023-03-03T13:19:06Z</time>
      </trkpt>
      <trkpt lat="43.47556" lon="6.31332">
        <ele>163</ele>
        <time>2023-03-03T13:19:07Z</time>
      </trkpt>
      <trkpt lat="43.47556" lon="6.31331">
        <ele>163.1</ele>
        <time>2023-03-03T13:19:08Z</time>
      </trkpt>
      <trkpt lat="43.47556" lon="6.31329">
        <ele>163.1</ele>
        <time>2023-03-03T13:19:09Z</time>
      </trkpt>
      <trkpt lat="43.47556" lon="6.31327">
        <ele>163.2</ele>
        <time>2023-03-03T13:19:10Z</time>
      </trkpt>
      <trkpt lat="43.47556" lon="6.31326">
        <ele>163.2</ele>
        <time>2023-03-03T13:19:11Z</time>
      </trkpt>
      <trkpt lat="43.47556" lon="6.31324">
        <ele>163.3</ele>
        <time>2023-03-03T13:19:12Z</time>
      </trkpt>
      <trkpt lat="43.47556" lon="6.31323">
        <ele>163.3</ele>
        <time>2023-03-03T13:19:13Z</time>
      </trkpt>
      <trkpt lat="43.47557" lon="6.31321">
        <ele>163.4</ele>
        <time>2023-03-03T13:19:14Z</time>
      </trkpt>
      <trkpt lat="43.47557" lon="6.3132">
        <ele>163.4</ele>
        <time>2023-03-03T13:19:15Z</time>
      </trkpt>
      <trkpt lat="43.47557" lon="6.31319">
        <ele>163.4</ele>
        <time>2023-03-03T13:19:16Z</time>
      </trkpt>
      <trkpt lat="43.47557" lon="6.31318">
        <ele>163.6</ele>
        <time>2023-03-03T13:19:17Z</time>
      </trkpt>
      <trkpt lat="43.47557" lon="6.31316">
        <ele>163.5</ele>
        <time>2023-03-03T13:19:18Z</time>
      </trkpt>
      <trkpt lat="43.47558" lon="6.31315">
        <ele>163.5</ele>
        <time>2023-03-03T13:19:19Z</time>
      </trkpt>
      <trkpt lat="43.47559" lon="6.31314">
        <ele>163.7</ele>
        <time>2023-03-03T13:19:20Z</time>
      </trkpt>
      <trkpt lat="43.47559" lon="6.31313">
        <ele>163.8</ele>
        <time>2023-03-03T13:19:21Z</time>
      </trkpt>
      <trkpt lat="43.47559" lon="6.31312">
        <ele>163.9</ele>
        <time>2023-03-03T13:19:22Z</time>
      </trkpt>
      <trkpt lat="43.4756" lon="6.31311">
        <ele>163.9</ele>
        <time>2023-03-03T13:19:23Z</time>
      </trkpt>
      <trkpt lat="43.4756" lon="6.31309">
        <ele>163.8</ele>
        <time>2023-03-03T13:19:24Z</time>
      </trkpt>
      <trkpt lat="43.4756" lon="6.31308">
        <ele>163.9</ele>
        <time>2023-03-03T13:19:25Z</time>
      </trkpt>
      <trkpt lat="43.4756" lon="6.31306">
        <ele>164</ele>
        <time>2023-03-03T13:19:26Z</time>
      </trkpt>
      <trkpt lat="43.4756" lon="6.31305">
        <ele>164</ele>
        <time>2023-03-03T13:19:27Z</time>
      </trkpt>
      <trkpt lat="43.4756" lon="6.31304">
        <ele>164</ele>
        <time>2023-03-03T13:19:28Z</time>
      </trkpt>
      <trkpt lat="43.4756" lon="6.31302">
        <ele>164</ele>
        <time>2023-03-03T13:19:29Z</time>
      </trkpt>
      <trkpt lat="43.4756" lon="6.31301">
        <ele>164</ele>
        <time>2023-03-03T13:19:30Z</time>
      </trkpt>
      <trkpt lat="43.47561" lon="6.313">
        <ele>164.1</ele>
        <time>2023-03-03T13:19:31Z</time>
      </trkpt>
      <trkpt lat="43.47561" lon="6.31299">
        <ele>164.1</ele>
        <time>2023-03-03T13:19:32Z</time>
      </trkpt>
      <trkpt lat="43.47561" lon="6.31299">
        <ele>164.2</ele>
        <time>2023-03-03T13:19:33Z</time>
      </trkpt>
      <trkpt lat="43.47561" lon="6.31298">
        <ele>164.2</ele>
        <time>2023-03-03T13:19:34Z</time>
      </trkpt>
      <trkpt lat="43.47561" lon="6.31298">
        <ele>164.3</ele>
        <time>2023-03-03T13:19:35Z</time>
      </trkpt>
      <trkpt lat="43.47561" lon="6.31298">
        <ele>164.3</ele>
        <time>2023-03-03T13:19:36Z</time>
      </trkpt>
      <trkpt lat="43.47561" lon="6.31297">
        <ele>164.4</ele>
        <time>2023-03-03T13:19:37Z</time>
      </trkpt>
      <trkpt lat="43.47561" lon="6.31297">
        <ele>164.4</ele>
        <time>2023-03-03T13:19:38Z</time>
      </trkpt>
      <trkpt lat="43.47561" lon="6.31297">
        <ele>164.5</ele>
        <time>2023-03-03T13:19:39Z</time>
      </trkpt>
      <trkpt lat="43.47561" lon="6.31297">
        <ele>164.6</ele>
        <time>2023-03-03T13:19:40Z</time>
      </trkpt>
      <trkpt lat="43.47561" lon="6.31297">
        <ele>164.6</ele>
        <time>2023-03-03T13:19:41Z</time>
      </trkpt>
      <trkpt lat="43.47561" lon="6.31296">
        <ele>164.6</ele>
        <time>2023-03-03T13:19:42Z</time>
      </trkpt>
      <trkpt lat="43.47561" lon="6.31296">
        <ele>164.6</ele>
        <time>2023-03-03T13:19:43Z</time>
      </trkpt>
      <trkpt lat="43.47561" lon="6.31296">
        <ele>164.5</ele>
        <time>2023-03-03T13:19:44Z</time>
      </trkpt>
      <trkpt lat="43.47561" lon="6.31296">
        <ele>164.5</ele>
        <time>2023-03-03T13:19:45Z</time>
      </trkpt>
      <trkpt lat="43.47561" lon="6.31296">
        <ele>164.5</ele>
        <time>2023-03-03T13:19:46Z</time>
      </trkpt>
      <trkpt lat="43.47561" lon="6.31296">
        <ele>164.4</ele>
        <time>2023-03-03T13:19:47Z</time>
      </trkpt>
      <trkpt lat="43.47561" lon="6.31296">
        <ele>164.4</ele>
        <time>2023-03-03T13:19:48Z</time>
      </trkpt>
      <trkpt lat="43.4756" lon="6.31296">
        <ele>164.4</ele>
        <time>2023-03-03T13:19:49Z</time>
      </trkpt>
      <trkpt lat="43.4756" lon="6.31295">
        <ele>164.4</ele>
        <time>2023-03-03T13:19:50Z</time>
      </trkpt>
      <trkpt lat="43.4756" lon="6.31295">
        <ele>164.4</ele>
        <time>2023-03-03T13:19:51Z</time>
      </trkpt>
      <trkpt lat="43.4756" lon="6.31295">
        <ele>164.4</ele>
        <time>2023-03-03T13:19:52Z</time>
      </trkpt>
      <trkpt lat="43.4756" lon="6.31295">
        <ele>164.5</ele>
        <time>2023-03-03T13:19:53Z</time>
      </trkpt>
      <trkpt lat="43.4756" lon="6.31295">
        <ele>164.5</ele>
        <time>2023-03-03T13:19:54Z</time>
      </trkpt>
      <trkpt lat="43.4756" lon="6.31295">
        <ele>164.5</ele>
        <time>2023-03-03T13:19:55Z</time>
      </trkpt>
      <trkpt lat="43.4756" lon="6.31295">
        <ele>164.5</ele>
        <time>2023-03-03T13:19:56Z</time>
      </trkpt>
      <trkpt lat="43.4756" lon="6.31295">
        <ele>164.5</ele>
        <time>2023-03-03T13:19:57Z</time>
      </trkpt>
      <trkpt lat="43.4756" lon="6.31295">
        <ele>164.5</ele>
        <time>2023-03-03T13:19:58Z</time>
      </trkpt>
      <trkpt lat="43.4756" lon="6.31295">
        <ele>164.5</ele>
        <time>2023-03-03T13:19:59Z</time>
      </trkpt>
      <trkpt lat="43.4756" lon="6.31295">
        <ele>164.5</ele>
        <time>2023-03-03T13:20:00Z</time>
      </trkpt>
      <trkpt lat="43.4756" lon="6.31296">
        <ele>164.4</ele>
        <time>2023-03-03T13:20:01Z</time>
      </trkpt>
      <trkpt lat="43.4756" lon="6.31296">
        <ele>164.4</ele>
        <time>2023-03-03T13:20:02Z</time>
      </trkpt>
      <trkpt lat="43.4756" lon="6.31295">
        <ele>164.4</ele>
        <time>2023-03-03T13:20:03Z</time>
      </trkpt>
      <trkpt lat="43.4756" lon="6.31295">
        <ele>164.4</ele>
        <time>2023-03-03T13:20:04Z</time>
      </trkpt>
      <trkpt lat="43.4756" lon="6.31295">
        <ele>164.4</ele>
        <time>2023-03-03T13:20:05Z</time>
      </trkpt>
      <trkpt lat="43.4756" lon="6.31295">
        <ele>164.4</ele>
        <time>2023-03-03T13:20:06Z</time>
      </trkpt>
      <trkpt lat="43.47561" lon="6.31295">
        <ele>164.4</ele>
        <time>2023-03-03T13:20:07Z</time>
      </trkpt>
      <trkpt lat="43.47561" lon="6.31295">
        <ele>164.5</ele>
        <time>2023-03-03T13:20:08Z</time>
      </trkpt>
      <trkpt lat="43.47561" lon="6.31295">
        <ele>164.5</ele>
        <time>2023-03-03T13:20:09Z</time>
      </trkpt>
      <trkpt lat="43.47561" lon="6.31295">
        <ele>164.5</ele>
        <time>2023-03-03T13:20:10Z</time>
      </trkpt>
      <trkpt lat="43.47561" lon="6.31295">
        <ele>164.6</ele>
        <time>2023-03-03T13:20:11Z</time>
      </trkpt>
      <trkpt lat="43.47561" lon="6.31295">
        <ele>164.6</ele>
        <time>2023-03-03T13:20:12Z</time>
      </trkpt>
      <trkpt lat="43.47561" lon="6.31295">
        <ele>164.5</ele>
        <time>2023-03-03T13:20:13Z</time>
      </trkpt>
      <trkpt lat="43.4756" lon="6.31295">
        <ele>164.5</ele>
        <time>2023-03-03T13:20:14Z</time>
      </trkpt>
      <trkpt lat="43.4756" lon="6.31295">
        <ele>164.4</ele>
        <time>2023-03-03T13:20:15Z</time>
      </trkpt>
      <trkpt lat="43.4756" lon="6.31295">
        <ele>164.4</ele>
        <time>2023-03-03T13:20:16Z</time>
      </trkpt>
      <trkpt lat="43.47561" lon="6.31295">
        <ele>164.4</ele>
        <time>2023-03-03T13:20:17Z</time>
      </trkpt>
      <trkpt lat="43.47562" lon="6.31295">
        <ele>164.4</ele>
        <time>2023-03-03T13:20:18Z</time>
      </trkpt>
      <trkpt lat="43.47562" lon="6.31295">
        <ele>164.4</ele>
        <time>2023-03-03T13:20:19Z</time>
      </trkpt>
      <trkpt lat="43.47563" lon="6.31295">
        <ele>164.4</ele>
        <time>2023-03-03T13:20:20Z</time>
      </trkpt>
      <trkpt lat="43.47563" lon="6.31295">
        <ele>164.4</ele>
        <time>2023-03-03T13:20:21Z</time>
      </trkpt>
      <trkpt lat="43.47563" lon="6.31295">
        <ele>164.4</ele>
        <time>2023-03-03T13:20:22Z</time>
      </trkpt>
      <trkpt lat="43.47564" lon="6.31295">
        <ele>164.5</ele>
        <time>2023-03-03T13:20:23Z</time>
      </trkpt>
      <trkpt lat="43.47564" lon="6.31294">
        <ele>164.5</ele>
        <time>2023-03-03T13:20:24Z</time>
      </trkpt>
      <trkpt lat="43.47564" lon="6.31294">
        <ele>164.5</ele>
        <time>2023-03-03T13:20:25Z</time>
      </trkpt>
      <trkpt lat="43.47564" lon="6.31294">
        <ele>164.5</ele>
        <time>2023-03-03T13:20:26Z</time>
      </trkpt>
      <trkpt lat="43.47564" lon="6.31293">
        <ele>164.6</ele>
        <time>2023-03-03T13:20:27Z</time>
      </trkpt>
      <trkpt lat="43.47565" lon="6.31292">
        <ele>164.7</ele>
        <time>2023-03-03T13:20:28Z</time>
      </trkpt>
      <trkpt lat="43.47565" lon="6.31291">
        <ele>164.8</ele>
        <time>2023-03-03T13:20:29Z</time>
      </trkpt>
      <trkpt lat="43.47565" lon="6.3129">
        <ele>164.8</ele>
        <time>2023-03-03T13:20:30Z</time>
      </trkpt>
      <trkpt lat="43.47565" lon="6.31289">
        <ele>164.8</ele>
        <time>2023-03-03T13:20:31Z</time>
      </trkpt>
      <trkpt lat="43.47565" lon="6.31288">
        <ele>164.8</ele>
        <time>2023-03-03T13:20:32Z</time>
      </trkpt>
      <trkpt lat="43.47566" lon="6.31287">
        <ele>164.8</ele>
        <time>2023-03-03T13:20:33Z</time>
      </trkpt>
      <trkpt lat="43.47566" lon="6.31286">
        <ele>164.9</ele>
        <time>2023-03-03T13:20:34Z</time>
      </trkpt>
      <trkpt lat="43.47566" lon="6.31285">
        <ele>164.9</ele>
        <time>2023-03-03T13:20:35Z</time>
      </trkpt>
      <trkpt lat="43.47566" lon="6.31284">
        <ele>165</ele>
        <time>2023-03-03T13:20:36Z</time>
      </trkpt>
      <trkpt lat="43.47566" lon="6.31283">
        <ele>165</ele>
        <time>2023-03-03T13:20:37Z</time>
      </trkpt>
      <trkpt lat="43.47567" lon="6.31282">
        <ele>165.1</ele>
        <time>2023-03-03T13:20:38Z</time>
      </trkpt>
      <trkpt lat="43.47567" lon="6.31281">
        <ele>165</ele>
        <time>2023-03-03T13:20:39Z</time>
      </trkpt>
      <trkpt lat="43.47567" lon="6.3128">
        <ele>165.1</ele>
        <time>2023-03-03T13:20:40Z</time>
      </trkpt>
      <trkpt lat="43.47568" lon="6.3128">
        <ele>165.1</ele>
        <time>2023-03-03T13:20:41Z</time>
      </trkpt>
      <trkpt lat="43.47568" lon="6.31279">
        <ele>165</ele>
        <time>2023-03-03T13:20:42Z</time>
      </trkpt>
      <trkpt lat="43.47568" lon="6.31278">
        <ele>165</ele>
        <time>2023-03-03T13:20:43Z</time>
      </trkpt>
      <trkpt lat="43.47569" lon="6.31278">
        <ele>164.9</ele>
        <time>2023-03-03T13:20:44Z</time>
      </trkpt>
      <trkpt lat="43.47569" lon="6.31277">
        <ele>164.9</ele>
        <time>2023-03-03T13:20:45Z</time>
      </trkpt>
      <trkpt lat="43.4757" lon="6.31276">
        <ele>165</ele>
        <time>2023-03-03T13:20:46Z</time>
      </trkpt>
      <trkpt lat="43.47571" lon="6.31276">
        <ele>164.8</ele>
        <time>2023-03-03T13:20:47Z</time>
      </trkpt>
      <trkpt lat="43.47571" lon="6.31275">
        <ele>164.8</ele>
        <time>2023-03-03T13:20:48Z</time>
      </trkpt>
      <trkpt lat="43.47572" lon="6.31275">
        <ele>164.7</ele>
        <time>2023-03-03T13:20:49Z</time>
      </trkpt>
      <trkpt lat="43.47573" lon="6.31274">
        <ele>164.6</ele>
        <time>2023-03-03T13:20:50Z</time>
      </trkpt>
      <trkpt lat="43.47574" lon="6.31273">
        <ele>164.6</ele>
        <time>2023-03-03T13:20:51Z</time>
      </trkpt>
      <trkpt lat="43.47574" lon="6.31273">
        <ele>164.5</ele>
        <time>2023-03-03T13:20:52Z</time>
      </trkpt>
      <trkpt lat="43.47575" lon="6.31273">
        <ele>164.5</ele>
        <time>2023-03-03T13:20:53Z</time>
      </trkpt>
      <trkpt lat="43.47575" lon="6.31272">
        <ele>164.4</ele>
        <time>2023-03-03T13:20:54Z</time>
      </trkpt>
      <trkpt lat="43.47576" lon="6.31272">
        <ele>164.4</ele>
        <time>2023-03-03T13:20:55Z</time>
      </trkpt>
      <trkpt lat="43.47577" lon="6.31272">
        <ele>164.3</ele>
        <time>2023-03-03T13:20:56Z</time>
      </trkpt>
      <trkpt lat="43.47577" lon="6.31272">
        <ele>164.3</ele>
        <time>2023-03-03T13:20:57Z</time>
      </trkpt>
      <trkpt lat="43.47578" lon="6.31271">
        <ele>164.3</ele>
        <time>2023-03-03T13:20:58Z</time>
      </trkpt>
      <trkpt lat="43.47578" lon="6.3127">
        <ele>164.3</ele>
        <time>2023-03-03T13:20:59Z</time>
      </trkpt>
      <trkpt lat="43.47579" lon="6.3127">
        <ele>164.3</ele>
        <time>2023-03-03T13:21:00Z</time>
      </trkpt>
      <trkpt lat="43.4758" lon="6.31269">
        <ele>164.2</ele>
        <time>2023-03-03T13:21:01Z</time>
      </trkpt>
      <trkpt lat="43.47581" lon="6.31268">
        <ele>164.2</ele>
        <time>2023-03-03T13:21:02Z</time>
      </trkpt>
      <trkpt lat="43.47581" lon="6.31268">
        <ele>164.2</ele>
        <time>2023-03-03T13:21:03Z</time>
      </trkpt>
      <trkpt lat="43.47582" lon="6.31267">
        <ele>164.1</ele>
        <time>2023-03-03T13:21:04Z</time>
      </trkpt>
      <trkpt lat="43.47583" lon="6.31267">
        <ele>164</ele>
        <time>2023-03-03T13:21:05Z</time>
      </trkpt>
      <trkpt lat="43.47583" lon="6.31266">
        <ele>164</ele>
        <time>2023-03-03T13:21:06Z</time>
      </trkpt>
      <trkpt lat="43.47584" lon="6.31265">
        <ele>163.9</ele>
        <time>2023-03-03T13:21:07Z</time>
      </trkpt>
      <trkpt lat="43.47584" lon="6.31264">
        <ele>163.9</ele>
        <time>2023-03-03T13:21:08Z</time>
      </trkpt>
      <trkpt lat="43.47585" lon="6.31263">
        <ele>163.9</ele>
        <time>2023-03-03T13:21:09Z</time>
      </trkpt>
      <trkpt lat="43.47585" lon="6.31262">
        <ele>163.9</ele>
        <time>2023-03-03T13:21:10Z</time>
      </trkpt>
      <trkpt lat="43.47586" lon="6.31262">
        <ele>163.9</ele>
        <time>2023-03-03T13:21:11Z</time>
      </trkpt>
      <trkpt lat="43.47586" lon="6.31262">
        <ele>163.9</ele>
        <time>2023-03-03T13:21:12Z</time>
      </trkpt>
      <trkpt lat="43.47587" lon="6.31261">
        <ele>163.8</ele>
        <time>2023-03-03T13:21:13Z</time>
      </trkpt>
      <trkpt lat="43.47587" lon="6.31259">
        <ele>163.8</ele>
        <time>2023-03-03T13:21:14Z</time>
      </trkpt>
      <trkpt lat="43.47588" lon="6.31259">
        <ele>163.7</ele>
        <time>2023-03-03T13:21:15Z</time>
      </trkpt>
      <trkpt lat="43.47589" lon="6.31258">
        <ele>163.7</ele>
        <time>2023-03-03T13:21:16Z</time>
      </trkpt>
      <trkpt lat="43.47589" lon="6.31258">
        <ele>163.6</ele>
        <time>2023-03-03T13:21:17Z</time>
      </trkpt>
      <trkpt lat="43.4759" lon="6.31257">
        <ele>163.6</ele>
        <time>2023-03-03T13:21:18Z</time>
      </trkpt>
      <trkpt lat="43.4759" lon="6.31256">
        <ele>163.5</ele>
        <time>2023-03-03T13:21:19Z</time>
      </trkpt>
      <trkpt lat="43.47591" lon="6.31256">
        <ele>163.5</ele>
        <time>2023-03-03T13:21:20Z</time>
      </trkpt>
      <trkpt lat="43.47592" lon="6.31256">
        <ele>163.5</ele>
        <time>2023-03-03T13:21:21Z</time>
      </trkpt>
      <trkpt lat="43.47592" lon="6.31255">
        <ele>163.5</ele>
        <time>2023-03-03T13:21:22Z</time>
      </trkpt>
      <trkpt lat="43.47592" lon="6.31254">
        <ele>163.5</ele>
        <time>2023-03-03T13:21:23Z</time>
      </trkpt>
      <trkpt lat="43.47593" lon="6.31254">
        <ele>163.5</ele>
        <time>2023-03-03T13:21:24Z</time>
      </trkpt>
      <trkpt lat="43.47593" lon="6.31254">
        <ele>163.4</ele>
        <time>2023-03-03T13:21:25Z</time>
      </trkpt>
      <trkpt lat="43.47594" lon="6.31253">
        <ele>163.4</ele>
        <time>2023-03-03T13:21:26Z</time>
      </trkpt>
      <trkpt lat="43.47594" lon="6.31253">
        <ele>163.4</ele>
        <time>2023-03-03T13:21:27Z</time>
      </trkpt>
      <trkpt lat="43.47594" lon="6.31253">
        <ele>163.5</ele>
        <time>2023-03-03T13:21:28Z</time>
      </trkpt>
      <trkpt lat="43.47595" lon="6.31253">
        <ele>163.5</ele>
        <time>2023-03-03T13:21:29Z</time>
      </trkpt>
      <trkpt lat="43.47595" lon="6.31253">
        <ele>163.5</ele>
        <time>2023-03-03T13:21:30Z</time>
      </trkpt>
      <trkpt lat="43.47595" lon="6.31253">
        <ele>163.5</ele>
        <time>2023-03-03T13:21:31Z</time>
      </trkpt>
      <trkpt lat="43.47596" lon="6.31253">
        <ele>163.5</ele>
        <time>2023-03-03T13:21:32Z</time>
      </trkpt>
      <trkpt lat="43.47596" lon="6.31253">
        <ele>163.4</ele>
        <time>2023-03-03T13:21:33Z</time>
      </trkpt>
      <trkpt lat="43.47597" lon="6.31253">
        <ele>163.4</ele>
        <time>2023-03-03T13:21:34Z</time>
      </trkpt>
      <trkpt lat="43.47597" lon="6.31253">
        <ele>163.3</ele>
        <time>2023-03-03T13:21:35Z</time>
      </trkpt>
      <trkpt lat="43.47597" lon="6.31252">
        <ele>163.3</ele>
        <time>2023-03-03T13:21:36Z</time>
      </trkpt>
      <trkpt lat="43.47598" lon="6.31252">
        <ele>163.3</ele>
        <time>2023-03-03T13:21:37Z</time>
      </trkpt>
      <trkpt lat="43.47599" lon="6.31252">
        <ele>163.2</ele>
        <time>2023-03-03T13:21:38Z</time>
      </trkpt>
      <trkpt lat="43.476" lon="6.31252">
        <ele>163.2</ele>
        <time>2023-03-03T13:21:39Z</time>
      </trkpt>
      <trkpt lat="43.476" lon="6.31252">
        <ele>163.2</ele>
        <time>2023-03-03T13:21:40Z</time>
      </trkpt>
      <trkpt lat="43.476" lon="6.31252">
        <ele>163.1</ele>
        <time>2023-03-03T13:21:41Z</time>
      </trkpt>
      <trkpt lat="43.47601" lon="6.31252">
        <ele>163</ele>
        <time>2023-03-03T13:21:42Z</time>
      </trkpt>
      <trkpt lat="43.47601" lon="6.31252">
        <ele>163</ele>
        <time>2023-03-03T13:21:43Z</time>
      </trkpt>
      <trkpt lat="43.47601" lon="6.31251">
        <ele>163</ele>
        <time>2023-03-03T13:21:44Z</time>
      </trkpt>
      <trkpt lat="43.47601" lon="6.31251">
        <ele>163</ele>
        <time>2023-03-03T13:21:45Z</time>
      </trkpt>
      <trkpt lat="43.47602" lon="6.31251">
        <ele>163</ele>
        <time>2023-03-03T13:21:46Z</time>
      </trkpt>
      <trkpt lat="43.47602" lon="6.31251">
        <ele>163</ele>
        <time>2023-03-03T13:21:47Z</time>
      </trkpt>
      <trkpt lat="43.47602" lon="6.31251">
        <ele>163</ele>
        <time>2023-03-03T13:21:48Z</time>
      </trkpt>
      <trkpt lat="43.47602" lon="6.31251">
        <ele>163</ele>
        <time>2023-03-03T13:21:49Z</time>
      </trkpt>
      <trkpt lat="43.47602" lon="6.31251">
        <ele>162.9</ele>
        <time>2023-03-03T13:21:50Z</time>
      </trkpt>
      <trkpt lat="43.47603" lon="6.31251">
        <ele>162.9</ele>
        <time>2023-03-03T13:21:51Z</time>
      </trkpt>
      <trkpt lat="43.47603" lon="6.31251">
        <ele>162.8</ele>
        <time>2023-03-03T13:21:52Z</time>
      </trkpt>
      <trkpt lat="43.47603" lon="6.31251">
        <ele>162.8</ele>
        <time>2023-03-03T13:21:53Z</time>
      </trkpt>
      <trkpt lat="43.47604" lon="6.31251">
        <ele>162.8</ele>
        <time>2023-03-03T13:21:54Z</time>
      </trkpt>
      <trkpt lat="43.47604" lon="6.31251">
        <ele>162.9</ele>
        <time>2023-03-03T13:21:55Z</time>
      </trkpt>
      <trkpt lat="43.47605" lon="6.31251">
        <ele>162.9</ele>
        <time>2023-03-03T13:21:56Z</time>
      </trkpt>
      <trkpt lat="43.47605" lon="6.3125">
        <ele>162.9</ele>
        <time>2023-03-03T13:21:57Z</time>
      </trkpt>
      <trkpt lat="43.47605" lon="6.31249">
        <ele>163</ele>
        <time>2023-03-03T13:21:58Z</time>
      </trkpt>
      <trkpt lat="43.47605" lon="6.31248">
        <ele>163.1</ele>
        <time>2023-03-03T13:21:59Z</time>
      </trkpt>
      <trkpt lat="43.47604" lon="6.31247">
        <ele>163.1</ele>
        <time>2023-03-03T13:22:00Z</time>
      </trkpt>
      <trkpt lat="43.47604" lon="6.31247">
        <ele>163.2</ele>
        <time>2023-03-03T13:22:01Z</time>
      </trkpt>
      <trkpt lat="43.47604" lon="6.31246">
        <ele>163.2</ele>
        <time>2023-03-03T13:22:02Z</time>
      </trkpt>
      <trkpt lat="43.47603" lon="6.31245">
        <ele>163.3</ele>
        <time>2023-03-03T13:22:03Z</time>
      </trkpt>
      <trkpt lat="43.47602" lon="6.31245">
        <ele>163.3</ele>
        <time>2023-03-03T13:22:04Z</time>
      </trkpt>
      <trkpt lat="43.47602" lon="6.31244">
        <ele>163.4</ele>
        <time>2023-03-03T13:22:05Z</time>
      </trkpt>
      <trkpt lat="43.47602" lon="6.31244">
        <ele>163.5</ele>
        <time>2023-03-03T13:22:06Z</time>
      </trkpt>
      <trkpt lat="43.47601" lon="6.31243">
        <ele>163.7</ele>
        <time>2023-03-03T13:22:07Z</time>
      </trkpt>
      <trkpt lat="43.47601" lon="6.31242">
        <ele>163.8</ele>
        <time>2023-03-03T13:22:08Z</time>
      </trkpt>
      <trkpt lat="43.476" lon="6.31241">
        <ele>163.9</ele>
        <time>2023-03-03T13:22:09Z</time>
      </trkpt>
      <trkpt lat="43.476" lon="6.3124">
        <ele>164</ele>
        <time>2023-03-03T13:22:10Z</time>
      </trkpt>
      <trkpt lat="43.47601" lon="6.31238">
        <ele>164.1</ele>
        <time>2023-03-03T13:22:11Z</time>
      </trkpt>
      <trkpt lat="43.47601" lon="6.31237">
        <ele>164.1</ele>
        <time>2023-03-03T13:22:12Z</time>
      </trkpt>
      <trkpt lat="43.47601" lon="6.31236">
        <ele>164.2</ele>
        <time>2023-03-03T13:22:13Z</time>
      </trkpt>
      <trkpt lat="43.47601" lon="6.31235">
        <ele>164.2</ele>
        <time>2023-03-03T13:22:14Z</time>
      </trkpt>
      <trkpt lat="43.47601" lon="6.31233">
        <ele>164.3</ele>
        <time>2023-03-03T13:22:15Z</time>
      </trkpt>
      <trkpt lat="43.47601" lon="6.31232">
        <ele>164.3</ele>
        <time>2023-03-03T13:22:16Z</time>
      </trkpt>
      <trkpt lat="43.47601" lon="6.31231">
        <ele>164.3</ele>
        <time>2023-03-03T13:22:17Z</time>
      </trkpt>
      <trkpt lat="43.47602" lon="6.3123">
        <ele>164.4</ele>
        <time>2023-03-03T13:22:18Z</time>
      </trkpt>
      <trkpt lat="43.47602" lon="6.31229">
        <ele>164.4</ele>
        <time>2023-03-03T13:22:19Z</time>
      </trkpt>
      <trkpt lat="43.47602" lon="6.31228">
        <ele>164.5</ele>
        <time>2023-03-03T13:22:20Z</time>
      </trkpt>
      <trkpt lat="43.47603" lon="6.31227">
        <ele>164.4</ele>
        <time>2023-03-03T13:22:21Z</time>
      </trkpt>
      <trkpt lat="43.47603" lon="6.31226">
        <ele>164.4</ele>
        <time>2023-03-03T13:22:22Z</time>
      </trkpt>
      <trkpt lat="43.47604" lon="6.31224">
        <ele>164.4</ele>
        <time>2023-03-03T13:22:23Z</time>
      </trkpt>
      <trkpt lat="43.47604" lon="6.31223">
        <ele>164.5</ele>
        <time>2023-03-03T13:22:24Z</time>
      </trkpt>
      <trkpt lat="43.47605" lon="6.31222">
        <ele>164.5</ele>
        <time>2023-03-03T13:22:25Z</time>
      </trkpt>
      <trkpt lat="43.47606" lon="6.31221">
        <ele>164.5</ele>
        <time>2023-03-03T13:22:26Z</time>
      </trkpt>
      <trkpt lat="43.47606" lon="6.31219">
        <ele>164.5</ele>
        <time>2023-03-03T13:22:27Z</time>
      </trkpt>
      <trkpt lat="43.47606" lon="6.31218">
        <ele>164.5</ele>
        <time>2023-03-03T13:22:28Z</time>
      </trkpt>
      <trkpt lat="43.47607" lon="6.31217">
        <ele>164.6</ele>
        <time>2023-03-03T13:22:29Z</time>
      </trkpt>
      <trkpt lat="43.47607" lon="6.31216">
        <ele>164.6</ele>
        <time>2023-03-03T13:22:30Z</time>
      </trkpt>
      <trkpt lat="43.47608" lon="6.31215">
        <ele>164.6</ele>
        <time>2023-03-03T13:22:31Z</time>
      </trkpt>
      <trkpt lat="43.47608" lon="6.31213">
        <ele>164.7</ele>
        <time>2023-03-03T13:22:32Z</time>
      </trkpt>
      <trkpt lat="43.47609" lon="6.31212">
        <ele>164.6</ele>
        <time>2023-03-03T13:22:33Z</time>
      </trkpt>
      <trkpt lat="43.4761" lon="6.31211">
        <ele>164.6</ele>
        <time>2023-03-03T13:22:34Z</time>
      </trkpt>
      <trkpt lat="43.4761" lon="6.3121">
        <ele>164.7</ele>
        <time>2023-03-03T13:22:35Z</time>
      </trkpt>
      <trkpt lat="43.4761" lon="6.3121">
        <ele>164.6</ele>
        <time>2023-03-03T13:22:36Z</time>
      </trkpt>
      <trkpt lat="43.47611" lon="6.31209">
        <ele>164.7</ele>
        <time>2023-03-03T13:22:37Z</time>
      </trkpt>
      <trkpt lat="43.47612" lon="6.31208">
        <ele>164.7</ele>
        <time>2023-03-03T13:22:38Z</time>
      </trkpt>
      <trkpt lat="43.47612" lon="6.31207">
        <ele>164.7</ele>
        <time>2023-03-03T13:22:39Z</time>
      </trkpt>
      <trkpt lat="43.47613" lon="6.31206">
        <ele>164.7</ele>
        <time>2023-03-03T13:22:40Z</time>
      </trkpt>
      <trkpt lat="43.47613" lon="6.31205">
        <ele>164.8</ele>
        <time>2023-03-03T13:22:41Z</time>
      </trkpt>
      <trkpt lat="43.47614" lon="6.31204">
        <ele>164.8</ele>
        <time>2023-03-03T13:22:42Z</time>
      </trkpt>
      <trkpt lat="43.47614" lon="6.31203">
        <ele>164.8</ele>
        <time>2023-03-03T13:22:43Z</time>
      </trkpt>
      <trkpt lat="43.47615" lon="6.31202">
        <ele>164.8</ele>
        <time>2023-03-03T13:22:44Z</time>
      </trkpt>
      <trkpt lat="43.47615" lon="6.31201">
        <ele>164.8</ele>
        <time>2023-03-03T13:22:45Z</time>
      </trkpt>
      <trkpt lat="43.47615" lon="6.312">
        <ele>164.9</ele>
        <time>2023-03-03T13:22:46Z</time>
      </trkpt>
      <trkpt lat="43.47616" lon="6.31198">
        <ele>164.9</ele>
        <time>2023-03-03T13:22:47Z</time>
      </trkpt>
      <trkpt lat="43.47616" lon="6.31197">
        <ele>164.8</ele>
        <time>2023-03-03T13:22:48Z</time>
      </trkpt>
      <trkpt lat="43.47617" lon="6.31197">
        <ele>164.7</ele>
        <time>2023-03-03T13:22:49Z</time>
      </trkpt>
      <trkpt lat="43.47618" lon="6.31196">
        <ele>164.7</ele>
        <time>2023-03-03T13:22:50Z</time>
      </trkpt>
      <trkpt lat="43.47618" lon="6.31195">
        <ele>164.7</ele>
        <time>2023-03-03T13:22:51Z</time>
      </trkpt>
      <trkpt lat="43.47619" lon="6.31194">
        <ele>164.7</ele>
        <time>2023-03-03T13:22:52Z</time>
      </trkpt>
      <trkpt lat="43.4762" lon="6.31193">
        <ele>164.8</ele>
        <time>2023-03-03T13:22:53Z</time>
      </trkpt>
      <trkpt lat="43.4762" lon="6.31192">
        <ele>164.7</ele>
        <time>2023-03-03T13:22:54Z</time>
      </trkpt>
      <trkpt lat="43.47621" lon="6.31191">
        <ele>164.6</ele>
        <time>2023-03-03T13:22:55Z</time>
      </trkpt>
      <trkpt lat="43.47622" lon="6.3119">
        <ele>164.7</ele>
        <time>2023-03-03T13:22:56Z</time>
      </trkpt>
      <trkpt lat="43.47622" lon="6.31189">
        <ele>164.8</ele>
        <time>2023-03-03T13:22:57Z</time>
      </trkpt>
      <trkpt lat="43.47622" lon="6.31187">
        <ele>164.8</ele>
        <time>2023-03-03T13:22:58Z</time>
      </trkpt>
      <trkpt lat="43.47623" lon="6.31186">
        <ele>164.8</ele>
        <time>2023-03-03T13:22:59Z</time>
      </trkpt>
      <trkpt lat="43.47624" lon="6.31185">
        <ele>164.8</ele>
        <time>2023-03-03T13:23:00Z</time>
      </trkpt>
      <trkpt lat="43.47624" lon="6.31184">
        <ele>164.8</ele>
        <time>2023-03-03T13:23:01Z</time>
      </trkpt>
      <trkpt lat="43.47625" lon="6.31183">
        <ele>164.8</ele>
        <time>2023-03-03T13:23:02Z</time>
      </trkpt>
      <trkpt lat="43.47625" lon="6.31181">
        <ele>164.8</ele>
        <time>2023-03-03T13:23:03Z</time>
      </trkpt>
      <trkpt lat="43.47625" lon="6.3118">
        <ele>164.7</ele>
        <time>2023-03-03T13:23:04Z</time>
      </trkpt>
      <trkpt lat="43.47626" lon="6.31179">
        <ele>164.6</ele>
        <time>2023-03-03T13:23:05Z</time>
      </trkpt>
      <trkpt lat="43.47627" lon="6.31178">
        <ele>164.6</ele>
        <time>2023-03-03T13:23:06Z</time>
      </trkpt>
      <trkpt lat="43.47627" lon="6.31176">
        <ele>164.6</ele>
        <time>2023-03-03T13:23:07Z</time>
      </trkpt>
      <trkpt lat="43.47627" lon="6.31175">
        <ele>164.6</ele>
        <time>2023-03-03T13:23:08Z</time>
      </trkpt>
      <trkpt lat="43.47628" lon="6.31173">
        <ele>164.7</ele>
        <time>2023-03-03T13:23:09Z</time>
      </trkpt>
      <trkpt lat="43.47628" lon="6.31172">
        <ele>164.7</ele>
        <time>2023-03-03T13:23:10Z</time>
      </trkpt>
      <trkpt lat="43.47629" lon="6.31171">
        <ele>164.8</ele>
        <time>2023-03-03T13:23:11Z</time>
      </trkpt>
      <trkpt lat="43.4763" lon="6.31169">
        <ele>164.8</ele>
        <time>2023-03-03T13:23:12Z</time>
      </trkpt>
      <trkpt lat="43.4763" lon="6.31168">
        <ele>164.7</ele>
        <time>2023-03-03T13:23:13Z</time>
      </trkpt>
      <trkpt lat="43.4763" lon="6.31167">
        <ele>164.7</ele>
        <time>2023-03-03T13:23:14Z</time>
      </trkpt>
      <trkpt lat="43.47631" lon="6.31166">
        <ele>164.7</ele>
        <time>2023-03-03T13:23:15Z</time>
      </trkpt>
      <trkpt lat="43.47631" lon="6.31164">
        <ele>164.7</ele>
        <time>2023-03-03T13:23:16Z</time>
      </trkpt>
      <trkpt lat="43.47632" lon="6.31163">
        <ele>164.8</ele>
        <time>2023-03-03T13:23:17Z</time>
      </trkpt>
      <trkpt lat="43.47632" lon="6.31162">
        <ele>164.8</ele>
        <time>2023-03-03T13:23:18Z</time>
      </trkpt>
      <trkpt lat="43.47633" lon="6.3116">
        <ele>164.8</ele>
        <time>2023-03-03T13:23:19Z</time>
      </trkpt>
      <trkpt lat="43.47633" lon="6.31159">
        <ele>164.8</ele>
        <time>2023-03-03T13:23:20Z</time>
      </trkpt>
      <trkpt lat="43.47634" lon="6.31158">
        <ele>164.8</ele>
        <time>2023-03-03T13:23:21Z</time>
      </trkpt>
      <trkpt lat="43.47634" lon="6.31157">
        <ele>164.8</ele>
        <time>2023-03-03T13:23:22Z</time>
      </trkpt>
      <trkpt lat="43.47635" lon="6.31155">
        <ele>164.8</ele>
        <time>2023-03-03T13:23:23Z</time>
      </trkpt>
      <trkpt lat="43.47635" lon="6.31154">
        <ele>164.8</ele>
        <time>2023-03-03T13:23:24Z</time>
      </trkpt>
      <trkpt lat="43.47635" lon="6.31152">
        <ele>164.8</ele>
        <time>2023-03-03T13:23:25Z</time>
      </trkpt>
      <trkpt lat="43.47636" lon="6.31151">
        <ele>164.8</ele>
        <time>2023-03-03T13:23:26Z</time>
      </trkpt>
      <trkpt lat="43.47636" lon="6.3115">
        <ele>164.9</ele>
        <time>2023-03-03T13:23:27Z</time>
      </trkpt>
      <trkpt lat="43.47637" lon="6.31149">
        <ele>165</ele>
        <time>2023-03-03T13:23:28Z</time>
      </trkpt>
      <trkpt lat="43.47637" lon="6.31147">
        <ele>165</ele>
        <time>2023-03-03T13:23:29Z</time>
      </trkpt>
      <trkpt lat="43.47637" lon="6.31146">
        <ele>165.1</ele>
        <time>2023-03-03T13:23:30Z</time>
      </trkpt>
      <trkpt lat="43.47638" lon="6.31145">
        <ele>165.2</ele>
        <time>2023-03-03T13:23:31Z</time>
      </trkpt>
      <trkpt lat="43.47638" lon="6.31144">
        <ele>165.3</ele>
        <time>2023-03-03T13:23:32Z</time>
      </trkpt>
      <trkpt lat="43.47639" lon="6.31142">
        <ele>165.3</ele>
        <time>2023-03-03T13:23:33Z</time>
      </trkpt>
      <trkpt lat="43.47639" lon="6.31141">
        <ele>165.3</ele>
        <time>2023-03-03T13:23:34Z</time>
      </trkpt>
      <trkpt lat="43.47639" lon="6.31139">
        <ele>165.4</ele>
        <time>2023-03-03T13:23:35Z</time>
      </trkpt>
      <trkpt lat="43.4764" lon="6.31138">
        <ele>165.5</ele>
        <time>2023-03-03T13:23:36Z</time>
      </trkpt>
      <trkpt lat="43.4764" lon="6.31136">
        <ele>165.5</ele>
        <time>2023-03-03T13:23:37Z</time>
      </trkpt>
      <trkpt lat="43.47641" lon="6.31135">
        <ele>165.5</ele>
        <time>2023-03-03T13:23:38Z</time>
      </trkpt>
      <trkpt lat="43.47642" lon="6.31134">
        <ele>165.6</ele>
        <time>2023-03-03T13:23:39Z</time>
      </trkpt>
      <trkpt lat="43.47642" lon="6.31132">
        <ele>165.7</ele>
        <time>2023-03-03T13:23:40Z</time>
      </trkpt>
      <trkpt lat="43.47643" lon="6.31131">
        <ele>165.7</ele>
        <time>2023-03-03T13:23:41Z</time>
      </trkpt>
      <trkpt lat="43.47643" lon="6.31129">
        <ele>165.7</ele>
        <time>2023-03-03T13:23:42Z</time>
      </trkpt>
      <trkpt lat="43.47644" lon="6.31128">
        <ele>165.7</ele>
        <time>2023-03-03T13:23:43Z</time>
      </trkpt>
      <trkpt lat="43.47644" lon="6.31126">
        <ele>165.7</ele>
        <time>2023-03-03T13:23:44Z</time>
      </trkpt>
      <trkpt lat="43.47644" lon="6.31125">
        <ele>165.7</ele>
        <time>2023-03-03T13:23:45Z</time>
      </trkpt>
      <trkpt lat="43.47645" lon="6.31123">
        <ele>165.8</ele>
        <time>2023-03-03T13:23:46Z</time>
      </trkpt>
      <trkpt lat="43.47645" lon="6.31122">
        <ele>165.9</ele>
        <time>2023-03-03T13:23:47Z</time>
      </trkpt>
      <trkpt lat="43.47646" lon="6.3112">
        <ele>165.9</ele>
        <time>2023-03-03T13:23:48Z</time>
      </trkpt>
      <trkpt lat="43.47646" lon="6.31119">
        <ele>165.9</ele>
        <time>2023-03-03T13:23:49Z</time>
      </trkpt>
      <trkpt lat="43.47646" lon="6.31118">
        <ele>165.9</ele>
        <time>2023-03-03T13:23:50Z</time>
      </trkpt>
      <trkpt lat="43.47647" lon="6.31116">
        <ele>165.9</ele>
        <time>2023-03-03T13:23:51Z</time>
      </trkpt>
      <trkpt lat="43.47647" lon="6.31115">
        <ele>165.9</ele>
        <time>2023-03-03T13:23:52Z</time>
      </trkpt>
      <trkpt lat="43.47647" lon="6.31113">
        <ele>165.9</ele>
        <time>2023-03-03T13:23:53Z</time>
      </trkpt>
      <trkpt lat="43.47647" lon="6.31112">
        <ele>165.9</ele>
        <time>2023-03-03T13:23:54Z</time>
      </trkpt>
      <trkpt lat="43.47648" lon="6.31111">
        <ele>166</ele>
        <time>2023-03-03T13:23:55Z</time>
      </trkpt>
      <trkpt lat="43.47648" lon="6.31109">
        <ele>166</ele>
        <time>2023-03-03T13:23:56Z</time>
      </trkpt>
      <trkpt lat="43.47649" lon="6.31108">
        <ele>166</ele>
        <time>2023-03-03T13:23:57Z</time>
      </trkpt>
      <trkpt lat="43.47649" lon="6.31107">
        <ele>166.1</ele>
        <time>2023-03-03T13:23:58Z</time>
      </trkpt>
      <trkpt lat="43.47649" lon="6.31105">
        <ele>166.1</ele>
        <time>2023-03-03T13:23:59Z</time>
      </trkpt>
      <trkpt lat="43.4765" lon="6.31104">
        <ele>166.2</ele>
        <time>2023-03-03T13:24:00Z</time>
      </trkpt>
      <trkpt lat="43.4765" lon="6.31103">
        <ele>166.3</ele>
        <time>2023-03-03T13:24:01Z</time>
      </trkpt>
      <trkpt lat="43.47651" lon="6.31101">
        <ele>166.4</ele>
        <time>2023-03-03T13:24:02Z</time>
      </trkpt>
      <trkpt lat="43.47651" lon="6.311">
        <ele>166.4</ele>
        <time>2023-03-03T13:24:03Z</time>
      </trkpt>
      <trkpt lat="43.47651" lon="6.31099">
        <ele>166.4</ele>
        <time>2023-03-03T13:24:04Z</time>
      </trkpt>
      <trkpt lat="43.47652" lon="6.31097">
        <ele>166.4</ele>
        <time>2023-03-03T13:24:05Z</time>
      </trkpt>
      <trkpt lat="43.47652" lon="6.31096">
        <ele>166.4</ele>
        <time>2023-03-03T13:24:06Z</time>
      </trkpt>
      <trkpt lat="43.47652" lon="6.31095">
        <ele>166.4</ele>
        <time>2023-03-03T13:24:07Z</time>
      </trkpt>
      <trkpt lat="43.47653" lon="6.31094">
        <ele>166.4</ele>
        <time>2023-03-03T13:24:08Z</time>
      </trkpt>
      <trkpt lat="43.47653" lon="6.31092">
        <ele>166.4</ele>
        <time>2023-03-03T13:24:09Z</time>
      </trkpt>
      <trkpt lat="43.47654" lon="6.31091">
        <ele>166.5</ele>
        <time>2023-03-03T13:24:10Z</time>
      </trkpt>
      <trkpt lat="43.47654" lon="6.3109">
        <ele>166.5</ele>
        <time>2023-03-03T13:24:11Z</time>
      </trkpt>
      <trkpt lat="43.47654" lon="6.31088">
        <ele>166.5</ele>
        <time>2023-03-03T13:24:12Z</time>
      </trkpt>
      <trkpt lat="43.47655" lon="6.31087">
        <ele>166.6</ele>
        <time>2023-03-03T13:24:13Z</time>
      </trkpt>
      <trkpt lat="43.47655" lon="6.31086">
        <ele>166.7</ele>
        <time>2023-03-03T13:24:14Z</time>
      </trkpt>
      <trkpt lat="43.47655" lon="6.31085">
        <ele>166.6</ele>
        <time>2023-03-03T13:24:15Z</time>
      </trkpt>
      <trkpt lat="43.47656" lon="6.31084">
        <ele>166.6</ele>
        <time>2023-03-03T13:24:16Z</time>
      </trkpt>
      <trkpt lat="43.47656" lon="6.31083">
        <ele>166.7</ele>
        <time>2023-03-03T13:24:17Z</time>
      </trkpt>
      <trkpt lat="43.47656" lon="6.31082">
        <ele>166.7</ele>
        <time>2023-03-03T13:24:18Z</time>
      </trkpt>
      <trkpt lat="43.47657" lon="6.3108">
        <ele>166.8</ele>
        <time>2023-03-03T13:24:19Z</time>
      </trkpt>
      <trkpt lat="43.47657" lon="6.31079">
        <ele>166.9</ele>
        <time>2023-03-03T13:24:20Z</time>
      </trkpt>
      <trkpt lat="43.47657" lon="6.31078">
        <ele>167</ele>
        <time>2023-03-03T13:24:21Z</time>
      </trkpt>
      <trkpt lat="43.47658" lon="6.31076">
        <ele>167</ele>
        <time>2023-03-03T13:24:22Z</time>
      </trkpt>
      <trkpt lat="43.47658" lon="6.31075">
        <ele>167.1</ele>
        <time>2023-03-03T13:24:23Z</time>
      </trkpt>
      <trkpt lat="43.47658" lon="6.31074">
        <ele>167.2</ele>
        <time>2023-03-03T13:24:24Z</time>
      </trkpt>
      <trkpt lat="43.47659" lon="6.31073">
        <ele>167.2</ele>
        <time>2023-03-03T13:24:25Z</time>
      </trkpt>
      <trkpt lat="43.47659" lon="6.31072">
        <ele>167.3</ele>
        <time>2023-03-03T13:24:26Z</time>
      </trkpt>
      <trkpt lat="43.47659" lon="6.3107">
        <ele>167.3</ele>
        <time>2023-03-03T13:24:27Z</time>
      </trkpt>
      <trkpt lat="43.47659" lon="6.31069">
        <ele>167.3</ele>
        <time>2023-03-03T13:24:28Z</time>
      </trkpt>
      <trkpt lat="43.4766" lon="6.31068">
        <ele>167.3</ele>
        <time>2023-03-03T13:24:29Z</time>
      </trkpt>
      <trkpt lat="43.47661" lon="6.31067">
        <ele>167.3</ele>
        <time>2023-03-03T13:24:30Z</time>
      </trkpt>
      <trkpt lat="43.47661" lon="6.31065">
        <ele>167.4</ele>
        <time>2023-03-03T13:24:31Z</time>
      </trkpt>
      <trkpt lat="43.47661" lon="6.31064">
        <ele>167.3</ele>
        <time>2023-03-03T13:24:32Z</time>
      </trkpt>
      <trkpt lat="43.47662" lon="6.31062">
        <ele>167.3</ele>
        <time>2023-03-03T13:24:33Z</time>
      </trkpt>
      <trkpt lat="43.47662" lon="6.31061">
        <ele>167.3</ele>
        <time>2023-03-03T13:24:34Z</time>
      </trkpt>
      <trkpt lat="43.47662" lon="6.3106">
        <ele>167.3</ele>
        <time>2023-03-03T13:24:35Z</time>
      </trkpt>
      <trkpt lat="43.47663" lon="6.31058">
        <ele>167.3</ele>
        <time>2023-03-03T13:24:36Z</time>
      </trkpt>
      <trkpt lat="43.47663" lon="6.31057">
        <ele>167.3</ele>
        <time>2023-03-03T13:24:37Z</time>
      </trkpt>
      <trkpt lat="43.47664" lon="6.31056">
        <ele>167.3</ele>
        <time>2023-03-03T13:24:38Z</time>
      </trkpt>
      <trkpt lat="43.47664" lon="6.31055">
        <ele>167.3</ele>
        <time>2023-03-03T13:24:39Z</time>
      </trkpt>
      <trkpt lat="43.47665" lon="6.31053">
        <ele>167.4</ele>
        <time>2023-03-03T13:24:40Z</time>
      </trkpt>
      <trkpt lat="43.47665" lon="6.31052">
        <ele>167.5</ele>
        <time>2023-03-03T13:24:41Z</time>
      </trkpt>
      <trkpt lat="43.47666" lon="6.31051">
        <ele>167.6</ele>
        <time>2023-03-03T13:24:42Z</time>
      </trkpt>
      <trkpt lat="43.47666" lon="6.3105">
        <ele>167.6</ele>
        <time>2023-03-03T13:24:43Z</time>
      </trkpt>
      <trkpt lat="43.47667" lon="6.31049">
        <ele>167.6</ele>
        <time>2023-03-03T13:24:44Z</time>
      </trkpt>
      <trkpt lat="43.47667" lon="6.31047">
        <ele>167.7</ele>
        <time>2023-03-03T13:24:45Z</time>
      </trkpt>
      <trkpt lat="43.47667" lon="6.31046">
        <ele>167.7</ele>
        <time>2023-03-03T13:24:46Z</time>
      </trkpt>
      <trkpt lat="43.47668" lon="6.31045">
        <ele>167.7</ele>
        <time>2023-03-03T13:24:47Z</time>
      </trkpt>
      <trkpt lat="43.47668" lon="6.31044">
        <ele>167.8</ele>
        <time>2023-03-03T13:24:48Z</time>
      </trkpt>
      <trkpt lat="43.47669" lon="6.31043">
        <ele>167.9</ele>
        <time>2023-03-03T13:24:49Z</time>
      </trkpt>
      <trkpt lat="43.47669" lon="6.31042">
        <ele>167.9</ele>
        <time>2023-03-03T13:24:50Z</time>
      </trkpt>
      <trkpt lat="43.4767" lon="6.31041">
        <ele>167.9</ele>
        <time>2023-03-03T13:24:51Z</time>
      </trkpt>
      <trkpt lat="43.4767" lon="6.3104">
        <ele>168</ele>
        <time>2023-03-03T13:24:52Z</time>
      </trkpt>
      <trkpt lat="43.4767" lon="6.31039">
        <ele>168</ele>
        <time>2023-03-03T13:24:53Z</time>
      </trkpt>
      <trkpt lat="43.4767" lon="6.31037">
        <ele>168</ele>
        <time>2023-03-03T13:24:54Z</time>
      </trkpt>
      <trkpt lat="43.4767" lon="6.31036">
        <ele>168</ele>
        <time>2023-03-03T13:24:55Z</time>
      </trkpt>
      <trkpt lat="43.4767" lon="6.31035">
        <ele>168</ele>
        <time>2023-03-03T13:24:56Z</time>
      </trkpt>
      <trkpt lat="43.47671" lon="6.31034">
        <ele>168</ele>
        <time>2023-03-03T13:24:57Z</time>
      </trkpt>
      <trkpt lat="43.47671" lon="6.31033">
        <ele>168</ele>
        <time>2023-03-03T13:24:58Z</time>
      </trkpt>
      <trkpt lat="43.47672" lon="6.31032">
        <ele>168</ele>
        <time>2023-03-03T13:24:59Z</time>
      </trkpt>
      <trkpt lat="43.47672" lon="6.31031">
        <ele>168</ele>
        <time>2023-03-03T13:25:00Z</time>
      </trkpt>
      <trkpt lat="43.47673" lon="6.3103">
        <ele>168.1</ele>
        <time>2023-03-03T13:25:01Z</time>
      </trkpt>
      <trkpt lat="43.47673" lon="6.31029">
        <ele>168.1</ele>
        <time>2023-03-03T13:25:02Z</time>
      </trkpt>
      <trkpt lat="43.47673" lon="6.31028">
        <ele>168</ele>
        <time>2023-03-03T13:25:03Z</time>
      </trkpt>
      <trkpt lat="43.47673" lon="6.31027">
        <ele>168</ele>
        <time>2023-03-03T13:25:04Z</time>
      </trkpt>
      <trkpt lat="43.47674" lon="6.31026">
        <ele>168</ele>
        <time>2023-03-03T13:25:05Z</time>
      </trkpt>
      <trkpt lat="43.47674" lon="6.31025">
        <ele>168</ele>
        <time>2023-03-03T13:25:06Z</time>
      </trkpt>
      <trkpt lat="43.47675" lon="6.31024">
        <ele>168</ele>
        <time>2023-03-03T13:25:07Z</time>
      </trkpt>
      <trkpt lat="43.47675" lon="6.31023">
        <ele>168</ele>
        <time>2023-03-03T13:25:08Z</time>
      </trkpt>
      <trkpt lat="43.47676" lon="6.31022">
        <ele>168</ele>
        <time>2023-03-03T13:25:09Z</time>
      </trkpt>
      <trkpt lat="43.47677" lon="6.31021">
        <ele>168</ele>
        <time>2023-03-03T13:25:10Z</time>
      </trkpt>
      <trkpt lat="43.47677" lon="6.31021">
        <ele>168.1</ele>
        <time>2023-03-03T13:25:11Z</time>
      </trkpt>
      <trkpt lat="43.47678" lon="6.3102">
        <ele>168.1</ele>
        <time>2023-03-03T13:25:12Z</time>
      </trkpt>
      <trkpt lat="43.47679" lon="6.3102">
        <ele>168.1</ele>
        <time>2023-03-03T13:25:13Z</time>
      </trkpt>
      <trkpt lat="43.47679" lon="6.3102">
        <ele>168.1</ele>
        <time>2023-03-03T13:25:14Z</time>
      </trkpt>
      <trkpt lat="43.4768" lon="6.3102">
        <ele>168</ele>
        <time>2023-03-03T13:25:15Z</time>
      </trkpt>
      <trkpt lat="43.47681" lon="6.31019">
        <ele>168</ele>
        <time>2023-03-03T13:25:16Z</time>
      </trkpt>
      <trkpt lat="43.47681" lon="6.31019">
        <ele>168</ele>
        <time>2023-03-03T13:25:17Z</time>
      </trkpt>
      <trkpt lat="43.47682" lon="6.31018">
        <ele>167.9</ele>
        <time>2023-03-03T13:25:18Z</time>
      </trkpt>
      <trkpt lat="43.47682" lon="6.31018">
        <ele>167.9</ele>
        <time>2023-03-03T13:25:19Z</time>
      </trkpt>
      <trkpt lat="43.47682" lon="6.31018">
        <ele>167.8</ele>
        <time>2023-03-03T13:25:20Z</time>
      </trkpt>
      <trkpt lat="43.47682" lon="6.31018">
        <ele>167.8</ele>
        <time>2023-03-03T13:25:21Z</time>
      </trkpt>
      <trkpt lat="43.47682" lon="6.31018">
        <ele>167.7</ele>
        <time>2023-03-03T13:25:22Z</time>
      </trkpt>
      <trkpt lat="43.47683" lon="6.31018">
        <ele>167.7</ele>
        <time>2023-03-03T13:25:23Z</time>
      </trkpt>
      <trkpt lat="43.47683" lon="6.31018">
        <ele>167.7</ele>
        <time>2023-03-03T13:25:24Z</time>
      </trkpt>
      <trkpt lat="43.47684" lon="6.31017">
        <ele>167.7</ele>
        <time>2023-03-03T13:25:25Z</time>
      </trkpt>
      <trkpt lat="43.47684" lon="6.31016">
        <ele>167.7</ele>
        <time>2023-03-03T13:25:26Z</time>
      </trkpt>
      <trkpt lat="43.47685" lon="6.31015">
        <ele>167.7</ele>
        <time>2023-03-03T13:25:27Z</time>
      </trkpt>
      <trkpt lat="43.47686" lon="6.31014">
        <ele>167.7</ele>
        <time>2023-03-03T13:25:28Z</time>
      </trkpt>
      <trkpt lat="43.47686" lon="6.31014">
        <ele>167.7</ele>
        <time>2023-03-03T13:25:29Z</time>
      </trkpt>
      <trkpt lat="43.47687" lon="6.31013">
        <ele>167.6</ele>
        <time>2023-03-03T13:25:30Z</time>
      </trkpt>
      <trkpt lat="43.47688" lon="6.31012">
        <ele>167.6</ele>
        <time>2023-03-03T13:25:31Z</time>
      </trkpt>
      <trkpt lat="43.47688" lon="6.31011">
        <ele>167.5</ele>
        <time>2023-03-03T13:25:32Z</time>
      </trkpt>
      <trkpt lat="43.47689" lon="6.3101">
        <ele>167.4</ele>
        <time>2023-03-03T13:25:33Z</time>
      </trkpt>
      <trkpt lat="43.47689" lon="6.31009">
        <ele>167.3</ele>
        <time>2023-03-03T13:25:34Z</time>
      </trkpt>
      <trkpt lat="43.47689" lon="6.31008">
        <ele>167.2</ele>
        <time>2023-03-03T13:25:35Z</time>
      </trkpt>
      <trkpt lat="43.4769" lon="6.31006">
        <ele>167.2</ele>
        <time>2023-03-03T13:25:36Z</time>
      </trkpt>
      <trkpt lat="43.4769" lon="6.31005">
        <ele>167.2</ele>
        <time>2023-03-03T13:25:37Z</time>
      </trkpt>
      <trkpt lat="43.4769" lon="6.31004">
        <ele>167.1</ele>
        <time>2023-03-03T13:25:38Z</time>
      </trkpt>
      <trkpt lat="43.47691" lon="6.31003">
        <ele>167.1</ele>
        <time>2023-03-03T13:25:39Z</time>
      </trkpt>
      <trkpt lat="43.47692" lon="6.31002">
        <ele>167</ele>
        <time>2023-03-03T13:25:40Z</time>
      </trkpt>
      <trkpt lat="43.47692" lon="6.31001">
        <ele>166.8</ele>
        <time>2023-03-03T13:25:41Z</time>
      </trkpt>
      <trkpt lat="43.47693" lon="6.31">
        <ele>166.7</ele>
        <time>2023-03-03T13:25:42Z</time>
      </trkpt>
      <trkpt lat="43.47693" lon="6.30998">
        <ele>166.7</ele>
        <time>2023-03-03T13:25:43Z</time>
      </trkpt>
      <trkpt lat="43.47694" lon="6.30997">
        <ele>166.7</ele>
        <time>2023-03-03T13:25:44Z</time>
      </trkpt>
      <trkpt lat="43.47694" lon="6.30996">
        <ele>166.6</ele>
        <time>2023-03-03T13:25:45Z</time>
      </trkpt>
      <trkpt lat="43.47694" lon="6.30995">
        <ele>166.6</ele>
        <time>2023-03-03T13:25:46Z</time>
      </trkpt>
      <trkpt lat="43.47694" lon="6.30993">
        <ele>166.6</ele>
        <time>2023-03-03T13:25:47Z</time>
      </trkpt>
      <trkpt lat="43.47695" lon="6.30992">
        <ele>166.5</ele>
        <time>2023-03-03T13:25:48Z</time>
      </trkpt>
      <trkpt lat="43.47695" lon="6.30991">
        <ele>166.4</ele>
        <time>2023-03-03T13:25:49Z</time>
      </trkpt>
      <trkpt lat="43.47695" lon="6.30989">
        <ele>166.4</ele>
        <time>2023-03-03T13:25:50Z</time>
      </trkpt>
      <trkpt lat="43.47696" lon="6.30988">
        <ele>166.3</ele>
        <time>2023-03-03T13:25:51Z</time>
      </trkpt>
      <trkpt lat="43.47697" lon="6.30987">
        <ele>166.3</ele>
        <time>2023-03-03T13:25:52Z</time>
      </trkpt>
      <trkpt lat="43.47697" lon="6.30987">
        <ele>166.3</ele>
        <time>2023-03-03T13:25:53Z</time>
      </trkpt>
      <trkpt lat="43.47697" lon="6.30985">
        <ele>166.3</ele>
        <time>2023-03-03T13:25:54Z</time>
      </trkpt>
      <trkpt lat="43.47697" lon="6.30985">
        <ele>166.3</ele>
        <time>2023-03-03T13:25:55Z</time>
      </trkpt>
      <trkpt lat="43.47698" lon="6.30983">
        <ele>166.3</ele>
        <time>2023-03-03T13:25:56Z</time>
      </trkpt>
      <trkpt lat="43.47699" lon="6.30982">
        <ele>166.3</ele>
        <time>2023-03-03T13:25:57Z</time>
      </trkpt>
      <trkpt lat="43.47699" lon="6.30981">
        <ele>166.2</ele>
        <time>2023-03-03T13:25:58Z</time>
      </trkpt>
      <trkpt lat="43.477" lon="6.3098">
        <ele>166.2</ele>
        <time>2023-03-03T13:25:59Z</time>
      </trkpt>
      <trkpt lat="43.477" lon="6.30979">
        <ele>166.1</ele>
        <time>2023-03-03T13:26:00Z</time>
      </trkpt>
      <trkpt lat="43.47701" lon="6.30978">
        <ele>166.1</ele>
        <time>2023-03-03T13:26:01Z</time>
      </trkpt>
      <trkpt lat="43.47701" lon="6.30977">
        <ele>166</ele>
        <time>2023-03-03T13:26:02Z</time>
      </trkpt>
      <trkpt lat="43.47701" lon="6.30976">
        <ele>165.9</ele>
        <time>2023-03-03T13:26:03Z</time>
      </trkpt>
      <trkpt lat="43.47702" lon="6.30975">
        <ele>165.9</ele>
        <time>2023-03-03T13:26:04Z</time>
      </trkpt>
      <trkpt lat="43.47702" lon="6.30973">
        <ele>165.9</ele>
        <time>2023-03-03T13:26:05Z</time>
      </trkpt>
      <trkpt lat="43.47703" lon="6.30973">
        <ele>165.9</ele>
        <time>2023-03-03T13:26:06Z</time>
      </trkpt>
      <trkpt lat="43.47703" lon="6.30971">
        <ele>165.9</ele>
        <time>2023-03-03T13:26:07Z</time>
      </trkpt>
      <trkpt lat="43.47703" lon="6.3097">
        <ele>165.7</ele>
        <time>2023-03-03T13:26:08Z</time>
      </trkpt>
      <trkpt lat="43.47704" lon="6.30969">
        <ele>165.7</ele>
        <time>2023-03-03T13:26:09Z</time>
      </trkpt>
      <trkpt lat="43.47704" lon="6.30967">
        <ele>165.6</ele>
        <time>2023-03-03T13:26:10Z</time>
      </trkpt>
      <trkpt lat="43.47704" lon="6.30966">
        <ele>165.6</ele>
        <time>2023-03-03T13:26:11Z</time>
      </trkpt>
      <trkpt lat="43.47705" lon="6.30966">
        <ele>165.6</ele>
        <time>2023-03-03T13:26:12Z</time>
      </trkpt>
      <trkpt lat="43.47705" lon="6.30964">
        <ele>165.6</ele>
        <time>2023-03-03T13:26:13Z</time>
      </trkpt>
      <trkpt lat="43.47705" lon="6.30963">
        <ele>165.6</ele>
        <time>2023-03-03T13:26:14Z</time>
      </trkpt>
      <trkpt lat="43.47706" lon="6.30962">
        <ele>165.6</ele>
        <time>2023-03-03T13:26:15Z</time>
      </trkpt>
      <trkpt lat="43.47706" lon="6.30961">
        <ele>165.6</ele>
        <time>2023-03-03T13:26:16Z</time>
      </trkpt>
      <trkpt lat="43.47707" lon="6.3096">
        <ele>165.5</ele>
        <time>2023-03-03T13:26:17Z</time>
      </trkpt>
      <trkpt lat="43.47707" lon="6.30958">
        <ele>165.5</ele>
        <time>2023-03-03T13:26:18Z</time>
      </trkpt>
      <trkpt lat="43.47708" lon="6.30957">
        <ele>165.5</ele>
        <time>2023-03-03T13:26:19Z</time>
      </trkpt>
      <trkpt lat="43.47708" lon="6.30956">
        <ele>165.4</ele>
        <time>2023-03-03T13:26:20Z</time>
      </trkpt>
      <trkpt lat="43.47709" lon="6.30954">
        <ele>165.4</ele>
        <time>2023-03-03T13:26:21Z</time>
      </trkpt>
      <trkpt lat="43.47709" lon="6.30953">
        <ele>165.3</ele>
        <time>2023-03-03T13:26:22Z</time>
      </trkpt>
      <trkpt lat="43.4771" lon="6.30952">
        <ele>165.3</ele>
        <time>2023-03-03T13:26:23Z</time>
      </trkpt>
      <trkpt lat="43.4771" lon="6.30951">
        <ele>165.2</ele>
        <time>2023-03-03T13:26:24Z</time>
      </trkpt>
      <trkpt lat="43.4771" lon="6.3095">
        <ele>165.2</ele>
        <time>2023-03-03T13:26:25Z</time>
      </trkpt>
      <trkpt lat="43.47711" lon="6.30949">
        <ele>165.3</ele>
        <time>2023-03-03T13:26:26Z</time>
      </trkpt>
      <trkpt lat="43.47711" lon="6.30947">
        <ele>165.4</ele>
        <time>2023-03-03T13:26:27Z</time>
      </trkpt>
      <trkpt lat="43.47712" lon="6.30946">
        <ele>165.4</ele>
        <time>2023-03-03T13:26:28Z</time>
      </trkpt>
      <trkpt lat="43.47712" lon="6.30944">
        <ele>165.4</ele>
        <time>2023-03-03T13:26:29Z</time>
      </trkpt>
      <trkpt lat="43.47712" lon="6.30943">
        <ele>165.3</ele>
        <time>2023-03-03T13:26:30Z</time>
      </trkpt>
      <trkpt lat="43.47713" lon="6.30942">
        <ele>165.2</ele>
        <time>2023-03-03T13:26:31Z</time>
      </trkpt>
      <trkpt lat="43.47714" lon="6.30941">
        <ele>165.1</ele>
        <time>2023-03-03T13:26:32Z</time>
      </trkpt>
      <trkpt lat="43.47714" lon="6.30939">
        <ele>165</ele>
        <time>2023-03-03T13:26:33Z</time>
      </trkpt>
      <trkpt lat="43.47715" lon="6.30938">
        <ele>165</ele>
        <time>2023-03-03T13:26:34Z</time>
      </trkpt>
      <trkpt lat="43.47715" lon="6.30937">
        <ele>165</ele>
        <time>2023-03-03T13:26:35Z</time>
      </trkpt>
      <trkpt lat="43.47715" lon="6.30935">
        <ele>165</ele>
        <time>2023-03-03T13:26:36Z</time>
      </trkpt>
      <trkpt lat="43.47716" lon="6.30935">
        <ele>164.9</ele>
        <time>2023-03-03T13:26:37Z</time>
      </trkpt>
      <trkpt lat="43.47716" lon="6.30934">
        <ele>164.9</ele>
        <time>2023-03-03T13:26:38Z</time>
      </trkpt>
      <trkpt lat="43.47717" lon="6.30933">
        <ele>164.7</ele>
        <time>2023-03-03T13:26:39Z</time>
      </trkpt>
      <trkpt lat="43.47718" lon="6.30932">
        <ele>164.7</ele>
        <time>2023-03-03T13:26:40Z</time>
      </trkpt>
      <trkpt lat="43.47718" lon="6.3093">
        <ele>164.7</ele>
        <time>2023-03-03T13:26:41Z</time>
      </trkpt>
      <trkpt lat="43.47718" lon="6.30929">
        <ele>164.7</ele>
        <time>2023-03-03T13:26:42Z</time>
      </trkpt>
      <trkpt lat="43.47719" lon="6.30928">
        <ele>164.7</ele>
        <time>2023-03-03T13:26:43Z</time>
      </trkpt>
      <trkpt lat="43.4772" lon="6.30926">
        <ele>164.6</ele>
        <time>2023-03-03T13:26:44Z</time>
      </trkpt>
      <trkpt lat="43.4772" lon="6.30925">
        <ele>164.6</ele>
        <time>2023-03-03T13:26:45Z</time>
      </trkpt>
      <trkpt lat="43.4772" lon="6.30924">
        <ele>164.5</ele>
        <time>2023-03-03T13:26:46Z</time>
      </trkpt>
      <trkpt lat="43.47721" lon="6.30923">
        <ele>164.5</ele>
        <time>2023-03-03T13:26:47Z</time>
      </trkpt>
      <trkpt lat="43.47722" lon="6.30922">
        <ele>164.4</ele>
        <time>2023-03-03T13:26:48Z</time>
      </trkpt>
      <trkpt lat="43.47722" lon="6.30921">
        <ele>164.4</ele>
        <time>2023-03-03T13:26:49Z</time>
      </trkpt>
      <trkpt lat="43.47722" lon="6.30919">
        <ele>164.3</ele>
        <time>2023-03-03T13:26:50Z</time>
      </trkpt>
      <trkpt lat="43.47723" lon="6.30918">
        <ele>164.2</ele>
        <time>2023-03-03T13:26:51Z</time>
      </trkpt>
      <trkpt lat="43.47723" lon="6.30917">
        <ele>164.2</ele>
        <time>2023-03-03T13:26:52Z</time>
      </trkpt>
      <trkpt lat="43.47724" lon="6.30916">
        <ele>164.2</ele>
        <time>2023-03-03T13:26:53Z</time>
      </trkpt>
      <trkpt lat="43.47724" lon="6.30914">
        <ele>164.2</ele>
        <time>2023-03-03T13:26:54Z</time>
      </trkpt>
      <trkpt lat="43.47725" lon="6.30913">
        <ele>164.2</ele>
        <time>2023-03-03T13:26:55Z</time>
      </trkpt>
      <trkpt lat="43.47725" lon="6.30912">
        <ele>164.2</ele>
        <time>2023-03-03T13:26:56Z</time>
      </trkpt>
      <trkpt lat="43.47726" lon="6.30911">
        <ele>164.2</ele>
        <time>2023-03-03T13:26:57Z</time>
      </trkpt>
      <trkpt lat="43.47726" lon="6.3091">
        <ele>164.2</ele>
        <time>2023-03-03T13:26:58Z</time>
      </trkpt>
      <trkpt lat="43.47726" lon="6.30908">
        <ele>164.1</ele>
        <time>2023-03-03T13:26:59Z</time>
      </trkpt>
      <trkpt lat="43.47727" lon="6.30907">
        <ele>164.1</ele>
        <time>2023-03-03T13:27:00Z</time>
      </trkpt>
      <trkpt lat="43.47727" lon="6.30906">
        <ele>164.1</ele>
        <time>2023-03-03T13:27:01Z</time>
      </trkpt>
      <trkpt lat="43.47728" lon="6.30904">
        <ele>164.1</ele>
        <time>2023-03-03T13:27:02Z</time>
      </trkpt>
      <trkpt lat="43.47728" lon="6.30903">
        <ele>164.1</ele>
        <time>2023-03-03T13:27:03Z</time>
      </trkpt>
      <trkpt lat="43.47728" lon="6.30901">
        <ele>164.1</ele>
        <time>2023-03-03T13:27:04Z</time>
      </trkpt>
      <trkpt lat="43.47729" lon="6.309">
        <ele>164.2</ele>
        <time>2023-03-03T13:27:05Z</time>
      </trkpt>
      <trkpt lat="43.47729" lon="6.30898">
        <ele>164.2</ele>
        <time>2023-03-03T13:27:06Z</time>
      </trkpt>
      <trkpt lat="43.4773" lon="6.30897">
        <ele>164.3</ele>
        <time>2023-03-03T13:27:07Z</time>
      </trkpt>
      <trkpt lat="43.4773" lon="6.30895">
        <ele>164.3</ele>
        <time>2023-03-03T13:27:08Z</time>
      </trkpt>
      <trkpt lat="43.47731" lon="6.30894">
        <ele>164.4</ele>
        <time>2023-03-03T13:27:09Z</time>
      </trkpt>
      <trkpt lat="43.47731" lon="6.30892">
        <ele>164.3</ele>
        <time>2023-03-03T13:27:10Z</time>
      </trkpt>
      <trkpt lat="43.47732" lon="6.30891">
        <ele>164.4</ele>
        <time>2023-03-03T13:27:11Z</time>
      </trkpt>
      <trkpt lat="43.47733" lon="6.3089">
        <ele>164.4</ele>
        <time>2023-03-03T13:27:12Z</time>
      </trkpt>
      <trkpt lat="43.47733" lon="6.30888">
        <ele>164.4</ele>
        <time>2023-03-03T13:27:13Z</time>
      </trkpt>
      <trkpt lat="43.47733" lon="6.30886">
        <ele>164.4</ele>
        <time>2023-03-03T13:27:14Z</time>
      </trkpt>
      <trkpt lat="43.47733" lon="6.30884">
        <ele>164.3</ele>
        <time>2023-03-03T13:27:15Z</time>
      </trkpt>
      <trkpt lat="43.47733" lon="6.30883">
        <ele>164.2</ele>
        <time>2023-03-03T13:27:16Z</time>
      </trkpt>
      <trkpt lat="43.47733" lon="6.30883">
        <ele>164.1</ele>
        <time>2023-03-03T13:27:17Z</time>
      </trkpt>
      <trkpt lat="43.47733" lon="6.30882">
        <ele>164</ele>
        <time>2023-03-03T13:27:18Z</time>
      </trkpt>
      <trkpt lat="43.47733" lon="6.30881">
        <ele>164</ele>
        <time>2023-03-03T13:27:19Z</time>
      </trkpt>
      <trkpt lat="43.47734" lon="6.30879">
        <ele>163.9</ele>
        <time>2023-03-03T13:27:20Z</time>
      </trkpt>
      <trkpt lat="43.47734" lon="6.30878">
        <ele>163.9</ele>
        <time>2023-03-03T13:27:21Z</time>
      </trkpt>
      <trkpt lat="43.47735" lon="6.30877">
        <ele>163.8</ele>
        <time>2023-03-03T13:27:22Z</time>
      </trkpt>
      <trkpt lat="43.47736" lon="6.30876">
        <ele>163.8</ele>
        <time>2023-03-03T13:27:23Z</time>
      </trkpt>
      <trkpt lat="43.47736" lon="6.30875">
        <ele>163.7</ele>
        <time>2023-03-03T13:27:24Z</time>
      </trkpt>
      <trkpt lat="43.47737" lon="6.30874">
        <ele>163.7</ele>
        <time>2023-03-03T13:27:25Z</time>
      </trkpt>
      <trkpt lat="43.47738" lon="6.30873">
        <ele>163.7</ele>
        <time>2023-03-03T13:27:26Z</time>
      </trkpt>
      <trkpt lat="43.47739" lon="6.30872">
        <ele>163.7</ele>
        <time>2023-03-03T13:27:27Z</time>
      </trkpt>
      <trkpt lat="43.47739" lon="6.30871">
        <ele>163.7</ele>
        <time>2023-03-03T13:27:28Z</time>
      </trkpt>
      <trkpt lat="43.4774" lon="6.30871">
        <ele>163.6</ele>
        <time>2023-03-03T13:27:29Z</time>
      </trkpt>
      <trkpt lat="43.47741" lon="6.30871">
        <ele>163.6</ele>
        <time>2023-03-03T13:27:30Z</time>
      </trkpt>
      <trkpt lat="43.47742" lon="6.30871">
        <ele>163.5</ele>
        <time>2023-03-03T13:27:31Z</time>
      </trkpt>
      <trkpt lat="43.47743" lon="6.30871">
        <ele>163.5</ele>
        <time>2023-03-03T13:27:32Z</time>
      </trkpt>
      <trkpt lat="43.47744" lon="6.30872">
        <ele>163.6</ele>
        <time>2023-03-03T13:27:33Z</time>
      </trkpt>
      <trkpt lat="43.47745" lon="6.30872">
        <ele>163.5</ele>
        <time>2023-03-03T13:27:34Z</time>
      </trkpt>
      <trkpt lat="43.47746" lon="6.30873">
        <ele>163.5</ele>
        <time>2023-03-03T13:27:35Z</time>
      </trkpt>
      <trkpt lat="43.47747" lon="6.30873">
        <ele>163.5</ele>
        <time>2023-03-03T13:27:36Z</time>
      </trkpt>
      <trkpt lat="43.47748" lon="6.30874">
        <ele>163.5</ele>
        <time>2023-03-03T13:27:37Z</time>
      </trkpt>
      <trkpt lat="43.47749" lon="6.30874">
        <ele>163.5</ele>
        <time>2023-03-03T13:27:38Z</time>
      </trkpt>
      <trkpt lat="43.4775" lon="6.30875">
        <ele>163.4</ele>
        <time>2023-03-03T13:27:39Z</time>
      </trkpt>
      <trkpt lat="43.47751" lon="6.30876">
        <ele>163.4</ele>
        <time>2023-03-03T13:27:40Z</time>
      </trkpt>
      <trkpt lat="43.47752" lon="6.30877">
        <ele>163.3</ele>
        <time>2023-03-03T13:27:41Z</time>
      </trkpt>
      <trkpt lat="43.47753" lon="6.30877">
        <ele>163.3</ele>
        <time>2023-03-03T13:27:42Z</time>
      </trkpt>
      <trkpt lat="43.47754" lon="6.30878">
        <ele>163.2</ele>
        <time>2023-03-03T13:27:43Z</time>
      </trkpt>
      <trkpt lat="43.47755" lon="6.30878">
        <ele>163.2</ele>
        <time>2023-03-03T13:27:44Z</time>
      </trkpt>
      <trkpt lat="43.47756" lon="6.30878">
        <ele>163.1</ele>
        <time>2023-03-03T13:27:45Z</time>
      </trkpt>
      <trkpt lat="43.47757" lon="6.30879">
        <ele>163.1</ele>
        <time>2023-03-03T13:27:46Z</time>
      </trkpt>
      <trkpt lat="43.47758" lon="6.3088">
        <ele>163.2</ele>
        <time>2023-03-03T13:27:47Z</time>
      </trkpt>
      <trkpt lat="43.47759" lon="6.3088">
        <ele>163.2</ele>
        <time>2023-03-03T13:27:48Z</time>
      </trkpt>
      <trkpt lat="43.4776" lon="6.3088">
        <ele>163.2</ele>
        <time>2023-03-03T13:27:49Z</time>
      </trkpt>
      <trkpt lat="43.47761" lon="6.30881">
        <ele>163.2</ele>
        <time>2023-03-03T13:27:50Z</time>
      </trkpt>
      <trkpt lat="43.47761" lon="6.30879">
        <ele>163.1</ele>
        <time>2023-03-03T13:27:51Z</time>
      </trkpt>
      <trkpt lat="43.47762" lon="6.30879">
        <ele>163.1</ele>
        <time>2023-03-03T13:27:52Z</time>
      </trkpt>
      <trkpt lat="43.47762" lon="6.30878">
        <ele>163.1</ele>
        <time>2023-03-03T13:27:53Z</time>
      </trkpt>
      <trkpt lat="43.47762" lon="6.30878">
        <ele>163.1</ele>
        <time>2023-03-03T13:27:54Z</time>
      </trkpt>
      <trkpt lat="43.47762" lon="6.30878">
        <ele>163.1</ele>
        <time>2023-03-03T13:27:55Z</time>
      </trkpt>
      <trkpt lat="43.47763" lon="6.30879">
        <ele>163</ele>
        <time>2023-03-03T13:27:56Z</time>
      </trkpt>
      <trkpt lat="43.47764" lon="6.3088">
        <ele>163</ele>
        <time>2023-03-03T13:27:57Z</time>
      </trkpt>
      <trkpt lat="43.47765" lon="6.3088">
        <ele>163</ele>
        <time>2023-03-03T13:27:58Z</time>
      </trkpt>
      <trkpt lat="43.47766" lon="6.3088">
        <ele>162.9</ele>
        <time>2023-03-03T13:27:59Z</time>
      </trkpt>
      <trkpt lat="43.47767" lon="6.3088">
        <ele>163</ele>
        <time>2023-03-03T13:28:00Z</time>
      </trkpt>
      <trkpt lat="43.47768" lon="6.30881">
        <ele>163</ele>
        <time>2023-03-03T13:28:01Z</time>
      </trkpt>
      <trkpt lat="43.47768" lon="6.30882">
        <ele>162.9</ele>
        <time>2023-03-03T13:28:02Z</time>
      </trkpt>
      <trkpt lat="43.47769" lon="6.30883">
        <ele>162.9</ele>
        <time>2023-03-03T13:28:03Z</time>
      </trkpt>
      <trkpt lat="43.4777" lon="6.30884">
        <ele>162.9</ele>
        <time>2023-03-03T13:28:04Z</time>
      </trkpt>
      <trkpt lat="43.47771" lon="6.30884">
        <ele>163</ele>
        <time>2023-03-03T13:28:05Z</time>
      </trkpt>
      <trkpt lat="43.47772" lon="6.30884">
        <ele>163</ele>
        <time>2023-03-03T13:28:06Z</time>
      </trkpt>
      <trkpt lat="43.47772" lon="6.30885">
        <ele>163.1</ele>
        <time>2023-03-03T13:28:07Z</time>
      </trkpt>
      <trkpt lat="43.47773" lon="6.30885">
        <ele>163.2</ele>
        <time>2023-03-03T13:28:08Z</time>
      </trkpt>
      <trkpt lat="43.47774" lon="6.30885">
        <ele>163.3</ele>
        <time>2023-03-03T13:28:09Z</time>
      </trkpt>
      <trkpt lat="43.47775" lon="6.30885">
        <ele>163.3</ele>
        <time>2023-03-03T13:28:10Z</time>
      </trkpt>
      <trkpt lat="43.47776" lon="6.30886">
        <ele>163.5</ele>
        <time>2023-03-03T13:28:11Z</time>
      </trkpt>
      <trkpt lat="43.47777" lon="6.30886">
        <ele>163.4</ele>
        <time>2023-03-03T13:28:12Z</time>
      </trkpt>
      <trkpt lat="43.47777" lon="6.30887">
        <ele>163.4</ele>
        <time>2023-03-03T13:28:13Z</time>
      </trkpt>
      <trkpt lat="43.47778" lon="6.30887">
        <ele>163.3</ele>
        <time>2023-03-03T13:28:14Z</time>
      </trkpt>
      <trkpt lat="43.47779" lon="6.30888">
        <ele>163.3</ele>
        <time>2023-03-03T13:28:15Z</time>
      </trkpt>
      <trkpt lat="43.4778" lon="6.30888">
        <ele>163.3</ele>
        <time>2023-03-03T13:28:16Z</time>
      </trkpt>
      <trkpt lat="43.47781" lon="6.30888">
        <ele>163.4</ele>
        <time>2023-03-03T13:28:17Z</time>
      </trkpt>
      <trkpt lat="43.47782" lon="6.30888">
        <ele>163.4</ele>
        <time>2023-03-03T13:28:18Z</time>
      </trkpt>
      <trkpt lat="43.47783" lon="6.30888">
        <ele>163.5</ele>
        <time>2023-03-03T13:28:19Z</time>
      </trkpt>
      <trkpt lat="43.47784" lon="6.30888">
        <ele>163.5</ele>
        <time>2023-03-03T13:28:20Z</time>
      </trkpt>
      <trkpt lat="43.47784" lon="6.30887">
        <ele>163.6</ele>
        <time>2023-03-03T13:28:21Z</time>
      </trkpt>
      <trkpt lat="43.47785" lon="6.30887">
        <ele>163.7</ele>
        <time>2023-03-03T13:28:22Z</time>
      </trkpt>
      <trkpt lat="43.47786" lon="6.30887">
        <ele>163.8</ele>
        <time>2023-03-03T13:28:23Z</time>
      </trkpt>
      <trkpt lat="43.47787" lon="6.30887">
        <ele>163.8</ele>
        <time>2023-03-03T13:28:24Z</time>
      </trkpt>
      <trkpt lat="43.47788" lon="6.30887">
        <ele>163.7</ele>
        <time>2023-03-03T13:28:25Z</time>
      </trkpt>
      <trkpt lat="43.47789" lon="6.30887">
        <ele>163.8</ele>
        <time>2023-03-03T13:28:26Z</time>
      </trkpt>
      <trkpt lat="43.4779" lon="6.30886">
        <ele>163.8</ele>
        <time>2023-03-03T13:28:27Z</time>
      </trkpt>
      <trkpt lat="43.47791" lon="6.30886">
        <ele>163.8</ele>
        <time>2023-03-03T13:28:28Z</time>
      </trkpt>
      <trkpt lat="43.47791" lon="6.30885">
        <ele>163.8</ele>
        <time>2023-03-03T13:28:29Z</time>
      </trkpt>
      <trkpt lat="43.47792" lon="6.30885">
        <ele>163.8</ele>
        <time>2023-03-03T13:28:30Z</time>
      </trkpt>
      <trkpt lat="43.47793" lon="6.30884">
        <ele>163.8</ele>
        <time>2023-03-03T13:28:31Z</time>
      </trkpt>
      <trkpt lat="43.47795" lon="6.30883">
        <ele>163.9</ele>
        <time>2023-03-03T13:28:32Z</time>
      </trkpt>
      <trkpt lat="43.47796" lon="6.30883">
        <ele>163.9</ele>
        <time>2023-03-03T13:28:33Z</time>
      </trkpt>
      <trkpt lat="43.47797" lon="6.30882">
        <ele>163.9</ele>
        <time>2023-03-03T13:28:34Z</time>
      </trkpt>
      <trkpt lat="43.47797" lon="6.30881">
        <ele>164</ele>
        <time>2023-03-03T13:28:35Z</time>
      </trkpt>
      <trkpt lat="43.47798" lon="6.30881">
        <ele>164</ele>
        <time>2023-03-03T13:28:36Z</time>
      </trkpt>
      <trkpt lat="43.47799" lon="6.3088">
        <ele>164.1</ele>
        <time>2023-03-03T13:28:37Z</time>
      </trkpt>
      <trkpt lat="43.478" lon="6.3088">
        <ele>164.2</ele>
        <time>2023-03-03T13:28:38Z</time>
      </trkpt>
      <trkpt lat="43.47801" lon="6.30879">
        <ele>164.2</ele>
        <time>2023-03-03T13:28:39Z</time>
      </trkpt>
      <trkpt lat="43.47802" lon="6.30879">
        <ele>164.3</ele>
        <time>2023-03-03T13:28:40Z</time>
      </trkpt>
      <trkpt lat="43.47803" lon="6.30878">
        <ele>164.5</ele>
        <time>2023-03-03T13:28:41Z</time>
      </trkpt>
      <trkpt lat="43.47805" lon="6.30878">
        <ele>164.6</ele>
        <time>2023-03-03T13:28:42Z</time>
      </trkpt>
      <trkpt lat="43.47805" lon="6.30877">
        <ele>164.6</ele>
        <time>2023-03-03T13:28:43Z</time>
      </trkpt>
      <trkpt lat="43.47807" lon="6.30877">
        <ele>164.7</ele>
        <time>2023-03-03T13:28:44Z</time>
      </trkpt>
      <trkpt lat="43.47808" lon="6.30877">
        <ele>164.7</ele>
        <time>2023-03-03T13:28:45Z</time>
      </trkpt>
      <trkpt lat="43.47809" lon="6.30876">
        <ele>164.7</ele>
        <time>2023-03-03T13:28:46Z</time>
      </trkpt>
      <trkpt lat="43.4781" lon="6.30875">
        <ele>164.8</ele>
        <time>2023-03-03T13:28:47Z</time>
      </trkpt>
      <trkpt lat="43.47811" lon="6.30875">
        <ele>164.9</ele>
        <time>2023-03-03T13:28:48Z</time>
      </trkpt>
      <trkpt lat="43.47812" lon="6.30874">
        <ele>164.9</ele>
        <time>2023-03-03T13:28:49Z</time>
      </trkpt>
      <trkpt lat="43.47813" lon="6.30874">
        <ele>165</ele>
        <time>2023-03-03T13:28:50Z</time>
      </trkpt>
      <trkpt lat="43.47814" lon="6.30873">
        <ele>165.1</ele>
        <time>2023-03-03T13:28:51Z</time>
      </trkpt>
      <trkpt lat="43.47815" lon="6.30873">
        <ele>165.1</ele>
        <time>2023-03-03T13:28:52Z</time>
      </trkpt>
      <trkpt lat="43.47815" lon="6.30872">
        <ele>165.2</ele>
        <time>2023-03-03T13:28:53Z</time>
      </trkpt>
      <trkpt lat="43.47816" lon="6.30872">
        <ele>165.2</ele>
        <time>2023-03-03T13:28:54Z</time>
      </trkpt>
      <trkpt lat="43.47817" lon="6.30872">
        <ele>165.2</ele>
        <time>2023-03-03T13:28:55Z</time>
      </trkpt>
      <trkpt lat="43.47818" lon="6.30872">
        <ele>165.2</ele>
        <time>2023-03-03T13:28:56Z</time>
      </trkpt>
      <trkpt lat="43.47819" lon="6.30871">
        <ele>165.2</ele>
        <time>2023-03-03T13:28:57Z</time>
      </trkpt>
      <trkpt lat="43.47819" lon="6.30872">
        <ele>165.3</ele>
        <time>2023-03-03T13:28:58Z</time>
      </trkpt>
      <trkpt lat="43.4782" lon="6.30871">
        <ele>165.4</ele>
        <time>2023-03-03T13:28:59Z</time>
      </trkpt>
      <trkpt lat="43.47821" lon="6.30872">
        <ele>165.4</ele>
        <time>2023-03-03T13:29:00Z</time>
      </trkpt>
      <trkpt lat="43.47822" lon="6.30872">
        <ele>165.5</ele>
        <time>2023-03-03T13:29:01Z</time>
      </trkpt>
      <trkpt lat="43.47823" lon="6.30872">
        <ele>165.6</ele>
        <time>2023-03-03T13:29:02Z</time>
      </trkpt>
      <trkpt lat="43.47824" lon="6.30872">
        <ele>165.7</ele>
        <time>2023-03-03T13:29:03Z</time>
      </trkpt>
      <trkpt lat="43.47824" lon="6.30873">
        <ele>165.7</ele>
        <time>2023-03-03T13:29:04Z</time>
      </trkpt>
      <trkpt lat="43.47825" lon="6.30873">
        <ele>165.8</ele>
        <time>2023-03-03T13:29:05Z</time>
      </trkpt>
      <trkpt lat="43.47826" lon="6.30873">
        <ele>165.9</ele>
        <time>2023-03-03T13:29:06Z</time>
      </trkpt>
      <trkpt lat="43.47827" lon="6.30873">
        <ele>165.9</ele>
        <time>2023-03-03T13:29:07Z</time>
      </trkpt>
      <trkpt lat="43.47828" lon="6.30873">
        <ele>166</ele>
        <time>2023-03-03T13:29:08Z</time>
      </trkpt>
      <trkpt lat="43.47829" lon="6.30873">
        <ele>166.2</ele>
        <time>2023-03-03T13:29:09Z</time>
      </trkpt>
      <trkpt lat="43.4783" lon="6.30873">
        <ele>166.3</ele>
        <time>2023-03-03T13:29:10Z</time>
      </trkpt>
      <trkpt lat="43.47831" lon="6.30873">
        <ele>166.4</ele>
        <time>2023-03-03T13:29:11Z</time>
      </trkpt>
      <trkpt lat="43.47832" lon="6.30874">
        <ele>166.5</ele>
        <time>2023-03-03T13:29:12Z</time>
      </trkpt>
      <trkpt lat="43.47833" lon="6.30874">
        <ele>166.6</ele>
        <time>2023-03-03T13:29:13Z</time>
      </trkpt>
      <trkpt lat="43.47834" lon="6.30874">
        <ele>166.7</ele>
        <time>2023-03-03T13:29:14Z</time>
      </trkpt>
      <trkpt lat="43.47835" lon="6.30875">
        <ele>166.8</ele>
        <time>2023-03-03T13:29:15Z</time>
      </trkpt>
      <trkpt lat="43.47835" lon="6.30876">
        <ele>166.8</ele>
        <time>2023-03-03T13:29:16Z</time>
      </trkpt>
      <trkpt lat="43.47836" lon="6.30876">
        <ele>166.9</ele>
        <time>2023-03-03T13:29:17Z</time>
      </trkpt>
      <trkpt lat="43.47837" lon="6.30876">
        <ele>166.9</ele>
        <time>2023-03-03T13:29:18Z</time>
      </trkpt>
      <trkpt lat="43.47838" lon="6.30876">
        <ele>167</ele>
        <time>2023-03-03T13:29:19Z</time>
      </trkpt>
      <trkpt lat="43.47839" lon="6.30876">
        <ele>167</ele>
        <time>2023-03-03T13:29:20Z</time>
      </trkpt>
      <trkpt lat="43.4784" lon="6.30877">
        <ele>167</ele>
        <time>2023-03-03T13:29:21Z</time>
      </trkpt>
      <trkpt lat="43.47841" lon="6.30877">
        <ele>167.1</ele>
        <time>2023-03-03T13:29:22Z</time>
      </trkpt>
      <trkpt lat="43.47842" lon="6.30877">
        <ele>167.1</ele>
        <time>2023-03-03T13:29:23Z</time>
      </trkpt>
      <trkpt lat="43.47843" lon="6.30877">
        <ele>167.2</ele>
        <time>2023-03-03T13:29:24Z</time>
      </trkpt>
      <trkpt lat="43.47844" lon="6.30878">
        <ele>167.3</ele>
        <time>2023-03-03T13:29:25Z</time>
      </trkpt>
      <trkpt lat="43.47845" lon="6.30878">
        <ele>167.4</ele>
        <time>2023-03-03T13:29:26Z</time>
      </trkpt>
      <trkpt lat="43.47846" lon="6.30877">
        <ele>167.4</ele>
        <time>2023-03-03T13:29:27Z</time>
      </trkpt>
      <trkpt lat="43.47847" lon="6.30877">
        <ele>167.4</ele>
        <time>2023-03-03T13:29:28Z</time>
      </trkpt>
      <trkpt lat="43.47848" lon="6.30877">
        <ele>167.5</ele>
        <time>2023-03-03T13:29:29Z</time>
      </trkpt>
      <trkpt lat="43.47849" lon="6.30876">
        <ele>167.5</ele>
        <time>2023-03-03T13:29:30Z</time>
      </trkpt>
      <trkpt lat="43.4785" lon="6.30875">
        <ele>167.5</ele>
        <time>2023-03-03T13:29:31Z</time>
      </trkpt>
      <trkpt lat="43.47851" lon="6.30874">
        <ele>167.6</ele>
        <time>2023-03-03T13:29:32Z</time>
      </trkpt>
      <trkpt lat="43.47852" lon="6.30874">
        <ele>167.7</ele>
        <time>2023-03-03T13:29:33Z</time>
      </trkpt>
      <trkpt lat="43.47853" lon="6.30873">
        <ele>167.7</ele>
        <time>2023-03-03T13:29:34Z</time>
      </trkpt>
      <trkpt lat="43.47854" lon="6.30872">
        <ele>167.7</ele>
        <time>2023-03-03T13:29:35Z</time>
      </trkpt>
      <trkpt lat="43.47855" lon="6.30871">
        <ele>167.7</ele>
        <time>2023-03-03T13:29:36Z</time>
      </trkpt>
      <trkpt lat="43.47855" lon="6.3087">
        <ele>167.7</ele>
        <time>2023-03-03T13:29:37Z</time>
      </trkpt>
      <trkpt lat="43.47856" lon="6.30868">
        <ele>167.6</ele>
        <time>2023-03-03T13:29:38Z</time>
      </trkpt>
      <trkpt lat="43.47856" lon="6.30868">
        <ele>167.6</ele>
        <time>2023-03-03T13:29:39Z</time>
      </trkpt>
      <trkpt lat="43.47857" lon="6.30867">
        <ele>167.6</ele>
        <time>2023-03-03T13:29:40Z</time>
      </trkpt>
      <trkpt lat="43.47857" lon="6.30865">
        <ele>167.6</ele>
        <time>2023-03-03T13:29:41Z</time>
      </trkpt>
      <trkpt lat="43.47857" lon="6.30864">
        <ele>167.5</ele>
        <time>2023-03-03T13:29:42Z</time>
      </trkpt>
      <trkpt lat="43.47858" lon="6.30862">
        <ele>167.5</ele>
        <time>2023-03-03T13:29:43Z</time>
      </trkpt>
      <trkpt lat="43.47858" lon="6.30861">
        <ele>167.5</ele>
        <time>2023-03-03T13:29:44Z</time>
      </trkpt>
      <trkpt lat="43.47859" lon="6.3086">
        <ele>167.5</ele>
        <time>2023-03-03T13:29:45Z</time>
      </trkpt>
      <trkpt lat="43.47859" lon="6.30859">
        <ele>167.3</ele>
        <time>2023-03-03T13:29:46Z</time>
      </trkpt>
      <trkpt lat="43.4786" lon="6.30858">
        <ele>167.1</ele>
        <time>2023-03-03T13:29:47Z</time>
      </trkpt>
      <trkpt lat="43.47861" lon="6.30857">
        <ele>167</ele>
        <time>2023-03-03T13:29:48Z</time>
      </trkpt>
      <trkpt lat="43.47861" lon="6.30855">
        <ele>167</ele>
        <time>2023-03-03T13:29:49Z</time>
      </trkpt>
      <trkpt lat="43.47861" lon="6.30854">
        <ele>167</ele>
        <time>2023-03-03T13:29:50Z</time>
      </trkpt>
      <trkpt lat="43.47862" lon="6.30853">
        <ele>167</ele>
        <time>2023-03-03T13:29:51Z</time>
      </trkpt>
      <trkpt lat="43.47862" lon="6.30852">
        <ele>166.9</ele>
        <time>2023-03-03T13:29:52Z</time>
      </trkpt>
      <trkpt lat="43.47862" lon="6.30851">
        <ele>166.9</ele>
        <time>2023-03-03T13:29:53Z</time>
      </trkpt>
      <trkpt lat="43.47863" lon="6.3085">
        <ele>166.8</ele>
        <time>2023-03-03T13:29:54Z</time>
      </trkpt>
      <trkpt lat="43.47863" lon="6.30849">
        <ele>166.7</ele>
        <time>2023-03-03T13:29:55Z</time>
      </trkpt>
      <trkpt lat="43.47863" lon="6.30848">
        <ele>166.7</ele>
        <time>2023-03-03T13:29:56Z</time>
      </trkpt>
      <trkpt lat="43.47863" lon="6.30847">
        <ele>166.6</ele>
        <time>2023-03-03T13:29:57Z</time>
      </trkpt>
      <trkpt lat="43.47863" lon="6.30846">
        <ele>166.6</ele>
        <time>2023-03-03T13:29:58Z</time>
      </trkpt>
      <trkpt lat="43.47863" lon="6.30845">
        <ele>166.6</ele>
        <time>2023-03-03T13:29:59Z</time>
      </trkpt>
      <trkpt lat="43.47864" lon="6.30844">
        <ele>166.6</ele>
        <time>2023-03-03T13:30:00Z</time>
      </trkpt>
      <trkpt lat="43.47864" lon="6.30843">
        <ele>166.5</ele>
        <time>2023-03-03T13:30:01Z</time>
      </trkpt>
      <trkpt lat="43.47864" lon="6.30842">
        <ele>166.4</ele>
        <time>2023-03-03T13:30:02Z</time>
      </trkpt>
      <trkpt lat="43.47864" lon="6.3084">
        <ele>166.4</ele>
        <time>2023-03-03T13:30:03Z</time>
      </trkpt>
      <trkpt lat="43.47864" lon="6.30839">
        <ele>166.4</ele>
        <time>2023-03-03T13:30:04Z</time>
      </trkpt>
      <trkpt lat="43.47864" lon="6.30838">
        <ele>166.4</ele>
        <time>2023-03-03T13:30:05Z</time>
      </trkpt>
      <trkpt lat="43.47865" lon="6.30837">
        <ele>166.4</ele>
        <time>2023-03-03T13:30:06Z</time>
      </trkpt>
      <trkpt lat="43.47864" lon="6.30836">
        <ele>166.4</ele>
        <time>2023-03-03T13:30:07Z</time>
      </trkpt>
      <trkpt lat="43.47864" lon="6.30835">
        <ele>166.3</ele>
        <time>2023-03-03T13:30:08Z</time>
      </trkpt>
      <trkpt lat="43.47864" lon="6.30833">
        <ele>166.2</ele>
        <time>2023-03-03T13:30:09Z</time>
      </trkpt>
      <trkpt lat="43.47864" lon="6.30832">
        <ele>166.1</ele>
        <time>2023-03-03T13:30:10Z</time>
      </trkpt>
      <trkpt lat="43.47864" lon="6.3083">
        <ele>166</ele>
        <time>2023-03-03T13:30:11Z</time>
      </trkpt>
      <trkpt lat="43.47864" lon="6.30829">
        <ele>166.1</ele>
        <time>2023-03-03T13:30:12Z</time>
      </trkpt>
      <trkpt lat="43.47864" lon="6.30827">
        <ele>166</ele>
        <time>2023-03-03T13:30:13Z</time>
      </trkpt>
      <trkpt lat="43.47864" lon="6.30826">
        <ele>166</ele>
        <time>2023-03-03T13:30:14Z</time>
      </trkpt>
      <trkpt lat="43.47864" lon="6.30824">
        <ele>166</ele>
        <time>2023-03-03T13:30:15Z</time>
      </trkpt>
      <trkpt lat="43.47865" lon="6.30823">
        <ele>166</ele>
        <time>2023-03-03T13:30:16Z</time>
      </trkpt>
      <trkpt lat="43.47864" lon="6.30822">
        <ele>166</ele>
        <time>2023-03-03T13:30:17Z</time>
      </trkpt>
      <trkpt lat="43.47865" lon="6.3082">
        <ele>166</ele>
        <time>2023-03-03T13:30:18Z</time>
      </trkpt>
      <trkpt lat="43.47865" lon="6.30819">
        <ele>166.1</ele>
        <time>2023-03-03T13:30:19Z</time>
      </trkpt>
      <trkpt lat="43.47866" lon="6.30818">
        <ele>166</ele>
        <time>2023-03-03T13:30:20Z</time>
      </trkpt>
      <trkpt lat="43.47866" lon="6.30817">
        <ele>166</ele>
        <time>2023-03-03T13:30:21Z</time>
      </trkpt>
      <trkpt lat="43.47866" lon="6.30816">
        <ele>166</ele>
        <time>2023-03-03T13:30:22Z</time>
      </trkpt>
      <trkpt lat="43.47867" lon="6.30815">
        <ele>166</ele>
        <time>2023-03-03T13:30:23Z</time>
      </trkpt>
      <trkpt lat="43.47867" lon="6.30813">
        <ele>166</ele>
        <time>2023-03-03T13:30:24Z</time>
      </trkpt>
      <trkpt lat="43.47868" lon="6.30812">
        <ele>166</ele>
        <time>2023-03-03T13:30:25Z</time>
      </trkpt>
      <trkpt lat="43.47869" lon="6.30811">
        <ele>165.9</ele>
        <time>2023-03-03T13:30:26Z</time>
      </trkpt>
      <trkpt lat="43.47869" lon="6.3081">
        <ele>165.8</ele>
        <time>2023-03-03T13:30:27Z</time>
      </trkpt>
      <trkpt lat="43.4787" lon="6.30808">
        <ele>165.8</ele>
        <time>2023-03-03T13:30:28Z</time>
      </trkpt>
      <trkpt lat="43.4787" lon="6.30807">
        <ele>165.7</ele>
        <time>2023-03-03T13:30:29Z</time>
      </trkpt>
      <trkpt lat="43.47871" lon="6.30806">
        <ele>165.8</ele>
        <time>2023-03-03T13:30:30Z</time>
      </trkpt>
      <trkpt lat="43.47871" lon="6.30805">
        <ele>165.7</ele>
        <time>2023-03-03T13:30:31Z</time>
      </trkpt>
      <trkpt lat="43.47872" lon="6.30804">
        <ele>165.7</ele>
        <time>2023-03-03T13:30:32Z</time>
      </trkpt>
      <trkpt lat="43.47873" lon="6.30803">
        <ele>165.7</ele>
        <time>2023-03-03T13:30:33Z</time>
      </trkpt>
      <trkpt lat="43.47873" lon="6.30802">
        <ele>165.7</ele>
        <time>2023-03-03T13:30:34Z</time>
      </trkpt>
      <trkpt lat="43.47874" lon="6.30801">
        <ele>165.7</ele>
        <time>2023-03-03T13:30:35Z</time>
      </trkpt>
      <trkpt lat="43.47875" lon="6.30799">
        <ele>165.7</ele>
        <time>2023-03-03T13:30:36Z</time>
      </trkpt>
      <trkpt lat="43.47875" lon="6.30799">
        <ele>165.7</ele>
        <time>2023-03-03T13:30:37Z</time>
      </trkpt>
      <trkpt lat="43.47877" lon="6.30797">
        <ele>165.7</ele>
        <time>2023-03-03T13:30:38Z</time>
      </trkpt>
      <trkpt lat="43.47877" lon="6.30797">
        <ele>165.7</ele>
        <time>2023-03-03T13:30:39Z</time>
      </trkpt>
      <trkpt lat="43.47878" lon="6.30796">
        <ele>165.7</ele>
        <time>2023-03-03T13:30:40Z</time>
      </trkpt>
      <trkpt lat="43.47879" lon="6.30795">
        <ele>165.6</ele>
        <time>2023-03-03T13:30:41Z</time>
      </trkpt>
      <trkpt lat="43.4788" lon="6.30794">
        <ele>165.7</ele>
        <time>2023-03-03T13:30:42Z</time>
      </trkpt>
      <trkpt lat="43.4788" lon="6.30793">
        <ele>165.7</ele>
        <time>2023-03-03T13:30:43Z</time>
      </trkpt>
      <trkpt lat="43.47882" lon="6.30792">
        <ele>165.7</ele>
        <time>2023-03-03T13:30:44Z</time>
      </trkpt>
      <trkpt lat="43.47882" lon="6.30791">
        <ele>165.7</ele>
        <time>2023-03-03T13:30:45Z</time>
      </trkpt>
      <trkpt lat="43.47883" lon="6.3079">
        <ele>165.7</ele>
        <time>2023-03-03T13:30:46Z</time>
      </trkpt>
      <trkpt lat="43.47884" lon="6.30789">
        <ele>165.7</ele>
        <time>2023-03-03T13:30:47Z</time>
      </trkpt>
      <trkpt lat="43.47884" lon="6.30788">
        <ele>165.8</ele>
        <time>2023-03-03T13:30:48Z</time>
      </trkpt>
      <trkpt lat="43.47885" lon="6.30786">
        <ele>165.8</ele>
        <time>2023-03-03T13:30:49Z</time>
      </trkpt>
      <trkpt lat="43.47885" lon="6.30784">
        <ele>165.8</ele>
        <time>2023-03-03T13:30:50Z</time>
      </trkpt>
      <trkpt lat="43.47886" lon="6.30783">
        <ele>165.7</ele>
        <time>2023-03-03T13:30:51Z</time>
      </trkpt>
      <trkpt lat="43.47886" lon="6.30782">
        <ele>165.8</ele>
        <time>2023-03-03T13:30:52Z</time>
      </trkpt>
      <trkpt lat="43.47886" lon="6.30781">
        <ele>165.8</ele>
        <time>2023-03-03T13:30:53Z</time>
      </trkpt>
      <trkpt lat="43.47886" lon="6.30779">
        <ele>165.8</ele>
        <time>2023-03-03T13:30:54Z</time>
      </trkpt>
      <trkpt lat="43.47887" lon="6.30778">
        <ele>165.8</ele>
        <time>2023-03-03T13:30:55Z</time>
      </trkpt>
      <trkpt lat="43.47887" lon="6.30777">
        <ele>165.8</ele>
        <time>2023-03-03T13:30:56Z</time>
      </trkpt>
      <trkpt lat="43.47887" lon="6.30775">
        <ele>165.8</ele>
        <time>2023-03-03T13:30:57Z</time>
      </trkpt>
      <trkpt lat="43.47887" lon="6.30774">
        <ele>165.8</ele>
        <time>2023-03-03T13:30:58Z</time>
      </trkpt>
      <trkpt lat="43.47888" lon="6.30772">
        <ele>165.6</ele>
        <time>2023-03-03T13:30:59Z</time>
      </trkpt>
      <trkpt lat="43.47888" lon="6.30771">
        <ele>165.6</ele>
        <time>2023-03-03T13:31:00Z</time>
      </trkpt>
      <trkpt lat="43.47889" lon="6.3077">
        <ele>165.5</ele>
        <time>2023-03-03T13:31:01Z</time>
      </trkpt>
      <trkpt lat="43.47889" lon="6.30768">
        <ele>165.4</ele>
        <time>2023-03-03T13:31:02Z</time>
      </trkpt>
      <trkpt lat="43.47888" lon="6.30767">
        <ele>165.3</ele>
        <time>2023-03-03T13:31:03Z</time>
      </trkpt>
      <trkpt lat="43.47888" lon="6.30766">
        <ele>165.2</ele>
        <time>2023-03-03T13:31:04Z</time>
      </trkpt>
      <trkpt lat="43.47888" lon="6.30764">
        <ele>165.1</ele>
        <time>2023-03-03T13:31:05Z</time>
      </trkpt>
      <trkpt lat="43.47888" lon="6.30763">
        <ele>165</ele>
        <time>2023-03-03T13:31:06Z</time>
      </trkpt>
      <trkpt lat="43.47889" lon="6.30762">
        <ele>164.9</ele>
        <time>2023-03-03T13:31:07Z</time>
      </trkpt>
      <trkpt lat="43.47889" lon="6.30761">
        <ele>164.9</ele>
        <time>2023-03-03T13:31:08Z</time>
      </trkpt>
      <trkpt lat="43.4789" lon="6.30759">
        <ele>164.9</ele>
        <time>2023-03-03T13:31:09Z</time>
      </trkpt>
      <trkpt lat="43.4789" lon="6.30758">
        <ele>164.8</ele>
        <time>2023-03-03T13:31:10Z</time>
      </trkpt>
      <trkpt lat="43.4789" lon="6.30757">
        <ele>164.8</ele>
        <time>2023-03-03T13:31:11Z</time>
      </trkpt>
      <trkpt lat="43.4789" lon="6.30755">
        <ele>164.8</ele>
        <time>2023-03-03T13:31:12Z</time>
      </trkpt>
      <trkpt lat="43.47891" lon="6.30754">
        <ele>164.7</ele>
        <time>2023-03-03T13:31:13Z</time>
      </trkpt>
      <trkpt lat="43.47891" lon="6.30752">
        <ele>164.7</ele>
        <time>2023-03-03T13:31:14Z</time>
      </trkpt>
      <trkpt lat="43.47891" lon="6.30751">
        <ele>164.7</ele>
        <time>2023-03-03T13:31:15Z</time>
      </trkpt>
      <trkpt lat="43.47892" lon="6.3075">
        <ele>164.7</ele>
        <time>2023-03-03T13:31:16Z</time>
      </trkpt>
      <trkpt lat="43.47893" lon="6.30748">
        <ele>164.7</ele>
        <time>2023-03-03T13:31:17Z</time>
      </trkpt>
      <trkpt lat="43.47893" lon="6.30747">
        <ele>164.7</ele>
        <time>2023-03-03T13:31:18Z</time>
      </trkpt>
      <trkpt lat="43.47894" lon="6.30746">
        <ele>164.7</ele>
        <time>2023-03-03T13:31:19Z</time>
      </trkpt>
      <trkpt lat="43.47894" lon="6.30744">
        <ele>164.6</ele>
        <time>2023-03-03T13:31:20Z</time>
      </trkpt>
      <trkpt lat="43.47894" lon="6.30743">
        <ele>164.6</ele>
        <time>2023-03-03T13:31:21Z</time>
      </trkpt>
      <trkpt lat="43.47894" lon="6.30742">
        <ele>164.6</ele>
        <time>2023-03-03T13:31:22Z</time>
      </trkpt>
      <trkpt lat="43.47895" lon="6.3074">
        <ele>164.7</ele>
        <time>2023-03-03T13:31:23Z</time>
      </trkpt>
      <trkpt lat="43.47895" lon="6.30739">
        <ele>164.6</ele>
        <time>2023-03-03T13:31:24Z</time>
      </trkpt>
      <trkpt lat="43.47895" lon="6.30737">
        <ele>164.6</ele>
        <time>2023-03-03T13:31:25Z</time>
      </trkpt>
      <trkpt lat="43.47895" lon="6.30735">
        <ele>164.6</ele>
        <time>2023-03-03T13:31:26Z</time>
      </trkpt>
      <trkpt lat="43.47895" lon="6.30734">
        <ele>164.5</ele>
        <time>2023-03-03T13:31:27Z</time>
      </trkpt>
      <trkpt lat="43.47895" lon="6.30732">
        <ele>164.3</ele>
        <time>2023-03-03T13:31:28Z</time>
      </trkpt>
      <trkpt lat="43.47896" lon="6.30731">
        <ele>164.2</ele>
        <time>2023-03-03T13:31:29Z</time>
      </trkpt>
      <trkpt lat="43.47897" lon="6.3073">
        <ele>164.1</ele>
        <time>2023-03-03T13:31:30Z</time>
      </trkpt>
      <trkpt lat="43.47896" lon="6.30728">
        <ele>164.2</ele>
        <time>2023-03-03T13:31:31Z</time>
      </trkpt>
      <trkpt lat="43.47897" lon="6.30726">
        <ele>164.1</ele>
        <time>2023-03-03T13:31:32Z</time>
      </trkpt>
      <trkpt lat="43.47897" lon="6.30724">
        <ele>164</ele>
        <time>2023-03-03T13:31:33Z</time>
      </trkpt>
      <trkpt lat="43.47897" lon="6.30722">
        <ele>163.9</ele>
        <time>2023-03-03T13:31:34Z</time>
      </trkpt>
      <trkpt lat="43.47897" lon="6.3072">
        <ele>163.9</ele>
        <time>2023-03-03T13:31:35Z</time>
      </trkpt>
      <trkpt lat="43.47897" lon="6.30719">
        <ele>163.8</ele>
        <time>2023-03-03T13:31:36Z</time>
      </trkpt>
      <trkpt lat="43.47898" lon="6.30718">
        <ele>163.8</ele>
        <time>2023-03-03T13:31:37Z</time>
      </trkpt>
      <trkpt lat="43.47898" lon="6.30716">
        <ele>163.7</ele>
        <time>2023-03-03T13:31:38Z</time>
      </trkpt>
      <trkpt lat="43.47899" lon="6.30715">
        <ele>163.7</ele>
        <time>2023-03-03T13:31:39Z</time>
      </trkpt>
      <trkpt lat="43.47899" lon="6.30714">
        <ele>163.7</ele>
        <time>2023-03-03T13:31:40Z</time>
      </trkpt>
      <trkpt lat="43.47899" lon="6.30712">
        <ele>163.6</ele>
        <time>2023-03-03T13:31:41Z</time>
      </trkpt>
      <trkpt lat="43.47899" lon="6.3071">
        <ele>163.6</ele>
        <time>2023-03-03T13:31:42Z</time>
      </trkpt>
      <trkpt lat="43.479" lon="6.30709">
        <ele>163.5</ele>
        <time>2023-03-03T13:31:43Z</time>
      </trkpt>
      <trkpt lat="43.479" lon="6.30707">
        <ele>163.5</ele>
        <time>2023-03-03T13:31:44Z</time>
      </trkpt>
      <trkpt lat="43.479" lon="6.30705">
        <ele>163.5</ele>
        <time>2023-03-03T13:31:45Z</time>
      </trkpt>
      <trkpt lat="43.479" lon="6.30704">
        <ele>163.4</ele>
        <time>2023-03-03T13:31:46Z</time>
      </trkpt>
      <trkpt lat="43.479" lon="6.30702">
        <ele>163.4</ele>
        <time>2023-03-03T13:31:47Z</time>
      </trkpt>
      <trkpt lat="43.479" lon="6.30701">
        <ele>163.4</ele>
        <time>2023-03-03T13:31:48Z</time>
      </trkpt>
      <trkpt lat="43.479" lon="6.30699">
        <ele>163.3</ele>
        <time>2023-03-03T13:31:49Z</time>
      </trkpt>
      <trkpt lat="43.479" lon="6.30698">
        <ele>163.2</ele>
        <time>2023-03-03T13:31:50Z</time>
      </trkpt>
      <trkpt lat="43.47899" lon="6.30696">
        <ele>163.1</ele>
        <time>2023-03-03T13:31:51Z</time>
      </trkpt>
      <trkpt lat="43.479" lon="6.30695">
        <ele>163.1</ele>
        <time>2023-03-03T13:31:52Z</time>
      </trkpt>
      <trkpt lat="43.479" lon="6.30693">
        <ele>163.1</ele>
        <time>2023-03-03T13:31:53Z</time>
      </trkpt>
      <trkpt lat="43.479" lon="6.30692">
        <ele>163.1</ele>
        <time>2023-03-03T13:31:54Z</time>
      </trkpt>
      <trkpt lat="43.479" lon="6.30691">
        <ele>163.1</ele>
        <time>2023-03-03T13:31:55Z</time>
      </trkpt>
      <trkpt lat="43.479" lon="6.30689">
        <ele>163.2</ele>
        <time>2023-03-03T13:31:56Z</time>
      </trkpt>
      <trkpt lat="43.479" lon="6.30688">
        <ele>163.1</ele>
        <time>2023-03-03T13:31:57Z</time>
      </trkpt>
      <trkpt lat="43.479" lon="6.30687">
        <ele>163.2</ele>
        <time>2023-03-03T13:31:58Z</time>
      </trkpt>
      <trkpt lat="43.479" lon="6.30685">
        <ele>163.2</ele>
        <time>2023-03-03T13:31:59Z</time>
      </trkpt>
      <trkpt lat="43.47899" lon="6.30684">
        <ele>163.2</ele>
        <time>2023-03-03T13:32:00Z</time>
      </trkpt>
      <trkpt lat="43.47899" lon="6.30683">
        <ele>163.2</ele>
        <time>2023-03-03T13:32:01Z</time>
      </trkpt>
      <trkpt lat="43.47898" lon="6.30681">
        <ele>163.1</ele>
        <time>2023-03-03T13:32:02Z</time>
      </trkpt>
      <trkpt lat="43.47899" lon="6.3068">
        <ele>163.1</ele>
        <time>2023-03-03T13:32:03Z</time>
      </trkpt>
      <trkpt lat="43.47899" lon="6.30679">
        <ele>163.1</ele>
        <time>2023-03-03T13:32:04Z</time>
      </trkpt>
      <trkpt lat="43.47898" lon="6.30679">
        <ele>163.1</ele>
        <time>2023-03-03T13:32:05Z</time>
      </trkpt>
      <trkpt lat="43.47898" lon="6.30678">
        <ele>163</ele>
        <time>2023-03-03T13:32:06Z</time>
      </trkpt>
      <trkpt lat="43.47898" lon="6.30677">
        <ele>163</ele>
        <time>2023-03-03T13:32:07Z</time>
      </trkpt>
      <trkpt lat="43.47898" lon="6.30676">
        <ele>162.9</ele>
        <time>2023-03-03T13:32:08Z</time>
      </trkpt>
      <trkpt lat="43.47899" lon="6.30676">
        <ele>162.9</ele>
        <time>2023-03-03T13:32:09Z</time>
      </trkpt>
      <trkpt lat="43.47898" lon="6.30676">
        <ele>162.9</ele>
        <time>2023-03-03T13:32:10Z</time>
      </trkpt>
      <trkpt lat="43.47898" lon="6.30676">
        <ele>162.8</ele>
        <time>2023-03-03T13:32:11Z</time>
      </trkpt>
      <trkpt lat="43.47898" lon="6.30675">
        <ele>162.9</ele>
        <time>2023-03-03T13:32:12Z</time>
      </trkpt>
      <trkpt lat="43.47898" lon="6.30675">
        <ele>162.9</ele>
        <time>2023-03-03T13:32:13Z</time>
      </trkpt>
      <trkpt lat="43.47897" lon="6.30674">
        <ele>163</ele>
        <time>2023-03-03T13:32:14Z</time>
      </trkpt>
      <trkpt lat="43.47897" lon="6.30674">
        <ele>163.2</ele>
        <time>2023-03-03T13:32:15Z</time>
      </trkpt>
      <trkpt lat="43.47897" lon="6.30673">
        <ele>163.2</ele>
        <time>2023-03-03T13:32:16Z</time>
      </trkpt>
      <trkpt lat="43.47897" lon="6.30673">
        <ele>163.2</ele>
        <time>2023-03-03T13:32:17Z</time>
      </trkpt>
      <trkpt lat="43.47897" lon="6.30673">
        <ele>163.2</ele>
        <time>2023-03-03T13:32:18Z</time>
      </trkpt>
      <trkpt lat="43.47897" lon="6.30673">
        <ele>163.2</ele>
        <time>2023-03-03T13:32:19Z</time>
      </trkpt>
      <trkpt lat="43.47897" lon="6.30673">
        <ele>163.2</ele>
        <time>2023-03-03T13:32:20Z</time>
      </trkpt>
      <trkpt lat="43.47896" lon="6.30673">
        <ele>163.2</ele>
        <time>2023-03-03T13:32:21Z</time>
      </trkpt>
      <trkpt lat="43.47896" lon="6.30673">
        <ele>163.2</ele>
        <time>2023-03-03T13:32:22Z</time>
      </trkpt>
      <trkpt lat="43.47896" lon="6.30673">
        <ele>163.1</ele>
        <time>2023-03-03T13:32:23Z</time>
      </trkpt>
      <trkpt lat="43.47896" lon="6.30673">
        <ele>163.1</ele>
        <time>2023-03-03T13:32:24Z</time>
      </trkpt>
      <trkpt lat="43.47896" lon="6.30673">
        <ele>163.2</ele>
        <time>2023-03-03T13:32:25Z</time>
      </trkpt>
      <trkpt lat="43.47896" lon="6.30673">
        <ele>163.3</ele>
        <time>2023-03-03T13:32:26Z</time>
      </trkpt>
      <trkpt lat="43.47896" lon="6.30673">
        <ele>163.3</ele>
        <time>2023-03-03T13:32:27Z</time>
      </trkpt>
      <trkpt lat="43.47895" lon="6.30673">
        <ele>163.3</ele>
        <time>2023-03-03T13:32:28Z</time>
      </trkpt>
      <trkpt lat="43.47895" lon="6.30673">
        <ele>163.4</ele>
        <time>2023-03-03T13:32:29Z</time>
      </trkpt>
      <trkpt lat="43.47895" lon="6.30673">
        <ele>163.3</ele>
        <time>2023-03-03T13:32:30Z</time>
      </trkpt>
      <trkpt lat="43.47895" lon="6.30673">
        <ele>163.3</ele>
        <time>2023-03-03T13:32:31Z</time>
      </trkpt>
      <trkpt lat="43.47895" lon="6.30673">
        <ele>163.3</ele>
        <time>2023-03-03T13:32:32Z</time>
      </trkpt>
      <trkpt lat="43.47895" lon="6.30673">
        <ele>163.3</ele>
        <time>2023-03-03T13:32:33Z</time>
      </trkpt>
      <trkpt lat="43.47895" lon="6.30673">
        <ele>163.2</ele>
        <time>2023-03-03T13:32:34Z</time>
      </trkpt>
      <trkpt lat="43.47896" lon="6.30673">
        <ele>163.1</ele>
        <time>2023-03-03T13:32:35Z</time>
      </trkpt>
      <trkpt lat="43.47896" lon="6.30672">
        <ele>163.1</ele>
        <time>2023-03-03T13:32:36Z</time>
      </trkpt>
      <trkpt lat="43.47896" lon="6.30671">
        <ele>163.2</ele>
        <time>2023-03-03T13:32:37Z</time>
      </trkpt>
      <trkpt lat="43.47896" lon="6.30671">
        <ele>163.1</ele>
        <time>2023-03-03T13:32:38Z</time>
      </trkpt>
      <trkpt lat="43.47896" lon="6.30671">
        <ele>163</ele>
        <time>2023-03-03T13:32:39Z</time>
      </trkpt>
      <trkpt lat="43.47896" lon="6.3067">
        <ele>162.9</ele>
        <time>2023-03-03T13:32:40Z</time>
      </trkpt>
      <trkpt lat="43.47895" lon="6.3067">
        <ele>162.9</ele>
        <time>2023-03-03T13:32:41Z</time>
      </trkpt>
      <trkpt lat="43.47895" lon="6.3067">
        <ele>163</ele>
        <time>2023-03-03T13:32:42Z</time>
      </trkpt>
      <trkpt lat="43.47895" lon="6.3067">
        <ele>163.1</ele>
        <time>2023-03-03T13:32:43Z</time>
      </trkpt>
      <trkpt lat="43.47895" lon="6.3067">
        <ele>162.9</ele>
        <time>2023-03-03T13:32:44Z</time>
      </trkpt>
      <trkpt lat="43.47894" lon="6.30669">
        <ele>163</ele>
        <time>2023-03-03T13:32:45Z</time>
      </trkpt>
      <trkpt lat="43.47894" lon="6.30669">
        <ele>163.1</ele>
        <time>2023-03-03T13:32:46Z</time>
      </trkpt>
      <trkpt lat="43.47894" lon="6.30669">
        <ele>163.2</ele>
        <time>2023-03-03T13:32:47Z</time>
      </trkpt>
      <trkpt lat="43.47894" lon="6.30669">
        <ele>163.3</ele>
        <time>2023-03-03T13:32:48Z</time>
      </trkpt>
      <trkpt lat="43.47894" lon="6.30669">
        <ele>163.2</ele>
        <time>2023-03-03T13:32:49Z</time>
      </trkpt>
      <trkpt lat="43.47894" lon="6.30669">
        <ele>163.2</ele>
        <time>2023-03-03T13:32:50Z</time>
      </trkpt>
      <trkpt lat="43.47894" lon="6.30668">
        <ele>163.2</ele>
        <time>2023-03-03T13:32:51Z</time>
      </trkpt>
      <trkpt lat="43.47893" lon="6.30668">
        <ele>163.2</ele>
        <time>2023-03-03T13:32:52Z</time>
      </trkpt>
      <trkpt lat="43.47893" lon="6.30668">
        <ele>163.2</ele>
        <time>2023-03-03T13:32:53Z</time>
      </trkpt>
      <trkpt lat="43.47894" lon="6.30668">
        <ele>163.1</ele>
        <time>2023-03-03T13:32:54Z</time>
      </trkpt>
      <trkpt lat="43.47894" lon="6.30668">
        <ele>163.1</ele>
        <time>2023-03-03T13:32:55Z</time>
      </trkpt>
      <trkpt lat="43.47893" lon="6.30668">
        <ele>163.1</ele>
        <time>2023-03-03T13:32:56Z</time>
      </trkpt>
      <trkpt lat="43.47893" lon="6.30668">
        <ele>163.1</ele>
        <time>2023-03-03T13:32:57Z</time>
      </trkpt>
      <trkpt lat="43.47893" lon="6.30668">
        <ele>163.1</ele>
        <time>2023-03-03T13:32:58Z</time>
      </trkpt>
      <trkpt lat="43.47893" lon="6.30667">
        <ele>163.1</ele>
        <time>2023-03-03T13:32:59Z</time>
      </trkpt>
      <trkpt lat="43.47894" lon="6.30668">
        <ele>163.1</ele>
        <time>2023-03-03T13:33:00Z</time>
      </trkpt>
      <trkpt lat="43.47894" lon="6.30668">
        <ele>163.1</ele>
        <time>2023-03-03T13:33:01Z</time>
      </trkpt>
      <trkpt lat="43.47894" lon="6.30668">
        <ele>163.1</ele>
        <time>2023-03-03T13:33:02Z</time>
      </trkpt>
      <trkpt lat="43.47894" lon="6.30668">
        <ele>163.2</ele>
        <time>2023-03-03T13:33:03Z</time>
      </trkpt>
      <trkpt lat="43.47894" lon="6.30668">
        <ele>163.2</ele>
        <time>2023-03-03T13:33:04Z</time>
      </trkpt>
      <trkpt lat="43.47894" lon="6.30668">
        <ele>163.2</ele>
        <time>2023-03-03T13:33:05Z</time>
      </trkpt>
      <trkpt lat="43.47894" lon="6.30668">
        <ele>163.2</ele>
        <time>2023-03-03T13:33:06Z</time>
      </trkpt>
      <trkpt lat="43.47894" lon="6.30668">
        <ele>163.3</ele>
        <time>2023-03-03T13:33:07Z</time>
      </trkpt>
      <trkpt lat="43.47894" lon="6.30668">
        <ele>163.3</ele>
        <time>2023-03-03T13:33:08Z</time>
      </trkpt>
      <trkpt lat="43.47895" lon="6.30668">
        <ele>163.2</ele>
        <time>2023-03-03T13:33:09Z</time>
      </trkpt>
      <trkpt lat="43.47895" lon="6.30668">
        <ele>163.2</ele>
        <time>2023-03-03T13:33:10Z</time>
      </trkpt>
      <trkpt lat="43.47895" lon="6.30668">
        <ele>163.2</ele>
        <time>2023-03-03T13:33:11Z</time>
      </trkpt>
      <trkpt lat="43.47895" lon="6.30668">
        <ele>163.1</ele>
        <time>2023-03-03T13:33:12Z</time>
      </trkpt>
      <trkpt lat="43.47895" lon="6.30667">
        <ele>163.1</ele>
        <time>2023-03-03T13:33:13Z</time>
      </trkpt>
      <trkpt lat="43.47895" lon="6.30666">
        <ele>163.1</ele>
        <time>2023-03-03T13:33:14Z</time>
      </trkpt>
      <trkpt lat="43.47894" lon="6.30665">
        <ele>163.1</ele>
        <time>2023-03-03T13:33:15Z</time>
      </trkpt>
      <trkpt lat="43.47894" lon="6.30664">
        <ele>163.1</ele>
        <time>2023-03-03T13:33:16Z</time>
      </trkpt>
      <trkpt lat="43.47893" lon="6.30663">
        <ele>163.1</ele>
        <time>2023-03-03T13:33:17Z</time>
      </trkpt>
      <trkpt lat="43.47892" lon="6.30662">
        <ele>163</ele>
        <time>2023-03-03T13:33:18Z</time>
      </trkpt>
      <trkpt lat="43.47891" lon="6.3066">
        <ele>162.9</ele>
        <time>2023-03-03T13:33:19Z</time>
      </trkpt>
      <trkpt lat="43.47891" lon="6.30659">
        <ele>162.7</ele>
        <time>2023-03-03T13:33:20Z</time>
      </trkpt>
      <trkpt lat="43.47889" lon="6.30658">
        <ele>162.4</ele>
        <time>2023-03-03T13:33:21Z</time>
      </trkpt>
      <trkpt lat="43.47888" lon="6.30658">
        <ele>162.2</ele>
        <time>2023-03-03T13:33:22Z</time>
      </trkpt>
      <trkpt lat="43.47886" lon="6.30658">
        <ele>162</ele>
        <time>2023-03-03T13:33:23Z</time>
      </trkpt>
      <trkpt lat="43.47885" lon="6.30658">
        <ele>161.7</ele>
        <time>2023-03-03T13:33:24Z</time>
      </trkpt>
      <trkpt lat="43.47884" lon="6.30658">
        <ele>161.5</ele>
        <time>2023-03-03T13:33:25Z</time>
      </trkpt>
      <trkpt lat="43.47882" lon="6.30658">
        <ele>161.4</ele>
        <time>2023-03-03T13:33:26Z</time>
      </trkpt>
      <trkpt lat="43.47881" lon="6.30658">
        <ele>161.3</ele>
        <time>2023-03-03T13:33:27Z</time>
      </trkpt>
      <trkpt lat="43.4788" lon="6.30657">
        <ele>161.3</ele>
        <time>2023-03-03T13:33:28Z</time>
      </trkpt>
      <trkpt lat="43.47878" lon="6.30657">
        <ele>161.2</ele>
        <time>2023-03-03T13:33:29Z</time>
      </trkpt>
      <trkpt lat="43.47877" lon="6.30656">
        <ele>161.1</ele>
        <time>2023-03-03T13:33:30Z</time>
      </trkpt>
      <trkpt lat="43.47876" lon="6.30656">
        <ele>161</ele>
        <time>2023-03-03T13:33:31Z</time>
      </trkpt>
      <trkpt lat="43.47874" lon="6.30656">
        <ele>161</ele>
        <time>2023-03-03T13:33:32Z</time>
      </trkpt>
      <trkpt lat="43.47874" lon="6.30656">
        <ele>160.9</ele>
        <time>2023-03-03T13:33:33Z</time>
      </trkpt>
      <trkpt lat="43.47873" lon="6.30656">
        <ele>160.8</ele>
        <time>2023-03-03T13:33:34Z</time>
      </trkpt>
      <trkpt lat="43.47873" lon="6.30657">
        <ele>160.8</ele>
        <time>2023-03-03T13:33:35Z</time>
      </trkpt>
      <trkpt lat="43.47873" lon="6.30656">
        <ele>160.8</ele>
        <time>2023-03-03T13:33:36Z</time>
      </trkpt>
      <trkpt lat="43.47873" lon="6.30657">
        <ele>160.8</ele>
        <time>2023-03-03T13:33:37Z</time>
      </trkpt>
      <trkpt lat="43.47872" lon="6.30657">
        <ele>160.8</ele>
        <time>2023-03-03T13:33:38Z</time>
      </trkpt>
      <trkpt lat="43.47871" lon="6.30657">
        <ele>160.8</ele>
        <time>2023-03-03T13:33:39Z</time>
      </trkpt>
      <trkpt lat="43.47871" lon="6.30657">
        <ele>160.5</ele>
        <time>2023-03-03T13:33:40Z</time>
      </trkpt>
      <trkpt lat="43.47871" lon="6.30657">
        <ele>160.6</ele>
        <time>2023-03-03T13:33:41Z</time>
      </trkpt>
      <trkpt lat="43.47872" lon="6.30658">
        <ele>160.6</ele>
        <time>2023-03-03T13:33:42Z</time>
      </trkpt>
      <trkpt lat="43.47872" lon="6.30659">
        <ele>160.6</ele>
        <time>2023-03-03T13:33:43Z</time>
      </trkpt>
      <trkpt lat="43.47873" lon="6.3066">
        <ele>160.5</ele>
        <time>2023-03-03T13:33:44Z</time>
      </trkpt>
      <trkpt lat="43.47872" lon="6.30659">
        <ele>160.5</ele>
        <time>2023-03-03T13:33:45Z</time>
      </trkpt>
      <trkpt lat="43.47872" lon="6.30658">
        <ele>160.6</ele>
        <time>2023-03-03T13:33:46Z</time>
      </trkpt>
      <trkpt lat="43.47871" lon="6.30658">
        <ele>160.7</ele>
        <time>2023-03-03T13:33:47Z</time>
      </trkpt>
      <trkpt lat="43.4787" lon="6.30657">
        <ele>160.7</ele>
        <time>2023-03-03T13:33:48Z</time>
      </trkpt>
      <trkpt lat="43.47869" lon="6.30656">
        <ele>160.6</ele>
        <time>2023-03-03T13:33:49Z</time>
      </trkpt>
      <trkpt lat="43.47867" lon="6.30655">
        <ele>160.6</ele>
        <time>2023-03-03T13:33:50Z</time>
      </trkpt>
      <trkpt lat="43.47866" lon="6.30655">
        <ele>160.6</ele>
        <time>2023-03-03T13:33:51Z</time>
      </trkpt>
      <trkpt lat="43.47866" lon="6.30654">
        <ele>160.5</ele>
        <time>2023-03-03T13:33:52Z</time>
      </trkpt>
      <trkpt lat="43.47865" lon="6.30653">
        <ele>160.4</ele>
        <time>2023-03-03T13:33:53Z</time>
      </trkpt>
      <trkpt lat="43.47864" lon="6.30653">
        <ele>160.4</ele>
        <time>2023-03-03T13:33:54Z</time>
      </trkpt>
      <trkpt lat="43.47863" lon="6.30653">
        <ele>160.5</ele>
        <time>2023-03-03T13:33:55Z</time>
      </trkpt>
      <trkpt lat="43.47863" lon="6.30653">
        <ele>160.4</ele>
        <time>2023-03-03T13:33:56Z</time>
      </trkpt>
      <trkpt lat="43.47863" lon="6.30654">
        <ele>160.5</ele>
        <time>2023-03-03T13:33:57Z</time>
      </trkpt>
      <trkpt lat="43.47862" lon="6.30654">
        <ele>160.4</ele>
        <time>2023-03-03T13:33:58Z</time>
      </trkpt>
      <trkpt lat="43.47862" lon="6.30655">
        <ele>160.4</ele>
        <time>2023-03-03T13:33:59Z</time>
      </trkpt>
      <trkpt lat="43.47861" lon="6.30656">
        <ele>160.4</ele>
        <time>2023-03-03T13:34:00Z</time>
      </trkpt>
      <trkpt lat="43.4786" lon="6.30656">
        <ele>160.4</ele>
        <time>2023-03-03T13:34:01Z</time>
      </trkpt>
      <trkpt lat="43.47859" lon="6.30657">
        <ele>160.4</ele>
        <time>2023-03-03T13:34:02Z</time>
      </trkpt>
      <trkpt lat="43.47858" lon="6.30657">
        <ele>160.4</ele>
        <time>2023-03-03T13:34:03Z</time>
      </trkpt>
      <trkpt lat="43.47857" lon="6.30657">
        <ele>160.4</ele>
        <time>2023-03-03T13:34:04Z</time>
      </trkpt>
      <trkpt lat="43.47856" lon="6.30657">
        <ele>160.4</ele>
        <time>2023-03-03T13:34:05Z</time>
      </trkpt>
      <trkpt lat="43.47854" lon="6.30657">
        <ele>160.3</ele>
        <time>2023-03-03T13:34:06Z</time>
      </trkpt>
      <trkpt lat="43.47853" lon="6.30656">
        <ele>160.2</ele>
        <time>2023-03-03T13:34:07Z</time>
      </trkpt>
      <trkpt lat="43.47852" lon="6.30656">
        <ele>160.1</ele>
        <time>2023-03-03T13:34:08Z</time>
      </trkpt>
      <trkpt lat="43.47851" lon="6.30656">
        <ele>160</ele>
        <time>2023-03-03T13:34:09Z</time>
      </trkpt>
      <trkpt lat="43.4785" lon="6.30656">
        <ele>160</ele>
        <time>2023-03-03T13:34:10Z</time>
      </trkpt>
      <trkpt lat="43.47848" lon="6.30655">
        <ele>159.9</ele>
        <time>2023-03-03T13:34:11Z</time>
      </trkpt>
      <trkpt lat="43.47847" lon="6.30655">
        <ele>159.9</ele>
        <time>2023-03-03T13:34:12Z</time>
      </trkpt>
      <trkpt lat="43.47846" lon="6.30654">
        <ele>159.8</ele>
        <time>2023-03-03T13:34:13Z</time>
      </trkpt>
      <trkpt lat="43.47845" lon="6.30654">
        <ele>159.7</ele>
        <time>2023-03-03T13:34:14Z</time>
      </trkpt>
      <trkpt lat="43.47844" lon="6.30653">
        <ele>159.6</ele>
        <time>2023-03-03T13:34:15Z</time>
      </trkpt>
      <trkpt lat="43.47843" lon="6.30653">
        <ele>159.5</ele>
        <time>2023-03-03T13:34:16Z</time>
      </trkpt>
      <trkpt lat="43.47841" lon="6.30652">
        <ele>159.6</ele>
        <time>2023-03-03T13:34:17Z</time>
      </trkpt>
      <trkpt lat="43.4784" lon="6.30652">
        <ele>159.5</ele>
        <time>2023-03-03T13:34:18Z</time>
      </trkpt>
      <trkpt lat="43.4784" lon="6.30652">
        <ele>159.4</ele>
        <time>2023-03-03T13:34:19Z</time>
      </trkpt>
      <trkpt lat="43.47838" lon="6.30652">
        <ele>159.3</ele>
        <time>2023-03-03T13:34:20Z</time>
      </trkpt>
      <trkpt lat="43.47837" lon="6.30652">
        <ele>159.2</ele>
        <time>2023-03-03T13:34:21Z</time>
      </trkpt>
      <trkpt lat="43.47837" lon="6.30652">
        <ele>159.1</ele>
        <time>2023-03-03T13:34:22Z</time>
      </trkpt>
      <trkpt lat="43.47836" lon="6.30651">
        <ele>159</ele>
        <time>2023-03-03T13:34:23Z</time>
      </trkpt>
      <trkpt lat="43.47835" lon="6.3065">
        <ele>158.9</ele>
        <time>2023-03-03T13:34:24Z</time>
      </trkpt>
      <trkpt lat="43.47834" lon="6.3065">
        <ele>158.8</ele>
        <time>2023-03-03T13:34:25Z</time>
      </trkpt>
      <trkpt lat="43.47833" lon="6.3065">
        <ele>158.7</ele>
        <time>2023-03-03T13:34:26Z</time>
      </trkpt>
      <trkpt lat="43.47832" lon="6.3065">
        <ele>158.6</ele>
        <time>2023-03-03T13:34:27Z</time>
      </trkpt>
      <trkpt lat="43.47831" lon="6.3065">
        <ele>158.6</ele>
        <time>2023-03-03T13:34:28Z</time>
      </trkpt>
      <trkpt lat="43.4783" lon="6.3065">
        <ele>158.5</ele>
        <time>2023-03-03T13:34:29Z</time>
      </trkpt>
      <trkpt lat="43.47829" lon="6.3065">
        <ele>158.5</ele>
        <time>2023-03-03T13:34:30Z</time>
      </trkpt>
      <trkpt lat="43.47829" lon="6.3065">
        <ele>158.5</ele>
        <time>2023-03-03T13:34:31Z</time>
      </trkpt>
      <trkpt lat="43.47828" lon="6.30651">
        <ele>158.4</ele>
        <time>2023-03-03T13:34:32Z</time>
      </trkpt>
      <trkpt lat="43.47827" lon="6.30651">
        <ele>158.3</ele>
        <time>2023-03-03T13:34:33Z</time>
      </trkpt>
      <trkpt lat="43.47827" lon="6.3065">
        <ele>158.2</ele>
        <time>2023-03-03T13:34:34Z</time>
      </trkpt>
      <trkpt lat="43.47827" lon="6.3065">
        <ele>158.1</ele>
        <time>2023-03-03T13:34:35Z</time>
      </trkpt>
      <trkpt lat="43.47827" lon="6.3065">
        <ele>158.1</ele>
        <time>2023-03-03T13:34:36Z</time>
      </trkpt>
      <trkpt lat="43.47827" lon="6.30649">
        <ele>158.1</ele>
        <time>2023-03-03T13:34:37Z</time>
      </trkpt>
      <trkpt lat="43.47827" lon="6.30649">
        <ele>158.1</ele>
        <time>2023-03-03T13:34:38Z</time>
      </trkpt>
      <trkpt lat="43.47827" lon="6.30648">
        <ele>158.1</ele>
        <time>2023-03-03T13:34:39Z</time>
      </trkpt>
      <trkpt lat="43.47826" lon="6.30648">
        <ele>158</ele>
        <time>2023-03-03T13:34:40Z</time>
      </trkpt>
      <trkpt lat="43.47826" lon="6.30648">
        <ele>158.1</ele>
        <time>2023-03-03T13:34:41Z</time>
      </trkpt>
      <trkpt lat="43.47826" lon="6.30648">
        <ele>158.1</ele>
        <time>2023-03-03T13:34:42Z</time>
      </trkpt>
      <trkpt lat="43.47826" lon="6.30648">
        <ele>158.2</ele>
        <time>2023-03-03T13:34:43Z</time>
      </trkpt>
      <trkpt lat="43.47826" lon="6.30648">
        <ele>158.2</ele>
        <time>2023-03-03T13:34:44Z</time>
      </trkpt>
      <trkpt lat="43.47826" lon="6.30648">
        <ele>158.2</ele>
        <time>2023-03-03T13:34:45Z</time>
      </trkpt>
      <trkpt lat="43.47826" lon="6.30648">
        <ele>158.2</ele>
        <time>2023-03-03T13:34:46Z</time>
      </trkpt>
      <trkpt lat="43.47826" lon="6.30648">
        <ele>158.2</ele>
        <time>2023-03-03T13:34:47Z</time>
      </trkpt>
      <trkpt lat="43.47826" lon="6.30648">
        <ele>158.3</ele>
        <time>2023-03-03T13:34:48Z</time>
      </trkpt>
      <trkpt lat="43.47826" lon="6.30648">
        <ele>158.3</ele>
        <time>2023-03-03T13:34:49Z</time>
      </trkpt>
      <trkpt lat="43.47826" lon="6.30648">
        <ele>158.3</ele>
        <time>2023-03-03T13:34:50Z</time>
      </trkpt>
      <trkpt lat="43.47826" lon="6.30647">
        <ele>158.3</ele>
        <time>2023-03-03T13:34:51Z</time>
      </trkpt>
      <trkpt lat="43.47826" lon="6.30647">
        <ele>158.2</ele>
        <time>2023-03-03T13:34:52Z</time>
      </trkpt>
      <trkpt lat="43.47826" lon="6.30647">
        <ele>158.2</ele>
        <time>2023-03-03T13:34:53Z</time>
      </trkpt>
      <trkpt lat="43.47826" lon="6.30647">
        <ele>158.1</ele>
        <time>2023-03-03T13:34:54Z</time>
      </trkpt>
      <trkpt lat="43.47826" lon="6.30647">
        <ele>158</ele>
        <time>2023-03-03T13:34:55Z</time>
      </trkpt>
      <trkpt lat="43.47826" lon="6.30646">
        <ele>158</ele>
        <time>2023-03-03T13:34:56Z</time>
      </trkpt>
      <trkpt lat="43.47826" lon="6.30646">
        <ele>158</ele>
        <time>2023-03-03T13:34:57Z</time>
      </trkpt>
      <trkpt lat="43.47826" lon="6.30646">
        <ele>158</ele>
        <time>2023-03-03T13:34:58Z</time>
      </trkpt>
      <trkpt lat="43.47826" lon="6.30646">
        <ele>158</ele>
        <time>2023-03-03T13:34:59Z</time>
      </trkpt>
      <trkpt lat="43.47826" lon="6.30646">
        <ele>158</ele>
        <time>2023-03-03T13:35:00Z</time>
      </trkpt>
      <trkpt lat="43.47826" lon="6.30646">
        <ele>158</ele>
        <time>2023-03-03T13:35:01Z</time>
      </trkpt>
      <trkpt lat="43.47826" lon="6.30646">
        <ele>158</ele>
        <time>2023-03-03T13:35:02Z</time>
      </trkpt>
      <trkpt lat="43.47826" lon="6.30646">
        <ele>158</ele>
        <time>2023-03-03T13:35:03Z</time>
      </trkpt>
      <trkpt lat="43.47826" lon="6.30646">
        <ele>158</ele>
        <time>2023-03-03T13:35:04Z</time>
      </trkpt>
      <trkpt lat="43.47826" lon="6.30646">
        <ele>158.1</ele>
        <time>2023-03-03T13:35:05Z</time>
      </trkpt>
      <trkpt lat="43.47826" lon="6.30646">
        <ele>158.1</ele>
        <time>2023-03-03T13:35:06Z</time>
      </trkpt>
      <trkpt lat="43.47826" lon="6.30646">
        <ele>158.1</ele>
        <time>2023-03-03T13:35:07Z</time>
      </trkpt>
      <trkpt lat="43.47825" lon="6.30647">
        <ele>158.2</ele>
        <time>2023-03-03T13:35:08Z</time>
      </trkpt>
      <trkpt lat="43.47825" lon="6.30647">
        <ele>158.2</ele>
        <time>2023-03-03T13:35:09Z</time>
      </trkpt>
      <trkpt lat="43.47825" lon="6.30648">
        <ele>158.2</ele>
        <time>2023-03-03T13:35:10Z</time>
      </trkpt>
      <trkpt lat="43.47824" lon="6.30649">
        <ele>158.2</ele>
        <time>2023-03-03T13:35:11Z</time>
      </trkpt>
      <trkpt lat="43.47824" lon="6.30649">
        <ele>158.2</ele>
        <time>2023-03-03T13:35:12Z</time>
      </trkpt>
      <trkpt lat="43.47824" lon="6.3065">
        <ele>158.2</ele>
        <time>2023-03-03T13:35:13Z</time>
      </trkpt>
      <trkpt lat="43.47824" lon="6.3065">
        <ele>158.1</ele>
        <time>2023-03-03T13:35:14Z</time>
      </trkpt>
      <trkpt lat="43.47824" lon="6.3065">
        <ele>158</ele>
        <time>2023-03-03T13:35:15Z</time>
      </trkpt>
      <trkpt lat="43.47824" lon="6.3065">
        <ele>157.9</ele>
        <time>2023-03-03T13:35:16Z</time>
      </trkpt>
      <trkpt lat="43.47824" lon="6.3065">
        <ele>157.8</ele>
        <time>2023-03-03T13:35:17Z</time>
      </trkpt>
      <trkpt lat="43.47824" lon="6.3065">
        <ele>157.8</ele>
        <time>2023-03-03T13:35:18Z</time>
      </trkpt>
      <trkpt lat="43.47824" lon="6.3065">
        <ele>157.8</ele>
        <time>2023-03-03T13:35:19Z</time>
      </trkpt>
      <trkpt lat="43.47824" lon="6.3065">
        <ele>157.7</ele>
        <time>2023-03-03T13:35:20Z</time>
      </trkpt>
      <trkpt lat="43.47824" lon="6.3065">
        <ele>157.7</ele>
        <time>2023-03-03T13:35:21Z</time>
      </trkpt>
      <trkpt lat="43.47824" lon="6.30651">
        <ele>157.7</ele>
        <time>2023-03-03T13:35:22Z</time>
      </trkpt>
      <trkpt lat="43.47825" lon="6.3065">
        <ele>157.8</ele>
        <time>2023-03-03T13:35:23Z</time>
      </trkpt>
      <trkpt lat="43.47825" lon="6.3065">
        <ele>157.8</ele>
        <time>2023-03-03T13:35:24Z</time>
      </trkpt>
      <trkpt lat="43.47826" lon="6.3065">
        <ele>157.9</ele>
        <time>2023-03-03T13:35:25Z</time>
      </trkpt>
      <trkpt lat="43.47826" lon="6.30649">
        <ele>158</ele>
        <time>2023-03-03T13:35:26Z</time>
      </trkpt>
      <trkpt lat="43.47827" lon="6.3065">
        <ele>158.2</ele>
        <time>2023-03-03T13:35:27Z</time>
      </trkpt>
      <trkpt lat="43.47827" lon="6.30649">
        <ele>158.4</ele>
        <time>2023-03-03T13:35:28Z</time>
      </trkpt>
      <trkpt lat="43.47827" lon="6.3065">
        <ele>158.5</ele>
        <time>2023-03-03T13:35:29Z</time>
      </trkpt>
      <trkpt lat="43.47827" lon="6.3065">
        <ele>158.6</ele>
        <time>2023-03-03T13:35:30Z</time>
      </trkpt>
      <trkpt lat="43.47827" lon="6.3065">
        <ele>158.7</ele>
        <time>2023-03-03T13:35:31Z</time>
      </trkpt>
      <trkpt lat="43.47827" lon="6.3065">
        <ele>158.7</ele>
        <time>2023-03-03T13:35:32Z</time>
      </trkpt>
      <trkpt lat="43.47827" lon="6.3065">
        <ele>158.8</ele>
        <time>2023-03-03T13:35:33Z</time>
      </trkpt>
      <trkpt lat="43.47827" lon="6.3065">
        <ele>158.9</ele>
        <time>2023-03-03T13:35:34Z</time>
      </trkpt>
      <trkpt lat="43.47827" lon="6.3065">
        <ele>158.9</ele>
        <time>2023-03-03T13:35:35Z</time>
      </trkpt>
      <trkpt lat="43.47827" lon="6.3065">
        <ele>159</ele>
        <time>2023-03-03T13:35:36Z</time>
      </trkpt>
      <trkpt lat="43.47827" lon="6.3065">
        <ele>159</ele>
        <time>2023-03-03T13:35:37Z</time>
      </trkpt>
      <trkpt lat="43.47827" lon="6.30651">
        <ele>159</ele>
        <time>2023-03-03T13:35:38Z</time>
      </trkpt>
      <trkpt lat="43.47827" lon="6.30651">
        <ele>159</ele>
        <time>2023-03-03T13:35:39Z</time>
      </trkpt>
      <trkpt lat="43.47827" lon="6.30652">
        <ele>159</ele>
        <time>2023-03-03T13:35:40Z</time>
      </trkpt>
      <trkpt lat="43.47826" lon="6.30652">
        <ele>159</ele>
        <time>2023-03-03T13:35:41Z</time>
      </trkpt>
      <trkpt lat="43.47826" lon="6.30652">
        <ele>158.9</ele>
        <time>2023-03-03T13:35:42Z</time>
      </trkpt>
      <trkpt lat="43.47826" lon="6.30652">
        <ele>158.9</ele>
        <time>2023-03-03T13:35:43Z</time>
      </trkpt>
      <trkpt lat="43.47826" lon="6.30653">
        <ele>158.9</ele>
        <time>2023-03-03T13:35:44Z</time>
      </trkpt>
      <trkpt lat="43.47826" lon="6.30653">
        <ele>158.9</ele>
        <time>2023-03-03T13:35:45Z</time>
      </trkpt>
      <trkpt lat="43.47826" lon="6.30653">
        <ele>158.9</ele>
        <time>2023-03-03T13:35:46Z</time>
      </trkpt>
      <trkpt lat="43.47826" lon="6.30653">
        <ele>158.9</ele>
        <time>2023-03-03T13:35:47Z</time>
      </trkpt>
      <trkpt lat="43.47825" lon="6.30653">
        <ele>158.9</ele>
        <time>2023-03-03T13:35:48Z</time>
      </trkpt>
      <trkpt lat="43.47825" lon="6.30654">
        <ele>158.9</ele>
        <time>2023-03-03T13:35:49Z</time>
      </trkpt>
      <trkpt lat="43.47825" lon="6.30654">
        <ele>158.9</ele>
        <time>2023-03-03T13:35:50Z</time>
      </trkpt>
      <trkpt lat="43.47825" lon="6.30654">
        <ele>158.8</ele>
        <time>2023-03-03T13:35:51Z</time>
      </trkpt>
      <trkpt lat="43.47825" lon="6.30654">
        <ele>158.8</ele>
        <time>2023-03-03T13:35:52Z</time>
      </trkpt>
      <trkpt lat="43.47825" lon="6.30654">
        <ele>158.8</ele>
        <time>2023-03-03T13:35:53Z</time>
      </trkpt>
      <trkpt lat="43.47825" lon="6.30654">
        <ele>158.8</ele>
        <time>2023-03-03T13:35:54Z</time>
      </trkpt>
      <trkpt lat="43.47825" lon="6.30654">
        <ele>158.8</ele>
        <time>2023-03-03T13:35:55Z</time>
      </trkpt>
      <trkpt lat="43.47825" lon="6.30654">
        <ele>158.8</ele>
        <time>2023-03-03T13:35:56Z</time>
      </trkpt>
      <trkpt lat="43.47825" lon="6.30655">
        <ele>158.8</ele>
        <time>2023-03-03T13:35:57Z</time>
      </trkpt>
      <trkpt lat="43.47825" lon="6.30655">
        <ele>158.8</ele>
        <time>2023-03-03T13:35:58Z</time>
      </trkpt>
      <trkpt lat="43.47825" lon="6.30655">
        <ele>158.9</ele>
        <time>2023-03-03T13:35:59Z</time>
      </trkpt>
      <trkpt lat="43.47824" lon="6.30654">
        <ele>159</ele>
        <time>2023-03-03T13:36:00Z</time>
      </trkpt>
      <trkpt lat="43.47824" lon="6.30655">
        <ele>159</ele>
        <time>2023-03-03T13:36:01Z</time>
      </trkpt>
      <trkpt lat="43.47824" lon="6.30654">
        <ele>159</ele>
        <time>2023-03-03T13:36:02Z</time>
      </trkpt>
      <trkpt lat="43.47824" lon="6.30654">
        <ele>158.9</ele>
        <time>2023-03-03T13:36:03Z</time>
      </trkpt>
      <trkpt lat="43.47824" lon="6.30654">
        <ele>158.9</ele>
        <time>2023-03-03T13:36:04Z</time>
      </trkpt>
      <trkpt lat="43.47824" lon="6.30654">
        <ele>158.9</ele>
        <time>2023-03-03T13:36:05Z</time>
      </trkpt>
      <trkpt lat="43.47824" lon="6.30654">
        <ele>159</ele>
        <time>2023-03-03T13:36:06Z</time>
      </trkpt>
      <trkpt lat="43.47824" lon="6.30654">
        <ele>159</ele>
        <time>2023-03-03T13:36:07Z</time>
      </trkpt>
      <trkpt lat="43.47825" lon="6.30653">
        <ele>159</ele>
        <time>2023-03-03T13:36:08Z</time>
      </trkpt>
      <trkpt lat="43.47825" lon="6.30653">
        <ele>159</ele>
        <time>2023-03-03T13:36:09Z</time>
      </trkpt>
      <trkpt lat="43.47825" lon="6.30652">
        <ele>159</ele>
        <time>2023-03-03T13:36:10Z</time>
      </trkpt>
      <trkpt lat="43.47825" lon="6.30651">
        <ele>159</ele>
        <time>2023-03-03T13:36:11Z</time>
      </trkpt>
      <trkpt lat="43.47826" lon="6.30651">
        <ele>159</ele>
        <time>2023-03-03T13:36:12Z</time>
      </trkpt>
      <trkpt lat="43.47826" lon="6.30651">
        <ele>159</ele>
        <time>2023-03-03T13:36:13Z</time>
      </trkpt>
      <trkpt lat="43.47826" lon="6.30651">
        <ele>159</ele>
        <time>2023-03-03T13:36:14Z</time>
      </trkpt>
      <trkpt lat="43.47826" lon="6.30651">
        <ele>159</ele>
        <time>2023-03-03T13:36:15Z</time>
      </trkpt>
      <trkpt lat="43.47826" lon="6.30651">
        <ele>158.9</ele>
        <time>2023-03-03T13:36:16Z</time>
      </trkpt>
      <trkpt lat="43.47825" lon="6.30652">
        <ele>158.9</ele>
        <time>2023-03-03T13:36:17Z</time>
      </trkpt>
      <trkpt lat="43.47825" lon="6.30653">
        <ele>158.9</ele>
        <time>2023-03-03T13:36:18Z</time>
      </trkpt>
      <trkpt lat="43.47825" lon="6.30653">
        <ele>158.9</ele>
        <time>2023-03-03T13:36:19Z</time>
      </trkpt>
      <trkpt lat="43.47824" lon="6.30654">
        <ele>158.8</ele>
        <time>2023-03-03T13:36:20Z</time>
      </trkpt>
      <trkpt lat="43.47824" lon="6.30654">
        <ele>158.8</ele>
        <time>2023-03-03T13:36:21Z</time>
      </trkpt>
      <trkpt lat="43.47824" lon="6.30654">
        <ele>158.9</ele>
        <time>2023-03-03T13:36:22Z</time>
      </trkpt>
      <trkpt lat="43.47824" lon="6.30654">
        <ele>158.9</ele>
        <time>2023-03-03T13:36:23Z</time>
      </trkpt>
      <trkpt lat="43.47824" lon="6.30654">
        <ele>158.9</ele>
        <time>2023-03-03T13:36:24Z</time>
      </trkpt>
      <trkpt lat="43.47825" lon="6.30654">
        <ele>158.9</ele>
        <time>2023-03-03T13:36:25Z</time>
      </trkpt>
      <trkpt lat="43.47825" lon="6.30654">
        <ele>158.9</ele>
        <time>2023-03-03T13:36:26Z</time>
      </trkpt>
      <trkpt lat="43.47825" lon="6.30654">
        <ele>159</ele>
        <time>2023-03-03T13:36:27Z</time>
      </trkpt>
      <trkpt lat="43.47825" lon="6.30654">
        <ele>159</ele>
        <time>2023-03-03T13:36:28Z</time>
      </trkpt>
      <trkpt lat="43.47825" lon="6.30654">
        <ele>159</ele>
        <time>2023-03-03T13:36:29Z</time>
      </trkpt>
      <trkpt lat="43.47825" lon="6.30654">
        <ele>159</ele>
        <time>2023-03-03T13:36:30Z</time>
      </trkpt>
      <trkpt lat="43.47825" lon="6.30654">
        <ele>159</ele>
        <time>2023-03-03T13:36:31Z</time>
      </trkpt>
      <trkpt lat="43.47825" lon="6.30654">
        <ele>159</ele>
        <time>2023-03-03T13:36:32Z</time>
      </trkpt>
      <trkpt lat="43.47825" lon="6.30654">
        <ele>159</ele>
        <time>2023-03-03T13:36:33Z</time>
      </trkpt>
      <trkpt lat="43.47825" lon="6.30654">
        <ele>158.9</ele>
        <time>2023-03-03T13:36:34Z</time>
      </trkpt>
      <trkpt lat="43.47825" lon="6.30654">
        <ele>158.8</ele>
        <time>2023-03-03T13:36:35Z</time>
      </trkpt>
      <trkpt lat="43.47825" lon="6.30654">
        <ele>158.8</ele>
        <time>2023-03-03T13:36:36Z</time>
      </trkpt>
      <trkpt lat="43.47825" lon="6.30654">
        <ele>158.8</ele>
        <time>2023-03-03T13:36:37Z</time>
      </trkpt>
      <trkpt lat="43.47825" lon="6.30653">
        <ele>158.8</ele>
        <time>2023-03-03T13:36:38Z</time>
      </trkpt>
      <trkpt lat="43.47825" lon="6.30653">
        <ele>158.9</ele>
        <time>2023-03-03T13:36:39Z</time>
      </trkpt>
      <trkpt lat="43.47825" lon="6.30653">
        <ele>158.9</ele>
        <time>2023-03-03T13:36:40Z</time>
      </trkpt>
      <trkpt lat="43.47825" lon="6.30653">
        <ele>158.9</ele>
        <time>2023-03-03T13:36:41Z</time>
      </trkpt>
      <trkpt lat="43.47825" lon="6.30653">
        <ele>158.9</ele>
        <time>2023-03-03T13:36:42Z</time>
      </trkpt>
      <trkpt lat="43.47825" lon="6.30653">
        <ele>159</ele>
        <time>2023-03-03T13:36:43Z</time>
      </trkpt>
      <trkpt lat="43.47825" lon="6.30653">
        <ele>159</ele>
        <time>2023-03-03T13:36:44Z</time>
      </trkpt>
      <trkpt lat="43.47825" lon="6.30653">
        <ele>158.9</ele>
        <time>2023-03-03T13:36:45Z</time>
      </trkpt>
      <trkpt lat="43.47825" lon="6.30653">
        <ele>159</ele>
        <time>2023-03-03T13:36:46Z</time>
      </trkpt>
      <trkpt lat="43.47824" lon="6.30653">
        <ele>159</ele>
        <time>2023-03-03T13:36:47Z</time>
      </trkpt>
      <trkpt lat="43.47824" lon="6.30653">
        <ele>159</ele>
        <time>2023-03-03T13:36:48Z</time>
      </trkpt>
      <trkpt lat="43.47824" lon="6.30653">
        <ele>159</ele>
        <time>2023-03-03T13:36:49Z</time>
      </trkpt>
      <trkpt lat="43.47824" lon="6.30653">
        <ele>159.1</ele>
        <time>2023-03-03T13:36:50Z</time>
      </trkpt>
      <trkpt lat="43.47824" lon="6.30653">
        <ele>159.1</ele>
        <time>2023-03-03T13:36:51Z</time>
      </trkpt>
      <trkpt lat="43.47824" lon="6.30653">
        <ele>159.1</ele>
        <time>2023-03-03T13:36:52Z</time>
      </trkpt>
      <trkpt lat="43.47824" lon="6.30653">
        <ele>159</ele>
        <time>2023-03-03T13:36:53Z</time>
      </trkpt>
      <trkpt lat="43.47824" lon="6.30653">
        <ele>159</ele>
        <time>2023-03-03T13:36:54Z</time>
      </trkpt>
      <trkpt lat="43.47824" lon="6.30653">
        <ele>159</ele>
        <time>2023-03-03T13:36:55Z</time>
      </trkpt>
      <trkpt lat="43.47824" lon="6.30653">
        <ele>159.1</ele>
        <time>2023-03-03T13:36:56Z</time>
      </trkpt>
      <trkpt lat="43.47824" lon="6.30653">
        <ele>159.1</ele>
        <time>2023-03-03T13:36:57Z</time>
      </trkpt>
      <trkpt lat="43.47824" lon="6.30653">
        <ele>159.1</ele>
        <time>2023-03-03T13:36:58Z</time>
      </trkpt>
      <trkpt lat="43.47824" lon="6.30653">
        <ele>159.1</ele>
        <time>2023-03-03T13:36:59Z</time>
      </trkpt>
      <trkpt lat="43.47824" lon="6.30653">
        <ele>159.1</ele>
        <time>2023-03-03T13:37:00Z</time>
      </trkpt>
      <trkpt lat="43.47824" lon="6.30653">
        <ele>159.1</ele>
        <time>2023-03-03T13:37:01Z</time>
      </trkpt>
      <trkpt lat="43.47824" lon="6.30653">
        <ele>159.1</ele>
        <time>2023-03-03T13:37:02Z</time>
      </trkpt>
      <trkpt lat="43.47824" lon="6.30653">
        <ele>159.2</ele>
        <time>2023-03-03T13:37:03Z</time>
      </trkpt>
      <trkpt lat="43.47824" lon="6.30653">
        <ele>159.1</ele>
        <time>2023-03-03T13:37:04Z</time>
      </trkpt>
      <trkpt lat="43.47824" lon="6.30653">
        <ele>159</ele>
        <time>2023-03-03T13:37:05Z</time>
      </trkpt>
      <trkpt lat="43.47824" lon="6.30653">
        <ele>159</ele>
        <time>2023-03-03T13:37:06Z</time>
      </trkpt>
      <trkpt lat="43.47824" lon="6.30653">
        <ele>159</ele>
        <time>2023-03-03T13:37:07Z</time>
      </trkpt>
      <trkpt lat="43.47824" lon="6.30653">
        <ele>158.9</ele>
        <time>2023-03-03T13:37:08Z</time>
      </trkpt>
      <trkpt lat="43.47824" lon="6.30653">
        <ele>158.9</ele>
        <time>2023-03-03T13:37:09Z</time>
      </trkpt>
      <trkpt lat="43.47824" lon="6.30653">
        <ele>158.9</ele>
        <time>2023-03-03T13:37:10Z</time>
      </trkpt>
      <trkpt lat="43.47824" lon="6.30653">
        <ele>158.9</ele>
        <time>2023-03-03T13:37:11Z</time>
      </trkpt>
      <trkpt lat="43.47824" lon="6.30653">
        <ele>158.9</ele>
        <time>2023-03-03T13:37:12Z</time>
      </trkpt>
      <trkpt lat="43.47824" lon="6.30653">
        <ele>158.9</ele>
        <time>2023-03-03T13:37:13Z</time>
      </trkpt>
      <trkpt lat="43.47824" lon="6.30653">
        <ele>158.9</ele>
        <time>2023-03-03T13:37:14Z</time>
      </trkpt>
      <trkpt lat="43.47824" lon="6.30653">
        <ele>158.9</ele>
        <time>2023-03-03T13:37:15Z</time>
      </trkpt>
      <trkpt lat="43.47824" lon="6.30653">
        <ele>158.9</ele>
        <time>2023-03-03T13:37:16Z</time>
      </trkpt>
      <trkpt lat="43.47825" lon="6.30653">
        <ele>158.9</ele>
        <time>2023-03-03T13:37:17Z</time>
      </trkpt>
      <trkpt lat="43.47825" lon="6.30653">
        <ele>158.9</ele>
        <time>2023-03-03T13:37:18Z</time>
      </trkpt>
      <trkpt lat="43.47825" lon="6.30653">
        <ele>158.9</ele>
        <time>2023-03-03T13:37:19Z</time>
      </trkpt>
      <trkpt lat="43.47825" lon="6.30653">
        <ele>159</ele>
        <time>2023-03-03T13:37:20Z</time>
      </trkpt>
      <trkpt lat="43.47825" lon="6.30653">
        <ele>159</ele>
        <time>2023-03-03T13:37:21Z</time>
      </trkpt>
      <trkpt lat="43.47825" lon="6.30653">
        <ele>159</ele>
        <time>2023-03-03T13:37:22Z</time>
      </trkpt>
      <trkpt lat="43.47825" lon="6.30653">
        <ele>159</ele>
        <time>2023-03-03T13:37:23Z</time>
      </trkpt>
      <trkpt lat="43.47825" lon="6.30653">
        <ele>159</ele>
        <time>2023-03-03T13:37:24Z</time>
      </trkpt>
      <trkpt lat="43.47825" lon="6.30653">
        <ele>159</ele>
        <time>2023-03-03T13:37:25Z</time>
      </trkpt>
      <trkpt lat="43.47825" lon="6.30653">
        <ele>158.9</ele>
        <time>2023-03-03T13:37:26Z</time>
      </trkpt>
      <trkpt lat="43.47825" lon="6.30653">
        <ele>159</ele>
        <time>2023-03-03T13:37:27Z</time>
      </trkpt>
      <trkpt lat="43.47825" lon="6.30653">
        <ele>159</ele>
        <time>2023-03-03T13:37:28Z</time>
      </trkpt>
      <trkpt lat="43.47825" lon="6.30653">
        <ele>159.1</ele>
        <time>2023-03-03T13:37:29Z</time>
      </trkpt>
      <trkpt lat="43.47825" lon="6.30653">
        <ele>159.1</ele>
        <time>2023-03-03T13:37:30Z</time>
      </trkpt>
      <trkpt lat="43.47825" lon="6.30653">
        <ele>159.1</ele>
        <time>2023-03-03T13:37:31Z</time>
      </trkpt>
      <trkpt lat="43.47825" lon="6.30653">
        <ele>159.1</ele>
        <time>2023-03-03T13:37:32Z</time>
      </trkpt>
      <trkpt lat="43.47824" lon="6.30653">
        <ele>159</ele>
        <time>2023-03-03T13:37:33Z</time>
      </trkpt>
      <trkpt lat="43.47824" lon="6.30653">
        <ele>159</ele>
        <time>2023-03-03T13:37:34Z</time>
      </trkpt>
      <trkpt lat="43.47824" lon="6.30653">
        <ele>159</ele>
        <time>2023-03-03T13:37:35Z</time>
      </trkpt>
      <trkpt lat="43.47824" lon="6.30653">
        <ele>159</ele>
        <time>2023-03-03T13:37:36Z</time>
      </trkpt>
      <trkpt lat="43.47824" lon="6.30653">
        <ele>159</ele>
        <time>2023-03-03T13:37:37Z</time>
      </trkpt>
      <trkpt lat="43.47824" lon="6.30653">
        <ele>159</ele>
        <time>2023-03-03T13:37:38Z</time>
      </trkpt>
      <trkpt lat="43.47824" lon="6.30653">
        <ele>159</ele>
        <time>2023-03-03T13:37:39Z</time>
      </trkpt>
      <trkpt lat="43.47824" lon="6.30653">
        <ele>159</ele>
        <time>2023-03-03T13:37:40Z</time>
      </trkpt>
      <trkpt lat="43.47824" lon="6.30653">
        <ele>159</ele>
        <time>2023-03-03T13:37:41Z</time>
      </trkpt>
      <trkpt lat="43.47825" lon="6.30653">
        <ele>158.9</ele>
        <time>2023-03-03T13:37:42Z</time>
      </trkpt>
      <trkpt lat="43.47825" lon="6.30653">
        <ele>159</ele>
        <time>2023-03-03T13:37:43Z</time>
      </trkpt>
      <trkpt lat="43.47825" lon="6.30653">
        <ele>159</ele>
        <time>2023-03-03T13:37:44Z</time>
      </trkpt>
      <trkpt lat="43.47825" lon="6.30653">
        <ele>159.1</ele>
        <time>2023-03-03T13:37:45Z</time>
      </trkpt>
      <trkpt lat="43.47825" lon="6.30653">
        <ele>159</ele>
        <time>2023-03-03T13:37:46Z</time>
      </trkpt>
      <trkpt lat="43.47825" lon="6.30653">
        <ele>158.9</ele>
        <time>2023-03-03T13:37:47Z</time>
      </trkpt>
      <trkpt lat="43.47825" lon="6.30653">
        <ele>158.9</ele>
        <time>2023-03-03T13:37:48Z</time>
      </trkpt>
      <trkpt lat="43.47825" lon="6.30652">
        <ele>158.9</ele>
        <time>2023-03-03T13:37:49Z</time>
      </trkpt>
      <trkpt lat="43.47825" lon="6.30652">
        <ele>159</ele>
        <time>2023-03-03T13:37:50Z</time>
      </trkpt>
      <trkpt lat="43.47825" lon="6.30652">
        <ele>159</ele>
        <time>2023-03-03T13:37:51Z</time>
      </trkpt>
      <trkpt lat="43.47825" lon="6.30652">
        <ele>159</ele>
        <time>2023-03-03T13:37:52Z</time>
      </trkpt>
      <trkpt lat="43.47825" lon="6.30652">
        <ele>159</ele>
        <time>2023-03-03T13:37:53Z</time>
      </trkpt>
      <trkpt lat="43.47825" lon="6.30652">
        <ele>159</ele>
        <time>2023-03-03T13:37:54Z</time>
      </trkpt>
      <trkpt lat="43.47825" lon="6.30652">
        <ele>159</ele>
        <time>2023-03-03T13:37:55Z</time>
      </trkpt>
      <trkpt lat="43.47825" lon="6.30652">
        <ele>159</ele>
        <time>2023-03-03T13:37:56Z</time>
      </trkpt>
      <trkpt lat="43.47825" lon="6.30652">
        <ele>159</ele>
        <time>2023-03-03T13:37:57Z</time>
      </trkpt>
      <trkpt lat="43.47825" lon="6.30652">
        <ele>159</ele>
        <time>2023-03-03T13:37:58Z</time>
      </trkpt>
      <trkpt lat="43.47825" lon="6.30652">
        <ele>159</ele>
        <time>2023-03-03T13:37:59Z</time>
      </trkpt>
      <trkpt lat="43.47825" lon="6.30652">
        <ele>159</ele>
        <time>2023-03-03T13:38:00Z</time>
      </trkpt>
      <trkpt lat="43.47825" lon="6.30652">
        <ele>159</ele>
        <time>2023-03-03T13:38:01Z</time>
      </trkpt>
      <trkpt lat="43.47825" lon="6.30652">
        <ele>159</ele>
        <time>2023-03-03T13:38:02Z</time>
      </trkpt>
      <trkpt lat="43.47825" lon="6.30652">
        <ele>159</ele>
        <time>2023-03-03T13:38:03Z</time>
      </trkpt>
      <trkpt lat="43.47825" lon="6.30652">
        <ele>159</ele>
        <time>2023-03-03T13:38:04Z</time>
      </trkpt>
      <trkpt lat="43.47825" lon="6.30652">
        <ele>159</ele>
        <time>2023-03-03T13:38:05Z</time>
      </trkpt>
      <trkpt lat="43.47825" lon="6.30651">
        <ele>159</ele>
        <time>2023-03-03T13:38:06Z</time>
      </trkpt>
      <trkpt lat="43.47825" lon="6.30652">
        <ele>159.1</ele>
        <time>2023-03-03T13:38:07Z</time>
      </trkpt>
      <trkpt lat="43.47825" lon="6.30651">
        <ele>159.1</ele>
        <time>2023-03-03T13:38:08Z</time>
      </trkpt>
      <trkpt lat="43.47826" lon="6.30651">
        <ele>159</ele>
        <time>2023-03-03T13:38:09Z</time>
      </trkpt>
      <trkpt lat="43.47826" lon="6.30651">
        <ele>159.1</ele>
        <time>2023-03-03T13:38:10Z</time>
      </trkpt>
      <trkpt lat="43.47826" lon="6.30651">
        <ele>159.1</ele>
        <time>2023-03-03T13:38:11Z</time>
      </trkpt>
      <trkpt lat="43.47826" lon="6.30651">
        <ele>159.1</ele>
        <time>2023-03-03T13:38:12Z</time>
      </trkpt>
      <trkpt lat="43.47826" lon="6.30652">
        <ele>159.2</ele>
        <time>2023-03-03T13:38:13Z</time>
      </trkpt>
      <trkpt lat="43.47825" lon="6.30652">
        <ele>159.1</ele>
        <time>2023-03-03T13:38:14Z</time>
      </trkpt>
      <trkpt lat="43.47825" lon="6.30652">
        <ele>159</ele>
        <time>2023-03-03T13:38:15Z</time>
      </trkpt>
      <trkpt lat="43.47825" lon="6.30652">
        <ele>158.9</ele>
        <time>2023-03-03T13:38:16Z</time>
      </trkpt>
      <trkpt lat="43.47825" lon="6.30652">
        <ele>158.8</ele>
        <time>2023-03-03T13:38:17Z</time>
      </trkpt>
      <trkpt lat="43.47825" lon="6.30652">
        <ele>158.9</ele>
        <time>2023-03-03T13:38:18Z</time>
      </trkpt>
      <trkpt lat="43.47825" lon="6.30652">
        <ele>159</ele>
        <time>2023-03-03T13:38:19Z</time>
      </trkpt>
      <trkpt lat="43.47825" lon="6.30652">
        <ele>158.9</ele>
        <time>2023-03-03T13:38:20Z</time>
      </trkpt>
      <trkpt lat="43.47825" lon="6.30652">
        <ele>158.9</ele>
        <time>2023-03-03T13:38:21Z</time>
      </trkpt>
      <trkpt lat="43.47825" lon="6.30652">
        <ele>158.9</ele>
        <time>2023-03-03T13:38:22Z</time>
      </trkpt>
      <trkpt lat="43.47825" lon="6.30652">
        <ele>158.8</ele>
        <time>2023-03-03T13:38:23Z</time>
      </trkpt>
      <trkpt lat="43.47826" lon="6.30652">
        <ele>158.8</ele>
        <time>2023-03-03T13:38:24Z</time>
      </trkpt>
      <trkpt lat="43.47826" lon="6.30652">
        <ele>158.8</ele>
        <time>2023-03-03T13:38:25Z</time>
      </trkpt>
      <trkpt lat="43.47826" lon="6.30652">
        <ele>158.7</ele>
        <time>2023-03-03T13:38:26Z</time>
      </trkpt>
      <trkpt lat="43.47826" lon="6.30652">
        <ele>158.7</ele>
        <time>2023-03-03T13:38:27Z</time>
      </trkpt>
      <trkpt lat="43.47826" lon="6.30652">
        <ele>158.7</ele>
        <time>2023-03-03T13:38:28Z</time>
      </trkpt>
      <trkpt lat="43.47826" lon="6.30652">
        <ele>158.6</ele>
        <time>2023-03-03T13:38:29Z</time>
      </trkpt>
      <trkpt lat="43.47826" lon="6.30652">
        <ele>158.6</ele>
        <time>2023-03-03T13:38:30Z</time>
      </trkpt>
      <trkpt lat="43.47826" lon="6.30652">
        <ele>158.6</ele>
        <time>2023-03-03T13:38:31Z</time>
      </trkpt>
      <trkpt lat="43.47826" lon="6.30652">
        <ele>158.6</ele>
        <time>2023-03-03T13:38:32Z</time>
      </trkpt>
      <trkpt lat="43.47826" lon="6.30652">
        <ele>158.5</ele>
        <time>2023-03-03T13:38:33Z</time>
      </trkpt>
      <trkpt lat="43.47826" lon="6.30652">
        <ele>158.5</ele>
        <time>2023-03-03T13:38:34Z</time>
      </trkpt>
      <trkpt lat="43.47826" lon="6.30652">
        <ele>158.5</ele>
        <time>2023-03-03T13:38:35Z</time>
      </trkpt>
      <trkpt lat="43.47827" lon="6.30652">
        <ele>158.5</ele>
        <time>2023-03-03T13:38:36Z</time>
      </trkpt>
      <trkpt lat="43.47826" lon="6.30652">
        <ele>158.5</ele>
        <time>2023-03-03T13:38:37Z</time>
      </trkpt>
      <trkpt lat="43.47826" lon="6.30652">
        <ele>158.5</ele>
        <time>2023-03-03T13:38:38Z</time>
      </trkpt>
      <trkpt lat="43.47826" lon="6.30652">
        <ele>158.4</ele>
        <time>2023-03-03T13:38:39Z</time>
      </trkpt>
      <trkpt lat="43.47826" lon="6.30652">
        <ele>158.4</ele>
        <time>2023-03-03T13:38:40Z</time>
      </trkpt>
      <trkpt lat="43.47826" lon="6.30652">
        <ele>158.4</ele>
        <time>2023-03-03T13:38:41Z</time>
      </trkpt>
      <trkpt lat="43.47826" lon="6.30652">
        <ele>158.4</ele>
        <time>2023-03-03T13:38:42Z</time>
      </trkpt>
      <trkpt lat="43.47826" lon="6.30652">
        <ele>158.4</ele>
        <time>2023-03-03T13:38:43Z</time>
      </trkpt>
      <trkpt lat="43.47826" lon="6.30652">
        <ele>158.4</ele>
        <time>2023-03-03T13:38:44Z</time>
      </trkpt>
      <trkpt lat="43.47826" lon="6.30651">
        <ele>158.4</ele>
        <time>2023-03-03T13:38:45Z</time>
      </trkpt>
      <trkpt lat="43.47826" lon="6.30651">
        <ele>158.3</ele>
        <time>2023-03-03T13:38:46Z</time>
      </trkpt>
      <trkpt lat="43.47826" lon="6.30651">
        <ele>158.2</ele>
        <time>2023-03-03T13:38:47Z</time>
      </trkpt>
      <trkpt lat="43.47826" lon="6.30651">
        <ele>158.2</ele>
        <time>2023-03-03T13:38:48Z</time>
      </trkpt>
      <trkpt lat="43.47826" lon="6.30651">
        <ele>158.3</ele>
        <time>2023-03-03T13:38:49Z</time>
      </trkpt>
      <trkpt lat="43.47826" lon="6.30651">
        <ele>158.3</ele>
        <time>2023-03-03T13:38:50Z</time>
      </trkpt>
      <trkpt lat="43.47826" lon="6.30651">
        <ele>158.3</ele>
        <time>2023-03-03T13:38:51Z</time>
      </trkpt>
      <trkpt lat="43.47826" lon="6.30651">
        <ele>158.2</ele>
        <time>2023-03-03T13:38:52Z</time>
      </trkpt>
      <trkpt lat="43.47826" lon="6.30651">
        <ele>158.3</ele>
        <time>2023-03-03T13:38:53Z</time>
      </trkpt>
      <trkpt lat="43.47826" lon="6.30651">
        <ele>158.2</ele>
        <time>2023-03-03T13:38:54Z</time>
      </trkpt>
      <trkpt lat="43.47826" lon="6.30651">
        <ele>158.2</ele>
        <time>2023-03-03T13:38:55Z</time>
      </trkpt>
      <trkpt lat="43.47826" lon="6.30651">
        <ele>158.2</ele>
        <time>2023-03-03T13:38:56Z</time>
      </trkpt>
      <trkpt lat="43.47826" lon="6.30651">
        <ele>158.2</ele>
        <time>2023-03-03T13:38:57Z</time>
      </trkpt>
      <trkpt lat="43.47826" lon="6.30651">
        <ele>158.2</ele>
        <time>2023-03-03T13:38:58Z</time>
      </trkpt>
      <trkpt lat="43.47826" lon="6.30651">
        <ele>158.2</ele>
        <time>2023-03-03T13:38:59Z</time>
      </trkpt>
      <trkpt lat="43.47826" lon="6.30651">
        <ele>158.2</ele>
        <time>2023-03-03T13:39:00Z</time>
      </trkpt>
      <trkpt lat="43.47826" lon="6.3065">
        <ele>158.2</ele>
        <time>2023-03-03T13:39:01Z</time>
      </trkpt>
      <trkpt lat="43.47825" lon="6.3065">
        <ele>158.3</ele>
        <time>2023-03-03T13:39:02Z</time>
      </trkpt>
      <trkpt lat="43.47825" lon="6.3065">
        <ele>158.3</ele>
        <time>2023-03-03T13:39:03Z</time>
      </trkpt>
      <trkpt lat="43.47825" lon="6.3065">
        <ele>158.3</ele>
        <time>2023-03-03T13:39:04Z</time>
      </trkpt>
      <trkpt lat="43.47825" lon="6.3065">
        <ele>158.3</ele>
        <time>2023-03-03T13:39:05Z</time>
      </trkpt>
      <trkpt lat="43.47825" lon="6.30649">
        <ele>158.3</ele>
        <time>2023-03-03T13:39:06Z</time>
      </trkpt>
      <trkpt lat="43.47825" lon="6.30649">
        <ele>158.3</ele>
        <time>2023-03-03T13:39:07Z</time>
      </trkpt>
      <trkpt lat="43.47825" lon="6.30649">
        <ele>158.3</ele>
        <time>2023-03-03T13:39:08Z</time>
      </trkpt>
      <trkpt lat="43.47825" lon="6.30649">
        <ele>158.3</ele>
        <time>2023-03-03T13:39:09Z</time>
      </trkpt>
      <trkpt lat="43.47825" lon="6.30649">
        <ele>158.3</ele>
        <time>2023-03-03T13:39:10Z</time>
      </trkpt>
      <trkpt lat="43.47825" lon="6.30648">
        <ele>158.3</ele>
        <time>2023-03-03T13:39:11Z</time>
      </trkpt>
      <trkpt lat="43.47825" lon="6.30648">
        <ele>158.3</ele>
        <time>2023-03-03T13:39:12Z</time>
      </trkpt>
      <trkpt lat="43.47825" lon="6.30648">
        <ele>158.3</ele>
        <time>2023-03-03T13:39:13Z</time>
      </trkpt>
      <trkpt lat="43.47826" lon="6.30648">
        <ele>158.4</ele>
        <time>2023-03-03T13:39:14Z</time>
      </trkpt>
      <trkpt lat="43.47826" lon="6.30648">
        <ele>158.4</ele>
        <time>2023-03-03T13:39:15Z</time>
      </trkpt>
      <trkpt lat="43.47826" lon="6.30648">
        <ele>158.4</ele>
        <time>2023-03-03T13:39:16Z</time>
      </trkpt>
      <trkpt lat="43.47825" lon="6.30648">
        <ele>158.4</ele>
        <time>2023-03-03T13:39:17Z</time>
      </trkpt>
      <trkpt lat="43.47825" lon="6.30648">
        <ele>158.5</ele>
        <time>2023-03-03T13:39:18Z</time>
      </trkpt>
      <trkpt lat="43.47825" lon="6.30648">
        <ele>158.5</ele>
        <time>2023-03-03T13:39:19Z</time>
      </trkpt>
      <trkpt lat="43.47825" lon="6.30648">
        <ele>158.5</ele>
        <time>2023-03-03T13:39:20Z</time>
      </trkpt>
      <trkpt lat="43.47825" lon="6.30648">
        <ele>158.5</ele>
        <time>2023-03-03T13:39:21Z</time>
      </trkpt>
      <trkpt lat="43.47825" lon="6.30649">
        <ele>158.6</ele>
        <time>2023-03-03T13:39:22Z</time>
      </trkpt>
      <trkpt lat="43.47825" lon="6.30649">
        <ele>158.6</ele>
        <time>2023-03-03T13:39:23Z</time>
      </trkpt>
      <trkpt lat="43.47825" lon="6.30649">
        <ele>158.6</ele>
        <time>2023-03-03T13:39:24Z</time>
      </trkpt>
      <trkpt lat="43.47825" lon="6.30649">
        <ele>158.6</ele>
        <time>2023-03-03T13:39:25Z</time>
      </trkpt>
      <trkpt lat="43.47824" lon="6.30649">
        <ele>158.6</ele>
        <time>2023-03-03T13:39:26Z</time>
      </trkpt>
      <trkpt lat="43.47824" lon="6.30649">
        <ele>158.6</ele>
        <time>2023-03-03T13:39:27Z</time>
      </trkpt>
      <trkpt lat="43.47825" lon="6.30649">
        <ele>158.6</ele>
        <time>2023-03-03T13:39:28Z</time>
      </trkpt>
      <trkpt lat="43.47825" lon="6.30649">
        <ele>158.6</ele>
        <time>2023-03-03T13:39:29Z</time>
      </trkpt>
      <trkpt lat="43.47824" lon="6.30649">
        <ele>158.6</ele>
        <time>2023-03-03T13:39:30Z</time>
      </trkpt>
      <trkpt lat="43.47825" lon="6.30649">
        <ele>158.6</ele>
        <time>2023-03-03T13:39:31Z</time>
      </trkpt>
      <trkpt lat="43.47824" lon="6.30649">
        <ele>158.6</ele>
        <time>2023-03-03T13:39:32Z</time>
      </trkpt>
      <trkpt lat="43.47824" lon="6.3065">
        <ele>158.5</ele>
        <time>2023-03-03T13:39:33Z</time>
      </trkpt>
      <trkpt lat="43.47824" lon="6.3065">
        <ele>158.5</ele>
        <time>2023-03-03T13:39:34Z</time>
      </trkpt>
      <trkpt lat="43.47824" lon="6.30649">
        <ele>158.4</ele>
        <time>2023-03-03T13:39:35Z</time>
      </trkpt>
      <trkpt lat="43.47823" lon="6.30649">
        <ele>158.4</ele>
        <time>2023-03-03T13:39:36Z</time>
      </trkpt>
      <trkpt lat="43.47823" lon="6.30649">
        <ele>158.5</ele>
        <time>2023-03-03T13:39:37Z</time>
      </trkpt>
      <trkpt lat="43.47823" lon="6.30649">
        <ele>158.5</ele>
        <time>2023-03-03T13:39:38Z</time>
      </trkpt>
      <trkpt lat="43.47823" lon="6.30649">
        <ele>158.5</ele>
        <time>2023-03-03T13:39:39Z</time>
      </trkpt>
      <trkpt lat="43.47823" lon="6.3065">
        <ele>158.6</ele>
        <time>2023-03-03T13:39:40Z</time>
      </trkpt>
      <trkpt lat="43.47823" lon="6.3065">
        <ele>158.6</ele>
        <time>2023-03-03T13:39:41Z</time>
      </trkpt>
      <trkpt lat="43.47822" lon="6.3065">
        <ele>158.6</ele>
        <time>2023-03-03T13:39:42Z</time>
      </trkpt>
      <trkpt lat="43.47822" lon="6.3065">
        <ele>158.6</ele>
        <time>2023-03-03T13:39:43Z</time>
      </trkpt>
      <trkpt lat="43.47822" lon="6.3065">
        <ele>158.5</ele>
        <time>2023-03-03T13:39:44Z</time>
      </trkpt>
      <trkpt lat="43.47823" lon="6.3065">
        <ele>158.5</ele>
        <time>2023-03-03T13:39:45Z</time>
      </trkpt>
      <trkpt lat="43.47822" lon="6.3065">
        <ele>158.4</ele>
        <time>2023-03-03T13:39:46Z</time>
      </trkpt>
      <trkpt lat="43.47822" lon="6.3065">
        <ele>158.5</ele>
        <time>2023-03-03T13:39:47Z</time>
      </trkpt>
      <trkpt lat="43.47822" lon="6.30651">
        <ele>158.4</ele>
        <time>2023-03-03T13:39:48Z</time>
      </trkpt>
      <trkpt lat="43.47822" lon="6.30651">
        <ele>158.4</ele>
        <time>2023-03-03T13:39:49Z</time>
      </trkpt>
      <trkpt lat="43.47823" lon="6.30651">
        <ele>158.4</ele>
        <time>2023-03-03T13:39:50Z</time>
      </trkpt>
      <trkpt lat="43.47823" lon="6.30651">
        <ele>158.3</ele>
        <time>2023-03-03T13:39:51Z</time>
      </trkpt>
      <trkpt lat="43.47823" lon="6.30651">
        <ele>158.3</ele>
        <time>2023-03-03T13:39:52Z</time>
      </trkpt>
      <trkpt lat="43.47823" lon="6.30651">
        <ele>158.3</ele>
        <time>2023-03-03T13:39:53Z</time>
      </trkpt>
      <trkpt lat="43.47823" lon="6.30651">
        <ele>158.2</ele>
        <time>2023-03-03T13:39:54Z</time>
      </trkpt>
      <trkpt lat="43.47823" lon="6.30651">
        <ele>158.2</ele>
        <time>2023-03-03T13:39:55Z</time>
      </trkpt>
      <trkpt lat="43.47823" lon="6.30651">
        <ele>158.2</ele>
        <time>2023-03-03T13:39:56Z</time>
      </trkpt>
      <trkpt lat="43.47823" lon="6.30651">
        <ele>158.2</ele>
        <time>2023-03-03T13:39:57Z</time>
      </trkpt>
      <trkpt lat="43.47823" lon="6.30651">
        <ele>158.2</ele>
        <time>2023-03-03T13:39:58Z</time>
      </trkpt>
      <trkpt lat="43.47823" lon="6.30651">
        <ele>158.3</ele>
        <time>2023-03-03T13:39:59Z</time>
      </trkpt>
      <trkpt lat="43.47822" lon="6.30651">
        <ele>158.3</ele>
        <time>2023-03-03T13:40:00Z</time>
      </trkpt>
      <trkpt lat="43.47822" lon="6.30652">
        <ele>158.3</ele>
        <time>2023-03-03T13:40:01Z</time>
      </trkpt>
      <trkpt lat="43.47823" lon="6.30652">
        <ele>158.4</ele>
        <time>2023-03-03T13:40:02Z</time>
      </trkpt>
      <trkpt lat="43.47822" lon="6.30652">
        <ele>158.4</ele>
        <time>2023-03-03T13:40:03Z</time>
      </trkpt>
      <trkpt lat="43.47823" lon="6.30652">
        <ele>158.4</ele>
        <time>2023-03-03T13:40:04Z</time>
      </trkpt>
      <trkpt lat="43.47822" lon="6.30652">
        <ele>158.4</ele>
        <time>2023-03-03T13:40:05Z</time>
      </trkpt>
      <trkpt lat="43.47822" lon="6.30652">
        <ele>158.4</ele>
        <time>2023-03-03T13:40:06Z</time>
      </trkpt>
      <trkpt lat="43.47822" lon="6.30652">
        <ele>158.4</ele>
        <time>2023-03-03T13:40:07Z</time>
      </trkpt>
      <trkpt lat="43.47822" lon="6.30652">
        <ele>158.3</ele>
        <time>2023-03-03T13:40:08Z</time>
      </trkpt>
      <trkpt lat="43.47822" lon="6.30652">
        <ele>158.3</ele>
        <time>2023-03-03T13:40:09Z</time>
      </trkpt>
      <trkpt lat="43.47822" lon="6.30652">
        <ele>158.4</ele>
        <time>2023-03-03T13:40:10Z</time>
      </trkpt>
      <trkpt lat="43.47822" lon="6.30652">
        <ele>158.4</ele>
        <time>2023-03-03T13:40:11Z</time>
      </trkpt>
      <trkpt lat="43.47822" lon="6.30652">
        <ele>158.4</ele>
        <time>2023-03-03T13:40:12Z</time>
      </trkpt>
      <trkpt lat="43.47822" lon="6.30652">
        <ele>158.5</ele>
        <time>2023-03-03T13:40:13Z</time>
      </trkpt>
      <trkpt lat="43.47822" lon="6.30652">
        <ele>158.5</ele>
        <time>2023-03-03T13:40:14Z</time>
      </trkpt>
      <trkpt lat="43.47822" lon="6.30652">
        <ele>158.6</ele>
        <time>2023-03-03T13:40:15Z</time>
      </trkpt>
      <trkpt lat="43.47822" lon="6.30652">
        <ele>158.6</ele>
        <time>2023-03-03T13:40:16Z</time>
      </trkpt>
      <trkpt lat="43.47822" lon="6.30652">
        <ele>158.5</ele>
        <time>2023-03-03T13:40:17Z</time>
      </trkpt>
      <trkpt lat="43.47822" lon="6.30652">
        <ele>158.4</ele>
        <time>2023-03-03T13:40:18Z</time>
      </trkpt>
      <trkpt lat="43.47822" lon="6.30652">
        <ele>158.4</ele>
        <time>2023-03-03T13:40:19Z</time>
      </trkpt>
      <trkpt lat="43.47822" lon="6.30652">
        <ele>158.4</ele>
        <time>2023-03-03T13:40:20Z</time>
      </trkpt>
      <trkpt lat="43.47822" lon="6.30652">
        <ele>158.3</ele>
        <time>2023-03-03T13:40:21Z</time>
      </trkpt>
      <trkpt lat="43.47822" lon="6.30652">
        <ele>158.3</ele>
        <time>2023-03-03T13:40:22Z</time>
      </trkpt>
      <trkpt lat="43.47822" lon="6.30652">
        <ele>158.3</ele>
        <time>2023-03-03T13:40:23Z</time>
      </trkpt>
      <trkpt lat="43.47823" lon="6.30652">
        <ele>158.4</ele>
        <time>2023-03-03T13:40:24Z</time>
      </trkpt>
      <trkpt lat="43.47823" lon="6.30652">
        <ele>158.4</ele>
        <time>2023-03-03T13:40:25Z</time>
      </trkpt>
      <trkpt lat="43.47823" lon="6.30652">
        <ele>158.3</ele>
        <time>2023-03-03T13:40:26Z</time>
      </trkpt>
      <trkpt lat="43.47823" lon="6.30652">
        <ele>158.2</ele>
        <time>2023-03-03T13:40:27Z</time>
      </trkpt>
      <trkpt lat="43.47823" lon="6.30653">
        <ele>158.2</ele>
        <time>2023-03-03T13:40:28Z</time>
      </trkpt>
      <trkpt lat="43.47823" lon="6.30652">
        <ele>158.2</ele>
        <time>2023-03-03T13:40:29Z</time>
      </trkpt>
      <trkpt lat="43.47823" lon="6.30652">
        <ele>158.3</ele>
        <time>2023-03-03T13:40:30Z</time>
      </trkpt>
      <trkpt lat="43.47823" lon="6.30652">
        <ele>158.3</ele>
        <time>2023-03-03T13:40:31Z</time>
      </trkpt>
      <trkpt lat="43.47823" lon="6.30652">
        <ele>158.3</ele>
        <time>2023-03-03T13:40:32Z</time>
      </trkpt>
      <trkpt lat="43.47823" lon="6.30652">
        <ele>158.3</ele>
        <time>2023-03-03T13:40:33Z</time>
      </trkpt>
      <trkpt lat="43.47823" lon="6.30652">
        <ele>158.4</ele>
        <time>2023-03-03T13:40:34Z</time>
      </trkpt>
      <trkpt lat="43.47823" lon="6.30652">
        <ele>158.4</ele>
        <time>2023-03-03T13:40:35Z</time>
      </trkpt>
      <trkpt lat="43.47823" lon="6.30652">
        <ele>158.5</ele>
        <time>2023-03-03T13:40:36Z</time>
      </trkpt>
      <trkpt lat="43.47823" lon="6.30652">
        <ele>158.5</ele>
        <time>2023-03-03T13:40:37Z</time>
      </trkpt>
      <trkpt lat="43.47823" lon="6.30652">
        <ele>158.5</ele>
        <time>2023-03-03T13:40:38Z</time>
      </trkpt>
      <trkpt lat="43.47823" lon="6.30652">
        <ele>158.5</ele>
        <time>2023-03-03T13:40:39Z</time>
      </trkpt>
      <trkpt lat="43.47823" lon="6.30652">
        <ele>158.5</ele>
        <time>2023-03-03T13:40:40Z</time>
      </trkpt>
      <trkpt lat="43.47823" lon="6.30652">
        <ele>158.5</ele>
        <time>2023-03-03T13:40:41Z</time>
      </trkpt>
      <trkpt lat="43.47824" lon="6.30652">
        <ele>158.5</ele>
        <time>2023-03-03T13:40:42Z</time>
      </trkpt>
      <trkpt lat="43.47824" lon="6.30651">
        <ele>158.5</ele>
        <time>2023-03-03T13:40:43Z</time>
      </trkpt>
      <trkpt lat="43.47824" lon="6.30651">
        <ele>158.5</ele>
        <time>2023-03-03T13:40:44Z</time>
      </trkpt>
      <trkpt lat="43.47824" lon="6.3065">
        <ele>158.6</ele>
        <time>2023-03-03T13:40:45Z</time>
      </trkpt>
      <trkpt lat="43.47824" lon="6.3065">
        <ele>158.6</ele>
        <time>2023-03-03T13:40:46Z</time>
      </trkpt>
      <trkpt lat="43.47824" lon="6.3065">
        <ele>158.6</ele>
        <time>2023-03-03T13:40:47Z</time>
      </trkpt>
      <trkpt lat="43.47825" lon="6.3065">
        <ele>158.5</ele>
        <time>2023-03-03T13:40:48Z</time>
      </trkpt>
      <trkpt lat="43.47825" lon="6.3065">
        <ele>158.5</ele>
        <time>2023-03-03T13:40:49Z</time>
      </trkpt>
      <trkpt lat="43.47825" lon="6.3065">
        <ele>158.5</ele>
        <time>2023-03-03T13:40:50Z</time>
      </trkpt>
      <trkpt lat="43.47824" lon="6.3065">
        <ele>158.6</ele>
        <time>2023-03-03T13:40:51Z</time>
      </trkpt>
      <trkpt lat="43.47824" lon="6.3065">
        <ele>158.6</ele>
        <time>2023-03-03T13:40:52Z</time>
      </trkpt>
      <trkpt lat="43.47823" lon="6.3065">
        <ele>158.7</ele>
        <time>2023-03-03T13:40:53Z</time>
      </trkpt>
      <trkpt lat="43.47823" lon="6.30649">
        <ele>158.8</ele>
        <time>2023-03-03T13:40:54Z</time>
      </trkpt>
      <trkpt lat="43.47823" lon="6.30649">
        <ele>158.8</ele>
        <time>2023-03-03T13:40:55Z</time>
      </trkpt>
      <trkpt lat="43.47822" lon="6.30649">
        <ele>158.9</ele>
        <time>2023-03-03T13:40:56Z</time>
      </trkpt>
      <trkpt lat="43.47822" lon="6.30649">
        <ele>158.9</ele>
        <time>2023-03-03T13:40:57Z</time>
      </trkpt>
      <trkpt lat="43.47822" lon="6.30649">
        <ele>158.9</ele>
        <time>2023-03-03T13:40:58Z</time>
      </trkpt>
      <trkpt lat="43.47822" lon="6.30649">
        <ele>158.9</ele>
        <time>2023-03-03T13:40:59Z</time>
      </trkpt>
      <trkpt lat="43.47822" lon="6.30649">
        <ele>159</ele>
        <time>2023-03-03T13:41:00Z</time>
      </trkpt>
      <trkpt lat="43.47822" lon="6.30649">
        <ele>159</ele>
        <time>2023-03-03T13:41:01Z</time>
      </trkpt>
      <trkpt lat="43.47821" lon="6.30649">
        <ele>159</ele>
        <time>2023-03-03T13:41:02Z</time>
      </trkpt>
      <trkpt lat="43.47821" lon="6.30649">
        <ele>159.1</ele>
        <time>2023-03-03T13:41:03Z</time>
      </trkpt>
      <trkpt lat="43.47821" lon="6.30649">
        <ele>159.1</ele>
        <time>2023-03-03T13:41:04Z</time>
      </trkpt>
      <trkpt lat="43.47821" lon="6.30649">
        <ele>159.2</ele>
        <time>2023-03-03T13:41:05Z</time>
      </trkpt>
      <trkpt lat="43.4782" lon="6.30649">
        <ele>159.2</ele>
        <time>2023-03-03T13:41:06Z</time>
      </trkpt>
      <trkpt lat="43.47819" lon="6.30649">
        <ele>159.1</ele>
        <time>2023-03-03T13:41:07Z</time>
      </trkpt>
      <trkpt lat="43.47819" lon="6.30648">
        <ele>159.1</ele>
        <time>2023-03-03T13:41:08Z</time>
      </trkpt>
      <trkpt lat="43.47818" lon="6.30648">
        <ele>159.1</ele>
        <time>2023-03-03T13:41:09Z</time>
      </trkpt>
      <trkpt lat="43.47818" lon="6.30647">
        <ele>159.1</ele>
        <time>2023-03-03T13:41:10Z</time>
      </trkpt>
      <trkpt lat="43.47817" lon="6.30647">
        <ele>159.1</ele>
        <time>2023-03-03T13:41:11Z</time>
      </trkpt>
      <trkpt lat="43.47816" lon="6.30647">
        <ele>159</ele>
        <time>2023-03-03T13:41:12Z</time>
      </trkpt>
      <trkpt lat="43.47815" lon="6.30647">
        <ele>159</ele>
        <time>2023-03-03T13:41:13Z</time>
      </trkpt>
      <trkpt lat="43.47815" lon="6.30647">
        <ele>158.9</ele>
        <time>2023-03-03T13:41:14Z</time>
      </trkpt>
      <trkpt lat="43.47814" lon="6.30646">
        <ele>158.9</ele>
        <time>2023-03-03T13:41:15Z</time>
      </trkpt>
      <trkpt lat="43.47814" lon="6.30646">
        <ele>158.9</ele>
        <time>2023-03-03T13:41:16Z</time>
      </trkpt>
      <trkpt lat="43.47814" lon="6.30645">
        <ele>158.8</ele>
        <time>2023-03-03T13:41:17Z</time>
      </trkpt>
      <trkpt lat="43.47813" lon="6.30645">
        <ele>158.7</ele>
        <time>2023-03-03T13:41:18Z</time>
      </trkpt>
      <trkpt lat="43.47814" lon="6.30644">
        <ele>158.7</ele>
        <time>2023-03-03T13:41:19Z</time>
      </trkpt>
      <trkpt lat="43.47813" lon="6.30644">
        <ele>158.7</ele>
        <time>2023-03-03T13:41:20Z</time>
      </trkpt>
      <trkpt lat="43.47812" lon="6.30644">
        <ele>158.7</ele>
        <time>2023-03-03T13:41:21Z</time>
      </trkpt>
      <trkpt lat="43.47811" lon="6.30644">
        <ele>158.7</ele>
        <time>2023-03-03T13:41:22Z</time>
      </trkpt>
      <trkpt lat="43.4781" lon="6.30644">
        <ele>158.7</ele>
        <time>2023-03-03T13:41:23Z</time>
      </trkpt>
      <trkpt lat="43.4781" lon="6.30644">
        <ele>158.7</ele>
        <time>2023-03-03T13:41:24Z</time>
      </trkpt>
      <trkpt lat="43.47809" lon="6.30643">
        <ele>158.6</ele>
        <time>2023-03-03T13:41:25Z</time>
      </trkpt>
      <trkpt lat="43.47809" lon="6.30643">
        <ele>158.6</ele>
        <time>2023-03-03T13:41:26Z</time>
      </trkpt>
      <trkpt lat="43.47808" lon="6.30643">
        <ele>158.6</ele>
        <time>2023-03-03T13:41:27Z</time>
      </trkpt>
      <trkpt lat="43.47807" lon="6.30642">
        <ele>158.5</ele>
        <time>2023-03-03T13:41:28Z</time>
      </trkpt>
      <trkpt lat="43.47806" lon="6.30642">
        <ele>158.4</ele>
        <time>2023-03-03T13:41:29Z</time>
      </trkpt>
      <trkpt lat="43.47805" lon="6.30641">
        <ele>158.3</ele>
        <time>2023-03-03T13:41:30Z</time>
      </trkpt>
      <trkpt lat="43.47804" lon="6.3064">
        <ele>158.2</ele>
        <time>2023-03-03T13:41:31Z</time>
      </trkpt>
      <trkpt lat="43.47804" lon="6.3064">
        <ele>158.2</ele>
        <time>2023-03-03T13:41:32Z</time>
      </trkpt>
      <trkpt lat="43.47804" lon="6.30639">
        <ele>158.1</ele>
        <time>2023-03-03T13:41:33Z</time>
      </trkpt>
      <trkpt lat="43.47803" lon="6.30639">
        <ele>158.1</ele>
        <time>2023-03-03T13:41:34Z</time>
      </trkpt>
      <trkpt lat="43.47803" lon="6.30639">
        <ele>158.1</ele>
        <time>2023-03-03T13:41:35Z</time>
      </trkpt>
      <trkpt lat="43.47802" lon="6.30639">
        <ele>158</ele>
        <time>2023-03-03T13:41:36Z</time>
      </trkpt>
      <trkpt lat="43.47801" lon="6.30638">
        <ele>157.9</ele>
        <time>2023-03-03T13:41:37Z</time>
      </trkpt>
      <trkpt lat="43.47801" lon="6.30638">
        <ele>157.9</ele>
        <time>2023-03-03T13:41:38Z</time>
      </trkpt>
      <trkpt lat="43.478" lon="6.30638">
        <ele>157.9</ele>
        <time>2023-03-03T13:41:39Z</time>
      </trkpt>
      <trkpt lat="43.47799" lon="6.30638">
        <ele>157.9</ele>
        <time>2023-03-03T13:41:40Z</time>
      </trkpt>
      <trkpt lat="43.47798" lon="6.30638">
        <ele>157.8</ele>
        <time>2023-03-03T13:41:41Z</time>
      </trkpt>
      <trkpt lat="43.47797" lon="6.30638">
        <ele>157.8</ele>
        <time>2023-03-03T13:41:42Z</time>
      </trkpt>
      <trkpt lat="43.47796" lon="6.30637">
        <ele>157.8</ele>
        <time>2023-03-03T13:41:43Z</time>
      </trkpt>
      <trkpt lat="43.47795" lon="6.30637">
        <ele>157.8</ele>
        <time>2023-03-03T13:41:44Z</time>
      </trkpt>
      <trkpt lat="43.47794" lon="6.30636">
        <ele>157.8</ele>
        <time>2023-03-03T13:41:45Z</time>
      </trkpt>
      <trkpt lat="43.47792" lon="6.30635">
        <ele>157.8</ele>
        <time>2023-03-03T13:41:46Z</time>
      </trkpt>
      <trkpt lat="43.47792" lon="6.30636">
        <ele>157.7</ele>
        <time>2023-03-03T13:41:47Z</time>
      </trkpt>
      <trkpt lat="43.47791" lon="6.30636">
        <ele>157.6</ele>
        <time>2023-03-03T13:41:48Z</time>
      </trkpt>
      <trkpt lat="43.4779" lon="6.30634">
        <ele>157.6</ele>
        <time>2023-03-03T13:41:49Z</time>
      </trkpt>
      <trkpt lat="43.47789" lon="6.30634">
        <ele>157.4</ele>
        <time>2023-03-03T13:41:50Z</time>
      </trkpt>
      <trkpt lat="43.47789" lon="6.30633">
        <ele>157.2</ele>
        <time>2023-03-03T13:41:51Z</time>
      </trkpt>
      <trkpt lat="43.47788" lon="6.30633">
        <ele>157.2</ele>
        <time>2023-03-03T13:41:52Z</time>
      </trkpt>
      <trkpt lat="43.47787" lon="6.30632">
        <ele>157.2</ele>
        <time>2023-03-03T13:41:53Z</time>
      </trkpt>
      <trkpt lat="43.47787" lon="6.30632">
        <ele>157.1</ele>
        <time>2023-03-03T13:41:54Z</time>
      </trkpt>
      <trkpt lat="43.47786" lon="6.30632">
        <ele>157.1</ele>
        <time>2023-03-03T13:41:55Z</time>
      </trkpt>
      <trkpt lat="43.47785" lon="6.30632">
        <ele>157</ele>
        <time>2023-03-03T13:41:56Z</time>
      </trkpt>
      <trkpt lat="43.47784" lon="6.30631">
        <ele>156.9</ele>
        <time>2023-03-03T13:41:57Z</time>
      </trkpt>
      <trkpt lat="43.47784" lon="6.30631">
        <ele>156.9</ele>
        <time>2023-03-03T13:41:58Z</time>
      </trkpt>
      <trkpt lat="43.47783" lon="6.30631">
        <ele>156.8</ele>
        <time>2023-03-03T13:41:59Z</time>
      </trkpt>
      <trkpt lat="43.47783" lon="6.30631">
        <ele>156.8</ele>
        <time>2023-03-03T13:42:00Z</time>
      </trkpt>
      <trkpt lat="43.47782" lon="6.3063">
        <ele>156.7</ele>
        <time>2023-03-03T13:42:01Z</time>
      </trkpt>
      <trkpt lat="43.47781" lon="6.30629">
        <ele>156.7</ele>
        <time>2023-03-03T13:42:02Z</time>
      </trkpt>
      <trkpt lat="43.4778" lon="6.30629">
        <ele>156.6</ele>
        <time>2023-03-03T13:42:03Z</time>
      </trkpt>
      <trkpt lat="43.47779" lon="6.30629">
        <ele>156.6</ele>
        <time>2023-03-03T13:42:04Z</time>
      </trkpt>
      <trkpt lat="43.47779" lon="6.30629">
        <ele>156.7</ele>
        <time>2023-03-03T13:42:05Z</time>
      </trkpt>
      <trkpt lat="43.47778" lon="6.30629">
        <ele>156.7</ele>
        <time>2023-03-03T13:42:06Z</time>
      </trkpt>
      <trkpt lat="43.47777" lon="6.30628">
        <ele>156.7</ele>
        <time>2023-03-03T13:42:07Z</time>
      </trkpt>
      <trkpt lat="43.47776" lon="6.30628">
        <ele>156.6</ele>
        <time>2023-03-03T13:42:08Z</time>
      </trkpt>
      <trkpt lat="43.47776" lon="6.30627">
        <ele>156.4</ele>
        <time>2023-03-03T13:42:09Z</time>
      </trkpt>
      <trkpt lat="43.47775" lon="6.30627">
        <ele>156.4</ele>
        <time>2023-03-03T13:42:10Z</time>
      </trkpt>
      <trkpt lat="43.47774" lon="6.30627">
        <ele>156.3</ele>
        <time>2023-03-03T13:42:11Z</time>
      </trkpt>
      <trkpt lat="43.47773" lon="6.30626">
        <ele>156.3</ele>
        <time>2023-03-03T13:42:12Z</time>
      </trkpt>
      <trkpt lat="43.47772" lon="6.30625">
        <ele>156.2</ele>
        <time>2023-03-03T13:42:13Z</time>
      </trkpt>
      <trkpt lat="43.47771" lon="6.30625">
        <ele>156.1</ele>
        <time>2023-03-03T13:42:14Z</time>
      </trkpt>
      <trkpt lat="43.47771" lon="6.30624">
        <ele>155.9</ele>
        <time>2023-03-03T13:42:15Z</time>
      </trkpt>
      <trkpt lat="43.4777" lon="6.30624">
        <ele>155.8</ele>
        <time>2023-03-03T13:42:16Z</time>
      </trkpt>
      <trkpt lat="43.47769" lon="6.30625">
        <ele>155.8</ele>
        <time>2023-03-03T13:42:17Z</time>
      </trkpt>
      <trkpt lat="43.47769" lon="6.30624">
        <ele>155.7</ele>
        <time>2023-03-03T13:42:18Z</time>
      </trkpt>
      <trkpt lat="43.47769" lon="6.30624">
        <ele>155.7</ele>
        <time>2023-03-03T13:42:19Z</time>
      </trkpt>
      <trkpt lat="43.47769" lon="6.30623">
        <ele>155.7</ele>
        <time>2023-03-03T13:42:20Z</time>
      </trkpt>
      <trkpt lat="43.47768" lon="6.30622">
        <ele>155.7</ele>
        <time>2023-03-03T13:42:21Z</time>
      </trkpt>
      <trkpt lat="43.47768" lon="6.30621">
        <ele>155.7</ele>
        <time>2023-03-03T13:42:22Z</time>
      </trkpt>
      <trkpt lat="43.47767" lon="6.3062">
        <ele>155.7</ele>
        <time>2023-03-03T13:42:23Z</time>
      </trkpt>
      <trkpt lat="43.47766" lon="6.3062">
        <ele>155.7</ele>
        <time>2023-03-03T13:42:24Z</time>
      </trkpt>
      <trkpt lat="43.47765" lon="6.30619">
        <ele>155.7</ele>
        <time>2023-03-03T13:42:25Z</time>
      </trkpt>
      <trkpt lat="43.47764" lon="6.30619">
        <ele>155.5</ele>
        <time>2023-03-03T13:42:26Z</time>
      </trkpt>
      <trkpt lat="43.47762" lon="6.3062">
        <ele>155.5</ele>
        <time>2023-03-03T13:42:27Z</time>
      </trkpt>
      <trkpt lat="43.47762" lon="6.3062">
        <ele>155.4</ele>
        <time>2023-03-03T13:42:28Z</time>
      </trkpt>
      <trkpt lat="43.47761" lon="6.3062">
        <ele>155.4</ele>
        <time>2023-03-03T13:42:29Z</time>
      </trkpt>
      <trkpt lat="43.4776" lon="6.3062">
        <ele>155.4</ele>
        <time>2023-03-03T13:42:30Z</time>
      </trkpt>
      <trkpt lat="43.47759" lon="6.30619">
        <ele>155.4</ele>
        <time>2023-03-03T13:42:31Z</time>
      </trkpt>
      <trkpt lat="43.47758" lon="6.30619">
        <ele>155.3</ele>
        <time>2023-03-03T13:42:32Z</time>
      </trkpt>
      <trkpt lat="43.47758" lon="6.3062">
        <ele>155.3</ele>
        <time>2023-03-03T13:42:33Z</time>
      </trkpt>
      <trkpt lat="43.47758" lon="6.30619">
        <ele>155.3</ele>
        <time>2023-03-03T13:42:34Z</time>
      </trkpt>
      <trkpt lat="43.47756" lon="6.30619">
        <ele>155.2</ele>
        <time>2023-03-03T13:42:35Z</time>
      </trkpt>
      <trkpt lat="43.47755" lon="6.30619">
        <ele>155.1</ele>
        <time>2023-03-03T13:42:36Z</time>
      </trkpt>
      <trkpt lat="43.47754" lon="6.30619">
        <ele>155.1</ele>
        <time>2023-03-03T13:42:37Z</time>
      </trkpt>
      <trkpt lat="43.47753" lon="6.30618">
        <ele>155</ele>
        <time>2023-03-03T13:42:38Z</time>
      </trkpt>
      <trkpt lat="43.47753" lon="6.30618">
        <ele>155</ele>
        <time>2023-03-03T13:42:39Z</time>
      </trkpt>
      <trkpt lat="43.47752" lon="6.30617">
        <ele>154.9</ele>
        <time>2023-03-03T13:42:40Z</time>
      </trkpt>
      <trkpt lat="43.47752" lon="6.30618">
        <ele>154.8</ele>
        <time>2023-03-03T13:42:41Z</time>
      </trkpt>
      <trkpt lat="43.4775" lon="6.30618">
        <ele>154.7</ele>
        <time>2023-03-03T13:42:42Z</time>
      </trkpt>
      <trkpt lat="43.47749" lon="6.30617">
        <ele>154.6</ele>
        <time>2023-03-03T13:42:43Z</time>
      </trkpt>
      <trkpt lat="43.47748" lon="6.30617">
        <ele>154.5</ele>
        <time>2023-03-03T13:42:44Z</time>
      </trkpt>
      <trkpt lat="43.47747" lon="6.30616">
        <ele>154.4</ele>
        <time>2023-03-03T13:42:45Z</time>
      </trkpt>
      <trkpt lat="43.47746" lon="6.30616">
        <ele>154.3</ele>
        <time>2023-03-03T13:42:46Z</time>
      </trkpt>
      <trkpt lat="43.47746" lon="6.30616">
        <ele>154.2</ele>
        <time>2023-03-03T13:42:47Z</time>
      </trkpt>
      <trkpt lat="43.47745" lon="6.30616">
        <ele>154.1</ele>
        <time>2023-03-03T13:42:48Z</time>
      </trkpt>
      <trkpt lat="43.47744" lon="6.30616">
        <ele>154.1</ele>
        <time>2023-03-03T13:42:49Z</time>
      </trkpt>
      <trkpt lat="43.47744" lon="6.30616">
        <ele>154.1</ele>
        <time>2023-03-03T13:42:50Z</time>
      </trkpt>
      <trkpt lat="43.47743" lon="6.30615">
        <ele>154</ele>
        <time>2023-03-03T13:42:51Z</time>
      </trkpt>
      <trkpt lat="43.47742" lon="6.30615">
        <ele>153.9</ele>
        <time>2023-03-03T13:42:52Z</time>
      </trkpt>
      <trkpt lat="43.47741" lon="6.30614">
        <ele>153.9</ele>
        <time>2023-03-03T13:42:53Z</time>
      </trkpt>
      <trkpt lat="43.47741" lon="6.30614">
        <ele>153.8</ele>
        <time>2023-03-03T13:42:54Z</time>
      </trkpt>
      <trkpt lat="43.47741" lon="6.30614">
        <ele>153.8</ele>
        <time>2023-03-03T13:42:55Z</time>
      </trkpt>
      <trkpt lat="43.4774" lon="6.30614">
        <ele>153.8</ele>
        <time>2023-03-03T13:42:56Z</time>
      </trkpt>
      <trkpt lat="43.4774" lon="6.30614">
        <ele>153.9</ele>
        <time>2023-03-03T13:42:57Z</time>
      </trkpt>
      <trkpt lat="43.4774" lon="6.30613">
        <ele>153.9</ele>
        <time>2023-03-03T13:42:58Z</time>
      </trkpt>
      <trkpt lat="43.47739" lon="6.30613">
        <ele>153.9</ele>
        <time>2023-03-03T13:42:59Z</time>
      </trkpt>
      <trkpt lat="43.47738" lon="6.30612">
        <ele>153.9</ele>
        <time>2023-03-03T13:43:00Z</time>
      </trkpt>
      <trkpt lat="43.47737" lon="6.30612">
        <ele>153.9</ele>
        <time>2023-03-03T13:43:01Z</time>
      </trkpt>
      <trkpt lat="43.47737" lon="6.30611">
        <ele>153.9</ele>
        <time>2023-03-03T13:43:02Z</time>
      </trkpt>
      <trkpt lat="43.47736" lon="6.30611">
        <ele>153.9</ele>
        <time>2023-03-03T13:43:03Z</time>
      </trkpt>
      <trkpt lat="43.47735" lon="6.30611">
        <ele>153.8</ele>
        <time>2023-03-03T13:43:04Z</time>
      </trkpt>
      <trkpt lat="43.47734" lon="6.3061">
        <ele>153.7</ele>
        <time>2023-03-03T13:43:05Z</time>
      </trkpt>
      <trkpt lat="43.47733" lon="6.30608">
        <ele>153.6</ele>
        <time>2023-03-03T13:43:06Z</time>
      </trkpt>
      <trkpt lat="43.47732" lon="6.30607">
        <ele>153.7</ele>
        <time>2023-03-03T13:43:07Z</time>
      </trkpt>
      <trkpt lat="43.4773" lon="6.30606">
        <ele>153.6</ele>
        <time>2023-03-03T13:43:08Z</time>
      </trkpt>
      <trkpt lat="43.47729" lon="6.30605">
        <ele>153.5</ele>
        <time>2023-03-03T13:43:09Z</time>
      </trkpt>
      <trkpt lat="43.47728" lon="6.30605">
        <ele>153.4</ele>
        <time>2023-03-03T13:43:10Z</time>
      </trkpt>
      <trkpt lat="43.47727" lon="6.30605">
        <ele>153.4</ele>
        <time>2023-03-03T13:43:11Z</time>
      </trkpt>
      <trkpt lat="43.47726" lon="6.30604">
        <ele>153.3</ele>
        <time>2023-03-03T13:43:12Z</time>
      </trkpt>
      <trkpt lat="43.47725" lon="6.30604">
        <ele>153.2</ele>
        <time>2023-03-03T13:43:13Z</time>
      </trkpt>
      <trkpt lat="43.47725" lon="6.30604">
        <ele>153.1</ele>
        <time>2023-03-03T13:43:14Z</time>
      </trkpt>
      <trkpt lat="43.47724" lon="6.30604">
        <ele>153</ele>
        <time>2023-03-03T13:43:15Z</time>
      </trkpt>
      <trkpt lat="43.47724" lon="6.30603">
        <ele>153</ele>
        <time>2023-03-03T13:43:16Z</time>
      </trkpt>
      <trkpt lat="43.47722" lon="6.30603">
        <ele>152.9</ele>
        <time>2023-03-03T13:43:17Z</time>
      </trkpt>
      <trkpt lat="43.47722" lon="6.30602">
        <ele>152.8</ele>
        <time>2023-03-03T13:43:18Z</time>
      </trkpt>
      <trkpt lat="43.47722" lon="6.30601">
        <ele>152.7</ele>
        <time>2023-03-03T13:43:19Z</time>
      </trkpt>
      <trkpt lat="43.47721" lon="6.30601">
        <ele>152.6</ele>
        <time>2023-03-03T13:43:20Z</time>
      </trkpt>
      <trkpt lat="43.4772" lon="6.306">
        <ele>152.5</ele>
        <time>2023-03-03T13:43:21Z</time>
      </trkpt>
      <trkpt lat="43.4772" lon="6.30599">
        <ele>152.5</ele>
        <time>2023-03-03T13:43:22Z</time>
      </trkpt>
      <trkpt lat="43.4772" lon="6.30599">
        <ele>152.4</ele>
        <time>2023-03-03T13:43:23Z</time>
      </trkpt>
      <trkpt lat="43.47719" lon="6.30597">
        <ele>152.3</ele>
        <time>2023-03-03T13:43:24Z</time>
      </trkpt>
      <trkpt lat="43.47718" lon="6.30596">
        <ele>152.2</ele>
        <time>2023-03-03T13:43:25Z</time>
      </trkpt>
      <trkpt lat="43.47718" lon="6.30595">
        <ele>152.2</ele>
        <time>2023-03-03T13:43:26Z</time>
      </trkpt>
      <trkpt lat="43.47717" lon="6.30594">
        <ele>152.2</ele>
        <time>2023-03-03T13:43:27Z</time>
      </trkpt>
      <trkpt lat="43.47716" lon="6.30593">
        <ele>152.2</ele>
        <time>2023-03-03T13:43:28Z</time>
      </trkpt>
      <trkpt lat="43.47714" lon="6.30592">
        <ele>152.2</ele>
        <time>2023-03-03T13:43:29Z</time>
      </trkpt>
      <trkpt lat="43.47714" lon="6.30591">
        <ele>152.1</ele>
        <time>2023-03-03T13:43:30Z</time>
      </trkpt>
      <trkpt lat="43.47714" lon="6.3059">
        <ele>152.1</ele>
        <time>2023-03-03T13:43:31Z</time>
      </trkpt>
      <trkpt lat="43.47713" lon="6.30589">
        <ele>152</ele>
        <time>2023-03-03T13:43:32Z</time>
      </trkpt>
      <trkpt lat="43.47713" lon="6.30587">
        <ele>152</ele>
        <time>2023-03-03T13:43:33Z</time>
      </trkpt>
      <trkpt lat="43.47713" lon="6.30587">
        <ele>151.8</ele>
        <time>2023-03-03T13:43:34Z</time>
      </trkpt>
      <trkpt lat="43.47712" lon="6.30587">
        <ele>151.7</ele>
        <time>2023-03-03T13:43:35Z</time>
      </trkpt>
      <trkpt lat="43.47712" lon="6.30586">
        <ele>151.5</ele>
        <time>2023-03-03T13:43:36Z</time>
      </trkpt>
      <trkpt lat="43.47711" lon="6.30586">
        <ele>151.4</ele>
        <time>2023-03-03T13:43:37Z</time>
      </trkpt>
      <trkpt lat="43.47711" lon="6.30585">
        <ele>151.3</ele>
        <time>2023-03-03T13:43:38Z</time>
      </trkpt>
      <trkpt lat="43.47709" lon="6.30584">
        <ele>151.2</ele>
        <time>2023-03-03T13:43:39Z</time>
      </trkpt>
      <trkpt lat="43.47709" lon="6.30583">
        <ele>151.1</ele>
        <time>2023-03-03T13:43:40Z</time>
      </trkpt>
      <trkpt lat="43.47708" lon="6.30582">
        <ele>151</ele>
        <time>2023-03-03T13:43:41Z</time>
      </trkpt>
      <trkpt lat="43.47706" lon="6.3058">
        <ele>150.9</ele>
        <time>2023-03-03T13:43:42Z</time>
      </trkpt>
      <trkpt lat="43.47706" lon="6.30579">
        <ele>150.8</ele>
        <time>2023-03-03T13:43:43Z</time>
      </trkpt>
      <trkpt lat="43.47705" lon="6.30579">
        <ele>150.7</ele>
        <time>2023-03-03T13:43:44Z</time>
      </trkpt>
      <trkpt lat="43.47704" lon="6.30578">
        <ele>150.6</ele>
        <time>2023-03-03T13:43:45Z</time>
      </trkpt>
      <trkpt lat="43.47704" lon="6.30578">
        <ele>150.5</ele>
        <time>2023-03-03T13:43:46Z</time>
      </trkpt>
      <trkpt lat="43.47704" lon="6.30577">
        <ele>150.5</ele>
        <time>2023-03-03T13:43:47Z</time>
      </trkpt>
      <trkpt lat="43.47703" lon="6.30576">
        <ele>150.5</ele>
        <time>2023-03-03T13:43:48Z</time>
      </trkpt>
      <trkpt lat="43.47702" lon="6.30576">
        <ele>150.5</ele>
        <time>2023-03-03T13:43:49Z</time>
      </trkpt>
      <trkpt lat="43.47701" lon="6.30575">
        <ele>150.5</ele>
        <time>2023-03-03T13:43:50Z</time>
      </trkpt>
      <trkpt lat="43.477" lon="6.30574">
        <ele>150.3</ele>
        <time>2023-03-03T13:43:51Z</time>
      </trkpt>
      <trkpt lat="43.47699" lon="6.30573">
        <ele>150.1</ele>
        <time>2023-03-03T13:43:52Z</time>
      </trkpt>
      <trkpt lat="43.47698" lon="6.30573">
        <ele>150</ele>
        <time>2023-03-03T13:43:53Z</time>
      </trkpt>
      <trkpt lat="43.47697" lon="6.30572">
        <ele>150</ele>
        <time>2023-03-03T13:43:54Z</time>
      </trkpt>
      <trkpt lat="43.47697" lon="6.30571">
        <ele>150</ele>
        <time>2023-03-03T13:43:55Z</time>
      </trkpt>
      <trkpt lat="43.47696" lon="6.3057">
        <ele>149.9</ele>
        <time>2023-03-03T13:43:56Z</time>
      </trkpt>
      <trkpt lat="43.47695" lon="6.30569">
        <ele>149.8</ele>
        <time>2023-03-03T13:43:57Z</time>
      </trkpt>
      <trkpt lat="43.47694" lon="6.30568">
        <ele>149.8</ele>
        <time>2023-03-03T13:43:58Z</time>
      </trkpt>
      <trkpt lat="43.47693" lon="6.30568">
        <ele>149.7</ele>
        <time>2023-03-03T13:43:59Z</time>
      </trkpt>
      <trkpt lat="43.47691" lon="6.30567">
        <ele>149.5</ele>
        <time>2023-03-03T13:44:00Z</time>
      </trkpt>
      <trkpt lat="43.4769" lon="6.30566">
        <ele>149.4</ele>
        <time>2023-03-03T13:44:01Z</time>
      </trkpt>
      <trkpt lat="43.47689" lon="6.30565">
        <ele>149.3</ele>
        <time>2023-03-03T13:44:02Z</time>
      </trkpt>
      <trkpt lat="43.47688" lon="6.30565">
        <ele>149.3</ele>
        <time>2023-03-03T13:44:03Z</time>
      </trkpt>
      <trkpt lat="43.47687" lon="6.30564">
        <ele>149.3</ele>
        <time>2023-03-03T13:44:04Z</time>
      </trkpt>
      <trkpt lat="43.47686" lon="6.30563">
        <ele>149.2</ele>
        <time>2023-03-03T13:44:05Z</time>
      </trkpt>
      <trkpt lat="43.47685" lon="6.30563">
        <ele>149.1</ele>
        <time>2023-03-03T13:44:06Z</time>
      </trkpt>
      <trkpt lat="43.47684" lon="6.30562">
        <ele>149</ele>
        <time>2023-03-03T13:44:07Z</time>
      </trkpt>
      <trkpt lat="43.47683" lon="6.30561">
        <ele>149</ele>
        <time>2023-03-03T13:44:08Z</time>
      </trkpt>
      <trkpt lat="43.47682" lon="6.30561">
        <ele>149</ele>
        <time>2023-03-03T13:44:09Z</time>
      </trkpt>
      <trkpt lat="43.47681" lon="6.3056">
        <ele>148.9</ele>
        <time>2023-03-03T13:44:10Z</time>
      </trkpt>
      <trkpt lat="43.4768" lon="6.30559">
        <ele>149</ele>
        <time>2023-03-03T13:44:11Z</time>
      </trkpt>
      <trkpt lat="43.4768" lon="6.30558">
        <ele>149.1</ele>
        <time>2023-03-03T13:44:12Z</time>
      </trkpt>
      <trkpt lat="43.47679" lon="6.30557">
        <ele>149.1</ele>
        <time>2023-03-03T13:44:13Z</time>
      </trkpt>
      <trkpt lat="43.47677" lon="6.30556">
        <ele>149.1</ele>
        <time>2023-03-03T13:44:14Z</time>
      </trkpt>
      <trkpt lat="43.47677" lon="6.30555">
        <ele>149.1</ele>
        <time>2023-03-03T13:44:15Z</time>
      </trkpt>
      <trkpt lat="43.47676" lon="6.30554">
        <ele>149</ele>
        <time>2023-03-03T13:44:16Z</time>
      </trkpt>
      <trkpt lat="43.47675" lon="6.30554">
        <ele>149</ele>
        <time>2023-03-03T13:44:17Z</time>
      </trkpt>
      <trkpt lat="43.47675" lon="6.30552">
        <ele>148.8</ele>
        <time>2023-03-03T13:44:18Z</time>
      </trkpt>
      <trkpt lat="43.47674" lon="6.30551">
        <ele>148.8</ele>
        <time>2023-03-03T13:44:19Z</time>
      </trkpt>
      <trkpt lat="43.47673" lon="6.3055">
        <ele>148.8</ele>
        <time>2023-03-03T13:44:20Z</time>
      </trkpt>
      <trkpt lat="43.47672" lon="6.30549">
        <ele>148.7</ele>
        <time>2023-03-03T13:44:21Z</time>
      </trkpt>
      <trkpt lat="43.47671" lon="6.30548">
        <ele>148.7</ele>
        <time>2023-03-03T13:44:22Z</time>
      </trkpt>
      <trkpt lat="43.4767" lon="6.30546">
        <ele>148.6</ele>
        <time>2023-03-03T13:44:23Z</time>
      </trkpt>
      <trkpt lat="43.47669" lon="6.30546">
        <ele>148.6</ele>
        <time>2023-03-03T13:44:24Z</time>
      </trkpt>
      <trkpt lat="43.47668" lon="6.30545">
        <ele>148.5</ele>
        <time>2023-03-03T13:44:25Z</time>
      </trkpt>
      <trkpt lat="43.47667" lon="6.30544">
        <ele>148.4</ele>
        <time>2023-03-03T13:44:26Z</time>
      </trkpt>
      <trkpt lat="43.47666" lon="6.30543">
        <ele>148.3</ele>
        <time>2023-03-03T13:44:27Z</time>
      </trkpt>
      <trkpt lat="43.47665" lon="6.30543">
        <ele>148.3</ele>
        <time>2023-03-03T13:44:28Z</time>
      </trkpt>
      <trkpt lat="43.47664" lon="6.30543">
        <ele>148.3</ele>
        <time>2023-03-03T13:44:29Z</time>
      </trkpt>
      <trkpt lat="43.47663" lon="6.30542">
        <ele>148.2</ele>
        <time>2023-03-03T13:44:30Z</time>
      </trkpt>
      <trkpt lat="43.47662" lon="6.30542">
        <ele>148.1</ele>
        <time>2023-03-03T13:44:31Z</time>
      </trkpt>
      <trkpt lat="43.4766" lon="6.30541">
        <ele>148</ele>
        <time>2023-03-03T13:44:32Z</time>
      </trkpt>
      <trkpt lat="43.47659" lon="6.3054">
        <ele>147.9</ele>
        <time>2023-03-03T13:44:33Z</time>
      </trkpt>
      <trkpt lat="43.47657" lon="6.3054">
        <ele>147.8</ele>
        <time>2023-03-03T13:44:34Z</time>
      </trkpt>
      <trkpt lat="43.47656" lon="6.3054">
        <ele>147.8</ele>
        <time>2023-03-03T13:44:35Z</time>
      </trkpt>
      <trkpt lat="43.47655" lon="6.30539">
        <ele>147.7</ele>
        <time>2023-03-03T13:44:36Z</time>
      </trkpt>
      <trkpt lat="43.47653" lon="6.30539">
        <ele>147.6</ele>
        <time>2023-03-03T13:44:37Z</time>
      </trkpt>
      <trkpt lat="43.47652" lon="6.30539">
        <ele>147.5</ele>
        <time>2023-03-03T13:44:38Z</time>
      </trkpt>
      <trkpt lat="43.47651" lon="6.30538">
        <ele>147.5</ele>
        <time>2023-03-03T13:44:39Z</time>
      </trkpt>
      <trkpt lat="43.47651" lon="6.30538">
        <ele>147.4</ele>
        <time>2023-03-03T13:44:40Z</time>
      </trkpt>
      <trkpt lat="43.4765" lon="6.30538">
        <ele>147.4</ele>
        <time>2023-03-03T13:44:41Z</time>
      </trkpt>
      <trkpt lat="43.47649" lon="6.30537">
        <ele>147.4</ele>
        <time>2023-03-03T13:44:42Z</time>
      </trkpt>
      <trkpt lat="43.47648" lon="6.30537">
        <ele>147.4</ele>
        <time>2023-03-03T13:44:43Z</time>
      </trkpt>
      <trkpt lat="43.47648" lon="6.30537">
        <ele>147.2</ele>
        <time>2023-03-03T13:44:44Z</time>
      </trkpt>
      <trkpt lat="43.47646" lon="6.30536">
        <ele>147.2</ele>
        <time>2023-03-03T13:44:45Z</time>
      </trkpt>
      <trkpt lat="43.47644" lon="6.30536">
        <ele>147.1</ele>
        <time>2023-03-03T13:44:46Z</time>
      </trkpt>
      <trkpt lat="43.47643" lon="6.30535">
        <ele>147.1</ele>
        <time>2023-03-03T13:44:47Z</time>
      </trkpt>
      <trkpt lat="43.47642" lon="6.30533">
        <ele>147</ele>
        <time>2023-03-03T13:44:48Z</time>
      </trkpt>
      <trkpt lat="43.4764" lon="6.30532">
        <ele>146.9</ele>
        <time>2023-03-03T13:44:49Z</time>
      </trkpt>
      <trkpt lat="43.4764" lon="6.30532">
        <ele>146.9</ele>
        <time>2023-03-03T13:44:50Z</time>
      </trkpt>
      <trkpt lat="43.4764" lon="6.30531">
        <ele>146.8</ele>
        <time>2023-03-03T13:44:51Z</time>
      </trkpt>
      <trkpt lat="43.47639" lon="6.3053">
        <ele>146.8</ele>
        <time>2023-03-03T13:44:52Z</time>
      </trkpt>
      <trkpt lat="43.47637" lon="6.3053">
        <ele>146.7</ele>
        <time>2023-03-03T13:44:53Z</time>
      </trkpt>
      <trkpt lat="43.47637" lon="6.3053">
        <ele>146.6</ele>
        <time>2023-03-03T13:44:54Z</time>
      </trkpt>
      <trkpt lat="43.47635" lon="6.3053">
        <ele>146.5</ele>
        <time>2023-03-03T13:44:55Z</time>
      </trkpt>
      <trkpt lat="43.47634" lon="6.30529">
        <ele>146.4</ele>
        <time>2023-03-03T13:44:56Z</time>
      </trkpt>
      <trkpt lat="43.47633" lon="6.30529">
        <ele>146.3</ele>
        <time>2023-03-03T13:44:57Z</time>
      </trkpt>
      <trkpt lat="43.47631" lon="6.30529">
        <ele>146.3</ele>
        <time>2023-03-03T13:44:58Z</time>
      </trkpt>
      <trkpt lat="43.4763" lon="6.30529">
        <ele>146.2</ele>
        <time>2023-03-03T13:44:59Z</time>
      </trkpt>
      <trkpt lat="43.47629" lon="6.30529">
        <ele>146.1</ele>
        <time>2023-03-03T13:45:00Z</time>
      </trkpt>
      <trkpt lat="43.47627" lon="6.30528">
        <ele>146</ele>
        <time>2023-03-03T13:45:01Z</time>
      </trkpt>
      <trkpt lat="43.47625" lon="6.30527">
        <ele>145.9</ele>
        <time>2023-03-03T13:45:02Z</time>
      </trkpt>
      <trkpt lat="43.47623" lon="6.30527">
        <ele>145.9</ele>
        <time>2023-03-03T13:45:03Z</time>
      </trkpt>
      <trkpt lat="43.47621" lon="6.30526">
        <ele>145.9</ele>
        <time>2023-03-03T13:45:04Z</time>
      </trkpt>
      <trkpt lat="43.4762" lon="6.30526">
        <ele>145.8</ele>
        <time>2023-03-03T13:45:05Z</time>
      </trkpt>
      <trkpt lat="43.47619" lon="6.30526">
        <ele>145.7</ele>
        <time>2023-03-03T13:45:06Z</time>
      </trkpt>
      <trkpt lat="43.47617" lon="6.30525">
        <ele>145.6</ele>
        <time>2023-03-03T13:45:07Z</time>
      </trkpt>
      <trkpt lat="43.47615" lon="6.30525">
        <ele>145.6</ele>
        <time>2023-03-03T13:45:08Z</time>
      </trkpt>
      <trkpt lat="43.47614" lon="6.30525">
        <ele>145.5</ele>
        <time>2023-03-03T13:45:09Z</time>
      </trkpt>
      <trkpt lat="43.47613" lon="6.30525">
        <ele>145.4</ele>
        <time>2023-03-03T13:45:10Z</time>
      </trkpt>
      <trkpt lat="43.47613" lon="6.30524">
        <ele>145.4</ele>
        <time>2023-03-03T13:45:11Z</time>
      </trkpt>
      <trkpt lat="43.47612" lon="6.30524">
        <ele>145.3</ele>
        <time>2023-03-03T13:45:12Z</time>
      </trkpt>
      <trkpt lat="43.47611" lon="6.30524">
        <ele>145.2</ele>
        <time>2023-03-03T13:45:13Z</time>
      </trkpt>
      <trkpt lat="43.47609" lon="6.30524">
        <ele>145.1</ele>
        <time>2023-03-03T13:45:14Z</time>
      </trkpt>
      <trkpt lat="43.47608" lon="6.30523">
        <ele>145.1</ele>
        <time>2023-03-03T13:45:15Z</time>
      </trkpt>
      <trkpt lat="43.47607" lon="6.30523">
        <ele>145</ele>
        <time>2023-03-03T13:45:16Z</time>
      </trkpt>
      <trkpt lat="43.47605" lon="6.30523">
        <ele>144.9</ele>
        <time>2023-03-03T13:45:17Z</time>
      </trkpt>
      <trkpt lat="43.47604" lon="6.30522">
        <ele>144.8</ele>
        <time>2023-03-03T13:45:18Z</time>
      </trkpt>
      <trkpt lat="43.47603" lon="6.30521">
        <ele>144.8</ele>
        <time>2023-03-03T13:45:19Z</time>
      </trkpt>
      <trkpt lat="43.47602" lon="6.30521">
        <ele>144.7</ele>
        <time>2023-03-03T13:45:20Z</time>
      </trkpt>
      <trkpt lat="43.47601" lon="6.30521">
        <ele>144.7</ele>
        <time>2023-03-03T13:45:21Z</time>
      </trkpt>
      <trkpt lat="43.47601" lon="6.30521">
        <ele>144.7</ele>
        <time>2023-03-03T13:45:22Z</time>
      </trkpt>
      <trkpt lat="43.47601" lon="6.30522">
        <ele>144.7</ele>
        <time>2023-03-03T13:45:23Z</time>
      </trkpt>
      <trkpt lat="43.476" lon="6.30523">
        <ele>144.7</ele>
        <time>2023-03-03T13:45:24Z</time>
      </trkpt>
      <trkpt lat="43.476" lon="6.30522">
        <ele>144.7</ele>
        <time>2023-03-03T13:45:25Z</time>
      </trkpt>
      <trkpt lat="43.47599" lon="6.30522">
        <ele>144.8</ele>
        <time>2023-03-03T13:45:26Z</time>
      </trkpt>
      <trkpt lat="43.47599" lon="6.30521">
        <ele>144.8</ele>
        <time>2023-03-03T13:45:27Z</time>
      </trkpt>
      <trkpt lat="43.47599" lon="6.30521">
        <ele>144.8</ele>
        <time>2023-03-03T13:45:28Z</time>
      </trkpt>
      <trkpt lat="43.47598" lon="6.30521">
        <ele>144.8</ele>
        <time>2023-03-03T13:45:29Z</time>
      </trkpt>
      <trkpt lat="43.47598" lon="6.30521">
        <ele>144.8</ele>
        <time>2023-03-03T13:45:30Z</time>
      </trkpt>
      <trkpt lat="43.47597" lon="6.3052">
        <ele>144.7</ele>
        <time>2023-03-03T13:45:31Z</time>
      </trkpt>
      <trkpt lat="43.47596" lon="6.30519">
        <ele>144.6</ele>
        <time>2023-03-03T13:45:32Z</time>
      </trkpt>
      <trkpt lat="43.47596" lon="6.30519">
        <ele>144.5</ele>
        <time>2023-03-03T13:45:33Z</time>
      </trkpt>
      <trkpt lat="43.47595" lon="6.30517">
        <ele>144.4</ele>
        <time>2023-03-03T13:45:34Z</time>
      </trkpt>
      <trkpt lat="43.47593" lon="6.30517">
        <ele>144.4</ele>
        <time>2023-03-03T13:45:35Z</time>
      </trkpt>
      <trkpt lat="43.47593" lon="6.30517">
        <ele>144.3</ele>
        <time>2023-03-03T13:45:36Z</time>
      </trkpt>
      <trkpt lat="43.47591" lon="6.30517">
        <ele>144.3</ele>
        <time>2023-03-03T13:45:37Z</time>
      </trkpt>
      <trkpt lat="43.4759" lon="6.30517">
        <ele>144.2</ele>
        <time>2023-03-03T13:45:38Z</time>
      </trkpt>
      <trkpt lat="43.47589" lon="6.30517">
        <ele>144.2</ele>
        <time>2023-03-03T13:45:39Z</time>
      </trkpt>
      <trkpt lat="43.47588" lon="6.30517">
        <ele>144.1</ele>
        <time>2023-03-03T13:45:40Z</time>
      </trkpt>
      <trkpt lat="43.47586" lon="6.30516">
        <ele>144.1</ele>
        <time>2023-03-03T13:45:41Z</time>
      </trkpt>
      <trkpt lat="43.47585" lon="6.30516">
        <ele>144.1</ele>
        <time>2023-03-03T13:45:42Z</time>
      </trkpt>
      <trkpt lat="43.47583" lon="6.30516">
        <ele>144.1</ele>
        <time>2023-03-03T13:45:43Z</time>
      </trkpt>
      <trkpt lat="43.47582" lon="6.30516">
        <ele>144</ele>
        <time>2023-03-03T13:45:44Z</time>
      </trkpt>
      <trkpt lat="43.47581" lon="6.30516">
        <ele>143.9</ele>
        <time>2023-03-03T13:45:45Z</time>
      </trkpt>
      <trkpt lat="43.4758" lon="6.30517">
        <ele>143.8</ele>
        <time>2023-03-03T13:45:46Z</time>
      </trkpt>
      <trkpt lat="43.47579" lon="6.30516">
        <ele>143.7</ele>
        <time>2023-03-03T13:45:47Z</time>
      </trkpt>
      <trkpt lat="43.47577" lon="6.30517">
        <ele>143.6</ele>
        <time>2023-03-03T13:45:48Z</time>
      </trkpt>
      <trkpt lat="43.47577" lon="6.30517">
        <ele>143.5</ele>
        <time>2023-03-03T13:45:49Z</time>
      </trkpt>
      <trkpt lat="43.47575" lon="6.30518">
        <ele>143.4</ele>
        <time>2023-03-03T13:45:50Z</time>
      </trkpt>
      <trkpt lat="43.47574" lon="6.30517">
        <ele>143.4</ele>
        <time>2023-03-03T13:45:51Z</time>
      </trkpt>
      <trkpt lat="43.47574" lon="6.30517">
        <ele>143.2</ele>
        <time>2023-03-03T13:45:52Z</time>
      </trkpt>
      <trkpt lat="43.47574" lon="6.30517">
        <ele>143.1</ele>
        <time>2023-03-03T13:45:53Z</time>
      </trkpt>
      <trkpt lat="43.47573" lon="6.30517">
        <ele>143</ele>
        <time>2023-03-03T13:45:54Z</time>
      </trkpt>
      <trkpt lat="43.47572" lon="6.30517">
        <ele>142.8</ele>
        <time>2023-03-03T13:45:55Z</time>
      </trkpt>
      <trkpt lat="43.47571" lon="6.30518">
        <ele>142.8</ele>
        <time>2023-03-03T13:45:56Z</time>
      </trkpt>
      <trkpt lat="43.4757" lon="6.30518">
        <ele>142.6</ele>
        <time>2023-03-03T13:45:57Z</time>
      </trkpt>
      <trkpt lat="43.47569" lon="6.30517">
        <ele>142.5</ele>
        <time>2023-03-03T13:45:58Z</time>
      </trkpt>
      <trkpt lat="43.47567" lon="6.30517">
        <ele>142.4</ele>
        <time>2023-03-03T13:45:59Z</time>
      </trkpt>
      <trkpt lat="43.47566" lon="6.30517">
        <ele>142.2</ele>
        <time>2023-03-03T13:46:00Z</time>
      </trkpt>
      <trkpt lat="43.47564" lon="6.30517">
        <ele>142</ele>
        <time>2023-03-03T13:46:01Z</time>
      </trkpt>
      <trkpt lat="43.47563" lon="6.30517">
        <ele>141.9</ele>
        <time>2023-03-03T13:46:02Z</time>
      </trkpt>
      <trkpt lat="43.47561" lon="6.30516">
        <ele>141.8</ele>
        <time>2023-03-03T13:46:03Z</time>
      </trkpt>
      <trkpt lat="43.4756" lon="6.30516">
        <ele>141.7</ele>
        <time>2023-03-03T13:46:04Z</time>
      </trkpt>
      <trkpt lat="43.47558" lon="6.30516">
        <ele>141.5</ele>
        <time>2023-03-03T13:46:05Z</time>
      </trkpt>
      <trkpt lat="43.47556" lon="6.30515">
        <ele>141.4</ele>
        <time>2023-03-03T13:46:06Z</time>
      </trkpt>
      <trkpt lat="43.47555" lon="6.30515">
        <ele>141.3</ele>
        <time>2023-03-03T13:46:07Z</time>
      </trkpt>
      <trkpt lat="43.47554" lon="6.30516">
        <ele>141.2</ele>
        <time>2023-03-03T13:46:08Z</time>
      </trkpt>
      <trkpt lat="43.47553" lon="6.30516">
        <ele>141.1</ele>
        <time>2023-03-03T13:46:09Z</time>
      </trkpt>
      <trkpt lat="43.47551" lon="6.30516">
        <ele>140.9</ele>
        <time>2023-03-03T13:46:10Z</time>
      </trkpt>
      <trkpt lat="43.47551" lon="6.30516">
        <ele>140.8</ele>
        <time>2023-03-03T13:46:11Z</time>
      </trkpt>
      <trkpt lat="43.47549" lon="6.30516">
        <ele>140.7</ele>
        <time>2023-03-03T13:46:12Z</time>
      </trkpt>
      <trkpt lat="43.47548" lon="6.30516">
        <ele>140.7</ele>
        <time>2023-03-03T13:46:13Z</time>
      </trkpt>
      <trkpt lat="43.47547" lon="6.30516">
        <ele>140.6</ele>
        <time>2023-03-03T13:46:14Z</time>
      </trkpt>
      <trkpt lat="43.47546" lon="6.30515">
        <ele>140.4</ele>
        <time>2023-03-03T13:46:15Z</time>
      </trkpt>
      <trkpt lat="43.47544" lon="6.30515">
        <ele>140.2</ele>
        <time>2023-03-03T13:46:16Z</time>
      </trkpt>
      <trkpt lat="43.47542" lon="6.30515">
        <ele>140.2</ele>
        <time>2023-03-03T13:46:17Z</time>
      </trkpt>
      <trkpt lat="43.47541" lon="6.30514">
        <ele>140</ele>
        <time>2023-03-03T13:46:18Z</time>
      </trkpt>
      <trkpt lat="43.47539" lon="6.30513">
        <ele>140</ele>
        <time>2023-03-03T13:46:19Z</time>
      </trkpt>
      <trkpt lat="43.47538" lon="6.30512">
        <ele>140</ele>
        <time>2023-03-03T13:46:20Z</time>
      </trkpt>
      <trkpt lat="43.47537" lon="6.30512">
        <ele>139.8</ele>
        <time>2023-03-03T13:46:21Z</time>
      </trkpt>
      <trkpt lat="43.47535" lon="6.30512">
        <ele>139.7</ele>
        <time>2023-03-03T13:46:22Z</time>
      </trkpt>
      <trkpt lat="43.47533" lon="6.30511">
        <ele>139.6</ele>
        <time>2023-03-03T13:46:23Z</time>
      </trkpt>
      <trkpt lat="43.47532" lon="6.30511">
        <ele>139.6</ele>
        <time>2023-03-03T13:46:24Z</time>
      </trkpt>
      <trkpt lat="43.47531" lon="6.3051">
        <ele>139.5</ele>
        <time>2023-03-03T13:46:25Z</time>
      </trkpt>
      <trkpt lat="43.47529" lon="6.30509">
        <ele>139.4</ele>
        <time>2023-03-03T13:46:26Z</time>
      </trkpt>
      <trkpt lat="43.47528" lon="6.30508">
        <ele>139.3</ele>
        <time>2023-03-03T13:46:27Z</time>
      </trkpt>
      <trkpt lat="43.47527" lon="6.30508">
        <ele>139.1</ele>
        <time>2023-03-03T13:46:28Z</time>
      </trkpt>
      <trkpt lat="43.47526" lon="6.30508">
        <ele>139</ele>
        <time>2023-03-03T13:46:29Z</time>
      </trkpt>
      <trkpt lat="43.47525" lon="6.30507">
        <ele>138.8</ele>
        <time>2023-03-03T13:46:30Z</time>
      </trkpt>
      <trkpt lat="43.47524" lon="6.30507">
        <ele>138.6</ele>
        <time>2023-03-03T13:46:31Z</time>
      </trkpt>
      <trkpt lat="43.47523" lon="6.30507">
        <ele>138.5</ele>
        <time>2023-03-03T13:46:32Z</time>
      </trkpt>
      <trkpt lat="43.47522" lon="6.30507">
        <ele>138.4</ele>
        <time>2023-03-03T13:46:33Z</time>
      </trkpt>
      <trkpt lat="43.47522" lon="6.30507">
        <ele>138.3</ele>
        <time>2023-03-03T13:46:34Z</time>
      </trkpt>
      <trkpt lat="43.47521" lon="6.30506">
        <ele>138.3</ele>
        <time>2023-03-03T13:46:35Z</time>
      </trkpt>
      <trkpt lat="43.4752" lon="6.30506">
        <ele>138.2</ele>
        <time>2023-03-03T13:46:36Z</time>
      </trkpt>
      <trkpt lat="43.4752" lon="6.30507">
        <ele>138.1</ele>
        <time>2023-03-03T13:46:37Z</time>
      </trkpt>
      <trkpt lat="43.47519" lon="6.30507">
        <ele>138.1</ele>
        <time>2023-03-03T13:46:38Z</time>
      </trkpt>
      <trkpt lat="43.47518" lon="6.30507">
        <ele>138.1</ele>
        <time>2023-03-03T13:46:39Z</time>
      </trkpt>
      <trkpt lat="43.47517" lon="6.30507">
        <ele>138</ele>
        <time>2023-03-03T13:46:40Z</time>
      </trkpt>
      <trkpt lat="43.47516" lon="6.30507">
        <ele>137.9</ele>
        <time>2023-03-03T13:46:41Z</time>
      </trkpt>
      <trkpt lat="43.47515" lon="6.30508">
        <ele>137.8</ele>
        <time>2023-03-03T13:46:42Z</time>
      </trkpt>
      <trkpt lat="43.47514" lon="6.30508">
        <ele>137.9</ele>
        <time>2023-03-03T13:46:43Z</time>
      </trkpt>
      <trkpt lat="43.47513" lon="6.30508">
        <ele>137.7</ele>
        <time>2023-03-03T13:46:44Z</time>
      </trkpt>
      <trkpt lat="43.47513" lon="6.30508">
        <ele>137.7</ele>
        <time>2023-03-03T13:46:45Z</time>
      </trkpt>
      <trkpt lat="43.47512" lon="6.30508">
        <ele>137.7</ele>
        <time>2023-03-03T13:46:46Z</time>
      </trkpt>
      <trkpt lat="43.47511" lon="6.30508">
        <ele>138</ele>
        <time>2023-03-03T13:46:47Z</time>
      </trkpt>
      <trkpt lat="43.4751" lon="6.3051">
        <ele>138</ele>
        <time>2023-03-03T13:46:48Z</time>
      </trkpt>
      <trkpt lat="43.47508" lon="6.3051">
        <ele>137.9</ele>
        <time>2023-03-03T13:46:49Z</time>
      </trkpt>
      <trkpt lat="43.47506" lon="6.3051">
        <ele>137.9</ele>
        <time>2023-03-03T13:46:50Z</time>
      </trkpt>
      <trkpt lat="43.47505" lon="6.3051">
        <ele>137.7</ele>
        <time>2023-03-03T13:46:51Z</time>
      </trkpt>
      <trkpt lat="43.47504" lon="6.30511">
        <ele>137.7</ele>
        <time>2023-03-03T13:46:52Z</time>
      </trkpt>
      <trkpt lat="43.47503" lon="6.30511">
        <ele>137.7</ele>
        <time>2023-03-03T13:46:53Z</time>
      </trkpt>
      <trkpt lat="43.47502" lon="6.30511">
        <ele>137.7</ele>
        <time>2023-03-03T13:46:54Z</time>
      </trkpt>
      <trkpt lat="43.475" lon="6.30512">
        <ele>137.7</ele>
        <time>2023-03-03T13:46:55Z</time>
      </trkpt>
      <trkpt lat="43.47499" lon="6.30513">
        <ele>137.6</ele>
        <time>2023-03-03T13:46:56Z</time>
      </trkpt>
      <trkpt lat="43.47499" lon="6.30512">
        <ele>137.6</ele>
        <time>2023-03-03T13:46:57Z</time>
      </trkpt>
      <trkpt lat="43.47498" lon="6.30512">
        <ele>137.6</ele>
        <time>2023-03-03T13:46:58Z</time>
      </trkpt>
      <trkpt lat="43.47498" lon="6.30512">
        <ele>137.5</ele>
        <time>2023-03-03T13:46:59Z</time>
      </trkpt>
      <trkpt lat="43.47497" lon="6.30513">
        <ele>137.5</ele>
        <time>2023-03-03T13:47:00Z</time>
      </trkpt>
      <trkpt lat="43.47496" lon="6.30513">
        <ele>137.5</ele>
        <time>2023-03-03T13:47:01Z</time>
      </trkpt>
      <trkpt lat="43.47496" lon="6.30513">
        <ele>137.5</ele>
        <time>2023-03-03T13:47:02Z</time>
      </trkpt>
      <trkpt lat="43.47495" lon="6.30512">
        <ele>137.4</ele>
        <time>2023-03-03T13:47:03Z</time>
      </trkpt>
      <trkpt lat="43.47494" lon="6.30512">
        <ele>137.5</ele>
        <time>2023-03-03T13:47:04Z</time>
      </trkpt>
      <trkpt lat="43.47494" lon="6.30511">
        <ele>137.5</ele>
        <time>2023-03-03T13:47:05Z</time>
      </trkpt>
      <trkpt lat="43.47492" lon="6.30511">
        <ele>137.4</ele>
        <time>2023-03-03T13:47:06Z</time>
      </trkpt>
      <trkpt lat="43.47491" lon="6.30511">
        <ele>137.3</ele>
        <time>2023-03-03T13:47:07Z</time>
      </trkpt>
      <trkpt lat="43.4749" lon="6.30511">
        <ele>137.3</ele>
        <time>2023-03-03T13:47:08Z</time>
      </trkpt>
      <trkpt lat="43.47489" lon="6.30512">
        <ele>137.2</ele>
        <time>2023-03-03T13:47:09Z</time>
      </trkpt>
      <trkpt lat="43.47488" lon="6.30512">
        <ele>137.1</ele>
        <time>2023-03-03T13:47:10Z</time>
      </trkpt>
      <trkpt lat="43.47488" lon="6.30512">
        <ele>137</ele>
        <time>2023-03-03T13:47:11Z</time>
      </trkpt>
      <trkpt lat="43.47486" lon="6.30512">
        <ele>137</ele>
        <time>2023-03-03T13:47:12Z</time>
      </trkpt>
      <trkpt lat="43.47484" lon="6.30511">
        <ele>137</ele>
        <time>2023-03-03T13:47:13Z</time>
      </trkpt>
      <trkpt lat="43.47482" lon="6.3051">
        <ele>137.1</ele>
        <time>2023-03-03T13:47:14Z</time>
      </trkpt>
      <trkpt lat="43.47481" lon="6.3051">
        <ele>134.4</ele>
        <time>2023-03-03T13:47:15Z</time>
      </trkpt>
      <trkpt lat="43.47482" lon="6.3051">
        <ele>134.9</ele>
        <time>2023-03-03T13:47:16Z</time>
      </trkpt>
      <trkpt lat="43.47481" lon="6.3051">
        <ele>135.2</ele>
        <time>2023-03-03T13:47:17Z</time>
      </trkpt>
      <trkpt lat="43.4748" lon="6.3051">
        <ele>135.6</ele>
        <time>2023-03-03T13:47:18Z</time>
      </trkpt>
      <trkpt lat="43.47479" lon="6.30509">
        <ele>135.8</ele>
        <time>2023-03-03T13:47:19Z</time>
      </trkpt>
      <trkpt lat="43.47479" lon="6.30509">
        <ele>136</ele>
        <time>2023-03-03T13:47:20Z</time>
      </trkpt>
      <trkpt lat="43.47477" lon="6.30508">
        <ele>136.1</ele>
        <time>2023-03-03T13:47:21Z</time>
      </trkpt>
      <trkpt lat="43.47475" lon="6.30508">
        <ele>136.2</ele>
        <time>2023-03-03T13:47:22Z</time>
      </trkpt>
      <trkpt lat="43.47474" lon="6.30507">
        <ele>136.2</ele>
        <time>2023-03-03T13:47:23Z</time>
      </trkpt>
      <trkpt lat="43.47473" lon="6.30507">
        <ele>136.3</ele>
        <time>2023-03-03T13:47:24Z</time>
      </trkpt>
      <trkpt lat="43.47472" lon="6.30506">
        <ele>136.4</ele>
        <time>2023-03-03T13:47:25Z</time>
      </trkpt>
      <trkpt lat="43.47471" lon="6.30506">
        <ele>136.5</ele>
        <time>2023-03-03T13:47:26Z</time>
      </trkpt>
      <trkpt lat="43.4747" lon="6.30506">
        <ele>136.4</ele>
        <time>2023-03-03T13:47:27Z</time>
      </trkpt>
      <trkpt lat="43.47469" lon="6.30506">
        <ele>136.5</ele>
        <time>2023-03-03T13:47:28Z</time>
      </trkpt>
      <trkpt lat="43.47469" lon="6.30506">
        <ele>136.5</ele>
        <time>2023-03-03T13:47:29Z</time>
      </trkpt>
      <trkpt lat="43.47468" lon="6.30505">
        <ele>136.5</ele>
        <time>2023-03-03T13:47:30Z</time>
      </trkpt>
      <trkpt lat="43.47467" lon="6.30505">
        <ele>136.5</ele>
        <time>2023-03-03T13:47:31Z</time>
      </trkpt>
      <trkpt lat="43.47466" lon="6.30504">
        <ele>136.4</ele>
        <time>2023-03-03T13:47:32Z</time>
      </trkpt>
      <trkpt lat="43.47465" lon="6.30504">
        <ele>136.3</ele>
        <time>2023-03-03T13:47:33Z</time>
      </trkpt>
      <trkpt lat="43.47463" lon="6.30503">
        <ele>136.3</ele>
        <time>2023-03-03T13:47:34Z</time>
      </trkpt>
      <trkpt lat="43.47463" lon="6.30503">
        <ele>136.3</ele>
        <time>2023-03-03T13:47:35Z</time>
      </trkpt>
      <trkpt lat="43.47462" lon="6.30502">
        <ele>136.4</ele>
        <time>2023-03-03T13:47:36Z</time>
      </trkpt>
      <trkpt lat="43.47461" lon="6.30502">
        <ele>136.5</ele>
        <time>2023-03-03T13:47:37Z</time>
      </trkpt>
      <trkpt lat="43.47461" lon="6.30501">
        <ele>136.5</ele>
        <time>2023-03-03T13:47:38Z</time>
      </trkpt>
      <trkpt lat="43.4746" lon="6.30501">
        <ele>136.6</ele>
        <time>2023-03-03T13:47:39Z</time>
      </trkpt>
      <trkpt lat="43.47459" lon="6.305">
        <ele>136.6</ele>
        <time>2023-03-03T13:47:40Z</time>
      </trkpt>
      <trkpt lat="43.47459" lon="6.305">
        <ele>136.6</ele>
        <time>2023-03-03T13:47:41Z</time>
      </trkpt>
      <trkpt lat="43.47458" lon="6.30499">
        <ele>136.6</ele>
        <time>2023-03-03T13:47:42Z</time>
      </trkpt>
      <trkpt lat="43.47457" lon="6.30499">
        <ele>136.6</ele>
        <time>2023-03-03T13:47:43Z</time>
      </trkpt>
      <trkpt lat="43.47457" lon="6.30498">
        <ele>136.5</ele>
        <time>2023-03-03T13:47:44Z</time>
      </trkpt>
      <trkpt lat="43.47456" lon="6.30497">
        <ele>136.5</ele>
        <time>2023-03-03T13:47:45Z</time>
      </trkpt>
      <trkpt lat="43.47455" lon="6.30496">
        <ele>136.4</ele>
        <time>2023-03-03T13:47:46Z</time>
      </trkpt>
      <trkpt lat="43.47455" lon="6.30496">
        <ele>136.5</ele>
        <time>2023-03-03T13:47:47Z</time>
      </trkpt>
      <trkpt lat="43.47454" lon="6.30496">
        <ele>136.4</ele>
        <time>2023-03-03T13:47:48Z</time>
      </trkpt>
      <trkpt lat="43.47453" lon="6.30495">
        <ele>136.4</ele>
        <time>2023-03-03T13:47:49Z</time>
      </trkpt>
      <trkpt lat="43.47452" lon="6.30495">
        <ele>136.3</ele>
        <time>2023-03-03T13:47:50Z</time>
      </trkpt>
      <trkpt lat="43.47452" lon="6.30495">
        <ele>136.2</ele>
        <time>2023-03-03T13:47:51Z</time>
      </trkpt>
      <trkpt lat="43.47451" lon="6.30494">
        <ele>136.1</ele>
        <time>2023-03-03T13:47:52Z</time>
      </trkpt>
      <trkpt lat="43.47451" lon="6.30493">
        <ele>136</ele>
        <time>2023-03-03T13:47:53Z</time>
      </trkpt>
      <trkpt lat="43.4745" lon="6.30493">
        <ele>135.9</ele>
        <time>2023-03-03T13:47:54Z</time>
      </trkpt>
      <trkpt lat="43.47448" lon="6.30493">
        <ele>135.8</ele>
        <time>2023-03-03T13:47:55Z</time>
      </trkpt>
      <trkpt lat="43.47447" lon="6.30492">
        <ele>135.7</ele>
        <time>2023-03-03T13:47:56Z</time>
      </trkpt>
      <trkpt lat="43.47446" lon="6.30492">
        <ele>135.6</ele>
        <time>2023-03-03T13:47:57Z</time>
      </trkpt>
      <trkpt lat="43.47444" lon="6.30492">
        <ele>135.5</ele>
        <time>2023-03-03T13:47:58Z</time>
      </trkpt>
      <trkpt lat="43.47443" lon="6.30491">
        <ele>135.2</ele>
        <time>2023-03-03T13:47:59Z</time>
      </trkpt>
      <trkpt lat="43.47442" lon="6.30491">
        <ele>135.2</ele>
        <time>2023-03-03T13:48:00Z</time>
      </trkpt>
      <trkpt lat="43.4744" lon="6.30491">
        <ele>135.1</ele>
        <time>2023-03-03T13:48:01Z</time>
      </trkpt>
      <trkpt lat="43.47439" lon="6.3049">
        <ele>135</ele>
        <time>2023-03-03T13:48:02Z</time>
      </trkpt>
      <trkpt lat="43.47438" lon="6.3049">
        <ele>134.8</ele>
        <time>2023-03-03T13:48:03Z</time>
      </trkpt>
      <trkpt lat="43.47437" lon="6.30489">
        <ele>134.8</ele>
        <time>2023-03-03T13:48:04Z</time>
      </trkpt>
      <trkpt lat="43.47436" lon="6.30489">
        <ele>134.7</ele>
        <time>2023-03-03T13:48:05Z</time>
      </trkpt>
      <trkpt lat="43.47435" lon="6.30488">
        <ele>134.6</ele>
        <time>2023-03-03T13:48:06Z</time>
      </trkpt>
      <trkpt lat="43.47433" lon="6.30488">
        <ele>134.5</ele>
        <time>2023-03-03T13:48:07Z</time>
      </trkpt>
      <trkpt lat="43.47431" lon="6.30487">
        <ele>134.6</ele>
        <time>2023-03-03T13:48:08Z</time>
      </trkpt>
      <trkpt lat="43.4743" lon="6.30487">
        <ele>134.6</ele>
        <time>2023-03-03T13:48:09Z</time>
      </trkpt>
      <trkpt lat="43.47428" lon="6.30487">
        <ele>134.6</ele>
        <time>2023-03-03T13:48:10Z</time>
      </trkpt>
      <trkpt lat="43.47427" lon="6.30486">
        <ele>134.6</ele>
        <time>2023-03-03T13:48:11Z</time>
      </trkpt>
      <trkpt lat="43.47427" lon="6.30485">
        <ele>134.5</ele>
        <time>2023-03-03T13:48:12Z</time>
      </trkpt>
      <trkpt lat="43.47426" lon="6.30484">
        <ele>134.6</ele>
        <time>2023-03-03T13:48:13Z</time>
      </trkpt>
      <trkpt lat="43.47424" lon="6.30483">
        <ele>134.6</ele>
        <time>2023-03-03T13:48:14Z</time>
      </trkpt>
      <trkpt lat="43.47423" lon="6.30482">
        <ele>134.6</ele>
        <time>2023-03-03T13:48:15Z</time>
      </trkpt>
      <trkpt lat="43.47421" lon="6.30481">
        <ele>134.5</ele>
        <time>2023-03-03T13:48:16Z</time>
      </trkpt>
      <trkpt lat="43.4742" lon="6.3048">
        <ele>134.5</ele>
        <time>2023-03-03T13:48:17Z</time>
      </trkpt>
      <trkpt lat="43.47419" lon="6.30479">
        <ele>134.4</ele>
        <time>2023-03-03T13:48:18Z</time>
      </trkpt>
      <trkpt lat="43.47418" lon="6.30479">
        <ele>134.3</ele>
        <time>2023-03-03T13:48:19Z</time>
      </trkpt>
      <trkpt lat="43.47417" lon="6.30479">
        <ele>134.2</ele>
        <time>2023-03-03T13:48:20Z</time>
      </trkpt>
      <trkpt lat="43.47416" lon="6.30479">
        <ele>134.1</ele>
        <time>2023-03-03T13:48:21Z</time>
      </trkpt>
      <trkpt lat="43.47415" lon="6.30478">
        <ele>134</ele>
        <time>2023-03-03T13:48:22Z</time>
      </trkpt>
      <trkpt lat="43.47414" lon="6.30478">
        <ele>133.9</ele>
        <time>2023-03-03T13:48:23Z</time>
      </trkpt>
      <trkpt lat="43.47413" lon="6.30477">
        <ele>133.8</ele>
        <time>2023-03-03T13:48:24Z</time>
      </trkpt>
      <trkpt lat="43.47412" lon="6.30476">
        <ele>133.7</ele>
        <time>2023-03-03T13:48:25Z</time>
      </trkpt>
      <trkpt lat="43.47411" lon="6.30475">
        <ele>133.6</ele>
        <time>2023-03-03T13:48:26Z</time>
      </trkpt>
      <trkpt lat="43.4741" lon="6.30475">
        <ele>133.5</ele>
        <time>2023-03-03T13:48:27Z</time>
      </trkpt>
      <trkpt lat="43.47409" lon="6.30474">
        <ele>133.5</ele>
        <time>2023-03-03T13:48:28Z</time>
      </trkpt>
      <trkpt lat="43.47408" lon="6.30473">
        <ele>133.5</ele>
        <time>2023-03-03T13:48:29Z</time>
      </trkpt>
      <trkpt lat="43.47407" lon="6.30472">
        <ele>133.4</ele>
        <time>2023-03-03T13:48:30Z</time>
      </trkpt>
      <trkpt lat="43.47406" lon="6.30473">
        <ele>133.4</ele>
        <time>2023-03-03T13:48:31Z</time>
      </trkpt>
      <trkpt lat="43.47405" lon="6.30472">
        <ele>133.2</ele>
        <time>2023-03-03T13:48:32Z</time>
      </trkpt>
      <trkpt lat="43.47404" lon="6.3047">
        <ele>133.1</ele>
        <time>2023-03-03T13:48:33Z</time>
      </trkpt>
      <trkpt lat="43.47403" lon="6.3047">
        <ele>133.1</ele>
        <time>2023-03-03T13:48:34Z</time>
      </trkpt>
      <trkpt lat="43.47401" lon="6.30469">
        <ele>133</ele>
        <time>2023-03-03T13:48:35Z</time>
      </trkpt>
      <trkpt lat="43.474" lon="6.30469">
        <ele>133</ele>
        <time>2023-03-03T13:48:36Z</time>
      </trkpt>
      <trkpt lat="43.474" lon="6.30467">
        <ele>132.9</ele>
        <time>2023-03-03T13:48:37Z</time>
      </trkpt>
      <trkpt lat="43.47399" lon="6.30467">
        <ele>132.9</ele>
        <time>2023-03-03T13:48:38Z</time>
      </trkpt>
      <trkpt lat="43.47398" lon="6.30466">
        <ele>132.8</ele>
        <time>2023-03-03T13:48:39Z</time>
      </trkpt>
      <trkpt lat="43.47397" lon="6.30466">
        <ele>132.7</ele>
        <time>2023-03-03T13:48:40Z</time>
      </trkpt>
      <trkpt lat="43.47396" lon="6.30465">
        <ele>132.5</ele>
        <time>2023-03-03T13:48:41Z</time>
      </trkpt>
      <trkpt lat="43.47395" lon="6.30465">
        <ele>132.4</ele>
        <time>2023-03-03T13:48:42Z</time>
      </trkpt>
      <trkpt lat="43.47393" lon="6.30464">
        <ele>132.5</ele>
        <time>2023-03-03T13:48:43Z</time>
      </trkpt>
      <trkpt lat="43.47393" lon="6.30464">
        <ele>132.5</ele>
        <time>2023-03-03T13:48:44Z</time>
      </trkpt>
      <trkpt lat="43.47392" lon="6.30463">
        <ele>132.5</ele>
        <time>2023-03-03T13:48:45Z</time>
      </trkpt>
      <trkpt lat="43.47391" lon="6.30462">
        <ele>132.5</ele>
        <time>2023-03-03T13:48:46Z</time>
      </trkpt>
      <trkpt lat="43.4739" lon="6.30462">
        <ele>132.5</ele>
        <time>2023-03-03T13:48:47Z</time>
      </trkpt>
      <trkpt lat="43.47388" lon="6.30461">
        <ele>132.5</ele>
        <time>2023-03-03T13:48:48Z</time>
      </trkpt>
      <trkpt lat="43.47387" lon="6.30461">
        <ele>132.5</ele>
        <time>2023-03-03T13:48:49Z</time>
      </trkpt>
      <trkpt lat="43.47386" lon="6.3046">
        <ele>132.4</ele>
        <time>2023-03-03T13:48:50Z</time>
      </trkpt>
      <trkpt lat="43.47385" lon="6.30459">
        <ele>132.4</ele>
        <time>2023-03-03T13:48:51Z</time>
      </trkpt>
      <trkpt lat="43.47384" lon="6.30459">
        <ele>132.4</ele>
        <time>2023-03-03T13:48:52Z</time>
      </trkpt>
      <trkpt lat="43.47384" lon="6.30458">
        <ele>132.5</ele>
        <time>2023-03-03T13:48:53Z</time>
      </trkpt>
      <trkpt lat="43.47383" lon="6.30458">
        <ele>132.4</ele>
        <time>2023-03-03T13:48:54Z</time>
      </trkpt>
      <trkpt lat="43.47382" lon="6.30458">
        <ele>132.4</ele>
        <time>2023-03-03T13:48:55Z</time>
      </trkpt>
      <trkpt lat="43.47381" lon="6.30459">
        <ele>132.4</ele>
        <time>2023-03-03T13:48:56Z</time>
      </trkpt>
      <trkpt lat="43.47381" lon="6.30459">
        <ele>132.4</ele>
        <time>2023-03-03T13:48:57Z</time>
      </trkpt>
      <trkpt lat="43.4738" lon="6.30458">
        <ele>132.3</ele>
        <time>2023-03-03T13:48:58Z</time>
      </trkpt>
      <trkpt lat="43.47379" lon="6.30457">
        <ele>132.2</ele>
        <time>2023-03-03T13:48:59Z</time>
      </trkpt>
      <trkpt lat="43.47378" lon="6.30457">
        <ele>132</ele>
        <time>2023-03-03T13:49:00Z</time>
      </trkpt>
      <trkpt lat="43.47377" lon="6.30456">
        <ele>132.1</ele>
        <time>2023-03-03T13:49:01Z</time>
      </trkpt>
      <trkpt lat="43.47376" lon="6.30455">
        <ele>132.1</ele>
        <time>2023-03-03T13:49:02Z</time>
      </trkpt>
      <trkpt lat="43.47375" lon="6.30456">
        <ele>131.9</ele>
        <time>2023-03-03T13:49:03Z</time>
      </trkpt>
      <trkpt lat="43.47374" lon="6.30455">
        <ele>131.9</ele>
        <time>2023-03-03T13:49:04Z</time>
      </trkpt>
      <trkpt lat="43.47373" lon="6.30454">
        <ele>131.8</ele>
        <time>2023-03-03T13:49:05Z</time>
      </trkpt>
      <trkpt lat="43.47372" lon="6.30453">
        <ele>131.7</ele>
        <time>2023-03-03T13:49:06Z</time>
      </trkpt>
      <trkpt lat="43.47371" lon="6.30452">
        <ele>131.6</ele>
        <time>2023-03-03T13:49:07Z</time>
      </trkpt>
      <trkpt lat="43.4737" lon="6.30452">
        <ele>131.6</ele>
        <time>2023-03-03T13:49:08Z</time>
      </trkpt>
      <trkpt lat="43.4737" lon="6.30451">
        <ele>131.6</ele>
        <time>2023-03-03T13:49:09Z</time>
      </trkpt>
      <trkpt lat="43.47369" lon="6.30451">
        <ele>131.6</ele>
        <time>2023-03-03T13:49:10Z</time>
      </trkpt>
      <trkpt lat="43.47368" lon="6.3045">
        <ele>131.5</ele>
        <time>2023-03-03T13:49:11Z</time>
      </trkpt>
      <trkpt lat="43.47366" lon="6.30449">
        <ele>131.4</ele>
        <time>2023-03-03T13:49:12Z</time>
      </trkpt>
      <trkpt lat="43.47366" lon="6.30449">
        <ele>131.3</ele>
        <time>2023-03-03T13:49:13Z</time>
      </trkpt>
      <trkpt lat="43.47365" lon="6.30448">
        <ele>131.1</ele>
        <time>2023-03-03T13:49:14Z</time>
      </trkpt>
      <trkpt lat="43.47364" lon="6.30447">
        <ele>131</ele>
        <time>2023-03-03T13:49:15Z</time>
      </trkpt>
      <trkpt lat="43.47363" lon="6.30447">
        <ele>130.9</ele>
        <time>2023-03-03T13:49:16Z</time>
      </trkpt>
      <trkpt lat="43.47363" lon="6.30446">
        <ele>130.8</ele>
        <time>2023-03-03T13:49:17Z</time>
      </trkpt>
      <trkpt lat="43.47362" lon="6.30446">
        <ele>130.7</ele>
        <time>2023-03-03T13:49:18Z</time>
      </trkpt>
      <trkpt lat="43.47361" lon="6.30445">
        <ele>130.6</ele>
        <time>2023-03-03T13:49:19Z</time>
      </trkpt>
      <trkpt lat="43.47359" lon="6.30444">
        <ele>130.5</ele>
        <time>2023-03-03T13:49:20Z</time>
      </trkpt>
      <trkpt lat="43.47357" lon="6.30444">
        <ele>130.3</ele>
        <time>2023-03-03T13:49:21Z</time>
      </trkpt>
      <trkpt lat="43.47356" lon="6.30443">
        <ele>130.2</ele>
        <time>2023-03-03T13:49:22Z</time>
      </trkpt>
      <trkpt lat="43.47355" lon="6.30442">
        <ele>130.1</ele>
        <time>2023-03-03T13:49:23Z</time>
      </trkpt>
      <trkpt lat="43.47354" lon="6.30441">
        <ele>130</ele>
        <time>2023-03-03T13:49:24Z</time>
      </trkpt>
      <trkpt lat="43.47353" lon="6.3044">
        <ele>130</ele>
        <time>2023-03-03T13:49:25Z</time>
      </trkpt>
      <trkpt lat="43.47351" lon="6.30439">
        <ele>129.9</ele>
        <time>2023-03-03T13:49:26Z</time>
      </trkpt>
      <trkpt lat="43.4735" lon="6.30438">
        <ele>129.7</ele>
        <time>2023-03-03T13:49:27Z</time>
      </trkpt>
      <trkpt lat="43.47348" lon="6.30438">
        <ele>129.7</ele>
        <time>2023-03-03T13:49:28Z</time>
      </trkpt>
      <trkpt lat="43.47348" lon="6.30437">
        <ele>129.6</ele>
        <time>2023-03-03T13:49:29Z</time>
      </trkpt>
      <trkpt lat="43.47347" lon="6.30436">
        <ele>129.5</ele>
        <time>2023-03-03T13:49:30Z</time>
      </trkpt>
      <trkpt lat="43.47346" lon="6.30436">
        <ele>129.4</ele>
        <time>2023-03-03T13:49:31Z</time>
      </trkpt>
      <trkpt lat="43.47346" lon="6.30436">
        <ele>129.3</ele>
        <time>2023-03-03T13:49:32Z</time>
      </trkpt>
      <trkpt lat="43.47345" lon="6.30435">
        <ele>129.2</ele>
        <time>2023-03-03T13:49:33Z</time>
      </trkpt>
      <trkpt lat="43.47344" lon="6.30434">
        <ele>129.1</ele>
        <time>2023-03-03T13:49:34Z</time>
      </trkpt>
      <trkpt lat="43.47343" lon="6.30433">
        <ele>129</ele>
        <time>2023-03-03T13:49:35Z</time>
      </trkpt>
      <trkpt lat="43.47342" lon="6.30432">
        <ele>128.9</ele>
        <time>2023-03-03T13:49:36Z</time>
      </trkpt>
      <trkpt lat="43.47341" lon="6.30431">
        <ele>128.8</ele>
        <time>2023-03-03T13:49:37Z</time>
      </trkpt>
      <trkpt lat="43.4734" lon="6.30431">
        <ele>128.6</ele>
        <time>2023-03-03T13:49:38Z</time>
      </trkpt>
      <trkpt lat="43.47339" lon="6.3043">
        <ele>128.6</ele>
        <time>2023-03-03T13:49:39Z</time>
      </trkpt>
      <trkpt lat="43.47338" lon="6.3043">
        <ele>128.6</ele>
        <time>2023-03-03T13:49:40Z</time>
      </trkpt>
      <trkpt lat="43.47337" lon="6.3043">
        <ele>128.6</ele>
        <time>2023-03-03T13:49:41Z</time>
      </trkpt>
      <trkpt lat="43.47335" lon="6.30428">
        <ele>128.5</ele>
        <time>2023-03-03T13:49:42Z</time>
      </trkpt>
      <trkpt lat="43.47334" lon="6.30427">
        <ele>128.4</ele>
        <time>2023-03-03T13:49:43Z</time>
      </trkpt>
      <trkpt lat="43.47333" lon="6.30427">
        <ele>128.2</ele>
        <time>2023-03-03T13:49:44Z</time>
      </trkpt>
      <trkpt lat="43.47331" lon="6.30426">
        <ele>128.1</ele>
        <time>2023-03-03T13:49:45Z</time>
      </trkpt>
      <trkpt lat="43.4733" lon="6.30425">
        <ele>128</ele>
        <time>2023-03-03T13:49:46Z</time>
      </trkpt>
      <trkpt lat="43.47329" lon="6.30425">
        <ele>127.9</ele>
        <time>2023-03-03T13:49:47Z</time>
      </trkpt>
      <trkpt lat="43.47328" lon="6.30424">
        <ele>127.8</ele>
        <time>2023-03-03T13:49:48Z</time>
      </trkpt>
      <trkpt lat="43.47326" lon="6.30423">
        <ele>127.7</ele>
        <time>2023-03-03T13:49:49Z</time>
      </trkpt>
      <trkpt lat="43.47325" lon="6.30422">
        <ele>127.7</ele>
        <time>2023-03-03T13:49:50Z</time>
      </trkpt>
      <trkpt lat="43.47324" lon="6.30421">
        <ele>127.7</ele>
        <time>2023-03-03T13:49:51Z</time>
      </trkpt>
      <trkpt lat="43.47323" lon="6.30421">
        <ele>127.6</ele>
        <time>2023-03-03T13:49:52Z</time>
      </trkpt>
      <trkpt lat="43.47321" lon="6.3042">
        <ele>127.6</ele>
        <time>2023-03-03T13:49:53Z</time>
      </trkpt>
      <trkpt lat="43.4732" lon="6.30419">
        <ele>127.5</ele>
        <time>2023-03-03T13:49:54Z</time>
      </trkpt>
      <trkpt lat="43.47319" lon="6.30419">
        <ele>127.5</ele>
        <time>2023-03-03T13:49:55Z</time>
      </trkpt>
      <trkpt lat="43.47318" lon="6.30419">
        <ele>127.4</ele>
        <time>2023-03-03T13:49:56Z</time>
      </trkpt>
      <trkpt lat="43.47317" lon="6.30418">
        <ele>127.4</ele>
        <time>2023-03-03T13:49:57Z</time>
      </trkpt>
      <trkpt lat="43.47316" lon="6.30417">
        <ele>127.4</ele>
        <time>2023-03-03T13:49:58Z</time>
      </trkpt>
      <trkpt lat="43.47314" lon="6.30416">
        <ele>127.4</ele>
        <time>2023-03-03T13:49:59Z</time>
      </trkpt>
      <trkpt lat="43.47313" lon="6.30415">
        <ele>127.3</ele>
        <time>2023-03-03T13:50:00Z</time>
      </trkpt>
      <trkpt lat="43.47312" lon="6.30414">
        <ele>127.2</ele>
        <time>2023-03-03T13:50:01Z</time>
      </trkpt>
      <trkpt lat="43.47311" lon="6.30413">
        <ele>127.2</ele>
        <time>2023-03-03T13:50:02Z</time>
      </trkpt>
      <trkpt lat="43.47311" lon="6.30413">
        <ele>127.1</ele>
        <time>2023-03-03T13:50:03Z</time>
      </trkpt>
      <trkpt lat="43.4731" lon="6.30413">
        <ele>127</ele>
        <time>2023-03-03T13:50:04Z</time>
      </trkpt>
      <trkpt lat="43.47309" lon="6.30412">
        <ele>127</ele>
        <time>2023-03-03T13:50:05Z</time>
      </trkpt>
      <trkpt lat="43.47307" lon="6.30412">
        <ele>127</ele>
        <time>2023-03-03T13:50:06Z</time>
      </trkpt>
      <trkpt lat="43.47306" lon="6.30411">
        <ele>127</ele>
        <time>2023-03-03T13:50:07Z</time>
      </trkpt>
      <trkpt lat="43.47306" lon="6.30412">
        <ele>127</ele>
        <time>2023-03-03T13:50:08Z</time>
      </trkpt>
      <trkpt lat="43.47305" lon="6.30411">
        <ele>126.9</ele>
        <time>2023-03-03T13:50:09Z</time>
      </trkpt>
      <trkpt lat="43.47304" lon="6.3041">
        <ele>126.9</ele>
        <time>2023-03-03T13:50:10Z</time>
      </trkpt>
      <trkpt lat="43.47303" lon="6.3041">
        <ele>126.9</ele>
        <time>2023-03-03T13:50:11Z</time>
      </trkpt>
      <trkpt lat="43.47303" lon="6.3041">
        <ele>126.8</ele>
        <time>2023-03-03T13:50:12Z</time>
      </trkpt>
      <trkpt lat="43.47302" lon="6.30409">
        <ele>126.9</ele>
        <time>2023-03-03T13:50:13Z</time>
      </trkpt>
      <trkpt lat="43.47301" lon="6.30409">
        <ele>127</ele>
        <time>2023-03-03T13:50:14Z</time>
      </trkpt>
      <trkpt lat="43.473" lon="6.30409">
        <ele>127.1</ele>
        <time>2023-03-03T13:50:15Z</time>
      </trkpt>
      <trkpt lat="43.47299" lon="6.30408">
        <ele>127.1</ele>
        <time>2023-03-03T13:50:16Z</time>
      </trkpt>
      <trkpt lat="43.47298" lon="6.30407">
        <ele>127.1</ele>
        <time>2023-03-03T13:50:17Z</time>
      </trkpt>
      <trkpt lat="43.47297" lon="6.30407">
        <ele>127.1</ele>
        <time>2023-03-03T13:50:18Z</time>
      </trkpt>
      <trkpt lat="43.47296" lon="6.30406">
        <ele>127</ele>
        <time>2023-03-03T13:50:19Z</time>
      </trkpt>
      <trkpt lat="43.47295" lon="6.30406">
        <ele>127</ele>
        <time>2023-03-03T13:50:20Z</time>
      </trkpt>
      <trkpt lat="43.47294" lon="6.30406">
        <ele>127</ele>
        <time>2023-03-03T13:50:21Z</time>
      </trkpt>
      <trkpt lat="43.47293" lon="6.30405">
        <ele>127</ele>
        <time>2023-03-03T13:50:22Z</time>
      </trkpt>
      <trkpt lat="43.47292" lon="6.30405">
        <ele>126.9</ele>
        <time>2023-03-03T13:50:23Z</time>
      </trkpt>
      <trkpt lat="43.4729" lon="6.30404">
        <ele>126.9</ele>
        <time>2023-03-03T13:50:24Z</time>
      </trkpt>
      <trkpt lat="43.4729" lon="6.30403">
        <ele>126.9</ele>
        <time>2023-03-03T13:50:25Z</time>
      </trkpt>
      <trkpt lat="43.47289" lon="6.30403">
        <ele>126.9</ele>
        <time>2023-03-03T13:50:26Z</time>
      </trkpt>
      <trkpt lat="43.47288" lon="6.30403">
        <ele>126.9</ele>
        <time>2023-03-03T13:50:27Z</time>
      </trkpt>
      <trkpt lat="43.47287" lon="6.30403">
        <ele>126.9</ele>
        <time>2023-03-03T13:50:28Z</time>
      </trkpt>
      <trkpt lat="43.47286" lon="6.30402">
        <ele>126.8</ele>
        <time>2023-03-03T13:50:29Z</time>
      </trkpt>
      <trkpt lat="43.47284" lon="6.30402">
        <ele>126.7</ele>
        <time>2023-03-03T13:50:30Z</time>
      </trkpt>
      <trkpt lat="43.47283" lon="6.30401">
        <ele>126.7</ele>
        <time>2023-03-03T13:50:31Z</time>
      </trkpt>
      <trkpt lat="43.47282" lon="6.30401">
        <ele>126.7</ele>
        <time>2023-03-03T13:50:32Z</time>
      </trkpt>
      <trkpt lat="43.47281" lon="6.30401">
        <ele>126.7</ele>
        <time>2023-03-03T13:50:33Z</time>
      </trkpt>
      <trkpt lat="43.4728" lon="6.30401">
        <ele>126.8</ele>
        <time>2023-03-03T13:50:34Z</time>
      </trkpt>
      <trkpt lat="43.47279" lon="6.30401">
        <ele>126.9</ele>
        <time>2023-03-03T13:50:35Z</time>
      </trkpt>
      <trkpt lat="43.47277" lon="6.30401">
        <ele>126.9</ele>
        <time>2023-03-03T13:50:36Z</time>
      </trkpt>
      <trkpt lat="43.47276" lon="6.30401">
        <ele>126.8</ele>
        <time>2023-03-03T13:50:37Z</time>
      </trkpt>
      <trkpt lat="43.47276" lon="6.30401">
        <ele>126.7</ele>
        <time>2023-03-03T13:50:38Z</time>
      </trkpt>
      <trkpt lat="43.47275" lon="6.304">
        <ele>126.7</ele>
        <time>2023-03-03T13:50:39Z</time>
      </trkpt>
      <trkpt lat="43.47274" lon="6.304">
        <ele>126.7</ele>
        <time>2023-03-03T13:50:40Z</time>
      </trkpt>
      <trkpt lat="43.47273" lon="6.30399">
        <ele>126.8</ele>
        <time>2023-03-03T13:50:41Z</time>
      </trkpt>
      <trkpt lat="43.47272" lon="6.30398">
        <ele>126.8</ele>
        <time>2023-03-03T13:50:42Z</time>
      </trkpt>
      <trkpt lat="43.47271" lon="6.30397">
        <ele>126.8</ele>
        <time>2023-03-03T13:50:43Z</time>
      </trkpt>
      <trkpt lat="43.4727" lon="6.30397">
        <ele>126.8</ele>
        <time>2023-03-03T13:50:44Z</time>
      </trkpt>
      <trkpt lat="43.47269" lon="6.30397">
        <ele>126.9</ele>
        <time>2023-03-03T13:50:45Z</time>
      </trkpt>
      <trkpt lat="43.47268" lon="6.30396">
        <ele>126.8</ele>
        <time>2023-03-03T13:50:46Z</time>
      </trkpt>
      <trkpt lat="43.47268" lon="6.30396">
        <ele>126.8</ele>
        <time>2023-03-03T13:50:47Z</time>
      </trkpt>
      <trkpt lat="43.47267" lon="6.30395">
        <ele>126.8</ele>
        <time>2023-03-03T13:50:48Z</time>
      </trkpt>
      <trkpt lat="43.47266" lon="6.30395">
        <ele>126.8</ele>
        <time>2023-03-03T13:50:49Z</time>
      </trkpt>
      <trkpt lat="43.47265" lon="6.30394">
        <ele>126.8</ele>
        <time>2023-03-03T13:50:50Z</time>
      </trkpt>
      <trkpt lat="43.47263" lon="6.30394">
        <ele>126.8</ele>
        <time>2023-03-03T13:50:51Z</time>
      </trkpt>
      <trkpt lat="43.47262" lon="6.30394">
        <ele>126.8</ele>
        <time>2023-03-03T13:50:52Z</time>
      </trkpt>
      <trkpt lat="43.47261" lon="6.30394">
        <ele>126.8</ele>
        <time>2023-03-03T13:50:53Z</time>
      </trkpt>
      <trkpt lat="43.4726" lon="6.30394">
        <ele>126.8</ele>
        <time>2023-03-03T13:50:54Z</time>
      </trkpt>
      <trkpt lat="43.4726" lon="6.30394">
        <ele>126.8</ele>
        <time>2023-03-03T13:50:55Z</time>
      </trkpt>
      <trkpt lat="43.4726" lon="6.30394">
        <ele>126.7</ele>
        <time>2023-03-03T13:50:56Z</time>
      </trkpt>
      <trkpt lat="43.4726" lon="6.30394">
        <ele>126.7</ele>
        <time>2023-03-03T13:50:57Z</time>
      </trkpt>
      <trkpt lat="43.47259" lon="6.30394">
        <ele>126.6</ele>
        <time>2023-03-03T13:50:58Z</time>
      </trkpt>
      <trkpt lat="43.47259" lon="6.30393">
        <ele>126.5</ele>
        <time>2023-03-03T13:50:59Z</time>
      </trkpt>
      <trkpt lat="43.47258" lon="6.30392">
        <ele>126.5</ele>
        <time>2023-03-03T13:51:00Z</time>
      </trkpt>
      <trkpt lat="43.47257" lon="6.30392">
        <ele>126.4</ele>
        <time>2023-03-03T13:51:01Z</time>
      </trkpt>
      <trkpt lat="43.47256" lon="6.30392">
        <ele>126.3</ele>
        <time>2023-03-03T13:51:02Z</time>
      </trkpt>
      <trkpt lat="43.47255" lon="6.30391">
        <ele>125.9</ele>
        <time>2023-03-03T13:51:03Z</time>
      </trkpt>
      <trkpt lat="43.47255" lon="6.30391">
        <ele>125.9</ele>
        <time>2023-03-03T13:51:04Z</time>
      </trkpt>
      <trkpt lat="43.47254" lon="6.30391">
        <ele>126</ele>
        <time>2023-03-03T13:51:05Z</time>
      </trkpt>
      <trkpt lat="43.47252" lon="6.3039">
        <ele>125.9</ele>
        <time>2023-03-03T13:51:06Z</time>
      </trkpt>
      <trkpt lat="43.47251" lon="6.30389">
        <ele>125.9</ele>
        <time>2023-03-03T13:51:07Z</time>
      </trkpt>
      <trkpt lat="43.4725" lon="6.30389">
        <ele>125.8</ele>
        <time>2023-03-03T13:51:08Z</time>
      </trkpt>
      <trkpt lat="43.47249" lon="6.30388">
        <ele>125.8</ele>
        <time>2023-03-03T13:51:09Z</time>
      </trkpt>
      <trkpt lat="43.47248" lon="6.30388">
        <ele>125.6</ele>
        <time>2023-03-03T13:51:10Z</time>
      </trkpt>
      <trkpt lat="43.47247" lon="6.30388">
        <ele>125.4</ele>
        <time>2023-03-03T13:51:11Z</time>
      </trkpt>
      <trkpt lat="43.47246" lon="6.30387">
        <ele>125.3</ele>
        <time>2023-03-03T13:51:12Z</time>
      </trkpt>
      <trkpt lat="43.47245" lon="6.30386">
        <ele>125.2</ele>
        <time>2023-03-03T13:51:13Z</time>
      </trkpt>
      <trkpt lat="43.47244" lon="6.30386">
        <ele>125.1</ele>
        <time>2023-03-03T13:51:14Z</time>
      </trkpt>
      <trkpt lat="43.47243" lon="6.30386">
        <ele>125</ele>
        <time>2023-03-03T13:51:15Z</time>
      </trkpt>
      <trkpt lat="43.47243" lon="6.30385">
        <ele>124.9</ele>
        <time>2023-03-03T13:51:16Z</time>
      </trkpt>
      <trkpt lat="43.47242" lon="6.30385">
        <ele>124.8</ele>
        <time>2023-03-03T13:51:17Z</time>
      </trkpt>
      <trkpt lat="43.47241" lon="6.30384">
        <ele>124.7</ele>
        <time>2023-03-03T13:51:18Z</time>
      </trkpt>
      <trkpt lat="43.4724" lon="6.30384">
        <ele>124.6</ele>
        <time>2023-03-03T13:51:19Z</time>
      </trkpt>
      <trkpt lat="43.47239" lon="6.30383">
        <ele>124.5</ele>
        <time>2023-03-03T13:51:20Z</time>
      </trkpt>
      <trkpt lat="43.47238" lon="6.30383">
        <ele>124.5</ele>
        <time>2023-03-03T13:51:21Z</time>
      </trkpt>
      <trkpt lat="43.47237" lon="6.30382">
        <ele>124.4</ele>
        <time>2023-03-03T13:51:22Z</time>
      </trkpt>
      <trkpt lat="43.47236" lon="6.30382">
        <ele>124.2</ele>
        <time>2023-03-03T13:51:23Z</time>
      </trkpt>
      <trkpt lat="43.47235" lon="6.30381">
        <ele>124</ele>
        <time>2023-03-03T13:51:24Z</time>
      </trkpt>
      <trkpt lat="43.47234" lon="6.30381">
        <ele>124</ele>
        <time>2023-03-03T13:51:25Z</time>
      </trkpt>
      <trkpt lat="43.47233" lon="6.3038">
        <ele>123.9</ele>
        <time>2023-03-03T13:51:26Z</time>
      </trkpt>
      <trkpt lat="43.47232" lon="6.3038">
        <ele>123.8</ele>
        <time>2023-03-03T13:51:27Z</time>
      </trkpt>
      <trkpt lat="43.47231" lon="6.30379">
        <ele>123.8</ele>
        <time>2023-03-03T13:51:28Z</time>
      </trkpt>
      <trkpt lat="43.4723" lon="6.30379">
        <ele>123.6</ele>
        <time>2023-03-03T13:51:29Z</time>
      </trkpt>
      <trkpt lat="43.47229" lon="6.30378">
        <ele>123.5</ele>
        <time>2023-03-03T13:51:30Z</time>
      </trkpt>
      <trkpt lat="43.47228" lon="6.30377">
        <ele>123.4</ele>
        <time>2023-03-03T13:51:31Z</time>
      </trkpt>
      <trkpt lat="43.47227" lon="6.30376">
        <ele>123.2</ele>
        <time>2023-03-03T13:51:32Z</time>
      </trkpt>
      <trkpt lat="43.47226" lon="6.30376">
        <ele>123.2</ele>
        <time>2023-03-03T13:51:33Z</time>
      </trkpt>
      <trkpt lat="43.47225" lon="6.30375">
        <ele>123.1</ele>
        <time>2023-03-03T13:51:34Z</time>
      </trkpt>
      <trkpt lat="43.47223" lon="6.30374">
        <ele>123</ele>
        <time>2023-03-03T13:51:35Z</time>
      </trkpt>
      <trkpt lat="43.47222" lon="6.30373">
        <ele>122.9</ele>
        <time>2023-03-03T13:51:36Z</time>
      </trkpt>
      <trkpt lat="43.47221" lon="6.30373">
        <ele>122.7</ele>
        <time>2023-03-03T13:51:37Z</time>
      </trkpt>
      <trkpt lat="43.4722" lon="6.30372">
        <ele>122.6</ele>
        <time>2023-03-03T13:51:38Z</time>
      </trkpt>
      <trkpt lat="43.4722" lon="6.30372">
        <ele>122.5</ele>
        <time>2023-03-03T13:51:39Z</time>
      </trkpt>
      <trkpt lat="43.47219" lon="6.30371">
        <ele>122.4</ele>
        <time>2023-03-03T13:51:40Z</time>
      </trkpt>
      <trkpt lat="43.47218" lon="6.30371">
        <ele>122.2</ele>
        <time>2023-03-03T13:51:41Z</time>
      </trkpt>
      <trkpt lat="43.47216" lon="6.3037">
        <ele>122.1</ele>
        <time>2023-03-03T13:51:42Z</time>
      </trkpt>
      <trkpt lat="43.47215" lon="6.3037">
        <ele>122</ele>
        <time>2023-03-03T13:51:43Z</time>
      </trkpt>
      <trkpt lat="43.47214" lon="6.3037">
        <ele>122</ele>
        <time>2023-03-03T13:51:44Z</time>
      </trkpt>
      <trkpt lat="43.47213" lon="6.30369">
        <ele>121.8</ele>
        <time>2023-03-03T13:51:45Z</time>
      </trkpt>
      <trkpt lat="43.47212" lon="6.30368">
        <ele>121.7</ele>
        <time>2023-03-03T13:51:46Z</time>
      </trkpt>
      <trkpt lat="43.47211" lon="6.30368">
        <ele>121.5</ele>
        <time>2023-03-03T13:51:47Z</time>
      </trkpt>
      <trkpt lat="43.4721" lon="6.30367">
        <ele>121.4</ele>
        <time>2023-03-03T13:51:48Z</time>
      </trkpt>
      <trkpt lat="43.47209" lon="6.30367">
        <ele>121.2</ele>
        <time>2023-03-03T13:51:49Z</time>
      </trkpt>
      <trkpt lat="43.47208" lon="6.30366">
        <ele>121.2</ele>
        <time>2023-03-03T13:51:50Z</time>
      </trkpt>
      <trkpt lat="43.47207" lon="6.30365">
        <ele>121.1</ele>
        <time>2023-03-03T13:51:51Z</time>
      </trkpt>
      <trkpt lat="43.47206" lon="6.30364">
        <ele>121</ele>
        <time>2023-03-03T13:51:52Z</time>
      </trkpt>
      <trkpt lat="43.47205" lon="6.30364">
        <ele>120.7</ele>
        <time>2023-03-03T13:51:53Z</time>
      </trkpt>
      <trkpt lat="43.47204" lon="6.30363">
        <ele>120.6</ele>
        <time>2023-03-03T13:51:54Z</time>
      </trkpt>
      <trkpt lat="43.47203" lon="6.30363">
        <ele>120.4</ele>
        <time>2023-03-03T13:51:55Z</time>
      </trkpt>
      <trkpt lat="43.47202" lon="6.30363">
        <ele>120.3</ele>
        <time>2023-03-03T13:51:56Z</time>
      </trkpt>
      <trkpt lat="43.47201" lon="6.30362">
        <ele>120.2</ele>
        <time>2023-03-03T13:51:57Z</time>
      </trkpt>
      <trkpt lat="43.47201" lon="6.30362">
        <ele>120.2</ele>
        <time>2023-03-03T13:51:58Z</time>
      </trkpt>
      <trkpt lat="43.472" lon="6.30362">
        <ele>120</ele>
        <time>2023-03-03T13:51:59Z</time>
      </trkpt>
      <trkpt lat="43.47199" lon="6.30361">
        <ele>120</ele>
        <time>2023-03-03T13:52:00Z</time>
      </trkpt>
      <trkpt lat="43.47198" lon="6.30361">
        <ele>119.9</ele>
        <time>2023-03-03T13:52:01Z</time>
      </trkpt>
      <trkpt lat="43.47197" lon="6.30361">
        <ele>119.9</ele>
        <time>2023-03-03T13:52:02Z</time>
      </trkpt>
      <trkpt lat="43.47196" lon="6.30361">
        <ele>119.8</ele>
        <time>2023-03-03T13:52:03Z</time>
      </trkpt>
      <trkpt lat="43.47194" lon="6.30361">
        <ele>119.8</ele>
        <time>2023-03-03T13:52:04Z</time>
      </trkpt>
      <trkpt lat="43.47193" lon="6.30361">
        <ele>119.7</ele>
        <time>2023-03-03T13:52:05Z</time>
      </trkpt>
      <trkpt lat="43.47192" lon="6.3036">
        <ele>119.7</ele>
        <time>2023-03-03T13:52:06Z</time>
      </trkpt>
      <trkpt lat="43.47191" lon="6.30361">
        <ele>119.5</ele>
        <time>2023-03-03T13:52:07Z</time>
      </trkpt>
      <trkpt lat="43.4719" lon="6.30361">
        <ele>119.5</ele>
        <time>2023-03-03T13:52:08Z</time>
      </trkpt>
      <trkpt lat="43.47189" lon="6.30361">
        <ele>119.4</ele>
        <time>2023-03-03T13:52:09Z</time>
      </trkpt>
      <trkpt lat="43.47187" lon="6.3036">
        <ele>119.3</ele>
        <time>2023-03-03T13:52:10Z</time>
      </trkpt>
      <trkpt lat="43.47186" lon="6.30359">
        <ele>119.2</ele>
        <time>2023-03-03T13:52:11Z</time>
      </trkpt>
      <trkpt lat="43.47185" lon="6.30359">
        <ele>119.2</ele>
        <time>2023-03-03T13:52:12Z</time>
      </trkpt>
      <trkpt lat="43.47184" lon="6.30359">
        <ele>119.1</ele>
        <time>2023-03-03T13:52:13Z</time>
      </trkpt>
      <trkpt lat="43.47183" lon="6.30359">
        <ele>118.9</ele>
        <time>2023-03-03T13:52:14Z</time>
      </trkpt>
      <trkpt lat="43.47182" lon="6.30359">
        <ele>118.9</ele>
        <time>2023-03-03T13:52:15Z</time>
      </trkpt>
      <trkpt lat="43.47181" lon="6.30359">
        <ele>118.8</ele>
        <time>2023-03-03T13:52:16Z</time>
      </trkpt>
      <trkpt lat="43.47181" lon="6.30358">
        <ele>118.7</ele>
        <time>2023-03-03T13:52:17Z</time>
      </trkpt>
      <trkpt lat="43.4718" lon="6.30358">
        <ele>118.6</ele>
        <time>2023-03-03T13:52:18Z</time>
      </trkpt>
      <trkpt lat="43.4718" lon="6.30358">
        <ele>118.5</ele>
        <time>2023-03-03T13:52:19Z</time>
      </trkpt>
      <trkpt lat="43.47179" lon="6.30358">
        <ele>118.4</ele>
        <time>2023-03-03T13:52:20Z</time>
      </trkpt>
      <trkpt lat="43.47178" lon="6.30357">
        <ele>118.2</ele>
        <time>2023-03-03T13:52:21Z</time>
      </trkpt>
      <trkpt lat="43.47178" lon="6.30357">
        <ele>118.1</ele>
        <time>2023-03-03T13:52:22Z</time>
      </trkpt>
      <trkpt lat="43.47177" lon="6.30356">
        <ele>118.1</ele>
        <time>2023-03-03T13:52:23Z</time>
      </trkpt>
      <trkpt lat="43.47176" lon="6.30356">
        <ele>117.9</ele>
        <time>2023-03-03T13:52:24Z</time>
      </trkpt>
      <trkpt lat="43.47175" lon="6.30356">
        <ele>117.7</ele>
        <time>2023-03-03T13:52:25Z</time>
      </trkpt>
      <trkpt lat="43.47174" lon="6.30356">
        <ele>117.5</ele>
        <time>2023-03-03T13:52:26Z</time>
      </trkpt>
      <trkpt lat="43.47174" lon="6.30356">
        <ele>117.2</ele>
        <time>2023-03-03T13:52:27Z</time>
      </trkpt>
      <trkpt lat="43.47173" lon="6.30355">
        <ele>117.1</ele>
        <time>2023-03-03T13:52:28Z</time>
      </trkpt>
      <trkpt lat="43.47172" lon="6.30355">
        <ele>116.9</ele>
        <time>2023-03-03T13:52:29Z</time>
      </trkpt>
      <trkpt lat="43.47171" lon="6.30355">
        <ele>116.8</ele>
        <time>2023-03-03T13:52:30Z</time>
      </trkpt>
      <trkpt lat="43.4717" lon="6.30354">
        <ele>116.6</ele>
        <time>2023-03-03T13:52:31Z</time>
      </trkpt>
      <trkpt lat="43.4717" lon="6.30354">
        <ele>116.4</ele>
        <time>2023-03-03T13:52:32Z</time>
      </trkpt>
      <trkpt lat="43.47168" lon="6.30353">
        <ele>116.2</ele>
        <time>2023-03-03T13:52:33Z</time>
      </trkpt>
      <trkpt lat="43.47167" lon="6.30353">
        <ele>116.1</ele>
        <time>2023-03-03T13:52:34Z</time>
      </trkpt>
      <trkpt lat="43.47167" lon="6.30353">
        <ele>116.1</ele>
        <time>2023-03-03T13:52:35Z</time>
      </trkpt>
      <trkpt lat="43.47167" lon="6.30352">
        <ele>116</ele>
        <time>2023-03-03T13:52:36Z</time>
      </trkpt>
      <trkpt lat="43.47165" lon="6.30352">
        <ele>115.8</ele>
        <time>2023-03-03T13:52:37Z</time>
      </trkpt>
      <trkpt lat="43.47164" lon="6.3035">
        <ele>115.7</ele>
        <time>2023-03-03T13:52:38Z</time>
      </trkpt>
      <trkpt lat="43.47163" lon="6.3035">
        <ele>115.4</ele>
        <time>2023-03-03T13:52:39Z</time>
      </trkpt>
      <trkpt lat="43.47161" lon="6.30349">
        <ele>115.2</ele>
        <time>2023-03-03T13:52:40Z</time>
      </trkpt>
      <trkpt lat="43.4716" lon="6.30349">
        <ele>115</ele>
        <time>2023-03-03T13:52:41Z</time>
      </trkpt>
      <trkpt lat="43.47159" lon="6.30348">
        <ele>114.8</ele>
        <time>2023-03-03T13:52:42Z</time>
      </trkpt>
      <trkpt lat="43.47158" lon="6.30348">
        <ele>114.5</ele>
        <time>2023-03-03T13:52:43Z</time>
      </trkpt>
      <trkpt lat="43.47158" lon="6.30347">
        <ele>114.2</ele>
        <time>2023-03-03T13:52:44Z</time>
      </trkpt>
      <trkpt lat="43.47157" lon="6.30346">
        <ele>113.9</ele>
        <time>2023-03-03T13:52:45Z</time>
      </trkpt>
      <trkpt lat="43.47157" lon="6.30346">
        <ele>113.6</ele>
        <time>2023-03-03T13:52:46Z</time>
      </trkpt>
      <trkpt lat="43.47155" lon="6.30345">
        <ele>113.4</ele>
        <time>2023-03-03T13:52:47Z</time>
      </trkpt>
      <trkpt lat="43.47155" lon="6.30344">
        <ele>113.3</ele>
        <time>2023-03-03T13:52:48Z</time>
      </trkpt>
      <trkpt lat="43.47154" lon="6.30344">
        <ele>113</ele>
        <time>2023-03-03T13:52:49Z</time>
      </trkpt>
      <trkpt lat="43.47154" lon="6.30343">
        <ele>112.8</ele>
        <time>2023-03-03T13:52:50Z</time>
      </trkpt>
      <trkpt lat="43.47153" lon="6.30343">
        <ele>112.5</ele>
        <time>2023-03-03T13:52:51Z</time>
      </trkpt>
      <trkpt lat="43.47151" lon="6.30343">
        <ele>112.2</ele>
        <time>2023-03-03T13:52:52Z</time>
      </trkpt>
      <trkpt lat="43.47149" lon="6.30343">
        <ele>111.9</ele>
        <time>2023-03-03T13:52:53Z</time>
      </trkpt>
      <trkpt lat="43.47148" lon="6.30343">
        <ele>111.6</ele>
        <time>2023-03-03T13:52:54Z</time>
      </trkpt>
      <trkpt lat="43.47147" lon="6.30343">
        <ele>111.4</ele>
        <time>2023-03-03T13:52:55Z</time>
      </trkpt>
      <trkpt lat="43.47146" lon="6.30343">
        <ele>111.2</ele>
        <time>2023-03-03T13:52:56Z</time>
      </trkpt>
      <trkpt lat="43.47145" lon="6.30343">
        <ele>110.9</ele>
        <time>2023-03-03T13:52:57Z</time>
      </trkpt>
      <trkpt lat="43.47146" lon="6.30343">
        <ele>110.7</ele>
        <time>2023-03-03T13:52:58Z</time>
      </trkpt>
      <trkpt lat="43.47145" lon="6.30343">
        <ele>110.5</ele>
        <time>2023-03-03T13:52:59Z</time>
      </trkpt>
      <trkpt lat="43.47144" lon="6.30343">
        <ele>110.4</ele>
        <time>2023-03-03T13:53:00Z</time>
      </trkpt>
      <trkpt lat="43.47143" lon="6.30342">
        <ele>110.1</ele>
        <time>2023-03-03T13:53:01Z</time>
      </trkpt>
      <trkpt lat="43.47143" lon="6.30341">
        <ele>109.9</ele>
        <time>2023-03-03T13:53:02Z</time>
      </trkpt>
      <trkpt lat="43.47142" lon="6.30341">
        <ele>109.7</ele>
        <time>2023-03-03T13:53:03Z</time>
      </trkpt>
      <trkpt lat="43.47142" lon="6.30341">
        <ele>109.5</ele>
        <time>2023-03-03T13:53:04Z</time>
      </trkpt>
      <trkpt lat="43.47141" lon="6.30342">
        <ele>109.3</ele>
        <time>2023-03-03T13:53:05Z</time>
      </trkpt>
      <trkpt lat="43.4714" lon="6.30341">
        <ele>109.2</ele>
        <time>2023-03-03T13:53:06Z</time>
      </trkpt>
      <trkpt lat="43.47139" lon="6.30341">
        <ele>109.1</ele>
        <time>2023-03-03T13:53:07Z</time>
      </trkpt>
      <trkpt lat="43.47137" lon="6.30341">
        <ele>108.9</ele>
        <time>2023-03-03T13:53:08Z</time>
      </trkpt>
      <trkpt lat="43.47136" lon="6.30342">
        <ele>108.8</ele>
        <time>2023-03-03T13:53:09Z</time>
      </trkpt>
      <trkpt lat="43.47135" lon="6.30343">
        <ele>108.7</ele>
        <time>2023-03-03T13:53:10Z</time>
      </trkpt>
      <trkpt lat="43.47134" lon="6.30343">
        <ele>108.6</ele>
        <time>2023-03-03T13:53:11Z</time>
      </trkpt>
      <trkpt lat="43.47134" lon="6.30345">
        <ele>108.5</ele>
        <time>2023-03-03T13:53:12Z</time>
      </trkpt>
      <trkpt lat="43.47134" lon="6.30347">
        <ele>108.5</ele>
        <time>2023-03-03T13:53:13Z</time>
      </trkpt>
      <trkpt lat="43.47134" lon="6.30348">
        <ele>108.4</ele>
        <time>2023-03-03T13:53:14Z</time>
      </trkpt>
      <trkpt lat="43.47133" lon="6.30349">
        <ele>108.3</ele>
        <time>2023-03-03T13:53:15Z</time>
      </trkpt>
      <trkpt lat="43.47133" lon="6.30351">
        <ele>108.2</ele>
        <time>2023-03-03T13:53:16Z</time>
      </trkpt>
      <trkpt lat="43.47133" lon="6.30351">
        <ele>108.1</ele>
        <time>2023-03-03T13:53:17Z</time>
      </trkpt>
      <trkpt lat="43.47132" lon="6.30353">
        <ele>108</ele>
        <time>2023-03-03T13:53:18Z</time>
      </trkpt>
      <trkpt lat="43.47132" lon="6.30354">
        <ele>107.9</ele>
        <time>2023-03-03T13:53:19Z</time>
      </trkpt>
      <trkpt lat="43.47132" lon="6.30356">
        <ele>107.8</ele>
        <time>2023-03-03T13:53:20Z</time>
      </trkpt>
      <trkpt lat="43.47131" lon="6.30357">
        <ele>107.7</ele>
        <time>2023-03-03T13:53:21Z</time>
      </trkpt>
      <trkpt lat="43.47131" lon="6.30358">
        <ele>107.6</ele>
        <time>2023-03-03T13:53:22Z</time>
      </trkpt>
      <trkpt lat="43.47131" lon="6.30359">
        <ele>107.5</ele>
        <time>2023-03-03T13:53:23Z</time>
      </trkpt>
      <trkpt lat="43.4713" lon="6.3036">
        <ele>107.5</ele>
        <time>2023-03-03T13:53:24Z</time>
      </trkpt>
      <trkpt lat="43.4713" lon="6.30361">
        <ele>107.4</ele>
        <time>2023-03-03T13:53:25Z</time>
      </trkpt>
      <trkpt lat="43.47131" lon="6.30362">
        <ele>107.3</ele>
        <time>2023-03-03T13:53:26Z</time>
      </trkpt>
      <trkpt lat="43.4713" lon="6.30364">
        <ele>107.2</ele>
        <time>2023-03-03T13:53:27Z</time>
      </trkpt>
      <trkpt lat="43.47131" lon="6.30365">
        <ele>107.2</ele>
        <time>2023-03-03T13:53:28Z</time>
      </trkpt>
      <trkpt lat="43.4713" lon="6.30366">
        <ele>107.1</ele>
        <time>2023-03-03T13:53:29Z</time>
      </trkpt>
      <trkpt lat="43.4713" lon="6.30367">
        <ele>107</ele>
        <time>2023-03-03T13:53:30Z</time>
      </trkpt>
      <trkpt lat="43.47131" lon="6.30369">
        <ele>107.1</ele>
        <time>2023-03-03T13:53:31Z</time>
      </trkpt>
      <trkpt lat="43.4713" lon="6.3037">
        <ele>107.1</ele>
        <time>2023-03-03T13:53:32Z</time>
      </trkpt>
      <trkpt lat="43.4713" lon="6.30371">
        <ele>107.1</ele>
        <time>2023-03-03T13:53:33Z</time>
      </trkpt>
      <trkpt lat="43.4713" lon="6.30372">
        <ele>107.2</ele>
        <time>2023-03-03T13:53:34Z</time>
      </trkpt>
      <trkpt lat="43.4713" lon="6.30373">
        <ele>107.2</ele>
        <time>2023-03-03T13:53:35Z</time>
      </trkpt>
      <trkpt lat="43.4713" lon="6.30374">
        <ele>107.1</ele>
        <time>2023-03-03T13:53:36Z</time>
      </trkpt>
      <trkpt lat="43.4713" lon="6.30375">
        <ele>107.1</ele>
        <time>2023-03-03T13:53:37Z</time>
      </trkpt>
      <trkpt lat="43.47129" lon="6.30376">
        <ele>107.1</ele>
        <time>2023-03-03T13:53:38Z</time>
      </trkpt>
      <trkpt lat="43.47129" lon="6.30377">
        <ele>107.1</ele>
        <time>2023-03-03T13:53:39Z</time>
      </trkpt>
      <trkpt lat="43.47128" lon="6.30378">
        <ele>107.1</ele>
        <time>2023-03-03T13:53:40Z</time>
      </trkpt>
      <trkpt lat="43.47128" lon="6.30379">
        <ele>106.9</ele>
        <time>2023-03-03T13:53:41Z</time>
      </trkpt>
      <trkpt lat="43.47128" lon="6.3038">
        <ele>106.8</ele>
        <time>2023-03-03T13:53:42Z</time>
      </trkpt>
      <trkpt lat="43.47128" lon="6.30381">
        <ele>106.8</ele>
        <time>2023-03-03T13:53:43Z</time>
      </trkpt>
      <trkpt lat="43.47127" lon="6.30382">
        <ele>106.7</ele>
        <time>2023-03-03T13:53:44Z</time>
      </trkpt>
      <trkpt lat="43.47127" lon="6.30384">
        <ele>106.4</ele>
        <time>2023-03-03T13:53:45Z</time>
      </trkpt>
      <trkpt lat="43.47127" lon="6.30385">
        <ele>106.3</ele>
        <time>2023-03-03T13:53:46Z</time>
      </trkpt>
      <trkpt lat="43.47127" lon="6.30386">
        <ele>106.2</ele>
        <time>2023-03-03T13:53:47Z</time>
      </trkpt>
      <trkpt lat="43.47127" lon="6.30387">
        <ele>106.2</ele>
        <time>2023-03-03T13:53:48Z</time>
      </trkpt>
      <trkpt lat="43.47127" lon="6.30388">
        <ele>106.2</ele>
        <time>2023-03-03T13:53:49Z</time>
      </trkpt>
      <trkpt lat="43.47127" lon="6.30389">
        <ele>106.2</ele>
        <time>2023-03-03T13:53:50Z</time>
      </trkpt>
      <trkpt lat="43.47128" lon="6.30391">
        <ele>106.1</ele>
        <time>2023-03-03T13:53:51Z</time>
      </trkpt>
      <trkpt lat="43.47128" lon="6.30392">
        <ele>106.1</ele>
        <time>2023-03-03T13:53:52Z</time>
      </trkpt>
      <trkpt lat="43.47129" lon="6.30393">
        <ele>106.1</ele>
        <time>2023-03-03T13:53:53Z</time>
      </trkpt>
      <trkpt lat="43.47129" lon="6.30394">
        <ele>106</ele>
        <time>2023-03-03T13:53:54Z</time>
      </trkpt>
      <trkpt lat="43.4713" lon="6.30396">
        <ele>106</ele>
        <time>2023-03-03T13:53:55Z</time>
      </trkpt>
      <trkpt lat="43.4713" lon="6.30397">
        <ele>106</ele>
        <time>2023-03-03T13:53:56Z</time>
      </trkpt>
      <trkpt lat="43.47131" lon="6.30399">
        <ele>106</ele>
        <time>2023-03-03T13:53:57Z</time>
      </trkpt>
      <trkpt lat="43.47132" lon="6.304">
        <ele>106</ele>
        <time>2023-03-03T13:53:58Z</time>
      </trkpt>
      <trkpt lat="43.47132" lon="6.30401">
        <ele>106</ele>
        <time>2023-03-03T13:53:59Z</time>
      </trkpt>
      <trkpt lat="43.47132" lon="6.30403">
        <ele>106.1</ele>
        <time>2023-03-03T13:54:00Z</time>
      </trkpt>
      <trkpt lat="43.47132" lon="6.30404">
        <ele>106.1</ele>
        <time>2023-03-03T13:54:01Z</time>
      </trkpt>
      <trkpt lat="43.47132" lon="6.30406">
        <ele>106.1</ele>
        <time>2023-03-03T13:54:02Z</time>
      </trkpt>
      <trkpt lat="43.47133" lon="6.30407">
        <ele>106.1</ele>
        <time>2023-03-03T13:54:03Z</time>
      </trkpt>
      <trkpt lat="43.47133" lon="6.30409">
        <ele>106.1</ele>
        <time>2023-03-03T13:54:04Z</time>
      </trkpt>
      <trkpt lat="43.47133" lon="6.3041">
        <ele>106.2</ele>
        <time>2023-03-03T13:54:05Z</time>
      </trkpt>
      <trkpt lat="43.47133" lon="6.30411">
        <ele>106.2</ele>
        <time>2023-03-03T13:54:06Z</time>
      </trkpt>
      <trkpt lat="43.47133" lon="6.30413">
        <ele>106.2</ele>
        <time>2023-03-03T13:54:07Z</time>
      </trkpt>
      <trkpt lat="43.47133" lon="6.30414">
        <ele>106.2</ele>
        <time>2023-03-03T13:54:08Z</time>
      </trkpt>
      <trkpt lat="43.47133" lon="6.30415">
        <ele>106.2</ele>
        <time>2023-03-03T13:54:09Z</time>
      </trkpt>
      <trkpt lat="43.47133" lon="6.30416">
        <ele>106.2</ele>
        <time>2023-03-03T13:54:10Z</time>
      </trkpt>
      <trkpt lat="43.47133" lon="6.30417">
        <ele>106.3</ele>
        <time>2023-03-03T13:54:11Z</time>
      </trkpt>
      <trkpt lat="43.47133" lon="6.30419">
        <ele>106.3</ele>
        <time>2023-03-03T13:54:12Z</time>
      </trkpt>
      <trkpt lat="43.47132" lon="6.3042">
        <ele>106.3</ele>
        <time>2023-03-03T13:54:13Z</time>
      </trkpt>
      <trkpt lat="43.47132" lon="6.30421">
        <ele>106.3</ele>
        <time>2023-03-03T13:54:14Z</time>
      </trkpt>
      <trkpt lat="43.47132" lon="6.30422">
        <ele>106.3</ele>
        <time>2023-03-03T13:54:15Z</time>
      </trkpt>
      <trkpt lat="43.47132" lon="6.30423">
        <ele>106.4</ele>
        <time>2023-03-03T13:54:16Z</time>
      </trkpt>
      <trkpt lat="43.47131" lon="6.30425">
        <ele>106.4</ele>
        <time>2023-03-03T13:54:17Z</time>
      </trkpt>
      <trkpt lat="43.47131" lon="6.30426">
        <ele>106.4</ele>
        <time>2023-03-03T13:54:18Z</time>
      </trkpt>
      <trkpt lat="43.47131" lon="6.30428">
        <ele>106.4</ele>
        <time>2023-03-03T13:54:19Z</time>
      </trkpt>
      <trkpt lat="43.47131" lon="6.30429">
        <ele>106.4</ele>
        <time>2023-03-03T13:54:20Z</time>
      </trkpt>
      <trkpt lat="43.47131" lon="6.3043">
        <ele>106.5</ele>
        <time>2023-03-03T13:54:21Z</time>
      </trkpt>
      <trkpt lat="43.4713" lon="6.30431">
        <ele>106.5</ele>
        <time>2023-03-03T13:54:22Z</time>
      </trkpt>
      <trkpt lat="43.4713" lon="6.30433">
        <ele>106.5</ele>
        <time>2023-03-03T13:54:23Z</time>
      </trkpt>
      <trkpt lat="43.47129" lon="6.30433">
        <ele>106.5</ele>
        <time>2023-03-03T13:54:24Z</time>
      </trkpt>
      <trkpt lat="43.47129" lon="6.30434">
        <ele>106.5</ele>
        <time>2023-03-03T13:54:25Z</time>
      </trkpt>
      <trkpt lat="43.47129" lon="6.30435">
        <ele>106.5</ele>
        <time>2023-03-03T13:54:26Z</time>
      </trkpt>
      <trkpt lat="43.47128" lon="6.30436">
        <ele>106.5</ele>
        <time>2023-03-03T13:54:27Z</time>
      </trkpt>
      <trkpt lat="43.47127" lon="6.30436">
        <ele>106.6</ele>
        <time>2023-03-03T13:54:28Z</time>
      </trkpt>
      <trkpt lat="43.47126" lon="6.30437">
        <ele>106.5</ele>
        <time>2023-03-03T13:54:29Z</time>
      </trkpt>
      <trkpt lat="43.47125" lon="6.30438">
        <ele>106.4</ele>
        <time>2023-03-03T13:54:30Z</time>
      </trkpt>
      <trkpt lat="43.47124" lon="6.30438">
        <ele>106.4</ele>
        <time>2023-03-03T13:54:31Z</time>
      </trkpt>
      <trkpt lat="43.47123" lon="6.30438">
        <ele>106.3</ele>
        <time>2023-03-03T13:54:32Z</time>
      </trkpt>
      <trkpt lat="43.47122" lon="6.30438">
        <ele>106.3</ele>
        <time>2023-03-03T13:54:33Z</time>
      </trkpt>
      <trkpt lat="43.47121" lon="6.30439">
        <ele>106.3</ele>
        <time>2023-03-03T13:54:34Z</time>
      </trkpt>
      <trkpt lat="43.4712" lon="6.30438">
        <ele>106.3</ele>
        <time>2023-03-03T13:54:35Z</time>
      </trkpt>
      <trkpt lat="43.47118" lon="6.30438">
        <ele>106.3</ele>
        <time>2023-03-03T13:54:36Z</time>
      </trkpt>
      <trkpt lat="43.47117" lon="6.30438">
        <ele>106.2</ele>
        <time>2023-03-03T13:54:37Z</time>
      </trkpt>
      <trkpt lat="43.47116" lon="6.30437">
        <ele>106.2</ele>
        <time>2023-03-03T13:54:38Z</time>
      </trkpt>
      <trkpt lat="43.47115" lon="6.30437">
        <ele>106.2</ele>
        <time>2023-03-03T13:54:39Z</time>
      </trkpt>
      <trkpt lat="43.47114" lon="6.30436">
        <ele>106.2</ele>
        <time>2023-03-03T13:54:40Z</time>
      </trkpt>
      <trkpt lat="43.47113" lon="6.30436">
        <ele>106.1</ele>
        <time>2023-03-03T13:54:41Z</time>
      </trkpt>
      <trkpt lat="43.47112" lon="6.30435">
        <ele>106.1</ele>
        <time>2023-03-03T13:54:42Z</time>
      </trkpt>
      <trkpt lat="43.47112" lon="6.30435">
        <ele>106.1</ele>
        <time>2023-03-03T13:54:43Z</time>
      </trkpt>
      <trkpt lat="43.47111" lon="6.30434">
        <ele>106</ele>
        <time>2023-03-03T13:54:44Z</time>
      </trkpt>
      <trkpt lat="43.4711" lon="6.30434">
        <ele>105.9</ele>
        <time>2023-03-03T13:54:45Z</time>
      </trkpt>
      <trkpt lat="43.47108" lon="6.30433">
        <ele>105.9</ele>
        <time>2023-03-03T13:54:46Z</time>
      </trkpt>
      <trkpt lat="43.47107" lon="6.30432">
        <ele>105.9</ele>
        <time>2023-03-03T13:54:47Z</time>
      </trkpt>
      <trkpt lat="43.47105" lon="6.30431">
        <ele>105.9</ele>
        <time>2023-03-03T13:54:48Z</time>
      </trkpt>
      <trkpt lat="43.47104" lon="6.3043">
        <ele>105.9</ele>
        <time>2023-03-03T13:54:49Z</time>
      </trkpt>
      <trkpt lat="43.47103" lon="6.30429">
        <ele>105.9</ele>
        <time>2023-03-03T13:54:50Z</time>
      </trkpt>
      <trkpt lat="43.47102" lon="6.3043">
        <ele>105.8</ele>
        <time>2023-03-03T13:54:51Z</time>
      </trkpt>
      <trkpt lat="43.47101" lon="6.3043">
        <ele>105.8</ele>
        <time>2023-03-03T13:54:52Z</time>
      </trkpt>
      <trkpt lat="43.47101" lon="6.3043">
        <ele>105.9</ele>
        <time>2023-03-03T13:54:53Z</time>
      </trkpt>
      <trkpt lat="43.47099" lon="6.3043">
        <ele>105.8</ele>
        <time>2023-03-03T13:54:54Z</time>
      </trkpt>
      <trkpt lat="43.47098" lon="6.30431">
        <ele>105.8</ele>
        <time>2023-03-03T13:54:55Z</time>
      </trkpt>
      <trkpt lat="43.47096" lon="6.30432">
        <ele>105.7</ele>
        <time>2023-03-03T13:54:56Z</time>
      </trkpt>
      <trkpt lat="43.47095" lon="6.30432">
        <ele>105.7</ele>
        <time>2023-03-03T13:54:57Z</time>
      </trkpt>
      <trkpt lat="43.47094" lon="6.30431">
        <ele>105.5</ele>
        <time>2023-03-03T13:54:58Z</time>
      </trkpt>
      <trkpt lat="43.47094" lon="6.30434">
        <ele>105.5</ele>
        <time>2023-03-03T13:54:59Z</time>
      </trkpt>
      <trkpt lat="43.47092" lon="6.30435">
        <ele>105.4</ele>
        <time>2023-03-03T13:55:00Z</time>
      </trkpt>
      <trkpt lat="43.47092" lon="6.30435">
        <ele>105.3</ele>
        <time>2023-03-03T13:55:01Z</time>
      </trkpt>
      <trkpt lat="43.47092" lon="6.30438">
        <ele>105.2</ele>
        <time>2023-03-03T13:55:02Z</time>
      </trkpt>
      <trkpt lat="43.47091" lon="6.3044">
        <ele>105.1</ele>
        <time>2023-03-03T13:55:03Z</time>
      </trkpt>
      <trkpt lat="43.4709" lon="6.30441">
        <ele>105</ele>
        <time>2023-03-03T13:55:04Z</time>
      </trkpt>
      <trkpt lat="43.4709" lon="6.30442">
        <ele>104.9</ele>
        <time>2023-03-03T13:55:05Z</time>
      </trkpt>
      <trkpt lat="43.47089" lon="6.30443">
        <ele>104.8</ele>
        <time>2023-03-03T13:55:06Z</time>
      </trkpt>
      <trkpt lat="43.47089" lon="6.30444">
        <ele>104.7</ele>
        <time>2023-03-03T13:55:07Z</time>
      </trkpt>
      <trkpt lat="43.47089" lon="6.30444">
        <ele>104.7</ele>
        <time>2023-03-03T13:55:08Z</time>
      </trkpt>
      <trkpt lat="43.47089" lon="6.30444">
        <ele>104.7</ele>
        <time>2023-03-03T13:55:09Z</time>
      </trkpt>
      <trkpt lat="43.47088" lon="6.30445">
        <ele>104.7</ele>
        <time>2023-03-03T13:55:10Z</time>
      </trkpt>
      <trkpt lat="43.47087" lon="6.30446">
        <ele>104.7</ele>
        <time>2023-03-03T13:55:11Z</time>
      </trkpt>
      <trkpt lat="43.47086" lon="6.30446">
        <ele>104.7</ele>
        <time>2023-03-03T13:55:12Z</time>
      </trkpt>
      <trkpt lat="43.47086" lon="6.30447">
        <ele>104.8</ele>
        <time>2023-03-03T13:55:13Z</time>
      </trkpt>
      <trkpt lat="43.47085" lon="6.30448">
        <ele>104.7</ele>
        <time>2023-03-03T13:55:14Z</time>
      </trkpt>
      <trkpt lat="43.47084" lon="6.30449">
        <ele>104.7</ele>
        <time>2023-03-03T13:55:15Z</time>
      </trkpt>
      <trkpt lat="43.47084" lon="6.3045">
        <ele>104.7</ele>
        <time>2023-03-03T13:55:16Z</time>
      </trkpt>
      <trkpt lat="43.47083" lon="6.30451">
        <ele>104.7</ele>
        <time>2023-03-03T13:55:17Z</time>
      </trkpt>
      <trkpt lat="43.47082" lon="6.30452">
        <ele>104.6</ele>
        <time>2023-03-03T13:55:18Z</time>
      </trkpt>
      <trkpt lat="43.47082" lon="6.30453">
        <ele>104.5</ele>
        <time>2023-03-03T13:55:19Z</time>
      </trkpt>
      <trkpt lat="43.47082" lon="6.30453">
        <ele>104.5</ele>
        <time>2023-03-03T13:55:20Z</time>
      </trkpt>
      <trkpt lat="43.47081" lon="6.30453">
        <ele>104.4</ele>
        <time>2023-03-03T13:55:21Z</time>
      </trkpt>
      <trkpt lat="43.47081" lon="6.30453">
        <ele>104.4</ele>
        <time>2023-03-03T13:55:22Z</time>
      </trkpt>
      <trkpt lat="43.47081" lon="6.30454">
        <ele>104.3</ele>
        <time>2023-03-03T13:55:23Z</time>
      </trkpt>
      <trkpt lat="43.47081" lon="6.30454">
        <ele>104.3</ele>
        <time>2023-03-03T13:55:24Z</time>
      </trkpt>
      <trkpt lat="43.47081" lon="6.30454">
        <ele>104.2</ele>
        <time>2023-03-03T13:55:25Z</time>
      </trkpt>
      <trkpt lat="43.47081" lon="6.30454">
        <ele>104.2</ele>
        <time>2023-03-03T13:55:26Z</time>
      </trkpt>
      <trkpt lat="43.47081" lon="6.30454">
        <ele>104.2</ele>
        <time>2023-03-03T13:55:27Z</time>
      </trkpt>
      <trkpt lat="43.47081" lon="6.30455">
        <ele>104.1</ele>
        <time>2023-03-03T13:55:28Z</time>
      </trkpt>
      <trkpt lat="43.47081" lon="6.30454">
        <ele>104.1</ele>
        <time>2023-03-03T13:55:29Z</time>
      </trkpt>
      <trkpt lat="43.47081" lon="6.30454">
        <ele>104.1</ele>
        <time>2023-03-03T13:55:30Z</time>
      </trkpt>
      <trkpt lat="43.47082" lon="6.30454">
        <ele>104.1</ele>
        <time>2023-03-03T13:55:31Z</time>
      </trkpt>
      <trkpt lat="43.47082" lon="6.30454">
        <ele>104.1</ele>
        <time>2023-03-03T13:55:32Z</time>
      </trkpt>
      <trkpt lat="43.47081" lon="6.30455">
        <ele>104.1</ele>
        <time>2023-03-03T13:55:33Z</time>
      </trkpt>
      <trkpt lat="43.47081" lon="6.30455">
        <ele>104.1</ele>
        <time>2023-03-03T13:55:34Z</time>
      </trkpt>
      <trkpt lat="43.47082" lon="6.30455">
        <ele>104</ele>
        <time>2023-03-03T13:55:35Z</time>
      </trkpt>
      <trkpt lat="43.47082" lon="6.30455">
        <ele>104</ele>
        <time>2023-03-03T13:55:36Z</time>
      </trkpt>
      <trkpt lat="43.47082" lon="6.30455">
        <ele>103.9</ele>
        <time>2023-03-03T13:55:37Z</time>
      </trkpt>
      <trkpt lat="43.47081" lon="6.30455">
        <ele>103.9</ele>
        <time>2023-03-03T13:55:38Z</time>
      </trkpt>
      <trkpt lat="43.47081" lon="6.30456">
        <ele>103.9</ele>
        <time>2023-03-03T13:55:39Z</time>
      </trkpt>
      <trkpt lat="43.47082" lon="6.30455">
        <ele>103.9</ele>
        <time>2023-03-03T13:55:40Z</time>
      </trkpt>
      <trkpt lat="43.47081" lon="6.30456">
        <ele>103.9</ele>
        <time>2023-03-03T13:55:41Z</time>
      </trkpt>
      <trkpt lat="43.47081" lon="6.30456">
        <ele>103.9</ele>
        <time>2023-03-03T13:55:42Z</time>
      </trkpt>
      <trkpt lat="43.47082" lon="6.30456">
        <ele>104</ele>
        <time>2023-03-03T13:55:43Z</time>
      </trkpt>
      <trkpt lat="43.47082" lon="6.30456">
        <ele>104</ele>
        <time>2023-03-03T13:55:44Z</time>
      </trkpt>
      <trkpt lat="43.47081" lon="6.30456">
        <ele>104.1</ele>
        <time>2023-03-03T13:55:45Z</time>
      </trkpt>
      <trkpt lat="43.47081" lon="6.30456">
        <ele>104.2</ele>
        <time>2023-03-03T13:55:46Z</time>
      </trkpt>
      <trkpt lat="43.47081" lon="6.30456">
        <ele>104.2</ele>
        <time>2023-03-03T13:55:47Z</time>
      </trkpt>
      <trkpt lat="43.4708" lon="6.30457">
        <ele>104.3</ele>
        <time>2023-03-03T13:55:48Z</time>
      </trkpt>
      <trkpt lat="43.4708" lon="6.30457">
        <ele>104.3</ele>
        <time>2023-03-03T13:55:49Z</time>
      </trkpt>
      <trkpt lat="43.47079" lon="6.30457">
        <ele>104.3</ele>
        <time>2023-03-03T13:55:50Z</time>
      </trkpt>
      <trkpt lat="43.47078" lon="6.30456">
        <ele>104.3</ele>
        <time>2023-03-03T13:55:51Z</time>
      </trkpt>
      <trkpt lat="43.47078" lon="6.30456">
        <ele>104.3</ele>
        <time>2023-03-03T13:55:52Z</time>
      </trkpt>
      <trkpt lat="43.47078" lon="6.30456">
        <ele>104.3</ele>
        <time>2023-03-03T13:55:53Z</time>
      </trkpt>
      <trkpt lat="43.47077" lon="6.30457">
        <ele>104.4</ele>
        <time>2023-03-03T13:55:54Z</time>
      </trkpt>
      <trkpt lat="43.47077" lon="6.30457">
        <ele>104.4</ele>
        <time>2023-03-03T13:55:55Z</time>
      </trkpt>
      <trkpt lat="43.47077" lon="6.30457">
        <ele>104.4</ele>
        <time>2023-03-03T13:55:56Z</time>
      </trkpt>
      <trkpt lat="43.47076" lon="6.30457">
        <ele>104.4</ele>
        <time>2023-03-03T13:55:57Z</time>
      </trkpt>
      <trkpt lat="43.47076" lon="6.30458">
        <ele>104.4</ele>
        <time>2023-03-03T13:55:58Z</time>
      </trkpt>
      <trkpt lat="43.47076" lon="6.30459">
        <ele>104.5</ele>
        <time>2023-03-03T13:55:59Z</time>
      </trkpt>
      <trkpt lat="43.47076" lon="6.3046">
        <ele>104.5</ele>
        <time>2023-03-03T13:56:00Z</time>
      </trkpt>
      <trkpt lat="43.47076" lon="6.30462">
        <ele>104.6</ele>
        <time>2023-03-03T13:56:01Z</time>
      </trkpt>
      <trkpt lat="43.47075" lon="6.30462">
        <ele>104.6</ele>
        <time>2023-03-03T13:56:02Z</time>
      </trkpt>
      <trkpt lat="43.47075" lon="6.30463">
        <ele>104.5</ele>
        <time>2023-03-03T13:56:03Z</time>
      </trkpt>
      <trkpt lat="43.47074" lon="6.30464">
        <ele>104.5</ele>
        <time>2023-03-03T13:56:04Z</time>
      </trkpt>
      <trkpt lat="43.47074" lon="6.30464">
        <ele>104.4</ele>
        <time>2023-03-03T13:56:05Z</time>
      </trkpt>
      <trkpt lat="43.47074" lon="6.30465">
        <ele>104.4</ele>
        <time>2023-03-03T13:56:06Z</time>
      </trkpt>
      <trkpt lat="43.47073" lon="6.30466">
        <ele>104.2</ele>
        <time>2023-03-03T13:56:07Z</time>
      </trkpt>
      <trkpt lat="43.47074" lon="6.30467">
        <ele>104.2</ele>
        <time>2023-03-03T13:56:08Z</time>
      </trkpt>
      <trkpt lat="43.47074" lon="6.30467">
        <ele>104.1</ele>
        <time>2023-03-03T13:56:09Z</time>
      </trkpt>
      <trkpt lat="43.47074" lon="6.30467">
        <ele>104.1</ele>
        <time>2023-03-03T13:56:10Z</time>
      </trkpt>
      <trkpt lat="43.47074" lon="6.30467">
        <ele>104.1</ele>
        <time>2023-03-03T13:56:11Z</time>
      </trkpt>
      <trkpt lat="43.47073" lon="6.30467">
        <ele>104</ele>
        <time>2023-03-03T13:56:12Z</time>
      </trkpt>
      <trkpt lat="43.47073" lon="6.30468">
        <ele>103.9</ele>
        <time>2023-03-03T13:56:13Z</time>
      </trkpt>
      <trkpt lat="43.47073" lon="6.30469">
        <ele>103.9</ele>
        <time>2023-03-03T13:56:14Z</time>
      </trkpt>
      <trkpt lat="43.47072" lon="6.3047">
        <ele>103.9</ele>
        <time>2023-03-03T13:56:15Z</time>
      </trkpt>
      <trkpt lat="43.47071" lon="6.3047">
        <ele>103.9</ele>
        <time>2023-03-03T13:56:16Z</time>
      </trkpt>
      <trkpt lat="43.47071" lon="6.30471">
        <ele>103.9</ele>
        <time>2023-03-03T13:56:17Z</time>
      </trkpt>
      <trkpt lat="43.47071" lon="6.30471">
        <ele>103.8</ele>
        <time>2023-03-03T13:56:18Z</time>
      </trkpt>
      <trkpt lat="43.47071" lon="6.30472">
        <ele>103.8</ele>
        <time>2023-03-03T13:56:19Z</time>
      </trkpt>
      <trkpt lat="43.47072" lon="6.30473">
        <ele>103.8</ele>
        <time>2023-03-03T13:56:20Z</time>
      </trkpt>
      <trkpt lat="43.47072" lon="6.30474">
        <ele>103.8</ele>
        <time>2023-03-03T13:56:21Z</time>
      </trkpt>
      <trkpt lat="43.47072" lon="6.30474">
        <ele>103.8</ele>
        <time>2023-03-03T13:56:22Z</time>
      </trkpt>
      <trkpt lat="43.47071" lon="6.30475">
        <ele>103.8</ele>
        <time>2023-03-03T13:56:23Z</time>
      </trkpt>
      <trkpt lat="43.47071" lon="6.30475">
        <ele>103.8</ele>
        <time>2023-03-03T13:56:24Z</time>
      </trkpt>
      <trkpt lat="43.47072" lon="6.30476">
        <ele>103.8</ele>
        <time>2023-03-03T13:56:25Z</time>
      </trkpt>
      <trkpt lat="43.47072" lon="6.30476">
        <ele>103.8</ele>
        <time>2023-03-03T13:56:26Z</time>
      </trkpt>
      <trkpt lat="43.47071" lon="6.30476">
        <ele>103.8</ele>
        <time>2023-03-03T13:56:27Z</time>
      </trkpt>
      <trkpt lat="43.47071" lon="6.30476">
        <ele>103.7</ele>
        <time>2023-03-03T13:56:28Z</time>
      </trkpt>
      <trkpt lat="43.47071" lon="6.30477">
        <ele>103.7</ele>
        <time>2023-03-03T13:56:29Z</time>
      </trkpt>
      <trkpt lat="43.47071" lon="6.30478">
        <ele>103.7</ele>
        <time>2023-03-03T13:56:30Z</time>
      </trkpt>
      <trkpt lat="43.47071" lon="6.30478">
        <ele>103.7</ele>
        <time>2023-03-03T13:56:31Z</time>
      </trkpt>
      <trkpt lat="43.47071" lon="6.30479">
        <ele>103.6</ele>
        <time>2023-03-03T13:56:32Z</time>
      </trkpt>
      <trkpt lat="43.4707" lon="6.30479">
        <ele>103.6</ele>
        <time>2023-03-03T13:56:33Z</time>
      </trkpt>
      <trkpt lat="43.4707" lon="6.3048">
        <ele>103.5</ele>
        <time>2023-03-03T13:56:34Z</time>
      </trkpt>
      <trkpt lat="43.4707" lon="6.3048">
        <ele>103.4</ele>
        <time>2023-03-03T13:56:35Z</time>
      </trkpt>
      <trkpt lat="43.4707" lon="6.30481">
        <ele>103.4</ele>
        <time>2023-03-03T13:56:36Z</time>
      </trkpt>
      <trkpt lat="43.47069" lon="6.30481">
        <ele>103.5</ele>
        <time>2023-03-03T13:56:37Z</time>
      </trkpt>
      <trkpt lat="43.47069" lon="6.30481">
        <ele>103.6</ele>
        <time>2023-03-03T13:56:38Z</time>
      </trkpt>
      <trkpt lat="43.47069" lon="6.30481">
        <ele>103.7</ele>
        <time>2023-03-03T13:56:39Z</time>
      </trkpt>
      <trkpt lat="43.47069" lon="6.30482">
        <ele>103.8</ele>
        <time>2023-03-03T13:56:40Z</time>
      </trkpt>
      <trkpt lat="43.47069" lon="6.30482">
        <ele>103.8</ele>
        <time>2023-03-03T13:56:41Z</time>
      </trkpt>
      <trkpt lat="43.47068" lon="6.30482">
        <ele>103.9</ele>
        <time>2023-03-03T13:56:42Z</time>
      </trkpt>
      <trkpt lat="43.47068" lon="6.30482">
        <ele>103.9</ele>
        <time>2023-03-03T13:56:43Z</time>
      </trkpt>
      <trkpt lat="43.47068" lon="6.30482">
        <ele>103.8</ele>
        <time>2023-03-03T13:56:44Z</time>
      </trkpt>
      <trkpt lat="43.47067" lon="6.30483">
        <ele>103.8</ele>
        <time>2023-03-03T13:56:45Z</time>
      </trkpt>
      <trkpt lat="43.47067" lon="6.30483">
        <ele>103.9</ele>
        <time>2023-03-03T13:56:46Z</time>
      </trkpt>
      <trkpt lat="43.47067" lon="6.30484">
        <ele>103.9</ele>
        <time>2023-03-03T13:56:47Z</time>
      </trkpt>
      <trkpt lat="43.47066" lon="6.30485">
        <ele>103.9</ele>
        <time>2023-03-03T13:56:48Z</time>
      </trkpt>
      <trkpt lat="43.47065" lon="6.30486">
        <ele>103.9</ele>
        <time>2023-03-03T13:56:49Z</time>
      </trkpt>
      <trkpt lat="43.47065" lon="6.30487">
        <ele>104</ele>
        <time>2023-03-03T13:56:50Z</time>
      </trkpt>
      <trkpt lat="43.47065" lon="6.30488">
        <ele>104</ele>
        <time>2023-03-03T13:56:51Z</time>
      </trkpt>
      <trkpt lat="43.47064" lon="6.30489">
        <ele>104</ele>
        <time>2023-03-03T13:56:52Z</time>
      </trkpt>
      <trkpt lat="43.47064" lon="6.30489">
        <ele>104</ele>
        <time>2023-03-03T13:56:53Z</time>
      </trkpt>
      <trkpt lat="43.47063" lon="6.30491">
        <ele>104.1</ele>
        <time>2023-03-03T13:56:54Z</time>
      </trkpt>
      <trkpt lat="43.47063" lon="6.30492">
        <ele>104.2</ele>
        <time>2023-03-03T13:56:55Z</time>
      </trkpt>
      <trkpt lat="43.47062" lon="6.30493">
        <ele>104.2</ele>
        <time>2023-03-03T13:56:56Z</time>
      </trkpt>
      <trkpt lat="43.47062" lon="6.30494">
        <ele>104.3</ele>
        <time>2023-03-03T13:56:57Z</time>
      </trkpt>
      <trkpt lat="43.47062" lon="6.30495">
        <ele>104.3</ele>
        <time>2023-03-03T13:56:58Z</time>
      </trkpt>
      <trkpt lat="43.47062" lon="6.30496">
        <ele>104.4</ele>
        <time>2023-03-03T13:56:59Z</time>
      </trkpt>
      <trkpt lat="43.47061" lon="6.30497">
        <ele>104.4</ele>
        <time>2023-03-03T13:57:00Z</time>
      </trkpt>
      <trkpt lat="43.47061" lon="6.30498">
        <ele>104.4</ele>
        <time>2023-03-03T13:57:01Z</time>
      </trkpt>
      <trkpt lat="43.47061" lon="6.30499">
        <ele>104.4</ele>
        <time>2023-03-03T13:57:02Z</time>
      </trkpt>
      <trkpt lat="43.4706" lon="6.305">
        <ele>104.4</ele>
        <time>2023-03-03T13:57:03Z</time>
      </trkpt>
      <trkpt lat="43.47059" lon="6.305">
        <ele>104.4</ele>
        <time>2023-03-03T13:57:04Z</time>
      </trkpt>
      <trkpt lat="43.47059" lon="6.30501">
        <ele>104.3</ele>
        <time>2023-03-03T13:57:05Z</time>
      </trkpt>
      <trkpt lat="43.47059" lon="6.30502">
        <ele>104.3</ele>
        <time>2023-03-03T13:57:06Z</time>
      </trkpt>
      <trkpt lat="43.4706" lon="6.30504">
        <ele>104.3</ele>
        <time>2023-03-03T13:57:07Z</time>
      </trkpt>
      <trkpt lat="43.47059" lon="6.30505">
        <ele>104.2</ele>
        <time>2023-03-03T13:57:08Z</time>
      </trkpt>
      <trkpt lat="43.47059" lon="6.30507">
        <ele>104.2</ele>
        <time>2023-03-03T13:57:09Z</time>
      </trkpt>
      <trkpt lat="43.47058" lon="6.30507">
        <ele>104.1</ele>
        <time>2023-03-03T13:57:10Z</time>
      </trkpt>
      <trkpt lat="43.47058" lon="6.30508">
        <ele>104</ele>
        <time>2023-03-03T13:57:11Z</time>
      </trkpt>
      <trkpt lat="43.47057" lon="6.30509">
        <ele>104</ele>
        <time>2023-03-03T13:57:12Z</time>
      </trkpt>
      <trkpt lat="43.47057" lon="6.30511">
        <ele>103.9</ele>
        <time>2023-03-03T13:57:13Z</time>
      </trkpt>
      <trkpt lat="43.47056" lon="6.30512">
        <ele>103.9</ele>
        <time>2023-03-03T13:57:14Z</time>
      </trkpt>
      <trkpt lat="43.47056" lon="6.30513">
        <ele>103.8</ele>
        <time>2023-03-03T13:57:15Z</time>
      </trkpt>
      <trkpt lat="43.47056" lon="6.30513">
        <ele>103.7</ele>
        <time>2023-03-03T13:57:16Z</time>
      </trkpt>
      <trkpt lat="43.47055" lon="6.30514">
        <ele>103.6</ele>
        <time>2023-03-03T13:57:17Z</time>
      </trkpt>
      <trkpt lat="43.47055" lon="6.30515">
        <ele>103.5</ele>
        <time>2023-03-03T13:57:18Z</time>
      </trkpt>
      <trkpt lat="43.47055" lon="6.30516">
        <ele>103.5</ele>
        <time>2023-03-03T13:57:19Z</time>
      </trkpt>
      <trkpt lat="43.47055" lon="6.30517">
        <ele>103.4</ele>
        <time>2023-03-03T13:57:20Z</time>
      </trkpt>
      <trkpt lat="43.47055" lon="6.30518">
        <ele>103.3</ele>
        <time>2023-03-03T13:57:21Z</time>
      </trkpt>
      <trkpt lat="43.47055" lon="6.30519">
        <ele>103.3</ele>
        <time>2023-03-03T13:57:22Z</time>
      </trkpt>
      <trkpt lat="43.47054" lon="6.30521">
        <ele>103.2</ele>
        <time>2023-03-03T13:57:23Z</time>
      </trkpt>
      <trkpt lat="43.47053" lon="6.30522">
        <ele>103.2</ele>
        <time>2023-03-03T13:57:24Z</time>
      </trkpt>
      <trkpt lat="43.47053" lon="6.30523">
        <ele>103.3</ele>
        <time>2023-03-03T13:57:25Z</time>
      </trkpt>
      <trkpt lat="43.47052" lon="6.30524">
        <ele>103.4</ele>
        <time>2023-03-03T13:57:26Z</time>
      </trkpt>
      <trkpt lat="43.47051" lon="6.30525">
        <ele>103.5</ele>
        <time>2023-03-03T13:57:27Z</time>
      </trkpt>
      <trkpt lat="43.47051" lon="6.30527">
        <ele>103.5</ele>
        <time>2023-03-03T13:57:28Z</time>
      </trkpt>
      <trkpt lat="43.47051" lon="6.30528">
        <ele>103.6</ele>
        <time>2023-03-03T13:57:29Z</time>
      </trkpt>
      <trkpt lat="43.47051" lon="6.30529">
        <ele>103.6</ele>
        <time>2023-03-03T13:57:30Z</time>
      </trkpt>
      <trkpt lat="43.4705" lon="6.30531">
        <ele>103.7</ele>
        <time>2023-03-03T13:57:31Z</time>
      </trkpt>
      <trkpt lat="43.4705" lon="6.30532">
        <ele>103.7</ele>
        <time>2023-03-03T13:57:32Z</time>
      </trkpt>
      <trkpt lat="43.47049" lon="6.30533">
        <ele>103.8</ele>
        <time>2023-03-03T13:57:33Z</time>
      </trkpt>
      <trkpt lat="43.47049" lon="6.30534">
        <ele>103.8</ele>
        <time>2023-03-03T13:57:34Z</time>
      </trkpt>
      <trkpt lat="43.47048" lon="6.30535">
        <ele>103.8</ele>
        <time>2023-03-03T13:57:35Z</time>
      </trkpt>
      <trkpt lat="43.47048" lon="6.30536">
        <ele>103.9</ele>
        <time>2023-03-03T13:57:36Z</time>
      </trkpt>
      <trkpt lat="43.47047" lon="6.30537">
        <ele>103.9</ele>
        <time>2023-03-03T13:57:37Z</time>
      </trkpt>
      <trkpt lat="43.47047" lon="6.30538">
        <ele>104</ele>
        <time>2023-03-03T13:57:38Z</time>
      </trkpt>
      <trkpt lat="43.47046" lon="6.30538">
        <ele>104</ele>
        <time>2023-03-03T13:57:39Z</time>
      </trkpt>
      <trkpt lat="43.47045" lon="6.30538">
        <ele>104.2</ele>
        <time>2023-03-03T13:57:40Z</time>
      </trkpt>
      <trkpt lat="43.47043" lon="6.30538">
        <ele>104.2</ele>
        <time>2023-03-03T13:57:41Z</time>
      </trkpt>
      <trkpt lat="43.47043" lon="6.30539">
        <ele>104.2</ele>
        <time>2023-03-03T13:57:42Z</time>
      </trkpt>
      <trkpt lat="43.47042" lon="6.30539">
        <ele>104.1</ele>
        <time>2023-03-03T13:57:43Z</time>
      </trkpt>
      <trkpt lat="43.47041" lon="6.30539">
        <ele>104</ele>
        <time>2023-03-03T13:57:44Z</time>
      </trkpt>
      <trkpt lat="43.4704" lon="6.30539">
        <ele>104</ele>
        <time>2023-03-03T13:57:45Z</time>
      </trkpt>
      <trkpt lat="43.47039" lon="6.30539">
        <ele>104</ele>
        <time>2023-03-03T13:57:46Z</time>
      </trkpt>
      <trkpt lat="43.47038" lon="6.30539">
        <ele>104</ele>
        <time>2023-03-03T13:57:47Z</time>
      </trkpt>
      <trkpt lat="43.47037" lon="6.30539">
        <ele>103.9</ele>
        <time>2023-03-03T13:57:48Z</time>
      </trkpt>
      <trkpt lat="43.47036" lon="6.30539">
        <ele>103.8</ele>
        <time>2023-03-03T13:57:49Z</time>
      </trkpt>
      <trkpt lat="43.47035" lon="6.30539">
        <ele>103.8</ele>
        <time>2023-03-03T13:57:50Z</time>
      </trkpt>
      <trkpt lat="43.47034" lon="6.30539">
        <ele>103.8</ele>
        <time>2023-03-03T13:57:51Z</time>
      </trkpt>
      <trkpt lat="43.47033" lon="6.30539">
        <ele>103.8</ele>
        <time>2023-03-03T13:57:52Z</time>
      </trkpt>
      <trkpt lat="43.47032" lon="6.3054">
        <ele>103.7</ele>
        <time>2023-03-03T13:57:53Z</time>
      </trkpt>
      <trkpt lat="43.47031" lon="6.30539">
        <ele>103.7</ele>
        <time>2023-03-03T13:57:54Z</time>
      </trkpt>
      <trkpt lat="43.4703" lon="6.3054">
        <ele>103.6</ele>
        <time>2023-03-03T13:57:55Z</time>
      </trkpt>
      <trkpt lat="43.4703" lon="6.3054">
        <ele>103.5</ele>
        <time>2023-03-03T13:57:56Z</time>
      </trkpt>
      <trkpt lat="43.47029" lon="6.3054">
        <ele>103.4</ele>
        <time>2023-03-03T13:57:57Z</time>
      </trkpt>
      <trkpt lat="43.47029" lon="6.30539">
        <ele>103.4</ele>
        <time>2023-03-03T13:57:58Z</time>
      </trkpt>
      <trkpt lat="43.47029" lon="6.30539">
        <ele>103.3</ele>
        <time>2023-03-03T13:57:59Z</time>
      </trkpt>
      <trkpt lat="43.47028" lon="6.30538">
        <ele>103.3</ele>
        <time>2023-03-03T13:58:00Z</time>
      </trkpt>
      <trkpt lat="43.47028" lon="6.30538">
        <ele>103.3</ele>
        <time>2023-03-03T13:58:01Z</time>
      </trkpt>
      <trkpt lat="43.47028" lon="6.30539">
        <ele>103.3</ele>
        <time>2023-03-03T13:58:02Z</time>
      </trkpt>
      <trkpt lat="43.47028" lon="6.3054">
        <ele>103.2</ele>
        <time>2023-03-03T13:58:03Z</time>
      </trkpt>
      <trkpt lat="43.47028" lon="6.30542">
        <ele>103.2</ele>
        <time>2023-03-03T13:58:04Z</time>
      </trkpt>
      <trkpt lat="43.47028" lon="6.30543">
        <ele>103.2</ele>
        <time>2023-03-03T13:58:05Z</time>
      </trkpt>
      <trkpt lat="43.47028" lon="6.30544">
        <ele>103.2</ele>
        <time>2023-03-03T13:58:06Z</time>
      </trkpt>
      <trkpt lat="43.47028" lon="6.30545">
        <ele>103.1</ele>
        <time>2023-03-03T13:58:07Z</time>
      </trkpt>
      <trkpt lat="43.47028" lon="6.30546">
        <ele>103.1</ele>
        <time>2023-03-03T13:58:08Z</time>
      </trkpt>
      <trkpt lat="43.47028" lon="6.30547">
        <ele>103</ele>
        <time>2023-03-03T13:58:09Z</time>
      </trkpt>
      <trkpt lat="43.47028" lon="6.30548">
        <ele>103</ele>
        <time>2023-03-03T13:58:10Z</time>
      </trkpt>
      <trkpt lat="43.47028" lon="6.30549">
        <ele>103</ele>
        <time>2023-03-03T13:58:11Z</time>
      </trkpt>
      <trkpt lat="43.47027" lon="6.3055">
        <ele>103</ele>
        <time>2023-03-03T13:58:12Z</time>
      </trkpt>
      <trkpt lat="43.47027" lon="6.30551">
        <ele>102.9</ele>
        <time>2023-03-03T13:58:13Z</time>
      </trkpt>
      <trkpt lat="43.47026" lon="6.30552">
        <ele>102.8</ele>
        <time>2023-03-03T13:58:14Z</time>
      </trkpt>
      <trkpt lat="43.47026" lon="6.30553">
        <ele>102.7</ele>
        <time>2023-03-03T13:58:15Z</time>
      </trkpt>
      <trkpt lat="43.47026" lon="6.30553">
        <ele>102.7</ele>
        <time>2023-03-03T13:58:16Z</time>
      </trkpt>
      <trkpt lat="43.47025" lon="6.30554">
        <ele>102.7</ele>
        <time>2023-03-03T13:58:17Z</time>
      </trkpt>
      <trkpt lat="43.47025" lon="6.30555">
        <ele>102.7</ele>
        <time>2023-03-03T13:58:18Z</time>
      </trkpt>
      <trkpt lat="43.47025" lon="6.30556">
        <ele>102.6</ele>
        <time>2023-03-03T13:58:19Z</time>
      </trkpt>
      <trkpt lat="43.47025" lon="6.30557">
        <ele>102.6</ele>
        <time>2023-03-03T13:58:20Z</time>
      </trkpt>
      <trkpt lat="43.47024" lon="6.30558">
        <ele>102.6</ele>
        <time>2023-03-03T13:58:21Z</time>
      </trkpt>
      <trkpt lat="43.47024" lon="6.3056">
        <ele>102.6</ele>
        <time>2023-03-03T13:58:22Z</time>
      </trkpt>
      <trkpt lat="43.47024" lon="6.30561">
        <ele>102.6</ele>
        <time>2023-03-03T13:58:23Z</time>
      </trkpt>
      <trkpt lat="43.47024" lon="6.30562">
        <ele>102.5</ele>
        <time>2023-03-03T13:58:24Z</time>
      </trkpt>
      <trkpt lat="43.47024" lon="6.30563">
        <ele>102.5</ele>
        <time>2023-03-03T13:58:25Z</time>
      </trkpt>
      <trkpt lat="43.47024" lon="6.30565">
        <ele>102.5</ele>
        <time>2023-03-03T13:58:26Z</time>
      </trkpt>
      <trkpt lat="43.47023" lon="6.30566">
        <ele>102.5</ele>
        <time>2023-03-03T13:58:27Z</time>
      </trkpt>
      <trkpt lat="43.47023" lon="6.30567">
        <ele>102.5</ele>
        <time>2023-03-03T13:58:28Z</time>
      </trkpt>
      <trkpt lat="43.47023" lon="6.30569">
        <ele>102.5</ele>
        <time>2023-03-03T13:58:29Z</time>
      </trkpt>
      <trkpt lat="43.47022" lon="6.3057">
        <ele>102.5</ele>
        <time>2023-03-03T13:58:30Z</time>
      </trkpt>
      <trkpt lat="43.47022" lon="6.30571">
        <ele>102.4</ele>
        <time>2023-03-03T13:58:31Z</time>
      </trkpt>
      <trkpt lat="43.47022" lon="6.30572">
        <ele>102.3</ele>
        <time>2023-03-03T13:58:32Z</time>
      </trkpt>
      <trkpt lat="43.47022" lon="6.30573">
        <ele>102.2</ele>
        <time>2023-03-03T13:58:33Z</time>
      </trkpt>
      <trkpt lat="43.47021" lon="6.30574">
        <ele>102.2</ele>
        <time>2023-03-03T13:58:34Z</time>
      </trkpt>
      <trkpt lat="43.47021" lon="6.30575">
        <ele>102.1</ele>
        <time>2023-03-03T13:58:35Z</time>
      </trkpt>
      <trkpt lat="43.4702" lon="6.30576">
        <ele>102.1</ele>
        <time>2023-03-03T13:58:36Z</time>
      </trkpt>
      <trkpt lat="43.4702" lon="6.30577">
        <ele>102.1</ele>
        <time>2023-03-03T13:58:37Z</time>
      </trkpt>
      <trkpt lat="43.47019" lon="6.30578">
        <ele>102.1</ele>
        <time>2023-03-03T13:58:38Z</time>
      </trkpt>
      <trkpt lat="43.47019" lon="6.30579">
        <ele>102</ele>
        <time>2023-03-03T13:58:39Z</time>
      </trkpt>
      <trkpt lat="43.47019" lon="6.3058">
        <ele>101.9</ele>
        <time>2023-03-03T13:58:40Z</time>
      </trkpt>
      <trkpt lat="43.47019" lon="6.30582">
        <ele>101.9</ele>
        <time>2023-03-03T13:58:41Z</time>
      </trkpt>
      <trkpt lat="43.47019" lon="6.30583">
        <ele>101.9</ele>
        <time>2023-03-03T13:58:42Z</time>
      </trkpt>
      <trkpt lat="43.47018" lon="6.30584">
        <ele>101.8</ele>
        <time>2023-03-03T13:58:43Z</time>
      </trkpt>
      <trkpt lat="43.47018" lon="6.30585">
        <ele>101.8</ele>
        <time>2023-03-03T13:58:44Z</time>
      </trkpt>
      <trkpt lat="43.47017" lon="6.30587">
        <ele>101.8</ele>
        <time>2023-03-03T13:58:45Z</time>
      </trkpt>
      <trkpt lat="43.47017" lon="6.30588">
        <ele>101.7</ele>
        <time>2023-03-03T13:58:46Z</time>
      </trkpt>
      <trkpt lat="43.47016" lon="6.30589">
        <ele>101.6</ele>
        <time>2023-03-03T13:58:47Z</time>
      </trkpt>
      <trkpt lat="43.47016" lon="6.3059">
        <ele>101.6</ele>
        <time>2023-03-03T13:58:48Z</time>
      </trkpt>
      <trkpt lat="43.47015" lon="6.30591">
        <ele>101.4</ele>
        <time>2023-03-03T13:58:49Z</time>
      </trkpt>
      <trkpt lat="43.47015" lon="6.30593">
        <ele>101.3</ele>
        <time>2023-03-03T13:58:50Z</time>
      </trkpt>
      <trkpt lat="43.47015" lon="6.30594">
        <ele>101.2</ele>
        <time>2023-03-03T13:58:51Z</time>
      </trkpt>
      <trkpt lat="43.47015" lon="6.30595">
        <ele>101.2</ele>
        <time>2023-03-03T13:58:52Z</time>
      </trkpt>
      <trkpt lat="43.47014" lon="6.30596">
        <ele>101.1</ele>
        <time>2023-03-03T13:58:53Z</time>
      </trkpt>
      <trkpt lat="43.47014" lon="6.30597">
        <ele>101.1</ele>
        <time>2023-03-03T13:58:54Z</time>
      </trkpt>
      <trkpt lat="43.47014" lon="6.30599">
        <ele>101.2</ele>
        <time>2023-03-03T13:58:55Z</time>
      </trkpt>
      <trkpt lat="43.47014" lon="6.306">
        <ele>101.1</ele>
        <time>2023-03-03T13:58:56Z</time>
      </trkpt>
      <trkpt lat="43.47013" lon="6.30601">
        <ele>101.1</ele>
        <time>2023-03-03T13:58:57Z</time>
      </trkpt>
      <trkpt lat="43.47013" lon="6.30602">
        <ele>101.2</ele>
        <time>2023-03-03T13:58:58Z</time>
      </trkpt>
      <trkpt lat="43.47012" lon="6.30604">
        <ele>101.2</ele>
        <time>2023-03-03T13:58:59Z</time>
      </trkpt>
      <trkpt lat="43.47012" lon="6.30605">
        <ele>101.3</ele>
        <time>2023-03-03T13:59:00Z</time>
      </trkpt>
      <trkpt lat="43.47012" lon="6.30607">
        <ele>101.3</ele>
        <time>2023-03-03T13:59:01Z</time>
      </trkpt>
      <trkpt lat="43.47012" lon="6.30608">
        <ele>101.3</ele>
        <time>2023-03-03T13:59:02Z</time>
      </trkpt>
      <trkpt lat="43.47012" lon="6.30609">
        <ele>101.3</ele>
        <time>2023-03-03T13:59:03Z</time>
      </trkpt>
      <trkpt lat="43.47012" lon="6.30611">
        <ele>101.2</ele>
        <time>2023-03-03T13:59:04Z</time>
      </trkpt>
      <trkpt lat="43.47011" lon="6.30612">
        <ele>101.2</ele>
        <time>2023-03-03T13:59:05Z</time>
      </trkpt>
      <trkpt lat="43.47011" lon="6.30613">
        <ele>101.2</ele>
        <time>2023-03-03T13:59:06Z</time>
      </trkpt>
      <trkpt lat="43.47011" lon="6.30615">
        <ele>101.1</ele>
        <time>2023-03-03T13:59:07Z</time>
      </trkpt>
      <trkpt lat="43.47011" lon="6.30616">
        <ele>101</ele>
        <time>2023-03-03T13:59:08Z</time>
      </trkpt>
      <trkpt lat="43.4701" lon="6.30617">
        <ele>101</ele>
        <time>2023-03-03T13:59:09Z</time>
      </trkpt>
      <trkpt lat="43.4701" lon="6.30618">
        <ele>100.9</ele>
        <time>2023-03-03T13:59:10Z</time>
      </trkpt>
      <trkpt lat="43.47011" lon="6.30619">
        <ele>100.9</ele>
        <time>2023-03-03T13:59:11Z</time>
      </trkpt>
      <trkpt lat="43.47011" lon="6.3062">
        <ele>101</ele>
        <time>2023-03-03T13:59:12Z</time>
      </trkpt>
      <trkpt lat="43.4701" lon="6.30621">
        <ele>101</ele>
        <time>2023-03-03T13:59:13Z</time>
      </trkpt>
      <trkpt lat="43.4701" lon="6.30623">
        <ele>101</ele>
        <time>2023-03-03T13:59:14Z</time>
      </trkpt>
      <trkpt lat="43.47009" lon="6.30624">
        <ele>101</ele>
        <time>2023-03-03T13:59:15Z</time>
      </trkpt>
      <trkpt lat="43.47009" lon="6.30625">
        <ele>101</ele>
        <time>2023-03-03T13:59:16Z</time>
      </trkpt>
      <trkpt lat="43.47008" lon="6.30626">
        <ele>101</ele>
        <time>2023-03-03T13:59:17Z</time>
      </trkpt>
      <trkpt lat="43.47007" lon="6.30626">
        <ele>101</ele>
        <time>2023-03-03T13:59:18Z</time>
      </trkpt>
      <trkpt lat="43.47006" lon="6.30627">
        <ele>101</ele>
        <time>2023-03-03T13:59:19Z</time>
      </trkpt>
      <trkpt lat="43.47005" lon="6.30628">
        <ele>100.9</ele>
        <time>2023-03-03T13:59:20Z</time>
      </trkpt>
      <trkpt lat="43.47005" lon="6.30629">
        <ele>100.9</ele>
        <time>2023-03-03T13:59:21Z</time>
      </trkpt>
      <trkpt lat="43.47004" lon="6.30631">
        <ele>100.8</ele>
        <time>2023-03-03T13:59:22Z</time>
      </trkpt>
      <trkpt lat="43.47003" lon="6.30632">
        <ele>100.8</ele>
        <time>2023-03-03T13:59:23Z</time>
      </trkpt>
      <trkpt lat="43.47003" lon="6.30633">
        <ele>100.7</ele>
        <time>2023-03-03T13:59:24Z</time>
      </trkpt>
      <trkpt lat="43.47003" lon="6.30634">
        <ele>100.7</ele>
        <time>2023-03-03T13:59:25Z</time>
      </trkpt>
      <trkpt lat="43.47002" lon="6.30634">
        <ele>100.7</ele>
        <time>2023-03-03T13:59:26Z</time>
      </trkpt>
      <trkpt lat="43.47001" lon="6.30635">
        <ele>100.5</ele>
        <time>2023-03-03T13:59:27Z</time>
      </trkpt>
      <trkpt lat="43.47001" lon="6.30636">
        <ele>100.5</ele>
        <time>2023-03-03T13:59:28Z</time>
      </trkpt>
      <trkpt lat="43.47" lon="6.30637">
        <ele>100.3</ele>
        <time>2023-03-03T13:59:29Z</time>
      </trkpt>
      <trkpt lat="43.47" lon="6.30638">
        <ele>100.3</ele>
        <time>2023-03-03T13:59:30Z</time>
      </trkpt>
      <trkpt lat="43.46999" lon="6.30639">
        <ele>100.3</ele>
        <time>2023-03-03T13:59:31Z</time>
      </trkpt>
      <trkpt lat="43.46997" lon="6.3064">
        <ele>100.3</ele>
        <time>2023-03-03T13:59:32Z</time>
      </trkpt>
      <trkpt lat="43.46996" lon="6.30641">
        <ele>100.2</ele>
        <time>2023-03-03T13:59:33Z</time>
      </trkpt>
      <trkpt lat="43.46996" lon="6.30642">
        <ele>100.2</ele>
        <time>2023-03-03T13:59:34Z</time>
      </trkpt>
      <trkpt lat="43.46995" lon="6.30644">
        <ele>100.1</ele>
        <time>2023-03-03T13:59:35Z</time>
      </trkpt>
      <trkpt lat="43.46994" lon="6.30644">
        <ele>100.1</ele>
        <time>2023-03-03T13:59:36Z</time>
      </trkpt>
      <trkpt lat="43.46993" lon="6.30644">
        <ele>100</ele>
        <time>2023-03-03T13:59:37Z</time>
      </trkpt>
      <trkpt lat="43.46992" lon="6.30645">
        <ele>99.9</ele>
        <time>2023-03-03T13:59:38Z</time>
      </trkpt>
      <trkpt lat="43.46991" lon="6.30646">
        <ele>99.9</ele>
        <time>2023-03-03T13:59:39Z</time>
      </trkpt>
      <trkpt lat="43.46989" lon="6.30646">
        <ele>99.8</ele>
        <time>2023-03-03T13:59:40Z</time>
      </trkpt>
      <trkpt lat="43.46988" lon="6.30646">
        <ele>99.8</ele>
        <time>2023-03-03T13:59:41Z</time>
      </trkpt>
      <trkpt lat="43.46987" lon="6.30647">
        <ele>100</ele>
        <time>2023-03-03T13:59:42Z</time>
      </trkpt>
      <trkpt lat="43.46986" lon="6.30648">
        <ele>100</ele>
        <time>2023-03-03T13:59:43Z</time>
      </trkpt>
      <trkpt lat="43.46985" lon="6.30648">
        <ele>99.9</ele>
        <time>2023-03-03T13:59:44Z</time>
      </trkpt>
      <trkpt lat="43.46985" lon="6.30649">
        <ele>99.9</ele>
        <time>2023-03-03T13:59:45Z</time>
      </trkpt>
      <trkpt lat="43.46983" lon="6.30648">
        <ele>99.9</ele>
        <time>2023-03-03T13:59:46Z</time>
      </trkpt>
      <trkpt lat="43.46982" lon="6.30648">
        <ele>100</ele>
        <time>2023-03-03T13:59:47Z</time>
      </trkpt>
      <trkpt lat="43.46981" lon="6.30649">
        <ele>100</ele>
        <time>2023-03-03T13:59:48Z</time>
      </trkpt>
      <trkpt lat="43.4698" lon="6.30649">
        <ele>100</ele>
        <time>2023-03-03T13:59:49Z</time>
      </trkpt>
      <trkpt lat="43.46978" lon="6.30649">
        <ele>100</ele>
        <time>2023-03-03T13:59:50Z</time>
      </trkpt>
      <trkpt lat="43.46977" lon="6.30649">
        <ele>100.1</ele>
        <time>2023-03-03T13:59:51Z</time>
      </trkpt>
      <trkpt lat="43.46976" lon="6.30649">
        <ele>100.1</ele>
        <time>2023-03-03T13:59:52Z</time>
      </trkpt>
      <trkpt lat="43.46975" lon="6.30649">
        <ele>100.2</ele>
        <time>2023-03-03T13:59:53Z</time>
      </trkpt>
      <trkpt lat="43.46975" lon="6.30649">
        <ele>100.2</ele>
        <time>2023-03-03T13:59:54Z</time>
      </trkpt>
      <trkpt lat="43.46975" lon="6.30649">
        <ele>100.2</ele>
        <time>2023-03-03T13:59:55Z</time>
      </trkpt>
      <trkpt lat="43.46974" lon="6.30648">
        <ele>100.3</ele>
        <time>2023-03-03T13:59:56Z</time>
      </trkpt>
      <trkpt lat="43.46973" lon="6.30647">
        <ele>100.3</ele>
        <time>2023-03-03T13:59:57Z</time>
      </trkpt>
      <trkpt lat="43.46971" lon="6.30648">
        <ele>100.4</ele>
        <time>2023-03-03T13:59:58Z</time>
      </trkpt>
      <trkpt lat="43.46971" lon="6.30649">
        <ele>100.4</ele>
        <time>2023-03-03T13:59:59Z</time>
      </trkpt>
      <trkpt lat="43.4697" lon="6.30649">
        <ele>100.4</ele>
        <time>2023-03-03T14:00:00Z</time>
      </trkpt>
      <trkpt lat="43.46968" lon="6.30649">
        <ele>100.4</ele>
        <time>2023-03-03T14:00:01Z</time>
      </trkpt>
      <trkpt lat="43.46967" lon="6.30649">
        <ele>100.5</ele>
        <time>2023-03-03T14:00:02Z</time>
      </trkpt>
      <trkpt lat="43.46965" lon="6.30648">
        <ele>100.6</ele>
        <time>2023-03-03T14:00:03Z</time>
      </trkpt>
      <trkpt lat="43.46964" lon="6.30649">
        <ele>100.6</ele>
        <time>2023-03-03T14:00:04Z</time>
      </trkpt>
      <trkpt lat="43.46963" lon="6.30649">
        <ele>100.5</ele>
        <time>2023-03-03T14:00:05Z</time>
      </trkpt>
      <trkpt lat="43.46963" lon="6.3065">
        <ele>100.5</ele>
        <time>2023-03-03T14:00:06Z</time>
      </trkpt>
      <trkpt lat="43.46961" lon="6.3065">
        <ele>100.5</ele>
        <time>2023-03-03T14:00:07Z</time>
      </trkpt>
      <trkpt lat="43.4696" lon="6.30651">
        <ele>100.5</ele>
        <time>2023-03-03T14:00:08Z</time>
      </trkpt>
      <trkpt lat="43.4696" lon="6.30651">
        <ele>100.4</ele>
        <time>2023-03-03T14:00:09Z</time>
      </trkpt>
      <trkpt lat="43.46959" lon="6.30652">
        <ele>100.4</ele>
        <time>2023-03-03T14:00:10Z</time>
      </trkpt>
      <trkpt lat="43.46958" lon="6.30652">
        <ele>100.4</ele>
        <time>2023-03-03T14:00:11Z</time>
      </trkpt>
      <trkpt lat="43.46958" lon="6.30654">
        <ele>100.4</ele>
        <time>2023-03-03T14:00:12Z</time>
      </trkpt>
      <trkpt lat="43.46957" lon="6.30655">
        <ele>100.4</ele>
        <time>2023-03-03T14:00:13Z</time>
      </trkpt>
      <trkpt lat="43.46957" lon="6.30657">
        <ele>100.4</ele>
        <time>2023-03-03T14:00:14Z</time>
      </trkpt>
      <trkpt lat="43.46956" lon="6.30658">
        <ele>100.4</ele>
        <time>2023-03-03T14:00:15Z</time>
      </trkpt>
      <trkpt lat="43.46955" lon="6.30658">
        <ele>100.5</ele>
        <time>2023-03-03T14:00:16Z</time>
      </trkpt>
      <trkpt lat="43.46954" lon="6.30658">
        <ele>100.5</ele>
        <time>2023-03-03T14:00:17Z</time>
      </trkpt>
      <trkpt lat="43.46953" lon="6.3066">
        <ele>100.5</ele>
        <time>2023-03-03T14:00:18Z</time>
      </trkpt>
      <trkpt lat="43.46952" lon="6.3066">
        <ele>100.5</ele>
        <time>2023-03-03T14:00:19Z</time>
      </trkpt>
      <trkpt lat="43.46952" lon="6.30662">
        <ele>100.5</ele>
        <time>2023-03-03T14:00:20Z</time>
      </trkpt>
      <trkpt lat="43.46951" lon="6.30662">
        <ele>100.5</ele>
        <time>2023-03-03T14:00:21Z</time>
      </trkpt>
      <trkpt lat="43.46951" lon="6.30663">
        <ele>100.5</ele>
        <time>2023-03-03T14:00:22Z</time>
      </trkpt>
      <trkpt lat="43.4695" lon="6.30664">
        <ele>100.5</ele>
        <time>2023-03-03T14:00:23Z</time>
      </trkpt>
      <trkpt lat="43.46949" lon="6.30665">
        <ele>100.6</ele>
        <time>2023-03-03T14:00:24Z</time>
      </trkpt>
      <trkpt lat="43.46949" lon="6.30666">
        <ele>100.6</ele>
        <time>2023-03-03T14:00:25Z</time>
      </trkpt>
      <trkpt lat="43.46948" lon="6.30668">
        <ele>100.7</ele>
        <time>2023-03-03T14:00:26Z</time>
      </trkpt>
      <trkpt lat="43.46948" lon="6.30669">
        <ele>100.7</ele>
        <time>2023-03-03T14:00:27Z</time>
      </trkpt>
      <trkpt lat="43.46947" lon="6.3067">
        <ele>100.8</ele>
        <time>2023-03-03T14:00:28Z</time>
      </trkpt>
      <trkpt lat="43.46946" lon="6.30671">
        <ele>100.8</ele>
        <time>2023-03-03T14:00:29Z</time>
      </trkpt>
      <trkpt lat="43.46946" lon="6.30672">
        <ele>100.8</ele>
        <time>2023-03-03T14:00:30Z</time>
      </trkpt>
      <trkpt lat="43.46946" lon="6.30674">
        <ele>100.8</ele>
        <time>2023-03-03T14:00:31Z</time>
      </trkpt>
      <trkpt lat="43.46945" lon="6.30675">
        <ele>100.8</ele>
        <time>2023-03-03T14:00:32Z</time>
      </trkpt>
      <trkpt lat="43.46944" lon="6.30677">
        <ele>100.8</ele>
        <time>2023-03-03T14:00:33Z</time>
      </trkpt>
      <trkpt lat="43.46944" lon="6.30679">
        <ele>100.8</ele>
        <time>2023-03-03T14:00:34Z</time>
      </trkpt>
      <trkpt lat="43.46943" lon="6.30681">
        <ele>100.8</ele>
        <time>2023-03-03T14:00:35Z</time>
      </trkpt>
      <trkpt lat="43.46943" lon="6.30682">
        <ele>100.8</ele>
        <time>2023-03-03T14:00:36Z</time>
      </trkpt>
      <trkpt lat="43.46943" lon="6.30684">
        <ele>100.9</ele>
        <time>2023-03-03T14:00:37Z</time>
      </trkpt>
      <trkpt lat="43.46942" lon="6.30685">
        <ele>100.9</ele>
        <time>2023-03-03T14:00:38Z</time>
      </trkpt>
      <trkpt lat="43.46941" lon="6.30687">
        <ele>100.8</ele>
        <time>2023-03-03T14:00:39Z</time>
      </trkpt>
      <trkpt lat="43.46941" lon="6.30689">
        <ele>100.9</ele>
        <time>2023-03-03T14:00:40Z</time>
      </trkpt>
      <trkpt lat="43.46941" lon="6.30692">
        <ele>100.9</ele>
        <time>2023-03-03T14:00:41Z</time>
      </trkpt>
      <trkpt lat="43.4694" lon="6.30694">
        <ele>100.8</ele>
        <time>2023-03-03T14:00:42Z</time>
      </trkpt>
      <trkpt lat="43.46941" lon="6.30697">
        <ele>100.9</ele>
        <time>2023-03-03T14:00:43Z</time>
      </trkpt>
      <trkpt lat="43.4694" lon="6.30698">
        <ele>100.9</ele>
        <time>2023-03-03T14:00:44Z</time>
      </trkpt>
      <trkpt lat="43.46939" lon="6.30699">
        <ele>100.9</ele>
        <time>2023-03-03T14:00:45Z</time>
      </trkpt>
      <trkpt lat="43.46938" lon="6.30701">
        <ele>101</ele>
        <time>2023-03-03T14:00:46Z</time>
      </trkpt>
      <trkpt lat="43.46937" lon="6.30702">
        <ele>101.1</ele>
        <time>2023-03-03T14:00:47Z</time>
      </trkpt>
      <trkpt lat="43.46937" lon="6.30703">
        <ele>101.2</ele>
        <time>2023-03-03T14:00:48Z</time>
      </trkpt>
      <trkpt lat="43.46937" lon="6.30705">
        <ele>101.2</ele>
        <time>2023-03-03T14:00:49Z</time>
      </trkpt>
      <trkpt lat="43.46936" lon="6.30704">
        <ele>101.2</ele>
        <time>2023-03-03T14:00:50Z</time>
      </trkpt>
      <trkpt lat="43.46935" lon="6.30705">
        <ele>101.2</ele>
        <time>2023-03-03T14:00:51Z</time>
      </trkpt>
      <trkpt lat="43.46934" lon="6.30706">
        <ele>101.2</ele>
        <time>2023-03-03T14:00:52Z</time>
      </trkpt>
      <trkpt lat="43.46933" lon="6.30707">
        <ele>101.2</ele>
        <time>2023-03-03T14:00:53Z</time>
      </trkpt>
      <trkpt lat="43.46933" lon="6.30708">
        <ele>101.2</ele>
        <time>2023-03-03T14:00:54Z</time>
      </trkpt>
      <trkpt lat="43.46933" lon="6.30709">
        <ele>101.2</ele>
        <time>2023-03-03T14:00:55Z</time>
      </trkpt>
      <trkpt lat="43.46932" lon="6.30711">
        <ele>101.3</ele>
        <time>2023-03-03T14:00:56Z</time>
      </trkpt>
      <trkpt lat="43.46932" lon="6.30711">
        <ele>101.3</ele>
        <time>2023-03-03T14:00:57Z</time>
      </trkpt>
      <trkpt lat="43.46931" lon="6.30713">
        <ele>101.2</ele>
        <time>2023-03-03T14:00:58Z</time>
      </trkpt>
      <trkpt lat="43.46931" lon="6.30714">
        <ele>101.1</ele>
        <time>2023-03-03T14:00:59Z</time>
      </trkpt>
      <trkpt lat="43.46931" lon="6.30715">
        <ele>101.2</ele>
        <time>2023-03-03T14:01:00Z</time>
      </trkpt>
      <trkpt lat="43.46931" lon="6.30717">
        <ele>101.2</ele>
        <time>2023-03-03T14:01:01Z</time>
      </trkpt>
      <trkpt lat="43.46931" lon="6.30719">
        <ele>101.2</ele>
        <time>2023-03-03T14:01:02Z</time>
      </trkpt>
      <trkpt lat="43.4693" lon="6.3072">
        <ele>101.2</ele>
        <time>2023-03-03T14:01:03Z</time>
      </trkpt>
      <trkpt lat="43.4693" lon="6.30722">
        <ele>101.2</ele>
        <time>2023-03-03T14:01:04Z</time>
      </trkpt>
      <trkpt lat="43.4693" lon="6.30723">
        <ele>101.3</ele>
        <time>2023-03-03T14:01:05Z</time>
      </trkpt>
      <trkpt lat="43.46929" lon="6.30724">
        <ele>101.4</ele>
        <time>2023-03-03T14:01:06Z</time>
      </trkpt>
      <trkpt lat="43.46929" lon="6.30724">
        <ele>101.4</ele>
        <time>2023-03-03T14:01:07Z</time>
      </trkpt>
      <trkpt lat="43.46929" lon="6.30726">
        <ele>101.5</ele>
        <time>2023-03-03T14:01:08Z</time>
      </trkpt>
      <trkpt lat="43.46928" lon="6.30727">
        <ele>101.5</ele>
        <time>2023-03-03T14:01:09Z</time>
      </trkpt>
      <trkpt lat="43.46928" lon="6.30729">
        <ele>101.5</ele>
        <time>2023-03-03T14:01:10Z</time>
      </trkpt>
      <trkpt lat="43.46928" lon="6.30731">
        <ele>101.5</ele>
        <time>2023-03-03T14:01:11Z</time>
      </trkpt>
      <trkpt lat="43.46927" lon="6.30732">
        <ele>101.5</ele>
        <time>2023-03-03T14:01:12Z</time>
      </trkpt>
      <trkpt lat="43.46927" lon="6.30734">
        <ele>101.6</ele>
        <time>2023-03-03T14:01:13Z</time>
      </trkpt>
      <trkpt lat="43.46927" lon="6.30733">
        <ele>101.7</ele>
        <time>2023-03-03T14:01:14Z</time>
      </trkpt>
      <trkpt lat="43.46926" lon="6.30735">
        <ele>101.8</ele>
        <time>2023-03-03T14:01:15Z</time>
      </trkpt>
      <trkpt lat="43.46926" lon="6.30736">
        <ele>101.9</ele>
        <time>2023-03-03T14:01:16Z</time>
      </trkpt>
      <trkpt lat="43.46925" lon="6.30737">
        <ele>101.8</ele>
        <time>2023-03-03T14:01:17Z</time>
      </trkpt>
      <trkpt lat="43.46924" lon="6.30738">
        <ele>101.9</ele>
        <time>2023-03-03T14:01:18Z</time>
      </trkpt>
      <trkpt lat="43.46923" lon="6.30739">
        <ele>101.9</ele>
        <time>2023-03-03T14:01:19Z</time>
      </trkpt>
      <trkpt lat="43.46923" lon="6.3074">
        <ele>102</ele>
        <time>2023-03-03T14:01:20Z</time>
      </trkpt>
      <trkpt lat="43.46922" lon="6.30742">
        <ele>102</ele>
        <time>2023-03-03T14:01:21Z</time>
      </trkpt>
      <trkpt lat="43.46922" lon="6.30743">
        <ele>102.1</ele>
        <time>2023-03-03T14:01:22Z</time>
      </trkpt>
      <trkpt lat="43.46922" lon="6.30745">
        <ele>102.1</ele>
        <time>2023-03-03T14:01:23Z</time>
      </trkpt>
      <trkpt lat="43.46921" lon="6.30746">
        <ele>102.2</ele>
        <time>2023-03-03T14:01:24Z</time>
      </trkpt>
      <trkpt lat="43.4692" lon="6.30747">
        <ele>102.2</ele>
        <time>2023-03-03T14:01:25Z</time>
      </trkpt>
      <trkpt lat="43.4692" lon="6.30749">
        <ele>102.3</ele>
        <time>2023-03-03T14:01:26Z</time>
      </trkpt>
      <trkpt lat="43.46919" lon="6.30752">
        <ele>102.3</ele>
        <time>2023-03-03T14:01:27Z</time>
      </trkpt>
      <trkpt lat="43.46919" lon="6.30753">
        <ele>102.2</ele>
        <time>2023-03-03T14:01:28Z</time>
      </trkpt>
      <trkpt lat="43.46918" lon="6.30754">
        <ele>102.2</ele>
        <time>2023-03-03T14:01:29Z</time>
      </trkpt>
      <trkpt lat="43.46917" lon="6.30756">
        <ele>102.1</ele>
        <time>2023-03-03T14:01:30Z</time>
      </trkpt>
      <trkpt lat="43.46917" lon="6.30758">
        <ele>102.2</ele>
        <time>2023-03-03T14:01:31Z</time>
      </trkpt>
      <trkpt lat="43.46916" lon="6.30759">
        <ele>102.2</ele>
        <time>2023-03-03T14:01:32Z</time>
      </trkpt>
      <trkpt lat="43.46916" lon="6.30762">
        <ele>102.3</ele>
        <time>2023-03-03T14:01:33Z</time>
      </trkpt>
      <trkpt lat="43.46915" lon="6.30763">
        <ele>102.3</ele>
        <time>2023-03-03T14:01:34Z</time>
      </trkpt>
      <trkpt lat="43.46915" lon="6.30765">
        <ele>102.4</ele>
        <time>2023-03-03T14:01:35Z</time>
      </trkpt>
      <trkpt lat="43.46914" lon="6.30767">
        <ele>102.4</ele>
        <time>2023-03-03T14:01:36Z</time>
      </trkpt>
      <trkpt lat="43.46914" lon="6.30768">
        <ele>102.5</ele>
        <time>2023-03-03T14:01:37Z</time>
      </trkpt>
      <trkpt lat="43.46913" lon="6.30769">
        <ele>102.5</ele>
        <time>2023-03-03T14:01:38Z</time>
      </trkpt>
      <trkpt lat="43.46913" lon="6.3077">
        <ele>102.5</ele>
        <time>2023-03-03T14:01:39Z</time>
      </trkpt>
      <trkpt lat="43.46912" lon="6.30771">
        <ele>102.5</ele>
        <time>2023-03-03T14:01:40Z</time>
      </trkpt>
      <trkpt lat="43.46911" lon="6.30771">
        <ele>102.6</ele>
        <time>2023-03-03T14:01:41Z</time>
      </trkpt>
      <trkpt lat="43.46911" lon="6.30773">
        <ele>102.6</ele>
        <time>2023-03-03T14:01:42Z</time>
      </trkpt>
      <trkpt lat="43.4691" lon="6.30775">
        <ele>102.8</ele>
        <time>2023-03-03T14:01:43Z</time>
      </trkpt>
      <trkpt lat="43.4691" lon="6.30776">
        <ele>102.9</ele>
        <time>2023-03-03T14:01:44Z</time>
      </trkpt>
      <trkpt lat="43.46909" lon="6.30776">
        <ele>103</ele>
        <time>2023-03-03T14:01:45Z</time>
      </trkpt>
      <trkpt lat="43.46908" lon="6.30777">
        <ele>103.1</ele>
        <time>2023-03-03T14:01:46Z</time>
      </trkpt>
      <trkpt lat="43.46907" lon="6.30779">
        <ele>103.1</ele>
        <time>2023-03-03T14:01:47Z</time>
      </trkpt>
      <trkpt lat="43.46906" lon="6.30779">
        <ele>103.1</ele>
        <time>2023-03-03T14:01:48Z</time>
      </trkpt>
      <trkpt lat="43.46905" lon="6.3078">
        <ele>103.1</ele>
        <time>2023-03-03T14:01:49Z</time>
      </trkpt>
      <trkpt lat="43.46905" lon="6.30781">
        <ele>103.1</ele>
        <time>2023-03-03T14:01:50Z</time>
      </trkpt>
      <trkpt lat="43.46904" lon="6.30782">
        <ele>103.1</ele>
        <time>2023-03-03T14:01:51Z</time>
      </trkpt>
      <trkpt lat="43.46902" lon="6.30783">
        <ele>103.2</ele>
        <time>2023-03-03T14:01:52Z</time>
      </trkpt>
      <trkpt lat="43.46902" lon="6.30787">
        <ele>103.4</ele>
        <time>2023-03-03T14:01:53Z</time>
      </trkpt>
      <trkpt lat="43.46901" lon="6.30789">
        <ele>103.5</ele>
        <time>2023-03-03T14:01:54Z</time>
      </trkpt>
      <trkpt lat="43.46901" lon="6.3079">
        <ele>103.5</ele>
        <time>2023-03-03T14:01:55Z</time>
      </trkpt>
      <trkpt lat="43.469" lon="6.30791">
        <ele>103.6</ele>
        <time>2023-03-03T14:01:56Z</time>
      </trkpt>
      <trkpt lat="43.46899" lon="6.30792">
        <ele>103.7</ele>
        <time>2023-03-03T14:01:57Z</time>
      </trkpt>
      <trkpt lat="43.46898" lon="6.30793">
        <ele>103.8</ele>
        <time>2023-03-03T14:01:58Z</time>
      </trkpt>
      <trkpt lat="43.46897" lon="6.30794">
        <ele>103.8</ele>
        <time>2023-03-03T14:01:59Z</time>
      </trkpt>
      <trkpt lat="43.46897" lon="6.30795">
        <ele>103.9</ele>
        <time>2023-03-03T14:02:00Z</time>
      </trkpt>
      <trkpt lat="43.46896" lon="6.30796">
        <ele>103.9</ele>
        <time>2023-03-03T14:02:01Z</time>
      </trkpt>
      <trkpt lat="43.46896" lon="6.30796">
        <ele>104</ele>
        <time>2023-03-03T14:02:02Z</time>
      </trkpt>
      <trkpt lat="43.46895" lon="6.30798">
        <ele>104.1</ele>
        <time>2023-03-03T14:02:03Z</time>
      </trkpt>
      <trkpt lat="43.46894" lon="6.30799">
        <ele>104.1</ele>
        <time>2023-03-03T14:02:04Z</time>
      </trkpt>
      <trkpt lat="43.46894" lon="6.308">
        <ele>104.2</ele>
        <time>2023-03-03T14:02:05Z</time>
      </trkpt>
      <trkpt lat="43.46893" lon="6.30802">
        <ele>104.3</ele>
        <time>2023-03-03T14:02:06Z</time>
      </trkpt>
      <trkpt lat="43.46892" lon="6.30803">
        <ele>104.4</ele>
        <time>2023-03-03T14:02:07Z</time>
      </trkpt>
      <trkpt lat="43.46892" lon="6.30805">
        <ele>104.5</ele>
        <time>2023-03-03T14:02:08Z</time>
      </trkpt>
      <trkpt lat="43.46892" lon="6.30807">
        <ele>104.6</ele>
        <time>2023-03-03T14:02:09Z</time>
      </trkpt>
      <trkpt lat="43.46892" lon="6.30809">
        <ele>104.6</ele>
        <time>2023-03-03T14:02:10Z</time>
      </trkpt>
      <trkpt lat="43.46892" lon="6.3081">
        <ele>104.8</ele>
        <time>2023-03-03T14:02:11Z</time>
      </trkpt>
      <trkpt lat="43.46892" lon="6.30811">
        <ele>104.9</ele>
        <time>2023-03-03T14:02:12Z</time>
      </trkpt>
      <trkpt lat="43.46892" lon="6.30813">
        <ele>105</ele>
        <time>2023-03-03T14:02:13Z</time>
      </trkpt>
      <trkpt lat="43.46892" lon="6.30815">
        <ele>105</ele>
        <time>2023-03-03T14:02:14Z</time>
      </trkpt>
      <trkpt lat="43.46892" lon="6.30817">
        <ele>105</ele>
        <time>2023-03-03T14:02:15Z</time>
      </trkpt>
      <trkpt lat="43.46891" lon="6.30819">
        <ele>105</ele>
        <time>2023-03-03T14:02:16Z</time>
      </trkpt>
      <trkpt lat="43.46891" lon="6.30821">
        <ele>105.1</ele>
        <time>2023-03-03T14:02:17Z</time>
      </trkpt>
      <trkpt lat="43.4689" lon="6.30822">
        <ele>105.1</ele>
        <time>2023-03-03T14:02:18Z</time>
      </trkpt>
      <trkpt lat="43.4689" lon="6.30824">
        <ele>105.2</ele>
        <time>2023-03-03T14:02:19Z</time>
      </trkpt>
      <trkpt lat="43.4689" lon="6.30826">
        <ele>105.2</ele>
        <time>2023-03-03T14:02:20Z</time>
      </trkpt>
      <trkpt lat="43.46891" lon="6.30827">
        <ele>105.2</ele>
        <time>2023-03-03T14:02:21Z</time>
      </trkpt>
      <trkpt lat="43.46891" lon="6.30829">
        <ele>105.3</ele>
        <time>2023-03-03T14:02:22Z</time>
      </trkpt>
      <trkpt lat="43.4689" lon="6.30831">
        <ele>105.4</ele>
        <time>2023-03-03T14:02:23Z</time>
      </trkpt>
      <trkpt lat="43.46891" lon="6.30833">
        <ele>105.5</ele>
        <time>2023-03-03T14:02:24Z</time>
      </trkpt>
      <trkpt lat="43.46891" lon="6.30834">
        <ele>105.5</ele>
        <time>2023-03-03T14:02:25Z</time>
      </trkpt>
      <trkpt lat="43.46891" lon="6.30835">
        <ele>105.5</ele>
        <time>2023-03-03T14:02:26Z</time>
      </trkpt>
      <trkpt lat="43.46891" lon="6.30837">
        <ele>105.6</ele>
        <time>2023-03-03T14:02:27Z</time>
      </trkpt>
      <trkpt lat="43.46891" lon="6.30839">
        <ele>105.6</ele>
        <time>2023-03-03T14:02:28Z</time>
      </trkpt>
      <trkpt lat="43.4689" lon="6.30841">
        <ele>105.6</ele>
        <time>2023-03-03T14:02:29Z</time>
      </trkpt>
      <trkpt lat="43.46891" lon="6.30842">
        <ele>105.6</ele>
        <time>2023-03-03T14:02:30Z</time>
      </trkpt>
      <trkpt lat="43.46891" lon="6.30844">
        <ele>105.7</ele>
        <time>2023-03-03T14:02:31Z</time>
      </trkpt>
      <trkpt lat="43.46891" lon="6.30845">
        <ele>105.7</ele>
        <time>2023-03-03T14:02:32Z</time>
      </trkpt>
      <trkpt lat="43.46891" lon="6.30846">
        <ele>105.8</ele>
        <time>2023-03-03T14:02:33Z</time>
      </trkpt>
      <trkpt lat="43.46891" lon="6.30847">
        <ele>105.8</ele>
        <time>2023-03-03T14:02:34Z</time>
      </trkpt>
      <trkpt lat="43.46891" lon="6.30848">
        <ele>105.8</ele>
        <time>2023-03-03T14:02:35Z</time>
      </trkpt>
      <trkpt lat="43.46891" lon="6.30849">
        <ele>105.8</ele>
        <time>2023-03-03T14:02:36Z</time>
      </trkpt>
      <trkpt lat="43.46891" lon="6.30851">
        <ele>105.8</ele>
        <time>2023-03-03T14:02:37Z</time>
      </trkpt>
      <trkpt lat="43.46892" lon="6.30852">
        <ele>105.8</ele>
        <time>2023-03-03T14:02:38Z</time>
      </trkpt>
      <trkpt lat="43.46893" lon="6.30853">
        <ele>106</ele>
        <time>2023-03-03T14:02:39Z</time>
      </trkpt>
      <trkpt lat="43.46893" lon="6.30855">
        <ele>106</ele>
        <time>2023-03-03T14:02:40Z</time>
      </trkpt>
      <trkpt lat="43.46893" lon="6.30857">
        <ele>106.1</ele>
        <time>2023-03-03T14:02:41Z</time>
      </trkpt>
      <trkpt lat="43.46893" lon="6.30859">
        <ele>106.1</ele>
        <time>2023-03-03T14:02:42Z</time>
      </trkpt>
      <trkpt lat="43.46893" lon="6.3086">
        <ele>106</ele>
        <time>2023-03-03T14:02:43Z</time>
      </trkpt>
      <trkpt lat="43.46893" lon="6.30862">
        <ele>106.1</ele>
        <time>2023-03-03T14:02:44Z</time>
      </trkpt>
      <trkpt lat="43.46893" lon="6.30863">
        <ele>106.2</ele>
        <time>2023-03-03T14:02:45Z</time>
      </trkpt>
      <trkpt lat="43.46893" lon="6.30864">
        <ele>106.2</ele>
        <time>2023-03-03T14:02:46Z</time>
      </trkpt>
      <trkpt lat="43.46893" lon="6.30866">
        <ele>106.2</ele>
        <time>2023-03-03T14:02:47Z</time>
      </trkpt>
      <trkpt lat="43.46893" lon="6.30868">
        <ele>106.3</ele>
        <time>2023-03-03T14:02:48Z</time>
      </trkpt>
      <trkpt lat="43.46893" lon="6.30869">
        <ele>106.5</ele>
        <time>2023-03-03T14:02:49Z</time>
      </trkpt>
      <trkpt lat="43.46893" lon="6.3087">
        <ele>106.6</ele>
        <time>2023-03-03T14:02:50Z</time>
      </trkpt>
      <trkpt lat="43.46893" lon="6.30871">
        <ele>106.7</ele>
        <time>2023-03-03T14:02:51Z</time>
      </trkpt>
      <trkpt lat="43.46893" lon="6.30873">
        <ele>106.8</ele>
        <time>2023-03-03T14:02:52Z</time>
      </trkpt>
      <trkpt lat="43.46893" lon="6.30874">
        <ele>106.8</ele>
        <time>2023-03-03T14:02:53Z</time>
      </trkpt>
      <trkpt lat="43.46893" lon="6.30876">
        <ele>106.9</ele>
        <time>2023-03-03T14:02:54Z</time>
      </trkpt>
      <trkpt lat="43.46894" lon="6.30877">
        <ele>106.9</ele>
        <time>2023-03-03T14:02:55Z</time>
      </trkpt>
      <trkpt lat="43.46893" lon="6.30878">
        <ele>106.9</ele>
        <time>2023-03-03T14:02:56Z</time>
      </trkpt>
      <trkpt lat="43.46894" lon="6.3088">
        <ele>107</ele>
        <time>2023-03-03T14:02:57Z</time>
      </trkpt>
      <trkpt lat="43.46894" lon="6.30881">
        <ele>107</ele>
        <time>2023-03-03T14:02:58Z</time>
      </trkpt>
      <trkpt lat="43.46895" lon="6.30883">
        <ele>107</ele>
        <time>2023-03-03T14:02:59Z</time>
      </trkpt>
      <trkpt lat="43.46895" lon="6.30884">
        <ele>107.1</ele>
        <time>2023-03-03T14:03:00Z</time>
      </trkpt>
      <trkpt lat="43.46895" lon="6.30885">
        <ele>107.1</ele>
        <time>2023-03-03T14:03:01Z</time>
      </trkpt>
      <trkpt lat="43.46895" lon="6.30886">
        <ele>107.1</ele>
        <time>2023-03-03T14:03:02Z</time>
      </trkpt>
      <trkpt lat="43.46896" lon="6.30887">
        <ele>107.1</ele>
        <time>2023-03-03T14:03:03Z</time>
      </trkpt>
      <trkpt lat="43.46896" lon="6.30888">
        <ele>107.2</ele>
        <time>2023-03-03T14:03:04Z</time>
      </trkpt>
      <trkpt lat="43.46896" lon="6.3089">
        <ele>107.2</ele>
        <time>2023-03-03T14:03:05Z</time>
      </trkpt>
      <trkpt lat="43.46897" lon="6.30892">
        <ele>107.2</ele>
        <time>2023-03-03T14:03:06Z</time>
      </trkpt>
      <trkpt lat="43.46898" lon="6.30894">
        <ele>107.2</ele>
        <time>2023-03-03T14:03:07Z</time>
      </trkpt>
      <trkpt lat="43.46898" lon="6.30895">
        <ele>107.2</ele>
        <time>2023-03-03T14:03:08Z</time>
      </trkpt>
      <trkpt lat="43.46898" lon="6.30896">
        <ele>107.2</ele>
        <time>2023-03-03T14:03:09Z</time>
      </trkpt>
      <trkpt lat="43.46898" lon="6.30898">
        <ele>107.3</ele>
        <time>2023-03-03T14:03:10Z</time>
      </trkpt>
      <trkpt lat="43.46899" lon="6.309">
        <ele>107.4</ele>
        <time>2023-03-03T14:03:11Z</time>
      </trkpt>
      <trkpt lat="43.46899" lon="6.30901">
        <ele>107.4</ele>
        <time>2023-03-03T14:03:12Z</time>
      </trkpt>
      <trkpt lat="43.46899" lon="6.30902">
        <ele>107.4</ele>
        <time>2023-03-03T14:03:13Z</time>
      </trkpt>
      <trkpt lat="43.46899" lon="6.30904">
        <ele>107.3</ele>
        <time>2023-03-03T14:03:14Z</time>
      </trkpt>
      <trkpt lat="43.469" lon="6.30906">
        <ele>107.3</ele>
        <time>2023-03-03T14:03:15Z</time>
      </trkpt>
      <trkpt lat="43.469" lon="6.30907">
        <ele>107.3</ele>
        <time>2023-03-03T14:03:16Z</time>
      </trkpt>
      <trkpt lat="43.469" lon="6.30908">
        <ele>107.2</ele>
        <time>2023-03-03T14:03:17Z</time>
      </trkpt>
      <trkpt lat="43.469" lon="6.30909">
        <ele>107.3</ele>
        <time>2023-03-03T14:03:18Z</time>
      </trkpt>
      <trkpt lat="43.46901" lon="6.3091">
        <ele>107.4</ele>
        <time>2023-03-03T14:03:19Z</time>
      </trkpt>
      <trkpt lat="43.46901" lon="6.30911">
        <ele>107.4</ele>
        <time>2023-03-03T14:03:20Z</time>
      </trkpt>
      <trkpt lat="43.46902" lon="6.30911">
        <ele>107.4</ele>
        <time>2023-03-03T14:03:21Z</time>
      </trkpt>
      <trkpt lat="43.46903" lon="6.30913">
        <ele>107.4</ele>
        <time>2023-03-03T14:03:22Z</time>
      </trkpt>
      <trkpt lat="43.46903" lon="6.30914">
        <ele>107.3</ele>
        <time>2023-03-03T14:03:23Z</time>
      </trkpt>
      <trkpt lat="43.46904" lon="6.30916">
        <ele>107.3</ele>
        <time>2023-03-03T14:03:24Z</time>
      </trkpt>
      <trkpt lat="43.46904" lon="6.30917">
        <ele>107.3</ele>
        <time>2023-03-03T14:03:25Z</time>
      </trkpt>
      <trkpt lat="43.46905" lon="6.30918">
        <ele>107.2</ele>
        <time>2023-03-03T14:03:26Z</time>
      </trkpt>
      <trkpt lat="43.46905" lon="6.30919">
        <ele>107.2</ele>
        <time>2023-03-03T14:03:27Z</time>
      </trkpt>
      <trkpt lat="43.46905" lon="6.30921">
        <ele>107.2</ele>
        <time>2023-03-03T14:03:28Z</time>
      </trkpt>
      <trkpt lat="43.46906" lon="6.30922">
        <ele>107.2</ele>
        <time>2023-03-03T14:03:29Z</time>
      </trkpt>
      <trkpt lat="43.46906" lon="6.30923">
        <ele>107.1</ele>
        <time>2023-03-03T14:03:30Z</time>
      </trkpt>
      <trkpt lat="43.46907" lon="6.30925">
        <ele>107.1</ele>
        <time>2023-03-03T14:03:31Z</time>
      </trkpt>
      <trkpt lat="43.46907" lon="6.30926">
        <ele>107</ele>
        <time>2023-03-03T14:03:32Z</time>
      </trkpt>
      <trkpt lat="43.46908" lon="6.30927">
        <ele>107</ele>
        <time>2023-03-03T14:03:33Z</time>
      </trkpt>
      <trkpt lat="43.46908" lon="6.30928">
        <ele>106.9</ele>
        <time>2023-03-03T14:03:34Z</time>
      </trkpt>
      <trkpt lat="43.46907" lon="6.30929">
        <ele>106.9</ele>
        <time>2023-03-03T14:03:35Z</time>
      </trkpt>
      <trkpt lat="43.46908" lon="6.30931">
        <ele>106.8</ele>
        <time>2023-03-03T14:03:36Z</time>
      </trkpt>
      <trkpt lat="43.46907" lon="6.30932">
        <ele>106.8</ele>
        <time>2023-03-03T14:03:37Z</time>
      </trkpt>
      <trkpt lat="43.46907" lon="6.30934">
        <ele>106.8</ele>
        <time>2023-03-03T14:03:38Z</time>
      </trkpt>
      <trkpt lat="43.46906" lon="6.30935">
        <ele>106.6</ele>
        <time>2023-03-03T14:03:39Z</time>
      </trkpt>
      <trkpt lat="43.46907" lon="6.30936">
        <ele>106.6</ele>
        <time>2023-03-03T14:03:40Z</time>
      </trkpt>
      <trkpt lat="43.46906" lon="6.30938">
        <ele>106.5</ele>
        <time>2023-03-03T14:03:41Z</time>
      </trkpt>
      <trkpt lat="43.46907" lon="6.30939">
        <ele>106.5</ele>
        <time>2023-03-03T14:03:42Z</time>
      </trkpt>
      <trkpt lat="43.46906" lon="6.3094">
        <ele>106.5</ele>
        <time>2023-03-03T14:03:43Z</time>
      </trkpt>
      <trkpt lat="43.46905" lon="6.30941">
        <ele>106.5</ele>
        <time>2023-03-03T14:03:44Z</time>
      </trkpt>
      <trkpt lat="43.46905" lon="6.30942">
        <ele>106.5</ele>
        <time>2023-03-03T14:03:45Z</time>
      </trkpt>
      <trkpt lat="43.46905" lon="6.30942">
        <ele>106.5</ele>
        <time>2023-03-03T14:03:46Z</time>
      </trkpt>
      <trkpt lat="43.46905" lon="6.30943">
        <ele>106.5</ele>
        <time>2023-03-03T14:03:47Z</time>
      </trkpt>
      <trkpt lat="43.46904" lon="6.30943">
        <ele>106.5</ele>
        <time>2023-03-03T14:03:48Z</time>
      </trkpt>
      <trkpt lat="43.46904" lon="6.30943">
        <ele>106.6</ele>
        <time>2023-03-03T14:03:49Z</time>
      </trkpt>
      <trkpt lat="43.46903" lon="6.30944">
        <ele>106.6</ele>
        <time>2023-03-03T14:03:50Z</time>
      </trkpt>
      <trkpt lat="43.46902" lon="6.30944">
        <ele>106.6</ele>
        <time>2023-03-03T14:03:51Z</time>
      </trkpt>
      <trkpt lat="43.46902" lon="6.30945">
        <ele>106.6</ele>
        <time>2023-03-03T14:03:52Z</time>
      </trkpt>
      <trkpt lat="43.46901" lon="6.30945">
        <ele>106.7</ele>
        <time>2023-03-03T14:03:53Z</time>
      </trkpt>
      <trkpt lat="43.46901" lon="6.30946">
        <ele>106.7</ele>
        <time>2023-03-03T14:03:54Z</time>
      </trkpt>
      <trkpt lat="43.469" lon="6.30946">
        <ele>106.7</ele>
        <time>2023-03-03T14:03:55Z</time>
      </trkpt>
      <trkpt lat="43.46899" lon="6.30947">
        <ele>106.7</ele>
        <time>2023-03-03T14:03:56Z</time>
      </trkpt>
      <trkpt lat="43.46898" lon="6.30948">
        <ele>106.7</ele>
        <time>2023-03-03T14:03:57Z</time>
      </trkpt>
      <trkpt lat="43.46898" lon="6.30948">
        <ele>106.9</ele>
        <time>2023-03-03T14:03:58Z</time>
      </trkpt>
      <trkpt lat="43.46896" lon="6.30949">
        <ele>106.9</ele>
        <time>2023-03-03T14:03:59Z</time>
      </trkpt>
      <trkpt lat="43.46896" lon="6.30949">
        <ele>106.9</ele>
        <time>2023-03-03T14:04:00Z</time>
      </trkpt>
      <trkpt lat="43.46895" lon="6.3095">
        <ele>106.9</ele>
        <time>2023-03-03T14:04:01Z</time>
      </trkpt>
      <trkpt lat="43.46894" lon="6.3095">
        <ele>107</ele>
        <time>2023-03-03T14:04:02Z</time>
      </trkpt>
      <trkpt lat="43.46893" lon="6.30951">
        <ele>107.1</ele>
        <time>2023-03-03T14:04:03Z</time>
      </trkpt>
      <trkpt lat="43.46892" lon="6.30952">
        <ele>107.2</ele>
        <time>2023-03-03T14:04:04Z</time>
      </trkpt>
      <trkpt lat="43.46892" lon="6.30954">
        <ele>107.2</ele>
        <time>2023-03-03T14:04:05Z</time>
      </trkpt>
      <trkpt lat="43.46891" lon="6.30955">
        <ele>107.3</ele>
        <time>2023-03-03T14:04:06Z</time>
      </trkpt>
      <trkpt lat="43.46891" lon="6.30957">
        <ele>107.3</ele>
        <time>2023-03-03T14:04:07Z</time>
      </trkpt>
      <trkpt lat="43.4689" lon="6.30959">
        <ele>107.4</ele>
        <time>2023-03-03T14:04:08Z</time>
      </trkpt>
      <trkpt lat="43.4689" lon="6.3096">
        <ele>107.4</ele>
        <time>2023-03-03T14:04:09Z</time>
      </trkpt>
      <trkpt lat="43.46889" lon="6.30962">
        <ele>107.3</ele>
        <time>2023-03-03T14:04:10Z</time>
      </trkpt>
      <trkpt lat="43.46889" lon="6.30964">
        <ele>107.4</ele>
        <time>2023-03-03T14:04:11Z</time>
      </trkpt>
      <trkpt lat="43.46888" lon="6.30966">
        <ele>107.3</ele>
        <time>2023-03-03T14:04:12Z</time>
      </trkpt>
      <trkpt lat="43.46888" lon="6.30967">
        <ele>107.3</ele>
        <time>2023-03-03T14:04:13Z</time>
      </trkpt>
      <trkpt lat="43.46887" lon="6.30968">
        <ele>107.3</ele>
        <time>2023-03-03T14:04:14Z</time>
      </trkpt>
      <trkpt lat="43.46887" lon="6.3097">
        <ele>107.2</ele>
        <time>2023-03-03T14:04:15Z</time>
      </trkpt>
      <trkpt lat="43.46887" lon="6.30972">
        <ele>107.1</ele>
        <time>2023-03-03T14:04:16Z</time>
      </trkpt>
      <trkpt lat="43.46886" lon="6.30973">
        <ele>107.1</ele>
        <time>2023-03-03T14:04:17Z</time>
      </trkpt>
      <trkpt lat="43.46886" lon="6.30975">
        <ele>107.1</ele>
        <time>2023-03-03T14:04:18Z</time>
      </trkpt>
      <trkpt lat="43.46885" lon="6.30977">
        <ele>107</ele>
        <time>2023-03-03T14:04:19Z</time>
      </trkpt>
      <trkpt lat="43.46884" lon="6.30978">
        <ele>107</ele>
        <time>2023-03-03T14:04:20Z</time>
      </trkpt>
      <trkpt lat="43.46884" lon="6.3098">
        <ele>106.9</ele>
        <time>2023-03-03T14:04:21Z</time>
      </trkpt>
      <trkpt lat="43.46884" lon="6.30981">
        <ele>106.9</ele>
        <time>2023-03-03T14:04:22Z</time>
      </trkpt>
      <trkpt lat="43.46883" lon="6.30982">
        <ele>106.8</ele>
        <time>2023-03-03T14:04:23Z</time>
      </trkpt>
      <trkpt lat="43.46883" lon="6.30984">
        <ele>106.8</ele>
        <time>2023-03-03T14:04:24Z</time>
      </trkpt>
      <trkpt lat="43.46883" lon="6.30986">
        <ele>106.7</ele>
        <time>2023-03-03T14:04:25Z</time>
      </trkpt>
      <trkpt lat="43.46882" lon="6.30987">
        <ele>106.7</ele>
        <time>2023-03-03T14:04:26Z</time>
      </trkpt>
      <trkpt lat="43.46882" lon="6.30987">
        <ele>106.7</ele>
        <time>2023-03-03T14:04:27Z</time>
      </trkpt>
      <trkpt lat="43.46881" lon="6.30988">
        <ele>106.7</ele>
        <time>2023-03-03T14:04:28Z</time>
      </trkpt>
      <trkpt lat="43.46881" lon="6.3099">
        <ele>106.6</ele>
        <time>2023-03-03T14:04:29Z</time>
      </trkpt>
      <trkpt lat="43.4688" lon="6.30991">
        <ele>106.5</ele>
        <time>2023-03-03T14:04:30Z</time>
      </trkpt>
      <trkpt lat="43.46879" lon="6.30992">
        <ele>106.4</ele>
        <time>2023-03-03T14:04:31Z</time>
      </trkpt>
      <trkpt lat="43.46879" lon="6.30994">
        <ele>106.3</ele>
        <time>2023-03-03T14:04:32Z</time>
      </trkpt>
      <trkpt lat="43.46879" lon="6.30995">
        <ele>106.3</ele>
        <time>2023-03-03T14:04:33Z</time>
      </trkpt>
      <trkpt lat="43.46879" lon="6.30997">
        <ele>106.3</ele>
        <time>2023-03-03T14:04:34Z</time>
      </trkpt>
      <trkpt lat="43.46879" lon="6.30999">
        <ele>106.3</ele>
        <time>2023-03-03T14:04:35Z</time>
      </trkpt>
      <trkpt lat="43.46879" lon="6.31">
        <ele>106.3</ele>
        <time>2023-03-03T14:04:36Z</time>
      </trkpt>
      <trkpt lat="43.46878" lon="6.31002">
        <ele>106.2</ele>
        <time>2023-03-03T14:04:37Z</time>
      </trkpt>
      <trkpt lat="43.46878" lon="6.31003">
        <ele>106.1</ele>
        <time>2023-03-03T14:04:38Z</time>
      </trkpt>
      <trkpt lat="43.46878" lon="6.31004">
        <ele>106.1</ele>
        <time>2023-03-03T14:04:39Z</time>
      </trkpt>
      <trkpt lat="43.46877" lon="6.31005">
        <ele>105.9</ele>
        <time>2023-03-03T14:04:40Z</time>
      </trkpt>
      <trkpt lat="43.46877" lon="6.31006">
        <ele>105.9</ele>
        <time>2023-03-03T14:04:41Z</time>
      </trkpt>
      <trkpt lat="43.46877" lon="6.31007">
        <ele>105.8</ele>
        <time>2023-03-03T14:04:42Z</time>
      </trkpt>
      <trkpt lat="43.46877" lon="6.31009">
        <ele>105.7</ele>
        <time>2023-03-03T14:04:43Z</time>
      </trkpt>
      <trkpt lat="43.46877" lon="6.3101">
        <ele>105.6</ele>
        <time>2023-03-03T14:04:44Z</time>
      </trkpt>
      <trkpt lat="43.46876" lon="6.3101">
        <ele>105.4</ele>
        <time>2023-03-03T14:04:45Z</time>
      </trkpt>
      <trkpt lat="43.46875" lon="6.31011">
        <ele>105.4</ele>
        <time>2023-03-03T14:04:46Z</time>
      </trkpt>
      <trkpt lat="43.46874" lon="6.31011">
        <ele>105.4</ele>
        <time>2023-03-03T14:04:47Z</time>
      </trkpt>
      <trkpt lat="43.46874" lon="6.31012">
        <ele>105.4</ele>
        <time>2023-03-03T14:04:48Z</time>
      </trkpt>
      <trkpt lat="43.46874" lon="6.31013">
        <ele>105.3</ele>
        <time>2023-03-03T14:04:49Z</time>
      </trkpt>
      <trkpt lat="43.46873" lon="6.31013">
        <ele>105.3</ele>
        <time>2023-03-03T14:04:50Z</time>
      </trkpt>
      <trkpt lat="43.46872" lon="6.31013">
        <ele>105.3</ele>
        <time>2023-03-03T14:04:51Z</time>
      </trkpt>
      <trkpt lat="43.46872" lon="6.31014">
        <ele>105.3</ele>
        <time>2023-03-03T14:04:52Z</time>
      </trkpt>
      <trkpt lat="43.46872" lon="6.31015">
        <ele>105.2</ele>
        <time>2023-03-03T14:04:53Z</time>
      </trkpt>
      <trkpt lat="43.46872" lon="6.31015">
        <ele>105.2</ele>
        <time>2023-03-03T14:04:54Z</time>
      </trkpt>
      <trkpt lat="43.46872" lon="6.31015">
        <ele>105.1</ele>
        <time>2023-03-03T14:04:55Z</time>
      </trkpt>
      <trkpt lat="43.46872" lon="6.31016">
        <ele>105.1</ele>
        <time>2023-03-03T14:04:56Z</time>
      </trkpt>
      <trkpt lat="43.46872" lon="6.31017">
        <ele>105.1</ele>
        <time>2023-03-03T14:04:57Z</time>
      </trkpt>
      <trkpt lat="43.46872" lon="6.31017">
        <ele>105</ele>
        <time>2023-03-03T14:04:58Z</time>
      </trkpt>
      <trkpt lat="43.46872" lon="6.31018">
        <ele>104.9</ele>
        <time>2023-03-03T14:04:59Z</time>
      </trkpt>
      <trkpt lat="43.46872" lon="6.31018">
        <ele>104.9</ele>
        <time>2023-03-03T14:05:00Z</time>
      </trkpt>
      <trkpt lat="43.46871" lon="6.31019">
        <ele>104.9</ele>
        <time>2023-03-03T14:05:01Z</time>
      </trkpt>
      <trkpt lat="43.4687" lon="6.31019">
        <ele>104.8</ele>
        <time>2023-03-03T14:05:02Z</time>
      </trkpt>
      <trkpt lat="43.4687" lon="6.31021">
        <ele>104.8</ele>
        <time>2023-03-03T14:05:03Z</time>
      </trkpt>
      <trkpt lat="43.46869" lon="6.31022">
        <ele>104.9</ele>
        <time>2023-03-03T14:05:04Z</time>
      </trkpt>
      <trkpt lat="43.46868" lon="6.31023">
        <ele>104.7</ele>
        <time>2023-03-03T14:05:05Z</time>
      </trkpt>
      <trkpt lat="43.46868" lon="6.31024">
        <ele>104.6</ele>
        <time>2023-03-03T14:05:06Z</time>
      </trkpt>
      <trkpt lat="43.46867" lon="6.31024">
        <ele>104.7</ele>
        <time>2023-03-03T14:05:07Z</time>
      </trkpt>
      <trkpt lat="43.46866" lon="6.31025">
        <ele>104.6</ele>
        <time>2023-03-03T14:05:08Z</time>
      </trkpt>
      <trkpt lat="43.46865" lon="6.31025">
        <ele>104.6</ele>
        <time>2023-03-03T14:05:09Z</time>
      </trkpt>
      <trkpt lat="43.46865" lon="6.31027">
        <ele>104.5</ele>
        <time>2023-03-03T14:05:10Z</time>
      </trkpt>
      <trkpt lat="43.46864" lon="6.31028">
        <ele>104.5</ele>
        <time>2023-03-03T14:05:11Z</time>
      </trkpt>
      <trkpt lat="43.46864" lon="6.31029">
        <ele>104.4</ele>
        <time>2023-03-03T14:05:12Z</time>
      </trkpt>
      <trkpt lat="43.46863" lon="6.3103">
        <ele>104.4</ele>
        <time>2023-03-03T14:05:13Z</time>
      </trkpt>
      <trkpt lat="43.46863" lon="6.3103">
        <ele>104.4</ele>
        <time>2023-03-03T14:05:14Z</time>
      </trkpt>
      <trkpt lat="43.46862" lon="6.31031">
        <ele>104.3</ele>
        <time>2023-03-03T14:05:15Z</time>
      </trkpt>
      <trkpt lat="43.46862" lon="6.31031">
        <ele>104.2</ele>
        <time>2023-03-03T14:05:16Z</time>
      </trkpt>
      <trkpt lat="43.46862" lon="6.31032">
        <ele>104.1</ele>
        <time>2023-03-03T14:05:17Z</time>
      </trkpt>
      <trkpt lat="43.46861" lon="6.31032">
        <ele>104.1</ele>
        <time>2023-03-03T14:05:18Z</time>
      </trkpt>
      <trkpt lat="43.46861" lon="6.31033">
        <ele>104</ele>
        <time>2023-03-03T14:05:19Z</time>
      </trkpt>
      <trkpt lat="43.4686" lon="6.31034">
        <ele>104</ele>
        <time>2023-03-03T14:05:20Z</time>
      </trkpt>
      <trkpt lat="43.4686" lon="6.31035">
        <ele>104</ele>
        <time>2023-03-03T14:05:21Z</time>
      </trkpt>
      <trkpt lat="43.46859" lon="6.31036">
        <ele>104.1</ele>
        <time>2023-03-03T14:05:22Z</time>
      </trkpt>
      <trkpt lat="43.46859" lon="6.31036">
        <ele>104.1</ele>
        <time>2023-03-03T14:05:23Z</time>
      </trkpt>
      <trkpt lat="43.46858" lon="6.31037">
        <ele>104.1</ele>
        <time>2023-03-03T14:05:24Z</time>
      </trkpt>
      <trkpt lat="43.46857" lon="6.31038">
        <ele>104</ele>
        <time>2023-03-03T14:05:25Z</time>
      </trkpt>
      <trkpt lat="43.46857" lon="6.31039">
        <ele>104</ele>
        <time>2023-03-03T14:05:26Z</time>
      </trkpt>
      <trkpt lat="43.46856" lon="6.31041">
        <ele>104</ele>
        <time>2023-03-03T14:05:27Z</time>
      </trkpt>
      <trkpt lat="43.46856" lon="6.31042">
        <ele>104</ele>
        <time>2023-03-03T14:05:28Z</time>
      </trkpt>
      <trkpt lat="43.46855" lon="6.31043">
        <ele>103.9</ele>
        <time>2023-03-03T14:05:29Z</time>
      </trkpt>
      <trkpt lat="43.46855" lon="6.31044">
        <ele>103.9</ele>
        <time>2023-03-03T14:05:30Z</time>
      </trkpt>
      <trkpt lat="43.46854" lon="6.31046">
        <ele>103.8</ele>
        <time>2023-03-03T14:05:31Z</time>
      </trkpt>
      <trkpt lat="43.46854" lon="6.31047">
        <ele>103.8</ele>
        <time>2023-03-03T14:05:32Z</time>
      </trkpt>
      <trkpt lat="43.46853" lon="6.31048">
        <ele>103.7</ele>
        <time>2023-03-03T14:05:33Z</time>
      </trkpt>
      <trkpt lat="43.46852" lon="6.31049">
        <ele>103.7</ele>
        <time>2023-03-03T14:05:34Z</time>
      </trkpt>
      <trkpt lat="43.46852" lon="6.3105">
        <ele>103.7</ele>
        <time>2023-03-03T14:05:35Z</time>
      </trkpt>
      <trkpt lat="43.46851" lon="6.31051">
        <ele>103.6</ele>
        <time>2023-03-03T14:05:36Z</time>
      </trkpt>
      <trkpt lat="43.46851" lon="6.31053">
        <ele>103.7</ele>
        <time>2023-03-03T14:05:37Z</time>
      </trkpt>
      <trkpt lat="43.46851" lon="6.31053">
        <ele>103.7</ele>
        <time>2023-03-03T14:05:38Z</time>
      </trkpt>
      <trkpt lat="43.4685" lon="6.31054">
        <ele>103.8</ele>
        <time>2023-03-03T14:05:39Z</time>
      </trkpt>
      <trkpt lat="43.4685" lon="6.31056">
        <ele>103.7</ele>
        <time>2023-03-03T14:05:40Z</time>
      </trkpt>
      <trkpt lat="43.46849" lon="6.31057">
        <ele>103.7</ele>
        <time>2023-03-03T14:05:41Z</time>
      </trkpt>
      <trkpt lat="43.46849" lon="6.31057">
        <ele>103.7</ele>
        <time>2023-03-03T14:05:42Z</time>
      </trkpt>
      <trkpt lat="43.46848" lon="6.31058">
        <ele>103.7</ele>
        <time>2023-03-03T14:05:43Z</time>
      </trkpt>
      <trkpt lat="43.46847" lon="6.31059">
        <ele>103.7</ele>
        <time>2023-03-03T14:05:44Z</time>
      </trkpt>
      <trkpt lat="43.46847" lon="6.3106">
        <ele>103.7</ele>
        <time>2023-03-03T14:05:45Z</time>
      </trkpt>
      <trkpt lat="43.46846" lon="6.31061">
        <ele>103.7</ele>
        <time>2023-03-03T14:05:46Z</time>
      </trkpt>
      <trkpt lat="43.46846" lon="6.31063">
        <ele>103.8</ele>
        <time>2023-03-03T14:05:47Z</time>
      </trkpt>
      <trkpt lat="43.46845" lon="6.31064">
        <ele>103.8</ele>
        <time>2023-03-03T14:05:48Z</time>
      </trkpt>
      <trkpt lat="43.46844" lon="6.31065">
        <ele>103.8</ele>
        <time>2023-03-03T14:05:49Z</time>
      </trkpt>
      <trkpt lat="43.46844" lon="6.31066">
        <ele>103.8</ele>
        <time>2023-03-03T14:05:50Z</time>
      </trkpt>
      <trkpt lat="43.46843" lon="6.31067">
        <ele>103.8</ele>
        <time>2023-03-03T14:05:51Z</time>
      </trkpt>
      <trkpt lat="43.46842" lon="6.31068">
        <ele>103.9</ele>
        <time>2023-03-03T14:05:52Z</time>
      </trkpt>
      <trkpt lat="43.46842" lon="6.31068">
        <ele>103.9</ele>
        <time>2023-03-03T14:05:53Z</time>
      </trkpt>
      <trkpt lat="43.46841" lon="6.3107">
        <ele>103.9</ele>
        <time>2023-03-03T14:05:54Z</time>
      </trkpt>
      <trkpt lat="43.46841" lon="6.31071">
        <ele>103.9</ele>
        <time>2023-03-03T14:05:55Z</time>
      </trkpt>
      <trkpt lat="43.4684" lon="6.31073">
        <ele>103.9</ele>
        <time>2023-03-03T14:05:56Z</time>
      </trkpt>
      <trkpt lat="43.46839" lon="6.31074">
        <ele>103.9</ele>
        <time>2023-03-03T14:05:57Z</time>
      </trkpt>
      <trkpt lat="43.46839" lon="6.31075">
        <ele>103.9</ele>
        <time>2023-03-03T14:05:58Z</time>
      </trkpt>
      <trkpt lat="43.46838" lon="6.31076">
        <ele>103.9</ele>
        <time>2023-03-03T14:05:59Z</time>
      </trkpt>
      <trkpt lat="43.46838" lon="6.31077">
        <ele>103.9</ele>
        <time>2023-03-03T14:06:00Z</time>
      </trkpt>
      <trkpt lat="43.46837" lon="6.31078">
        <ele>103.9</ele>
        <time>2023-03-03T14:06:01Z</time>
      </trkpt>
      <trkpt lat="43.46836" lon="6.31078">
        <ele>104</ele>
        <time>2023-03-03T14:06:02Z</time>
      </trkpt>
      <trkpt lat="43.46836" lon="6.31079">
        <ele>104</ele>
        <time>2023-03-03T14:06:03Z</time>
      </trkpt>
      <trkpt lat="43.46835" lon="6.3108">
        <ele>104</ele>
        <time>2023-03-03T14:06:04Z</time>
      </trkpt>
      <trkpt lat="43.46835" lon="6.31081">
        <ele>104.1</ele>
        <time>2023-03-03T14:06:05Z</time>
      </trkpt>
      <trkpt lat="43.46835" lon="6.31082">
        <ele>104.1</ele>
        <time>2023-03-03T14:06:06Z</time>
      </trkpt>
      <trkpt lat="43.46834" lon="6.31083">
        <ele>104.1</ele>
        <time>2023-03-03T14:06:07Z</time>
      </trkpt>
      <trkpt lat="43.46833" lon="6.31084">
        <ele>104.1</ele>
        <time>2023-03-03T14:06:08Z</time>
      </trkpt>
      <trkpt lat="43.46832" lon="6.31085">
        <ele>104.1</ele>
        <time>2023-03-03T14:06:09Z</time>
      </trkpt>
      <trkpt lat="43.46831" lon="6.31085">
        <ele>104.1</ele>
        <time>2023-03-03T14:06:10Z</time>
      </trkpt>
      <trkpt lat="43.4683" lon="6.31086">
        <ele>104.2</ele>
        <time>2023-03-03T14:06:11Z</time>
      </trkpt>
      <trkpt lat="43.46829" lon="6.31087">
        <ele>104.1</ele>
        <time>2023-03-03T14:06:12Z</time>
      </trkpt>
      <trkpt lat="43.46828" lon="6.31088">
        <ele>104.1</ele>
        <time>2023-03-03T14:06:13Z</time>
      </trkpt>
      <trkpt lat="43.46828" lon="6.31089">
        <ele>104</ele>
        <time>2023-03-03T14:06:14Z</time>
      </trkpt>
      <trkpt lat="43.46826" lon="6.31091">
        <ele>103.9</ele>
        <time>2023-03-03T14:06:15Z</time>
      </trkpt>
      <trkpt lat="43.46825" lon="6.31091">
        <ele>103.9</ele>
        <time>2023-03-03T14:06:16Z</time>
      </trkpt>
      <trkpt lat="43.46825" lon="6.31091">
        <ele>103.8</ele>
        <time>2023-03-03T14:06:17Z</time>
      </trkpt>
      <trkpt lat="43.46823" lon="6.31092">
        <ele>103.8</ele>
        <time>2023-03-03T14:06:18Z</time>
      </trkpt>
      <trkpt lat="43.46823" lon="6.31092">
        <ele>103.8</ele>
        <time>2023-03-03T14:06:19Z</time>
      </trkpt>
      <trkpt lat="43.46822" lon="6.31093">
        <ele>103.7</ele>
        <time>2023-03-03T14:06:20Z</time>
      </trkpt>
      <trkpt lat="43.46821" lon="6.31093">
        <ele>103.7</ele>
        <time>2023-03-03T14:06:21Z</time>
      </trkpt>
      <trkpt lat="43.4682" lon="6.31093">
        <ele>103.7</ele>
        <time>2023-03-03T14:06:22Z</time>
      </trkpt>
      <trkpt lat="43.46819" lon="6.31094">
        <ele>103.6</ele>
        <time>2023-03-03T14:06:23Z</time>
      </trkpt>
      <trkpt lat="43.46818" lon="6.31094">
        <ele>103.6</ele>
        <time>2023-03-03T14:06:24Z</time>
      </trkpt>
      <trkpt lat="43.46817" lon="6.31095">
        <ele>103.6</ele>
        <time>2023-03-03T14:06:25Z</time>
      </trkpt>
      <trkpt lat="43.46816" lon="6.31096">
        <ele>103.6</ele>
        <time>2023-03-03T14:06:26Z</time>
      </trkpt>
      <trkpt lat="43.46815" lon="6.31096">
        <ele>103.6</ele>
        <time>2023-03-03T14:06:27Z</time>
      </trkpt>
      <trkpt lat="43.46814" lon="6.31098">
        <ele>103.6</ele>
        <time>2023-03-03T14:06:28Z</time>
      </trkpt>
      <trkpt lat="43.46814" lon="6.31099">
        <ele>103.7</ele>
        <time>2023-03-03T14:06:29Z</time>
      </trkpt>
      <trkpt lat="43.46813" lon="6.311">
        <ele>103.6</ele>
        <time>2023-03-03T14:06:30Z</time>
      </trkpt>
      <trkpt lat="43.46812" lon="6.311">
        <ele>103.6</ele>
        <time>2023-03-03T14:06:31Z</time>
      </trkpt>
      <trkpt lat="43.46811" lon="6.31101">
        <ele>103.5</ele>
        <time>2023-03-03T14:06:32Z</time>
      </trkpt>
      <trkpt lat="43.46811" lon="6.31102">
        <ele>103.5</ele>
        <time>2023-03-03T14:06:33Z</time>
      </trkpt>
      <trkpt lat="43.4681" lon="6.31103">
        <ele>103.5</ele>
        <time>2023-03-03T14:06:34Z</time>
      </trkpt>
      <trkpt lat="43.46809" lon="6.31103">
        <ele>103.5</ele>
        <time>2023-03-03T14:06:35Z</time>
      </trkpt>
      <trkpt lat="43.46808" lon="6.31104">
        <ele>103.4</ele>
        <time>2023-03-03T14:06:36Z</time>
      </trkpt>
      <trkpt lat="43.46806" lon="6.31105">
        <ele>103.4</ele>
        <time>2023-03-03T14:06:37Z</time>
      </trkpt>
      <trkpt lat="43.46806" lon="6.31106">
        <ele>103.4</ele>
        <time>2023-03-03T14:06:38Z</time>
      </trkpt>
      <trkpt lat="43.46805" lon="6.31106">
        <ele>103.4</ele>
        <time>2023-03-03T14:06:39Z</time>
      </trkpt>
      <trkpt lat="43.46804" lon="6.31107">
        <ele>103.3</ele>
        <time>2023-03-03T14:06:40Z</time>
      </trkpt>
      <trkpt lat="43.46803" lon="6.31108">
        <ele>103.3</ele>
        <time>2023-03-03T14:06:41Z</time>
      </trkpt>
      <trkpt lat="43.46802" lon="6.31109">
        <ele>103.2</ele>
        <time>2023-03-03T14:06:42Z</time>
      </trkpt>
      <trkpt lat="43.46802" lon="6.3111">
        <ele>103.2</ele>
        <time>2023-03-03T14:06:43Z</time>
      </trkpt>
      <trkpt lat="43.46801" lon="6.3111">
        <ele>103.2</ele>
        <time>2023-03-03T14:06:44Z</time>
      </trkpt>
      <trkpt lat="43.468" lon="6.3111">
        <ele>103.1</ele>
        <time>2023-03-03T14:06:45Z</time>
      </trkpt>
      <trkpt lat="43.46799" lon="6.31111">
        <ele>103.1</ele>
        <time>2023-03-03T14:06:46Z</time>
      </trkpt>
      <trkpt lat="43.46797" lon="6.31111">
        <ele>103.1</ele>
        <time>2023-03-03T14:06:47Z</time>
      </trkpt>
      <trkpt lat="43.46797" lon="6.31111">
        <ele>103.1</ele>
        <time>2023-03-03T14:06:48Z</time>
      </trkpt>
      <trkpt lat="43.46796" lon="6.31112">
        <ele>103</ele>
        <time>2023-03-03T14:06:49Z</time>
      </trkpt>
      <trkpt lat="43.46795" lon="6.31113">
        <ele>102.9</ele>
        <time>2023-03-03T14:06:50Z</time>
      </trkpt>
      <trkpt lat="43.46794" lon="6.31113">
        <ele>102.9</ele>
        <time>2023-03-03T14:06:51Z</time>
      </trkpt>
      <trkpt lat="43.46793" lon="6.31114">
        <ele>103</ele>
        <time>2023-03-03T14:06:52Z</time>
      </trkpt>
      <trkpt lat="43.46792" lon="6.31114">
        <ele>103</ele>
        <time>2023-03-03T14:06:53Z</time>
      </trkpt>
      <trkpt lat="43.46791" lon="6.31114">
        <ele>102.9</ele>
        <time>2023-03-03T14:06:54Z</time>
      </trkpt>
      <trkpt lat="43.46791" lon="6.31115">
        <ele>102.8</ele>
        <time>2023-03-03T14:06:55Z</time>
      </trkpt>
      <trkpt lat="43.4679" lon="6.31115">
        <ele>102.7</ele>
        <time>2023-03-03T14:06:56Z</time>
      </trkpt>
      <trkpt lat="43.46789" lon="6.31115">
        <ele>102.7</ele>
        <time>2023-03-03T14:06:57Z</time>
      </trkpt>
      <trkpt lat="43.46788" lon="6.31115">
        <ele>102.7</ele>
        <time>2023-03-03T14:06:58Z</time>
      </trkpt>
      <trkpt lat="43.46788" lon="6.31116">
        <ele>102.6</ele>
        <time>2023-03-03T14:06:59Z</time>
      </trkpt>
      <trkpt lat="43.46787" lon="6.31116">
        <ele>102.6</ele>
        <time>2023-03-03T14:07:00Z</time>
      </trkpt>
      <trkpt lat="43.46786" lon="6.31116">
        <ele>102.6</ele>
        <time>2023-03-03T14:07:01Z</time>
      </trkpt>
      <trkpt lat="43.46785" lon="6.31117">
        <ele>102.7</ele>
        <time>2023-03-03T14:07:02Z</time>
      </trkpt>
      <trkpt lat="43.46784" lon="6.31117">
        <ele>102.6</ele>
        <time>2023-03-03T14:07:03Z</time>
      </trkpt>
      <trkpt lat="43.46783" lon="6.31117">
        <ele>102.6</ele>
        <time>2023-03-03T14:07:04Z</time>
      </trkpt>
      <trkpt lat="43.46782" lon="6.31117">
        <ele>102.7</ele>
        <time>2023-03-03T14:07:05Z</time>
      </trkpt>
      <trkpt lat="43.46781" lon="6.31117">
        <ele>102.7</ele>
        <time>2023-03-03T14:07:06Z</time>
      </trkpt>
      <trkpt lat="43.4678" lon="6.31118">
        <ele>102.8</ele>
        <time>2023-03-03T14:07:07Z</time>
      </trkpt>
      <trkpt lat="43.46779" lon="6.31118">
        <ele>102.9</ele>
        <time>2023-03-03T14:07:08Z</time>
      </trkpt>
      <trkpt lat="43.46778" lon="6.31119">
        <ele>102.9</ele>
        <time>2023-03-03T14:07:09Z</time>
      </trkpt>
      <trkpt lat="43.46777" lon="6.31119">
        <ele>103</ele>
        <time>2023-03-03T14:07:10Z</time>
      </trkpt>
      <trkpt lat="43.46776" lon="6.3112">
        <ele>103</ele>
        <time>2023-03-03T14:07:11Z</time>
      </trkpt>
      <trkpt lat="43.46775" lon="6.3112">
        <ele>102.9</ele>
        <time>2023-03-03T14:07:12Z</time>
      </trkpt>
      <trkpt lat="43.46774" lon="6.31121">
        <ele>102.9</ele>
        <time>2023-03-03T14:07:13Z</time>
      </trkpt>
      <trkpt lat="43.46773" lon="6.31121">
        <ele>102.9</ele>
        <time>2023-03-03T14:07:14Z</time>
      </trkpt>
      <trkpt lat="43.46773" lon="6.31122">
        <ele>102.9</ele>
        <time>2023-03-03T14:07:15Z</time>
      </trkpt>
      <trkpt lat="43.46772" lon="6.31122">
        <ele>103</ele>
        <time>2023-03-03T14:07:16Z</time>
      </trkpt>
      <trkpt lat="43.46771" lon="6.31123">
        <ele>103</ele>
        <time>2023-03-03T14:07:17Z</time>
      </trkpt>
      <trkpt lat="43.4677" lon="6.31123">
        <ele>103</ele>
        <time>2023-03-03T14:07:18Z</time>
      </trkpt>
      <trkpt lat="43.46769" lon="6.31123">
        <ele>103</ele>
        <time>2023-03-03T14:07:19Z</time>
      </trkpt>
      <trkpt lat="43.46768" lon="6.31124">
        <ele>103</ele>
        <time>2023-03-03T14:07:20Z</time>
      </trkpt>
      <trkpt lat="43.46768" lon="6.31125">
        <ele>103</ele>
        <time>2023-03-03T14:07:21Z</time>
      </trkpt>
      <trkpt lat="43.46767" lon="6.31126">
        <ele>103</ele>
        <time>2023-03-03T14:07:22Z</time>
      </trkpt>
      <trkpt lat="43.46766" lon="6.31127">
        <ele>103</ele>
        <time>2023-03-03T14:07:23Z</time>
      </trkpt>
      <trkpt lat="43.46766" lon="6.31127">
        <ele>103.1</ele>
        <time>2023-03-03T14:07:24Z</time>
      </trkpt>
      <trkpt lat="43.46765" lon="6.31128">
        <ele>103</ele>
        <time>2023-03-03T14:07:25Z</time>
      </trkpt>
      <trkpt lat="43.46764" lon="6.31129">
        <ele>103</ele>
        <time>2023-03-03T14:07:26Z</time>
      </trkpt>
      <trkpt lat="43.46763" lon="6.31129">
        <ele>102.9</ele>
        <time>2023-03-03T14:07:27Z</time>
      </trkpt>
      <trkpt lat="43.46762" lon="6.3113">
        <ele>102.9</ele>
        <time>2023-03-03T14:07:28Z</time>
      </trkpt>
      <trkpt lat="43.46762" lon="6.31132">
        <ele>102.9</ele>
        <time>2023-03-03T14:07:29Z</time>
      </trkpt>
      <trkpt lat="43.46761" lon="6.31134">
        <ele>103</ele>
        <time>2023-03-03T14:07:30Z</time>
      </trkpt>
      <trkpt lat="43.46761" lon="6.31136">
        <ele>103.1</ele>
        <time>2023-03-03T14:07:31Z</time>
      </trkpt>
      <trkpt lat="43.4676" lon="6.31137">
        <ele>103.1</ele>
        <time>2023-03-03T14:07:32Z</time>
      </trkpt>
      <trkpt lat="43.4676" lon="6.31139">
        <ele>103.1</ele>
        <time>2023-03-03T14:07:33Z</time>
      </trkpt>
      <trkpt lat="43.46759" lon="6.3114">
        <ele>103.2</ele>
        <time>2023-03-03T14:07:34Z</time>
      </trkpt>
      <trkpt lat="43.46759" lon="6.31142">
        <ele>103.2</ele>
        <time>2023-03-03T14:07:35Z</time>
      </trkpt>
      <trkpt lat="43.46758" lon="6.31144">
        <ele>103.2</ele>
        <time>2023-03-03T14:07:36Z</time>
      </trkpt>
      <trkpt lat="43.46758" lon="6.31146">
        <ele>103.2</ele>
        <time>2023-03-03T14:07:37Z</time>
      </trkpt>
      <trkpt lat="43.46757" lon="6.31147">
        <ele>103.2</ele>
        <time>2023-03-03T14:07:38Z</time>
      </trkpt>
      <trkpt lat="43.46756" lon="6.31148">
        <ele>103.2</ele>
        <time>2023-03-03T14:07:39Z</time>
      </trkpt>
      <trkpt lat="43.46755" lon="6.3115">
        <ele>103.1</ele>
        <time>2023-03-03T14:07:40Z</time>
      </trkpt>
      <trkpt lat="43.46755" lon="6.31151">
        <ele>103.1</ele>
        <time>2023-03-03T14:07:41Z</time>
      </trkpt>
      <trkpt lat="43.46755" lon="6.31153">
        <ele>103</ele>
        <time>2023-03-03T14:07:42Z</time>
      </trkpt>
      <trkpt lat="43.46754" lon="6.31155">
        <ele>102.9</ele>
        <time>2023-03-03T14:07:43Z</time>
      </trkpt>
      <trkpt lat="43.46754" lon="6.31156">
        <ele>103</ele>
        <time>2023-03-03T14:07:44Z</time>
      </trkpt>
      <trkpt lat="43.46753" lon="6.31158">
        <ele>103</ele>
        <time>2023-03-03T14:07:45Z</time>
      </trkpt>
      <trkpt lat="43.46753" lon="6.3116">
        <ele>103</ele>
        <time>2023-03-03T14:07:46Z</time>
      </trkpt>
      <trkpt lat="43.46753" lon="6.31161">
        <ele>103</ele>
        <time>2023-03-03T14:07:47Z</time>
      </trkpt>
      <trkpt lat="43.46753" lon="6.31162">
        <ele>102.9</ele>
        <time>2023-03-03T14:07:48Z</time>
      </trkpt>
      <trkpt lat="43.46752" lon="6.31163">
        <ele>103</ele>
        <time>2023-03-03T14:07:49Z</time>
      </trkpt>
      <trkpt lat="43.46751" lon="6.31165">
        <ele>103</ele>
        <time>2023-03-03T14:07:50Z</time>
      </trkpt>
      <trkpt lat="43.46751" lon="6.31166">
        <ele>103.1</ele>
        <time>2023-03-03T14:07:51Z</time>
      </trkpt>
      <trkpt lat="43.46751" lon="6.31168">
        <ele>103.2</ele>
        <time>2023-03-03T14:07:52Z</time>
      </trkpt>
      <trkpt lat="43.4675" lon="6.31169">
        <ele>103.3</ele>
        <time>2023-03-03T14:07:53Z</time>
      </trkpt>
      <trkpt lat="43.4675" lon="6.31171">
        <ele>103.4</ele>
        <time>2023-03-03T14:07:54Z</time>
      </trkpt>
      <trkpt lat="43.46749" lon="6.31172">
        <ele>103.5</ele>
        <time>2023-03-03T14:07:55Z</time>
      </trkpt>
      <trkpt lat="43.46749" lon="6.31174">
        <ele>103.5</ele>
        <time>2023-03-03T14:07:56Z</time>
      </trkpt>
      <trkpt lat="43.46748" lon="6.31175">
        <ele>103.4</ele>
        <time>2023-03-03T14:07:57Z</time>
      </trkpt>
      <trkpt lat="43.46748" lon="6.31176">
        <ele>103.5</ele>
        <time>2023-03-03T14:07:58Z</time>
      </trkpt>
      <trkpt lat="43.46747" lon="6.31177">
        <ele>103.5</ele>
        <time>2023-03-03T14:07:59Z</time>
      </trkpt>
      <trkpt lat="43.46746" lon="6.31179">
        <ele>103.6</ele>
        <time>2023-03-03T14:08:00Z</time>
      </trkpt>
      <trkpt lat="43.46746" lon="6.3118">
        <ele>103.6</ele>
        <time>2023-03-03T14:08:01Z</time>
      </trkpt>
      <trkpt lat="43.46745" lon="6.3118">
        <ele>103.6</ele>
        <time>2023-03-03T14:08:02Z</time>
      </trkpt>
      <trkpt lat="43.46744" lon="6.31181">
        <ele>103.6</ele>
        <time>2023-03-03T14:08:03Z</time>
      </trkpt>
      <trkpt lat="43.46744" lon="6.31182">
        <ele>103.7</ele>
        <time>2023-03-03T14:08:04Z</time>
      </trkpt>
      <trkpt lat="43.46743" lon="6.31183">
        <ele>103.7</ele>
        <time>2023-03-03T14:08:05Z</time>
      </trkpt>
      <trkpt lat="43.46742" lon="6.31184">
        <ele>103.7</ele>
        <time>2023-03-03T14:08:06Z</time>
      </trkpt>
      <trkpt lat="43.46742" lon="6.31185">
        <ele>103.7</ele>
        <time>2023-03-03T14:08:07Z</time>
      </trkpt>
      <trkpt lat="43.46741" lon="6.31185">
        <ele>103.7</ele>
        <time>2023-03-03T14:08:08Z</time>
      </trkpt>
      <trkpt lat="43.4674" lon="6.31186">
        <ele>103.7</ele>
        <time>2023-03-03T14:08:09Z</time>
      </trkpt>
      <trkpt lat="43.46741" lon="6.31187">
        <ele>103.6</ele>
        <time>2023-03-03T14:08:10Z</time>
      </trkpt>
      <trkpt lat="43.46741" lon="6.31188">
        <ele>103.6</ele>
        <time>2023-03-03T14:08:11Z</time>
      </trkpt>
      <trkpt lat="43.46741" lon="6.31188">
        <ele>103.6</ele>
        <time>2023-03-03T14:08:12Z</time>
      </trkpt>
      <trkpt lat="43.4674" lon="6.31189">
        <ele>103.7</ele>
        <time>2023-03-03T14:08:13Z</time>
      </trkpt>
      <trkpt lat="43.4674" lon="6.31189">
        <ele>103.6</ele>
        <time>2023-03-03T14:08:14Z</time>
      </trkpt>
      <trkpt lat="43.4674" lon="6.3119">
        <ele>103.5</ele>
        <time>2023-03-03T14:08:15Z</time>
      </trkpt>
      <trkpt lat="43.46739" lon="6.31191">
        <ele>103.5</ele>
        <time>2023-03-03T14:08:16Z</time>
      </trkpt>
      <trkpt lat="43.46739" lon="6.31191">
        <ele>103.6</ele>
        <time>2023-03-03T14:08:17Z</time>
      </trkpt>
      <trkpt lat="43.46738" lon="6.31193">
        <ele>103.6</ele>
        <time>2023-03-03T14:08:18Z</time>
      </trkpt>
      <trkpt lat="43.46738" lon="6.31194">
        <ele>103.5</ele>
        <time>2023-03-03T14:08:19Z</time>
      </trkpt>
      <trkpt lat="43.46738" lon="6.31195">
        <ele>103.5</ele>
        <time>2023-03-03T14:08:20Z</time>
      </trkpt>
      <trkpt lat="43.46737" lon="6.31196">
        <ele>103.5</ele>
        <time>2023-03-03T14:08:21Z</time>
      </trkpt>
      <trkpt lat="43.46736" lon="6.31196">
        <ele>103.5</ele>
        <time>2023-03-03T14:08:22Z</time>
      </trkpt>
      <trkpt lat="43.46736" lon="6.31197">
        <ele>103.6</ele>
        <time>2023-03-03T14:08:23Z</time>
      </trkpt>
      <trkpt lat="43.46735" lon="6.31198">
        <ele>103.7</ele>
        <time>2023-03-03T14:08:24Z</time>
      </trkpt>
      <trkpt lat="43.46735" lon="6.31199">
        <ele>103.7</ele>
        <time>2023-03-03T14:08:25Z</time>
      </trkpt>
      <trkpt lat="43.46735" lon="6.312">
        <ele>103.6</ele>
        <time>2023-03-03T14:08:26Z</time>
      </trkpt>
      <trkpt lat="43.46734" lon="6.31202">
        <ele>103.7</ele>
        <time>2023-03-03T14:08:27Z</time>
      </trkpt>
      <trkpt lat="43.46734" lon="6.31203">
        <ele>103.7</ele>
        <time>2023-03-03T14:08:28Z</time>
      </trkpt>
      <trkpt lat="43.46733" lon="6.31204">
        <ele>103.8</ele>
        <time>2023-03-03T14:08:29Z</time>
      </trkpt>
      <trkpt lat="43.46733" lon="6.31205">
        <ele>103.7</ele>
        <time>2023-03-03T14:08:30Z</time>
      </trkpt>
      <trkpt lat="43.46732" lon="6.31206">
        <ele>103.7</ele>
        <time>2023-03-03T14:08:31Z</time>
      </trkpt>
      <trkpt lat="43.46731" lon="6.31208">
        <ele>103.8</ele>
        <time>2023-03-03T14:08:32Z</time>
      </trkpt>
      <trkpt lat="43.46731" lon="6.31209">
        <ele>103.8</ele>
        <time>2023-03-03T14:08:33Z</time>
      </trkpt>
      <trkpt lat="43.4673" lon="6.3121">
        <ele>103.8</ele>
        <time>2023-03-03T14:08:34Z</time>
      </trkpt>
      <trkpt lat="43.4673" lon="6.31211">
        <ele>103.9</ele>
        <time>2023-03-03T14:08:35Z</time>
      </trkpt>
      <trkpt lat="43.46729" lon="6.31212">
        <ele>104</ele>
        <time>2023-03-03T14:08:36Z</time>
      </trkpt>
      <trkpt lat="43.46729" lon="6.31212">
        <ele>104</ele>
        <time>2023-03-03T14:08:37Z</time>
      </trkpt>
      <trkpt lat="43.46728" lon="6.31213">
        <ele>104.1</ele>
        <time>2023-03-03T14:08:38Z</time>
      </trkpt>
      <trkpt lat="43.46728" lon="6.31214">
        <ele>104.1</ele>
        <time>2023-03-03T14:08:39Z</time>
      </trkpt>
      <trkpt lat="43.46727" lon="6.31215">
        <ele>104.2</ele>
        <time>2023-03-03T14:08:40Z</time>
      </trkpt>
      <trkpt lat="43.46726" lon="6.31217">
        <ele>104.3</ele>
        <time>2023-03-03T14:08:41Z</time>
      </trkpt>
      <trkpt lat="43.46726" lon="6.31218">
        <ele>104.3</ele>
        <time>2023-03-03T14:08:42Z</time>
      </trkpt>
      <trkpt lat="43.46725" lon="6.31219">
        <ele>104.4</ele>
        <time>2023-03-03T14:08:43Z</time>
      </trkpt>
      <trkpt lat="43.46724" lon="6.31221">
        <ele>104.5</ele>
        <time>2023-03-03T14:08:44Z</time>
      </trkpt>
      <trkpt lat="43.46724" lon="6.31222">
        <ele>104.6</ele>
        <time>2023-03-03T14:08:45Z</time>
      </trkpt>
      <trkpt lat="43.46724" lon="6.31223">
        <ele>104.7</ele>
        <time>2023-03-03T14:08:46Z</time>
      </trkpt>
      <trkpt lat="43.46723" lon="6.31225">
        <ele>104.8</ele>
        <time>2023-03-03T14:08:47Z</time>
      </trkpt>
      <trkpt lat="43.46722" lon="6.31226">
        <ele>104.9</ele>
        <time>2023-03-03T14:08:48Z</time>
      </trkpt>
      <trkpt lat="43.46722" lon="6.31227">
        <ele>104.9</ele>
        <time>2023-03-03T14:08:49Z</time>
      </trkpt>
      <trkpt lat="43.46721" lon="6.31228">
        <ele>105</ele>
        <time>2023-03-03T14:08:50Z</time>
      </trkpt>
      <trkpt lat="43.4672" lon="6.3123">
        <ele>105.1</ele>
        <time>2023-03-03T14:08:51Z</time>
      </trkpt>
      <trkpt lat="43.46719" lon="6.31231">
        <ele>105.1</ele>
        <time>2023-03-03T14:08:52Z</time>
      </trkpt>
      <trkpt lat="43.46719" lon="6.31232">
        <ele>105.3</ele>
        <time>2023-03-03T14:08:53Z</time>
      </trkpt>
      <trkpt lat="43.46718" lon="6.31233">
        <ele>105.3</ele>
        <time>2023-03-03T14:08:54Z</time>
      </trkpt>
      <trkpt lat="43.46718" lon="6.31234">
        <ele>105.3</ele>
        <time>2023-03-03T14:08:55Z</time>
      </trkpt>
      <trkpt lat="43.46717" lon="6.31236">
        <ele>105.3</ele>
        <time>2023-03-03T14:08:56Z</time>
      </trkpt>
      <trkpt lat="43.46716" lon="6.31237">
        <ele>105.3</ele>
        <time>2023-03-03T14:08:57Z</time>
      </trkpt>
      <trkpt lat="43.46715" lon="6.31237">
        <ele>105.4</ele>
        <time>2023-03-03T14:08:58Z</time>
      </trkpt>
      <trkpt lat="43.46715" lon="6.31238">
        <ele>105.5</ele>
        <time>2023-03-03T14:08:59Z</time>
      </trkpt>
      <trkpt lat="43.46714" lon="6.3124">
        <ele>105.6</ele>
        <time>2023-03-03T14:09:00Z</time>
      </trkpt>
      <trkpt lat="43.46713" lon="6.3124">
        <ele>105.6</ele>
        <time>2023-03-03T14:09:01Z</time>
      </trkpt>
      <trkpt lat="43.46712" lon="6.31242">
        <ele>105.7</ele>
        <time>2023-03-03T14:09:02Z</time>
      </trkpt>
      <trkpt lat="43.46711" lon="6.31243">
        <ele>105.7</ele>
        <time>2023-03-03T14:09:03Z</time>
      </trkpt>
      <trkpt lat="43.46711" lon="6.31243">
        <ele>105.8</ele>
        <time>2023-03-03T14:09:04Z</time>
      </trkpt>
      <trkpt lat="43.4671" lon="6.31245">
        <ele>105.9</ele>
        <time>2023-03-03T14:09:05Z</time>
      </trkpt>
      <trkpt lat="43.4671" lon="6.31246">
        <ele>105.9</ele>
        <time>2023-03-03T14:09:06Z</time>
      </trkpt>
      <trkpt lat="43.46709" lon="6.31247">
        <ele>106</ele>
        <time>2023-03-03T14:09:07Z</time>
      </trkpt>
      <trkpt lat="43.46709" lon="6.31249">
        <ele>106</ele>
        <time>2023-03-03T14:09:08Z</time>
      </trkpt>
      <trkpt lat="43.46708" lon="6.31251">
        <ele>106</ele>
        <time>2023-03-03T14:09:09Z</time>
      </trkpt>
      <trkpt lat="43.46708" lon="6.31252">
        <ele>106.1</ele>
        <time>2023-03-03T14:09:10Z</time>
      </trkpt>
      <trkpt lat="43.46707" lon="6.31253">
        <ele>106.1</ele>
        <time>2023-03-03T14:09:11Z</time>
      </trkpt>
      <trkpt lat="43.46707" lon="6.31255">
        <ele>106.1</ele>
        <time>2023-03-03T14:09:12Z</time>
      </trkpt>
      <trkpt lat="43.46706" lon="6.31257">
        <ele>106.2</ele>
        <time>2023-03-03T14:09:13Z</time>
      </trkpt>
      <trkpt lat="43.46705" lon="6.31258">
        <ele>106.2</ele>
        <time>2023-03-03T14:09:14Z</time>
      </trkpt>
      <trkpt lat="43.46705" lon="6.31259">
        <ele>106.3</ele>
        <time>2023-03-03T14:09:15Z</time>
      </trkpt>
      <trkpt lat="43.46704" lon="6.3126">
        <ele>106.4</ele>
        <time>2023-03-03T14:09:16Z</time>
      </trkpt>
      <trkpt lat="43.46704" lon="6.31261">
        <ele>106.4</ele>
        <time>2023-03-03T14:09:17Z</time>
      </trkpt>
      <trkpt lat="43.46703" lon="6.31262">
        <ele>106.5</ele>
        <time>2023-03-03T14:09:18Z</time>
      </trkpt>
      <trkpt lat="43.46703" lon="6.31264">
        <ele>106.5</ele>
        <time>2023-03-03T14:09:19Z</time>
      </trkpt>
      <trkpt lat="43.46703" lon="6.31266">
        <ele>106.6</ele>
        <time>2023-03-03T14:09:20Z</time>
      </trkpt>
      <trkpt lat="43.46703" lon="6.31267">
        <ele>106.7</ele>
        <time>2023-03-03T14:09:21Z</time>
      </trkpt>
      <trkpt lat="43.46703" lon="6.31269">
        <ele>106.8</ele>
        <time>2023-03-03T14:09:22Z</time>
      </trkpt>
      <trkpt lat="43.46703" lon="6.31271">
        <ele>106.9</ele>
        <time>2023-03-03T14:09:23Z</time>
      </trkpt>
      <trkpt lat="43.46703" lon="6.31272">
        <ele>107</ele>
        <time>2023-03-03T14:09:24Z</time>
      </trkpt>
      <trkpt lat="43.46704" lon="6.31274">
        <ele>107.1</ele>
        <time>2023-03-03T14:09:25Z</time>
      </trkpt>
      <trkpt lat="43.46705" lon="6.31276">
        <ele>107.1</ele>
        <time>2023-03-03T14:09:26Z</time>
      </trkpt>
      <trkpt lat="43.46706" lon="6.31277">
        <ele>107.2</ele>
        <time>2023-03-03T14:09:27Z</time>
      </trkpt>
      <trkpt lat="43.46707" lon="6.31279">
        <ele>107.3</ele>
        <time>2023-03-03T14:09:28Z</time>
      </trkpt>
      <trkpt lat="43.46708" lon="6.3128">
        <ele>107.2</ele>
        <time>2023-03-03T14:09:29Z</time>
      </trkpt>
      <trkpt lat="43.46709" lon="6.31281">
        <ele>107.2</ele>
        <time>2023-03-03T14:09:30Z</time>
      </trkpt>
      <trkpt lat="43.4671" lon="6.31282">
        <ele>107.2</ele>
        <time>2023-03-03T14:09:31Z</time>
      </trkpt>
      <trkpt lat="43.46711" lon="6.31283">
        <ele>107.3</ele>
        <time>2023-03-03T14:09:32Z</time>
      </trkpt>
      <trkpt lat="43.46712" lon="6.31284">
        <ele>107.4</ele>
        <time>2023-03-03T14:09:33Z</time>
      </trkpt>
      <trkpt lat="43.46712" lon="6.31285">
        <ele>107.5</ele>
        <time>2023-03-03T14:09:34Z</time>
      </trkpt>
      <trkpt lat="43.46713" lon="6.31285">
        <ele>107.4</ele>
        <time>2023-03-03T14:09:35Z</time>
      </trkpt>
      <trkpt lat="43.46714" lon="6.31286">
        <ele>107.4</ele>
        <time>2023-03-03T14:09:36Z</time>
      </trkpt>
      <trkpt lat="43.46714" lon="6.31286">
        <ele>107.4</ele>
        <time>2023-03-03T14:09:37Z</time>
      </trkpt>
      <trkpt lat="43.46715" lon="6.31287">
        <ele>107.3</ele>
        <time>2023-03-03T14:09:38Z</time>
      </trkpt>
      <trkpt lat="43.46716" lon="6.31288">
        <ele>107.5</ele>
        <time>2023-03-03T14:09:39Z</time>
      </trkpt>
      <trkpt lat="43.46716" lon="6.31288">
        <ele>107.5</ele>
        <time>2023-03-03T14:09:40Z</time>
      </trkpt>
      <trkpt lat="43.46717" lon="6.31288">
        <ele>107.5</ele>
        <time>2023-03-03T14:09:41Z</time>
      </trkpt>
      <trkpt lat="43.46717" lon="6.31288">
        <ele>107.6</ele>
        <time>2023-03-03T14:09:42Z</time>
      </trkpt>
      <trkpt lat="43.46717" lon="6.31288">
        <ele>107.6</ele>
        <time>2023-03-03T14:09:43Z</time>
      </trkpt>
      <trkpt lat="43.46717" lon="6.31288">
        <ele>107.6</ele>
        <time>2023-03-03T14:09:44Z</time>
      </trkpt>
      <trkpt lat="43.46717" lon="6.31289">
        <ele>107.6</ele>
        <time>2023-03-03T14:09:45Z</time>
      </trkpt>
      <trkpt lat="43.46717" lon="6.31289">
        <ele>107.5</ele>
        <time>2023-03-03T14:09:46Z</time>
      </trkpt>
      <trkpt lat="43.46717" lon="6.31289">
        <ele>107.5</ele>
        <time>2023-03-03T14:09:47Z</time>
      </trkpt>
      <trkpt lat="43.46717" lon="6.31289">
        <ele>107.5</ele>
        <time>2023-03-03T14:09:48Z</time>
      </trkpt>
      <trkpt lat="43.46717" lon="6.31289">
        <ele>107.5</ele>
        <time>2023-03-03T14:09:49Z</time>
      </trkpt>
      <trkpt lat="43.46717" lon="6.31289">
        <ele>107.4</ele>
        <time>2023-03-03T14:09:50Z</time>
      </trkpt>
      <trkpt lat="43.46718" lon="6.3129">
        <ele>107.4</ele>
        <time>2023-03-03T14:09:51Z</time>
      </trkpt>
      <trkpt lat="43.46718" lon="6.3129">
        <ele>107.4</ele>
        <time>2023-03-03T14:09:52Z</time>
      </trkpt>
      <trkpt lat="43.46718" lon="6.3129">
        <ele>107.4</ele>
        <time>2023-03-03T14:09:53Z</time>
      </trkpt>
      <trkpt lat="43.46718" lon="6.3129">
        <ele>107.4</ele>
        <time>2023-03-03T14:09:54Z</time>
      </trkpt>
      <trkpt lat="43.46718" lon="6.3129">
        <ele>107.4</ele>
        <time>2023-03-03T14:09:55Z</time>
      </trkpt>
      <trkpt lat="43.46718" lon="6.31291">
        <ele>107.4</ele>
        <time>2023-03-03T14:09:56Z</time>
      </trkpt>
      <trkpt lat="43.46718" lon="6.31291">
        <ele>107.4</ele>
        <time>2023-03-03T14:09:57Z</time>
      </trkpt>
      <trkpt lat="43.46719" lon="6.31292">
        <ele>107.5</ele>
        <time>2023-03-03T14:09:58Z</time>
      </trkpt>
      <trkpt lat="43.4672" lon="6.31292">
        <ele>107.5</ele>
        <time>2023-03-03T14:09:59Z</time>
      </trkpt>
      <trkpt lat="43.4672" lon="6.31293">
        <ele>107.4</ele>
        <time>2023-03-03T14:10:00Z</time>
      </trkpt>
      <trkpt lat="43.46721" lon="6.31294">
        <ele>107.4</ele>
        <time>2023-03-03T14:10:01Z</time>
      </trkpt>
      <trkpt lat="43.46721" lon="6.31294">
        <ele>107.4</ele>
        <time>2023-03-03T14:10:02Z</time>
      </trkpt>
      <trkpt lat="43.46722" lon="6.31294">
        <ele>107.4</ele>
        <time>2023-03-03T14:10:03Z</time>
      </trkpt>
      <trkpt lat="43.46723" lon="6.31295">
        <ele>107.4</ele>
        <time>2023-03-03T14:10:04Z</time>
      </trkpt>
      <trkpt lat="43.46723" lon="6.31295">
        <ele>107.4</ele>
        <time>2023-03-03T14:10:05Z</time>
      </trkpt>
      <trkpt lat="43.46724" lon="6.31296">
        <ele>107.3</ele>
        <time>2023-03-03T14:10:06Z</time>
      </trkpt>
      <trkpt lat="43.46724" lon="6.31296">
        <ele>107.5</ele>
        <time>2023-03-03T14:10:07Z</time>
      </trkpt>
      <trkpt lat="43.46724" lon="6.31296">
        <ele>107.5</ele>
        <time>2023-03-03T14:10:08Z</time>
      </trkpt>
      <trkpt lat="43.46724" lon="6.31296">
        <ele>107.5</ele>
        <time>2023-03-03T14:10:09Z</time>
      </trkpt>
      <trkpt lat="43.46724" lon="6.31296">
        <ele>107.5</ele>
        <time>2023-03-03T14:10:10Z</time>
      </trkpt>
      <trkpt lat="43.46724" lon="6.31297">
        <ele>107.6</ele>
        <time>2023-03-03T14:10:11Z</time>
      </trkpt>
      <trkpt lat="43.46724" lon="6.31298">
        <ele>107.6</ele>
        <time>2023-03-03T14:10:12Z</time>
      </trkpt>
      <trkpt lat="43.46724" lon="6.31298">
        <ele>107.6</ele>
        <time>2023-03-03T14:10:13Z</time>
      </trkpt>
      <trkpt lat="43.46724" lon="6.31298">
        <ele>107.6</ele>
        <time>2023-03-03T14:10:14Z</time>
      </trkpt>
      <trkpt lat="43.46724" lon="6.31298">
        <ele>107.7</ele>
        <time>2023-03-03T14:10:15Z</time>
      </trkpt>
      <trkpt lat="43.46724" lon="6.31298">
        <ele>107.7</ele>
        <time>2023-03-03T14:10:16Z</time>
      </trkpt>
      <trkpt lat="43.46724" lon="6.31298">
        <ele>107.7</ele>
        <time>2023-03-03T14:10:17Z</time>
      </trkpt>
      <trkpt lat="43.46725" lon="6.31298">
        <ele>107.7</ele>
        <time>2023-03-03T14:10:18Z</time>
      </trkpt>
      <trkpt lat="43.46725" lon="6.31298">
        <ele>107.8</ele>
        <time>2023-03-03T14:10:19Z</time>
      </trkpt>
      <trkpt lat="43.46725" lon="6.31298">
        <ele>107.8</ele>
        <time>2023-03-03T14:10:20Z</time>
      </trkpt>
      <trkpt lat="43.46725" lon="6.31298">
        <ele>107.8</ele>
        <time>2023-03-03T14:10:21Z</time>
      </trkpt>
      <trkpt lat="43.46725" lon="6.31299">
        <ele>107.9</ele>
        <time>2023-03-03T14:10:22Z</time>
      </trkpt>
      <trkpt lat="43.46725" lon="6.31299">
        <ele>108</ele>
        <time>2023-03-03T14:10:23Z</time>
      </trkpt>
      <trkpt lat="43.46725" lon="6.31299">
        <ele>107.9</ele>
        <time>2023-03-03T14:10:24Z</time>
      </trkpt>
      <trkpt lat="43.46725" lon="6.31299">
        <ele>107.9</ele>
        <time>2023-03-03T14:10:25Z</time>
      </trkpt>
      <trkpt lat="43.46725" lon="6.31299">
        <ele>107.9</ele>
        <time>2023-03-03T14:10:26Z</time>
      </trkpt>
      <trkpt lat="43.46725" lon="6.31299">
        <ele>107.9</ele>
        <time>2023-03-03T14:10:27Z</time>
      </trkpt>
      <trkpt lat="43.46725" lon="6.31299">
        <ele>107.9</ele>
        <time>2023-03-03T14:10:28Z</time>
      </trkpt>
      <trkpt lat="43.46725" lon="6.31299">
        <ele>107.9</ele>
        <time>2023-03-03T14:10:29Z</time>
      </trkpt>
      <trkpt lat="43.46725" lon="6.31299">
        <ele>107.9</ele>
        <time>2023-03-03T14:10:30Z</time>
      </trkpt>
      <trkpt lat="43.46725" lon="6.31299">
        <ele>107.9</ele>
        <time>2023-03-03T14:10:31Z</time>
      </trkpt>
      <trkpt lat="43.46725" lon="6.31299">
        <ele>107.9</ele>
        <time>2023-03-03T14:10:32Z</time>
      </trkpt>
      <trkpt lat="43.46725" lon="6.31299">
        <ele>107.9</ele>
        <time>2023-03-03T14:10:33Z</time>
      </trkpt>
      <trkpt lat="43.46724" lon="6.31299">
        <ele>107.9</ele>
        <time>2023-03-03T14:10:34Z</time>
      </trkpt>
      <trkpt lat="43.46724" lon="6.31299">
        <ele>107.9</ele>
        <time>2023-03-03T14:10:35Z</time>
      </trkpt>
      <trkpt lat="43.46724" lon="6.31299">
        <ele>107.9</ele>
        <time>2023-03-03T14:10:36Z</time>
      </trkpt>
      <trkpt lat="43.46724" lon="6.31299">
        <ele>107.9</ele>
        <time>2023-03-03T14:10:37Z</time>
      </trkpt>
      <trkpt lat="43.46724" lon="6.31299">
        <ele>107.9</ele>
        <time>2023-03-03T14:10:38Z</time>
      </trkpt>
      <trkpt lat="43.46724" lon="6.31299">
        <ele>107.9</ele>
        <time>2023-03-03T14:10:39Z</time>
      </trkpt>
      <trkpt lat="43.46724" lon="6.31299">
        <ele>107.8</ele>
        <time>2023-03-03T14:10:40Z</time>
      </trkpt>
      <trkpt lat="43.46723" lon="6.31298">
        <ele>107.8</ele>
        <time>2023-03-03T14:10:41Z</time>
      </trkpt>
      <trkpt lat="43.46723" lon="6.31298">
        <ele>107.8</ele>
        <time>2023-03-03T14:10:42Z</time>
      </trkpt>
      <trkpt lat="43.46722" lon="6.31298">
        <ele>107.8</ele>
        <time>2023-03-03T14:10:43Z</time>
      </trkpt>
      <trkpt lat="43.46722" lon="6.31297">
        <ele>107.7</ele>
        <time>2023-03-03T14:10:44Z</time>
      </trkpt>
      <trkpt lat="43.46721" lon="6.31297">
        <ele>107.6</ele>
        <time>2023-03-03T14:10:45Z</time>
      </trkpt>
      <trkpt lat="43.4672" lon="6.31296">
        <ele>107.5</ele>
        <time>2023-03-03T14:10:46Z</time>
      </trkpt>
      <trkpt lat="43.4672" lon="6.31296">
        <ele>107.5</ele>
        <time>2023-03-03T14:10:47Z</time>
      </trkpt>
      <trkpt lat="43.4672" lon="6.31295">
        <ele>107.5</ele>
        <time>2023-03-03T14:10:48Z</time>
      </trkpt>
      <trkpt lat="43.46719" lon="6.31295">
        <ele>107.5</ele>
        <time>2023-03-03T14:10:49Z</time>
      </trkpt>
      <trkpt lat="43.46718" lon="6.31295">
        <ele>107.6</ele>
        <time>2023-03-03T14:10:50Z</time>
      </trkpt>
      <trkpt lat="43.46717" lon="6.31294">
        <ele>107.6</ele>
        <time>2023-03-03T14:10:51Z</time>
      </trkpt>
      <trkpt lat="43.46717" lon="6.31293">
        <ele>107.6</ele>
        <time>2023-03-03T14:10:52Z</time>
      </trkpt>
      <trkpt lat="43.46716" lon="6.31293">
        <ele>107.6</ele>
        <time>2023-03-03T14:10:53Z</time>
      </trkpt>
      <trkpt lat="43.46715" lon="6.31292">
        <ele>107.6</ele>
        <time>2023-03-03T14:10:54Z</time>
      </trkpt>
      <trkpt lat="43.46714" lon="6.31292">
        <ele>107.5</ele>
        <time>2023-03-03T14:10:55Z</time>
      </trkpt>
      <trkpt lat="43.46713" lon="6.31292">
        <ele>107.6</ele>
        <time>2023-03-03T14:10:56Z</time>
      </trkpt>
      <trkpt lat="43.46712" lon="6.31292">
        <ele>107.7</ele>
        <time>2023-03-03T14:10:57Z</time>
      </trkpt>
      <trkpt lat="43.46711" lon="6.31292">
        <ele>107.6</ele>
        <time>2023-03-03T14:10:58Z</time>
      </trkpt>
      <trkpt lat="43.4671" lon="6.31292">
        <ele>107.6</ele>
        <time>2023-03-03T14:10:59Z</time>
      </trkpt>
      <trkpt lat="43.46708" lon="6.31291">
        <ele>107.6</ele>
        <time>2023-03-03T14:11:00Z</time>
      </trkpt>
      <trkpt lat="43.46707" lon="6.31291">
        <ele>107.6</ele>
        <time>2023-03-03T14:11:01Z</time>
      </trkpt>
      <trkpt lat="43.46706" lon="6.3129">
        <ele>107.6</ele>
        <time>2023-03-03T14:11:02Z</time>
      </trkpt>
      <trkpt lat="43.46705" lon="6.31289">
        <ele>107.5</ele>
        <time>2023-03-03T14:11:03Z</time>
      </trkpt>
      <trkpt lat="43.46705" lon="6.31289">
        <ele>107.4</ele>
        <time>2023-03-03T14:11:04Z</time>
      </trkpt>
      <trkpt lat="43.46704" lon="6.31288">
        <ele>107.4</ele>
        <time>2023-03-03T14:11:05Z</time>
      </trkpt>
      <trkpt lat="43.46703" lon="6.31289">
        <ele>107.4</ele>
        <time>2023-03-03T14:11:06Z</time>
      </trkpt>
      <trkpt lat="43.46703" lon="6.31289">
        <ele>107.4</ele>
        <time>2023-03-03T14:11:07Z</time>
      </trkpt>
      <trkpt lat="43.46703" lon="6.31289">
        <ele>107.5</ele>
        <time>2023-03-03T14:11:08Z</time>
      </trkpt>
      <trkpt lat="43.46703" lon="6.31289">
        <ele>107.5</ele>
        <time>2023-03-03T14:11:09Z</time>
      </trkpt>
      <trkpt lat="43.46702" lon="6.31288">
        <ele>107.5</ele>
        <time>2023-03-03T14:11:10Z</time>
      </trkpt>
      <trkpt lat="43.46702" lon="6.31288">
        <ele>107.5</ele>
        <time>2023-03-03T14:11:11Z</time>
      </trkpt>
      <trkpt lat="43.46701" lon="6.31287">
        <ele>107.5</ele>
        <time>2023-03-03T14:11:12Z</time>
      </trkpt>
      <trkpt lat="43.467" lon="6.31286">
        <ele>107.5</ele>
        <time>2023-03-03T14:11:13Z</time>
      </trkpt>
      <trkpt lat="43.46699" lon="6.31286">
        <ele>107.5</ele>
        <time>2023-03-03T14:11:14Z</time>
      </trkpt>
      <trkpt lat="43.46699" lon="6.31285">
        <ele>107.4</ele>
        <time>2023-03-03T14:11:15Z</time>
      </trkpt>
      <trkpt lat="43.46698" lon="6.31284">
        <ele>107.3</ele>
        <time>2023-03-03T14:11:16Z</time>
      </trkpt>
      <trkpt lat="43.46697" lon="6.31284">
        <ele>107.2</ele>
        <time>2023-03-03T14:11:17Z</time>
      </trkpt>
      <trkpt lat="43.46696" lon="6.31284">
        <ele>107.1</ele>
        <time>2023-03-03T14:11:18Z</time>
      </trkpt>
      <trkpt lat="43.46695" lon="6.31284">
        <ele>107.1</ele>
        <time>2023-03-03T14:11:19Z</time>
      </trkpt>
      <trkpt lat="43.46694" lon="6.31284">
        <ele>107.1</ele>
        <time>2023-03-03T14:11:20Z</time>
      </trkpt>
      <trkpt lat="43.46693" lon="6.31284">
        <ele>107.1</ele>
        <time>2023-03-03T14:11:21Z</time>
      </trkpt>
      <trkpt lat="43.46693" lon="6.31284">
        <ele>107.2</ele>
        <time>2023-03-03T14:11:22Z</time>
      </trkpt>
      <trkpt lat="43.46692" lon="6.31284">
        <ele>107.2</ele>
        <time>2023-03-03T14:11:23Z</time>
      </trkpt>
      <trkpt lat="43.46692" lon="6.31285">
        <ele>107.1</ele>
        <time>2023-03-03T14:11:24Z</time>
      </trkpt>
      <trkpt lat="43.46692" lon="6.31285">
        <ele>107.1</ele>
        <time>2023-03-03T14:11:25Z</time>
      </trkpt>
      <trkpt lat="43.46691" lon="6.31285">
        <ele>107.1</ele>
        <time>2023-03-03T14:11:26Z</time>
      </trkpt>
      <trkpt lat="43.46692" lon="6.31285">
        <ele>107.1</ele>
        <time>2023-03-03T14:11:27Z</time>
      </trkpt>
      <trkpt lat="43.46692" lon="6.31284">
        <ele>107.1</ele>
        <time>2023-03-03T14:11:28Z</time>
      </trkpt>
      <trkpt lat="43.46692" lon="6.31283">
        <ele>107</ele>
        <time>2023-03-03T14:11:29Z</time>
      </trkpt>
      <trkpt lat="43.46692" lon="6.31282">
        <ele>107.1</ele>
        <time>2023-03-03T14:11:30Z</time>
      </trkpt>
      <trkpt lat="43.46693" lon="6.31281">
        <ele>107.1</ele>
        <time>2023-03-03T14:11:31Z</time>
      </trkpt>
      <trkpt lat="43.46693" lon="6.3128">
        <ele>107.3</ele>
        <time>2023-03-03T14:11:32Z</time>
      </trkpt>
      <trkpt lat="43.46693" lon="6.31279">
        <ele>107.3</ele>
        <time>2023-03-03T14:11:33Z</time>
      </trkpt>
      <trkpt lat="43.46693" lon="6.31278">
        <ele>107.3</ele>
        <time>2023-03-03T14:11:34Z</time>
      </trkpt>
      <trkpt lat="43.46693" lon="6.31277">
        <ele>107.3</ele>
        <time>2023-03-03T14:11:35Z</time>
      </trkpt>
      <trkpt lat="43.46693" lon="6.31276">
        <ele>107.3</ele>
        <time>2023-03-03T14:11:36Z</time>
      </trkpt>
      <trkpt lat="43.46693" lon="6.31274">
        <ele>107.3</ele>
        <time>2023-03-03T14:11:37Z</time>
      </trkpt>
      <trkpt lat="43.46693" lon="6.31273">
        <ele>107.3</ele>
        <time>2023-03-03T14:11:38Z</time>
      </trkpt>
      <trkpt lat="43.46693" lon="6.31272">
        <ele>107.3</ele>
        <time>2023-03-03T14:11:39Z</time>
      </trkpt>
      <trkpt lat="43.46693" lon="6.31271">
        <ele>107.4</ele>
        <time>2023-03-03T14:11:40Z</time>
      </trkpt>
      <trkpt lat="43.46692" lon="6.3127">
        <ele>107.5</ele>
        <time>2023-03-03T14:11:41Z</time>
      </trkpt>
      <trkpt lat="43.46692" lon="6.3127">
        <ele>107.4</ele>
        <time>2023-03-03T14:11:42Z</time>
      </trkpt>
      <trkpt lat="43.46692" lon="6.3127">
        <ele>107.4</ele>
        <time>2023-03-03T14:11:43Z</time>
      </trkpt>
      <trkpt lat="43.46692" lon="6.3127">
        <ele>107.3</ele>
        <time>2023-03-03T14:11:44Z</time>
      </trkpt>
      <trkpt lat="43.46692" lon="6.3127">
        <ele>107.3</ele>
        <time>2023-03-03T14:11:45Z</time>
      </trkpt>
      <trkpt lat="43.46692" lon="6.3127">
        <ele>107.4</ele>
        <time>2023-03-03T14:11:46Z</time>
      </trkpt>
      <trkpt lat="43.46692" lon="6.31271">
        <ele>107.4</ele>
        <time>2023-03-03T14:11:47Z</time>
      </trkpt>
      <trkpt lat="43.46692" lon="6.3127">
        <ele>107.4</ele>
        <time>2023-03-03T14:11:48Z</time>
      </trkpt>
      <trkpt lat="43.46692" lon="6.31271">
        <ele>107.4</ele>
        <time>2023-03-03T14:11:49Z</time>
      </trkpt>
      <trkpt lat="43.46692" lon="6.31271">
        <ele>107.4</ele>
        <time>2023-03-03T14:11:50Z</time>
      </trkpt>
      <trkpt lat="43.46692" lon="6.31271">
        <ele>107.3</ele>
        <time>2023-03-03T14:11:51Z</time>
      </trkpt>
      <trkpt lat="43.46692" lon="6.31271">
        <ele>107.2</ele>
        <time>2023-03-03T14:11:52Z</time>
      </trkpt>
      <trkpt lat="43.46692" lon="6.3127">
        <ele>107.2</ele>
        <time>2023-03-03T14:11:53Z</time>
      </trkpt>
      <trkpt lat="43.46692" lon="6.31269">
        <ele>107.2</ele>
        <time>2023-03-03T14:11:54Z</time>
      </trkpt>
      <trkpt lat="43.46692" lon="6.31268">
        <ele>107.2</ele>
        <time>2023-03-03T14:11:55Z</time>
      </trkpt>
      <trkpt lat="43.46692" lon="6.31268">
        <ele>107.3</ele>
        <time>2023-03-03T14:11:56Z</time>
      </trkpt>
      <trkpt lat="43.46692" lon="6.31267">
        <ele>107.3</ele>
        <time>2023-03-03T14:11:57Z</time>
      </trkpt>
      <trkpt lat="43.46692" lon="6.31266">
        <ele>107.3</ele>
        <time>2023-03-03T14:11:58Z</time>
      </trkpt>
      <trkpt lat="43.46692" lon="6.31266">
        <ele>107.3</ele>
        <time>2023-03-03T14:11:59Z</time>
      </trkpt>
      <trkpt lat="43.46691" lon="6.31266">
        <ele>107.4</ele>
        <time>2023-03-03T14:12:00Z</time>
      </trkpt>
      <trkpt lat="43.46692" lon="6.31266">
        <ele>107.4</ele>
        <time>2023-03-03T14:12:01Z</time>
      </trkpt>
      <trkpt lat="43.46692" lon="6.31266">
        <ele>107.4</ele>
        <time>2023-03-03T14:12:02Z</time>
      </trkpt>
      <trkpt lat="43.46692" lon="6.31266">
        <ele>107.5</ele>
        <time>2023-03-03T14:12:03Z</time>
      </trkpt>
      <trkpt lat="43.46692" lon="6.31266">
        <ele>107.5</ele>
        <time>2023-03-03T14:12:04Z</time>
      </trkpt>
      <trkpt lat="43.46692" lon="6.31266">
        <ele>107.5</ele>
        <time>2023-03-03T14:12:05Z</time>
      </trkpt>
      <trkpt lat="43.46692" lon="6.31266">
        <ele>107.5</ele>
        <time>2023-03-03T14:12:06Z</time>
      </trkpt>
      <trkpt lat="43.46692" lon="6.31266">
        <ele>107.5</ele>
        <time>2023-03-03T14:12:07Z</time>
      </trkpt>
      <trkpt lat="43.46691" lon="6.31266">
        <ele>107.5</ele>
        <time>2023-03-03T14:12:08Z</time>
      </trkpt>
      <trkpt lat="43.46691" lon="6.31266">
        <ele>107.5</ele>
        <time>2023-03-03T14:12:09Z</time>
      </trkpt>
      <trkpt lat="43.46691" lon="6.31266">
        <ele>107.4</ele>
        <time>2023-03-03T14:12:10Z</time>
      </trkpt>
      <trkpt lat="43.46691" lon="6.31266">
        <ele>107.3</ele>
        <time>2023-03-03T14:12:11Z</time>
      </trkpt>
      <trkpt lat="43.46691" lon="6.31266">
        <ele>107.4</ele>
        <time>2023-03-03T14:12:12Z</time>
      </trkpt>
      <trkpt lat="43.46691" lon="6.31266">
        <ele>107.4</ele>
        <time>2023-03-03T14:12:13Z</time>
      </trkpt>
      <trkpt lat="43.46691" lon="6.31266">
        <ele>107.5</ele>
        <time>2023-03-03T14:12:14Z</time>
      </trkpt>
      <trkpt lat="43.46691" lon="6.31267">
        <ele>107.5</ele>
        <time>2023-03-03T14:12:15Z</time>
      </trkpt>
      <trkpt lat="43.46691" lon="6.31268">
        <ele>107.4</ele>
        <time>2023-03-03T14:12:16Z</time>
      </trkpt>
      <trkpt lat="43.46691" lon="6.31269">
        <ele>107.4</ele>
        <time>2023-03-03T14:12:17Z</time>
      </trkpt>
      <trkpt lat="43.46691" lon="6.3127">
        <ele>107.4</ele>
        <time>2023-03-03T14:12:18Z</time>
      </trkpt>
      <trkpt lat="43.46691" lon="6.31271">
        <ele>107.3</ele>
        <time>2023-03-03T14:12:19Z</time>
      </trkpt>
      <trkpt lat="43.46691" lon="6.31272">
        <ele>107.2</ele>
        <time>2023-03-03T14:12:20Z</time>
      </trkpt>
      <trkpt lat="43.46691" lon="6.31273">
        <ele>107.2</ele>
        <time>2023-03-03T14:12:21Z</time>
      </trkpt>
      <trkpt lat="43.46691" lon="6.31274">
        <ele>107.1</ele>
        <time>2023-03-03T14:12:22Z</time>
      </trkpt>
      <trkpt lat="43.46691" lon="6.31274">
        <ele>107</ele>
        <time>2023-03-03T14:12:23Z</time>
      </trkpt>
      <trkpt lat="43.46691" lon="6.31275">
        <ele>107</ele>
        <time>2023-03-03T14:12:24Z</time>
      </trkpt>
      <trkpt lat="43.46691" lon="6.31277">
        <ele>107</ele>
        <time>2023-03-03T14:12:25Z</time>
      </trkpt>
      <trkpt lat="43.46691" lon="6.31278">
        <ele>107.1</ele>
        <time>2023-03-03T14:12:26Z</time>
      </trkpt>
      <trkpt lat="43.46691" lon="6.31279">
        <ele>107.1</ele>
        <time>2023-03-03T14:12:27Z</time>
      </trkpt>
      <trkpt lat="43.4669" lon="6.3128">
        <ele>107.2</ele>
        <time>2023-03-03T14:12:28Z</time>
      </trkpt>
      <trkpt lat="43.4669" lon="6.31281">
        <ele>107.2</ele>
        <time>2023-03-03T14:12:29Z</time>
      </trkpt>
      <trkpt lat="43.4669" lon="6.31282">
        <ele>107.2</ele>
        <time>2023-03-03T14:12:30Z</time>
      </trkpt>
      <trkpt lat="43.4669" lon="6.31283">
        <ele>107.2</ele>
        <time>2023-03-03T14:12:31Z</time>
      </trkpt>
      <trkpt lat="43.46689" lon="6.31284">
        <ele>107.3</ele>
        <time>2023-03-03T14:12:32Z</time>
      </trkpt>
      <trkpt lat="43.46689" lon="6.31285">
        <ele>107.2</ele>
        <time>2023-03-03T14:12:33Z</time>
      </trkpt>
      <trkpt lat="43.46688" lon="6.31286">
        <ele>107.2</ele>
        <time>2023-03-03T14:12:34Z</time>
      </trkpt>
      <trkpt lat="43.46688" lon="6.31287">
        <ele>107.2</ele>
        <time>2023-03-03T14:12:35Z</time>
      </trkpt>
      <trkpt lat="43.46687" lon="6.31288">
        <ele>107.1</ele>
        <time>2023-03-03T14:12:36Z</time>
      </trkpt>
      <trkpt lat="43.46687" lon="6.31288">
        <ele>107.1</ele>
        <time>2023-03-03T14:12:37Z</time>
      </trkpt>
      <trkpt lat="43.46686" lon="6.31289">
        <ele>107.1</ele>
        <time>2023-03-03T14:12:38Z</time>
      </trkpt>
      <trkpt lat="43.46685" lon="6.3129">
        <ele>107.1</ele>
        <time>2023-03-03T14:12:39Z</time>
      </trkpt>
      <trkpt lat="43.46684" lon="6.31291">
        <ele>107.1</ele>
        <time>2023-03-03T14:12:40Z</time>
      </trkpt>
      <trkpt lat="43.46684" lon="6.31292">
        <ele>107.1</ele>
        <time>2023-03-03T14:12:41Z</time>
      </trkpt>
      <trkpt lat="43.46684" lon="6.31293">
        <ele>107.1</ele>
        <time>2023-03-03T14:12:42Z</time>
      </trkpt>
      <trkpt lat="43.46683" lon="6.31294">
        <ele>107.1</ele>
        <time>2023-03-03T14:12:43Z</time>
      </trkpt>
      <trkpt lat="43.46682" lon="6.31295">
        <ele>107.1</ele>
        <time>2023-03-03T14:12:44Z</time>
      </trkpt>
      <trkpt lat="43.46682" lon="6.31295">
        <ele>107.1</ele>
        <time>2023-03-03T14:12:45Z</time>
      </trkpt>
      <trkpt lat="43.46681" lon="6.31297">
        <ele>107.2</ele>
        <time>2023-03-03T14:12:46Z</time>
      </trkpt>
      <trkpt lat="43.46681" lon="6.31298">
        <ele>107.3</ele>
        <time>2023-03-03T14:12:47Z</time>
      </trkpt>
      <trkpt lat="43.4668" lon="6.31298">
        <ele>107.4</ele>
        <time>2023-03-03T14:12:48Z</time>
      </trkpt>
      <trkpt lat="43.4668" lon="6.31299">
        <ele>107.5</ele>
        <time>2023-03-03T14:12:49Z</time>
      </trkpt>
      <trkpt lat="43.46679" lon="6.313">
        <ele>107.5</ele>
        <time>2023-03-03T14:12:50Z</time>
      </trkpt>
      <trkpt lat="43.46678" lon="6.31301">
        <ele>107.5</ele>
        <time>2023-03-03T14:12:51Z</time>
      </trkpt>
      <trkpt lat="43.46678" lon="6.31302">
        <ele>107.4</ele>
        <time>2023-03-03T14:12:52Z</time>
      </trkpt>
      <trkpt lat="43.46678" lon="6.31303">
        <ele>107.4</ele>
        <time>2023-03-03T14:12:53Z</time>
      </trkpt>
      <trkpt lat="43.46677" lon="6.31303">
        <ele>107.6</ele>
        <time>2023-03-03T14:12:54Z</time>
      </trkpt>
      <trkpt lat="43.46677" lon="6.31304">
        <ele>107.6</ele>
        <time>2023-03-03T14:12:55Z</time>
      </trkpt>
      <trkpt lat="43.46676" lon="6.31305">
        <ele>107.6</ele>
        <time>2023-03-03T14:12:56Z</time>
      </trkpt>
      <trkpt lat="43.46675" lon="6.31306">
        <ele>107.6</ele>
        <time>2023-03-03T14:12:57Z</time>
      </trkpt>
      <trkpt lat="43.46675" lon="6.31307">
        <ele>107.6</ele>
        <time>2023-03-03T14:12:58Z</time>
      </trkpt>
      <trkpt lat="43.46674" lon="6.31308">
        <ele>107.7</ele>
        <time>2023-03-03T14:12:59Z</time>
      </trkpt>
      <trkpt lat="43.46674" lon="6.31309">
        <ele>107.7</ele>
        <time>2023-03-03T14:13:00Z</time>
      </trkpt>
      <trkpt lat="43.46673" lon="6.3131">
        <ele>107.7</ele>
        <time>2023-03-03T14:13:01Z</time>
      </trkpt>
      <trkpt lat="43.46672" lon="6.3131">
        <ele>107.8</ele>
        <time>2023-03-03T14:13:02Z</time>
      </trkpt>
      <trkpt lat="43.46671" lon="6.31312">
        <ele>107.7</ele>
        <time>2023-03-03T14:13:03Z</time>
      </trkpt>
      <trkpt lat="43.4667" lon="6.31313">
        <ele>107.7</ele>
        <time>2023-03-03T14:13:04Z</time>
      </trkpt>
      <trkpt lat="43.4667" lon="6.31314">
        <ele>107.6</ele>
        <time>2023-03-03T14:13:05Z</time>
      </trkpt>
      <trkpt lat="43.46669" lon="6.31315">
        <ele>107.5</ele>
        <time>2023-03-03T14:13:06Z</time>
      </trkpt>
      <trkpt lat="43.46668" lon="6.31316">
        <ele>107.5</ele>
        <time>2023-03-03T14:13:07Z</time>
      </trkpt>
      <trkpt lat="43.46667" lon="6.31317">
        <ele>107.5</ele>
        <time>2023-03-03T14:13:08Z</time>
      </trkpt>
      <trkpt lat="43.46666" lon="6.31318">
        <ele>107.5</ele>
        <time>2023-03-03T14:13:09Z</time>
      </trkpt>
      <trkpt lat="43.46666" lon="6.31319">
        <ele>107.5</ele>
        <time>2023-03-03T14:13:10Z</time>
      </trkpt>
      <trkpt lat="43.46665" lon="6.3132">
        <ele>107.4</ele>
        <time>2023-03-03T14:13:11Z</time>
      </trkpt>
      <trkpt lat="43.46664" lon="6.31321">
        <ele>107.4</ele>
        <time>2023-03-03T14:13:12Z</time>
      </trkpt>
      <trkpt lat="43.46663" lon="6.31322">
        <ele>107.4</ele>
        <time>2023-03-03T14:13:13Z</time>
      </trkpt>
      <trkpt lat="43.46662" lon="6.31323">
        <ele>107.4</ele>
        <time>2023-03-03T14:13:14Z</time>
      </trkpt>
      <trkpt lat="43.46662" lon="6.31324">
        <ele>107.5</ele>
        <time>2023-03-03T14:13:15Z</time>
      </trkpt>
      <trkpt lat="43.46661" lon="6.31325">
        <ele>107.5</ele>
        <time>2023-03-03T14:13:16Z</time>
      </trkpt>
      <trkpt lat="43.4666" lon="6.31326">
        <ele>107.5</ele>
        <time>2023-03-03T14:13:17Z</time>
      </trkpt>
      <trkpt lat="43.4666" lon="6.31328">
        <ele>107.5</ele>
        <time>2023-03-03T14:13:18Z</time>
      </trkpt>
      <trkpt lat="43.46659" lon="6.31328">
        <ele>107.5</ele>
        <time>2023-03-03T14:13:19Z</time>
      </trkpt>
      <trkpt lat="43.46658" lon="6.31329">
        <ele>107.5</ele>
        <time>2023-03-03T14:13:20Z</time>
      </trkpt>
      <trkpt lat="43.46658" lon="6.3133">
        <ele>107.5</ele>
        <time>2023-03-03T14:13:21Z</time>
      </trkpt>
      <trkpt lat="43.46657" lon="6.31331">
        <ele>107.5</ele>
        <time>2023-03-03T14:13:22Z</time>
      </trkpt>
      <trkpt lat="43.46657" lon="6.31332">
        <ele>107.5</ele>
        <time>2023-03-03T14:13:23Z</time>
      </trkpt>
      <trkpt lat="43.46656" lon="6.31334">
        <ele>107.5</ele>
        <time>2023-03-03T14:13:24Z</time>
      </trkpt>
      <trkpt lat="43.46655" lon="6.31335">
        <ele>107.5</ele>
        <time>2023-03-03T14:13:25Z</time>
      </trkpt>
      <trkpt lat="43.46655" lon="6.31336">
        <ele>107.4</ele>
        <time>2023-03-03T14:13:26Z</time>
      </trkpt>
      <trkpt lat="43.46654" lon="6.31337">
        <ele>107.4</ele>
        <time>2023-03-03T14:13:27Z</time>
      </trkpt>
      <trkpt lat="43.46653" lon="6.31338">
        <ele>107.5</ele>
        <time>2023-03-03T14:13:28Z</time>
      </trkpt>
      <trkpt lat="43.46652" lon="6.31339">
        <ele>107.5</ele>
        <time>2023-03-03T14:13:29Z</time>
      </trkpt>
      <trkpt lat="43.46651" lon="6.3134">
        <ele>107.5</ele>
        <time>2023-03-03T14:13:30Z</time>
      </trkpt>
      <trkpt lat="43.4665" lon="6.31341">
        <ele>107.5</ele>
        <time>2023-03-03T14:13:31Z</time>
      </trkpt>
      <trkpt lat="43.4665" lon="6.31342">
        <ele>107.3</ele>
        <time>2023-03-03T14:13:32Z</time>
      </trkpt>
      <trkpt lat="43.46649" lon="6.31343">
        <ele>107.2</ele>
        <time>2023-03-03T14:13:33Z</time>
      </trkpt>
      <trkpt lat="43.46648" lon="6.31345">
        <ele>107.2</ele>
        <time>2023-03-03T14:13:34Z</time>
      </trkpt>
      <trkpt lat="43.46648" lon="6.31346">
        <ele>107.1</ele>
        <time>2023-03-03T14:13:35Z</time>
      </trkpt>
      <trkpt lat="43.46647" lon="6.31347">
        <ele>107.1</ele>
        <time>2023-03-03T14:13:36Z</time>
      </trkpt>
      <trkpt lat="43.46646" lon="6.31348">
        <ele>107</ele>
        <time>2023-03-03T14:13:37Z</time>
      </trkpt>
      <trkpt lat="43.46646" lon="6.31349">
        <ele>107</ele>
        <time>2023-03-03T14:13:38Z</time>
      </trkpt>
      <trkpt lat="43.46645" lon="6.3135">
        <ele>107</ele>
        <time>2023-03-03T14:13:39Z</time>
      </trkpt>
      <trkpt lat="43.46644" lon="6.31351">
        <ele>107.1</ele>
        <time>2023-03-03T14:13:40Z</time>
      </trkpt>
      <trkpt lat="43.46644" lon="6.31353">
        <ele>107</ele>
        <time>2023-03-03T14:13:41Z</time>
      </trkpt>
      <trkpt lat="43.46643" lon="6.31354">
        <ele>107</ele>
        <time>2023-03-03T14:13:42Z</time>
      </trkpt>
      <trkpt lat="43.46643" lon="6.31355">
        <ele>106.9</ele>
        <time>2023-03-03T14:13:43Z</time>
      </trkpt>
      <trkpt lat="43.46642" lon="6.31357">
        <ele>106.8</ele>
        <time>2023-03-03T14:13:44Z</time>
      </trkpt>
      <trkpt lat="43.46642" lon="6.31359">
        <ele>106.8</ele>
        <time>2023-03-03T14:13:45Z</time>
      </trkpt>
      <trkpt lat="43.46641" lon="6.3136">
        <ele>106.8</ele>
        <time>2023-03-03T14:13:46Z</time>
      </trkpt>
      <trkpt lat="43.46641" lon="6.31361">
        <ele>106.8</ele>
        <time>2023-03-03T14:13:47Z</time>
      </trkpt>
      <trkpt lat="43.4664" lon="6.31363">
        <ele>106.9</ele>
        <time>2023-03-03T14:13:48Z</time>
      </trkpt>
      <trkpt lat="43.46639" lon="6.31364">
        <ele>106.9</ele>
        <time>2023-03-03T14:13:49Z</time>
      </trkpt>
      <trkpt lat="43.46639" lon="6.31365">
        <ele>106.9</ele>
        <time>2023-03-03T14:13:50Z</time>
      </trkpt>
      <trkpt lat="43.46638" lon="6.31366">
        <ele>106.9</ele>
        <time>2023-03-03T14:13:51Z</time>
      </trkpt>
      <trkpt lat="43.46637" lon="6.31367">
        <ele>106.9</ele>
        <time>2023-03-03T14:13:52Z</time>
      </trkpt>
      <trkpt lat="43.46637" lon="6.31369">
        <ele>107</ele>
        <time>2023-03-03T14:13:53Z</time>
      </trkpt>
      <trkpt lat="43.46636" lon="6.3137">
        <ele>107</ele>
        <time>2023-03-03T14:13:54Z</time>
      </trkpt>
      <trkpt lat="43.46635" lon="6.31371">
        <ele>107</ele>
        <time>2023-03-03T14:13:55Z</time>
      </trkpt>
      <trkpt lat="43.46635" lon="6.31372">
        <ele>107</ele>
        <time>2023-03-03T14:13:56Z</time>
      </trkpt>
      <trkpt lat="43.46635" lon="6.31373">
        <ele>106.9</ele>
        <time>2023-03-03T14:13:57Z</time>
      </trkpt>
      <trkpt lat="43.46634" lon="6.31375">
        <ele>106.9</ele>
        <time>2023-03-03T14:13:58Z</time>
      </trkpt>
      <trkpt lat="43.46634" lon="6.31376">
        <ele>106.8</ele>
        <time>2023-03-03T14:13:59Z</time>
      </trkpt>
      <trkpt lat="43.46633" lon="6.31377">
        <ele>106.8</ele>
        <time>2023-03-03T14:14:00Z</time>
      </trkpt>
      <trkpt lat="43.46632" lon="6.31378">
        <ele>106.8</ele>
        <time>2023-03-03T14:14:01Z</time>
      </trkpt>
      <trkpt lat="43.46632" lon="6.3138">
        <ele>106.7</ele>
        <time>2023-03-03T14:14:02Z</time>
      </trkpt>
      <trkpt lat="43.46631" lon="6.3138">
        <ele>106.7</ele>
        <time>2023-03-03T14:14:03Z</time>
      </trkpt>
      <trkpt lat="43.4663" lon="6.31381">
        <ele>106.7</ele>
        <time>2023-03-03T14:14:04Z</time>
      </trkpt>
      <trkpt lat="43.4663" lon="6.31382">
        <ele>106.6</ele>
        <time>2023-03-03T14:14:05Z</time>
      </trkpt>
      <trkpt lat="43.46629" lon="6.31383">
        <ele>106.6</ele>
        <time>2023-03-03T14:14:06Z</time>
      </trkpt>
      <trkpt lat="43.46629" lon="6.31385">
        <ele>106.5</ele>
        <time>2023-03-03T14:14:07Z</time>
      </trkpt>
      <trkpt lat="43.46628" lon="6.31385">
        <ele>106.4</ele>
        <time>2023-03-03T14:14:08Z</time>
      </trkpt>
      <trkpt lat="43.46627" lon="6.31387">
        <ele>106.4</ele>
        <time>2023-03-03T14:14:09Z</time>
      </trkpt>
      <trkpt lat="43.46627" lon="6.31388">
        <ele>106.3</ele>
        <time>2023-03-03T14:14:10Z</time>
      </trkpt>
      <trkpt lat="43.46626" lon="6.31389">
        <ele>106.3</ele>
        <time>2023-03-03T14:14:11Z</time>
      </trkpt>
      <trkpt lat="43.46626" lon="6.31391">
        <ele>106.2</ele>
        <time>2023-03-03T14:14:12Z</time>
      </trkpt>
      <trkpt lat="43.46625" lon="6.31392">
        <ele>106.2</ele>
        <time>2023-03-03T14:14:13Z</time>
      </trkpt>
      <trkpt lat="43.46625" lon="6.31393">
        <ele>106.2</ele>
        <time>2023-03-03T14:14:14Z</time>
      </trkpt>
      <trkpt lat="43.46624" lon="6.31394">
        <ele>106.2</ele>
        <time>2023-03-03T14:14:15Z</time>
      </trkpt>
      <trkpt lat="43.46623" lon="6.31395">
        <ele>106.2</ele>
        <time>2023-03-03T14:14:16Z</time>
      </trkpt>
      <trkpt lat="43.46622" lon="6.31396">
        <ele>106.1</ele>
        <time>2023-03-03T14:14:17Z</time>
      </trkpt>
      <trkpt lat="43.46621" lon="6.31397">
        <ele>106</ele>
        <time>2023-03-03T14:14:18Z</time>
      </trkpt>
      <trkpt lat="43.4662" lon="6.31398">
        <ele>106</ele>
        <time>2023-03-03T14:14:19Z</time>
      </trkpt>
      <trkpt lat="43.4662" lon="6.31399">
        <ele>105.9</ele>
        <time>2023-03-03T14:14:20Z</time>
      </trkpt>
      <trkpt lat="43.4662" lon="6.31401">
        <ele>105.9</ele>
        <time>2023-03-03T14:14:21Z</time>
      </trkpt>
      <trkpt lat="43.4662" lon="6.31403">
        <ele>105.9</ele>
        <time>2023-03-03T14:14:22Z</time>
      </trkpt>
      <trkpt lat="43.46619" lon="6.31405">
        <ele>105.8</ele>
        <time>2023-03-03T14:14:23Z</time>
      </trkpt>
      <trkpt lat="43.46618" lon="6.31406">
        <ele>105.7</ele>
        <time>2023-03-03T14:14:24Z</time>
      </trkpt>
      <trkpt lat="43.46618" lon="6.31408">
        <ele>105.7</ele>
        <time>2023-03-03T14:14:25Z</time>
      </trkpt>
      <trkpt lat="43.46617" lon="6.3141">
        <ele>105.6</ele>
        <time>2023-03-03T14:14:26Z</time>
      </trkpt>
      <trkpt lat="43.46616" lon="6.31412">
        <ele>105.5</ele>
        <time>2023-03-03T14:14:27Z</time>
      </trkpt>
      <trkpt lat="43.46616" lon="6.31413">
        <ele>105.6</ele>
        <time>2023-03-03T14:14:28Z</time>
      </trkpt>
      <trkpt lat="43.46616" lon="6.31415">
        <ele>105.6</ele>
        <time>2023-03-03T14:14:29Z</time>
      </trkpt>
      <trkpt lat="43.46615" lon="6.31416">
        <ele>105.5</ele>
        <time>2023-03-03T14:14:30Z</time>
      </trkpt>
      <trkpt lat="43.46615" lon="6.31417">
        <ele>105.4</ele>
        <time>2023-03-03T14:14:31Z</time>
      </trkpt>
      <trkpt lat="43.46614" lon="6.31419">
        <ele>105.4</ele>
        <time>2023-03-03T14:14:32Z</time>
      </trkpt>
      <trkpt lat="43.46613" lon="6.3142">
        <ele>105.4</ele>
        <time>2023-03-03T14:14:33Z</time>
      </trkpt>
      <trkpt lat="43.46612" lon="6.3142">
        <ele>105.3</ele>
        <time>2023-03-03T14:14:34Z</time>
      </trkpt>
      <trkpt lat="43.46612" lon="6.31422">
        <ele>105.3</ele>
        <time>2023-03-03T14:14:35Z</time>
      </trkpt>
      <trkpt lat="43.46611" lon="6.31423">
        <ele>105.3</ele>
        <time>2023-03-03T14:14:36Z</time>
      </trkpt>
      <trkpt lat="43.46611" lon="6.31424">
        <ele>105.2</ele>
        <time>2023-03-03T14:14:37Z</time>
      </trkpt>
      <trkpt lat="43.46611" lon="6.31425">
        <ele>105.1</ele>
        <time>2023-03-03T14:14:38Z</time>
      </trkpt>
      <trkpt lat="43.4661" lon="6.31426">
        <ele>105</ele>
        <time>2023-03-03T14:14:39Z</time>
      </trkpt>
      <trkpt lat="43.46609" lon="6.31427">
        <ele>105</ele>
        <time>2023-03-03T14:14:40Z</time>
      </trkpt>
      <trkpt lat="43.46608" lon="6.31428">
        <ele>104.9</ele>
        <time>2023-03-03T14:14:41Z</time>
      </trkpt>
      <trkpt lat="43.46608" lon="6.3143">
        <ele>104.9</ele>
        <time>2023-03-03T14:14:42Z</time>
      </trkpt>
      <trkpt lat="43.46607" lon="6.31431">
        <ele>104.9</ele>
        <time>2023-03-03T14:14:43Z</time>
      </trkpt>
      <trkpt lat="43.46607" lon="6.31433">
        <ele>104.8</ele>
        <time>2023-03-03T14:14:44Z</time>
      </trkpt>
      <trkpt lat="43.46606" lon="6.31434">
        <ele>104.6</ele>
        <time>2023-03-03T14:14:45Z</time>
      </trkpt>
      <trkpt lat="43.46605" lon="6.31435">
        <ele>104.5</ele>
        <time>2023-03-03T14:14:46Z</time>
      </trkpt>
      <trkpt lat="43.46605" lon="6.31437">
        <ele>104.4</ele>
        <time>2023-03-03T14:14:47Z</time>
      </trkpt>
      <trkpt lat="43.46604" lon="6.31438">
        <ele>104.3</ele>
        <time>2023-03-03T14:14:48Z</time>
      </trkpt>
      <trkpt lat="43.46603" lon="6.3144">
        <ele>104.3</ele>
        <time>2023-03-03T14:14:49Z</time>
      </trkpt>
      <trkpt lat="43.46603" lon="6.31441">
        <ele>104.2</ele>
        <time>2023-03-03T14:14:50Z</time>
      </trkpt>
      <trkpt lat="43.46602" lon="6.31442">
        <ele>104.1</ele>
        <time>2023-03-03T14:14:51Z</time>
      </trkpt>
      <trkpt lat="43.46601" lon="6.31443">
        <ele>104.1</ele>
        <time>2023-03-03T14:14:52Z</time>
      </trkpt>
      <trkpt lat="43.46601" lon="6.31444">
        <ele>104.1</ele>
        <time>2023-03-03T14:14:53Z</time>
      </trkpt>
      <trkpt lat="43.466" lon="6.31445">
        <ele>104</ele>
        <time>2023-03-03T14:14:54Z</time>
      </trkpt>
      <trkpt lat="43.46599" lon="6.31447">
        <ele>104</ele>
        <time>2023-03-03T14:14:55Z</time>
      </trkpt>
      <trkpt lat="43.46599" lon="6.31448">
        <ele>103.9</ele>
        <time>2023-03-03T14:14:56Z</time>
      </trkpt>
      <trkpt lat="43.46598" lon="6.31449">
        <ele>103.7</ele>
        <time>2023-03-03T14:14:57Z</time>
      </trkpt>
      <trkpt lat="43.46597" lon="6.3145">
        <ele>103.6</ele>
        <time>2023-03-03T14:14:58Z</time>
      </trkpt>
      <trkpt lat="43.46596" lon="6.31451">
        <ele>103.6</ele>
        <time>2023-03-03T14:14:59Z</time>
      </trkpt>
      <trkpt lat="43.46596" lon="6.31452">
        <ele>103.5</ele>
        <time>2023-03-03T14:15:00Z</time>
      </trkpt>
      <trkpt lat="43.46595" lon="6.31454">
        <ele>103.5</ele>
        <time>2023-03-03T14:15:01Z</time>
      </trkpt>
      <trkpt lat="43.46595" lon="6.31455">
        <ele>103.4</ele>
        <time>2023-03-03T14:15:02Z</time>
      </trkpt>
      <trkpt lat="43.46594" lon="6.31457">
        <ele>103.3</ele>
        <time>2023-03-03T14:15:03Z</time>
      </trkpt>
      <trkpt lat="43.46594" lon="6.31458">
        <ele>103.2</ele>
        <time>2023-03-03T14:15:04Z</time>
      </trkpt>
      <trkpt lat="43.46593" lon="6.3146">
        <ele>103.1</ele>
        <time>2023-03-03T14:15:05Z</time>
      </trkpt>
      <trkpt lat="43.46593" lon="6.31461">
        <ele>103.1</ele>
        <time>2023-03-03T14:15:06Z</time>
      </trkpt>
      <trkpt lat="43.46592" lon="6.31463">
        <ele>103</ele>
        <time>2023-03-03T14:15:07Z</time>
      </trkpt>
      <trkpt lat="43.46591" lon="6.31464">
        <ele>103</ele>
        <time>2023-03-03T14:15:08Z</time>
      </trkpt>
      <trkpt lat="43.46591" lon="6.31465">
        <ele>102.9</ele>
        <time>2023-03-03T14:15:09Z</time>
      </trkpt>
      <trkpt lat="43.4659" lon="6.31466">
        <ele>102.8</ele>
        <time>2023-03-03T14:15:10Z</time>
      </trkpt>
      <trkpt lat="43.4659" lon="6.31468">
        <ele>102.8</ele>
        <time>2023-03-03T14:15:11Z</time>
      </trkpt>
      <trkpt lat="43.4659" lon="6.31469">
        <ele>102.7</ele>
        <time>2023-03-03T14:15:12Z</time>
      </trkpt>
      <trkpt lat="43.46589" lon="6.3147">
        <ele>102.6</ele>
        <time>2023-03-03T14:15:13Z</time>
      </trkpt>
      <trkpt lat="43.46588" lon="6.31471">
        <ele>102.6</ele>
        <time>2023-03-03T14:15:14Z</time>
      </trkpt>
      <trkpt lat="43.46588" lon="6.31473">
        <ele>102.4</ele>
        <time>2023-03-03T14:15:15Z</time>
      </trkpt>
      <trkpt lat="43.46587" lon="6.31474">
        <ele>102.3</ele>
        <time>2023-03-03T14:15:16Z</time>
      </trkpt>
      <trkpt lat="43.46587" lon="6.31474">
        <ele>102.3</ele>
        <time>2023-03-03T14:15:17Z</time>
      </trkpt>
      <trkpt lat="43.46586" lon="6.31475">
        <ele>102.3</ele>
        <time>2023-03-03T14:15:18Z</time>
      </trkpt>
      <trkpt lat="43.46585" lon="6.31477">
        <ele>102.3</ele>
        <time>2023-03-03T14:15:19Z</time>
      </trkpt>
      <trkpt lat="43.46585" lon="6.31478">
        <ele>102.3</ele>
        <time>2023-03-03T14:15:20Z</time>
      </trkpt>
      <trkpt lat="43.46584" lon="6.31478">
        <ele>102.3</ele>
        <time>2023-03-03T14:15:21Z</time>
      </trkpt>
      <trkpt lat="43.46583" lon="6.31479">
        <ele>102.2</ele>
        <time>2023-03-03T14:15:22Z</time>
      </trkpt>
      <trkpt lat="43.46582" lon="6.3148">
        <ele>102.2</ele>
        <time>2023-03-03T14:15:23Z</time>
      </trkpt>
      <trkpt lat="43.46582" lon="6.31481">
        <ele>102.1</ele>
        <time>2023-03-03T14:15:24Z</time>
      </trkpt>
      <trkpt lat="43.46581" lon="6.31483">
        <ele>102.1</ele>
        <time>2023-03-03T14:15:25Z</time>
      </trkpt>
      <trkpt lat="43.4658" lon="6.31484">
        <ele>102</ele>
        <time>2023-03-03T14:15:26Z</time>
      </trkpt>
      <trkpt lat="43.4658" lon="6.31485">
        <ele>101.9</ele>
        <time>2023-03-03T14:15:27Z</time>
      </trkpt>
      <trkpt lat="43.46579" lon="6.31486">
        <ele>101.8</ele>
        <time>2023-03-03T14:15:28Z</time>
      </trkpt>
      <trkpt lat="43.46578" lon="6.31488">
        <ele>101.8</ele>
        <time>2023-03-03T14:15:29Z</time>
      </trkpt>
      <trkpt lat="43.46578" lon="6.31489">
        <ele>101.6</ele>
        <time>2023-03-03T14:15:30Z</time>
      </trkpt>
      <trkpt lat="43.46577" lon="6.3149">
        <ele>101.6</ele>
        <time>2023-03-03T14:15:31Z</time>
      </trkpt>
      <trkpt lat="43.46576" lon="6.31492">
        <ele>101.5</ele>
        <time>2023-03-03T14:15:32Z</time>
      </trkpt>
      <trkpt lat="43.46575" lon="6.31493">
        <ele>101.4</ele>
        <time>2023-03-03T14:15:33Z</time>
      </trkpt>
      <trkpt lat="43.46575" lon="6.31495">
        <ele>101.4</ele>
        <time>2023-03-03T14:15:34Z</time>
      </trkpt>
      <trkpt lat="43.46575" lon="6.31497">
        <ele>101.5</ele>
        <time>2023-03-03T14:15:35Z</time>
      </trkpt>
      <trkpt lat="43.46574" lon="6.31498">
        <ele>101.5</ele>
        <time>2023-03-03T14:15:36Z</time>
      </trkpt>
      <trkpt lat="43.46574" lon="6.315">
        <ele>101.5</ele>
        <time>2023-03-03T14:15:37Z</time>
      </trkpt>
      <trkpt lat="43.46574" lon="6.31501">
        <ele>101.5</ele>
        <time>2023-03-03T14:15:38Z</time>
      </trkpt>
      <trkpt lat="43.46573" lon="6.31503">
        <ele>101.5</ele>
        <time>2023-03-03T14:15:39Z</time>
      </trkpt>
      <trkpt lat="43.46573" lon="6.31504">
        <ele>101.4</ele>
        <time>2023-03-03T14:15:40Z</time>
      </trkpt>
      <trkpt lat="43.46572" lon="6.31506">
        <ele>101.4</ele>
        <time>2023-03-03T14:15:41Z</time>
      </trkpt>
      <trkpt lat="43.46571" lon="6.31507">
        <ele>101.5</ele>
        <time>2023-03-03T14:15:42Z</time>
      </trkpt>
      <trkpt lat="43.46571" lon="6.31508">
        <ele>101.7</ele>
        <time>2023-03-03T14:15:43Z</time>
      </trkpt>
      <trkpt lat="43.4657" lon="6.31509">
        <ele>101.7</ele>
        <time>2023-03-03T14:15:44Z</time>
      </trkpt>
      <trkpt lat="43.4657" lon="6.3151">
        <ele>101.7</ele>
        <time>2023-03-03T14:15:45Z</time>
      </trkpt>
      <trkpt lat="43.46569" lon="6.31512">
        <ele>101.7</ele>
        <time>2023-03-03T14:15:46Z</time>
      </trkpt>
      <trkpt lat="43.46569" lon="6.31513">
        <ele>101.7</ele>
        <time>2023-03-03T14:15:47Z</time>
      </trkpt>
      <trkpt lat="43.46568" lon="6.31515">
        <ele>101.6</ele>
        <time>2023-03-03T14:15:48Z</time>
      </trkpt>
      <trkpt lat="43.46568" lon="6.31516">
        <ele>101.6</ele>
        <time>2023-03-03T14:15:49Z</time>
      </trkpt>
      <trkpt lat="43.46567" lon="6.31517">
        <ele>101.6</ele>
        <time>2023-03-03T14:15:50Z</time>
      </trkpt>
      <trkpt lat="43.46566" lon="6.31518">
        <ele>101.6</ele>
        <time>2023-03-03T14:15:51Z</time>
      </trkpt>
      <trkpt lat="43.46565" lon="6.31519">
        <ele>101.6</ele>
        <time>2023-03-03T14:15:52Z</time>
      </trkpt>
      <trkpt lat="43.46564" lon="6.31521">
        <ele>101.5</ele>
        <time>2023-03-03T14:15:53Z</time>
      </trkpt>
      <trkpt lat="43.46563" lon="6.31522">
        <ele>101.5</ele>
        <time>2023-03-03T14:15:54Z</time>
      </trkpt>
      <trkpt lat="43.46562" lon="6.31524">
        <ele>101.5</ele>
        <time>2023-03-03T14:15:55Z</time>
      </trkpt>
      <trkpt lat="43.46562" lon="6.31525">
        <ele>101.4</ele>
        <time>2023-03-03T14:15:56Z</time>
      </trkpt>
      <trkpt lat="43.46561" lon="6.31526">
        <ele>101.5</ele>
        <time>2023-03-03T14:15:57Z</time>
      </trkpt>
      <trkpt lat="43.46561" lon="6.31528">
        <ele>101.4</ele>
        <time>2023-03-03T14:15:58Z</time>
      </trkpt>
      <trkpt lat="43.4656" lon="6.31529">
        <ele>101.5</ele>
        <time>2023-03-03T14:15:59Z</time>
      </trkpt>
      <trkpt lat="43.4656" lon="6.31531">
        <ele>101.5</ele>
        <time>2023-03-03T14:16:00Z</time>
      </trkpt>
      <trkpt lat="43.4656" lon="6.31533">
        <ele>101.5</ele>
        <time>2023-03-03T14:16:01Z</time>
      </trkpt>
      <trkpt lat="43.46559" lon="6.31534">
        <ele>101.5</ele>
        <time>2023-03-03T14:16:02Z</time>
      </trkpt>
      <trkpt lat="43.46558" lon="6.31536">
        <ele>101.5</ele>
        <time>2023-03-03T14:16:03Z</time>
      </trkpt>
      <trkpt lat="43.46557" lon="6.31537">
        <ele>101.6</ele>
        <time>2023-03-03T14:16:04Z</time>
      </trkpt>
      <trkpt lat="43.46556" lon="6.31539">
        <ele>101.5</ele>
        <time>2023-03-03T14:16:05Z</time>
      </trkpt>
      <trkpt lat="43.46555" lon="6.3154">
        <ele>101.5</ele>
        <time>2023-03-03T14:16:06Z</time>
      </trkpt>
      <trkpt lat="43.46554" lon="6.31541">
        <ele>101.5</ele>
        <time>2023-03-03T14:16:07Z</time>
      </trkpt>
      <trkpt lat="43.46553" lon="6.31542">
        <ele>101.5</ele>
        <time>2023-03-03T14:16:08Z</time>
      </trkpt>
      <trkpt lat="43.46553" lon="6.31543">
        <ele>101.5</ele>
        <time>2023-03-03T14:16:09Z</time>
      </trkpt>
      <trkpt lat="43.46552" lon="6.31544">
        <ele>101.5</ele>
        <time>2023-03-03T14:16:10Z</time>
      </trkpt>
      <trkpt lat="43.46551" lon="6.31545">
        <ele>101.5</ele>
        <time>2023-03-03T14:16:11Z</time>
      </trkpt>
      <trkpt lat="43.46551" lon="6.31546">
        <ele>101.5</ele>
        <time>2023-03-03T14:16:12Z</time>
      </trkpt>
      <trkpt lat="43.4655" lon="6.31547">
        <ele>101.4</ele>
        <time>2023-03-03T14:16:13Z</time>
      </trkpt>
      <trkpt lat="43.46549" lon="6.31549">
        <ele>101.3</ele>
        <time>2023-03-03T14:16:14Z</time>
      </trkpt>
      <trkpt lat="43.46548" lon="6.3155">
        <ele>101.3</ele>
        <time>2023-03-03T14:16:15Z</time>
      </trkpt>
      <trkpt lat="43.46548" lon="6.31552">
        <ele>101.2</ele>
        <time>2023-03-03T14:16:16Z</time>
      </trkpt>
      <trkpt lat="43.46547" lon="6.31554">
        <ele>101.2</ele>
        <time>2023-03-03T14:16:17Z</time>
      </trkpt>
      <trkpt lat="43.46547" lon="6.31556">
        <ele>101.1</ele>
        <time>2023-03-03T14:16:18Z</time>
      </trkpt>
      <trkpt lat="43.46546" lon="6.31558">
        <ele>101.1</ele>
        <time>2023-03-03T14:16:19Z</time>
      </trkpt>
      <trkpt lat="43.46546" lon="6.31559">
        <ele>101.2</ele>
        <time>2023-03-03T14:16:20Z</time>
      </trkpt>
      <trkpt lat="43.46545" lon="6.3156">
        <ele>101.1</ele>
        <time>2023-03-03T14:16:21Z</time>
      </trkpt>
      <trkpt lat="43.46545" lon="6.31562">
        <ele>101.1</ele>
        <time>2023-03-03T14:16:22Z</time>
      </trkpt>
      <trkpt lat="43.46544" lon="6.31563">
        <ele>101.1</ele>
        <time>2023-03-03T14:16:23Z</time>
      </trkpt>
      <trkpt lat="43.46543" lon="6.31565">
        <ele>101.1</ele>
        <time>2023-03-03T14:16:24Z</time>
      </trkpt>
      <trkpt lat="43.46543" lon="6.31566">
        <ele>101.2</ele>
        <time>2023-03-03T14:16:25Z</time>
      </trkpt>
      <trkpt lat="43.46542" lon="6.31567">
        <ele>101.3</ele>
        <time>2023-03-03T14:16:26Z</time>
      </trkpt>
      <trkpt lat="43.46541" lon="6.31568">
        <ele>101.3</ele>
        <time>2023-03-03T14:16:27Z</time>
      </trkpt>
      <trkpt lat="43.4654" lon="6.3157">
        <ele>101.3</ele>
        <time>2023-03-03T14:16:28Z</time>
      </trkpt>
      <trkpt lat="43.46539" lon="6.31571">
        <ele>101.3</ele>
        <time>2023-03-03T14:16:29Z</time>
      </trkpt>
      <trkpt lat="43.46538" lon="6.31572">
        <ele>101.3</ele>
        <time>2023-03-03T14:16:30Z</time>
      </trkpt>
      <trkpt lat="43.46537" lon="6.31573">
        <ele>101.3</ele>
        <time>2023-03-03T14:16:31Z</time>
      </trkpt>
      <trkpt lat="43.46536" lon="6.31574">
        <ele>101.4</ele>
        <time>2023-03-03T14:16:32Z</time>
      </trkpt>
      <trkpt lat="43.46535" lon="6.31576">
        <ele>101.5</ele>
        <time>2023-03-03T14:16:33Z</time>
      </trkpt>
      <trkpt lat="43.46534" lon="6.31577">
        <ele>101.6</ele>
        <time>2023-03-03T14:16:34Z</time>
      </trkpt>
      <trkpt lat="43.46533" lon="6.31578">
        <ele>101.7</ele>
        <time>2023-03-03T14:16:35Z</time>
      </trkpt>
      <trkpt lat="43.46532" lon="6.31579">
        <ele>101.7</ele>
        <time>2023-03-03T14:16:36Z</time>
      </trkpt>
      <trkpt lat="43.46531" lon="6.3158">
        <ele>101.8</ele>
        <time>2023-03-03T14:16:37Z</time>
      </trkpt>
      <trkpt lat="43.4653" lon="6.31581">
        <ele>101.9</ele>
        <time>2023-03-03T14:16:38Z</time>
      </trkpt>
      <trkpt lat="43.46529" lon="6.31582">
        <ele>102</ele>
        <time>2023-03-03T14:16:39Z</time>
      </trkpt>
      <trkpt lat="43.46528" lon="6.31583">
        <ele>102.2</ele>
        <time>2023-03-03T14:16:40Z</time>
      </trkpt>
      <trkpt lat="43.46527" lon="6.31584">
        <ele>102.3</ele>
        <time>2023-03-03T14:16:41Z</time>
      </trkpt>
      <trkpt lat="43.46526" lon="6.31585">
        <ele>102.4</ele>
        <time>2023-03-03T14:16:42Z</time>
      </trkpt>
      <trkpt lat="43.46525" lon="6.31586">
        <ele>102.5</ele>
        <time>2023-03-03T14:16:43Z</time>
      </trkpt>
      <trkpt lat="43.46524" lon="6.31586">
        <ele>102.6</ele>
        <time>2023-03-03T14:16:44Z</time>
      </trkpt>
      <trkpt lat="43.46523" lon="6.31587">
        <ele>102.8</ele>
        <time>2023-03-03T14:16:45Z</time>
      </trkpt>
      <trkpt lat="43.46522" lon="6.31588">
        <ele>102.8</ele>
        <time>2023-03-03T14:16:46Z</time>
      </trkpt>
      <trkpt lat="43.46521" lon="6.31589">
        <ele>102.9</ele>
        <time>2023-03-03T14:16:47Z</time>
      </trkpt>
      <trkpt lat="43.4652" lon="6.3159">
        <ele>102.9</ele>
        <time>2023-03-03T14:16:48Z</time>
      </trkpt>
      <trkpt lat="43.46519" lon="6.31591">
        <ele>103</ele>
        <time>2023-03-03T14:16:49Z</time>
      </trkpt>
      <trkpt lat="43.46518" lon="6.31591">
        <ele>103.2</ele>
        <time>2023-03-03T14:16:50Z</time>
      </trkpt>
      <trkpt lat="43.46517" lon="6.31592">
        <ele>103.3</ele>
        <time>2023-03-03T14:16:51Z</time>
      </trkpt>
      <trkpt lat="43.46516" lon="6.31592">
        <ele>103.5</ele>
        <time>2023-03-03T14:16:52Z</time>
      </trkpt>
      <trkpt lat="43.46515" lon="6.31593">
        <ele>103.6</ele>
        <time>2023-03-03T14:16:53Z</time>
      </trkpt>
      <trkpt lat="43.46514" lon="6.31593">
        <ele>103.7</ele>
        <time>2023-03-03T14:16:54Z</time>
      </trkpt>
      <trkpt lat="43.46513" lon="6.31594">
        <ele>103.8</ele>
        <time>2023-03-03T14:16:55Z</time>
      </trkpt>
      <trkpt lat="43.46512" lon="6.31594">
        <ele>103.9</ele>
        <time>2023-03-03T14:16:56Z</time>
      </trkpt>
      <trkpt lat="43.46511" lon="6.31595">
        <ele>104</ele>
        <time>2023-03-03T14:16:57Z</time>
      </trkpt>
      <trkpt lat="43.4651" lon="6.31596">
        <ele>104.1</ele>
        <time>2023-03-03T14:16:58Z</time>
      </trkpt>
      <trkpt lat="43.46509" lon="6.31596">
        <ele>104.2</ele>
        <time>2023-03-03T14:16:59Z</time>
      </trkpt>
      <trkpt lat="43.46508" lon="6.31598">
        <ele>104.4</ele>
        <time>2023-03-03T14:17:00Z</time>
      </trkpt>
      <trkpt lat="43.46507" lon="6.31598">
        <ele>104.5</ele>
        <time>2023-03-03T14:17:01Z</time>
      </trkpt>
      <trkpt lat="43.46506" lon="6.31599">
        <ele>104.7</ele>
        <time>2023-03-03T14:17:02Z</time>
      </trkpt>
      <trkpt lat="43.46505" lon="6.316">
        <ele>104.8</ele>
        <time>2023-03-03T14:17:03Z</time>
      </trkpt>
      <trkpt lat="43.46504" lon="6.316">
        <ele>104.9</ele>
        <time>2023-03-03T14:17:04Z</time>
      </trkpt>
      <trkpt lat="43.46503" lon="6.31599">
        <ele>105.1</ele>
        <time>2023-03-03T14:17:05Z</time>
      </trkpt>
      <trkpt lat="43.46503" lon="6.31599">
        <ele>105.3</ele>
        <time>2023-03-03T14:17:06Z</time>
      </trkpt>
      <trkpt lat="43.46502" lon="6.31599">
        <ele>105.4</ele>
        <time>2023-03-03T14:17:07Z</time>
      </trkpt>
      <trkpt lat="43.46502" lon="6.31598">
        <ele>105.5</ele>
        <time>2023-03-03T14:17:08Z</time>
      </trkpt>
      <trkpt lat="43.46501" lon="6.31598">
        <ele>105.5</ele>
        <time>2023-03-03T14:17:09Z</time>
      </trkpt>
      <trkpt lat="43.46501" lon="6.316">
        <ele>105.8</ele>
        <time>2023-03-03T14:17:10Z</time>
      </trkpt>
      <trkpt lat="43.465" lon="6.31601">
        <ele>105.9</ele>
        <time>2023-03-03T14:17:11Z</time>
      </trkpt>
      <trkpt lat="43.465" lon="6.31602">
        <ele>106</ele>
        <time>2023-03-03T14:17:12Z</time>
      </trkpt>
      <trkpt lat="43.465" lon="6.31603">
        <ele>106</ele>
        <time>2023-03-03T14:17:13Z</time>
      </trkpt>
      <trkpt lat="43.465" lon="6.31603">
        <ele>106.1</ele>
        <time>2023-03-03T14:17:14Z</time>
      </trkpt>
      <trkpt lat="43.465" lon="6.31604">
        <ele>106.3</ele>
        <time>2023-03-03T14:17:15Z</time>
      </trkpt>
      <trkpt lat="43.465" lon="6.31604">
        <ele>106.3</ele>
        <time>2023-03-03T14:17:16Z</time>
      </trkpt>
      <trkpt lat="43.46501" lon="6.31605">
        <ele>106.3</ele>
        <time>2023-03-03T14:17:17Z</time>
      </trkpt>
      <trkpt lat="43.46501" lon="6.31605">
        <ele>106.3</ele>
        <time>2023-03-03T14:17:18Z</time>
      </trkpt>
      <trkpt lat="43.46501" lon="6.31605">
        <ele>106.3</ele>
        <time>2023-03-03T14:17:19Z</time>
      </trkpt>
      <trkpt lat="43.46501" lon="6.31605">
        <ele>106.3</ele>
        <time>2023-03-03T14:17:20Z</time>
      </trkpt>
      <trkpt lat="43.46501" lon="6.31606">
        <ele>106.3</ele>
        <time>2023-03-03T14:17:21Z</time>
      </trkpt>
      <trkpt lat="43.46501" lon="6.31606">
        <ele>106.3</ele>
        <time>2023-03-03T14:17:22Z</time>
      </trkpt>
      <trkpt lat="43.46501" lon="6.31606">
        <ele>106.3</ele>
        <time>2023-03-03T14:17:23Z</time>
      </trkpt>
      <trkpt lat="43.46501" lon="6.31606">
        <ele>106.3</ele>
        <time>2023-03-03T14:17:24Z</time>
      </trkpt>
      <trkpt lat="43.46501" lon="6.31606">
        <ele>106.2</ele>
        <time>2023-03-03T14:17:25Z</time>
      </trkpt>
      <trkpt lat="43.46501" lon="6.31606">
        <ele>106.2</ele>
        <time>2023-03-03T14:17:26Z</time>
      </trkpt>
      <trkpt lat="43.46501" lon="6.31606">
        <ele>106.2</ele>
        <time>2023-03-03T14:17:27Z</time>
      </trkpt>
      <trkpt lat="43.46501" lon="6.31607">
        <ele>106.2</ele>
        <time>2023-03-03T14:17:28Z</time>
      </trkpt>
      <trkpt lat="43.46501" lon="6.31607">
        <ele>106.2</ele>
        <time>2023-03-03T14:17:29Z</time>
      </trkpt>
      <trkpt lat="43.46501" lon="6.31607">
        <ele>106.3</ele>
        <time>2023-03-03T14:17:30Z</time>
      </trkpt>
      <trkpt lat="43.46501" lon="6.31607">
        <ele>106.3</ele>
        <time>2023-03-03T14:17:31Z</time>
      </trkpt>
      <trkpt lat="43.46501" lon="6.31607">
        <ele>106.4</ele>
        <time>2023-03-03T14:17:32Z</time>
      </trkpt>
      <trkpt lat="43.46501" lon="6.31608">
        <ele>106.4</ele>
        <time>2023-03-03T14:17:33Z</time>
      </trkpt>
      <trkpt lat="43.46501" lon="6.31608">
        <ele>106.5</ele>
        <time>2023-03-03T14:17:34Z</time>
      </trkpt>
      <trkpt lat="43.46502" lon="6.31608">
        <ele>106.6</ele>
        <time>2023-03-03T14:17:35Z</time>
      </trkpt>
      <trkpt lat="43.46501" lon="6.31608">
        <ele>106.6</ele>
        <time>2023-03-03T14:17:36Z</time>
      </trkpt>
      <trkpt lat="43.46501" lon="6.31607">
        <ele>106.6</ele>
        <time>2023-03-03T14:17:37Z</time>
      </trkpt>
      <trkpt lat="43.46501" lon="6.31607">
        <ele>106.7</ele>
        <time>2023-03-03T14:17:38Z</time>
      </trkpt>
      <trkpt lat="43.46501" lon="6.31608">
        <ele>106.6</ele>
        <time>2023-03-03T14:17:39Z</time>
      </trkpt>
      <trkpt lat="43.46501" lon="6.31608">
        <ele>106.5</ele>
        <time>2023-03-03T14:17:40Z</time>
      </trkpt>
      <trkpt lat="43.46501" lon="6.31607">
        <ele>106.6</ele>
        <time>2023-03-03T14:17:41Z</time>
      </trkpt>
      <trkpt lat="43.46501" lon="6.31608">
        <ele>106.6</ele>
        <time>2023-03-03T14:17:42Z</time>
      </trkpt>
      <trkpt lat="43.46501" lon="6.31608">
        <ele>106.7</ele>
        <time>2023-03-03T14:17:43Z</time>
      </trkpt>
      <trkpt lat="43.46501" lon="6.31607">
        <ele>106.8</ele>
        <time>2023-03-03T14:17:44Z</time>
      </trkpt>
      <trkpt lat="43.46501" lon="6.31607">
        <ele>106.7</ele>
        <time>2023-03-03T14:17:45Z</time>
      </trkpt>
      <trkpt lat="43.46501" lon="6.31607">
        <ele>106.8</ele>
        <time>2023-03-03T14:17:46Z</time>
      </trkpt>
      <trkpt lat="43.465" lon="6.31607">
        <ele>106.8</ele>
        <time>2023-03-03T14:17:47Z</time>
      </trkpt>
      <trkpt lat="43.46501" lon="6.31608">
        <ele>106.8</ele>
        <time>2023-03-03T14:17:48Z</time>
      </trkpt>
      <trkpt lat="43.465" lon="6.31607">
        <ele>106.8</ele>
        <time>2023-03-03T14:17:49Z</time>
      </trkpt>
      <trkpt lat="43.465" lon="6.31608">
        <ele>106.8</ele>
        <time>2023-03-03T14:17:50Z</time>
      </trkpt>
      <trkpt lat="43.465" lon="6.31608">
        <ele>106.8</ele>
        <time>2023-03-03T14:17:51Z</time>
      </trkpt>
      <trkpt lat="43.465" lon="6.31608">
        <ele>106.8</ele>
        <time>2023-03-03T14:17:52Z</time>
      </trkpt>
      <trkpt lat="43.465" lon="6.31608">
        <ele>106.8</ele>
        <time>2023-03-03T14:17:53Z</time>
      </trkpt>
      <trkpt lat="43.465" lon="6.31609">
        <ele>106.7</ele>
        <time>2023-03-03T14:17:54Z</time>
      </trkpt>
      <trkpt lat="43.465" lon="6.31609">
        <ele>106.7</ele>
        <time>2023-03-03T14:17:55Z</time>
      </trkpt>
      <trkpt lat="43.465" lon="6.31609">
        <ele>106.8</ele>
        <time>2023-03-03T14:17:56Z</time>
      </trkpt>
      <trkpt lat="43.465" lon="6.31609">
        <ele>106.8</ele>
        <time>2023-03-03T14:17:57Z</time>
      </trkpt>
      <trkpt lat="43.465" lon="6.31609">
        <ele>106.8</ele>
        <time>2023-03-03T14:17:58Z</time>
      </trkpt>
      <trkpt lat="43.465" lon="6.31609">
        <ele>106.7</ele>
        <time>2023-03-03T14:17:59Z</time>
      </trkpt>
      <trkpt lat="43.465" lon="6.3161">
        <ele>106.7</ele>
        <time>2023-03-03T14:18:00Z</time>
      </trkpt>
      <trkpt lat="43.465" lon="6.3161">
        <ele>106.7</ele>
        <time>2023-03-03T14:18:01Z</time>
      </trkpt>
      <trkpt lat="43.465" lon="6.3161">
        <ele>106.7</ele>
        <time>2023-03-03T14:18:02Z</time>
      </trkpt>
      <trkpt lat="43.465" lon="6.3161">
        <ele>106.7</ele>
        <time>2023-03-03T14:18:03Z</time>
      </trkpt>
      <trkpt lat="43.465" lon="6.3161">
        <ele>106.6</ele>
        <time>2023-03-03T14:18:04Z</time>
      </trkpt>
      <trkpt lat="43.465" lon="6.31611">
        <ele>106.6</ele>
        <time>2023-03-03T14:18:05Z</time>
      </trkpt>
      <trkpt lat="43.465" lon="6.31611">
        <ele>106.6</ele>
        <time>2023-03-03T14:18:06Z</time>
      </trkpt>
      <trkpt lat="43.465" lon="6.31611">
        <ele>106.7</ele>
        <time>2023-03-03T14:18:07Z</time>
      </trkpt>
      <trkpt lat="43.465" lon="6.31611">
        <ele>106.8</ele>
        <time>2023-03-03T14:18:08Z</time>
      </trkpt>
      <trkpt lat="43.465" lon="6.31611">
        <ele>106.8</ele>
        <time>2023-03-03T14:18:09Z</time>
      </trkpt>
      <trkpt lat="43.465" lon="6.31611">
        <ele>106.8</ele>
        <time>2023-03-03T14:18:10Z</time>
      </trkpt>
      <trkpt lat="43.465" lon="6.31611">
        <ele>106.8</ele>
        <time>2023-03-03T14:18:11Z</time>
      </trkpt>
      <trkpt lat="43.465" lon="6.31611">
        <ele>106.8</ele>
        <time>2023-03-03T14:18:12Z</time>
      </trkpt>
      <trkpt lat="43.465" lon="6.31611">
        <ele>106.8</ele>
        <time>2023-03-03T14:18:13Z</time>
      </trkpt>
      <trkpt lat="43.465" lon="6.31611">
        <ele>106.8</ele>
        <time>2023-03-03T14:18:14Z</time>
      </trkpt>
      <trkpt lat="43.465" lon="6.31611">
        <ele>106.8</ele>
        <time>2023-03-03T14:18:15Z</time>
      </trkpt>
      <trkpt lat="43.465" lon="6.31611">
        <ele>106.8</ele>
        <time>2023-03-03T14:18:16Z</time>
      </trkpt>
      <trkpt lat="43.46501" lon="6.31612">
        <ele>106.8</ele>
        <time>2023-03-03T14:18:17Z</time>
      </trkpt>
      <trkpt lat="43.46501" lon="6.31612">
        <ele>106.8</ele>
        <time>2023-03-03T14:18:18Z</time>
      </trkpt>
      <trkpt lat="43.46501" lon="6.31612">
        <ele>106.8</ele>
        <time>2023-03-03T14:18:19Z</time>
      </trkpt>
      <trkpt lat="43.465" lon="6.31612">
        <ele>106.8</ele>
        <time>2023-03-03T14:18:20Z</time>
      </trkpt>
      <trkpt lat="43.465" lon="6.31612">
        <ele>106.8</ele>
        <time>2023-03-03T14:18:21Z</time>
      </trkpt>
      <trkpt lat="43.465" lon="6.31612">
        <ele>106.7</ele>
        <time>2023-03-03T14:18:22Z</time>
      </trkpt>
      <trkpt lat="43.465" lon="6.31612">
        <ele>106.6</ele>
        <time>2023-03-03T14:18:23Z</time>
      </trkpt>
      <trkpt lat="43.465" lon="6.31612">
        <ele>106.6</ele>
        <time>2023-03-03T14:18:24Z</time>
      </trkpt>
      <trkpt lat="43.465" lon="6.31612">
        <ele>106.5</ele>
        <time>2023-03-03T14:18:25Z</time>
      </trkpt>
      <trkpt lat="43.465" lon="6.31612">
        <ele>106.5</ele>
        <time>2023-03-03T14:18:26Z</time>
      </trkpt>
      <trkpt lat="43.465" lon="6.31612">
        <ele>106.5</ele>
        <time>2023-03-03T14:18:27Z</time>
      </trkpt>
      <trkpt lat="43.46501" lon="6.31612">
        <ele>106.5</ele>
        <time>2023-03-03T14:18:28Z</time>
      </trkpt>
      <trkpt lat="43.46501" lon="6.31612">
        <ele>106.5</ele>
        <time>2023-03-03T14:18:29Z</time>
      </trkpt>
      <trkpt lat="43.46501" lon="6.31612">
        <ele>106.4</ele>
        <time>2023-03-03T14:18:30Z</time>
      </trkpt>
      <trkpt lat="43.465" lon="6.31612">
        <ele>106.5</ele>
        <time>2023-03-03T14:18:31Z</time>
      </trkpt>
      <trkpt lat="43.46499" lon="6.31611">
        <ele>106.5</ele>
        <time>2023-03-03T14:18:32Z</time>
      </trkpt>
      <trkpt lat="43.46499" lon="6.31611">
        <ele>106.6</ele>
        <time>2023-03-03T14:18:33Z</time>
      </trkpt>
      <trkpt lat="43.46498" lon="6.31611">
        <ele>106.7</ele>
        <time>2023-03-03T14:18:34Z</time>
      </trkpt>
      <trkpt lat="43.46498" lon="6.31612">
        <ele>106.8</ele>
        <time>2023-03-03T14:18:35Z</time>
      </trkpt>
      <trkpt lat="43.46498" lon="6.31612">
        <ele>106.8</ele>
        <time>2023-03-03T14:18:36Z</time>
      </trkpt>
      <trkpt lat="43.46498" lon="6.31612">
        <ele>106.8</ele>
        <time>2023-03-03T14:18:37Z</time>
      </trkpt>
      <trkpt lat="43.46498" lon="6.31611">
        <ele>106.8</ele>
        <time>2023-03-03T14:18:38Z</time>
      </trkpt>
      <trkpt lat="43.46497" lon="6.31611">
        <ele>106.8</ele>
        <time>2023-03-03T14:18:39Z</time>
      </trkpt>
      <trkpt lat="43.46497" lon="6.31611">
        <ele>106.9</ele>
        <time>2023-03-03T14:18:40Z</time>
      </trkpt>
      <trkpt lat="43.46496" lon="6.31611">
        <ele>107</ele>
        <time>2023-03-03T14:18:41Z</time>
      </trkpt>
      <trkpt lat="43.46496" lon="6.31612">
        <ele>107.1</ele>
        <time>2023-03-03T14:18:42Z</time>
      </trkpt>
      <trkpt lat="43.46495" lon="6.31612">
        <ele>107.1</ele>
        <time>2023-03-03T14:18:43Z</time>
      </trkpt>
      <trkpt lat="43.46494" lon="6.31612">
        <ele>107.2</ele>
        <time>2023-03-03T14:18:44Z</time>
      </trkpt>
      <trkpt lat="43.46494" lon="6.31613">
        <ele>107.2</ele>
        <time>2023-03-03T14:18:45Z</time>
      </trkpt>
      <trkpt lat="43.46493" lon="6.31613">
        <ele>107.3</ele>
        <time>2023-03-03T14:18:46Z</time>
      </trkpt>
      <trkpt lat="43.46493" lon="6.31613">
        <ele>107.4</ele>
        <time>2023-03-03T14:18:47Z</time>
      </trkpt>
      <trkpt lat="43.46492" lon="6.31614">
        <ele>107.4</ele>
        <time>2023-03-03T14:18:48Z</time>
      </trkpt>
      <trkpt lat="43.46491" lon="6.31614">
        <ele>107.5</ele>
        <time>2023-03-03T14:18:49Z</time>
      </trkpt>
      <trkpt lat="43.4649" lon="6.31614">
        <ele>107.6</ele>
        <time>2023-03-03T14:18:50Z</time>
      </trkpt>
      <trkpt lat="43.46489" lon="6.31614">
        <ele>107.7</ele>
        <time>2023-03-03T14:18:51Z</time>
      </trkpt>
      <trkpt lat="43.46488" lon="6.31615">
        <ele>107.8</ele>
        <time>2023-03-03T14:18:52Z</time>
      </trkpt>
      <trkpt lat="43.46487" lon="6.31616">
        <ele>107.8</ele>
        <time>2023-03-03T14:18:53Z</time>
      </trkpt>
      <trkpt lat="43.46486" lon="6.31616">
        <ele>107.8</ele>
        <time>2023-03-03T14:18:54Z</time>
      </trkpt>
      <trkpt lat="43.46486" lon="6.31617">
        <ele>107.8</ele>
        <time>2023-03-03T14:18:55Z</time>
      </trkpt>
      <trkpt lat="43.46485" lon="6.31618">
        <ele>107.8</ele>
        <time>2023-03-03T14:18:56Z</time>
      </trkpt>
      <trkpt lat="43.46485" lon="6.31619">
        <ele>107.8</ele>
        <time>2023-03-03T14:18:57Z</time>
      </trkpt>
      <trkpt lat="43.46485" lon="6.31619">
        <ele>107.8</ele>
        <time>2023-03-03T14:18:58Z</time>
      </trkpt>
      <trkpt lat="43.46485" lon="6.3162">
        <ele>107.8</ele>
        <time>2023-03-03T14:18:59Z</time>
      </trkpt>
      <trkpt lat="43.46485" lon="6.3162">
        <ele>108</ele>
        <time>2023-03-03T14:19:00Z</time>
      </trkpt>
      <trkpt lat="43.46485" lon="6.3162">
        <ele>108</ele>
        <time>2023-03-03T14:19:01Z</time>
      </trkpt>
      <trkpt lat="43.46485" lon="6.3162">
        <ele>108</ele>
        <time>2023-03-03T14:19:02Z</time>
      </trkpt>
      <trkpt lat="43.46485" lon="6.31621">
        <ele>107.9</ele>
        <time>2023-03-03T14:19:03Z</time>
      </trkpt>
      <trkpt lat="43.46485" lon="6.31621">
        <ele>108</ele>
        <time>2023-03-03T14:19:04Z</time>
      </trkpt>
      <trkpt lat="43.46486" lon="6.31621">
        <ele>108</ele>
        <time>2023-03-03T14:19:05Z</time>
      </trkpt>
      <trkpt lat="43.46485" lon="6.31621">
        <ele>108</ele>
        <time>2023-03-03T14:19:06Z</time>
      </trkpt>
      <trkpt lat="43.46486" lon="6.31621">
        <ele>108</ele>
        <time>2023-03-03T14:19:07Z</time>
      </trkpt>
      <trkpt lat="43.46486" lon="6.31622">
        <ele>108</ele>
        <time>2023-03-03T14:19:08Z</time>
      </trkpt>
      <trkpt lat="43.46486" lon="6.31622">
        <ele>108</ele>
        <time>2023-03-03T14:19:09Z</time>
      </trkpt>
      <trkpt lat="43.46486" lon="6.31622">
        <ele>108</ele>
        <time>2023-03-03T14:19:10Z</time>
      </trkpt>
      <trkpt lat="43.46486" lon="6.31622">
        <ele>108</ele>
        <time>2023-03-03T14:19:11Z</time>
      </trkpt>
      <trkpt lat="43.46486" lon="6.31622">
        <ele>108</ele>
        <time>2023-03-03T14:19:12Z</time>
      </trkpt>
      <trkpt lat="43.46486" lon="6.31623">
        <ele>108</ele>
        <time>2023-03-03T14:19:13Z</time>
      </trkpt>
      <trkpt lat="43.46486" lon="6.31623">
        <ele>108</ele>
        <time>2023-03-03T14:19:14Z</time>
      </trkpt>
      <trkpt lat="43.46487" lon="6.31623">
        <ele>108</ele>
        <time>2023-03-03T14:19:15Z</time>
      </trkpt>
      <trkpt lat="43.46487" lon="6.31623">
        <ele>108</ele>
        <time>2023-03-03T14:19:16Z</time>
      </trkpt>
      <trkpt lat="43.46487" lon="6.31624">
        <ele>108.1</ele>
        <time>2023-03-03T14:19:17Z</time>
      </trkpt>
      <trkpt lat="43.46487" lon="6.31624">
        <ele>108.1</ele>
        <time>2023-03-03T14:19:18Z</time>
      </trkpt>
      <trkpt lat="43.46487" lon="6.31624">
        <ele>108.1</ele>
        <time>2023-03-03T14:19:19Z</time>
      </trkpt>
      <trkpt lat="43.46487" lon="6.31625">
        <ele>108</ele>
        <time>2023-03-03T14:19:20Z</time>
      </trkpt>
      <trkpt lat="43.46487" lon="6.31625">
        <ele>108</ele>
        <time>2023-03-03T14:19:21Z</time>
      </trkpt>
      <trkpt lat="43.46488" lon="6.31625">
        <ele>108</ele>
        <time>2023-03-03T14:19:22Z</time>
      </trkpt>
      <trkpt lat="43.46488" lon="6.31625">
        <ele>107.9</ele>
        <time>2023-03-03T14:19:23Z</time>
      </trkpt>
      <trkpt lat="43.46487" lon="6.31625">
        <ele>107.9</ele>
        <time>2023-03-03T14:19:24Z</time>
      </trkpt>
      <trkpt lat="43.46487" lon="6.31625">
        <ele>107.8</ele>
        <time>2023-03-03T14:19:25Z</time>
      </trkpt>
      <trkpt lat="43.46487" lon="6.31625">
        <ele>107.8</ele>
        <time>2023-03-03T14:19:26Z</time>
      </trkpt>
      <trkpt lat="43.46487" lon="6.31625">
        <ele>107.9</ele>
        <time>2023-03-03T14:19:27Z</time>
      </trkpt>
      <trkpt lat="43.46487" lon="6.31625">
        <ele>107.9</ele>
        <time>2023-03-03T14:19:28Z</time>
      </trkpt>
      <trkpt lat="43.46487" lon="6.31625">
        <ele>108</ele>
        <time>2023-03-03T14:19:29Z</time>
      </trkpt>
      <trkpt lat="43.46487" lon="6.31625">
        <ele>107.9</ele>
        <time>2023-03-03T14:19:30Z</time>
      </trkpt>
      <trkpt lat="43.46487" lon="6.31626">
        <ele>107.9</ele>
        <time>2023-03-03T14:19:31Z</time>
      </trkpt>
      <trkpt lat="43.46487" lon="6.31626">
        <ele>107.8</ele>
        <time>2023-03-03T14:19:32Z</time>
      </trkpt>
      <trkpt lat="43.46487" lon="6.31626">
        <ele>107.8</ele>
        <time>2023-03-03T14:19:33Z</time>
      </trkpt>
      <trkpt lat="43.46487" lon="6.31626">
        <ele>107.7</ele>
        <time>2023-03-03T14:19:34Z</time>
      </trkpt>
      <trkpt lat="43.46487" lon="6.31626">
        <ele>107.8</ele>
        <time>2023-03-03T14:19:35Z</time>
      </trkpt>
      <trkpt lat="43.46487" lon="6.31626">
        <ele>107.8</ele>
        <time>2023-03-03T14:19:36Z</time>
      </trkpt>
      <trkpt lat="43.46487" lon="6.31625">
        <ele>107.8</ele>
        <time>2023-03-03T14:19:37Z</time>
      </trkpt>
      <trkpt lat="43.46487" lon="6.31625">
        <ele>107.8</ele>
        <time>2023-03-03T14:19:38Z</time>
      </trkpt>
      <trkpt lat="43.46487" lon="6.31626">
        <ele>107.9</ele>
        <time>2023-03-03T14:19:39Z</time>
      </trkpt>
      <trkpt lat="43.46487" lon="6.31626">
        <ele>107.9</ele>
        <time>2023-03-03T14:19:40Z</time>
      </trkpt>
      <trkpt lat="43.46487" lon="6.31627">
        <ele>108</ele>
        <time>2023-03-03T14:19:41Z</time>
      </trkpt>
      <trkpt lat="43.46487" lon="6.31627">
        <ele>108.1</ele>
        <time>2023-03-03T14:19:42Z</time>
      </trkpt>
      <trkpt lat="43.46487" lon="6.31627">
        <ele>108.2</ele>
        <time>2023-03-03T14:19:43Z</time>
      </trkpt>
      <trkpt lat="43.46486" lon="6.31628">
        <ele>108.2</ele>
        <time>2023-03-03T14:19:44Z</time>
      </trkpt>
      <trkpt lat="43.46486" lon="6.31629">
        <ele>108.2</ele>
        <time>2023-03-03T14:19:45Z</time>
      </trkpt>
      <trkpt lat="43.46486" lon="6.31629">
        <ele>108.1</ele>
        <time>2023-03-03T14:19:46Z</time>
      </trkpt>
      <trkpt lat="43.46486" lon="6.31629">
        <ele>108</ele>
        <time>2023-03-03T14:19:47Z</time>
      </trkpt>
      <trkpt lat="43.46486" lon="6.3163">
        <ele>108</ele>
        <time>2023-03-03T14:19:48Z</time>
      </trkpt>
      <trkpt lat="43.46486" lon="6.31631">
        <ele>108</ele>
        <time>2023-03-03T14:19:49Z</time>
      </trkpt>
      <trkpt lat="43.46486" lon="6.31631">
        <ele>107.9</ele>
        <time>2023-03-03T14:19:50Z</time>
      </trkpt>
      <trkpt lat="43.46485" lon="6.31632">
        <ele>107.9</ele>
        <time>2023-03-03T14:19:51Z</time>
      </trkpt>
      <trkpt lat="43.46485" lon="6.31632">
        <ele>108</ele>
        <time>2023-03-03T14:19:52Z</time>
      </trkpt>
      <trkpt lat="43.46485" lon="6.31633">
        <ele>108.1</ele>
        <time>2023-03-03T14:19:53Z</time>
      </trkpt>
      <trkpt lat="43.46484" lon="6.31633">
        <ele>108.1</ele>
        <time>2023-03-03T14:19:54Z</time>
      </trkpt>
      <trkpt lat="43.46484" lon="6.31633">
        <ele>108.1</ele>
        <time>2023-03-03T14:19:55Z</time>
      </trkpt>
      <trkpt lat="43.46484" lon="6.31634">
        <ele>108.1</ele>
        <time>2023-03-03T14:19:56Z</time>
      </trkpt>
      <trkpt lat="43.46484" lon="6.31634">
        <ele>108</ele>
        <time>2023-03-03T14:19:57Z</time>
      </trkpt>
      <trkpt lat="43.46484" lon="6.31634">
        <ele>108.1</ele>
        <time>2023-03-03T14:19:58Z</time>
      </trkpt>
      <trkpt lat="43.46484" lon="6.31634">
        <ele>108.2</ele>
        <time>2023-03-03T14:19:59Z</time>
      </trkpt>
      <trkpt lat="43.46484" lon="6.31634">
        <ele>108.1</ele>
        <time>2023-03-03T14:20:00Z</time>
      </trkpt>
      <trkpt lat="43.46484" lon="6.31635">
        <ele>108.1</ele>
        <time>2023-03-03T14:20:01Z</time>
      </trkpt>
      <trkpt lat="43.46484" lon="6.31635">
        <ele>108.1</ele>
        <time>2023-03-03T14:20:02Z</time>
      </trkpt>
      <trkpt lat="43.46483" lon="6.31635">
        <ele>108.1</ele>
        <time>2023-03-03T14:20:03Z</time>
      </trkpt>
      <trkpt lat="43.46483" lon="6.31635">
        <ele>108.1</ele>
        <time>2023-03-03T14:20:04Z</time>
      </trkpt>
      <trkpt lat="43.46484" lon="6.31635">
        <ele>108</ele>
        <time>2023-03-03T14:20:05Z</time>
      </trkpt>
      <trkpt lat="43.46484" lon="6.31635">
        <ele>108.1</ele>
        <time>2023-03-03T14:20:06Z</time>
      </trkpt>
      <trkpt lat="43.46484" lon="6.31636">
        <ele>108.1</ele>
        <time>2023-03-03T14:20:07Z</time>
      </trkpt>
      <trkpt lat="43.46485" lon="6.31636">
        <ele>108.1</ele>
        <time>2023-03-03T14:20:08Z</time>
      </trkpt>
      <trkpt lat="43.46485" lon="6.31637">
        <ele>108.1</ele>
        <time>2023-03-03T14:20:09Z</time>
      </trkpt>
      <trkpt lat="43.46486" lon="6.31637">
        <ele>108</ele>
        <time>2023-03-03T14:20:10Z</time>
      </trkpt>
      <trkpt lat="43.46485" lon="6.31637">
        <ele>108</ele>
        <time>2023-03-03T14:20:11Z</time>
      </trkpt>
      <trkpt lat="43.46485" lon="6.31637">
        <ele>108</ele>
        <time>2023-03-03T14:20:12Z</time>
      </trkpt>
      <trkpt lat="43.46485" lon="6.31638">
        <ele>107.9</ele>
        <time>2023-03-03T14:20:13Z</time>
      </trkpt>
      <trkpt lat="43.46485" lon="6.31639">
        <ele>107.9</ele>
        <time>2023-03-03T14:20:14Z</time>
      </trkpt>
      <trkpt lat="43.46484" lon="6.3164">
        <ele>107.8</ele>
        <time>2023-03-03T14:20:15Z</time>
      </trkpt>
      <trkpt lat="43.46484" lon="6.31641">
        <ele>107.8</ele>
        <time>2023-03-03T14:20:16Z</time>
      </trkpt>
      <trkpt lat="43.46484" lon="6.31642">
        <ele>107.8</ele>
        <time>2023-03-03T14:20:17Z</time>
      </trkpt>
      <trkpt lat="43.46484" lon="6.31642">
        <ele>107.8</ele>
        <time>2023-03-03T14:20:18Z</time>
      </trkpt>
      <trkpt lat="43.46483" lon="6.31644">
        <ele>107.8</ele>
        <time>2023-03-03T14:20:19Z</time>
      </trkpt>
      <trkpt lat="43.46484" lon="6.31645">
        <ele>107.7</ele>
        <time>2023-03-03T14:20:20Z</time>
      </trkpt>
      <trkpt lat="43.46484" lon="6.31646">
        <ele>107.7</ele>
        <time>2023-03-03T14:20:21Z</time>
      </trkpt>
      <trkpt lat="43.46484" lon="6.31647">
        <ele>107.7</ele>
        <time>2023-03-03T14:20:22Z</time>
      </trkpt>
      <trkpt lat="43.46483" lon="6.31648">
        <ele>107.6</ele>
        <time>2023-03-03T14:20:23Z</time>
      </trkpt>
      <trkpt lat="43.46483" lon="6.31649">
        <ele>107.5</ele>
        <time>2023-03-03T14:20:24Z</time>
      </trkpt>
      <trkpt lat="43.46483" lon="6.31651">
        <ele>107.5</ele>
        <time>2023-03-03T14:20:25Z</time>
      </trkpt>
      <trkpt lat="43.46482" lon="6.31652">
        <ele>107.5</ele>
        <time>2023-03-03T14:20:26Z</time>
      </trkpt>
      <trkpt lat="43.46483" lon="6.31653">
        <ele>107.4</ele>
        <time>2023-03-03T14:20:27Z</time>
      </trkpt>
      <trkpt lat="43.46483" lon="6.31654">
        <ele>107.4</ele>
        <time>2023-03-03T14:20:28Z</time>
      </trkpt>
      <trkpt lat="43.46483" lon="6.31656">
        <ele>107.3</ele>
        <time>2023-03-03T14:20:29Z</time>
      </trkpt>
      <trkpt lat="43.46482" lon="6.31657">
        <ele>107.3</ele>
        <time>2023-03-03T14:20:30Z</time>
      </trkpt>
      <trkpt lat="43.46482" lon="6.31658">
        <ele>107.2</ele>
        <time>2023-03-03T14:20:31Z</time>
      </trkpt>
      <trkpt lat="43.46482" lon="6.31659">
        <ele>107.1</ele>
        <time>2023-03-03T14:20:32Z</time>
      </trkpt>
      <trkpt lat="43.46482" lon="6.31661">
        <ele>107.1</ele>
        <time>2023-03-03T14:20:33Z</time>
      </trkpt>
      <trkpt lat="43.46481" lon="6.31662">
        <ele>107</ele>
        <time>2023-03-03T14:20:34Z</time>
      </trkpt>
      <trkpt lat="43.46481" lon="6.31663">
        <ele>107</ele>
        <time>2023-03-03T14:20:35Z</time>
      </trkpt>
      <trkpt lat="43.46481" lon="6.31664">
        <ele>107</ele>
        <time>2023-03-03T14:20:36Z</time>
      </trkpt>
      <trkpt lat="43.46481" lon="6.31666">
        <ele>107</ele>
        <time>2023-03-03T14:20:37Z</time>
      </trkpt>
      <trkpt lat="43.46481" lon="6.31667">
        <ele>107</ele>
        <time>2023-03-03T14:20:38Z</time>
      </trkpt>
      <trkpt lat="43.4648" lon="6.31668">
        <ele>107</ele>
        <time>2023-03-03T14:20:39Z</time>
      </trkpt>
      <trkpt lat="43.4648" lon="6.31669">
        <ele>107</ele>
        <time>2023-03-03T14:20:40Z</time>
      </trkpt>
      <trkpt lat="43.46479" lon="6.3167">
        <ele>106.9</ele>
        <time>2023-03-03T14:20:41Z</time>
      </trkpt>
      <trkpt lat="43.46479" lon="6.31671">
        <ele>106.9</ele>
        <time>2023-03-03T14:20:42Z</time>
      </trkpt>
      <trkpt lat="43.46479" lon="6.31672">
        <ele>106.8</ele>
        <time>2023-03-03T14:20:43Z</time>
      </trkpt>
      <trkpt lat="43.46478" lon="6.31673">
        <ele>106.6</ele>
        <time>2023-03-03T14:20:44Z</time>
      </trkpt>
      <trkpt lat="43.46478" lon="6.31675">
        <ele>106.6</ele>
        <time>2023-03-03T14:20:45Z</time>
      </trkpt>
      <trkpt lat="43.46478" lon="6.31676">
        <ele>106.5</ele>
        <time>2023-03-03T14:20:46Z</time>
      </trkpt>
      <trkpt lat="43.46478" lon="6.31678">
        <ele>106.4</ele>
        <time>2023-03-03T14:20:47Z</time>
      </trkpt>
      <trkpt lat="43.46477" lon="6.31679">
        <ele>106.4</ele>
        <time>2023-03-03T14:20:48Z</time>
      </trkpt>
      <trkpt lat="43.46477" lon="6.3168">
        <ele>106.3</ele>
        <time>2023-03-03T14:20:49Z</time>
      </trkpt>
      <trkpt lat="43.46477" lon="6.31682">
        <ele>106.3</ele>
        <time>2023-03-03T14:20:50Z</time>
      </trkpt>
      <trkpt lat="43.46476" lon="6.31683">
        <ele>106.2</ele>
        <time>2023-03-03T14:20:51Z</time>
      </trkpt>
      <trkpt lat="43.46476" lon="6.31684">
        <ele>106</ele>
        <time>2023-03-03T14:20:52Z</time>
      </trkpt>
      <trkpt lat="43.46476" lon="6.31685">
        <ele>106</ele>
        <time>2023-03-03T14:20:53Z</time>
      </trkpt>
      <trkpt lat="43.46475" lon="6.31687">
        <ele>105.9</ele>
        <time>2023-03-03T14:20:54Z</time>
      </trkpt>
      <trkpt lat="43.46475" lon="6.31688">
        <ele>105.8</ele>
        <time>2023-03-03T14:20:55Z</time>
      </trkpt>
      <trkpt lat="43.46474" lon="6.3169">
        <ele>105.7</ele>
        <time>2023-03-03T14:20:56Z</time>
      </trkpt>
      <trkpt lat="43.46474" lon="6.31691">
        <ele>105.6</ele>
        <time>2023-03-03T14:20:57Z</time>
      </trkpt>
      <trkpt lat="43.46474" lon="6.31692">
        <ele>105.6</ele>
        <time>2023-03-03T14:20:58Z</time>
      </trkpt>
      <trkpt lat="43.46473" lon="6.31693">
        <ele>105.4</ele>
        <time>2023-03-03T14:20:59Z</time>
      </trkpt>
      <trkpt lat="43.46473" lon="6.31695">
        <ele>105.3</ele>
        <time>2023-03-03T14:21:00Z</time>
      </trkpt>
      <trkpt lat="43.46473" lon="6.31696">
        <ele>105.2</ele>
        <time>2023-03-03T14:21:01Z</time>
      </trkpt>
      <trkpt lat="43.46473" lon="6.31698">
        <ele>105.1</ele>
        <time>2023-03-03T14:21:02Z</time>
      </trkpt>
      <trkpt lat="43.46473" lon="6.31699">
        <ele>105</ele>
        <time>2023-03-03T14:21:03Z</time>
      </trkpt>
      <trkpt lat="43.46473" lon="6.31701">
        <ele>104.9</ele>
        <time>2023-03-03T14:21:04Z</time>
      </trkpt>
      <trkpt lat="43.46473" lon="6.31702">
        <ele>104.8</ele>
        <time>2023-03-03T14:21:05Z</time>
      </trkpt>
      <trkpt lat="43.46474" lon="6.31704">
        <ele>104.7</ele>
        <time>2023-03-03T14:21:06Z</time>
      </trkpt>
      <trkpt lat="43.46474" lon="6.31706">
        <ele>104.5</ele>
        <time>2023-03-03T14:21:07Z</time>
      </trkpt>
      <trkpt lat="43.46474" lon="6.31708">
        <ele>104.3</ele>
        <time>2023-03-03T14:21:08Z</time>
      </trkpt>
      <trkpt lat="43.46475" lon="6.31709">
        <ele>104.2</ele>
        <time>2023-03-03T14:21:09Z</time>
      </trkpt>
      <trkpt lat="43.46476" lon="6.31711">
        <ele>104.1</ele>
        <time>2023-03-03T14:21:10Z</time>
      </trkpt>
      <trkpt lat="43.46476" lon="6.31713">
        <ele>104</ele>
        <time>2023-03-03T14:21:11Z</time>
      </trkpt>
      <trkpt lat="43.46476" lon="6.31714">
        <ele>103.8</ele>
        <time>2023-03-03T14:21:12Z</time>
      </trkpt>
      <trkpt lat="43.46476" lon="6.31715">
        <ele>103.7</ele>
        <time>2023-03-03T14:21:13Z</time>
      </trkpt>
      <trkpt lat="43.46477" lon="6.31717">
        <ele>103.6</ele>
        <time>2023-03-03T14:21:14Z</time>
      </trkpt>
      <trkpt lat="43.46477" lon="6.31719">
        <ele>103.4</ele>
        <time>2023-03-03T14:21:15Z</time>
      </trkpt>
      <trkpt lat="43.46478" lon="6.3172">
        <ele>103.3</ele>
        <time>2023-03-03T14:21:16Z</time>
      </trkpt>
      <trkpt lat="43.46478" lon="6.31722">
        <ele>103.2</ele>
        <time>2023-03-03T14:21:17Z</time>
      </trkpt>
      <trkpt lat="43.46479" lon="6.31723">
        <ele>103</ele>
        <time>2023-03-03T14:21:18Z</time>
      </trkpt>
      <trkpt lat="43.46479" lon="6.31724">
        <ele>102.9</ele>
        <time>2023-03-03T14:21:19Z</time>
      </trkpt>
      <trkpt lat="43.4648" lon="6.31725">
        <ele>102.8</ele>
        <time>2023-03-03T14:21:20Z</time>
      </trkpt>
      <trkpt lat="43.4648" lon="6.31727">
        <ele>102.7</ele>
        <time>2023-03-03T14:21:21Z</time>
      </trkpt>
      <trkpt lat="43.4648" lon="6.31728">
        <ele>102.7</ele>
        <time>2023-03-03T14:21:22Z</time>
      </trkpt>
      <trkpt lat="43.4648" lon="6.31729">
        <ele>102.6</ele>
        <time>2023-03-03T14:21:23Z</time>
      </trkpt>
      <trkpt lat="43.46481" lon="6.31731">
        <ele>102.5</ele>
        <time>2023-03-03T14:21:24Z</time>
      </trkpt>
      <trkpt lat="43.46481" lon="6.31732">
        <ele>102.4</ele>
        <time>2023-03-03T14:21:25Z</time>
      </trkpt>
      <trkpt lat="43.46482" lon="6.31733">
        <ele>102.4</ele>
        <time>2023-03-03T14:21:26Z</time>
      </trkpt>
      <trkpt lat="43.46481" lon="6.31735">
        <ele>102.3</ele>
        <time>2023-03-03T14:21:27Z</time>
      </trkpt>
      <trkpt lat="43.46481" lon="6.31736">
        <ele>102.2</ele>
        <time>2023-03-03T14:21:28Z</time>
      </trkpt>
      <trkpt lat="43.46482" lon="6.31738">
        <ele>102.2</ele>
        <time>2023-03-03T14:21:29Z</time>
      </trkpt>
      <trkpt lat="43.46483" lon="6.3174">
        <ele>102.2</ele>
        <time>2023-03-03T14:21:30Z</time>
      </trkpt>
      <trkpt lat="43.46483" lon="6.31741">
        <ele>102.2</ele>
        <time>2023-03-03T14:21:31Z</time>
      </trkpt>
      <trkpt lat="43.46484" lon="6.31742">
        <ele>102.2</ele>
        <time>2023-03-03T14:21:32Z</time>
      </trkpt>
      <trkpt lat="43.46485" lon="6.31743">
        <ele>102.2</ele>
        <time>2023-03-03T14:21:33Z</time>
      </trkpt>
      <trkpt lat="43.46486" lon="6.31744">
        <ele>102.2</ele>
        <time>2023-03-03T14:21:34Z</time>
      </trkpt>
      <trkpt lat="43.46487" lon="6.31745">
        <ele>102.2</ele>
        <time>2023-03-03T14:21:35Z</time>
      </trkpt>
      <trkpt lat="43.46488" lon="6.31747">
        <ele>102.2</ele>
        <time>2023-03-03T14:21:36Z</time>
      </trkpt>
      <trkpt lat="43.46488" lon="6.31748">
        <ele>102.2</ele>
        <time>2023-03-03T14:21:37Z</time>
      </trkpt>
      <trkpt lat="43.46489" lon="6.31749">
        <ele>102.2</ele>
        <time>2023-03-03T14:21:38Z</time>
      </trkpt>
      <trkpt lat="43.4649" lon="6.3175">
        <ele>102.2</ele>
        <time>2023-03-03T14:21:39Z</time>
      </trkpt>
      <trkpt lat="43.4649" lon="6.31751">
        <ele>102.1</ele>
        <time>2023-03-03T14:21:40Z</time>
      </trkpt>
      <trkpt lat="43.46491" lon="6.31752">
        <ele>102</ele>
        <time>2023-03-03T14:21:41Z</time>
      </trkpt>
      <trkpt lat="43.46492" lon="6.31753">
        <ele>101.9</ele>
        <time>2023-03-03T14:21:42Z</time>
      </trkpt>
      <trkpt lat="43.46492" lon="6.31755">
        <ele>101.8</ele>
        <time>2023-03-03T14:21:43Z</time>
      </trkpt>
      <trkpt lat="43.46493" lon="6.31756">
        <ele>101.8</ele>
        <time>2023-03-03T14:21:44Z</time>
      </trkpt>
      <trkpt lat="43.46494" lon="6.31757">
        <ele>101.8</ele>
        <time>2023-03-03T14:21:45Z</time>
      </trkpt>
      <trkpt lat="43.46495" lon="6.31758">
        <ele>101.8</ele>
        <time>2023-03-03T14:21:46Z</time>
      </trkpt>
      <trkpt lat="43.46496" lon="6.31759">
        <ele>101.8</ele>
        <time>2023-03-03T14:21:47Z</time>
      </trkpt>
      <trkpt lat="43.46496" lon="6.3176">
        <ele>101.8</ele>
        <time>2023-03-03T14:21:48Z</time>
      </trkpt>
      <trkpt lat="43.46497" lon="6.31761">
        <ele>102</ele>
        <time>2023-03-03T14:21:49Z</time>
      </trkpt>
      <trkpt lat="43.46498" lon="6.31763">
        <ele>102</ele>
        <time>2023-03-03T14:21:50Z</time>
      </trkpt>
      <trkpt lat="43.46499" lon="6.31764">
        <ele>102</ele>
        <time>2023-03-03T14:21:51Z</time>
      </trkpt>
      <trkpt lat="43.46499" lon="6.31765">
        <ele>102</ele>
        <time>2023-03-03T14:21:52Z</time>
      </trkpt>
      <trkpt lat="43.465" lon="6.31766">
        <ele>101.9</ele>
        <time>2023-03-03T14:21:53Z</time>
      </trkpt>
      <trkpt lat="43.465" lon="6.31766">
        <ele>101.9</ele>
        <time>2023-03-03T14:21:54Z</time>
      </trkpt>
      <trkpt lat="43.46501" lon="6.31767">
        <ele>101.9</ele>
        <time>2023-03-03T14:21:55Z</time>
      </trkpt>
      <trkpt lat="43.46501" lon="6.31767">
        <ele>101.9</ele>
        <time>2023-03-03T14:21:56Z</time>
      </trkpt>
      <trkpt lat="43.46501" lon="6.31768">
        <ele>102</ele>
        <time>2023-03-03T14:21:57Z</time>
      </trkpt>
      <trkpt lat="43.46501" lon="6.31768">
        <ele>102</ele>
        <time>2023-03-03T14:21:58Z</time>
      </trkpt>
      <trkpt lat="43.46501" lon="6.31768">
        <ele>102</ele>
        <time>2023-03-03T14:21:59Z</time>
      </trkpt>
      <trkpt lat="43.46501" lon="6.31769">
        <ele>102</ele>
        <time>2023-03-03T14:22:00Z</time>
      </trkpt>
      <trkpt lat="43.46501" lon="6.3177">
        <ele>102</ele>
        <time>2023-03-03T14:22:01Z</time>
      </trkpt>
      <trkpt lat="43.46502" lon="6.31771">
        <ele>102.1</ele>
        <time>2023-03-03T14:22:02Z</time>
      </trkpt>
      <trkpt lat="43.46503" lon="6.31772">
        <ele>102.1</ele>
        <time>2023-03-03T14:22:03Z</time>
      </trkpt>
      <trkpt lat="43.46503" lon="6.31773">
        <ele>102.1</ele>
        <time>2023-03-03T14:22:04Z</time>
      </trkpt>
      <trkpt lat="43.46504" lon="6.31774">
        <ele>102.1</ele>
        <time>2023-03-03T14:22:05Z</time>
      </trkpt>
      <trkpt lat="43.46505" lon="6.31775">
        <ele>102.1</ele>
        <time>2023-03-03T14:22:06Z</time>
      </trkpt>
      <trkpt lat="43.46505" lon="6.31776">
        <ele>102.3</ele>
        <time>2023-03-03T14:22:07Z</time>
      </trkpt>
      <trkpt lat="43.46506" lon="6.31777">
        <ele>102.4</ele>
        <time>2023-03-03T14:22:08Z</time>
      </trkpt>
      <trkpt lat="43.46506" lon="6.31778">
        <ele>102.3</ele>
        <time>2023-03-03T14:22:09Z</time>
      </trkpt>
      <trkpt lat="43.46507" lon="6.31779">
        <ele>102.3</ele>
        <time>2023-03-03T14:22:10Z</time>
      </trkpt>
      <trkpt lat="43.46508" lon="6.3178">
        <ele>102.2</ele>
        <time>2023-03-03T14:22:11Z</time>
      </trkpt>
      <trkpt lat="43.46508" lon="6.31781">
        <ele>102.1</ele>
        <time>2023-03-03T14:22:12Z</time>
      </trkpt>
      <trkpt lat="43.46509" lon="6.31782">
        <ele>102</ele>
        <time>2023-03-03T14:22:13Z</time>
      </trkpt>
      <trkpt lat="43.46509" lon="6.31783">
        <ele>102</ele>
        <time>2023-03-03T14:22:14Z</time>
      </trkpt>
      <trkpt lat="43.4651" lon="6.31784">
        <ele>102</ele>
        <time>2023-03-03T14:22:15Z</time>
      </trkpt>
      <trkpt lat="43.4651" lon="6.31784">
        <ele>102</ele>
        <time>2023-03-03T14:22:16Z</time>
      </trkpt>
      <trkpt lat="43.4651" lon="6.31784">
        <ele>102</ele>
        <time>2023-03-03T14:22:17Z</time>
      </trkpt>
      <trkpt lat="43.46511" lon="6.31783">
        <ele>102.1</ele>
        <time>2023-03-03T14:22:18Z</time>
      </trkpt>
      <trkpt lat="43.46511" lon="6.31783">
        <ele>102.2</ele>
        <time>2023-03-03T14:22:19Z</time>
      </trkpt>
      <trkpt lat="43.46511" lon="6.31783">
        <ele>102.1</ele>
        <time>2023-03-03T14:22:20Z</time>
      </trkpt>
      <trkpt lat="43.46511" lon="6.31783">
        <ele>102.2</ele>
        <time>2023-03-03T14:22:21Z</time>
      </trkpt>
      <trkpt lat="43.46511" lon="6.31783">
        <ele>102.2</ele>
        <time>2023-03-03T14:22:22Z</time>
      </trkpt>
      <trkpt lat="43.46511" lon="6.31783">
        <ele>102.2</ele>
        <time>2023-03-03T14:22:23Z</time>
      </trkpt>
      <trkpt lat="43.46511" lon="6.31784">
        <ele>102.2</ele>
        <time>2023-03-03T14:22:24Z</time>
      </trkpt>
      <trkpt lat="43.46511" lon="6.31784">
        <ele>102.2</ele>
        <time>2023-03-03T14:22:25Z</time>
      </trkpt>
      <trkpt lat="43.46512" lon="6.31785">
        <ele>102.2</ele>
        <time>2023-03-03T14:22:26Z</time>
      </trkpt>
      <trkpt lat="43.46512" lon="6.31786">
        <ele>102.2</ele>
        <time>2023-03-03T14:22:27Z</time>
      </trkpt>
      <trkpt lat="43.46513" lon="6.31787">
        <ele>102.2</ele>
        <time>2023-03-03T14:22:28Z</time>
      </trkpt>
      <trkpt lat="43.46514" lon="6.31789">
        <ele>102.2</ele>
        <time>2023-03-03T14:22:29Z</time>
      </trkpt>
      <trkpt lat="43.46514" lon="6.3179">
        <ele>102.2</ele>
        <time>2023-03-03T14:22:30Z</time>
      </trkpt>
      <trkpt lat="43.46515" lon="6.31791">
        <ele>102.1</ele>
        <time>2023-03-03T14:22:31Z</time>
      </trkpt>
      <trkpt lat="43.46516" lon="6.31792">
        <ele>102.1</ele>
        <time>2023-03-03T14:22:32Z</time>
      </trkpt>
      <trkpt lat="43.46516" lon="6.31793">
        <ele>102.1</ele>
        <time>2023-03-03T14:22:33Z</time>
      </trkpt>
      <trkpt lat="43.46517" lon="6.31795">
        <ele>102</ele>
        <time>2023-03-03T14:22:34Z</time>
      </trkpt>
      <trkpt lat="43.46518" lon="6.31796">
        <ele>102</ele>
        <time>2023-03-03T14:22:35Z</time>
      </trkpt>
      <trkpt lat="43.46518" lon="6.31797">
        <ele>102</ele>
        <time>2023-03-03T14:22:36Z</time>
      </trkpt>
      <trkpt lat="43.46519" lon="6.31799">
        <ele>102</ele>
        <time>2023-03-03T14:22:37Z</time>
      </trkpt>
      <trkpt lat="43.46519" lon="6.318">
        <ele>102</ele>
        <time>2023-03-03T14:22:38Z</time>
      </trkpt>
      <trkpt lat="43.4652" lon="6.31801">
        <ele>102</ele>
        <time>2023-03-03T14:22:39Z</time>
      </trkpt>
      <trkpt lat="43.4652" lon="6.31802">
        <ele>102</ele>
        <time>2023-03-03T14:22:40Z</time>
      </trkpt>
      <trkpt lat="43.46521" lon="6.31803">
        <ele>101.9</ele>
        <time>2023-03-03T14:22:41Z</time>
      </trkpt>
      <trkpt lat="43.46521" lon="6.31805">
        <ele>101.9</ele>
        <time>2023-03-03T14:22:42Z</time>
      </trkpt>
      <trkpt lat="43.46522" lon="6.31806">
        <ele>101.8</ele>
        <time>2023-03-03T14:22:43Z</time>
      </trkpt>
      <trkpt lat="43.46522" lon="6.31807">
        <ele>101.8</ele>
        <time>2023-03-03T14:22:44Z</time>
      </trkpt>
      <trkpt lat="43.46523" lon="6.31809">
        <ele>101.7</ele>
        <time>2023-03-03T14:22:45Z</time>
      </trkpt>
      <trkpt lat="43.46524" lon="6.3181">
        <ele>101.7</ele>
        <time>2023-03-03T14:22:46Z</time>
      </trkpt>
      <trkpt lat="43.46524" lon="6.31811">
        <ele>101.7</ele>
        <time>2023-03-03T14:22:47Z</time>
      </trkpt>
      <trkpt lat="43.46525" lon="6.31812">
        <ele>101.8</ele>
        <time>2023-03-03T14:22:48Z</time>
      </trkpt>
      <trkpt lat="43.46525" lon="6.31814">
        <ele>101.8</ele>
        <time>2023-03-03T14:22:49Z</time>
      </trkpt>
      <trkpt lat="43.46526" lon="6.31815">
        <ele>101.9</ele>
        <time>2023-03-03T14:22:50Z</time>
      </trkpt>
      <trkpt lat="43.46526" lon="6.31816">
        <ele>102</ele>
        <time>2023-03-03T14:22:51Z</time>
      </trkpt>
      <trkpt lat="43.46527" lon="6.31817">
        <ele>102</ele>
        <time>2023-03-03T14:22:52Z</time>
      </trkpt>
      <trkpt lat="43.46528" lon="6.31818">
        <ele>102.1</ele>
        <time>2023-03-03T14:22:53Z</time>
      </trkpt>
      <trkpt lat="43.46528" lon="6.31818">
        <ele>102</ele>
        <time>2023-03-03T14:22:54Z</time>
      </trkpt>
      <trkpt lat="43.46528" lon="6.31819">
        <ele>102</ele>
        <time>2023-03-03T14:22:55Z</time>
      </trkpt>
      <trkpt lat="43.46528" lon="6.31819">
        <ele>102.1</ele>
        <time>2023-03-03T14:22:56Z</time>
      </trkpt>
      <trkpt lat="43.46529" lon="6.3182">
        <ele>102.1</ele>
        <time>2023-03-03T14:22:57Z</time>
      </trkpt>
      <trkpt lat="43.46529" lon="6.3182">
        <ele>102.1</ele>
        <time>2023-03-03T14:22:58Z</time>
      </trkpt>
      <trkpt lat="43.46529" lon="6.31821">
        <ele>102.1</ele>
        <time>2023-03-03T14:22:59Z</time>
      </trkpt>
      <trkpt lat="43.4653" lon="6.31822">
        <ele>102.1</ele>
        <time>2023-03-03T14:23:00Z</time>
      </trkpt>
      <trkpt lat="43.4653" lon="6.31823">
        <ele>102.1</ele>
        <time>2023-03-03T14:23:01Z</time>
      </trkpt>
      <trkpt lat="43.4653" lon="6.31824">
        <ele>102.1</ele>
        <time>2023-03-03T14:23:02Z</time>
      </trkpt>
      <trkpt lat="43.4653" lon="6.31825">
        <ele>102.1</ele>
        <time>2023-03-03T14:23:03Z</time>
      </trkpt>
      <trkpt lat="43.46531" lon="6.31827">
        <ele>102</ele>
        <time>2023-03-03T14:23:04Z</time>
      </trkpt>
      <trkpt lat="43.46531" lon="6.31828">
        <ele>102</ele>
        <time>2023-03-03T14:23:05Z</time>
      </trkpt>
      <trkpt lat="43.46532" lon="6.31829">
        <ele>102</ele>
        <time>2023-03-03T14:23:06Z</time>
      </trkpt>
      <trkpt lat="43.46532" lon="6.3183">
        <ele>102</ele>
        <time>2023-03-03T14:23:07Z</time>
      </trkpt>
      <trkpt lat="43.46532" lon="6.31831">
        <ele>101.9</ele>
        <time>2023-03-03T14:23:08Z</time>
      </trkpt>
      <trkpt lat="43.46533" lon="6.31832">
        <ele>101.9</ele>
        <time>2023-03-03T14:23:09Z</time>
      </trkpt>
      <trkpt lat="43.46533" lon="6.31833">
        <ele>101.8</ele>
        <time>2023-03-03T14:23:10Z</time>
      </trkpt>
      <trkpt lat="43.46534" lon="6.31834">
        <ele>101.8</ele>
        <time>2023-03-03T14:23:11Z</time>
      </trkpt>
      <trkpt lat="43.46535" lon="6.31836">
        <ele>101.8</ele>
        <time>2023-03-03T14:23:12Z</time>
      </trkpt>
      <trkpt lat="43.46535" lon="6.31837">
        <ele>101.8</ele>
        <time>2023-03-03T14:23:13Z</time>
      </trkpt>
      <trkpt lat="43.46535" lon="6.31839">
        <ele>101.8</ele>
        <time>2023-03-03T14:23:14Z</time>
      </trkpt>
      <trkpt lat="43.46536" lon="6.3184">
        <ele>101.7</ele>
        <time>2023-03-03T14:23:15Z</time>
      </trkpt>
      <trkpt lat="43.46536" lon="6.31841">
        <ele>101.7</ele>
        <time>2023-03-03T14:23:16Z</time>
      </trkpt>
      <trkpt lat="43.46537" lon="6.31842">
        <ele>101.8</ele>
        <time>2023-03-03T14:23:17Z</time>
      </trkpt>
      <trkpt lat="43.46537" lon="6.31844">
        <ele>101.9</ele>
        <time>2023-03-03T14:23:18Z</time>
      </trkpt>
      <trkpt lat="43.46537" lon="6.31845">
        <ele>101.9</ele>
        <time>2023-03-03T14:23:19Z</time>
      </trkpt>
      <trkpt lat="43.46538" lon="6.31847">
        <ele>102</ele>
        <time>2023-03-03T14:23:20Z</time>
      </trkpt>
      <trkpt lat="43.46538" lon="6.31848">
        <ele>102.1</ele>
        <time>2023-03-03T14:23:21Z</time>
      </trkpt>
      <trkpt lat="43.46539" lon="6.31849">
        <ele>102.1</ele>
        <time>2023-03-03T14:23:22Z</time>
      </trkpt>
      <trkpt lat="43.46539" lon="6.3185">
        <ele>102.1</ele>
        <time>2023-03-03T14:23:23Z</time>
      </trkpt>
      <trkpt lat="43.4654" lon="6.31851">
        <ele>102.1</ele>
        <time>2023-03-03T14:23:24Z</time>
      </trkpt>
      <trkpt lat="43.4654" lon="6.31853">
        <ele>102.1</ele>
        <time>2023-03-03T14:23:25Z</time>
      </trkpt>
      <trkpt lat="43.4654" lon="6.31854">
        <ele>102</ele>
        <time>2023-03-03T14:23:26Z</time>
      </trkpt>
      <trkpt lat="43.46541" lon="6.31855">
        <ele>102</ele>
        <time>2023-03-03T14:23:27Z</time>
      </trkpt>
      <trkpt lat="43.46541" lon="6.31857">
        <ele>102</ele>
        <time>2023-03-03T14:23:28Z</time>
      </trkpt>
      <trkpt lat="43.46542" lon="6.31858">
        <ele>101.8</ele>
        <time>2023-03-03T14:23:29Z</time>
      </trkpt>
      <trkpt lat="43.46542" lon="6.31859">
        <ele>101.7</ele>
        <time>2023-03-03T14:23:30Z</time>
      </trkpt>
      <trkpt lat="43.46542" lon="6.31861">
        <ele>101.7</ele>
        <time>2023-03-03T14:23:31Z</time>
      </trkpt>
      <trkpt lat="43.46542" lon="6.31862">
        <ele>101.7</ele>
        <time>2023-03-03T14:23:32Z</time>
      </trkpt>
      <trkpt lat="43.46543" lon="6.31864">
        <ele>101.6</ele>
        <time>2023-03-03T14:23:33Z</time>
      </trkpt>
      <trkpt lat="43.46543" lon="6.31865">
        <ele>101.6</ele>
        <time>2023-03-03T14:23:34Z</time>
      </trkpt>
      <trkpt lat="43.46544" lon="6.31866">
        <ele>101.6</ele>
        <time>2023-03-03T14:23:35Z</time>
      </trkpt>
      <trkpt lat="43.46544" lon="6.31868">
        <ele>101.8</ele>
        <time>2023-03-03T14:23:36Z</time>
      </trkpt>
      <trkpt lat="43.46544" lon="6.31869">
        <ele>101.9</ele>
        <time>2023-03-03T14:23:37Z</time>
      </trkpt>
      <trkpt lat="43.46544" lon="6.31871">
        <ele>101.9</ele>
        <time>2023-03-03T14:23:38Z</time>
      </trkpt>
      <trkpt lat="43.46544" lon="6.31872">
        <ele>101.9</ele>
        <time>2023-03-03T14:23:39Z</time>
      </trkpt>
      <trkpt lat="43.46544" lon="6.31874">
        <ele>101.8</ele>
        <time>2023-03-03T14:23:40Z</time>
      </trkpt>
      <trkpt lat="43.46544" lon="6.31875">
        <ele>101.8</ele>
        <time>2023-03-03T14:23:41Z</time>
      </trkpt>
      <trkpt lat="43.46544" lon="6.31876">
        <ele>101.7</ele>
        <time>2023-03-03T14:23:42Z</time>
      </trkpt>
      <trkpt lat="43.46544" lon="6.31877">
        <ele>101.6</ele>
        <time>2023-03-03T14:23:43Z</time>
      </trkpt>
      <trkpt lat="43.46544" lon="6.31878">
        <ele>101.5</ele>
        <time>2023-03-03T14:23:44Z</time>
      </trkpt>
      <trkpt lat="43.46544" lon="6.3188">
        <ele>101.5</ele>
        <time>2023-03-03T14:23:45Z</time>
      </trkpt>
      <trkpt lat="43.46544" lon="6.31881">
        <ele>101.5</ele>
        <time>2023-03-03T14:23:46Z</time>
      </trkpt>
      <trkpt lat="43.46545" lon="6.31882">
        <ele>101.5</ele>
        <time>2023-03-03T14:23:47Z</time>
      </trkpt>
      <trkpt lat="43.46545" lon="6.31883">
        <ele>101.5</ele>
        <time>2023-03-03T14:23:48Z</time>
      </trkpt>
      <trkpt lat="43.46545" lon="6.31885">
        <ele>101.5</ele>
        <time>2023-03-03T14:23:49Z</time>
      </trkpt>
      <trkpt lat="43.46544" lon="6.31886">
        <ele>101.6</ele>
        <time>2023-03-03T14:23:50Z</time>
      </trkpt>
      <trkpt lat="43.46544" lon="6.31888">
        <ele>101.6</ele>
        <time>2023-03-03T14:23:51Z</time>
      </trkpt>
      <trkpt lat="43.46544" lon="6.31889">
        <ele>101.6</ele>
        <time>2023-03-03T14:23:52Z</time>
      </trkpt>
      <trkpt lat="43.46544" lon="6.31891">
        <ele>101.6</ele>
        <time>2023-03-03T14:23:53Z</time>
      </trkpt>
      <trkpt lat="43.46545" lon="6.31892">
        <ele>101.6</ele>
        <time>2023-03-03T14:23:54Z</time>
      </trkpt>
      <trkpt lat="43.46545" lon="6.31893">
        <ele>101.6</ele>
        <time>2023-03-03T14:23:55Z</time>
      </trkpt>
      <trkpt lat="43.46545" lon="6.31894">
        <ele>101.6</ele>
        <time>2023-03-03T14:23:56Z</time>
      </trkpt>
      <trkpt lat="43.46545" lon="6.31895">
        <ele>101.6</ele>
        <time>2023-03-03T14:23:57Z</time>
      </trkpt>
      <trkpt lat="43.46545" lon="6.31896">
        <ele>101.6</ele>
        <time>2023-03-03T14:23:58Z</time>
      </trkpt>
      <trkpt lat="43.46545" lon="6.31898">
        <ele>101.6</ele>
        <time>2023-03-03T14:23:59Z</time>
      </trkpt>
      <trkpt lat="43.46545" lon="6.31899">
        <ele>101.6</ele>
        <time>2023-03-03T14:24:00Z</time>
      </trkpt>
      <trkpt lat="43.46544" lon="6.31901">
        <ele>101.6</ele>
        <time>2023-03-03T14:24:01Z</time>
      </trkpt>
      <trkpt lat="43.46544" lon="6.31903">
        <ele>101.5</ele>
        <time>2023-03-03T14:24:02Z</time>
      </trkpt>
      <trkpt lat="43.46545" lon="6.31905">
        <ele>101.5</ele>
        <time>2023-03-03T14:24:03Z</time>
      </trkpt>
      <trkpt lat="43.46545" lon="6.31906">
        <ele>101.5</ele>
        <time>2023-03-03T14:24:04Z</time>
      </trkpt>
      <trkpt lat="43.46544" lon="6.31907">
        <ele>101.5</ele>
        <time>2023-03-03T14:24:05Z</time>
      </trkpt>
      <trkpt lat="43.46544" lon="6.31908">
        <ele>101.4</ele>
        <time>2023-03-03T14:24:06Z</time>
      </trkpt>
      <trkpt lat="43.46544" lon="6.31909">
        <ele>101.4</ele>
        <time>2023-03-03T14:24:07Z</time>
      </trkpt>
      <trkpt lat="43.46544" lon="6.3191">
        <ele>101.4</ele>
        <time>2023-03-03T14:24:08Z</time>
      </trkpt>
      <trkpt lat="43.46544" lon="6.31912">
        <ele>101.3</ele>
        <time>2023-03-03T14:24:09Z</time>
      </trkpt>
      <trkpt lat="43.46545" lon="6.31914">
        <ele>101.3</ele>
        <time>2023-03-03T14:24:10Z</time>
      </trkpt>
      <trkpt lat="43.46546" lon="6.31916">
        <ele>101.3</ele>
        <time>2023-03-03T14:24:11Z</time>
      </trkpt>
      <trkpt lat="43.46546" lon="6.31917">
        <ele>101.3</ele>
        <time>2023-03-03T14:24:12Z</time>
      </trkpt>
      <trkpt lat="43.46546" lon="6.31918">
        <ele>101.3</ele>
        <time>2023-03-03T14:24:13Z</time>
      </trkpt>
      <trkpt lat="43.46547" lon="6.3192">
        <ele>101.3</ele>
        <time>2023-03-03T14:24:14Z</time>
      </trkpt>
      <trkpt lat="43.46547" lon="6.31921">
        <ele>101.2</ele>
        <time>2023-03-03T14:24:15Z</time>
      </trkpt>
      <trkpt lat="43.46547" lon="6.31923">
        <ele>101.2</ele>
        <time>2023-03-03T14:24:16Z</time>
      </trkpt>
      <trkpt lat="43.46547" lon="6.31925">
        <ele>101.1</ele>
        <time>2023-03-03T14:24:17Z</time>
      </trkpt>
      <trkpt lat="43.46547" lon="6.31927">
        <ele>101.1</ele>
        <time>2023-03-03T14:24:18Z</time>
      </trkpt>
      <trkpt lat="43.46547" lon="6.31928">
        <ele>101</ele>
        <time>2023-03-03T14:24:19Z</time>
      </trkpt>
      <trkpt lat="43.46547" lon="6.3193">
        <ele>101</ele>
        <time>2023-03-03T14:24:20Z</time>
      </trkpt>
      <trkpt lat="43.46547" lon="6.31931">
        <ele>100.9</ele>
        <time>2023-03-03T14:24:21Z</time>
      </trkpt>
      <trkpt lat="43.46547" lon="6.31932">
        <ele>100.8</ele>
        <time>2023-03-03T14:24:22Z</time>
      </trkpt>
      <trkpt lat="43.46547" lon="6.31934">
        <ele>100.8</ele>
        <time>2023-03-03T14:24:23Z</time>
      </trkpt>
      <trkpt lat="43.46547" lon="6.31935">
        <ele>100.8</ele>
        <time>2023-03-03T14:24:24Z</time>
      </trkpt>
      <trkpt lat="43.46547" lon="6.31937">
        <ele>100.8</ele>
        <time>2023-03-03T14:24:25Z</time>
      </trkpt>
      <trkpt lat="43.46547" lon="6.31938">
        <ele>100.7</ele>
        <time>2023-03-03T14:24:26Z</time>
      </trkpt>
      <trkpt lat="43.46548" lon="6.3194">
        <ele>100.6</ele>
        <time>2023-03-03T14:24:27Z</time>
      </trkpt>
      <trkpt lat="43.46548" lon="6.31941">
        <ele>100.6</ele>
        <time>2023-03-03T14:24:28Z</time>
      </trkpt>
      <trkpt lat="43.46548" lon="6.31943">
        <ele>100.6</ele>
        <time>2023-03-03T14:24:29Z</time>
      </trkpt>
      <trkpt lat="43.46548" lon="6.31944">
        <ele>100.6</ele>
        <time>2023-03-03T14:24:30Z</time>
      </trkpt>
      <trkpt lat="43.46548" lon="6.31945">
        <ele>100.5</ele>
        <time>2023-03-03T14:24:31Z</time>
      </trkpt>
      <trkpt lat="43.46548" lon="6.31947">
        <ele>100.5</ele>
        <time>2023-03-03T14:24:32Z</time>
      </trkpt>
      <trkpt lat="43.46548" lon="6.31948">
        <ele>100.4</ele>
        <time>2023-03-03T14:24:33Z</time>
      </trkpt>
      <trkpt lat="43.46548" lon="6.3195">
        <ele>100.4</ele>
        <time>2023-03-03T14:24:34Z</time>
      </trkpt>
      <trkpt lat="43.46548" lon="6.31952">
        <ele>100.3</ele>
        <time>2023-03-03T14:24:35Z</time>
      </trkpt>
      <trkpt lat="43.46548" lon="6.31953">
        <ele>100.4</ele>
        <time>2023-03-03T14:24:36Z</time>
      </trkpt>
      <trkpt lat="43.46548" lon="6.31954">
        <ele>100.3</ele>
        <time>2023-03-03T14:24:37Z</time>
      </trkpt>
      <trkpt lat="43.46548" lon="6.31956">
        <ele>100.3</ele>
        <time>2023-03-03T14:24:38Z</time>
      </trkpt>
      <trkpt lat="43.46547" lon="6.31957">
        <ele>100.2</ele>
        <time>2023-03-03T14:24:39Z</time>
      </trkpt>
      <trkpt lat="43.46548" lon="6.31959">
        <ele>100.1</ele>
        <time>2023-03-03T14:24:40Z</time>
      </trkpt>
      <trkpt lat="43.46548" lon="6.31961">
        <ele>100</ele>
        <time>2023-03-03T14:24:41Z</time>
      </trkpt>
      <trkpt lat="43.46548" lon="6.31962">
        <ele>100</ele>
        <time>2023-03-03T14:24:42Z</time>
      </trkpt>
      <trkpt lat="43.46549" lon="6.31963">
        <ele>100</ele>
        <time>2023-03-03T14:24:43Z</time>
      </trkpt>
      <trkpt lat="43.46549" lon="6.31965">
        <ele>100</ele>
        <time>2023-03-03T14:24:44Z</time>
      </trkpt>
      <trkpt lat="43.46549" lon="6.31966">
        <ele>100</ele>
        <time>2023-03-03T14:24:45Z</time>
      </trkpt>
      <trkpt lat="43.46549" lon="6.31967">
        <ele>100</ele>
        <time>2023-03-03T14:24:46Z</time>
      </trkpt>
      <trkpt lat="43.46549" lon="6.31969">
        <ele>100</ele>
        <time>2023-03-03T14:24:47Z</time>
      </trkpt>
      <trkpt lat="43.46549" lon="6.31969">
        <ele>100</ele>
        <time>2023-03-03T14:24:48Z</time>
      </trkpt>
      <trkpt lat="43.46549" lon="6.31971">
        <ele>100</ele>
        <time>2023-03-03T14:24:49Z</time>
      </trkpt>
      <trkpt lat="43.46549" lon="6.31972">
        <ele>100</ele>
        <time>2023-03-03T14:24:50Z</time>
      </trkpt>
      <trkpt lat="43.46548" lon="6.31973">
        <ele>100</ele>
        <time>2023-03-03T14:24:51Z</time>
      </trkpt>
      <trkpt lat="43.46548" lon="6.31975">
        <ele>99.9</ele>
        <time>2023-03-03T14:24:52Z</time>
      </trkpt>
      <trkpt lat="43.46549" lon="6.31976">
        <ele>100</ele>
        <time>2023-03-03T14:24:53Z</time>
      </trkpt>
      <trkpt lat="43.46549" lon="6.31978">
        <ele>99.9</ele>
        <time>2023-03-03T14:24:54Z</time>
      </trkpt>
      <trkpt lat="43.4655" lon="6.31979">
        <ele>99.9</ele>
        <time>2023-03-03T14:24:55Z</time>
      </trkpt>
      <trkpt lat="43.46551" lon="6.3198">
        <ele>99.8</ele>
        <time>2023-03-03T14:24:56Z</time>
      </trkpt>
      <trkpt lat="43.46551" lon="6.31982">
        <ele>99.7</ele>
        <time>2023-03-03T14:24:57Z</time>
      </trkpt>
      <trkpt lat="43.46551" lon="6.31983">
        <ele>99.8</ele>
        <time>2023-03-03T14:24:58Z</time>
      </trkpt>
      <trkpt lat="43.46551" lon="6.31985">
        <ele>99.7</ele>
        <time>2023-03-03T14:24:59Z</time>
      </trkpt>
      <trkpt lat="43.46551" lon="6.31987">
        <ele>99.7</ele>
        <time>2023-03-03T14:25:00Z</time>
      </trkpt>
      <trkpt lat="43.46551" lon="6.31989">
        <ele>99.7</ele>
        <time>2023-03-03T14:25:01Z</time>
      </trkpt>
      <trkpt lat="43.46552" lon="6.3199">
        <ele>99.7</ele>
        <time>2023-03-03T14:25:02Z</time>
      </trkpt>
      <trkpt lat="43.46552" lon="6.31991">
        <ele>99.6</ele>
        <time>2023-03-03T14:25:03Z</time>
      </trkpt>
      <trkpt lat="43.46552" lon="6.31992">
        <ele>99.7</ele>
        <time>2023-03-03T14:25:04Z</time>
      </trkpt>
      <trkpt lat="43.46553" lon="6.31993">
        <ele>99.7</ele>
        <time>2023-03-03T14:25:05Z</time>
      </trkpt>
      <trkpt lat="43.46552" lon="6.31994">
        <ele>99.7</ele>
        <time>2023-03-03T14:25:06Z</time>
      </trkpt>
      <trkpt lat="43.46553" lon="6.31995">
        <ele>99.6</ele>
        <time>2023-03-03T14:25:07Z</time>
      </trkpt>
      <trkpt lat="43.46553" lon="6.31997">
        <ele>99.5</ele>
        <time>2023-03-03T14:25:08Z</time>
      </trkpt>
      <trkpt lat="43.46553" lon="6.31999">
        <ele>99.6</ele>
        <time>2023-03-03T14:25:09Z</time>
      </trkpt>
      <trkpt lat="43.46554" lon="6.32">
        <ele>99.7</ele>
        <time>2023-03-03T14:25:10Z</time>
      </trkpt>
      <trkpt lat="43.46554" lon="6.32002">
        <ele>99.7</ele>
        <time>2023-03-03T14:25:11Z</time>
      </trkpt>
      <trkpt lat="43.46554" lon="6.32003">
        <ele>99.7</ele>
        <time>2023-03-03T14:25:12Z</time>
      </trkpt>
      <trkpt lat="43.46553" lon="6.32005">
        <ele>99.7</ele>
        <time>2023-03-03T14:25:13Z</time>
      </trkpt>
      <trkpt lat="43.46554" lon="6.32006">
        <ele>99.6</ele>
        <time>2023-03-03T14:25:14Z</time>
      </trkpt>
      <trkpt lat="43.46554" lon="6.32006">
        <ele>99.6</ele>
        <time>2023-03-03T14:25:15Z</time>
      </trkpt>
      <trkpt lat="43.46554" lon="6.32007">
        <ele>99.7</ele>
        <time>2023-03-03T14:25:16Z</time>
      </trkpt>
      <trkpt lat="43.46554" lon="6.32009">
        <ele>99.7</ele>
        <time>2023-03-03T14:25:17Z</time>
      </trkpt>
      <trkpt lat="43.46553" lon="6.3201">
        <ele>99.7</ele>
        <time>2023-03-03T14:25:18Z</time>
      </trkpt>
      <trkpt lat="43.46553" lon="6.32012">
        <ele>99.7</ele>
        <time>2023-03-03T14:25:19Z</time>
      </trkpt>
      <trkpt lat="43.46552" lon="6.32013">
        <ele>99.7</ele>
        <time>2023-03-03T14:25:20Z</time>
      </trkpt>
      <trkpt lat="43.46552" lon="6.32013">
        <ele>99.6</ele>
        <time>2023-03-03T14:25:21Z</time>
      </trkpt>
      <trkpt lat="43.46551" lon="6.32015">
        <ele>99.6</ele>
        <time>2023-03-03T14:25:22Z</time>
      </trkpt>
      <trkpt lat="43.4655" lon="6.32017">
        <ele>99.7</ele>
        <time>2023-03-03T14:25:23Z</time>
      </trkpt>
      <trkpt lat="43.4655" lon="6.32018">
        <ele>99.6</ele>
        <time>2023-03-03T14:25:24Z</time>
      </trkpt>
      <trkpt lat="43.46549" lon="6.32019">
        <ele>99.5</ele>
        <time>2023-03-03T14:25:25Z</time>
      </trkpt>
      <trkpt lat="43.46549" lon="6.32021">
        <ele>99.6</ele>
        <time>2023-03-03T14:25:26Z</time>
      </trkpt>
      <trkpt lat="43.46549" lon="6.32023">
        <ele>99.5</ele>
        <time>2023-03-03T14:25:27Z</time>
      </trkpt>
      <trkpt lat="43.46549" lon="6.32024">
        <ele>99.5</ele>
        <time>2023-03-03T14:25:28Z</time>
      </trkpt>
      <trkpt lat="43.46548" lon="6.32025">
        <ele>99.5</ele>
        <time>2023-03-03T14:25:29Z</time>
      </trkpt>
      <trkpt lat="43.46548" lon="6.32026">
        <ele>99.5</ele>
        <time>2023-03-03T14:25:30Z</time>
      </trkpt>
      <trkpt lat="43.46548" lon="6.32028">
        <ele>99.4</ele>
        <time>2023-03-03T14:25:31Z</time>
      </trkpt>
      <trkpt lat="43.46547" lon="6.3203">
        <ele>99.5</ele>
        <time>2023-03-03T14:25:32Z</time>
      </trkpt>
      <trkpt lat="43.46547" lon="6.32032">
        <ele>99.5</ele>
        <time>2023-03-03T14:25:33Z</time>
      </trkpt>
      <trkpt lat="43.46547" lon="6.32033">
        <ele>99.5</ele>
        <time>2023-03-03T14:25:34Z</time>
      </trkpt>
      <trkpt lat="43.46546" lon="6.32035">
        <ele>99.4</ele>
        <time>2023-03-03T14:25:35Z</time>
      </trkpt>
      <trkpt lat="43.46546" lon="6.32037">
        <ele>99.4</ele>
        <time>2023-03-03T14:25:36Z</time>
      </trkpt>
      <trkpt lat="43.46546" lon="6.32038">
        <ele>99.4</ele>
        <time>2023-03-03T14:25:37Z</time>
      </trkpt>
      <trkpt lat="43.46546" lon="6.3204">
        <ele>99.4</ele>
        <time>2023-03-03T14:25:38Z</time>
      </trkpt>
      <trkpt lat="43.46545" lon="6.32042">
        <ele>99.3</ele>
        <time>2023-03-03T14:25:39Z</time>
      </trkpt>
      <trkpt lat="43.46545" lon="6.32044">
        <ele>99.3</ele>
        <time>2023-03-03T14:25:40Z</time>
      </trkpt>
      <trkpt lat="43.46544" lon="6.32045">
        <ele>99.3</ele>
        <time>2023-03-03T14:25:41Z</time>
      </trkpt>
      <trkpt lat="43.46544" lon="6.32047">
        <ele>99.2</ele>
        <time>2023-03-03T14:25:42Z</time>
      </trkpt>
      <trkpt lat="43.46543" lon="6.32048">
        <ele>99.2</ele>
        <time>2023-03-03T14:25:43Z</time>
      </trkpt>
      <trkpt lat="43.46543" lon="6.32049">
        <ele>99.2</ele>
        <time>2023-03-03T14:25:44Z</time>
      </trkpt>
      <trkpt lat="43.46542" lon="6.3205">
        <ele>99.1</ele>
        <time>2023-03-03T14:25:45Z</time>
      </trkpt>
      <trkpt lat="43.46542" lon="6.32051">
        <ele>99.1</ele>
        <time>2023-03-03T14:25:46Z</time>
      </trkpt>
      <trkpt lat="43.46542" lon="6.32052">
        <ele>99.1</ele>
        <time>2023-03-03T14:25:47Z</time>
      </trkpt>
      <trkpt lat="43.46542" lon="6.32054">
        <ele>99</ele>
        <time>2023-03-03T14:25:48Z</time>
      </trkpt>
      <trkpt lat="43.46541" lon="6.32055">
        <ele>98.9</ele>
        <time>2023-03-03T14:25:49Z</time>
      </trkpt>
      <trkpt lat="43.4654" lon="6.32057">
        <ele>98.9</ele>
        <time>2023-03-03T14:25:50Z</time>
      </trkpt>
      <trkpt lat="43.4654" lon="6.32059">
        <ele>98.8</ele>
        <time>2023-03-03T14:25:51Z</time>
      </trkpt>
      <trkpt lat="43.4654" lon="6.32061">
        <ele>98.8</ele>
        <time>2023-03-03T14:25:52Z</time>
      </trkpt>
      <trkpt lat="43.46539" lon="6.32063">
        <ele>98.8</ele>
        <time>2023-03-03T14:25:53Z</time>
      </trkpt>
      <trkpt lat="43.46539" lon="6.32064">
        <ele>98.8</ele>
        <time>2023-03-03T14:25:54Z</time>
      </trkpt>
      <trkpt lat="43.46538" lon="6.32066">
        <ele>98.8</ele>
        <time>2023-03-03T14:25:55Z</time>
      </trkpt>
      <trkpt lat="43.46538" lon="6.32067">
        <ele>98.8</ele>
        <time>2023-03-03T14:25:56Z</time>
      </trkpt>
      <trkpt lat="43.46538" lon="6.32069">
        <ele>98.7</ele>
        <time>2023-03-03T14:25:57Z</time>
      </trkpt>
      <trkpt lat="43.46537" lon="6.3207">
        <ele>98.6</ele>
        <time>2023-03-03T14:25:58Z</time>
      </trkpt>
      <trkpt lat="43.46537" lon="6.32072">
        <ele>98.6</ele>
        <time>2023-03-03T14:25:59Z</time>
      </trkpt>
      <trkpt lat="43.46537" lon="6.32074">
        <ele>98.6</ele>
        <time>2023-03-03T14:26:00Z</time>
      </trkpt>
      <trkpt lat="43.46537" lon="6.32077">
        <ele>98.6</ele>
        <time>2023-03-03T14:26:01Z</time>
      </trkpt>
      <trkpt lat="43.46537" lon="6.32079">
        <ele>98.6</ele>
        <time>2023-03-03T14:26:02Z</time>
      </trkpt>
      <trkpt lat="43.46536" lon="6.32081">
        <ele>98.5</ele>
        <time>2023-03-03T14:26:03Z</time>
      </trkpt>
      <trkpt lat="43.46536" lon="6.32082">
        <ele>98.5</ele>
        <time>2023-03-03T14:26:04Z</time>
      </trkpt>
      <trkpt lat="43.46535" lon="6.32084">
        <ele>98.5</ele>
        <time>2023-03-03T14:26:05Z</time>
      </trkpt>
      <trkpt lat="43.46535" lon="6.32086">
        <ele>98.4</ele>
        <time>2023-03-03T14:26:06Z</time>
      </trkpt>
      <trkpt lat="43.46534" lon="6.32087">
        <ele>98.4</ele>
        <time>2023-03-03T14:26:07Z</time>
      </trkpt>
      <trkpt lat="43.46535" lon="6.32088">
        <ele>98.4</ele>
        <time>2023-03-03T14:26:08Z</time>
      </trkpt>
      <trkpt lat="43.46535" lon="6.32089">
        <ele>98.4</ele>
        <time>2023-03-03T14:26:09Z</time>
      </trkpt>
      <trkpt lat="43.46535" lon="6.3209">
        <ele>98.4</ele>
        <time>2023-03-03T14:26:10Z</time>
      </trkpt>
      <trkpt lat="43.46535" lon="6.32091">
        <ele>98.4</ele>
        <time>2023-03-03T14:26:11Z</time>
      </trkpt>
      <trkpt lat="43.46535" lon="6.32092">
        <ele>98.3</ele>
        <time>2023-03-03T14:26:12Z</time>
      </trkpt>
      <trkpt lat="43.46534" lon="6.32092">
        <ele>98.3</ele>
        <time>2023-03-03T14:26:13Z</time>
      </trkpt>
      <trkpt lat="43.46534" lon="6.32092">
        <ele>98.3</ele>
        <time>2023-03-03T14:26:14Z</time>
      </trkpt>
      <trkpt lat="43.46534" lon="6.32093">
        <ele>98.2</ele>
        <time>2023-03-03T14:26:15Z</time>
      </trkpt>
      <trkpt lat="43.46534" lon="6.32093">
        <ele>98.2</ele>
        <time>2023-03-03T14:26:16Z</time>
      </trkpt>
      <trkpt lat="43.46533" lon="6.32093">
        <ele>98.2</ele>
        <time>2023-03-03T14:26:17Z</time>
      </trkpt>
      <trkpt lat="43.46533" lon="6.32094">
        <ele>98.2</ele>
        <time>2023-03-03T14:26:18Z</time>
      </trkpt>
      <trkpt lat="43.46533" lon="6.32094">
        <ele>98.1</ele>
        <time>2023-03-03T14:26:19Z</time>
      </trkpt>
      <trkpt lat="43.46533" lon="6.32094">
        <ele>98.1</ele>
        <time>2023-03-03T14:26:20Z</time>
      </trkpt>
      <trkpt lat="43.46533" lon="6.32094">
        <ele>98.1</ele>
        <time>2023-03-03T14:26:21Z</time>
      </trkpt>
      <trkpt lat="43.46532" lon="6.32095">
        <ele>98.1</ele>
        <time>2023-03-03T14:26:22Z</time>
      </trkpt>
      <trkpt lat="43.46532" lon="6.32095">
        <ele>98.1</ele>
        <time>2023-03-03T14:26:23Z</time>
      </trkpt>
      <trkpt lat="43.46532" lon="6.32095">
        <ele>98.1</ele>
        <time>2023-03-03T14:26:24Z</time>
      </trkpt>
      <trkpt lat="43.46532" lon="6.32096">
        <ele>98</ele>
        <time>2023-03-03T14:26:25Z</time>
      </trkpt>
      <trkpt lat="43.46533" lon="6.32096">
        <ele>98</ele>
        <time>2023-03-03T14:26:26Z</time>
      </trkpt>
      <trkpt lat="43.46533" lon="6.32096">
        <ele>98.1</ele>
        <time>2023-03-03T14:26:27Z</time>
      </trkpt>
      <trkpt lat="43.46533" lon="6.32097">
        <ele>98.1</ele>
        <time>2023-03-03T14:26:28Z</time>
      </trkpt>
      <trkpt lat="43.46534" lon="6.32097">
        <ele>98.1</ele>
        <time>2023-03-03T14:26:29Z</time>
      </trkpt>
      <trkpt lat="43.46534" lon="6.32097">
        <ele>98.1</ele>
        <time>2023-03-03T14:26:30Z</time>
      </trkpt>
      <trkpt lat="43.46535" lon="6.32098">
        <ele>98.1</ele>
        <time>2023-03-03T14:26:31Z</time>
      </trkpt>
      <trkpt lat="43.46536" lon="6.32098">
        <ele>98.1</ele>
        <time>2023-03-03T14:26:32Z</time>
      </trkpt>
      <trkpt lat="43.46536" lon="6.32098">
        <ele>98.1</ele>
        <time>2023-03-03T14:26:33Z</time>
      </trkpt>
      <trkpt lat="43.46537" lon="6.32098">
        <ele>98.1</ele>
        <time>2023-03-03T14:26:34Z</time>
      </trkpt>
      <trkpt lat="43.46537" lon="6.32098">
        <ele>98.1</ele>
        <time>2023-03-03T14:26:35Z</time>
      </trkpt>
      <trkpt lat="43.46537" lon="6.32098">
        <ele>98.1</ele>
        <time>2023-03-03T14:26:36Z</time>
      </trkpt>
      <trkpt lat="43.46537" lon="6.32098">
        <ele>98.1</ele>
        <time>2023-03-03T14:26:37Z</time>
      </trkpt>
      <trkpt lat="43.46537" lon="6.32098">
        <ele>98.1</ele>
        <time>2023-03-03T14:26:38Z</time>
      </trkpt>
      <trkpt lat="43.46537" lon="6.32098">
        <ele>98.1</ele>
        <time>2023-03-03T14:26:39Z</time>
      </trkpt>
      <trkpt lat="43.46537" lon="6.32098">
        <ele>98.1</ele>
        <time>2023-03-03T14:26:40Z</time>
      </trkpt>
      <trkpt lat="43.46537" lon="6.32098">
        <ele>98.1</ele>
        <time>2023-03-03T14:26:41Z</time>
      </trkpt>
      <trkpt lat="43.46537" lon="6.32098">
        <ele>98.1</ele>
        <time>2023-03-03T14:26:42Z</time>
      </trkpt>
      <trkpt lat="43.46538" lon="6.32098">
        <ele>98.2</ele>
        <time>2023-03-03T14:26:43Z</time>
      </trkpt>
      <trkpt lat="43.46537" lon="6.32099">
        <ele>98.2</ele>
        <time>2023-03-03T14:26:44Z</time>
      </trkpt>
      <trkpt lat="43.46538" lon="6.32099">
        <ele>98.2</ele>
        <time>2023-03-03T14:26:45Z</time>
      </trkpt>
      <trkpt lat="43.46538" lon="6.32099">
        <ele>98.1</ele>
        <time>2023-03-03T14:26:46Z</time>
      </trkpt>
      <trkpt lat="43.46539" lon="6.32099">
        <ele>98.1</ele>
        <time>2023-03-03T14:26:47Z</time>
      </trkpt>
      <trkpt lat="43.4654" lon="6.32099">
        <ele>98.1</ele>
        <time>2023-03-03T14:26:48Z</time>
      </trkpt>
      <trkpt lat="43.4654" lon="6.32099">
        <ele>98.1</ele>
        <time>2023-03-03T14:26:49Z</time>
      </trkpt>
      <trkpt lat="43.46541" lon="6.32099">
        <ele>98.1</ele>
        <time>2023-03-03T14:26:50Z</time>
      </trkpt>
      <trkpt lat="43.46541" lon="6.32099">
        <ele>98.1</ele>
        <time>2023-03-03T14:26:51Z</time>
      </trkpt>
      <trkpt lat="43.46541" lon="6.32099">
        <ele>98.1</ele>
        <time>2023-03-03T14:26:52Z</time>
      </trkpt>
      <trkpt lat="43.46542" lon="6.32099">
        <ele>98.1</ele>
        <time>2023-03-03T14:26:53Z</time>
      </trkpt>
      <trkpt lat="43.46542" lon="6.32099">
        <ele>98.1</ele>
        <time>2023-03-03T14:26:54Z</time>
      </trkpt>
      <trkpt lat="43.46542" lon="6.32099">
        <ele>98.1</ele>
        <time>2023-03-03T14:26:55Z</time>
      </trkpt>
      <trkpt lat="43.46542" lon="6.32099">
        <ele>98</ele>
        <time>2023-03-03T14:26:56Z</time>
      </trkpt>
      <trkpt lat="43.46542" lon="6.32099">
        <ele>98.1</ele>
        <time>2023-03-03T14:26:57Z</time>
      </trkpt>
      <trkpt lat="43.46542" lon="6.32099">
        <ele>98.1</ele>
        <time>2023-03-03T14:26:58Z</time>
      </trkpt>
      <trkpt lat="43.46542" lon="6.32099">
        <ele>98.1</ele>
        <time>2023-03-03T14:26:59Z</time>
      </trkpt>
      <trkpt lat="43.46542" lon="6.32099">
        <ele>98.2</ele>
        <time>2023-03-03T14:27:00Z</time>
      </trkpt>
      <trkpt lat="43.46542" lon="6.321">
        <ele>98.2</ele>
        <time>2023-03-03T14:27:01Z</time>
      </trkpt>
      <trkpt lat="43.46542" lon="6.321">
        <ele>98.2</ele>
        <time>2023-03-03T14:27:02Z</time>
      </trkpt>
      <trkpt lat="43.46542" lon="6.321">
        <ele>98.2</ele>
        <time>2023-03-03T14:27:03Z</time>
      </trkpt>
      <trkpt lat="43.46543" lon="6.321">
        <ele>98.2</ele>
        <time>2023-03-03T14:27:04Z</time>
      </trkpt>
      <trkpt lat="43.46543" lon="6.321">
        <ele>98.1</ele>
        <time>2023-03-03T14:27:05Z</time>
      </trkpt>
      <trkpt lat="43.46543" lon="6.321">
        <ele>98</ele>
        <time>2023-03-03T14:27:06Z</time>
      </trkpt>
      <trkpt lat="43.46543" lon="6.321">
        <ele>98</ele>
        <time>2023-03-03T14:27:07Z</time>
      </trkpt>
      <trkpt lat="43.46543" lon="6.32101">
        <ele>98</ele>
        <time>2023-03-03T14:27:08Z</time>
      </trkpt>
      <trkpt lat="43.46543" lon="6.32101">
        <ele>98</ele>
        <time>2023-03-03T14:27:09Z</time>
      </trkpt>
      <trkpt lat="43.46543" lon="6.32101">
        <ele>97.9</ele>
        <time>2023-03-03T14:27:10Z</time>
      </trkpt>
      <trkpt lat="43.46543" lon="6.32101">
        <ele>97.9</ele>
        <time>2023-03-03T14:27:11Z</time>
      </trkpt>
      <trkpt lat="43.46544" lon="6.32101">
        <ele>97.9</ele>
        <time>2023-03-03T14:27:12Z</time>
      </trkpt>
      <trkpt lat="43.46544" lon="6.32102">
        <ele>98</ele>
        <time>2023-03-03T14:27:13Z</time>
      </trkpt>
      <trkpt lat="43.46543" lon="6.32102">
        <ele>98.1</ele>
        <time>2023-03-03T14:27:14Z</time>
      </trkpt>
      <trkpt lat="43.46543" lon="6.32101">
        <ele>98.1</ele>
        <time>2023-03-03T14:27:15Z</time>
      </trkpt>
      <trkpt lat="43.46543" lon="6.32102">
        <ele>98.1</ele>
        <time>2023-03-03T14:27:16Z</time>
      </trkpt>
      <trkpt lat="43.46543" lon="6.32102">
        <ele>98.1</ele>
        <time>2023-03-03T14:27:17Z</time>
      </trkpt>
      <trkpt lat="43.46543" lon="6.32102">
        <ele>98</ele>
        <time>2023-03-03T14:27:18Z</time>
      </trkpt>
      <trkpt lat="43.46543" lon="6.32102">
        <ele>98.1</ele>
        <time>2023-03-03T14:27:19Z</time>
      </trkpt>
      <trkpt lat="43.46543" lon="6.32102">
        <ele>98.1</ele>
        <time>2023-03-03T14:27:20Z</time>
      </trkpt>
      <trkpt lat="43.46543" lon="6.32102">
        <ele>98.1</ele>
        <time>2023-03-03T14:27:21Z</time>
      </trkpt>
      <trkpt lat="43.46543" lon="6.32103">
        <ele>98.1</ele>
        <time>2023-03-03T14:27:22Z</time>
      </trkpt>
      <trkpt lat="43.46543" lon="6.32103">
        <ele>98</ele>
        <time>2023-03-03T14:27:23Z</time>
      </trkpt>
      <trkpt lat="43.46543" lon="6.32103">
        <ele>98</ele>
        <time>2023-03-03T14:27:24Z</time>
      </trkpt>
      <trkpt lat="43.46542" lon="6.32103">
        <ele>98</ele>
        <time>2023-03-03T14:27:25Z</time>
      </trkpt>
      <trkpt lat="43.46542" lon="6.32104">
        <ele>98</ele>
        <time>2023-03-03T14:27:26Z</time>
      </trkpt>
      <trkpt lat="43.46542" lon="6.32104">
        <ele>98</ele>
        <time>2023-03-03T14:27:27Z</time>
      </trkpt>
      <trkpt lat="43.46542" lon="6.32104">
        <ele>98</ele>
        <time>2023-03-03T14:27:28Z</time>
      </trkpt>
      <trkpt lat="43.46543" lon="6.32104">
        <ele>98</ele>
        <time>2023-03-03T14:27:29Z</time>
      </trkpt>
      <trkpt lat="43.46543" lon="6.32104">
        <ele>98</ele>
        <time>2023-03-03T14:27:30Z</time>
      </trkpt>
      <trkpt lat="43.46543" lon="6.32104">
        <ele>97.9</ele>
        <time>2023-03-03T14:27:31Z</time>
      </trkpt>
      <trkpt lat="43.46543" lon="6.32104">
        <ele>97.9</ele>
        <time>2023-03-03T14:27:32Z</time>
      </trkpt>
      <trkpt lat="43.46543" lon="6.32104">
        <ele>98</ele>
        <time>2023-03-03T14:27:33Z</time>
      </trkpt>
      <trkpt lat="43.46543" lon="6.32104">
        <ele>98</ele>
        <time>2023-03-03T14:27:34Z</time>
      </trkpt>
      <trkpt lat="43.46543" lon="6.32104">
        <ele>98</ele>
        <time>2023-03-03T14:27:35Z</time>
      </trkpt>
      <trkpt lat="43.46543" lon="6.32104">
        <ele>97.9</ele>
        <time>2023-03-03T14:27:36Z</time>
      </trkpt>
      <trkpt lat="43.46543" lon="6.32104">
        <ele>97.9</ele>
        <time>2023-03-03T14:27:37Z</time>
      </trkpt>
      <trkpt lat="43.46544" lon="6.32104">
        <ele>97.9</ele>
        <time>2023-03-03T14:27:38Z</time>
      </trkpt>
      <trkpt lat="43.46544" lon="6.32105">
        <ele>97.8</ele>
        <time>2023-03-03T14:27:39Z</time>
      </trkpt>
      <trkpt lat="43.46544" lon="6.32105">
        <ele>97.9</ele>
        <time>2023-03-03T14:27:40Z</time>
      </trkpt>
      <trkpt lat="43.46544" lon="6.32105">
        <ele>98</ele>
        <time>2023-03-03T14:27:41Z</time>
      </trkpt>
      <trkpt lat="43.46545" lon="6.32105">
        <ele>98</ele>
        <time>2023-03-03T14:27:42Z</time>
      </trkpt>
      <trkpt lat="43.46545" lon="6.32105">
        <ele>98.1</ele>
        <time>2023-03-03T14:27:43Z</time>
      </trkpt>
      <trkpt lat="43.46546" lon="6.32104">
        <ele>98.2</ele>
        <time>2023-03-03T14:27:44Z</time>
      </trkpt>
      <trkpt lat="43.46545" lon="6.32103">
        <ele>98.2</ele>
        <time>2023-03-03T14:27:45Z</time>
      </trkpt>
      <trkpt lat="43.46545" lon="6.32103">
        <ele>98.2</ele>
        <time>2023-03-03T14:27:46Z</time>
      </trkpt>
      <trkpt lat="43.46545" lon="6.32103">
        <ele>98.3</ele>
        <time>2023-03-03T14:27:47Z</time>
      </trkpt>
      <trkpt lat="43.46545" lon="6.32103">
        <ele>98.2</ele>
        <time>2023-03-03T14:27:48Z</time>
      </trkpt>
      <trkpt lat="43.46545" lon="6.32103">
        <ele>98.2</ele>
        <time>2023-03-03T14:27:49Z</time>
      </trkpt>
      <trkpt lat="43.46545" lon="6.32103">
        <ele>98.3</ele>
        <time>2023-03-03T14:27:50Z</time>
      </trkpt>
      <trkpt lat="43.46544" lon="6.32102">
        <ele>98.2</ele>
        <time>2023-03-03T14:27:51Z</time>
      </trkpt>
      <trkpt lat="43.46544" lon="6.32102">
        <ele>98.2</ele>
        <time>2023-03-03T14:27:52Z</time>
      </trkpt>
      <trkpt lat="43.46544" lon="6.32102">
        <ele>98.2</ele>
        <time>2023-03-03T14:27:53Z</time>
      </trkpt>
      <trkpt lat="43.46543" lon="6.32103">
        <ele>98.1</ele>
        <time>2023-03-03T14:27:54Z</time>
      </trkpt>
      <trkpt lat="43.46543" lon="6.32103">
        <ele>98.1</ele>
        <time>2023-03-03T14:27:55Z</time>
      </trkpt>
      <trkpt lat="43.46543" lon="6.32103">
        <ele>98.2</ele>
        <time>2023-03-03T14:27:56Z</time>
      </trkpt>
      <trkpt lat="43.46542" lon="6.32103">
        <ele>98.2</ele>
        <time>2023-03-03T14:27:57Z</time>
      </trkpt>
      <trkpt lat="43.46541" lon="6.32103">
        <ele>98.2</ele>
        <time>2023-03-03T14:27:58Z</time>
      </trkpt>
      <trkpt lat="43.46541" lon="6.32102">
        <ele>98.2</ele>
        <time>2023-03-03T14:27:59Z</time>
      </trkpt>
      <trkpt lat="43.46542" lon="6.32102">
        <ele>98.3</ele>
        <time>2023-03-03T14:28:00Z</time>
      </trkpt>
      <trkpt lat="43.46542" lon="6.32101">
        <ele>98.3</ele>
        <time>2023-03-03T14:28:01Z</time>
      </trkpt>
      <trkpt lat="43.46542" lon="6.32101">
        <ele>98.4</ele>
        <time>2023-03-03T14:28:02Z</time>
      </trkpt>
      <trkpt lat="43.46541" lon="6.32101">
        <ele>98.4</ele>
        <time>2023-03-03T14:28:03Z</time>
      </trkpt>
      <trkpt lat="43.46541" lon="6.32101">
        <ele>98.5</ele>
        <time>2023-03-03T14:28:04Z</time>
      </trkpt>
      <trkpt lat="43.4654" lon="6.32102">
        <ele>98.6</ele>
        <time>2023-03-03T14:28:05Z</time>
      </trkpt>
      <trkpt lat="43.4654" lon="6.32102">
        <ele>98.7</ele>
        <time>2023-03-03T14:28:06Z</time>
      </trkpt>
      <trkpt lat="43.4654" lon="6.32103">
        <ele>98.7</ele>
        <time>2023-03-03T14:28:07Z</time>
      </trkpt>
      <trkpt lat="43.4654" lon="6.32103">
        <ele>98.8</ele>
        <time>2023-03-03T14:28:08Z</time>
      </trkpt>
      <trkpt lat="43.4654" lon="6.32103">
        <ele>98.8</ele>
        <time>2023-03-03T14:28:09Z</time>
      </trkpt>
      <trkpt lat="43.4654" lon="6.32103">
        <ele>98.8</ele>
        <time>2023-03-03T14:28:10Z</time>
      </trkpt>
      <trkpt lat="43.4654" lon="6.32103">
        <ele>98.8</ele>
        <time>2023-03-03T14:28:11Z</time>
      </trkpt>
      <trkpt lat="43.4654" lon="6.32103">
        <ele>98.8</ele>
        <time>2023-03-03T14:28:12Z</time>
      </trkpt>
      <trkpt lat="43.4654" lon="6.32104">
        <ele>98.8</ele>
        <time>2023-03-03T14:28:13Z</time>
      </trkpt>
      <trkpt lat="43.4654" lon="6.32104">
        <ele>98.9</ele>
        <time>2023-03-03T14:28:14Z</time>
      </trkpt>
      <trkpt lat="43.46541" lon="6.32104">
        <ele>98.9</ele>
        <time>2023-03-03T14:28:15Z</time>
      </trkpt>
      <trkpt lat="43.46541" lon="6.32105">
        <ele>98.9</ele>
        <time>2023-03-03T14:28:16Z</time>
      </trkpt>
      <trkpt lat="43.46541" lon="6.32105">
        <ele>98.9</ele>
        <time>2023-03-03T14:28:17Z</time>
      </trkpt>
      <trkpt lat="43.46541" lon="6.32105">
        <ele>98.9</ele>
        <time>2023-03-03T14:28:18Z</time>
      </trkpt>
      <trkpt lat="43.46541" lon="6.32105">
        <ele>98.9</ele>
        <time>2023-03-03T14:28:19Z</time>
      </trkpt>
      <trkpt lat="43.46541" lon="6.32105">
        <ele>98.8</ele>
        <time>2023-03-03T14:28:20Z</time>
      </trkpt>
      <trkpt lat="43.46541" lon="6.32104">
        <ele>98.8</ele>
        <time>2023-03-03T14:28:21Z</time>
      </trkpt>
      <trkpt lat="43.46541" lon="6.32104">
        <ele>98.8</ele>
        <time>2023-03-03T14:28:22Z</time>
      </trkpt>
      <trkpt lat="43.46541" lon="6.32105">
        <ele>98.8</ele>
        <time>2023-03-03T14:28:23Z</time>
      </trkpt>
      <trkpt lat="43.46541" lon="6.32105">
        <ele>98.8</ele>
        <time>2023-03-03T14:28:24Z</time>
      </trkpt>
      <trkpt lat="43.46541" lon="6.32105">
        <ele>98.8</ele>
        <time>2023-03-03T14:28:25Z</time>
      </trkpt>
      <trkpt lat="43.46541" lon="6.32105">
        <ele>98.8</ele>
        <time>2023-03-03T14:28:26Z</time>
      </trkpt>
      <trkpt lat="43.46541" lon="6.32105">
        <ele>98.8</ele>
        <time>2023-03-03T14:28:27Z</time>
      </trkpt>
      <trkpt lat="43.46541" lon="6.32105">
        <ele>98.8</ele>
        <time>2023-03-03T14:28:28Z</time>
      </trkpt>
      <trkpt lat="43.46541" lon="6.32105">
        <ele>98.8</ele>
        <time>2023-03-03T14:28:29Z</time>
      </trkpt>
      <trkpt lat="43.46541" lon="6.32105">
        <ele>98.8</ele>
        <time>2023-03-03T14:28:30Z</time>
      </trkpt>
      <trkpt lat="43.46541" lon="6.32105">
        <ele>98.9</ele>
        <time>2023-03-03T14:28:31Z</time>
      </trkpt>
      <trkpt lat="43.46541" lon="6.32105">
        <ele>98.9</ele>
        <time>2023-03-03T14:28:32Z</time>
      </trkpt>
      <trkpt lat="43.4654" lon="6.32105">
        <ele>99</ele>
        <time>2023-03-03T14:28:33Z</time>
      </trkpt>
      <trkpt lat="43.4654" lon="6.32104">
        <ele>99</ele>
        <time>2023-03-03T14:28:34Z</time>
      </trkpt>
      <trkpt lat="43.4654" lon="6.32103">
        <ele>99</ele>
        <time>2023-03-03T14:28:35Z</time>
      </trkpt>
      <trkpt lat="43.4654" lon="6.32103">
        <ele>99</ele>
        <time>2023-03-03T14:28:36Z</time>
      </trkpt>
      <trkpt lat="43.46539" lon="6.32103">
        <ele>99</ele>
        <time>2023-03-03T14:28:37Z</time>
      </trkpt>
      <trkpt lat="43.46539" lon="6.32103">
        <ele>99</ele>
        <time>2023-03-03T14:28:38Z</time>
      </trkpt>
      <trkpt lat="43.46539" lon="6.32103">
        <ele>98.9</ele>
        <time>2023-03-03T14:28:39Z</time>
      </trkpt>
      <trkpt lat="43.46539" lon="6.32103">
        <ele>98.9</ele>
        <time>2023-03-03T14:28:40Z</time>
      </trkpt>
      <trkpt lat="43.46538" lon="6.32103">
        <ele>98.9</ele>
        <time>2023-03-03T14:28:41Z</time>
      </trkpt>
      <trkpt lat="43.46538" lon="6.32103">
        <ele>98.8</ele>
        <time>2023-03-03T14:28:42Z</time>
      </trkpt>
      <trkpt lat="43.46538" lon="6.32103">
        <ele>98.9</ele>
        <time>2023-03-03T14:28:43Z</time>
      </trkpt>
      <trkpt lat="43.46538" lon="6.32103">
        <ele>98.9</ele>
        <time>2023-03-03T14:28:44Z</time>
      </trkpt>
      <trkpt lat="43.46537" lon="6.32103">
        <ele>98.8</ele>
        <time>2023-03-03T14:28:45Z</time>
      </trkpt>
      <trkpt lat="43.46537" lon="6.32103">
        <ele>98.8</ele>
        <time>2023-03-03T14:28:46Z</time>
      </trkpt>
      <trkpt lat="43.46537" lon="6.32103">
        <ele>98.8</ele>
        <time>2023-03-03T14:28:47Z</time>
      </trkpt>
      <trkpt lat="43.46537" lon="6.32103">
        <ele>98.7</ele>
        <time>2023-03-03T14:28:48Z</time>
      </trkpt>
      <trkpt lat="43.46538" lon="6.32103">
        <ele>98.7</ele>
        <time>2023-03-03T14:28:49Z</time>
      </trkpt>
      <trkpt lat="43.46538" lon="6.32102">
        <ele>98.7</ele>
        <time>2023-03-03T14:28:50Z</time>
      </trkpt>
      <trkpt lat="43.46538" lon="6.32102">
        <ele>98.8</ele>
        <time>2023-03-03T14:28:51Z</time>
      </trkpt>
      <trkpt lat="43.46538" lon="6.32101">
        <ele>98.8</ele>
        <time>2023-03-03T14:28:52Z</time>
      </trkpt>
      <trkpt lat="43.46538" lon="6.321">
        <ele>98.8</ele>
        <time>2023-03-03T14:28:53Z</time>
      </trkpt>
      <trkpt lat="43.46538" lon="6.32099">
        <ele>98.8</ele>
        <time>2023-03-03T14:28:54Z</time>
      </trkpt>
      <trkpt lat="43.46538" lon="6.32099">
        <ele>98.9</ele>
        <time>2023-03-03T14:28:55Z</time>
      </trkpt>
      <trkpt lat="43.46538" lon="6.32099">
        <ele>98.9</ele>
        <time>2023-03-03T14:28:56Z</time>
      </trkpt>
      <trkpt lat="43.46538" lon="6.32099">
        <ele>98.9</ele>
        <time>2023-03-03T14:28:57Z</time>
      </trkpt>
      <trkpt lat="43.46538" lon="6.321">
        <ele>98.8</ele>
        <time>2023-03-03T14:28:58Z</time>
      </trkpt>
      <trkpt lat="43.46538" lon="6.321">
        <ele>98.8</ele>
        <time>2023-03-03T14:28:59Z</time>
      </trkpt>
      <trkpt lat="43.46538" lon="6.321">
        <ele>98.8</ele>
        <time>2023-03-03T14:29:00Z</time>
      </trkpt>
      <trkpt lat="43.46537" lon="6.321">
        <ele>98.8</ele>
        <time>2023-03-03T14:29:01Z</time>
      </trkpt>
      <trkpt lat="43.46537" lon="6.32099">
        <ele>98.9</ele>
        <time>2023-03-03T14:29:02Z</time>
      </trkpt>
      <trkpt lat="43.46537" lon="6.32099">
        <ele>98.9</ele>
        <time>2023-03-03T14:29:03Z</time>
      </trkpt>
      <trkpt lat="43.46537" lon="6.32099">
        <ele>98.9</ele>
        <time>2023-03-03T14:29:04Z</time>
      </trkpt>
      <trkpt lat="43.46536" lon="6.32099">
        <ele>98.8</ele>
        <time>2023-03-03T14:29:05Z</time>
      </trkpt>
      <trkpt lat="43.46536" lon="6.32099">
        <ele>98.7</ele>
        <time>2023-03-03T14:29:06Z</time>
      </trkpt>
      <trkpt lat="43.46536" lon="6.32099">
        <ele>98.7</ele>
        <time>2023-03-03T14:29:07Z</time>
      </trkpt>
      <trkpt lat="43.46536" lon="6.32099">
        <ele>98.7</ele>
        <time>2023-03-03T14:29:08Z</time>
      </trkpt>
      <trkpt lat="43.46536" lon="6.32099">
        <ele>98.6</ele>
        <time>2023-03-03T14:29:09Z</time>
      </trkpt>
      <trkpt lat="43.46536" lon="6.32099">
        <ele>98.7</ele>
        <time>2023-03-03T14:29:10Z</time>
      </trkpt>
      <trkpt lat="43.46536" lon="6.32099">
        <ele>98.7</ele>
        <time>2023-03-03T14:29:11Z</time>
      </trkpt>
      <trkpt lat="43.46536" lon="6.32099">
        <ele>98.7</ele>
        <time>2023-03-03T14:29:12Z</time>
      </trkpt>
      <trkpt lat="43.46536" lon="6.32099">
        <ele>98.8</ele>
        <time>2023-03-03T14:29:13Z</time>
      </trkpt>
      <trkpt lat="43.46536" lon="6.32099">
        <ele>98.7</ele>
        <time>2023-03-03T14:29:14Z</time>
      </trkpt>
      <trkpt lat="43.46536" lon="6.32099">
        <ele>98.6</ele>
        <time>2023-03-03T14:29:15Z</time>
      </trkpt>
      <trkpt lat="43.46536" lon="6.32099">
        <ele>98.5</ele>
        <time>2023-03-03T14:29:16Z</time>
      </trkpt>
      <trkpt lat="43.46536" lon="6.32099">
        <ele>98.5</ele>
        <time>2023-03-03T14:29:17Z</time>
      </trkpt>
      <trkpt lat="43.46536" lon="6.32099">
        <ele>98.5</ele>
        <time>2023-03-03T14:29:18Z</time>
      </trkpt>
      <trkpt lat="43.46536" lon="6.32098">
        <ele>98.5</ele>
        <time>2023-03-03T14:29:19Z</time>
      </trkpt>
      <trkpt lat="43.46536" lon="6.32098">
        <ele>98.5</ele>
        <time>2023-03-03T14:29:20Z</time>
      </trkpt>
      <trkpt lat="43.46536" lon="6.32098">
        <ele>98.5</ele>
        <time>2023-03-03T14:29:21Z</time>
      </trkpt>
      <trkpt lat="43.46536" lon="6.32098">
        <ele>98.5</ele>
        <time>2023-03-03T14:29:22Z</time>
      </trkpt>
      <trkpt lat="43.46536" lon="6.32098">
        <ele>98.5</ele>
        <time>2023-03-03T14:29:23Z</time>
      </trkpt>
      <trkpt lat="43.46535" lon="6.32098">
        <ele>98.6</ele>
        <time>2023-03-03T14:29:24Z</time>
      </trkpt>
      <trkpt lat="43.46535" lon="6.32098">
        <ele>98.6</ele>
        <time>2023-03-03T14:29:25Z</time>
      </trkpt>
      <trkpt lat="43.46535" lon="6.32098">
        <ele>98.7</ele>
        <time>2023-03-03T14:29:26Z</time>
      </trkpt>
      <trkpt lat="43.46535" lon="6.32098">
        <ele>98.7</ele>
        <time>2023-03-03T14:29:27Z</time>
      </trkpt>
      <trkpt lat="43.46535" lon="6.32099">
        <ele>98.7</ele>
        <time>2023-03-03T14:29:28Z</time>
      </trkpt>
      <trkpt lat="43.46534" lon="6.32099">
        <ele>98.7</ele>
        <time>2023-03-03T14:29:29Z</time>
      </trkpt>
      <trkpt lat="43.46534" lon="6.32099">
        <ele>98.7</ele>
        <time>2023-03-03T14:29:30Z</time>
      </trkpt>
      <trkpt lat="43.46534" lon="6.321">
        <ele>98.7</ele>
        <time>2023-03-03T14:29:31Z</time>
      </trkpt>
      <trkpt lat="43.46533" lon="6.321">
        <ele>98.8</ele>
        <time>2023-03-03T14:29:32Z</time>
      </trkpt>
      <trkpt lat="43.46533" lon="6.321">
        <ele>98.8</ele>
        <time>2023-03-03T14:29:33Z</time>
      </trkpt>
      <trkpt lat="43.46533" lon="6.321">
        <ele>98.8</ele>
        <time>2023-03-03T14:29:34Z</time>
      </trkpt>
      <trkpt lat="43.46533" lon="6.321">
        <ele>98.9</ele>
        <time>2023-03-03T14:29:35Z</time>
      </trkpt>
      <trkpt lat="43.46533" lon="6.321">
        <ele>98.9</ele>
        <time>2023-03-03T14:29:36Z</time>
      </trkpt>
      <trkpt lat="43.46532" lon="6.321">
        <ele>98.9</ele>
        <time>2023-03-03T14:29:37Z</time>
      </trkpt>
      <trkpt lat="43.46532" lon="6.321">
        <ele>98.9</ele>
        <time>2023-03-03T14:29:38Z</time>
      </trkpt>
      <trkpt lat="43.46532" lon="6.321">
        <ele>98.8</ele>
        <time>2023-03-03T14:29:39Z</time>
      </trkpt>
      <trkpt lat="43.46532" lon="6.321">
        <ele>98.8</ele>
        <time>2023-03-03T14:29:40Z</time>
      </trkpt>
      <trkpt lat="43.46532" lon="6.321">
        <ele>98.8</ele>
        <time>2023-03-03T14:29:41Z</time>
      </trkpt>
      <trkpt lat="43.46532" lon="6.321">
        <ele>98.8</ele>
        <time>2023-03-03T14:29:42Z</time>
      </trkpt>
      <trkpt lat="43.46533" lon="6.32101">
        <ele>98.8</ele>
        <time>2023-03-03T14:29:43Z</time>
      </trkpt>
      <trkpt lat="43.46534" lon="6.32101">
        <ele>98.8</ele>
        <time>2023-03-03T14:29:44Z</time>
      </trkpt>
      <trkpt lat="43.46534" lon="6.32102">
        <ele>98.8</ele>
        <time>2023-03-03T14:29:45Z</time>
      </trkpt>
      <trkpt lat="43.46534" lon="6.32102">
        <ele>98.8</ele>
        <time>2023-03-03T14:29:46Z</time>
      </trkpt>
      <trkpt lat="43.46534" lon="6.32102">
        <ele>98.8</ele>
        <time>2023-03-03T14:29:47Z</time>
      </trkpt>
      <trkpt lat="43.46534" lon="6.32102">
        <ele>98.8</ele>
        <time>2023-03-03T14:29:48Z</time>
      </trkpt>
      <trkpt lat="43.46534" lon="6.32102">
        <ele>98.8</ele>
        <time>2023-03-03T14:29:49Z</time>
      </trkpt>
      <trkpt lat="43.46534" lon="6.32102">
        <ele>98.7</ele>
        <time>2023-03-03T14:29:50Z</time>
      </trkpt>
      <trkpt lat="43.46534" lon="6.32102">
        <ele>98.7</ele>
        <time>2023-03-03T14:29:51Z</time>
      </trkpt>
      <trkpt lat="43.46534" lon="6.32102">
        <ele>98.7</ele>
        <time>2023-03-03T14:29:52Z</time>
      </trkpt>
      <trkpt lat="43.46534" lon="6.32101">
        <ele>98.8</ele>
        <time>2023-03-03T14:29:53Z</time>
      </trkpt>
      <trkpt lat="43.46533" lon="6.32101">
        <ele>98.8</ele>
        <time>2023-03-03T14:29:54Z</time>
      </trkpt>
      <trkpt lat="43.46533" lon="6.32101">
        <ele>98.8</ele>
        <time>2023-03-03T14:29:55Z</time>
      </trkpt>
      <trkpt lat="43.46533" lon="6.32101">
        <ele>98.8</ele>
        <time>2023-03-03T14:29:56Z</time>
      </trkpt>
      <trkpt lat="43.46533" lon="6.32101">
        <ele>98.8</ele>
        <time>2023-03-03T14:29:57Z</time>
      </trkpt>
      <trkpt lat="43.46533" lon="6.32101">
        <ele>98.8</ele>
        <time>2023-03-03T14:29:58Z</time>
      </trkpt>
      <trkpt lat="43.46533" lon="6.32101">
        <ele>98.8</ele>
        <time>2023-03-03T14:29:59Z</time>
      </trkpt>
      <trkpt lat="43.46533" lon="6.32101">
        <ele>98.8</ele>
        <time>2023-03-03T14:30:00Z</time>
      </trkpt>
      <trkpt lat="43.46533" lon="6.32101">
        <ele>98.8</ele>
        <time>2023-03-03T14:30:01Z</time>
      </trkpt>
      <trkpt lat="43.46533" lon="6.32101">
        <ele>98.8</ele>
        <time>2023-03-03T14:30:02Z</time>
      </trkpt>
      <trkpt lat="43.46534" lon="6.321">
        <ele>98.8</ele>
        <time>2023-03-03T14:30:03Z</time>
      </trkpt>
      <trkpt lat="43.46534" lon="6.321">
        <ele>98.8</ele>
        <time>2023-03-03T14:30:04Z</time>
      </trkpt>
      <trkpt lat="43.46534" lon="6.321">
        <ele>98.8</ele>
        <time>2023-03-03T14:30:05Z</time>
      </trkpt>
      <trkpt lat="43.46533" lon="6.321">
        <ele>98.7</ele>
        <time>2023-03-03T14:30:06Z</time>
      </trkpt>
      <trkpt lat="43.46533" lon="6.32099">
        <ele>98.7</ele>
        <time>2023-03-03T14:30:07Z</time>
      </trkpt>
      <trkpt lat="43.46533" lon="6.32099">
        <ele>98.7</ele>
        <time>2023-03-03T14:30:08Z</time>
      </trkpt>
      <trkpt lat="43.46534" lon="6.32099">
        <ele>98.6</ele>
        <time>2023-03-03T14:30:09Z</time>
      </trkpt>
      <trkpt lat="43.46533" lon="6.32099">
        <ele>98.5</ele>
        <time>2023-03-03T14:30:10Z</time>
      </trkpt>
      <trkpt lat="43.46533" lon="6.32099">
        <ele>98.5</ele>
        <time>2023-03-03T14:30:11Z</time>
      </trkpt>
      <trkpt lat="43.46533" lon="6.32099">
        <ele>98.4</ele>
        <time>2023-03-03T14:30:12Z</time>
      </trkpt>
      <trkpt lat="43.46534" lon="6.32099">
        <ele>98.4</ele>
        <time>2023-03-03T14:30:13Z</time>
      </trkpt>
      <trkpt lat="43.46534" lon="6.32099">
        <ele>98.3</ele>
        <time>2023-03-03T14:30:14Z</time>
      </trkpt>
      <trkpt lat="43.46535" lon="6.32099">
        <ele>98.4</ele>
        <time>2023-03-03T14:30:15Z</time>
      </trkpt>
      <trkpt lat="43.46535" lon="6.321">
        <ele>98.4</ele>
        <time>2023-03-03T14:30:16Z</time>
      </trkpt>
      <trkpt lat="43.46535" lon="6.321">
        <ele>98.4</ele>
        <time>2023-03-03T14:30:17Z</time>
      </trkpt>
      <trkpt lat="43.46535" lon="6.32101">
        <ele>98.3</ele>
        <time>2023-03-03T14:30:18Z</time>
      </trkpt>
      <trkpt lat="43.46536" lon="6.32101">
        <ele>98.3</ele>
        <time>2023-03-03T14:30:19Z</time>
      </trkpt>
      <trkpt lat="43.46535" lon="6.32102">
        <ele>98.3</ele>
        <time>2023-03-03T14:30:20Z</time>
      </trkpt>
      <trkpt lat="43.46536" lon="6.32102">
        <ele>98.3</ele>
        <time>2023-03-03T14:30:21Z</time>
      </trkpt>
      <trkpt lat="43.46535" lon="6.32102">
        <ele>98.3</ele>
        <time>2023-03-03T14:30:22Z</time>
      </trkpt>
      <trkpt lat="43.46535" lon="6.32102">
        <ele>98.3</ele>
        <time>2023-03-03T14:30:23Z</time>
      </trkpt>
      <trkpt lat="43.46535" lon="6.32102">
        <ele>98.3</ele>
        <time>2023-03-03T14:30:24Z</time>
      </trkpt>
      <trkpt lat="43.46535" lon="6.32102">
        <ele>98.4</ele>
        <time>2023-03-03T14:30:25Z</time>
      </trkpt>
      <trkpt lat="43.46534" lon="6.32102">
        <ele>98.5</ele>
        <time>2023-03-03T14:30:26Z</time>
      </trkpt>
      <trkpt lat="43.46534" lon="6.32102">
        <ele>98.5</ele>
        <time>2023-03-03T14:30:27Z</time>
      </trkpt>
      <trkpt lat="43.46534" lon="6.32102">
        <ele>98.5</ele>
        <time>2023-03-03T14:30:28Z</time>
      </trkpt>
      <trkpt lat="43.46533" lon="6.32102">
        <ele>98.4</ele>
        <time>2023-03-03T14:30:29Z</time>
      </trkpt>
      <trkpt lat="43.46534" lon="6.32103">
        <ele>98.3</ele>
        <time>2023-03-03T14:30:30Z</time>
      </trkpt>
      <trkpt lat="43.46534" lon="6.32103">
        <ele>98.2</ele>
        <time>2023-03-03T14:30:31Z</time>
      </trkpt>
      <trkpt lat="43.46533" lon="6.32103">
        <ele>98.2</ele>
        <time>2023-03-03T14:30:32Z</time>
      </trkpt>
      <trkpt lat="43.46533" lon="6.32104">
        <ele>98.3</ele>
        <time>2023-03-03T14:30:33Z</time>
      </trkpt>
      <trkpt lat="43.46533" lon="6.32104">
        <ele>98.3</ele>
        <time>2023-03-03T14:30:34Z</time>
      </trkpt>
      <trkpt lat="43.46533" lon="6.32104">
        <ele>98.3</ele>
        <time>2023-03-03T14:30:35Z</time>
      </trkpt>
      <trkpt lat="43.46533" lon="6.32103">
        <ele>98.3</ele>
        <time>2023-03-03T14:30:36Z</time>
      </trkpt>
      <trkpt lat="43.46533" lon="6.32103">
        <ele>98.4</ele>
        <time>2023-03-03T14:30:37Z</time>
      </trkpt>
      <trkpt lat="43.46533" lon="6.32104">
        <ele>98.4</ele>
        <time>2023-03-03T14:30:38Z</time>
      </trkpt>
      <trkpt lat="43.46533" lon="6.32104">
        <ele>98.4</ele>
        <time>2023-03-03T14:30:39Z</time>
      </trkpt>
      <trkpt lat="43.46533" lon="6.32104">
        <ele>98.5</ele>
        <time>2023-03-03T14:30:40Z</time>
      </trkpt>
      <trkpt lat="43.46534" lon="6.32105">
        <ele>98.5</ele>
        <time>2023-03-03T14:30:41Z</time>
      </trkpt>
      <trkpt lat="43.46534" lon="6.32105">
        <ele>98.5</ele>
        <time>2023-03-03T14:30:42Z</time>
      </trkpt>
      <trkpt lat="43.46534" lon="6.32106">
        <ele>98.5</ele>
        <time>2023-03-03T14:30:43Z</time>
      </trkpt>
      <trkpt lat="43.46533" lon="6.32106">
        <ele>98.5</ele>
        <time>2023-03-03T14:30:44Z</time>
      </trkpt>
      <trkpt lat="43.46534" lon="6.32107">
        <ele>98.6</ele>
        <time>2023-03-03T14:30:45Z</time>
      </trkpt>
      <trkpt lat="43.46534" lon="6.32107">
        <ele>98.6</ele>
        <time>2023-03-03T14:30:46Z</time>
      </trkpt>
      <trkpt lat="43.46534" lon="6.32107">
        <ele>98.6</ele>
        <time>2023-03-03T14:30:47Z</time>
      </trkpt>
      <trkpt lat="43.46534" lon="6.32107">
        <ele>98.6</ele>
        <time>2023-03-03T14:30:48Z</time>
      </trkpt>
      <trkpt lat="43.46534" lon="6.32107">
        <ele>98.5</ele>
        <time>2023-03-03T14:30:49Z</time>
      </trkpt>
      <trkpt lat="43.46534" lon="6.32107">
        <ele>98.6</ele>
        <time>2023-03-03T14:30:50Z</time>
      </trkpt>
      <trkpt lat="43.46534" lon="6.32108">
        <ele>98.6</ele>
        <time>2023-03-03T14:30:51Z</time>
      </trkpt>
      <trkpt lat="43.46534" lon="6.32108">
        <ele>98.6</ele>
        <time>2023-03-03T14:30:52Z</time>
      </trkpt>
      <trkpt lat="43.46534" lon="6.32108">
        <ele>98.6</ele>
        <time>2023-03-03T14:30:53Z</time>
      </trkpt>
      <trkpt lat="43.46534" lon="6.32108">
        <ele>98.6</ele>
        <time>2023-03-03T14:30:54Z</time>
      </trkpt>
      <trkpt lat="43.46534" lon="6.32109">
        <ele>98.6</ele>
        <time>2023-03-03T14:30:55Z</time>
      </trkpt>
      <trkpt lat="43.46534" lon="6.32109">
        <ele>98.6</ele>
        <time>2023-03-03T14:30:56Z</time>
      </trkpt>
      <trkpt lat="43.46534" lon="6.32109">
        <ele>98.5</ele>
        <time>2023-03-03T14:30:57Z</time>
      </trkpt>
      <trkpt lat="43.46534" lon="6.32109">
        <ele>98.5</ele>
        <time>2023-03-03T14:30:58Z</time>
      </trkpt>
      <trkpt lat="43.46534" lon="6.32109">
        <ele>98.4</ele>
        <time>2023-03-03T14:30:59Z</time>
      </trkpt>
      <trkpt lat="43.46534" lon="6.3211">
        <ele>98.4</ele>
        <time>2023-03-03T14:31:00Z</time>
      </trkpt>
      <trkpt lat="43.46534" lon="6.3211">
        <ele>98.5</ele>
        <time>2023-03-03T14:31:01Z</time>
      </trkpt>
      <trkpt lat="43.46534" lon="6.3211">
        <ele>98.6</ele>
        <time>2023-03-03T14:31:02Z</time>
      </trkpt>
      <trkpt lat="43.46534" lon="6.32109">
        <ele>98.6</ele>
        <time>2023-03-03T14:31:03Z</time>
      </trkpt>
      <trkpt lat="43.46534" lon="6.32109">
        <ele>98.6</ele>
        <time>2023-03-03T14:31:04Z</time>
      </trkpt>
      <trkpt lat="43.46534" lon="6.3211">
        <ele>98.6</ele>
        <time>2023-03-03T14:31:05Z</time>
      </trkpt>
      <trkpt lat="43.46534" lon="6.3211">
        <ele>98.6</ele>
        <time>2023-03-03T14:31:06Z</time>
      </trkpt>
      <trkpt lat="43.46534" lon="6.3211">
        <ele>98.5</ele>
        <time>2023-03-03T14:31:07Z</time>
      </trkpt>
      <trkpt lat="43.46534" lon="6.3211">
        <ele>98.4</ele>
        <time>2023-03-03T14:31:08Z</time>
      </trkpt>
      <trkpt lat="43.46534" lon="6.3211">
        <ele>98.4</ele>
        <time>2023-03-03T14:31:09Z</time>
      </trkpt>
      <trkpt lat="43.46534" lon="6.3211">
        <ele>98.4</ele>
        <time>2023-03-03T14:31:10Z</time>
      </trkpt>
      <trkpt lat="43.46534" lon="6.3211">
        <ele>98.4</ele>
        <time>2023-03-03T14:31:11Z</time>
      </trkpt>
      <trkpt lat="43.46534" lon="6.3211">
        <ele>98.4</ele>
        <time>2023-03-03T14:31:12Z</time>
      </trkpt>
      <trkpt lat="43.46534" lon="6.3211">
        <ele>98.4</ele>
        <time>2023-03-03T14:31:13Z</time>
      </trkpt>
      <trkpt lat="43.46534" lon="6.32111">
        <ele>98.4</ele>
        <time>2023-03-03T14:31:14Z</time>
      </trkpt>
      <trkpt lat="43.46534" lon="6.32111">
        <ele>98.5</ele>
        <time>2023-03-03T14:31:15Z</time>
      </trkpt>
      <trkpt lat="43.46534" lon="6.3211">
        <ele>98.5</ele>
        <time>2023-03-03T14:31:16Z</time>
      </trkpt>
      <trkpt lat="43.46534" lon="6.32111">
        <ele>98.5</ele>
        <time>2023-03-03T14:31:17Z</time>
      </trkpt>
      <trkpt lat="43.46534" lon="6.3211">
        <ele>98.6</ele>
        <time>2023-03-03T14:31:18Z</time>
      </trkpt>
      <trkpt lat="43.46534" lon="6.32111">
        <ele>98.6</ele>
        <time>2023-03-03T14:31:19Z</time>
      </trkpt>
      <trkpt lat="43.46534" lon="6.3211">
        <ele>98.6</ele>
        <time>2023-03-03T14:31:20Z</time>
      </trkpt>
      <trkpt lat="43.46534" lon="6.3211">
        <ele>98.6</ele>
        <time>2023-03-03T14:31:21Z</time>
      </trkpt>
      <trkpt lat="43.46534" lon="6.3211">
        <ele>98.6</ele>
        <time>2023-03-03T14:31:22Z</time>
      </trkpt>
      <trkpt lat="43.46534" lon="6.32111">
        <ele>98.6</ele>
        <time>2023-03-03T14:31:23Z</time>
      </trkpt>
      <trkpt lat="43.46535" lon="6.32111">
        <ele>98.6</ele>
        <time>2023-03-03T14:31:24Z</time>
      </trkpt>
      <trkpt lat="43.46535" lon="6.32111">
        <ele>98.7</ele>
        <time>2023-03-03T14:31:25Z</time>
      </trkpt>
      <trkpt lat="43.46535" lon="6.32111">
        <ele>98.7</ele>
        <time>2023-03-03T14:31:26Z</time>
      </trkpt>
      <trkpt lat="43.46535" lon="6.3211">
        <ele>98.6</ele>
        <time>2023-03-03T14:31:27Z</time>
      </trkpt>
      <trkpt lat="43.46535" lon="6.32109">
        <ele>98.7</ele>
        <time>2023-03-03T14:31:28Z</time>
      </trkpt>
      <trkpt lat="43.46535" lon="6.32109">
        <ele>98.6</ele>
        <time>2023-03-03T14:31:29Z</time>
      </trkpt>
      <trkpt lat="43.46535" lon="6.32108">
        <ele>98.6</ele>
        <time>2023-03-03T14:31:30Z</time>
      </trkpt>
      <trkpt lat="43.46535" lon="6.32109">
        <ele>98.7</ele>
        <time>2023-03-03T14:31:31Z</time>
      </trkpt>
      <trkpt lat="43.46535" lon="6.32109">
        <ele>98.7</ele>
        <time>2023-03-03T14:31:32Z</time>
      </trkpt>
      <trkpt lat="43.46535" lon="6.32109">
        <ele>98.7</ele>
        <time>2023-03-03T14:31:33Z</time>
      </trkpt>
      <trkpt lat="43.46535" lon="6.32109">
        <ele>98.7</ele>
        <time>2023-03-03T14:31:34Z</time>
      </trkpt>
      <trkpt lat="43.46535" lon="6.32109">
        <ele>98.7</ele>
        <time>2023-03-03T14:31:35Z</time>
      </trkpt>
      <trkpt lat="43.46535" lon="6.32109">
        <ele>98.6</ele>
        <time>2023-03-03T14:31:36Z</time>
      </trkpt>
      <trkpt lat="43.46535" lon="6.32109">
        <ele>98.6</ele>
        <time>2023-03-03T14:31:37Z</time>
      </trkpt>
      <trkpt lat="43.46535" lon="6.32109">
        <ele>98.5</ele>
        <time>2023-03-03T14:31:38Z</time>
      </trkpt>
      <trkpt lat="43.46535" lon="6.32109">
        <ele>98.5</ele>
        <time>2023-03-03T14:31:39Z</time>
      </trkpt>
      <trkpt lat="43.46535" lon="6.32108">
        <ele>98.6</ele>
        <time>2023-03-03T14:31:40Z</time>
      </trkpt>
      <trkpt lat="43.46535" lon="6.32108">
        <ele>98.6</ele>
        <time>2023-03-03T14:31:41Z</time>
      </trkpt>
      <trkpt lat="43.46535" lon="6.32108">
        <ele>98.6</ele>
        <time>2023-03-03T14:31:42Z</time>
      </trkpt>
      <trkpt lat="43.46535" lon="6.32108">
        <ele>98.6</ele>
        <time>2023-03-03T14:31:43Z</time>
      </trkpt>
      <trkpt lat="43.46535" lon="6.32108">
        <ele>98.6</ele>
        <time>2023-03-03T14:31:44Z</time>
      </trkpt>
      <trkpt lat="43.46534" lon="6.32107">
        <ele>98.6</ele>
        <time>2023-03-03T14:31:45Z</time>
      </trkpt>
      <trkpt lat="43.46534" lon="6.32106">
        <ele>98.6</ele>
        <time>2023-03-03T14:31:46Z</time>
      </trkpt>
      <trkpt lat="43.46534" lon="6.32105">
        <ele>98.6</ele>
        <time>2023-03-03T14:31:47Z</time>
      </trkpt>
      <trkpt lat="43.46534" lon="6.32105">
        <ele>98.6</ele>
        <time>2023-03-03T14:31:48Z</time>
      </trkpt>
      <trkpt lat="43.46533" lon="6.32104">
        <ele>98.6</ele>
        <time>2023-03-03T14:31:49Z</time>
      </trkpt>
      <trkpt lat="43.46533" lon="6.32103">
        <ele>98.5</ele>
        <time>2023-03-03T14:31:50Z</time>
      </trkpt>
      <trkpt lat="43.46533" lon="6.32103">
        <ele>98.5</ele>
        <time>2023-03-03T14:31:51Z</time>
      </trkpt>
      <trkpt lat="43.46533" lon="6.32103">
        <ele>98.4</ele>
        <time>2023-03-03T14:31:52Z</time>
      </trkpt>
      <trkpt lat="43.46532" lon="6.32103">
        <ele>98.5</ele>
        <time>2023-03-03T14:31:53Z</time>
      </trkpt>
      <trkpt lat="43.46532" lon="6.32103">
        <ele>98.4</ele>
        <time>2023-03-03T14:31:54Z</time>
      </trkpt>
      <trkpt lat="43.46532" lon="6.32103">
        <ele>98.3</ele>
        <time>2023-03-03T14:31:55Z</time>
      </trkpt>
      <trkpt lat="43.46532" lon="6.32103">
        <ele>98.3</ele>
        <time>2023-03-03T14:31:56Z</time>
      </trkpt>
      <trkpt lat="43.46532" lon="6.32103">
        <ele>98.3</ele>
        <time>2023-03-03T14:31:57Z</time>
      </trkpt>
      <trkpt lat="43.46533" lon="6.32103">
        <ele>98.4</ele>
        <time>2023-03-03T14:31:58Z</time>
      </trkpt>
      <trkpt lat="43.46533" lon="6.32103">
        <ele>98.4</ele>
        <time>2023-03-03T14:31:59Z</time>
      </trkpt>
      <trkpt lat="43.46533" lon="6.32103">
        <ele>98.4</ele>
        <time>2023-03-03T14:32:00Z</time>
      </trkpt>
      <trkpt lat="43.46533" lon="6.32103">
        <ele>98.4</ele>
        <time>2023-03-03T14:32:01Z</time>
      </trkpt>
      <trkpt lat="43.46532" lon="6.32103">
        <ele>98.5</ele>
        <time>2023-03-03T14:32:02Z</time>
      </trkpt>
      <trkpt lat="43.46533" lon="6.32103">
        <ele>98.5</ele>
        <time>2023-03-03T14:32:03Z</time>
      </trkpt>
      <trkpt lat="43.46533" lon="6.32103">
        <ele>98.5</ele>
        <time>2023-03-03T14:32:04Z</time>
      </trkpt>
      <trkpt lat="43.46533" lon="6.32104">
        <ele>98.5</ele>
        <time>2023-03-03T14:32:05Z</time>
      </trkpt>
      <trkpt lat="43.46532" lon="6.32103">
        <ele>98.5</ele>
        <time>2023-03-03T14:32:06Z</time>
      </trkpt>
      <trkpt lat="43.46532" lon="6.32103">
        <ele>98.5</ele>
        <time>2023-03-03T14:32:07Z</time>
      </trkpt>
      <trkpt lat="43.46532" lon="6.32103">
        <ele>98.6</ele>
        <time>2023-03-03T14:32:08Z</time>
      </trkpt>
      <trkpt lat="43.46532" lon="6.32103">
        <ele>98.5</ele>
        <time>2023-03-03T14:32:09Z</time>
      </trkpt>
      <trkpt lat="43.46533" lon="6.32103">
        <ele>98.5</ele>
        <time>2023-03-03T14:32:10Z</time>
      </trkpt>
      <trkpt lat="43.46532" lon="6.32102">
        <ele>98.4</ele>
        <time>2023-03-03T14:32:11Z</time>
      </trkpt>
      <trkpt lat="43.46533" lon="6.32102">
        <ele>98.5</ele>
        <time>2023-03-03T14:32:12Z</time>
      </trkpt>
      <trkpt lat="43.46533" lon="6.32102">
        <ele>98.5</ele>
        <time>2023-03-03T14:32:13Z</time>
      </trkpt>
      <trkpt lat="43.46534" lon="6.32102">
        <ele>98.6</ele>
        <time>2023-03-03T14:32:14Z</time>
      </trkpt>
      <trkpt lat="43.46533" lon="6.32101">
        <ele>98.7</ele>
        <time>2023-03-03T14:32:15Z</time>
      </trkpt>
      <trkpt lat="43.46534" lon="6.32101">
        <ele>98.7</ele>
        <time>2023-03-03T14:32:16Z</time>
      </trkpt>
      <trkpt lat="43.46534" lon="6.32101">
        <ele>98.7</ele>
        <time>2023-03-03T14:32:17Z</time>
      </trkpt>
      <trkpt lat="43.46534" lon="6.32101">
        <ele>98.6</ele>
        <time>2023-03-03T14:32:18Z</time>
      </trkpt>
      <trkpt lat="43.46534" lon="6.32101">
        <ele>98.6</ele>
        <time>2023-03-03T14:32:19Z</time>
      </trkpt>
      <trkpt lat="43.46534" lon="6.321">
        <ele>98.5</ele>
        <time>2023-03-03T14:32:20Z</time>
      </trkpt>
      <trkpt lat="43.46534" lon="6.321">
        <ele>98.6</ele>
        <time>2023-03-03T14:32:21Z</time>
      </trkpt>
      <trkpt lat="43.46535" lon="6.321">
        <ele>98.7</ele>
        <time>2023-03-03T14:32:22Z</time>
      </trkpt>
      <trkpt lat="43.46535" lon="6.321">
        <ele>98.8</ele>
        <time>2023-03-03T14:32:23Z</time>
      </trkpt>
      <trkpt lat="43.46535" lon="6.32099">
        <ele>98.8</ele>
        <time>2023-03-03T14:32:24Z</time>
      </trkpt>
      <trkpt lat="43.46535" lon="6.32099">
        <ele>98.8</ele>
        <time>2023-03-03T14:32:25Z</time>
      </trkpt>
      <trkpt lat="43.46535" lon="6.32099">
        <ele>98.9</ele>
        <time>2023-03-03T14:32:26Z</time>
      </trkpt>
      <trkpt lat="43.46536" lon="6.32099">
        <ele>98.9</ele>
        <time>2023-03-03T14:32:27Z</time>
      </trkpt>
      <trkpt lat="43.46536" lon="6.32099">
        <ele>98.8</ele>
        <time>2023-03-03T14:32:28Z</time>
      </trkpt>
      <trkpt lat="43.46536" lon="6.32098">
        <ele>98.9</ele>
        <time>2023-03-03T14:32:29Z</time>
      </trkpt>
      <trkpt lat="43.46536" lon="6.32099">
        <ele>98.9</ele>
        <time>2023-03-03T14:32:30Z</time>
      </trkpt>
      <trkpt lat="43.46536" lon="6.32099">
        <ele>98.9</ele>
        <time>2023-03-03T14:32:31Z</time>
      </trkpt>
      <trkpt lat="43.46536" lon="6.32099">
        <ele>98.9</ele>
        <time>2023-03-03T14:32:32Z</time>
      </trkpt>
      <trkpt lat="43.46536" lon="6.32098">
        <ele>98.9</ele>
        <time>2023-03-03T14:32:33Z</time>
      </trkpt>
      <trkpt lat="43.46536" lon="6.32099">
        <ele>98.8</ele>
        <time>2023-03-03T14:32:34Z</time>
      </trkpt>
      <trkpt lat="43.46536" lon="6.321">
        <ele>98.8</ele>
        <time>2023-03-03T14:32:35Z</time>
      </trkpt>
      <trkpt lat="43.46536" lon="6.32101">
        <ele>98.8</ele>
        <time>2023-03-03T14:32:36Z</time>
      </trkpt>
      <trkpt lat="43.46536" lon="6.32102">
        <ele>98.8</ele>
        <time>2023-03-03T14:32:37Z</time>
      </trkpt>
      <trkpt lat="43.46536" lon="6.32102">
        <ele>98.8</ele>
        <time>2023-03-03T14:32:38Z</time>
      </trkpt>
      <trkpt lat="43.46535" lon="6.32103">
        <ele>98.7</ele>
        <time>2023-03-03T14:32:39Z</time>
      </trkpt>
      <trkpt lat="43.46535" lon="6.32104">
        <ele>98.7</ele>
        <time>2023-03-03T14:32:40Z</time>
      </trkpt>
      <trkpt lat="43.46535" lon="6.32104">
        <ele>98.7</ele>
        <time>2023-03-03T14:32:41Z</time>
      </trkpt>
      <trkpt lat="43.46535" lon="6.32104">
        <ele>98.7</ele>
        <time>2023-03-03T14:32:42Z</time>
      </trkpt>
      <trkpt lat="43.46535" lon="6.32104">
        <ele>98.7</ele>
        <time>2023-03-03T14:32:43Z</time>
      </trkpt>
      <trkpt lat="43.46535" lon="6.32104">
        <ele>98.7</ele>
        <time>2023-03-03T14:32:44Z</time>
      </trkpt>
      <trkpt lat="43.46534" lon="6.32104">
        <ele>98.7</ele>
        <time>2023-03-03T14:32:45Z</time>
      </trkpt>
      <trkpt lat="43.46534" lon="6.32105">
        <ele>98.7</ele>
        <time>2023-03-03T14:32:46Z</time>
      </trkpt>
      <trkpt lat="43.46535" lon="6.32106">
        <ele>98.7</ele>
        <time>2023-03-03T14:32:47Z</time>
      </trkpt>
      <trkpt lat="43.46535" lon="6.32106">
        <ele>98.8</ele>
        <time>2023-03-03T14:32:48Z</time>
      </trkpt>
      <trkpt lat="43.46534" lon="6.32106">
        <ele>98.7</ele>
        <time>2023-03-03T14:32:49Z</time>
      </trkpt>
      <trkpt lat="43.46534" lon="6.32106">
        <ele>98.7</ele>
        <time>2023-03-03T14:32:50Z</time>
      </trkpt>
      <trkpt lat="43.46534" lon="6.32107">
        <ele>98.7</ele>
        <time>2023-03-03T14:32:51Z</time>
      </trkpt>
      <trkpt lat="43.46534" lon="6.32107">
        <ele>98.7</ele>
        <time>2023-03-03T14:32:52Z</time>
      </trkpt>
      <trkpt lat="43.46534" lon="6.32107">
        <ele>98.7</ele>
        <time>2023-03-03T14:32:53Z</time>
      </trkpt>
      <trkpt lat="43.46534" lon="6.32107">
        <ele>98.7</ele>
        <time>2023-03-03T14:32:54Z</time>
      </trkpt>
      <trkpt lat="43.46535" lon="6.32107">
        <ele>98.8</ele>
        <time>2023-03-03T14:32:55Z</time>
      </trkpt>
      <trkpt lat="43.46535" lon="6.32107">
        <ele>98.7</ele>
        <time>2023-03-03T14:32:56Z</time>
      </trkpt>
      <trkpt lat="43.46536" lon="6.32107">
        <ele>98.6</ele>
        <time>2023-03-03T14:32:57Z</time>
      </trkpt>
      <trkpt lat="43.46537" lon="6.32107">
        <ele>98.6</ele>
        <time>2023-03-03T14:32:58Z</time>
      </trkpt>
      <trkpt lat="43.46537" lon="6.32107">
        <ele>98.6</ele>
        <time>2023-03-03T14:32:59Z</time>
      </trkpt>
      <trkpt lat="43.46537" lon="6.32108">
        <ele>98.6</ele>
        <time>2023-03-03T14:33:00Z</time>
      </trkpt>
      <trkpt lat="43.46538" lon="6.32108">
        <ele>98.5</ele>
        <time>2023-03-03T14:33:01Z</time>
      </trkpt>
      <trkpt lat="43.46537" lon="6.32108">
        <ele>98.5</ele>
        <time>2023-03-03T14:33:02Z</time>
      </trkpt>
      <trkpt lat="43.46538" lon="6.32108">
        <ele>98.5</ele>
        <time>2023-03-03T14:33:03Z</time>
      </trkpt>
      <trkpt lat="43.46538" lon="6.32108">
        <ele>98.5</ele>
        <time>2023-03-03T14:33:04Z</time>
      </trkpt>
      <trkpt lat="43.46538" lon="6.32108">
        <ele>98.5</ele>
        <time>2023-03-03T14:33:05Z</time>
      </trkpt>
      <trkpt lat="43.46538" lon="6.32107">
        <ele>98.4</ele>
        <time>2023-03-03T14:33:06Z</time>
      </trkpt>
      <trkpt lat="43.46538" lon="6.32108">
        <ele>98.4</ele>
        <time>2023-03-03T14:33:07Z</time>
      </trkpt>
      <trkpt lat="43.46539" lon="6.32107">
        <ele>98.4</ele>
        <time>2023-03-03T14:33:08Z</time>
      </trkpt>
      <trkpt lat="43.46538" lon="6.32107">
        <ele>98.4</ele>
        <time>2023-03-03T14:33:09Z</time>
      </trkpt>
      <trkpt lat="43.46538" lon="6.32105">
        <ele>98.4</ele>
        <time>2023-03-03T14:33:10Z</time>
      </trkpt>
      <trkpt lat="43.46538" lon="6.32105">
        <ele>98.4</ele>
        <time>2023-03-03T14:33:11Z</time>
      </trkpt>
      <trkpt lat="43.46538" lon="6.32105">
        <ele>98.4</ele>
        <time>2023-03-03T14:33:12Z</time>
      </trkpt>
      <trkpt lat="43.46538" lon="6.32104">
        <ele>98.4</ele>
        <time>2023-03-03T14:33:13Z</time>
      </trkpt>
      <trkpt lat="43.46538" lon="6.32103">
        <ele>98.4</ele>
        <time>2023-03-03T14:33:14Z</time>
      </trkpt>
      <trkpt lat="43.46539" lon="6.32103">
        <ele>98.3</ele>
        <time>2023-03-03T14:33:15Z</time>
      </trkpt>
      <trkpt lat="43.4654" lon="6.32103">
        <ele>98.3</ele>
        <time>2023-03-03T14:33:16Z</time>
      </trkpt>
      <trkpt lat="43.4654" lon="6.32103">
        <ele>98.3</ele>
        <time>2023-03-03T14:33:17Z</time>
      </trkpt>
      <trkpt lat="43.4654" lon="6.32104">
        <ele>98.3</ele>
        <time>2023-03-03T14:33:18Z</time>
      </trkpt>
      <trkpt lat="43.46541" lon="6.32104">
        <ele>98.3</ele>
        <time>2023-03-03T14:33:19Z</time>
      </trkpt>
      <trkpt lat="43.46541" lon="6.32104">
        <ele>98.4</ele>
        <time>2023-03-03T14:33:20Z</time>
      </trkpt>
      <trkpt lat="43.4654" lon="6.32103">
        <ele>98.5</ele>
        <time>2023-03-03T14:33:21Z</time>
      </trkpt>
      <trkpt lat="43.4654" lon="6.32103">
        <ele>98.5</ele>
        <time>2023-03-03T14:33:22Z</time>
      </trkpt>
      <trkpt lat="43.4654" lon="6.32103">
        <ele>98.6</ele>
        <time>2023-03-03T14:33:23Z</time>
      </trkpt>
      <trkpt lat="43.4654" lon="6.32103">
        <ele>98.5</ele>
        <time>2023-03-03T14:33:24Z</time>
      </trkpt>
      <trkpt lat="43.4654" lon="6.32103">
        <ele>98.6</ele>
        <time>2023-03-03T14:33:25Z</time>
      </trkpt>
      <trkpt lat="43.46539" lon="6.32104">
        <ele>98.5</ele>
        <time>2023-03-03T14:33:26Z</time>
      </trkpt>
      <trkpt lat="43.46539" lon="6.32105">
        <ele>98.4</ele>
        <time>2023-03-03T14:33:27Z</time>
      </trkpt>
      <trkpt lat="43.46539" lon="6.32105">
        <ele>98.4</ele>
        <time>2023-03-03T14:33:28Z</time>
      </trkpt>
      <trkpt lat="43.46539" lon="6.32105">
        <ele>98.4</ele>
        <time>2023-03-03T14:33:29Z</time>
      </trkpt>
      <trkpt lat="43.46539" lon="6.32105">
        <ele>98.4</ele>
        <time>2023-03-03T14:33:30Z</time>
      </trkpt>
      <trkpt lat="43.46539" lon="6.32104">
        <ele>98.4</ele>
        <time>2023-03-03T14:33:31Z</time>
      </trkpt>
      <trkpt lat="43.46539" lon="6.32104">
        <ele>98.4</ele>
        <time>2023-03-03T14:33:32Z</time>
      </trkpt>
      <trkpt lat="43.46539" lon="6.32104">
        <ele>98.4</ele>
        <time>2023-03-03T14:33:33Z</time>
      </trkpt>
      <trkpt lat="43.46539" lon="6.32104">
        <ele>98.4</ele>
        <time>2023-03-03T14:33:34Z</time>
      </trkpt>
      <trkpt lat="43.46539" lon="6.32104">
        <ele>98.4</ele>
        <time>2023-03-03T14:33:35Z</time>
      </trkpt>
      <trkpt lat="43.46539" lon="6.32104">
        <ele>98.4</ele>
        <time>2023-03-03T14:33:36Z</time>
      </trkpt>
      <trkpt lat="43.46539" lon="6.32104">
        <ele>98.6</ele>
        <time>2023-03-03T14:33:37Z</time>
      </trkpt>
      <trkpt lat="43.46539" lon="6.32104">
        <ele>98.7</ele>
        <time>2023-03-03T14:33:38Z</time>
      </trkpt>
      <trkpt lat="43.46539" lon="6.32103">
        <ele>98.7</ele>
        <time>2023-03-03T14:33:39Z</time>
      </trkpt>
      <trkpt lat="43.46539" lon="6.32103">
        <ele>98.8</ele>
        <time>2023-03-03T14:33:40Z</time>
      </trkpt>
      <trkpt lat="43.4654" lon="6.32103">
        <ele>98.8</ele>
        <time>2023-03-03T14:33:41Z</time>
      </trkpt>
      <trkpt lat="43.4654" lon="6.32103">
        <ele>98.9</ele>
        <time>2023-03-03T14:33:42Z</time>
      </trkpt>
      <trkpt lat="43.46539" lon="6.32103">
        <ele>98.9</ele>
        <time>2023-03-03T14:33:43Z</time>
      </trkpt>
      <trkpt lat="43.46539" lon="6.32103">
        <ele>98.9</ele>
        <time>2023-03-03T14:33:44Z</time>
      </trkpt>
      <trkpt lat="43.46539" lon="6.32103">
        <ele>98.9</ele>
        <time>2023-03-03T14:33:45Z</time>
      </trkpt>
      <trkpt lat="43.46538" lon="6.32104">
        <ele>98.9</ele>
        <time>2023-03-03T14:33:46Z</time>
      </trkpt>
      <trkpt lat="43.46538" lon="6.32104">
        <ele>98.9</ele>
        <time>2023-03-03T14:33:47Z</time>
      </trkpt>
      <trkpt lat="43.46538" lon="6.32105">
        <ele>99</ele>
        <time>2023-03-03T14:33:48Z</time>
      </trkpt>
      <trkpt lat="43.46538" lon="6.32105">
        <ele>99</ele>
        <time>2023-03-03T14:33:49Z</time>
      </trkpt>
      <trkpt lat="43.46538" lon="6.32106">
        <ele>99</ele>
        <time>2023-03-03T14:33:50Z</time>
      </trkpt>
      <trkpt lat="43.46538" lon="6.32107">
        <ele>98.9</ele>
        <time>2023-03-03T14:33:51Z</time>
      </trkpt>
      <trkpt lat="43.46538" lon="6.32107">
        <ele>98.9</ele>
        <time>2023-03-03T14:33:52Z</time>
      </trkpt>
      <trkpt lat="43.46538" lon="6.32108">
        <ele>98.9</ele>
        <time>2023-03-03T14:33:53Z</time>
      </trkpt>
      <trkpt lat="43.46538" lon="6.32108">
        <ele>98.9</ele>
        <time>2023-03-03T14:33:54Z</time>
      </trkpt>
      <trkpt lat="43.46538" lon="6.32108">
        <ele>98.9</ele>
        <time>2023-03-03T14:33:55Z</time>
      </trkpt>
      <trkpt lat="43.46539" lon="6.32108">
        <ele>98.8</ele>
        <time>2023-03-03T14:33:56Z</time>
      </trkpt>
      <trkpt lat="43.46539" lon="6.32109">
        <ele>98.7</ele>
        <time>2023-03-03T14:33:57Z</time>
      </trkpt>
      <trkpt lat="43.46539" lon="6.32109">
        <ele>98.6</ele>
        <time>2023-03-03T14:33:58Z</time>
      </trkpt>
      <trkpt lat="43.46539" lon="6.32109">
        <ele>98.5</ele>
        <time>2023-03-03T14:33:59Z</time>
      </trkpt>
      <trkpt lat="43.46539" lon="6.32109">
        <ele>98.5</ele>
        <time>2023-03-03T14:34:00Z</time>
      </trkpt>
      <trkpt lat="43.46539" lon="6.3211">
        <ele>98.4</ele>
        <time>2023-03-03T14:34:01Z</time>
      </trkpt>
      <trkpt lat="43.46539" lon="6.3211">
        <ele>98.3</ele>
        <time>2023-03-03T14:34:02Z</time>
      </trkpt>
      <trkpt lat="43.46539" lon="6.3211">
        <ele>98.3</ele>
        <time>2023-03-03T14:34:03Z</time>
      </trkpt>
      <trkpt lat="43.46539" lon="6.3211">
        <ele>98.2</ele>
        <time>2023-03-03T14:34:04Z</time>
      </trkpt>
      <trkpt lat="43.46539" lon="6.32111">
        <ele>98.2</ele>
        <time>2023-03-03T14:34:05Z</time>
      </trkpt>
      <trkpt lat="43.46539" lon="6.32111">
        <ele>98.1</ele>
        <time>2023-03-03T14:34:06Z</time>
      </trkpt>
      <trkpt lat="43.46539" lon="6.32111">
        <ele>98.1</ele>
        <time>2023-03-03T14:34:07Z</time>
      </trkpt>
      <trkpt lat="43.46539" lon="6.32111">
        <ele>98.1</ele>
        <time>2023-03-03T14:34:08Z</time>
      </trkpt>
      <trkpt lat="43.46539" lon="6.32111">
        <ele>98.2</ele>
        <time>2023-03-03T14:34:09Z</time>
      </trkpt>
      <trkpt lat="43.46539" lon="6.32111">
        <ele>98.2</ele>
        <time>2023-03-03T14:34:10Z</time>
      </trkpt>
      <trkpt lat="43.46539" lon="6.32112">
        <ele>98.2</ele>
        <time>2023-03-03T14:34:11Z</time>
      </trkpt>
      <trkpt lat="43.46539" lon="6.32112">
        <ele>98.2</ele>
        <time>2023-03-03T14:34:12Z</time>
      </trkpt>
      <trkpt lat="43.46538" lon="6.32112">
        <ele>98.2</ele>
        <time>2023-03-03T14:34:13Z</time>
      </trkpt>
      <trkpt lat="43.46538" lon="6.32112">
        <ele>98.2</ele>
        <time>2023-03-03T14:34:14Z</time>
      </trkpt>
      <trkpt lat="43.46538" lon="6.32112">
        <ele>98.1</ele>
        <time>2023-03-03T14:34:15Z</time>
      </trkpt>
      <trkpt lat="43.46538" lon="6.32112">
        <ele>98.2</ele>
        <time>2023-03-03T14:34:16Z</time>
      </trkpt>
      <trkpt lat="43.46538" lon="6.32112">
        <ele>98.3</ele>
        <time>2023-03-03T14:34:17Z</time>
      </trkpt>
      <trkpt lat="43.46538" lon="6.32113">
        <ele>98.2</ele>
        <time>2023-03-03T14:34:18Z</time>
      </trkpt>
      <trkpt lat="43.46538" lon="6.32113">
        <ele>98.2</ele>
        <time>2023-03-03T14:34:19Z</time>
      </trkpt>
      <trkpt lat="43.46538" lon="6.32113">
        <ele>98.2</ele>
        <time>2023-03-03T14:34:20Z</time>
      </trkpt>
      <trkpt lat="43.46538" lon="6.32113">
        <ele>98.2</ele>
        <time>2023-03-03T14:34:21Z</time>
      </trkpt>
      <trkpt lat="43.46537" lon="6.32114">
        <ele>98.2</ele>
        <time>2023-03-03T14:34:22Z</time>
      </trkpt>
      <trkpt lat="43.46537" lon="6.32114">
        <ele>98.2</ele>
        <time>2023-03-03T14:34:23Z</time>
      </trkpt>
      <trkpt lat="43.46537" lon="6.32114">
        <ele>98.2</ele>
        <time>2023-03-03T14:34:24Z</time>
      </trkpt>
      <trkpt lat="43.46537" lon="6.32114">
        <ele>98.2</ele>
        <time>2023-03-03T14:34:25Z</time>
      </trkpt>
      <trkpt lat="43.46537" lon="6.32115">
        <ele>98.2</ele>
        <time>2023-03-03T14:34:26Z</time>
      </trkpt>
      <trkpt lat="43.46537" lon="6.32115">
        <ele>98.4</ele>
        <time>2023-03-03T14:34:27Z</time>
      </trkpt>
      <trkpt lat="43.46536" lon="6.32115">
        <ele>98.4</ele>
        <time>2023-03-03T14:34:28Z</time>
      </trkpt>
      <trkpt lat="43.46536" lon="6.32116">
        <ele>98.5</ele>
        <time>2023-03-03T14:34:29Z</time>
      </trkpt>
      <trkpt lat="43.46535" lon="6.32117">
        <ele>98.4</ele>
        <time>2023-03-03T14:34:30Z</time>
      </trkpt>
      <trkpt lat="43.46535" lon="6.32118">
        <ele>98.4</ele>
        <time>2023-03-03T14:34:31Z</time>
      </trkpt>
      <trkpt lat="43.46535" lon="6.3212">
        <ele>98.5</ele>
        <time>2023-03-03T14:34:32Z</time>
      </trkpt>
      <trkpt lat="43.46534" lon="6.3212">
        <ele>98.5</ele>
        <time>2023-03-03T14:34:33Z</time>
      </trkpt>
      <trkpt lat="43.46534" lon="6.32122">
        <ele>98.6</ele>
        <time>2023-03-03T14:34:34Z</time>
      </trkpt>
      <trkpt lat="43.46533" lon="6.32122">
        <ele>98.6</ele>
        <time>2023-03-03T14:34:35Z</time>
      </trkpt>
      <trkpt lat="43.46533" lon="6.32123">
        <ele>98.7</ele>
        <time>2023-03-03T14:34:36Z</time>
      </trkpt>
      <trkpt lat="43.46532" lon="6.32124">
        <ele>98.7</ele>
        <time>2023-03-03T14:34:37Z</time>
      </trkpt>
      <trkpt lat="43.46532" lon="6.32125">
        <ele>98.7</ele>
        <time>2023-03-03T14:34:38Z</time>
      </trkpt>
      <trkpt lat="43.46531" lon="6.32127">
        <ele>98.8</ele>
        <time>2023-03-03T14:34:39Z</time>
      </trkpt>
      <trkpt lat="43.46531" lon="6.32128">
        <ele>98.9</ele>
        <time>2023-03-03T14:34:40Z</time>
      </trkpt>
      <trkpt lat="43.46531" lon="6.32129">
        <ele>99</ele>
        <time>2023-03-03T14:34:41Z</time>
      </trkpt>
      <trkpt lat="43.46531" lon="6.3213">
        <ele>99</ele>
        <time>2023-03-03T14:34:42Z</time>
      </trkpt>
      <trkpt lat="43.46531" lon="6.32131">
        <ele>98.9</ele>
        <time>2023-03-03T14:34:43Z</time>
      </trkpt>
      <trkpt lat="43.46531" lon="6.32133">
        <ele>98.9</ele>
        <time>2023-03-03T14:34:44Z</time>
      </trkpt>
      <trkpt lat="43.46531" lon="6.32134">
        <ele>99</ele>
        <time>2023-03-03T14:34:45Z</time>
      </trkpt>
      <trkpt lat="43.4653" lon="6.32136">
        <ele>99</ele>
        <time>2023-03-03T14:34:46Z</time>
      </trkpt>
      <trkpt lat="43.4653" lon="6.32137">
        <ele>99</ele>
        <time>2023-03-03T14:34:47Z</time>
      </trkpt>
      <trkpt lat="43.4653" lon="6.32139">
        <ele>99.1</ele>
        <time>2023-03-03T14:34:48Z</time>
      </trkpt>
      <trkpt lat="43.4653" lon="6.3214">
        <ele>99.2</ele>
        <time>2023-03-03T14:34:49Z</time>
      </trkpt>
      <trkpt lat="43.4653" lon="6.32141">
        <ele>99.2</ele>
        <time>2023-03-03T14:34:50Z</time>
      </trkpt>
      <trkpt lat="43.4653" lon="6.32143">
        <ele>99.2</ele>
        <time>2023-03-03T14:34:51Z</time>
      </trkpt>
      <trkpt lat="43.4653" lon="6.32144">
        <ele>99.2</ele>
        <time>2023-03-03T14:34:52Z</time>
      </trkpt>
      <trkpt lat="43.4653" lon="6.32146">
        <ele>99.2</ele>
        <time>2023-03-03T14:34:53Z</time>
      </trkpt>
      <trkpt lat="43.4653" lon="6.32147">
        <ele>99.2</ele>
        <time>2023-03-03T14:34:54Z</time>
      </trkpt>
      <trkpt lat="43.4653" lon="6.32149">
        <ele>99.2</ele>
        <time>2023-03-03T14:34:55Z</time>
      </trkpt>
      <trkpt lat="43.4653" lon="6.3215">
        <ele>99.3</ele>
        <time>2023-03-03T14:34:56Z</time>
      </trkpt>
      <trkpt lat="43.4653" lon="6.32151">
        <ele>99.4</ele>
        <time>2023-03-03T14:34:57Z</time>
      </trkpt>
      <trkpt lat="43.4653" lon="6.32153">
        <ele>99.5</ele>
        <time>2023-03-03T14:34:58Z</time>
      </trkpt>
      <trkpt lat="43.4653" lon="6.32154">
        <ele>99.6</ele>
        <time>2023-03-03T14:34:59Z</time>
      </trkpt>
      <trkpt lat="43.4653" lon="6.32155">
        <ele>99.6</ele>
        <time>2023-03-03T14:35:00Z</time>
      </trkpt>
      <trkpt lat="43.4653" lon="6.32157">
        <ele>99.7</ele>
        <time>2023-03-03T14:35:01Z</time>
      </trkpt>
      <trkpt lat="43.4653" lon="6.32158">
        <ele>99.7</ele>
        <time>2023-03-03T14:35:02Z</time>
      </trkpt>
      <trkpt lat="43.4653" lon="6.3216">
        <ele>99.8</ele>
        <time>2023-03-03T14:35:03Z</time>
      </trkpt>
      <trkpt lat="43.46529" lon="6.32162">
        <ele>99.8</ele>
        <time>2023-03-03T14:35:04Z</time>
      </trkpt>
      <trkpt lat="43.46529" lon="6.32163">
        <ele>99.9</ele>
        <time>2023-03-03T14:35:05Z</time>
      </trkpt>
      <trkpt lat="43.46529" lon="6.32165">
        <ele>99.9</ele>
        <time>2023-03-03T14:35:06Z</time>
      </trkpt>
      <trkpt lat="43.46529" lon="6.32167">
        <ele>100</ele>
        <time>2023-03-03T14:35:07Z</time>
      </trkpt>
      <trkpt lat="43.46528" lon="6.32168">
        <ele>100.1</ele>
        <time>2023-03-03T14:35:08Z</time>
      </trkpt>
      <trkpt lat="43.46528" lon="6.32169">
        <ele>100.1</ele>
        <time>2023-03-03T14:35:09Z</time>
      </trkpt>
      <trkpt lat="43.46528" lon="6.32171">
        <ele>100.1</ele>
        <time>2023-03-03T14:35:10Z</time>
      </trkpt>
      <trkpt lat="43.46528" lon="6.32173">
        <ele>100.1</ele>
        <time>2023-03-03T14:35:11Z</time>
      </trkpt>
      <trkpt lat="43.46528" lon="6.32174">
        <ele>100.2</ele>
        <time>2023-03-03T14:35:12Z</time>
      </trkpt>
      <trkpt lat="43.46527" lon="6.32176">
        <ele>100.2</ele>
        <time>2023-03-03T14:35:13Z</time>
      </trkpt>
      <trkpt lat="43.46527" lon="6.32178">
        <ele>100.2</ele>
        <time>2023-03-03T14:35:14Z</time>
      </trkpt>
      <trkpt lat="43.46527" lon="6.32179">
        <ele>100.3</ele>
        <time>2023-03-03T14:35:15Z</time>
      </trkpt>
      <trkpt lat="43.46527" lon="6.32181">
        <ele>100.4</ele>
        <time>2023-03-03T14:35:16Z</time>
      </trkpt>
      <trkpt lat="43.46527" lon="6.32182">
        <ele>100.4</ele>
        <time>2023-03-03T14:35:17Z</time>
      </trkpt>
      <trkpt lat="43.46526" lon="6.32183">
        <ele>100.4</ele>
        <time>2023-03-03T14:35:18Z</time>
      </trkpt>
      <trkpt lat="43.46526" lon="6.32185">
        <ele>100.5</ele>
        <time>2023-03-03T14:35:19Z</time>
      </trkpt>
      <trkpt lat="43.46526" lon="6.32186">
        <ele>100.6</ele>
        <time>2023-03-03T14:35:20Z</time>
      </trkpt>
      <trkpt lat="43.46526" lon="6.32187">
        <ele>100.6</ele>
        <time>2023-03-03T14:35:21Z</time>
      </trkpt>
      <trkpt lat="43.46526" lon="6.32188">
        <ele>100.6</ele>
        <time>2023-03-03T14:35:22Z</time>
      </trkpt>
      <trkpt lat="43.46526" lon="6.3219">
        <ele>100.7</ele>
        <time>2023-03-03T14:35:23Z</time>
      </trkpt>
      <trkpt lat="43.46525" lon="6.32191">
        <ele>100.8</ele>
        <time>2023-03-03T14:35:24Z</time>
      </trkpt>
      <trkpt lat="43.46525" lon="6.32192">
        <ele>100.7</ele>
        <time>2023-03-03T14:35:25Z</time>
      </trkpt>
      <trkpt lat="43.46525" lon="6.32193">
        <ele>100.7</ele>
        <time>2023-03-03T14:35:26Z</time>
      </trkpt>
      <trkpt lat="43.46525" lon="6.32195">
        <ele>100.8</ele>
        <time>2023-03-03T14:35:27Z</time>
      </trkpt>
      <trkpt lat="43.46524" lon="6.32196">
        <ele>101</ele>
        <time>2023-03-03T14:35:28Z</time>
      </trkpt>
      <trkpt lat="43.46524" lon="6.32198">
        <ele>101</ele>
        <time>2023-03-03T14:35:29Z</time>
      </trkpt>
      <trkpt lat="43.46524" lon="6.32199">
        <ele>101.1</ele>
        <time>2023-03-03T14:35:30Z</time>
      </trkpt>
      <trkpt lat="43.46524" lon="6.322">
        <ele>101.1</ele>
        <time>2023-03-03T14:35:31Z</time>
      </trkpt>
      <trkpt lat="43.46524" lon="6.32201">
        <ele>101.1</ele>
        <time>2023-03-03T14:35:32Z</time>
      </trkpt>
      <trkpt lat="43.46524" lon="6.32203">
        <ele>101.1</ele>
        <time>2023-03-03T14:35:33Z</time>
      </trkpt>
      <trkpt lat="43.46523" lon="6.32204">
        <ele>101.1</ele>
        <time>2023-03-03T14:35:34Z</time>
      </trkpt>
      <trkpt lat="43.46523" lon="6.32206">
        <ele>101.2</ele>
        <time>2023-03-03T14:35:35Z</time>
      </trkpt>
      <trkpt lat="43.46523" lon="6.32207">
        <ele>101.3</ele>
        <time>2023-03-03T14:35:36Z</time>
      </trkpt>
      <trkpt lat="43.46522" lon="6.32209">
        <ele>101.4</ele>
        <time>2023-03-03T14:35:37Z</time>
      </trkpt>
      <trkpt lat="43.46522" lon="6.3221">
        <ele>101.5</ele>
        <time>2023-03-03T14:35:38Z</time>
      </trkpt>
      <trkpt lat="43.46522" lon="6.32212">
        <ele>101.5</ele>
        <time>2023-03-03T14:35:39Z</time>
      </trkpt>
      <trkpt lat="43.46522" lon="6.32213">
        <ele>101.5</ele>
        <time>2023-03-03T14:35:40Z</time>
      </trkpt>
      <trkpt lat="43.46522" lon="6.32215">
        <ele>101.6</ele>
        <time>2023-03-03T14:35:41Z</time>
      </trkpt>
      <trkpt lat="43.46522" lon="6.32217">
        <ele>101.7</ele>
        <time>2023-03-03T14:35:42Z</time>
      </trkpt>
      <trkpt lat="43.46522" lon="6.32219">
        <ele>101.7</ele>
        <time>2023-03-03T14:35:43Z</time>
      </trkpt>
      <trkpt lat="43.46522" lon="6.3222">
        <ele>101.7</ele>
        <time>2023-03-03T14:35:44Z</time>
      </trkpt>
      <trkpt lat="43.46522" lon="6.32222">
        <ele>101.8</ele>
        <time>2023-03-03T14:35:45Z</time>
      </trkpt>
      <trkpt lat="43.46522" lon="6.32224">
        <ele>101.8</ele>
        <time>2023-03-03T14:35:46Z</time>
      </trkpt>
      <trkpt lat="43.46523" lon="6.32226">
        <ele>101.8</ele>
        <time>2023-03-03T14:35:47Z</time>
      </trkpt>
      <trkpt lat="43.46523" lon="6.32227">
        <ele>101.8</ele>
        <time>2023-03-03T14:35:48Z</time>
      </trkpt>
      <trkpt lat="43.46523" lon="6.32229">
        <ele>101.8</ele>
        <time>2023-03-03T14:35:49Z</time>
      </trkpt>
      <trkpt lat="43.46524" lon="6.3223">
        <ele>101.7</ele>
        <time>2023-03-03T14:35:50Z</time>
      </trkpt>
      <trkpt lat="43.46524" lon="6.32232">
        <ele>101.7</ele>
        <time>2023-03-03T14:35:51Z</time>
      </trkpt>
      <trkpt lat="43.46524" lon="6.32233">
        <ele>101.6</ele>
        <time>2023-03-03T14:35:52Z</time>
      </trkpt>
      <trkpt lat="43.46524" lon="6.32235">
        <ele>101.6</ele>
        <time>2023-03-03T14:35:53Z</time>
      </trkpt>
      <trkpt lat="43.46525" lon="6.32236">
        <ele>101.8</ele>
        <time>2023-03-03T14:35:54Z</time>
      </trkpt>
      <trkpt lat="43.46525" lon="6.32238">
        <ele>101.8</ele>
        <time>2023-03-03T14:35:55Z</time>
      </trkpt>
      <trkpt lat="43.46525" lon="6.32239">
        <ele>101.8</ele>
        <time>2023-03-03T14:35:56Z</time>
      </trkpt>
      <trkpt lat="43.46525" lon="6.32241">
        <ele>101.9</ele>
        <time>2023-03-03T14:35:57Z</time>
      </trkpt>
      <trkpt lat="43.46526" lon="6.32243">
        <ele>101.9</ele>
        <time>2023-03-03T14:35:58Z</time>
      </trkpt>
      <trkpt lat="43.46526" lon="6.32244">
        <ele>101.9</ele>
        <time>2023-03-03T14:35:59Z</time>
      </trkpt>
      <trkpt lat="43.46526" lon="6.32246">
        <ele>101.9</ele>
        <time>2023-03-03T14:36:00Z</time>
      </trkpt>
      <trkpt lat="43.46526" lon="6.32247">
        <ele>102</ele>
        <time>2023-03-03T14:36:01Z</time>
      </trkpt>
      <trkpt lat="43.46526" lon="6.32248">
        <ele>102.1</ele>
        <time>2023-03-03T14:36:02Z</time>
      </trkpt>
      <trkpt lat="43.46526" lon="6.3225">
        <ele>102.1</ele>
        <time>2023-03-03T14:36:03Z</time>
      </trkpt>
      <trkpt lat="43.46526" lon="6.32251">
        <ele>102.2</ele>
        <time>2023-03-03T14:36:04Z</time>
      </trkpt>
      <trkpt lat="43.46526" lon="6.32252">
        <ele>102.2</ele>
        <time>2023-03-03T14:36:05Z</time>
      </trkpt>
      <trkpt lat="43.46526" lon="6.32254">
        <ele>102.2</ele>
        <time>2023-03-03T14:36:06Z</time>
      </trkpt>
      <trkpt lat="43.46526" lon="6.32255">
        <ele>102.3</ele>
        <time>2023-03-03T14:36:07Z</time>
      </trkpt>
      <trkpt lat="43.46526" lon="6.32256">
        <ele>102.3</ele>
        <time>2023-03-03T14:36:08Z</time>
      </trkpt>
      <trkpt lat="43.46525" lon="6.32258">
        <ele>102.4</ele>
        <time>2023-03-03T14:36:09Z</time>
      </trkpt>
      <trkpt lat="43.46525" lon="6.32259">
        <ele>102.4</ele>
        <time>2023-03-03T14:36:10Z</time>
      </trkpt>
      <trkpt lat="43.46525" lon="6.32261">
        <ele>102.4</ele>
        <time>2023-03-03T14:36:11Z</time>
      </trkpt>
      <trkpt lat="43.46524" lon="6.32262">
        <ele>102.4</ele>
        <time>2023-03-03T14:36:12Z</time>
      </trkpt>
      <trkpt lat="43.46524" lon="6.32264">
        <ele>102.3</ele>
        <time>2023-03-03T14:36:13Z</time>
      </trkpt>
      <trkpt lat="43.46524" lon="6.32265">
        <ele>102.3</ele>
        <time>2023-03-03T14:36:14Z</time>
      </trkpt>
      <trkpt lat="43.46524" lon="6.32266">
        <ele>102.4</ele>
        <time>2023-03-03T14:36:15Z</time>
      </trkpt>
      <trkpt lat="43.46524" lon="6.32268">
        <ele>102.4</ele>
        <time>2023-03-03T14:36:16Z</time>
      </trkpt>
      <trkpt lat="43.46524" lon="6.32269">
        <ele>102.4</ele>
        <time>2023-03-03T14:36:17Z</time>
      </trkpt>
      <trkpt lat="43.46524" lon="6.32271">
        <ele>102.4</ele>
        <time>2023-03-03T14:36:18Z</time>
      </trkpt>
      <trkpt lat="43.46523" lon="6.32272">
        <ele>102.5</ele>
        <time>2023-03-03T14:36:19Z</time>
      </trkpt>
      <trkpt lat="43.46523" lon="6.32274">
        <ele>102.5</ele>
        <time>2023-03-03T14:36:20Z</time>
      </trkpt>
      <trkpt lat="43.46523" lon="6.32275">
        <ele>102.6</ele>
        <time>2023-03-03T14:36:21Z</time>
      </trkpt>
      <trkpt lat="43.46523" lon="6.32276">
        <ele>102.7</ele>
        <time>2023-03-03T14:36:22Z</time>
      </trkpt>
      <trkpt lat="43.46523" lon="6.32277">
        <ele>102.8</ele>
        <time>2023-03-03T14:36:23Z</time>
      </trkpt>
      <trkpt lat="43.46523" lon="6.32279">
        <ele>102.8</ele>
        <time>2023-03-03T14:36:24Z</time>
      </trkpt>
      <trkpt lat="43.46523" lon="6.3228">
        <ele>102.7</ele>
        <time>2023-03-03T14:36:25Z</time>
      </trkpt>
      <trkpt lat="43.46523" lon="6.32281">
        <ele>102.7</ele>
        <time>2023-03-03T14:36:26Z</time>
      </trkpt>
      <trkpt lat="43.46523" lon="6.32283">
        <ele>102.8</ele>
        <time>2023-03-03T14:36:27Z</time>
      </trkpt>
      <trkpt lat="43.46523" lon="6.32284">
        <ele>102.8</ele>
        <time>2023-03-03T14:36:28Z</time>
      </trkpt>
      <trkpt lat="43.46523" lon="6.32285">
        <ele>102.8</ele>
        <time>2023-03-03T14:36:29Z</time>
      </trkpt>
      <trkpt lat="43.46523" lon="6.32287">
        <ele>102.8</ele>
        <time>2023-03-03T14:36:30Z</time>
      </trkpt>
      <trkpt lat="43.46523" lon="6.32288">
        <ele>102.7</ele>
        <time>2023-03-03T14:36:31Z</time>
      </trkpt>
      <trkpt lat="43.46523" lon="6.3229">
        <ele>102.7</ele>
        <time>2023-03-03T14:36:32Z</time>
      </trkpt>
      <trkpt lat="43.46523" lon="6.3229">
        <ele>102.7</ele>
        <time>2023-03-03T14:36:33Z</time>
      </trkpt>
      <trkpt lat="43.46522" lon="6.32291">
        <ele>102.6</ele>
        <time>2023-03-03T14:36:34Z</time>
      </trkpt>
      <trkpt lat="43.46522" lon="6.32293">
        <ele>102.5</ele>
        <time>2023-03-03T14:36:35Z</time>
      </trkpt>
      <trkpt lat="43.46522" lon="6.32294">
        <ele>102.4</ele>
        <time>2023-03-03T14:36:36Z</time>
      </trkpt>
      <trkpt lat="43.46522" lon="6.32295">
        <ele>102.5</ele>
        <time>2023-03-03T14:36:37Z</time>
      </trkpt>
      <trkpt lat="43.46522" lon="6.32296">
        <ele>102.5</ele>
        <time>2023-03-03T14:36:38Z</time>
      </trkpt>
      <trkpt lat="43.46522" lon="6.32297">
        <ele>102.5</ele>
        <time>2023-03-03T14:36:39Z</time>
      </trkpt>
      <trkpt lat="43.46521" lon="6.32298">
        <ele>102.5</ele>
        <time>2023-03-03T14:36:40Z</time>
      </trkpt>
      <trkpt lat="43.46521" lon="6.323">
        <ele>102.4</ele>
        <time>2023-03-03T14:36:41Z</time>
      </trkpt>
      <trkpt lat="43.46521" lon="6.32301">
        <ele>102.3</ele>
        <time>2023-03-03T14:36:42Z</time>
      </trkpt>
      <trkpt lat="43.46521" lon="6.32303">
        <ele>102.3</ele>
        <time>2023-03-03T14:36:43Z</time>
      </trkpt>
      <trkpt lat="43.46521" lon="6.32304">
        <ele>102.3</ele>
        <time>2023-03-03T14:36:44Z</time>
      </trkpt>
      <trkpt lat="43.4652" lon="6.32306">
        <ele>102.3</ele>
        <time>2023-03-03T14:36:45Z</time>
      </trkpt>
      <trkpt lat="43.4652" lon="6.32307">
        <ele>102.3</ele>
        <time>2023-03-03T14:36:46Z</time>
      </trkpt>
      <trkpt lat="43.46519" lon="6.32308">
        <ele>102.2</ele>
        <time>2023-03-03T14:36:47Z</time>
      </trkpt>
      <trkpt lat="43.46519" lon="6.32309">
        <ele>102.2</ele>
        <time>2023-03-03T14:36:48Z</time>
      </trkpt>
      <trkpt lat="43.46518" lon="6.32311">
        <ele>102.1</ele>
        <time>2023-03-03T14:36:49Z</time>
      </trkpt>
      <trkpt lat="43.46518" lon="6.32312">
        <ele>102.1</ele>
        <time>2023-03-03T14:36:50Z</time>
      </trkpt>
      <trkpt lat="43.46518" lon="6.32313">
        <ele>102.2</ele>
        <time>2023-03-03T14:36:51Z</time>
      </trkpt>
      <trkpt lat="43.46517" lon="6.32315">
        <ele>102.2</ele>
        <time>2023-03-03T14:36:52Z</time>
      </trkpt>
      <trkpt lat="43.46517" lon="6.32316">
        <ele>102.2</ele>
        <time>2023-03-03T14:36:53Z</time>
      </trkpt>
      <trkpt lat="43.46516" lon="6.32318">
        <ele>102.3</ele>
        <time>2023-03-03T14:36:54Z</time>
      </trkpt>
      <trkpt lat="43.46516" lon="6.32319">
        <ele>102.3</ele>
        <time>2023-03-03T14:36:55Z</time>
      </trkpt>
      <trkpt lat="43.46516" lon="6.3232">
        <ele>102.3</ele>
        <time>2023-03-03T14:36:56Z</time>
      </trkpt>
      <trkpt lat="43.46515" lon="6.32321">
        <ele>102.3</ele>
        <time>2023-03-03T14:36:57Z</time>
      </trkpt>
      <trkpt lat="43.46514" lon="6.32323">
        <ele>102.3</ele>
        <time>2023-03-03T14:36:58Z</time>
      </trkpt>
      <trkpt lat="43.46514" lon="6.32324">
        <ele>102.3</ele>
        <time>2023-03-03T14:36:59Z</time>
      </trkpt>
      <trkpt lat="43.46513" lon="6.32325">
        <ele>102.4</ele>
        <time>2023-03-03T14:37:00Z</time>
      </trkpt>
      <trkpt lat="43.46513" lon="6.32326">
        <ele>102.4</ele>
        <time>2023-03-03T14:37:01Z</time>
      </trkpt>
      <trkpt lat="43.46512" lon="6.32327">
        <ele>102.4</ele>
        <time>2023-03-03T14:37:02Z</time>
      </trkpt>
      <trkpt lat="43.46512" lon="6.32328">
        <ele>102.4</ele>
        <time>2023-03-03T14:37:03Z</time>
      </trkpt>
      <trkpt lat="43.46512" lon="6.32329">
        <ele>102.4</ele>
        <time>2023-03-03T14:37:04Z</time>
      </trkpt>
      <trkpt lat="43.46512" lon="6.32331">
        <ele>102.4</ele>
        <time>2023-03-03T14:37:05Z</time>
      </trkpt>
      <trkpt lat="43.46511" lon="6.32331">
        <ele>102.4</ele>
        <time>2023-03-03T14:37:06Z</time>
      </trkpt>
      <trkpt lat="43.46511" lon="6.32333">
        <ele>102.4</ele>
        <time>2023-03-03T14:37:07Z</time>
      </trkpt>
      <trkpt lat="43.46511" lon="6.32334">
        <ele>102.5</ele>
        <time>2023-03-03T14:37:08Z</time>
      </trkpt>
      <trkpt lat="43.46511" lon="6.32335">
        <ele>102.5</ele>
        <time>2023-03-03T14:37:09Z</time>
      </trkpt>
      <trkpt lat="43.4651" lon="6.32337">
        <ele>102.5</ele>
        <time>2023-03-03T14:37:10Z</time>
      </trkpt>
      <trkpt lat="43.4651" lon="6.32338">
        <ele>102.6</ele>
        <time>2023-03-03T14:37:11Z</time>
      </trkpt>
      <trkpt lat="43.46509" lon="6.32339">
        <ele>102.6</ele>
        <time>2023-03-03T14:37:12Z</time>
      </trkpt>
      <trkpt lat="43.46509" lon="6.32341">
        <ele>102.6</ele>
        <time>2023-03-03T14:37:13Z</time>
      </trkpt>
      <trkpt lat="43.46509" lon="6.32341">
        <ele>102.6</ele>
        <time>2023-03-03T14:37:14Z</time>
      </trkpt>
      <trkpt lat="43.46508" lon="6.32342">
        <ele>102.6</ele>
        <time>2023-03-03T14:37:15Z</time>
      </trkpt>
      <trkpt lat="43.46508" lon="6.32343">
        <ele>102.7</ele>
        <time>2023-03-03T14:37:16Z</time>
      </trkpt>
      <trkpt lat="43.46508" lon="6.32344">
        <ele>102.8</ele>
        <time>2023-03-03T14:37:17Z</time>
      </trkpt>
      <trkpt lat="43.46507" lon="6.32345">
        <ele>102.9</ele>
        <time>2023-03-03T14:37:18Z</time>
      </trkpt>
      <trkpt lat="43.46507" lon="6.32346">
        <ele>103</ele>
        <time>2023-03-03T14:37:19Z</time>
      </trkpt>
      <trkpt lat="43.46506" lon="6.32347">
        <ele>103.1</ele>
        <time>2023-03-03T14:37:20Z</time>
      </trkpt>
      <trkpt lat="43.46506" lon="6.32348">
        <ele>103.2</ele>
        <time>2023-03-03T14:37:21Z</time>
      </trkpt>
      <trkpt lat="43.46506" lon="6.32349">
        <ele>103.1</ele>
        <time>2023-03-03T14:37:22Z</time>
      </trkpt>
      <trkpt lat="43.46506" lon="6.3235">
        <ele>103.1</ele>
        <time>2023-03-03T14:37:23Z</time>
      </trkpt>
      <trkpt lat="43.46506" lon="6.32351">
        <ele>103.2</ele>
        <time>2023-03-03T14:37:24Z</time>
      </trkpt>
      <trkpt lat="43.46505" lon="6.32352">
        <ele>103.2</ele>
        <time>2023-03-03T14:37:25Z</time>
      </trkpt>
      <trkpt lat="43.46505" lon="6.32353">
        <ele>103.2</ele>
        <time>2023-03-03T14:37:26Z</time>
      </trkpt>
      <trkpt lat="43.46505" lon="6.32354">
        <ele>103.2</ele>
        <time>2023-03-03T14:37:27Z</time>
      </trkpt>
      <trkpt lat="43.46504" lon="6.32355">
        <ele>103.2</ele>
        <time>2023-03-03T14:37:28Z</time>
      </trkpt>
      <trkpt lat="43.46504" lon="6.32356">
        <ele>103.3</ele>
        <time>2023-03-03T14:37:29Z</time>
      </trkpt>
      <trkpt lat="43.46504" lon="6.32357">
        <ele>103.4</ele>
        <time>2023-03-03T14:37:30Z</time>
      </trkpt>
      <trkpt lat="43.46504" lon="6.32358">
        <ele>103.5</ele>
        <time>2023-03-03T14:37:31Z</time>
      </trkpt>
      <trkpt lat="43.46503" lon="6.3236">
        <ele>103.5</ele>
        <time>2023-03-03T14:37:32Z</time>
      </trkpt>
      <trkpt lat="43.46503" lon="6.32361">
        <ele>103.5</ele>
        <time>2023-03-03T14:37:33Z</time>
      </trkpt>
      <trkpt lat="43.46503" lon="6.32362">
        <ele>103.4</ele>
        <time>2023-03-03T14:37:34Z</time>
      </trkpt>
      <trkpt lat="43.46502" lon="6.32364">
        <ele>103.4</ele>
        <time>2023-03-03T14:37:35Z</time>
      </trkpt>
      <trkpt lat="43.46502" lon="6.32365">
        <ele>103.4</ele>
        <time>2023-03-03T14:37:36Z</time>
      </trkpt>
      <trkpt lat="43.46502" lon="6.32366">
        <ele>103.4</ele>
        <time>2023-03-03T14:37:37Z</time>
      </trkpt>
      <trkpt lat="43.46502" lon="6.32368">
        <ele>103.3</ele>
        <time>2023-03-03T14:37:38Z</time>
      </trkpt>
      <trkpt lat="43.46502" lon="6.32369">
        <ele>103.2</ele>
        <time>2023-03-03T14:37:39Z</time>
      </trkpt>
      <trkpt lat="43.46502" lon="6.32371">
        <ele>103.2</ele>
        <time>2023-03-03T14:37:40Z</time>
      </trkpt>
      <trkpt lat="43.46501" lon="6.32372">
        <ele>103.2</ele>
        <time>2023-03-03T14:37:41Z</time>
      </trkpt>
      <trkpt lat="43.46501" lon="6.32374">
        <ele>103</ele>
        <time>2023-03-03T14:37:42Z</time>
      </trkpt>
      <trkpt lat="43.46501" lon="6.32375">
        <ele>102.9</ele>
        <time>2023-03-03T14:37:43Z</time>
      </trkpt>
      <trkpt lat="43.46501" lon="6.32376">
        <ele>102.9</ele>
        <time>2023-03-03T14:37:44Z</time>
      </trkpt>
      <trkpt lat="43.46501" lon="6.32377">
        <ele>102.8</ele>
        <time>2023-03-03T14:37:45Z</time>
      </trkpt>
      <trkpt lat="43.46501" lon="6.32378">
        <ele>102.7</ele>
        <time>2023-03-03T14:37:46Z</time>
      </trkpt>
      <trkpt lat="43.46501" lon="6.32378">
        <ele>102.7</ele>
        <time>2023-03-03T14:37:47Z</time>
      </trkpt>
      <trkpt lat="43.46501" lon="6.32378">
        <ele>102.7</ele>
        <time>2023-03-03T14:37:48Z</time>
      </trkpt>
      <trkpt lat="43.46501" lon="6.3238">
        <ele>102.7</ele>
        <time>2023-03-03T14:37:49Z</time>
      </trkpt>
      <trkpt lat="43.46501" lon="6.32381">
        <ele>102.7</ele>
        <time>2023-03-03T14:37:50Z</time>
      </trkpt>
      <trkpt lat="43.46501" lon="6.32382">
        <ele>102.7</ele>
        <time>2023-03-03T14:37:51Z</time>
      </trkpt>
      <trkpt lat="43.46501" lon="6.32384">
        <ele>102.6</ele>
        <time>2023-03-03T14:37:52Z</time>
      </trkpt>
      <trkpt lat="43.46501" lon="6.32385">
        <ele>102.6</ele>
        <time>2023-03-03T14:37:53Z</time>
      </trkpt>
      <trkpt lat="43.465" lon="6.32387">
        <ele>102.5</ele>
        <time>2023-03-03T14:37:54Z</time>
      </trkpt>
      <trkpt lat="43.465" lon="6.32388">
        <ele>102.5</ele>
        <time>2023-03-03T14:37:55Z</time>
      </trkpt>
      <trkpt lat="43.46499" lon="6.3239">
        <ele>102.5</ele>
        <time>2023-03-03T14:37:56Z</time>
      </trkpt>
      <trkpt lat="43.46499" lon="6.32392">
        <ele>102.5</ele>
        <time>2023-03-03T14:37:57Z</time>
      </trkpt>
      <trkpt lat="43.46499" lon="6.32394">
        <ele>102.5</ele>
        <time>2023-03-03T14:37:58Z</time>
      </trkpt>
      <trkpt lat="43.46499" lon="6.32395">
        <ele>102.4</ele>
        <time>2023-03-03T14:37:59Z</time>
      </trkpt>
      <trkpt lat="43.46498" lon="6.32397">
        <ele>102.4</ele>
        <time>2023-03-03T14:38:00Z</time>
      </trkpt>
      <trkpt lat="43.46498" lon="6.32398">
        <ele>102.3</ele>
        <time>2023-03-03T14:38:01Z</time>
      </trkpt>
      <trkpt lat="43.46498" lon="6.324">
        <ele>102.2</ele>
        <time>2023-03-03T14:38:02Z</time>
      </trkpt>
      <trkpt lat="43.46498" lon="6.32401">
        <ele>102.2</ele>
        <time>2023-03-03T14:38:03Z</time>
      </trkpt>
      <trkpt lat="43.46498" lon="6.32402">
        <ele>102.1</ele>
        <time>2023-03-03T14:38:04Z</time>
      </trkpt>
      <trkpt lat="43.46498" lon="6.32404">
        <ele>102</ele>
        <time>2023-03-03T14:38:05Z</time>
      </trkpt>
      <trkpt lat="43.46497" lon="6.32405">
        <ele>102</ele>
        <time>2023-03-03T14:38:06Z</time>
      </trkpt>
      <trkpt lat="43.46497" lon="6.32407">
        <ele>101.9</ele>
        <time>2023-03-03T14:38:07Z</time>
      </trkpt>
      <trkpt lat="43.46497" lon="6.32408">
        <ele>101.9</ele>
        <time>2023-03-03T14:38:08Z</time>
      </trkpt>
      <trkpt lat="43.46497" lon="6.3241">
        <ele>101.9</ele>
        <time>2023-03-03T14:38:09Z</time>
      </trkpt>
      <trkpt lat="43.46497" lon="6.32411">
        <ele>101.9</ele>
        <time>2023-03-03T14:38:10Z</time>
      </trkpt>
      <trkpt lat="43.46496" lon="6.32413">
        <ele>101.9</ele>
        <time>2023-03-03T14:38:11Z</time>
      </trkpt>
      <trkpt lat="43.46496" lon="6.32414">
        <ele>101.9</ele>
        <time>2023-03-03T14:38:12Z</time>
      </trkpt>
      <trkpt lat="43.46496" lon="6.32416">
        <ele>101.9</ele>
        <time>2023-03-03T14:38:13Z</time>
      </trkpt>
      <trkpt lat="43.46495" lon="6.32417">
        <ele>101.9</ele>
        <time>2023-03-03T14:38:14Z</time>
      </trkpt>
      <trkpt lat="43.46495" lon="6.32419">
        <ele>101.9</ele>
        <time>2023-03-03T14:38:15Z</time>
      </trkpt>
      <trkpt lat="43.46495" lon="6.3242">
        <ele>101.9</ele>
        <time>2023-03-03T14:38:16Z</time>
      </trkpt>
      <trkpt lat="43.46495" lon="6.32422">
        <ele>101.9</ele>
        <time>2023-03-03T14:38:17Z</time>
      </trkpt>
      <trkpt lat="43.46495" lon="6.32423">
        <ele>101.9</ele>
        <time>2023-03-03T14:38:18Z</time>
      </trkpt>
      <trkpt lat="43.46495" lon="6.32425">
        <ele>101.8</ele>
        <time>2023-03-03T14:38:19Z</time>
      </trkpt>
      <trkpt lat="43.46495" lon="6.32426">
        <ele>101.8</ele>
        <time>2023-03-03T14:38:20Z</time>
      </trkpt>
      <trkpt lat="43.46495" lon="6.32427">
        <ele>101.7</ele>
        <time>2023-03-03T14:38:21Z</time>
      </trkpt>
      <trkpt lat="43.46496" lon="6.32428">
        <ele>101.7</ele>
        <time>2023-03-03T14:38:22Z</time>
      </trkpt>
      <trkpt lat="43.46496" lon="6.3243">
        <ele>101.6</ele>
        <time>2023-03-03T14:38:23Z</time>
      </trkpt>
      <trkpt lat="43.46496" lon="6.32431">
        <ele>101.7</ele>
        <time>2023-03-03T14:38:24Z</time>
      </trkpt>
      <trkpt lat="43.46496" lon="6.32432">
        <ele>101.7</ele>
        <time>2023-03-03T14:38:25Z</time>
      </trkpt>
      <trkpt lat="43.46497" lon="6.32433">
        <ele>101.8</ele>
        <time>2023-03-03T14:38:26Z</time>
      </trkpt>
      <trkpt lat="43.46497" lon="6.32433">
        <ele>101.8</ele>
        <time>2023-03-03T14:38:27Z</time>
      </trkpt>
      <trkpt lat="43.46497" lon="6.32433">
        <ele>101.8</ele>
        <time>2023-03-03T14:38:28Z</time>
      </trkpt>
      <trkpt lat="43.46497" lon="6.32434">
        <ele>101.8</ele>
        <time>2023-03-03T14:38:29Z</time>
      </trkpt>
      <trkpt lat="43.46497" lon="6.32434">
        <ele>101.8</ele>
        <time>2023-03-03T14:38:30Z</time>
      </trkpt>
      <trkpt lat="43.46497" lon="6.32434">
        <ele>101.8</ele>
        <time>2023-03-03T14:38:31Z</time>
      </trkpt>
      <trkpt lat="43.46497" lon="6.32434">
        <ele>101.7</ele>
        <time>2023-03-03T14:38:32Z</time>
      </trkpt>
      <trkpt lat="43.46497" lon="6.32434">
        <ele>101.7</ele>
        <time>2023-03-03T14:38:33Z</time>
      </trkpt>
      <trkpt lat="43.46497" lon="6.32434">
        <ele>101.7</ele>
        <time>2023-03-03T14:38:34Z</time>
      </trkpt>
      <trkpt lat="43.46497" lon="6.32435">
        <ele>101.7</ele>
        <time>2023-03-03T14:38:35Z</time>
      </trkpt>
      <trkpt lat="43.46497" lon="6.32435">
        <ele>101.6</ele>
        <time>2023-03-03T14:38:36Z</time>
      </trkpt>
      <trkpt lat="43.46497" lon="6.32435">
        <ele>101.5</ele>
        <time>2023-03-03T14:38:37Z</time>
      </trkpt>
      <trkpt lat="43.46497" lon="6.32435">
        <ele>101.5</ele>
        <time>2023-03-03T14:38:38Z</time>
      </trkpt>
      <trkpt lat="43.46496" lon="6.32435">
        <ele>101.5</ele>
        <time>2023-03-03T14:38:39Z</time>
      </trkpt>
      <trkpt lat="43.46496" lon="6.32435">
        <ele>101.6</ele>
        <time>2023-03-03T14:38:40Z</time>
      </trkpt>
      <trkpt lat="43.46496" lon="6.32435">
        <ele>101.6</ele>
        <time>2023-03-03T14:38:41Z</time>
      </trkpt>
      <trkpt lat="43.46496" lon="6.32436">
        <ele>101.7</ele>
        <time>2023-03-03T14:38:42Z</time>
      </trkpt>
      <trkpt lat="43.46496" lon="6.32436">
        <ele>101.7</ele>
        <time>2023-03-03T14:38:43Z</time>
      </trkpt>
      <trkpt lat="43.46496" lon="6.32436">
        <ele>101.7</ele>
        <time>2023-03-03T14:38:44Z</time>
      </trkpt>
      <trkpt lat="43.46496" lon="6.32437">
        <ele>101.8</ele>
        <time>2023-03-03T14:38:45Z</time>
      </trkpt>
      <trkpt lat="43.46496" lon="6.32438">
        <ele>101.9</ele>
        <time>2023-03-03T14:38:46Z</time>
      </trkpt>
      <trkpt lat="43.46497" lon="6.32438">
        <ele>101.9</ele>
        <time>2023-03-03T14:38:47Z</time>
      </trkpt>
      <trkpt lat="43.46496" lon="6.32438">
        <ele>101.9</ele>
        <time>2023-03-03T14:38:48Z</time>
      </trkpt>
      <trkpt lat="43.46496" lon="6.32438">
        <ele>101.8</ele>
        <time>2023-03-03T14:38:49Z</time>
      </trkpt>
      <trkpt lat="43.46496" lon="6.32439">
        <ele>101.8</ele>
        <time>2023-03-03T14:38:50Z</time>
      </trkpt>
      <trkpt lat="43.46495" lon="6.3244">
        <ele>101.8</ele>
        <time>2023-03-03T14:38:51Z</time>
      </trkpt>
      <trkpt lat="43.46495" lon="6.32441">
        <ele>101.7</ele>
        <time>2023-03-03T14:38:52Z</time>
      </trkpt>
      <trkpt lat="43.46494" lon="6.32442">
        <ele>101.7</ele>
        <time>2023-03-03T14:38:53Z</time>
      </trkpt>
      <trkpt lat="43.46494" lon="6.32443">
        <ele>101.7</ele>
        <time>2023-03-03T14:38:54Z</time>
      </trkpt>
      <trkpt lat="43.46494" lon="6.32445">
        <ele>101.6</ele>
        <time>2023-03-03T14:38:55Z</time>
      </trkpt>
      <trkpt lat="43.46493" lon="6.32447">
        <ele>101.6</ele>
        <time>2023-03-03T14:38:56Z</time>
      </trkpt>
      <trkpt lat="43.46493" lon="6.32448">
        <ele>101.6</ele>
        <time>2023-03-03T14:38:57Z</time>
      </trkpt>
      <trkpt lat="43.46493" lon="6.3245">
        <ele>101.6</ele>
        <time>2023-03-03T14:38:58Z</time>
      </trkpt>
      <trkpt lat="43.46493" lon="6.32451">
        <ele>101.5</ele>
        <time>2023-03-03T14:38:59Z</time>
      </trkpt>
      <trkpt lat="43.46492" lon="6.32453">
        <ele>101.5</ele>
        <time>2023-03-03T14:39:00Z</time>
      </trkpt>
      <trkpt lat="43.46492" lon="6.32454">
        <ele>101.4</ele>
        <time>2023-03-03T14:39:01Z</time>
      </trkpt>
      <trkpt lat="43.46492" lon="6.32455">
        <ele>101.4</ele>
        <time>2023-03-03T14:39:02Z</time>
      </trkpt>
      <trkpt lat="43.46492" lon="6.32456">
        <ele>101.3</ele>
        <time>2023-03-03T14:39:03Z</time>
      </trkpt>
      <trkpt lat="43.46493" lon="6.32458">
        <ele>101.2</ele>
        <time>2023-03-03T14:39:04Z</time>
      </trkpt>
      <trkpt lat="43.46492" lon="6.32459">
        <ele>101.1</ele>
        <time>2023-03-03T14:39:05Z</time>
      </trkpt>
      <trkpt lat="43.46492" lon="6.32459">
        <ele>101.1</ele>
        <time>2023-03-03T14:39:06Z</time>
      </trkpt>
      <trkpt lat="43.46492" lon="6.3246">
        <ele>101.1</ele>
        <time>2023-03-03T14:39:07Z</time>
      </trkpt>
      <trkpt lat="43.46492" lon="6.32461">
        <ele>101.1</ele>
        <time>2023-03-03T14:39:08Z</time>
      </trkpt>
      <trkpt lat="43.46492" lon="6.32462">
        <ele>101.2</ele>
        <time>2023-03-03T14:39:09Z</time>
      </trkpt>
      <trkpt lat="43.46491" lon="6.32464">
        <ele>101.2</ele>
        <time>2023-03-03T14:39:10Z</time>
      </trkpt>
      <trkpt lat="43.46491" lon="6.32465">
        <ele>101.3</ele>
        <time>2023-03-03T14:39:11Z</time>
      </trkpt>
      <trkpt lat="43.46491" lon="6.32467">
        <ele>101.4</ele>
        <time>2023-03-03T14:39:12Z</time>
      </trkpt>
      <trkpt lat="43.46491" lon="6.32468">
        <ele>101.5</ele>
        <time>2023-03-03T14:39:13Z</time>
      </trkpt>
      <trkpt lat="43.46491" lon="6.3247">
        <ele>101.5</ele>
        <time>2023-03-03T14:39:14Z</time>
      </trkpt>
      <trkpt lat="43.46491" lon="6.32471">
        <ele>101.6</ele>
        <time>2023-03-03T14:39:15Z</time>
      </trkpt>
      <trkpt lat="43.46491" lon="6.32473">
        <ele>101.6</ele>
        <time>2023-03-03T14:39:16Z</time>
      </trkpt>
      <trkpt lat="43.46491" lon="6.32474">
        <ele>101.7</ele>
        <time>2023-03-03T14:39:17Z</time>
      </trkpt>
      <trkpt lat="43.4649" lon="6.32475">
        <ele>101.6</ele>
        <time>2023-03-03T14:39:18Z</time>
      </trkpt>
      <trkpt lat="43.4649" lon="6.32477">
        <ele>101.7</ele>
        <time>2023-03-03T14:39:19Z</time>
      </trkpt>
      <trkpt lat="43.46489" lon="6.32478">
        <ele>101.7</ele>
        <time>2023-03-03T14:39:20Z</time>
      </trkpt>
      <trkpt lat="43.46489" lon="6.32479">
        <ele>101.7</ele>
        <time>2023-03-03T14:39:21Z</time>
      </trkpt>
      <trkpt lat="43.46488" lon="6.32481">
        <ele>101.7</ele>
        <time>2023-03-03T14:39:22Z</time>
      </trkpt>
      <trkpt lat="43.46488" lon="6.32482">
        <ele>101.7</ele>
        <time>2023-03-03T14:39:23Z</time>
      </trkpt>
      <trkpt lat="43.46487" lon="6.32483">
        <ele>101.8</ele>
        <time>2023-03-03T14:39:24Z</time>
      </trkpt>
      <trkpt lat="43.46487" lon="6.32484">
        <ele>101.8</ele>
        <time>2023-03-03T14:39:25Z</time>
      </trkpt>
      <trkpt lat="43.46486" lon="6.32485">
        <ele>101.8</ele>
        <time>2023-03-03T14:39:26Z</time>
      </trkpt>
      <trkpt lat="43.46486" lon="6.32486">
        <ele>101.7</ele>
        <time>2023-03-03T14:39:27Z</time>
      </trkpt>
      <trkpt lat="43.46486" lon="6.32488">
        <ele>101.6</ele>
        <time>2023-03-03T14:39:28Z</time>
      </trkpt>
      <trkpt lat="43.46486" lon="6.32488">
        <ele>101.6</ele>
        <time>2023-03-03T14:39:29Z</time>
      </trkpt>
      <trkpt lat="43.46485" lon="6.32489">
        <ele>101.6</ele>
        <time>2023-03-03T14:39:30Z</time>
      </trkpt>
      <trkpt lat="43.46485" lon="6.32491">
        <ele>101.7</ele>
        <time>2023-03-03T14:39:31Z</time>
      </trkpt>
      <trkpt lat="43.46485" lon="6.32492">
        <ele>101.8</ele>
        <time>2023-03-03T14:39:32Z</time>
      </trkpt>
      <trkpt lat="43.46485" lon="6.32493">
        <ele>101.8</ele>
        <time>2023-03-03T14:39:33Z</time>
      </trkpt>
      <trkpt lat="43.46486" lon="6.32493">
        <ele>101.8</ele>
        <time>2023-03-03T14:39:34Z</time>
      </trkpt>
      <trkpt lat="43.46486" lon="6.32493">
        <ele>101.8</ele>
        <time>2023-03-03T14:39:35Z</time>
      </trkpt>
      <trkpt lat="43.46486" lon="6.32493">
        <ele>101.8</ele>
        <time>2023-03-03T14:39:36Z</time>
      </trkpt>
      <trkpt lat="43.46486" lon="6.32493">
        <ele>101.8</ele>
        <time>2023-03-03T14:39:37Z</time>
      </trkpt>
      <trkpt lat="43.46486" lon="6.32493">
        <ele>101.9</ele>
        <time>2023-03-03T14:39:38Z</time>
      </trkpt>
      <trkpt lat="43.46486" lon="6.32493">
        <ele>101.9</ele>
        <time>2023-03-03T14:39:39Z</time>
      </trkpt>
      <trkpt lat="43.46486" lon="6.32494">
        <ele>101.8</ele>
        <time>2023-03-03T14:39:40Z</time>
      </trkpt>
      <trkpt lat="43.46486" lon="6.32494">
        <ele>101.8</ele>
        <time>2023-03-03T14:39:41Z</time>
      </trkpt>
      <trkpt lat="43.46486" lon="6.32494">
        <ele>101.8</ele>
        <time>2023-03-03T14:39:42Z</time>
      </trkpt>
      <trkpt lat="43.46486" lon="6.32495">
        <ele>101.7</ele>
        <time>2023-03-03T14:39:43Z</time>
      </trkpt>
      <trkpt lat="43.46486" lon="6.32495">
        <ele>101.7</ele>
        <time>2023-03-03T14:39:44Z</time>
      </trkpt>
      <trkpt lat="43.46486" lon="6.32495">
        <ele>101.7</ele>
        <time>2023-03-03T14:39:45Z</time>
      </trkpt>
      <trkpt lat="43.46486" lon="6.32495">
        <ele>101.8</ele>
        <time>2023-03-03T14:39:46Z</time>
      </trkpt>
      <trkpt lat="43.46485" lon="6.32495">
        <ele>101.8</ele>
        <time>2023-03-03T14:39:47Z</time>
      </trkpt>
      <trkpt lat="43.46485" lon="6.32495">
        <ele>101.8</ele>
        <time>2023-03-03T14:39:48Z</time>
      </trkpt>
      <trkpt lat="43.46485" lon="6.32496">
        <ele>101.8</ele>
        <time>2023-03-03T14:39:49Z</time>
      </trkpt>
      <trkpt lat="43.46485" lon="6.32496">
        <ele>101.8</ele>
        <time>2023-03-03T14:39:50Z</time>
      </trkpt>
      <trkpt lat="43.46485" lon="6.32496">
        <ele>101.9</ele>
        <time>2023-03-03T14:39:51Z</time>
      </trkpt>
      <trkpt lat="43.46485" lon="6.32496">
        <ele>102</ele>
        <time>2023-03-03T14:39:52Z</time>
      </trkpt>
      <trkpt lat="43.46485" lon="6.32496">
        <ele>102</ele>
        <time>2023-03-03T14:39:53Z</time>
      </trkpt>
      <trkpt lat="43.46485" lon="6.32497">
        <ele>102.1</ele>
        <time>2023-03-03T14:39:54Z</time>
      </trkpt>
      <trkpt lat="43.46485" lon="6.32497">
        <ele>102.1</ele>
        <time>2023-03-03T14:39:55Z</time>
      </trkpt>
      <trkpt lat="43.46485" lon="6.32497">
        <ele>102.2</ele>
        <time>2023-03-03T14:39:56Z</time>
      </trkpt>
      <trkpt lat="43.46485" lon="6.32497">
        <ele>102.2</ele>
        <time>2023-03-03T14:39:57Z</time>
      </trkpt>
      <trkpt lat="43.46485" lon="6.32497">
        <ele>102.2</ele>
        <time>2023-03-03T14:39:58Z</time>
      </trkpt>
      <trkpt lat="43.46484" lon="6.32497">
        <ele>102.2</ele>
        <time>2023-03-03T14:39:59Z</time>
      </trkpt>
      <trkpt lat="43.46484" lon="6.32497">
        <ele>102.3</ele>
        <time>2023-03-03T14:40:00Z</time>
      </trkpt>
      <trkpt lat="43.46484" lon="6.32497">
        <ele>102.3</ele>
        <time>2023-03-03T14:40:01Z</time>
      </trkpt>
      <trkpt lat="43.46484" lon="6.32497">
        <ele>102.4</ele>
        <time>2023-03-03T14:40:02Z</time>
      </trkpt>
      <trkpt lat="43.46484" lon="6.32497">
        <ele>102.4</ele>
        <time>2023-03-03T14:40:03Z</time>
      </trkpt>
      <trkpt lat="43.46484" lon="6.32497">
        <ele>102.4</ele>
        <time>2023-03-03T14:40:04Z</time>
      </trkpt>
      <trkpt lat="43.46484" lon="6.32497">
        <ele>102.4</ele>
        <time>2023-03-03T14:40:05Z</time>
      </trkpt>
      <trkpt lat="43.46484" lon="6.32497">
        <ele>102.4</ele>
        <time>2023-03-03T14:40:06Z</time>
      </trkpt>
      <trkpt lat="43.46484" lon="6.32497">
        <ele>102.4</ele>
        <time>2023-03-03T14:40:07Z</time>
      </trkpt>
      <trkpt lat="43.46484" lon="6.32498">
        <ele>102.4</ele>
        <time>2023-03-03T14:40:08Z</time>
      </trkpt>
      <trkpt lat="43.46485" lon="6.32498">
        <ele>102.4</ele>
        <time>2023-03-03T14:40:09Z</time>
      </trkpt>
      <trkpt lat="43.46485" lon="6.32498">
        <ele>102.4</ele>
        <time>2023-03-03T14:40:10Z</time>
      </trkpt>
      <trkpt lat="43.46485" lon="6.32498">
        <ele>102.4</ele>
        <time>2023-03-03T14:40:11Z</time>
      </trkpt>
      <trkpt lat="43.46485" lon="6.32498">
        <ele>102.4</ele>
        <time>2023-03-03T14:40:12Z</time>
      </trkpt>
      <trkpt lat="43.46485" lon="6.32497">
        <ele>102.4</ele>
        <time>2023-03-03T14:40:13Z</time>
      </trkpt>
      <trkpt lat="43.46485" lon="6.32497">
        <ele>102.4</ele>
        <time>2023-03-03T14:40:14Z</time>
      </trkpt>
      <trkpt lat="43.46484" lon="6.32497">
        <ele>102.4</ele>
        <time>2023-03-03T14:40:15Z</time>
      </trkpt>
      <trkpt lat="43.46485" lon="6.32497">
        <ele>102.3</ele>
        <time>2023-03-03T14:40:16Z</time>
      </trkpt>
      <trkpt lat="43.46485" lon="6.32496">
        <ele>102.3</ele>
        <time>2023-03-03T14:40:17Z</time>
      </trkpt>
      <trkpt lat="43.46485" lon="6.32496">
        <ele>102.2</ele>
        <time>2023-03-03T14:40:18Z</time>
      </trkpt>
      <trkpt lat="43.46485" lon="6.32495">
        <ele>102.2</ele>
        <time>2023-03-03T14:40:19Z</time>
      </trkpt>
      <trkpt lat="43.46485" lon="6.32495">
        <ele>102.2</ele>
        <time>2023-03-03T14:40:20Z</time>
      </trkpt>
      <trkpt lat="43.46485" lon="6.32495">
        <ele>102.1</ele>
        <time>2023-03-03T14:40:21Z</time>
      </trkpt>
      <trkpt lat="43.46484" lon="6.32495">
        <ele>102.2</ele>
        <time>2023-03-03T14:40:22Z</time>
      </trkpt>
      <trkpt lat="43.46483" lon="6.32494">
        <ele>102.1</ele>
        <time>2023-03-03T14:40:23Z</time>
      </trkpt>
      <trkpt lat="43.46483" lon="6.32493">
        <ele>102.1</ele>
        <time>2023-03-03T14:40:24Z</time>
      </trkpt>
      <trkpt lat="43.46482" lon="6.32492">
        <ele>102.1</ele>
        <time>2023-03-03T14:40:25Z</time>
      </trkpt>
      <trkpt lat="43.46482" lon="6.32492">
        <ele>102.2</ele>
        <time>2023-03-03T14:40:26Z</time>
      </trkpt>
      <trkpt lat="43.46481" lon="6.32491">
        <ele>102.2</ele>
        <time>2023-03-03T14:40:27Z</time>
      </trkpt>
      <trkpt lat="43.4648" lon="6.32491">
        <ele>102.2</ele>
        <time>2023-03-03T14:40:28Z</time>
      </trkpt>
      <trkpt lat="43.4648" lon="6.32491">
        <ele>102.4</ele>
        <time>2023-03-03T14:40:29Z</time>
      </trkpt>
      <trkpt lat="43.4648" lon="6.32491">
        <ele>102.5</ele>
        <time>2023-03-03T14:40:30Z</time>
      </trkpt>
      <trkpt lat="43.46479" lon="6.32491">
        <ele>102.7</ele>
        <time>2023-03-03T14:40:31Z</time>
      </trkpt>
      <trkpt lat="43.46479" lon="6.32492">
        <ele>102.8</ele>
        <time>2023-03-03T14:40:32Z</time>
      </trkpt>
      <trkpt lat="43.46478" lon="6.32493">
        <ele>102.8</ele>
        <time>2023-03-03T14:40:33Z</time>
      </trkpt>
      <trkpt lat="43.46478" lon="6.32494">
        <ele>102.8</ele>
        <time>2023-03-03T14:40:34Z</time>
      </trkpt>
      <trkpt lat="43.46477" lon="6.32496">
        <ele>102.8</ele>
        <time>2023-03-03T14:40:35Z</time>
      </trkpt>
      <trkpt lat="43.46477" lon="6.32497">
        <ele>102.8</ele>
        <time>2023-03-03T14:40:36Z</time>
      </trkpt>
      <trkpt lat="43.46477" lon="6.32497">
        <ele>102.8</ele>
        <time>2023-03-03T14:40:37Z</time>
      </trkpt>
      <trkpt lat="43.46476" lon="6.32498">
        <ele>102.8</ele>
        <time>2023-03-03T14:40:38Z</time>
      </trkpt>
      <trkpt lat="43.46476" lon="6.32499">
        <ele>102.8</ele>
        <time>2023-03-03T14:40:39Z</time>
      </trkpt>
      <trkpt lat="43.46476" lon="6.32499">
        <ele>102.8</ele>
        <time>2023-03-03T14:40:40Z</time>
      </trkpt>
      <trkpt lat="43.46475" lon="6.325">
        <ele>102.8</ele>
        <time>2023-03-03T14:40:41Z</time>
      </trkpt>
      <trkpt lat="43.46475" lon="6.32499">
        <ele>102.8</ele>
        <time>2023-03-03T14:40:42Z</time>
      </trkpt>
      <trkpt lat="43.46475" lon="6.32499">
        <ele>102.8</ele>
        <time>2023-03-03T14:40:43Z</time>
      </trkpt>
      <trkpt lat="43.46475" lon="6.32499">
        <ele>102.8</ele>
        <time>2023-03-03T14:40:44Z</time>
      </trkpt>
      <trkpt lat="43.46475" lon="6.325">
        <ele>102.7</ele>
        <time>2023-03-03T14:40:45Z</time>
      </trkpt>
      <trkpt lat="43.46475" lon="6.325">
        <ele>102.6</ele>
        <time>2023-03-03T14:40:46Z</time>
      </trkpt>
      <trkpt lat="43.46475" lon="6.325">
        <ele>102.6</ele>
        <time>2023-03-03T14:40:47Z</time>
      </trkpt>
      <trkpt lat="43.46475" lon="6.325">
        <ele>102.5</ele>
        <time>2023-03-03T14:40:48Z</time>
      </trkpt>
      <trkpt lat="43.46475" lon="6.325">
        <ele>102.5</ele>
        <time>2023-03-03T14:40:49Z</time>
      </trkpt>
      <trkpt lat="43.46475" lon="6.325">
        <ele>102.4</ele>
        <time>2023-03-03T14:40:50Z</time>
      </trkpt>
      <trkpt lat="43.46475" lon="6.325">
        <ele>102.4</ele>
        <time>2023-03-03T14:40:51Z</time>
      </trkpt>
      <trkpt lat="43.46475" lon="6.325">
        <ele>102.4</ele>
        <time>2023-03-03T14:40:52Z</time>
      </trkpt>
      <trkpt lat="43.46475" lon="6.325">
        <ele>102.4</ele>
        <time>2023-03-03T14:40:53Z</time>
      </trkpt>
      <trkpt lat="43.46475" lon="6.325">
        <ele>102.4</ele>
        <time>2023-03-03T14:40:54Z</time>
      </trkpt>
      <trkpt lat="43.46475" lon="6.32501">
        <ele>102.4</ele>
        <time>2023-03-03T14:40:55Z</time>
      </trkpt>
      <trkpt lat="43.46476" lon="6.32502">
        <ele>102.4</ele>
        <time>2023-03-03T14:40:56Z</time>
      </trkpt>
      <trkpt lat="43.46476" lon="6.32503">
        <ele>102.5</ele>
        <time>2023-03-03T14:40:57Z</time>
      </trkpt>
      <trkpt lat="43.46476" lon="6.32504">
        <ele>102.5</ele>
        <time>2023-03-03T14:40:58Z</time>
      </trkpt>
      <trkpt lat="43.46476" lon="6.32504">
        <ele>102.5</ele>
        <time>2023-03-03T14:40:59Z</time>
      </trkpt>
      <trkpt lat="43.46476" lon="6.32505">
        <ele>102.5</ele>
        <time>2023-03-03T14:41:00Z</time>
      </trkpt>
      <trkpt lat="43.46476" lon="6.32505">
        <ele>102.4</ele>
        <time>2023-03-03T14:41:01Z</time>
      </trkpt>
      <trkpt lat="43.46476" lon="6.32505">
        <ele>102.4</ele>
        <time>2023-03-03T14:41:02Z</time>
      </trkpt>
      <trkpt lat="43.46476" lon="6.32505">
        <ele>102.4</ele>
        <time>2023-03-03T14:41:03Z</time>
      </trkpt>
      <trkpt lat="43.46476" lon="6.32506">
        <ele>102.3</ele>
        <time>2023-03-03T14:41:04Z</time>
      </trkpt>
      <trkpt lat="43.46476" lon="6.32506">
        <ele>102.3</ele>
        <time>2023-03-03T14:41:05Z</time>
      </trkpt>
      <trkpt lat="43.46476" lon="6.32506">
        <ele>102.3</ele>
        <time>2023-03-03T14:41:06Z</time>
      </trkpt>
      <trkpt lat="43.46476" lon="6.32506">
        <ele>102.3</ele>
        <time>2023-03-03T14:41:07Z</time>
      </trkpt>
      <trkpt lat="43.46476" lon="6.32506">
        <ele>102.4</ele>
        <time>2023-03-03T14:41:08Z</time>
      </trkpt>
      <trkpt lat="43.46476" lon="6.32506">
        <ele>102.5</ele>
        <time>2023-03-03T14:41:09Z</time>
      </trkpt>
      <trkpt lat="43.46476" lon="6.32507">
        <ele>102.5</ele>
        <time>2023-03-03T14:41:10Z</time>
      </trkpt>
      <trkpt lat="43.46476" lon="6.32508">
        <ele>102.6</ele>
        <time>2023-03-03T14:41:11Z</time>
      </trkpt>
      <trkpt lat="43.46476" lon="6.32509">
        <ele>102.6</ele>
        <time>2023-03-03T14:41:12Z</time>
      </trkpt>
      <trkpt lat="43.46475" lon="6.32509">
        <ele>102.7</ele>
        <time>2023-03-03T14:41:13Z</time>
      </trkpt>
      <trkpt lat="43.46475" lon="6.3251">
        <ele>102.8</ele>
        <time>2023-03-03T14:41:14Z</time>
      </trkpt>
      <trkpt lat="43.46475" lon="6.32511">
        <ele>102.8</ele>
        <time>2023-03-03T14:41:15Z</time>
      </trkpt>
      <trkpt lat="43.46474" lon="6.32512">
        <ele>102.8</ele>
        <time>2023-03-03T14:41:16Z</time>
      </trkpt>
      <trkpt lat="43.46474" lon="6.32513">
        <ele>102.8</ele>
        <time>2023-03-03T14:41:17Z</time>
      </trkpt>
      <trkpt lat="43.46473" lon="6.32514">
        <ele>102.9</ele>
        <time>2023-03-03T14:41:18Z</time>
      </trkpt>
      <trkpt lat="43.46473" lon="6.32516">
        <ele>103</ele>
        <time>2023-03-03T14:41:19Z</time>
      </trkpt>
      <trkpt lat="43.46472" lon="6.32517">
        <ele>103</ele>
        <time>2023-03-03T14:41:20Z</time>
      </trkpt>
      <trkpt lat="43.46472" lon="6.32518">
        <ele>103</ele>
        <time>2023-03-03T14:41:21Z</time>
      </trkpt>
      <trkpt lat="43.46472" lon="6.32518">
        <ele>103.1</ele>
        <time>2023-03-03T14:41:22Z</time>
      </trkpt>
      <trkpt lat="43.46472" lon="6.32521">
        <ele>103.1</ele>
        <time>2023-03-03T14:41:23Z</time>
      </trkpt>
      <trkpt lat="43.46472" lon="6.32522">
        <ele>103</ele>
        <time>2023-03-03T14:41:24Z</time>
      </trkpt>
      <trkpt lat="43.46472" lon="6.32524">
        <ele>103.1</ele>
        <time>2023-03-03T14:41:25Z</time>
      </trkpt>
      <trkpt lat="43.46473" lon="6.32525">
        <ele>103.1</ele>
        <time>2023-03-03T14:41:26Z</time>
      </trkpt>
      <trkpt lat="43.46474" lon="6.32525">
        <ele>103.1</ele>
        <time>2023-03-03T14:41:27Z</time>
      </trkpt>
      <trkpt lat="43.46475" lon="6.32526">
        <ele>103.1</ele>
        <time>2023-03-03T14:41:28Z</time>
      </trkpt>
      <trkpt lat="43.46476" lon="6.32527">
        <ele>103.2</ele>
        <time>2023-03-03T14:41:29Z</time>
      </trkpt>
      <trkpt lat="43.46476" lon="6.32529">
        <ele>103.3</ele>
        <time>2023-03-03T14:41:30Z</time>
      </trkpt>
      <trkpt lat="43.46477" lon="6.3253">
        <ele>103.4</ele>
        <time>2023-03-03T14:41:31Z</time>
      </trkpt>
      <trkpt lat="43.46478" lon="6.32531">
        <ele>103.4</ele>
        <time>2023-03-03T14:41:32Z</time>
      </trkpt>
      <trkpt lat="43.46479" lon="6.32532">
        <ele>103.4</ele>
        <time>2023-03-03T14:41:33Z</time>
      </trkpt>
      <trkpt lat="43.4648" lon="6.32533">
        <ele>103.5</ele>
        <time>2023-03-03T14:41:34Z</time>
      </trkpt>
      <trkpt lat="43.46481" lon="6.32533">
        <ele>103.6</ele>
        <time>2023-03-03T14:41:35Z</time>
      </trkpt>
      <trkpt lat="43.46482" lon="6.32534">
        <ele>103.6</ele>
        <time>2023-03-03T14:41:36Z</time>
      </trkpt>
      <trkpt lat="43.46482" lon="6.32534">
        <ele>103.7</ele>
        <time>2023-03-03T14:41:37Z</time>
      </trkpt>
      <trkpt lat="43.46483" lon="6.32534">
        <ele>103.8</ele>
        <time>2023-03-03T14:41:38Z</time>
      </trkpt>
      <trkpt lat="43.46484" lon="6.32535">
        <ele>103.8</ele>
        <time>2023-03-03T14:41:39Z</time>
      </trkpt>
      <trkpt lat="43.46484" lon="6.32536">
        <ele>103.8</ele>
        <time>2023-03-03T14:41:40Z</time>
      </trkpt>
      <trkpt lat="43.46485" lon="6.32536">
        <ele>103.9</ele>
        <time>2023-03-03T14:41:41Z</time>
      </trkpt>
      <trkpt lat="43.46485" lon="6.32536">
        <ele>104</ele>
        <time>2023-03-03T14:41:42Z</time>
      </trkpt>
      <trkpt lat="43.46486" lon="6.32536">
        <ele>104.1</ele>
        <time>2023-03-03T14:41:43Z</time>
      </trkpt>
      <trkpt lat="43.46487" lon="6.32537">
        <ele>104.2</ele>
        <time>2023-03-03T14:41:44Z</time>
      </trkpt>
      <trkpt lat="43.46488" lon="6.32537">
        <ele>104.3</ele>
        <time>2023-03-03T14:41:45Z</time>
      </trkpt>
      <trkpt lat="43.46489" lon="6.32537">
        <ele>104.3</ele>
        <time>2023-03-03T14:41:46Z</time>
      </trkpt>
      <trkpt lat="43.46489" lon="6.32538">
        <ele>104.4</ele>
        <time>2023-03-03T14:41:47Z</time>
      </trkpt>
      <trkpt lat="43.4649" lon="6.32538">
        <ele>104.4</ele>
        <time>2023-03-03T14:41:48Z</time>
      </trkpt>
      <trkpt lat="43.4649" lon="6.32539">
        <ele>104.5</ele>
        <time>2023-03-03T14:41:49Z</time>
      </trkpt>
      <trkpt lat="43.46491" lon="6.32539">
        <ele>104.6</ele>
        <time>2023-03-03T14:41:50Z</time>
      </trkpt>
      <trkpt lat="43.46491" lon="6.3254">
        <ele>104.6</ele>
        <time>2023-03-03T14:41:51Z</time>
      </trkpt>
      <trkpt lat="43.46492" lon="6.3254">
        <ele>104.8</ele>
        <time>2023-03-03T14:41:52Z</time>
      </trkpt>
      <trkpt lat="43.46493" lon="6.3254">
        <ele>104.8</ele>
        <time>2023-03-03T14:41:53Z</time>
      </trkpt>
      <trkpt lat="43.46494" lon="6.3254">
        <ele>104.9</ele>
        <time>2023-03-03T14:41:54Z</time>
      </trkpt>
      <trkpt lat="43.46494" lon="6.32541">
        <ele>105</ele>
        <time>2023-03-03T14:41:55Z</time>
      </trkpt>
      <trkpt lat="43.46495" lon="6.32541">
        <ele>105.2</ele>
        <time>2023-03-03T14:41:56Z</time>
      </trkpt>
      <trkpt lat="43.46496" lon="6.32541">
        <ele>105.3</ele>
        <time>2023-03-03T14:41:57Z</time>
      </trkpt>
      <trkpt lat="43.46496" lon="6.32542">
        <ele>105.6</ele>
        <time>2023-03-03T14:41:58Z</time>
      </trkpt>
      <trkpt lat="43.46497" lon="6.32542">
        <ele>105.7</ele>
        <time>2023-03-03T14:41:59Z</time>
      </trkpt>
      <trkpt lat="43.46498" lon="6.32542">
        <ele>105.8</ele>
        <time>2023-03-03T14:42:00Z</time>
      </trkpt>
      <trkpt lat="43.46498" lon="6.32543">
        <ele>105.8</ele>
        <time>2023-03-03T14:42:01Z</time>
      </trkpt>
      <trkpt lat="43.46499" lon="6.32543">
        <ele>105.9</ele>
        <time>2023-03-03T14:42:02Z</time>
      </trkpt>
      <trkpt lat="43.465" lon="6.32543">
        <ele>106</ele>
        <time>2023-03-03T14:42:03Z</time>
      </trkpt>
      <trkpt lat="43.46501" lon="6.32544">
        <ele>106.1</ele>
        <time>2023-03-03T14:42:04Z</time>
      </trkpt>
      <trkpt lat="43.46501" lon="6.32544">
        <ele>106.1</ele>
        <time>2023-03-03T14:42:05Z</time>
      </trkpt>
      <trkpt lat="43.46502" lon="6.32545">
        <ele>106.3</ele>
        <time>2023-03-03T14:42:06Z</time>
      </trkpt>
      <trkpt lat="43.46502" lon="6.32547">
        <ele>106.4</ele>
        <time>2023-03-03T14:42:07Z</time>
      </trkpt>
      <trkpt lat="43.46503" lon="6.32546">
        <ele>106.4</ele>
        <time>2023-03-03T14:42:08Z</time>
      </trkpt>
      <trkpt lat="43.46503" lon="6.32547">
        <ele>106.5</ele>
        <time>2023-03-03T14:42:09Z</time>
      </trkpt>
      <trkpt lat="43.46504" lon="6.32547">
        <ele>106.5</ele>
        <time>2023-03-03T14:42:10Z</time>
      </trkpt>
      <trkpt lat="43.46505" lon="6.32547">
        <ele>106.6</ele>
        <time>2023-03-03T14:42:11Z</time>
      </trkpt>
      <trkpt lat="43.46506" lon="6.32548">
        <ele>106.7</ele>
        <time>2023-03-03T14:42:12Z</time>
      </trkpt>
      <trkpt lat="43.46507" lon="6.32548">
        <ele>106.8</ele>
        <time>2023-03-03T14:42:13Z</time>
      </trkpt>
      <trkpt lat="43.46508" lon="6.32548">
        <ele>106.9</ele>
        <time>2023-03-03T14:42:14Z</time>
      </trkpt>
      <trkpt lat="43.4651" lon="6.32548">
        <ele>107</ele>
        <time>2023-03-03T14:42:15Z</time>
      </trkpt>
      <trkpt lat="43.4651" lon="6.32548">
        <ele>107.1</ele>
        <time>2023-03-03T14:42:16Z</time>
      </trkpt>
      <trkpt lat="43.46511" lon="6.32548">
        <ele>107.2</ele>
        <time>2023-03-03T14:42:17Z</time>
      </trkpt>
      <trkpt lat="43.46512" lon="6.32549">
        <ele>107.3</ele>
        <time>2023-03-03T14:42:18Z</time>
      </trkpt>
      <trkpt lat="43.46513" lon="6.32549">
        <ele>107.4</ele>
        <time>2023-03-03T14:42:19Z</time>
      </trkpt>
      <trkpt lat="43.46514" lon="6.3255">
        <ele>107.6</ele>
        <time>2023-03-03T14:42:20Z</time>
      </trkpt>
      <trkpt lat="43.46514" lon="6.3255">
        <ele>107.8</ele>
        <time>2023-03-03T14:42:21Z</time>
      </trkpt>
      <trkpt lat="43.46515" lon="6.32551">
        <ele>108</ele>
        <time>2023-03-03T14:42:22Z</time>
      </trkpt>
      <trkpt lat="43.46516" lon="6.32551">
        <ele>108</ele>
        <time>2023-03-03T14:42:23Z</time>
      </trkpt>
      <trkpt lat="43.46517" lon="6.32552">
        <ele>108</ele>
        <time>2023-03-03T14:42:24Z</time>
      </trkpt>
      <trkpt lat="43.46517" lon="6.32553">
        <ele>108.1</ele>
        <time>2023-03-03T14:42:25Z</time>
      </trkpt>
      <trkpt lat="43.46517" lon="6.32553">
        <ele>108.1</ele>
        <time>2023-03-03T14:42:26Z</time>
      </trkpt>
      <trkpt lat="43.46517" lon="6.32553">
        <ele>108.1</ele>
        <time>2023-03-03T14:42:27Z</time>
      </trkpt>
      <trkpt lat="43.46517" lon="6.32554">
        <ele>108.1</ele>
        <time>2023-03-03T14:42:28Z</time>
      </trkpt>
      <trkpt lat="43.46517" lon="6.32554">
        <ele>108.1</ele>
        <time>2023-03-03T14:42:29Z</time>
      </trkpt>
      <trkpt lat="43.46517" lon="6.32554">
        <ele>108.2</ele>
        <time>2023-03-03T14:42:30Z</time>
      </trkpt>
      <trkpt lat="43.46517" lon="6.32554">
        <ele>108.3</ele>
        <time>2023-03-03T14:42:31Z</time>
      </trkpt>
      <trkpt lat="43.46518" lon="6.32554">
        <ele>108.3</ele>
        <time>2023-03-03T14:42:32Z</time>
      </trkpt>
      <trkpt lat="43.46519" lon="6.32554">
        <ele>108.3</ele>
        <time>2023-03-03T14:42:33Z</time>
      </trkpt>
      <trkpt lat="43.4652" lon="6.32554">
        <ele>108.3</ele>
        <time>2023-03-03T14:42:34Z</time>
      </trkpt>
      <trkpt lat="43.4652" lon="6.32553">
        <ele>108.3</ele>
        <time>2023-03-03T14:42:35Z</time>
      </trkpt>
      <trkpt lat="43.46521" lon="6.32554">
        <ele>108.4</ele>
        <time>2023-03-03T14:42:36Z</time>
      </trkpt>
      <trkpt lat="43.46521" lon="6.32553">
        <ele>108.4</ele>
        <time>2023-03-03T14:42:37Z</time>
      </trkpt>
      <trkpt lat="43.46522" lon="6.32553">
        <ele>108.2</ele>
        <time>2023-03-03T14:42:38Z</time>
      </trkpt>
      <trkpt lat="43.46523" lon="6.32553">
        <ele>108.2</ele>
        <time>2023-03-03T14:42:39Z</time>
      </trkpt>
      <trkpt lat="43.46524" lon="6.32553">
        <ele>108.2</ele>
        <time>2023-03-03T14:42:40Z</time>
      </trkpt>
      <trkpt lat="43.46525" lon="6.32553">
        <ele>108.2</ele>
        <time>2023-03-03T14:42:41Z</time>
      </trkpt>
      <trkpt lat="43.46525" lon="6.32555">
        <ele>108.2</ele>
        <time>2023-03-03T14:42:42Z</time>
      </trkpt>
      <trkpt lat="43.46526" lon="6.32555">
        <ele>108.3</ele>
        <time>2023-03-03T14:42:43Z</time>
      </trkpt>
      <trkpt lat="43.46527" lon="6.32555">
        <ele>108.3</ele>
        <time>2023-03-03T14:42:44Z</time>
      </trkpt>
      <trkpt lat="43.46528" lon="6.32555">
        <ele>108.4</ele>
        <time>2023-03-03T14:42:45Z</time>
      </trkpt>
      <trkpt lat="43.46529" lon="6.32556">
        <ele>108.5</ele>
        <time>2023-03-03T14:42:46Z</time>
      </trkpt>
      <trkpt lat="43.4653" lon="6.32556">
        <ele>108.5</ele>
        <time>2023-03-03T14:42:47Z</time>
      </trkpt>
      <trkpt lat="43.46532" lon="6.32556">
        <ele>108.6</ele>
        <time>2023-03-03T14:42:48Z</time>
      </trkpt>
      <trkpt lat="43.46533" lon="6.32555">
        <ele>108.7</ele>
        <time>2023-03-03T14:42:49Z</time>
      </trkpt>
      <trkpt lat="43.46534" lon="6.32556">
        <ele>108.8</ele>
        <time>2023-03-03T14:42:50Z</time>
      </trkpt>
      <trkpt lat="43.46536" lon="6.32556">
        <ele>108.9</ele>
        <time>2023-03-03T14:42:51Z</time>
      </trkpt>
      <trkpt lat="43.46537" lon="6.32556">
        <ele>109</ele>
        <time>2023-03-03T14:42:52Z</time>
      </trkpt>
      <trkpt lat="43.46538" lon="6.32557">
        <ele>109.1</ele>
        <time>2023-03-03T14:42:53Z</time>
      </trkpt>
      <trkpt lat="43.46539" lon="6.32556">
        <ele>109.2</ele>
        <time>2023-03-03T14:42:54Z</time>
      </trkpt>
      <trkpt lat="43.4654" lon="6.32557">
        <ele>109.3</ele>
        <time>2023-03-03T14:42:55Z</time>
      </trkpt>
      <trkpt lat="43.46542" lon="6.32556">
        <ele>109.3</ele>
        <time>2023-03-03T14:42:56Z</time>
      </trkpt>
      <trkpt lat="43.46543" lon="6.32556">
        <ele>109.5</ele>
        <time>2023-03-03T14:42:57Z</time>
      </trkpt>
      <trkpt lat="43.46544" lon="6.32556">
        <ele>109.7</ele>
        <time>2023-03-03T14:42:58Z</time>
      </trkpt>
      <trkpt lat="43.46545" lon="6.32555">
        <ele>109.7</ele>
        <time>2023-03-03T14:42:59Z</time>
      </trkpt>
      <trkpt lat="43.46547" lon="6.32555">
        <ele>109.9</ele>
        <time>2023-03-03T14:43:00Z</time>
      </trkpt>
      <trkpt lat="43.46548" lon="6.32554">
        <ele>110</ele>
        <time>2023-03-03T14:43:01Z</time>
      </trkpt>
      <trkpt lat="43.46549" lon="6.32553">
        <ele>110.1</ele>
        <time>2023-03-03T14:43:02Z</time>
      </trkpt>
      <trkpt lat="43.4655" lon="6.32553">
        <ele>110.2</ele>
        <time>2023-03-03T14:43:03Z</time>
      </trkpt>
      <trkpt lat="43.46551" lon="6.32552">
        <ele>110.3</ele>
        <time>2023-03-03T14:43:04Z</time>
      </trkpt>
      <trkpt lat="43.46552" lon="6.32551">
        <ele>110.3</ele>
        <time>2023-03-03T14:43:05Z</time>
      </trkpt>
      <trkpt lat="43.46553" lon="6.32551">
        <ele>110.5</ele>
        <time>2023-03-03T14:43:06Z</time>
      </trkpt>
      <trkpt lat="43.46554" lon="6.32551">
        <ele>110.7</ele>
        <time>2023-03-03T14:43:07Z</time>
      </trkpt>
      <trkpt lat="43.46556" lon="6.3255">
        <ele>110.8</ele>
        <time>2023-03-03T14:43:08Z</time>
      </trkpt>
      <trkpt lat="43.46557" lon="6.3255">
        <ele>110.9</ele>
        <time>2023-03-03T14:43:09Z</time>
      </trkpt>
      <trkpt lat="43.46558" lon="6.3255">
        <ele>111.1</ele>
        <time>2023-03-03T14:43:10Z</time>
      </trkpt>
      <trkpt lat="43.46559" lon="6.3255">
        <ele>111.2</ele>
        <time>2023-03-03T14:43:11Z</time>
      </trkpt>
      <trkpt lat="43.4656" lon="6.3255">
        <ele>111.4</ele>
        <time>2023-03-03T14:43:12Z</time>
      </trkpt>
      <trkpt lat="43.46561" lon="6.32549">
        <ele>111.5</ele>
        <time>2023-03-03T14:43:13Z</time>
      </trkpt>
      <trkpt lat="43.46562" lon="6.32549">
        <ele>111.7</ele>
        <time>2023-03-03T14:43:14Z</time>
      </trkpt>
      <trkpt lat="43.46563" lon="6.32549">
        <ele>111.8</ele>
        <time>2023-03-03T14:43:15Z</time>
      </trkpt>
      <trkpt lat="43.46564" lon="6.32548">
        <ele>111.9</ele>
        <time>2023-03-03T14:43:16Z</time>
      </trkpt>
      <trkpt lat="43.46565" lon="6.32548">
        <ele>112</ele>
        <time>2023-03-03T14:43:17Z</time>
      </trkpt>
      <trkpt lat="43.46566" lon="6.32548">
        <ele>112.1</ele>
        <time>2023-03-03T14:43:18Z</time>
      </trkpt>
      <trkpt lat="43.46567" lon="6.32547">
        <ele>112.2</ele>
        <time>2023-03-03T14:43:19Z</time>
      </trkpt>
      <trkpt lat="43.46567" lon="6.32546">
        <ele>112.3</ele>
        <time>2023-03-03T14:43:20Z</time>
      </trkpt>
      <trkpt lat="43.46568" lon="6.32546">
        <ele>112.4</ele>
        <time>2023-03-03T14:43:21Z</time>
      </trkpt>
      <trkpt lat="43.46569" lon="6.32546">
        <ele>112.5</ele>
        <time>2023-03-03T14:43:22Z</time>
      </trkpt>
      <trkpt lat="43.4657" lon="6.32545">
        <ele>112.6</ele>
        <time>2023-03-03T14:43:23Z</time>
      </trkpt>
      <trkpt lat="43.46571" lon="6.32544">
        <ele>112.7</ele>
        <time>2023-03-03T14:43:24Z</time>
      </trkpt>
      <trkpt lat="43.46572" lon="6.32544">
        <ele>112.8</ele>
        <time>2023-03-03T14:43:25Z</time>
      </trkpt>
      <trkpt lat="43.46573" lon="6.32542">
        <ele>112.9</ele>
        <time>2023-03-03T14:43:26Z</time>
      </trkpt>
      <trkpt lat="43.46573" lon="6.32541">
        <ele>113</ele>
        <time>2023-03-03T14:43:27Z</time>
      </trkpt>
      <trkpt lat="43.46574" lon="6.32541">
        <ele>113</ele>
        <time>2023-03-03T14:43:28Z</time>
      </trkpt>
      <trkpt lat="43.46575" lon="6.32539">
        <ele>113.1</ele>
        <time>2023-03-03T14:43:29Z</time>
      </trkpt>
      <trkpt lat="43.46576" lon="6.32539">
        <ele>113.1</ele>
        <time>2023-03-03T14:43:30Z</time>
      </trkpt>
      <trkpt lat="43.46577" lon="6.32538">
        <ele>113.2</ele>
        <time>2023-03-03T14:43:31Z</time>
      </trkpt>
      <trkpt lat="43.46577" lon="6.32537">
        <ele>113.3</ele>
        <time>2023-03-03T14:43:32Z</time>
      </trkpt>
      <trkpt lat="43.46578" lon="6.32536">
        <ele>113.4</ele>
        <time>2023-03-03T14:43:33Z</time>
      </trkpt>
      <trkpt lat="43.46579" lon="6.32535">
        <ele>113.5</ele>
        <time>2023-03-03T14:43:34Z</time>
      </trkpt>
      <trkpt lat="43.4658" lon="6.32534">
        <ele>113.6</ele>
        <time>2023-03-03T14:43:35Z</time>
      </trkpt>
      <trkpt lat="43.4658" lon="6.32533">
        <ele>113.8</ele>
        <time>2023-03-03T14:43:36Z</time>
      </trkpt>
      <trkpt lat="43.46581" lon="6.32532">
        <ele>114</ele>
        <time>2023-03-03T14:43:37Z</time>
      </trkpt>
      <trkpt lat="43.46582" lon="6.32532">
        <ele>114.1</ele>
        <time>2023-03-03T14:43:38Z</time>
      </trkpt>
      <trkpt lat="43.46582" lon="6.32531">
        <ele>114.2</ele>
        <time>2023-03-03T14:43:39Z</time>
      </trkpt>
      <trkpt lat="43.46583" lon="6.32529">
        <ele>114.4</ele>
        <time>2023-03-03T14:43:40Z</time>
      </trkpt>
      <trkpt lat="43.46583" lon="6.32528">
        <ele>114.5</ele>
        <time>2023-03-03T14:43:41Z</time>
      </trkpt>
      <trkpt lat="43.46584" lon="6.32527">
        <ele>114.7</ele>
        <time>2023-03-03T14:43:42Z</time>
      </trkpt>
      <trkpt lat="43.46585" lon="6.32526">
        <ele>114.9</ele>
        <time>2023-03-03T14:43:43Z</time>
      </trkpt>
      <trkpt lat="43.46585" lon="6.32525">
        <ele>115.1</ele>
        <time>2023-03-03T14:43:44Z</time>
      </trkpt>
      <trkpt lat="43.46586" lon="6.32524">
        <ele>115.2</ele>
        <time>2023-03-03T14:43:45Z</time>
      </trkpt>
      <trkpt lat="43.46587" lon="6.32523">
        <ele>115.3</ele>
        <time>2023-03-03T14:43:46Z</time>
      </trkpt>
      <trkpt lat="43.46587" lon="6.32522">
        <ele>115.4</ele>
        <time>2023-03-03T14:43:47Z</time>
      </trkpt>
      <trkpt lat="43.46588" lon="6.32521">
        <ele>115.4</ele>
        <time>2023-03-03T14:43:48Z</time>
      </trkpt>
      <trkpt lat="43.46589" lon="6.3252">
        <ele>115.5</ele>
        <time>2023-03-03T14:43:49Z</time>
      </trkpt>
      <trkpt lat="43.4659" lon="6.32519">
        <ele>115.6</ele>
        <time>2023-03-03T14:43:50Z</time>
      </trkpt>
      <trkpt lat="43.46591" lon="6.32519">
        <ele>115.7</ele>
        <time>2023-03-03T14:43:51Z</time>
      </trkpt>
      <trkpt lat="43.46592" lon="6.32518">
        <ele>115.7</ele>
        <time>2023-03-03T14:43:52Z</time>
      </trkpt>
      <trkpt lat="43.46592" lon="6.32518">
        <ele>115.8</ele>
        <time>2023-03-03T14:43:53Z</time>
      </trkpt>
      <trkpt lat="43.46593" lon="6.32517">
        <ele>115.7</ele>
        <time>2023-03-03T14:43:54Z</time>
      </trkpt>
      <trkpt lat="43.46594" lon="6.32517">
        <ele>115.7</ele>
        <time>2023-03-03T14:43:55Z</time>
      </trkpt>
      <trkpt lat="43.46595" lon="6.32517">
        <ele>115.7</ele>
        <time>2023-03-03T14:43:56Z</time>
      </trkpt>
      <trkpt lat="43.46596" lon="6.32517">
        <ele>115.8</ele>
        <time>2023-03-03T14:43:57Z</time>
      </trkpt>
      <trkpt lat="43.46597" lon="6.32517">
        <ele>115.9</ele>
        <time>2023-03-03T14:43:58Z</time>
      </trkpt>
      <trkpt lat="43.46598" lon="6.32516">
        <ele>115.9</ele>
        <time>2023-03-03T14:43:59Z</time>
      </trkpt>
      <trkpt lat="43.46599" lon="6.32516">
        <ele>116</ele>
        <time>2023-03-03T14:44:00Z</time>
      </trkpt>
      <trkpt lat="43.466" lon="6.32516">
        <ele>116</ele>
        <time>2023-03-03T14:44:01Z</time>
      </trkpt>
      <trkpt lat="43.46601" lon="6.32516">
        <ele>116</ele>
        <time>2023-03-03T14:44:02Z</time>
      </trkpt>
      <trkpt lat="43.46602" lon="6.32516">
        <ele>116.1</ele>
        <time>2023-03-03T14:44:03Z</time>
      </trkpt>
      <trkpt lat="43.46603" lon="6.32516">
        <ele>116.1</ele>
        <time>2023-03-03T14:44:04Z</time>
      </trkpt>
      <trkpt lat="43.46604" lon="6.32516">
        <ele>116.1</ele>
        <time>2023-03-03T14:44:05Z</time>
      </trkpt>
      <trkpt lat="43.46605" lon="6.32515">
        <ele>116.2</ele>
        <time>2023-03-03T14:44:06Z</time>
      </trkpt>
      <trkpt lat="43.46606" lon="6.32515">
        <ele>116.2</ele>
        <time>2023-03-03T14:44:07Z</time>
      </trkpt>
      <trkpt lat="43.46607" lon="6.32514">
        <ele>116.2</ele>
        <time>2023-03-03T14:44:08Z</time>
      </trkpt>
      <trkpt lat="43.46608" lon="6.32514">
        <ele>116.2</ele>
        <time>2023-03-03T14:44:09Z</time>
      </trkpt>
      <trkpt lat="43.4661" lon="6.32514">
        <ele>116.2</ele>
        <time>2023-03-03T14:44:10Z</time>
      </trkpt>
      <trkpt lat="43.46611" lon="6.32514">
        <ele>116.3</ele>
        <time>2023-03-03T14:44:11Z</time>
      </trkpt>
      <trkpt lat="43.46612" lon="6.32514">
        <ele>116.3</ele>
        <time>2023-03-03T14:44:12Z</time>
      </trkpt>
      <trkpt lat="43.46613" lon="6.32514">
        <ele>116.3</ele>
        <time>2023-03-03T14:44:13Z</time>
      </trkpt>
      <trkpt lat="43.46614" lon="6.32514">
        <ele>116.3</ele>
        <time>2023-03-03T14:44:14Z</time>
      </trkpt>
      <trkpt lat="43.46615" lon="6.32514">
        <ele>116.3</ele>
        <time>2023-03-03T14:44:15Z</time>
      </trkpt>
      <trkpt lat="43.46616" lon="6.32514">
        <ele>116.3</ele>
        <time>2023-03-03T14:44:16Z</time>
      </trkpt>
      <trkpt lat="43.46617" lon="6.32514">
        <ele>116.3</ele>
        <time>2023-03-03T14:44:17Z</time>
      </trkpt>
      <trkpt lat="43.46619" lon="6.32514">
        <ele>116.4</ele>
        <time>2023-03-03T14:44:18Z</time>
      </trkpt>
      <trkpt lat="43.4662" lon="6.32514">
        <ele>116.3</ele>
        <time>2023-03-03T14:44:19Z</time>
      </trkpt>
      <trkpt lat="43.46621" lon="6.32514">
        <ele>116.2</ele>
        <time>2023-03-03T14:44:20Z</time>
      </trkpt>
      <trkpt lat="43.46623" lon="6.32514">
        <ele>116.2</ele>
        <time>2023-03-03T14:44:21Z</time>
      </trkpt>
      <trkpt lat="43.46624" lon="6.32513">
        <ele>116.2</ele>
        <time>2023-03-03T14:44:22Z</time>
      </trkpt>
      <trkpt lat="43.46625" lon="6.32513">
        <ele>116.2</ele>
        <time>2023-03-03T14:44:23Z</time>
      </trkpt>
      <trkpt lat="43.46626" lon="6.32512">
        <ele>116.2</ele>
        <time>2023-03-03T14:44:24Z</time>
      </trkpt>
      <trkpt lat="43.46627" lon="6.32511">
        <ele>116.3</ele>
        <time>2023-03-03T14:44:25Z</time>
      </trkpt>
      <trkpt lat="43.46628" lon="6.32511">
        <ele>116.3</ele>
        <time>2023-03-03T14:44:26Z</time>
      </trkpt>
      <trkpt lat="43.46629" lon="6.3251">
        <ele>116.4</ele>
        <time>2023-03-03T14:44:27Z</time>
      </trkpt>
      <trkpt lat="43.4663" lon="6.3251">
        <ele>116.4</ele>
        <time>2023-03-03T14:44:28Z</time>
      </trkpt>
      <trkpt lat="43.46632" lon="6.3251">
        <ele>116.3</ele>
        <time>2023-03-03T14:44:29Z</time>
      </trkpt>
      <trkpt lat="43.46633" lon="6.3251">
        <ele>116.2</ele>
        <time>2023-03-03T14:44:30Z</time>
      </trkpt>
      <trkpt lat="43.46635" lon="6.32509">
        <ele>116.2</ele>
        <time>2023-03-03T14:44:31Z</time>
      </trkpt>
      <trkpt lat="43.46636" lon="6.32509">
        <ele>116.2</ele>
        <time>2023-03-03T14:44:32Z</time>
      </trkpt>
      <trkpt lat="43.46637" lon="6.32509">
        <ele>116.2</ele>
        <time>2023-03-03T14:44:33Z</time>
      </trkpt>
      <trkpt lat="43.46638" lon="6.32509">
        <ele>116.2</ele>
        <time>2023-03-03T14:44:34Z</time>
      </trkpt>
      <trkpt lat="43.4664" lon="6.32508">
        <ele>116.1</ele>
        <time>2023-03-03T14:44:35Z</time>
      </trkpt>
      <trkpt lat="43.46641" lon="6.32508">
        <ele>116.1</ele>
        <time>2023-03-03T14:44:36Z</time>
      </trkpt>
      <trkpt lat="43.46642" lon="6.32508">
        <ele>116</ele>
        <time>2023-03-03T14:44:37Z</time>
      </trkpt>
      <trkpt lat="43.46643" lon="6.32507">
        <ele>115.9</ele>
        <time>2023-03-03T14:44:38Z</time>
      </trkpt>
      <trkpt lat="43.46644" lon="6.32507">
        <ele>115.9</ele>
        <time>2023-03-03T14:44:39Z</time>
      </trkpt>
      <trkpt lat="43.46646" lon="6.32506">
        <ele>115.8</ele>
        <time>2023-03-03T14:44:40Z</time>
      </trkpt>
      <trkpt lat="43.46647" lon="6.32506">
        <ele>115.7</ele>
        <time>2023-03-03T14:44:41Z</time>
      </trkpt>
      <trkpt lat="43.46648" lon="6.32506">
        <ele>115.6</ele>
        <time>2023-03-03T14:44:42Z</time>
      </trkpt>
      <trkpt lat="43.4665" lon="6.32506">
        <ele>115.6</ele>
        <time>2023-03-03T14:44:43Z</time>
      </trkpt>
      <trkpt lat="43.46651" lon="6.32506">
        <ele>115.6</ele>
        <time>2023-03-03T14:44:44Z</time>
      </trkpt>
      <trkpt lat="43.46652" lon="6.32506">
        <ele>115.6</ele>
        <time>2023-03-03T14:44:45Z</time>
      </trkpt>
      <trkpt lat="43.46653" lon="6.32505">
        <ele>115.5</ele>
        <time>2023-03-03T14:44:46Z</time>
      </trkpt>
      <trkpt lat="43.46654" lon="6.32505">
        <ele>115.4</ele>
        <time>2023-03-03T14:44:47Z</time>
      </trkpt>
      <trkpt lat="43.46655" lon="6.32505">
        <ele>115.4</ele>
        <time>2023-03-03T14:44:48Z</time>
      </trkpt>
      <trkpt lat="43.46656" lon="6.32505">
        <ele>115.4</ele>
        <time>2023-03-03T14:44:49Z</time>
      </trkpt>
      <trkpt lat="43.46657" lon="6.32505">
        <ele>115.3</ele>
        <time>2023-03-03T14:44:50Z</time>
      </trkpt>
      <trkpt lat="43.46658" lon="6.32505">
        <ele>115.3</ele>
        <time>2023-03-03T14:44:51Z</time>
      </trkpt>
      <trkpt lat="43.46659" lon="6.32505">
        <ele>115.3</ele>
        <time>2023-03-03T14:44:52Z</time>
      </trkpt>
      <trkpt lat="43.4666" lon="6.32504">
        <ele>115.5</ele>
        <time>2023-03-03T14:44:53Z</time>
      </trkpt>
      <trkpt lat="43.46661" lon="6.32504">
        <ele>115.6</ele>
        <time>2023-03-03T14:44:54Z</time>
      </trkpt>
      <trkpt lat="43.46662" lon="6.32504">
        <ele>115.6</ele>
        <time>2023-03-03T14:44:55Z</time>
      </trkpt>
      <trkpt lat="43.46664" lon="6.32503">
        <ele>115.6</ele>
        <time>2023-03-03T14:44:56Z</time>
      </trkpt>
      <trkpt lat="43.46664" lon="6.32503">
        <ele>115.6</ele>
        <time>2023-03-03T14:44:57Z</time>
      </trkpt>
      <trkpt lat="43.46666" lon="6.32503">
        <ele>115.6</ele>
        <time>2023-03-03T14:44:58Z</time>
      </trkpt>
      <trkpt lat="43.46667" lon="6.32503">
        <ele>115.7</ele>
        <time>2023-03-03T14:44:59Z</time>
      </trkpt>
      <trkpt lat="43.46668" lon="6.32503">
        <ele>115.7</ele>
        <time>2023-03-03T14:45:00Z</time>
      </trkpt>
      <trkpt lat="43.46669" lon="6.32503">
        <ele>115.8</ele>
        <time>2023-03-03T14:45:01Z</time>
      </trkpt>
      <trkpt lat="43.4667" lon="6.32503">
        <ele>115.8</ele>
        <time>2023-03-03T14:45:02Z</time>
      </trkpt>
      <trkpt lat="43.46671" lon="6.32502">
        <ele>115.9</ele>
        <time>2023-03-03T14:45:03Z</time>
      </trkpt>
      <trkpt lat="43.46672" lon="6.32502">
        <ele>115.9</ele>
        <time>2023-03-03T14:45:04Z</time>
      </trkpt>
      <trkpt lat="43.46673" lon="6.32502">
        <ele>115.9</ele>
        <time>2023-03-03T14:45:05Z</time>
      </trkpt>
      <trkpt lat="43.46674" lon="6.32501">
        <ele>115.9</ele>
        <time>2023-03-03T14:45:06Z</time>
      </trkpt>
      <trkpt lat="43.46675" lon="6.32501">
        <ele>115.9</ele>
        <time>2023-03-03T14:45:07Z</time>
      </trkpt>
      <trkpt lat="43.46677" lon="6.32501">
        <ele>116</ele>
        <time>2023-03-03T14:45:08Z</time>
      </trkpt>
      <trkpt lat="43.46678" lon="6.325">
        <ele>116</ele>
        <time>2023-03-03T14:45:09Z</time>
      </trkpt>
      <trkpt lat="43.46679" lon="6.325">
        <ele>116.1</ele>
        <time>2023-03-03T14:45:10Z</time>
      </trkpt>
      <trkpt lat="43.4668" lon="6.325">
        <ele>116.1</ele>
        <time>2023-03-03T14:45:11Z</time>
      </trkpt>
      <trkpt lat="43.4668" lon="6.325">
        <ele>116.2</ele>
        <time>2023-03-03T14:45:12Z</time>
      </trkpt>
      <trkpt lat="43.46681" lon="6.32499">
        <ele>116.2</ele>
        <time>2023-03-03T14:45:13Z</time>
      </trkpt>
      <trkpt lat="43.46683" lon="6.32499">
        <ele>116.2</ele>
        <time>2023-03-03T14:45:14Z</time>
      </trkpt>
      <trkpt lat="43.46684" lon="6.32499">
        <ele>116.2</ele>
        <time>2023-03-03T14:45:15Z</time>
      </trkpt>
      <trkpt lat="43.46685" lon="6.32499">
        <ele>116.3</ele>
        <time>2023-03-03T14:45:16Z</time>
      </trkpt>
      <trkpt lat="43.46686" lon="6.32498">
        <ele>116.4</ele>
        <time>2023-03-03T14:45:17Z</time>
      </trkpt>
      <trkpt lat="43.46687" lon="6.32498">
        <ele>116.5</ele>
        <time>2023-03-03T14:45:18Z</time>
      </trkpt>
      <trkpt lat="43.46688" lon="6.32497">
        <ele>116.5</ele>
        <time>2023-03-03T14:45:19Z</time>
      </trkpt>
      <trkpt lat="43.46689" lon="6.32497">
        <ele>116.5</ele>
        <time>2023-03-03T14:45:20Z</time>
      </trkpt>
      <trkpt lat="43.4669" lon="6.32497">
        <ele>116.5</ele>
        <time>2023-03-03T14:45:21Z</time>
      </trkpt>
      <trkpt lat="43.46691" lon="6.32497">
        <ele>116.5</ele>
        <time>2023-03-03T14:45:22Z</time>
      </trkpt>
      <trkpt lat="43.46691" lon="6.32497">
        <ele>116.5</ele>
        <time>2023-03-03T14:45:23Z</time>
      </trkpt>
      <trkpt lat="43.46692" lon="6.32498">
        <ele>116.6</ele>
        <time>2023-03-03T14:45:24Z</time>
      </trkpt>
      <trkpt lat="43.46692" lon="6.32499">
        <ele>116.7</ele>
        <time>2023-03-03T14:45:25Z</time>
      </trkpt>
      <trkpt lat="43.46693" lon="6.32499">
        <ele>116.7</ele>
        <time>2023-03-03T14:45:26Z</time>
      </trkpt>
      <trkpt lat="43.46693" lon="6.32498">
        <ele>116.7</ele>
        <time>2023-03-03T14:45:27Z</time>
      </trkpt>
      <trkpt lat="43.46693" lon="6.32497">
        <ele>116.7</ele>
        <time>2023-03-03T14:45:28Z</time>
      </trkpt>
      <trkpt lat="43.46694" lon="6.32495">
        <ele>116.6</ele>
        <time>2023-03-03T14:45:29Z</time>
      </trkpt>
      <trkpt lat="43.46695" lon="6.32495">
        <ele>116.7</ele>
        <time>2023-03-03T14:45:30Z</time>
      </trkpt>
      <trkpt lat="43.46696" lon="6.32494">
        <ele>116.6</ele>
        <time>2023-03-03T14:45:31Z</time>
      </trkpt>
      <trkpt lat="43.46697" lon="6.32494">
        <ele>116.6</ele>
        <time>2023-03-03T14:45:32Z</time>
      </trkpt>
      <trkpt lat="43.46698" lon="6.32494">
        <ele>116.6</ele>
        <time>2023-03-03T14:45:33Z</time>
      </trkpt>
      <trkpt lat="43.467" lon="6.32494">
        <ele>116.7</ele>
        <time>2023-03-03T14:45:34Z</time>
      </trkpt>
      <trkpt lat="43.46701" lon="6.32494">
        <ele>116.7</ele>
        <time>2023-03-03T14:45:35Z</time>
      </trkpt>
      <trkpt lat="43.46702" lon="6.32493">
        <ele>116.8</ele>
        <time>2023-03-03T14:45:36Z</time>
      </trkpt>
      <trkpt lat="43.46703" lon="6.32493">
        <ele>116.9</ele>
        <time>2023-03-03T14:45:37Z</time>
      </trkpt>
      <trkpt lat="43.46705" lon="6.32493">
        <ele>117</ele>
        <time>2023-03-03T14:45:38Z</time>
      </trkpt>
      <trkpt lat="43.46706" lon="6.32492">
        <ele>117.1</ele>
        <time>2023-03-03T14:45:39Z</time>
      </trkpt>
      <trkpt lat="43.46707" lon="6.32492">
        <ele>117.2</ele>
        <time>2023-03-03T14:45:40Z</time>
      </trkpt>
      <trkpt lat="43.46708" lon="6.32491">
        <ele>117.2</ele>
        <time>2023-03-03T14:45:41Z</time>
      </trkpt>
      <trkpt lat="43.46709" lon="6.32491">
        <ele>117.3</ele>
        <time>2023-03-03T14:45:42Z</time>
      </trkpt>
      <trkpt lat="43.4671" lon="6.3249">
        <ele>117.3</ele>
        <time>2023-03-03T14:45:43Z</time>
      </trkpt>
      <trkpt lat="43.46711" lon="6.3249">
        <ele>117.4</ele>
        <time>2023-03-03T14:45:44Z</time>
      </trkpt>
      <trkpt lat="43.46713" lon="6.3249">
        <ele>117.6</ele>
        <time>2023-03-03T14:45:45Z</time>
      </trkpt>
      <trkpt lat="43.46714" lon="6.32489">
        <ele>117.8</ele>
        <time>2023-03-03T14:45:46Z</time>
      </trkpt>
      <trkpt lat="43.46715" lon="6.32489">
        <ele>117.9</ele>
        <time>2023-03-03T14:45:47Z</time>
      </trkpt>
      <trkpt lat="43.46716" lon="6.32488">
        <ele>117.9</ele>
        <time>2023-03-03T14:45:48Z</time>
      </trkpt>
      <trkpt lat="43.46717" lon="6.32487">
        <ele>117.9</ele>
        <time>2023-03-03T14:45:49Z</time>
      </trkpt>
      <trkpt lat="43.46718" lon="6.32487">
        <ele>118</ele>
        <time>2023-03-03T14:45:50Z</time>
      </trkpt>
      <trkpt lat="43.46719" lon="6.32486">
        <ele>118</ele>
        <time>2023-03-03T14:45:51Z</time>
      </trkpt>
      <trkpt lat="43.4672" lon="6.32485">
        <ele>118.2</ele>
        <time>2023-03-03T14:45:52Z</time>
      </trkpt>
      <trkpt lat="43.46721" lon="6.32485">
        <ele>118.3</ele>
        <time>2023-03-03T14:45:53Z</time>
      </trkpt>
      <trkpt lat="43.46722" lon="6.32485">
        <ele>118.5</ele>
        <time>2023-03-03T14:45:54Z</time>
      </trkpt>
      <trkpt lat="43.46723" lon="6.32484">
        <ele>118.7</ele>
        <time>2023-03-03T14:45:55Z</time>
      </trkpt>
      <trkpt lat="43.46724" lon="6.32484">
        <ele>118.9</ele>
        <time>2023-03-03T14:45:56Z</time>
      </trkpt>
      <trkpt lat="43.46725" lon="6.32483">
        <ele>119.1</ele>
        <time>2023-03-03T14:45:57Z</time>
      </trkpt>
      <trkpt lat="43.46726" lon="6.32483">
        <ele>119.3</ele>
        <time>2023-03-03T14:45:58Z</time>
      </trkpt>
      <trkpt lat="43.46727" lon="6.32483">
        <ele>119.4</ele>
        <time>2023-03-03T14:45:59Z</time>
      </trkpt>
      <trkpt lat="43.46728" lon="6.32483">
        <ele>119.5</ele>
        <time>2023-03-03T14:46:00Z</time>
      </trkpt>
      <trkpt lat="43.46729" lon="6.32484">
        <ele>119.8</ele>
        <time>2023-03-03T14:46:01Z</time>
      </trkpt>
      <trkpt lat="43.4673" lon="6.32484">
        <ele>119.9</ele>
        <time>2023-03-03T14:46:02Z</time>
      </trkpt>
      <trkpt lat="43.4673" lon="6.32484">
        <ele>120.1</ele>
        <time>2023-03-03T14:46:03Z</time>
      </trkpt>
      <trkpt lat="43.46731" lon="6.32485">
        <ele>120.2</ele>
        <time>2023-03-03T14:46:04Z</time>
      </trkpt>
      <trkpt lat="43.46732" lon="6.32486">
        <ele>120.3</ele>
        <time>2023-03-03T14:46:05Z</time>
      </trkpt>
      <trkpt lat="43.46733" lon="6.32487">
        <ele>120.4</ele>
        <time>2023-03-03T14:46:06Z</time>
      </trkpt>
      <trkpt lat="43.46733" lon="6.32488">
        <ele>120.5</ele>
        <time>2023-03-03T14:46:07Z</time>
      </trkpt>
      <trkpt lat="43.46734" lon="6.32489">
        <ele>120.8</ele>
        <time>2023-03-03T14:46:08Z</time>
      </trkpt>
      <trkpt lat="43.46734" lon="6.32491">
        <ele>120.9</ele>
        <time>2023-03-03T14:46:09Z</time>
      </trkpt>
      <trkpt lat="43.46735" lon="6.32492">
        <ele>121.1</ele>
        <time>2023-03-03T14:46:10Z</time>
      </trkpt>
      <trkpt lat="43.46735" lon="6.32493">
        <ele>121.2</ele>
        <time>2023-03-03T14:46:11Z</time>
      </trkpt>
      <trkpt lat="43.46735" lon="6.32494">
        <ele>121.3</ele>
        <time>2023-03-03T14:46:12Z</time>
      </trkpt>
      <trkpt lat="43.46736" lon="6.32495">
        <ele>121.4</ele>
        <time>2023-03-03T14:46:13Z</time>
      </trkpt>
      <trkpt lat="43.46736" lon="6.32496">
        <ele>121.5</ele>
        <time>2023-03-03T14:46:14Z</time>
      </trkpt>
      <trkpt lat="43.46736" lon="6.32497">
        <ele>121.5</ele>
        <time>2023-03-03T14:46:15Z</time>
      </trkpt>
      <trkpt lat="43.46737" lon="6.32499">
        <ele>121.6</ele>
        <time>2023-03-03T14:46:16Z</time>
      </trkpt>
      <trkpt lat="43.46737" lon="6.325">
        <ele>121.7</ele>
        <time>2023-03-03T14:46:17Z</time>
      </trkpt>
      <trkpt lat="43.46738" lon="6.32501">
        <ele>121.9</ele>
        <time>2023-03-03T14:46:18Z</time>
      </trkpt>
      <trkpt lat="43.46738" lon="6.32502">
        <ele>122</ele>
        <time>2023-03-03T14:46:19Z</time>
      </trkpt>
      <trkpt lat="43.46738" lon="6.32503">
        <ele>122.1</ele>
        <time>2023-03-03T14:46:20Z</time>
      </trkpt>
      <trkpt lat="43.46739" lon="6.32504">
        <ele>122.2</ele>
        <time>2023-03-03T14:46:21Z</time>
      </trkpt>
      <trkpt lat="43.46739" lon="6.32506">
        <ele>122.4</ele>
        <time>2023-03-03T14:46:22Z</time>
      </trkpt>
      <trkpt lat="43.4674" lon="6.32507">
        <ele>122.5</ele>
        <time>2023-03-03T14:46:23Z</time>
      </trkpt>
      <trkpt lat="43.4674" lon="6.32508">
        <ele>122.6</ele>
        <time>2023-03-03T14:46:24Z</time>
      </trkpt>
      <trkpt lat="43.46741" lon="6.32509">
        <ele>122.7</ele>
        <time>2023-03-03T14:46:25Z</time>
      </trkpt>
      <trkpt lat="43.46741" lon="6.32511">
        <ele>122.9</ele>
        <time>2023-03-03T14:46:26Z</time>
      </trkpt>
      <trkpt lat="43.46742" lon="6.32512">
        <ele>122.9</ele>
        <time>2023-03-03T14:46:27Z</time>
      </trkpt>
      <trkpt lat="43.46743" lon="6.32513">
        <ele>123</ele>
        <time>2023-03-03T14:46:28Z</time>
      </trkpt>
      <trkpt lat="43.46743" lon="6.32514">
        <ele>123.2</ele>
        <time>2023-03-03T14:46:29Z</time>
      </trkpt>
      <trkpt lat="43.46744" lon="6.32515">
        <ele>123.3</ele>
        <time>2023-03-03T14:46:30Z</time>
      </trkpt>
      <trkpt lat="43.46745" lon="6.32516">
        <ele>123.4</ele>
        <time>2023-03-03T14:46:31Z</time>
      </trkpt>
      <trkpt lat="43.46745" lon="6.32517">
        <ele>123.5</ele>
        <time>2023-03-03T14:46:32Z</time>
      </trkpt>
      <trkpt lat="43.46746" lon="6.32519">
        <ele>123.6</ele>
        <time>2023-03-03T14:46:33Z</time>
      </trkpt>
      <trkpt lat="43.46746" lon="6.3252">
        <ele>123.6</ele>
        <time>2023-03-03T14:46:34Z</time>
      </trkpt>
      <trkpt lat="43.46747" lon="6.32521">
        <ele>123.7</ele>
        <time>2023-03-03T14:46:35Z</time>
      </trkpt>
      <trkpt lat="43.46748" lon="6.32522">
        <ele>123.8</ele>
        <time>2023-03-03T14:46:36Z</time>
      </trkpt>
      <trkpt lat="43.46748" lon="6.32524">
        <ele>123.9</ele>
        <time>2023-03-03T14:46:37Z</time>
      </trkpt>
      <trkpt lat="43.46749" lon="6.32525">
        <ele>123.9</ele>
        <time>2023-03-03T14:46:38Z</time>
      </trkpt>
      <trkpt lat="43.4675" lon="6.32526">
        <ele>124.1</ele>
        <time>2023-03-03T14:46:39Z</time>
      </trkpt>
      <trkpt lat="43.4675" lon="6.32527">
        <ele>124.1</ele>
        <time>2023-03-03T14:46:40Z</time>
      </trkpt>
      <trkpt lat="43.46751" lon="6.32529">
        <ele>124.1</ele>
        <time>2023-03-03T14:46:41Z</time>
      </trkpt>
      <trkpt lat="43.46751" lon="6.32531">
        <ele>124.2</ele>
        <time>2023-03-03T14:46:42Z</time>
      </trkpt>
      <trkpt lat="43.46751" lon="6.32533">
        <ele>124.3</ele>
        <time>2023-03-03T14:46:43Z</time>
      </trkpt>
      <trkpt lat="43.46752" lon="6.32534">
        <ele>124.3</ele>
        <time>2023-03-03T14:46:44Z</time>
      </trkpt>
      <trkpt lat="43.46753" lon="6.32536">
        <ele>124.4</ele>
        <time>2023-03-03T14:46:45Z</time>
      </trkpt>
      <trkpt lat="43.46754" lon="6.32537">
        <ele>124.4</ele>
        <time>2023-03-03T14:46:46Z</time>
      </trkpt>
      <trkpt lat="43.46754" lon="6.32538">
        <ele>124.6</ele>
        <time>2023-03-03T14:46:47Z</time>
      </trkpt>
      <trkpt lat="43.46755" lon="6.3254">
        <ele>124.6</ele>
        <time>2023-03-03T14:46:48Z</time>
      </trkpt>
      <trkpt lat="43.46756" lon="6.32541">
        <ele>124.6</ele>
        <time>2023-03-03T14:46:49Z</time>
      </trkpt>
      <trkpt lat="43.46757" lon="6.32542">
        <ele>124.6</ele>
        <time>2023-03-03T14:46:50Z</time>
      </trkpt>
      <trkpt lat="43.46758" lon="6.32543">
        <ele>124.6</ele>
        <time>2023-03-03T14:46:51Z</time>
      </trkpt>
      <trkpt lat="43.46758" lon="6.32544">
        <ele>124.5</ele>
        <time>2023-03-03T14:46:52Z</time>
      </trkpt>
      <trkpt lat="43.46759" lon="6.32546">
        <ele>124.5</ele>
        <time>2023-03-03T14:46:53Z</time>
      </trkpt>
      <trkpt lat="43.4676" lon="6.32547">
        <ele>124.4</ele>
        <time>2023-03-03T14:46:54Z</time>
      </trkpt>
      <trkpt lat="43.4676" lon="6.32549">
        <ele>124.4</ele>
        <time>2023-03-03T14:46:55Z</time>
      </trkpt>
      <trkpt lat="43.46761" lon="6.32551">
        <ele>124.4</ele>
        <time>2023-03-03T14:46:56Z</time>
      </trkpt>
      <trkpt lat="43.46762" lon="6.32552">
        <ele>124.4</ele>
        <time>2023-03-03T14:46:57Z</time>
      </trkpt>
      <trkpt lat="43.46764" lon="6.32553">
        <ele>124.4</ele>
        <time>2023-03-03T14:46:58Z</time>
      </trkpt>
      <trkpt lat="43.46765" lon="6.32554">
        <ele>124.4</ele>
        <time>2023-03-03T14:46:59Z</time>
      </trkpt>
      <trkpt lat="43.46766" lon="6.32556">
        <ele>124.4</ele>
        <time>2023-03-03T14:47:00Z</time>
      </trkpt>
      <trkpt lat="43.46767" lon="6.32557">
        <ele>124.3</ele>
        <time>2023-03-03T14:47:01Z</time>
      </trkpt>
      <trkpt lat="43.46768" lon="6.32558">
        <ele>124.3</ele>
        <time>2023-03-03T14:47:02Z</time>
      </trkpt>
      <trkpt lat="43.46769" lon="6.3256">
        <ele>124.3</ele>
        <time>2023-03-03T14:47:03Z</time>
      </trkpt>
      <trkpt lat="43.4677" lon="6.32561">
        <ele>124.4</ele>
        <time>2023-03-03T14:47:04Z</time>
      </trkpt>
      <trkpt lat="43.4677" lon="6.32562">
        <ele>124.4</ele>
        <time>2023-03-03T14:47:05Z</time>
      </trkpt>
      <trkpt lat="43.46772" lon="6.32563">
        <ele>124.3</ele>
        <time>2023-03-03T14:47:06Z</time>
      </trkpt>
      <trkpt lat="43.46773" lon="6.32565">
        <ele>124.3</ele>
        <time>2023-03-03T14:47:07Z</time>
      </trkpt>
      <trkpt lat="43.46773" lon="6.32566">
        <ele>124.3</ele>
        <time>2023-03-03T14:47:08Z</time>
      </trkpt>
      <trkpt lat="43.46774" lon="6.32568">
        <ele>124.3</ele>
        <time>2023-03-03T14:47:09Z</time>
      </trkpt>
      <trkpt lat="43.46774" lon="6.3257">
        <ele>124.3</ele>
        <time>2023-03-03T14:47:10Z</time>
      </trkpt>
      <trkpt lat="43.46775" lon="6.32571">
        <ele>124.3</ele>
        <time>2023-03-03T14:47:11Z</time>
      </trkpt>
      <trkpt lat="43.46776" lon="6.32572">
        <ele>124.3</ele>
        <time>2023-03-03T14:47:12Z</time>
      </trkpt>
      <trkpt lat="43.46777" lon="6.32573">
        <ele>124.3</ele>
        <time>2023-03-03T14:47:13Z</time>
      </trkpt>
      <trkpt lat="43.46778" lon="6.32575">
        <ele>124.2</ele>
        <time>2023-03-03T14:47:14Z</time>
      </trkpt>
      <trkpt lat="43.46778" lon="6.32577">
        <ele>124.1</ele>
        <time>2023-03-03T14:47:15Z</time>
      </trkpt>
      <trkpt lat="43.46779" lon="6.32579">
        <ele>124.1</ele>
        <time>2023-03-03T14:47:16Z</time>
      </trkpt>
      <trkpt lat="43.46779" lon="6.32581">
        <ele>124.1</ele>
        <time>2023-03-03T14:47:17Z</time>
      </trkpt>
      <trkpt lat="43.4678" lon="6.32584">
        <ele>124.1</ele>
        <time>2023-03-03T14:47:18Z</time>
      </trkpt>
      <trkpt lat="43.46781" lon="6.32585">
        <ele>124.1</ele>
        <time>2023-03-03T14:47:19Z</time>
      </trkpt>
      <trkpt lat="43.46782" lon="6.32587">
        <ele>124.1</ele>
        <time>2023-03-03T14:47:20Z</time>
      </trkpt>
      <trkpt lat="43.46783" lon="6.32589">
        <ele>124.1</ele>
        <time>2023-03-03T14:47:21Z</time>
      </trkpt>
      <trkpt lat="43.46784" lon="6.32591">
        <ele>124.1</ele>
        <time>2023-03-03T14:47:22Z</time>
      </trkpt>
      <trkpt lat="43.46784" lon="6.32593">
        <ele>124</ele>
        <time>2023-03-03T14:47:23Z</time>
      </trkpt>
      <trkpt lat="43.46786" lon="6.32594">
        <ele>124</ele>
        <time>2023-03-03T14:47:24Z</time>
      </trkpt>
      <trkpt lat="43.46787" lon="6.32596">
        <ele>124</ele>
        <time>2023-03-03T14:47:25Z</time>
      </trkpt>
      <trkpt lat="43.46788" lon="6.32597">
        <ele>124.1</ele>
        <time>2023-03-03T14:47:26Z</time>
      </trkpt>
      <trkpt lat="43.46788" lon="6.32599">
        <ele>124.2</ele>
        <time>2023-03-03T14:47:27Z</time>
      </trkpt>
      <trkpt lat="43.46789" lon="6.326">
        <ele>124.3</ele>
        <time>2023-03-03T14:47:28Z</time>
      </trkpt>
      <trkpt lat="43.4679" lon="6.32601">
        <ele>124.4</ele>
        <time>2023-03-03T14:47:29Z</time>
      </trkpt>
      <trkpt lat="43.46791" lon="6.32603">
        <ele>124.5</ele>
        <time>2023-03-03T14:47:30Z</time>
      </trkpt>
      <trkpt lat="43.46792" lon="6.32603">
        <ele>124.5</ele>
        <time>2023-03-03T14:47:31Z</time>
      </trkpt>
      <trkpt lat="43.46793" lon="6.32605">
        <ele>124.5</ele>
        <time>2023-03-03T14:47:32Z</time>
      </trkpt>
      <trkpt lat="43.46793" lon="6.32606">
        <ele>124.5</ele>
        <time>2023-03-03T14:47:33Z</time>
      </trkpt>
      <trkpt lat="43.46795" lon="6.32607">
        <ele>124.5</ele>
        <time>2023-03-03T14:47:34Z</time>
      </trkpt>
      <trkpt lat="43.46796" lon="6.32607">
        <ele>124.5</ele>
        <time>2023-03-03T14:47:35Z</time>
      </trkpt>
      <trkpt lat="43.46797" lon="6.32607">
        <ele>124.5</ele>
        <time>2023-03-03T14:47:36Z</time>
      </trkpt>
      <trkpt lat="43.46799" lon="6.32607">
        <ele>124.5</ele>
        <time>2023-03-03T14:47:37Z</time>
      </trkpt>
      <trkpt lat="43.468" lon="6.32607">
        <ele>124.6</ele>
        <time>2023-03-03T14:47:38Z</time>
      </trkpt>
      <trkpt lat="43.46801" lon="6.32606">
        <ele>124.6</ele>
        <time>2023-03-03T14:47:39Z</time>
      </trkpt>
      <trkpt lat="43.46801" lon="6.32605">
        <ele>124.7</ele>
        <time>2023-03-03T14:47:40Z</time>
      </trkpt>
      <trkpt lat="43.46802" lon="6.32603">
        <ele>124.7</ele>
        <time>2023-03-03T14:47:41Z</time>
      </trkpt>
      <trkpt lat="43.46803" lon="6.32601">
        <ele>124.8</ele>
        <time>2023-03-03T14:47:42Z</time>
      </trkpt>
      <trkpt lat="43.46804" lon="6.326">
        <ele>124.8</ele>
        <time>2023-03-03T14:47:43Z</time>
      </trkpt>
      <trkpt lat="43.46804" lon="6.32598">
        <ele>124.8</ele>
        <time>2023-03-03T14:47:44Z</time>
      </trkpt>
      <trkpt lat="43.46805" lon="6.32596">
        <ele>124.9</ele>
        <time>2023-03-03T14:47:45Z</time>
      </trkpt>
      <trkpt lat="43.46806" lon="6.32595">
        <ele>125</ele>
        <time>2023-03-03T14:47:46Z</time>
      </trkpt>
      <trkpt lat="43.46806" lon="6.32593">
        <ele>125.1</ele>
        <time>2023-03-03T14:47:47Z</time>
      </trkpt>
      <trkpt lat="43.46806" lon="6.32591">
        <ele>125.2</ele>
        <time>2023-03-03T14:47:48Z</time>
      </trkpt>
      <trkpt lat="43.46806" lon="6.3259">
        <ele>125.3</ele>
        <time>2023-03-03T14:47:49Z</time>
      </trkpt>
      <trkpt lat="43.46807" lon="6.32588">
        <ele>125.3</ele>
        <time>2023-03-03T14:47:50Z</time>
      </trkpt>
      <trkpt lat="43.46808" lon="6.32586">
        <ele>125.4</ele>
        <time>2023-03-03T14:47:51Z</time>
      </trkpt>
      <trkpt lat="43.46808" lon="6.32584">
        <ele>125.4</ele>
        <time>2023-03-03T14:47:52Z</time>
      </trkpt>
      <trkpt lat="43.46809" lon="6.32582">
        <ele>125.5</ele>
        <time>2023-03-03T14:47:53Z</time>
      </trkpt>
      <trkpt lat="43.46809" lon="6.32581">
        <ele>125.6</ele>
        <time>2023-03-03T14:47:54Z</time>
      </trkpt>
      <trkpt lat="43.46809" lon="6.32579">
        <ele>125.7</ele>
        <time>2023-03-03T14:47:55Z</time>
      </trkpt>
      <trkpt lat="43.4681" lon="6.32577">
        <ele>125.8</ele>
        <time>2023-03-03T14:47:56Z</time>
      </trkpt>
      <trkpt lat="43.46811" lon="6.32575">
        <ele>125.9</ele>
        <time>2023-03-03T14:47:57Z</time>
      </trkpt>
      <trkpt lat="43.46812" lon="6.32573">
        <ele>125.9</ele>
        <time>2023-03-03T14:47:58Z</time>
      </trkpt>
      <trkpt lat="43.46813" lon="6.32572">
        <ele>126.1</ele>
        <time>2023-03-03T14:47:59Z</time>
      </trkpt>
      <trkpt lat="43.46813" lon="6.3257">
        <ele>126.2</ele>
        <time>2023-03-03T14:48:00Z</time>
      </trkpt>
      <trkpt lat="43.46814" lon="6.32569">
        <ele>126.2</ele>
        <time>2023-03-03T14:48:01Z</time>
      </trkpt>
      <trkpt lat="43.46815" lon="6.32567">
        <ele>126.3</ele>
        <time>2023-03-03T14:48:02Z</time>
      </trkpt>
      <trkpt lat="43.46816" lon="6.32566">
        <ele>126.4</ele>
        <time>2023-03-03T14:48:03Z</time>
      </trkpt>
      <trkpt lat="43.46816" lon="6.32565">
        <ele>126.5</ele>
        <time>2023-03-03T14:48:04Z</time>
      </trkpt>
      <trkpt lat="43.46817" lon="6.32564">
        <ele>126.6</ele>
        <time>2023-03-03T14:48:05Z</time>
      </trkpt>
      <trkpt lat="43.46817" lon="6.32563">
        <ele>126.7</ele>
        <time>2023-03-03T14:48:06Z</time>
      </trkpt>
      <trkpt lat="43.46818" lon="6.32562">
        <ele>126.7</ele>
        <time>2023-03-03T14:48:07Z</time>
      </trkpt>
      <trkpt lat="43.46819" lon="6.32561">
        <ele>126.8</ele>
        <time>2023-03-03T14:48:08Z</time>
      </trkpt>
      <trkpt lat="43.46819" lon="6.3256">
        <ele>126.8</ele>
        <time>2023-03-03T14:48:09Z</time>
      </trkpt>
      <trkpt lat="43.4682" lon="6.32559">
        <ele>126.9</ele>
        <time>2023-03-03T14:48:10Z</time>
      </trkpt>
      <trkpt lat="43.4682" lon="6.32558">
        <ele>127</ele>
        <time>2023-03-03T14:48:11Z</time>
      </trkpt>
      <trkpt lat="43.46821" lon="6.32557">
        <ele>127.2</ele>
        <time>2023-03-03T14:48:12Z</time>
      </trkpt>
      <trkpt lat="43.46822" lon="6.32556">
        <ele>127.3</ele>
        <time>2023-03-03T14:48:13Z</time>
      </trkpt>
      <trkpt lat="43.46822" lon="6.32555">
        <ele>127.3</ele>
        <time>2023-03-03T14:48:14Z</time>
      </trkpt>
      <trkpt lat="43.46822" lon="6.32554">
        <ele>127.4</ele>
        <time>2023-03-03T14:48:15Z</time>
      </trkpt>
      <trkpt lat="43.46823" lon="6.32553">
        <ele>127.6</ele>
        <time>2023-03-03T14:48:16Z</time>
      </trkpt>
      <trkpt lat="43.46824" lon="6.32553">
        <ele>127.8</ele>
        <time>2023-03-03T14:48:17Z</time>
      </trkpt>
      <trkpt lat="43.46824" lon="6.32552">
        <ele>127.9</ele>
        <time>2023-03-03T14:48:18Z</time>
      </trkpt>
      <trkpt lat="43.46825" lon="6.32551">
        <ele>128</ele>
        <time>2023-03-03T14:48:19Z</time>
      </trkpt>
      <trkpt lat="43.46826" lon="6.3255">
        <ele>128.1</ele>
        <time>2023-03-03T14:48:20Z</time>
      </trkpt>
      <trkpt lat="43.46827" lon="6.32549">
        <ele>128.2</ele>
        <time>2023-03-03T14:48:21Z</time>
      </trkpt>
      <trkpt lat="43.46828" lon="6.32547">
        <ele>128.3</ele>
        <time>2023-03-03T14:48:22Z</time>
      </trkpt>
      <trkpt lat="43.46828" lon="6.32545">
        <ele>128.5</ele>
        <time>2023-03-03T14:48:23Z</time>
      </trkpt>
      <trkpt lat="43.46828" lon="6.32543">
        <ele>128.6</ele>
        <time>2023-03-03T14:48:24Z</time>
      </trkpt>
      <trkpt lat="43.46829" lon="6.32542">
        <ele>128.7</ele>
        <time>2023-03-03T14:48:25Z</time>
      </trkpt>
      <trkpt lat="43.46829" lon="6.3254">
        <ele>128.8</ele>
        <time>2023-03-03T14:48:26Z</time>
      </trkpt>
      <trkpt lat="43.4683" lon="6.32539">
        <ele>128.9</ele>
        <time>2023-03-03T14:48:27Z</time>
      </trkpt>
      <trkpt lat="43.46831" lon="6.32537">
        <ele>129</ele>
        <time>2023-03-03T14:48:28Z</time>
      </trkpt>
      <trkpt lat="43.46831" lon="6.32536">
        <ele>129.2</ele>
        <time>2023-03-03T14:48:29Z</time>
      </trkpt>
      <trkpt lat="43.46832" lon="6.32534">
        <ele>129.3</ele>
        <time>2023-03-03T14:48:30Z</time>
      </trkpt>
      <trkpt lat="43.46833" lon="6.32533">
        <ele>129.4</ele>
        <time>2023-03-03T14:48:31Z</time>
      </trkpt>
      <trkpt lat="43.46834" lon="6.32531">
        <ele>129.5</ele>
        <time>2023-03-03T14:48:32Z</time>
      </trkpt>
      <trkpt lat="43.46835" lon="6.3253">
        <ele>129.7</ele>
        <time>2023-03-03T14:48:33Z</time>
      </trkpt>
      <trkpt lat="43.46835" lon="6.32528">
        <ele>129.8</ele>
        <time>2023-03-03T14:48:34Z</time>
      </trkpt>
      <trkpt lat="43.46836" lon="6.32527">
        <ele>129.9</ele>
        <time>2023-03-03T14:48:35Z</time>
      </trkpt>
      <trkpt lat="43.46836" lon="6.32526">
        <ele>130</ele>
        <time>2023-03-03T14:48:36Z</time>
      </trkpt>
      <trkpt lat="43.46837" lon="6.32524">
        <ele>130.1</ele>
        <time>2023-03-03T14:48:37Z</time>
      </trkpt>
      <trkpt lat="43.46838" lon="6.32523">
        <ele>130.2</ele>
        <time>2023-03-03T14:48:38Z</time>
      </trkpt>
      <trkpt lat="43.46839" lon="6.32522">
        <ele>130.2</ele>
        <time>2023-03-03T14:48:39Z</time>
      </trkpt>
      <trkpt lat="43.4684" lon="6.32521">
        <ele>130.3</ele>
        <time>2023-03-03T14:48:40Z</time>
      </trkpt>
      <trkpt lat="43.46841" lon="6.3252">
        <ele>130.5</ele>
        <time>2023-03-03T14:48:41Z</time>
      </trkpt>
      <trkpt lat="43.46842" lon="6.32521">
        <ele>130.6</ele>
        <time>2023-03-03T14:48:42Z</time>
      </trkpt>
      <trkpt lat="43.46843" lon="6.32521">
        <ele>130.6</ele>
        <time>2023-03-03T14:48:43Z</time>
      </trkpt>
      <trkpt lat="43.46844" lon="6.3252">
        <ele>130.9</ele>
        <time>2023-03-03T14:48:44Z</time>
      </trkpt>
      <trkpt lat="43.46845" lon="6.32519">
        <ele>131</ele>
        <time>2023-03-03T14:48:45Z</time>
      </trkpt>
      <trkpt lat="43.46846" lon="6.32519">
        <ele>131.3</ele>
        <time>2023-03-03T14:48:46Z</time>
      </trkpt>
      <trkpt lat="43.46847" lon="6.32518">
        <ele>131.3</ele>
        <time>2023-03-03T14:48:47Z</time>
      </trkpt>
      <trkpt lat="43.46848" lon="6.32517">
        <ele>131.4</ele>
        <time>2023-03-03T14:48:48Z</time>
      </trkpt>
      <trkpt lat="43.46849" lon="6.32516">
        <ele>131.5</ele>
        <time>2023-03-03T14:48:49Z</time>
      </trkpt>
      <trkpt lat="43.4685" lon="6.32516">
        <ele>131.6</ele>
        <time>2023-03-03T14:48:50Z</time>
      </trkpt>
      <trkpt lat="43.46851" lon="6.32515">
        <ele>131.8</ele>
        <time>2023-03-03T14:48:51Z</time>
      </trkpt>
      <trkpt lat="43.46852" lon="6.32514">
        <ele>132.1</ele>
        <time>2023-03-03T14:48:52Z</time>
      </trkpt>
      <trkpt lat="43.46853" lon="6.32514">
        <ele>132.4</ele>
        <time>2023-03-03T14:48:53Z</time>
      </trkpt>
      <trkpt lat="43.46854" lon="6.32513">
        <ele>132.6</ele>
        <time>2023-03-03T14:48:54Z</time>
      </trkpt>
      <trkpt lat="43.46855" lon="6.32512">
        <ele>132.8</ele>
        <time>2023-03-03T14:48:55Z</time>
      </trkpt>
      <trkpt lat="43.46855" lon="6.32511">
        <ele>133</ele>
        <time>2023-03-03T14:48:56Z</time>
      </trkpt>
      <trkpt lat="43.46856" lon="6.32511">
        <ele>133.1</ele>
        <time>2023-03-03T14:48:57Z</time>
      </trkpt>
      <trkpt lat="43.46857" lon="6.32511">
        <ele>133.3</ele>
        <time>2023-03-03T14:48:58Z</time>
      </trkpt>
      <trkpt lat="43.46858" lon="6.3251">
        <ele>133.4</ele>
        <time>2023-03-03T14:48:59Z</time>
      </trkpt>
      <trkpt lat="43.4686" lon="6.32509">
        <ele>133.6</ele>
        <time>2023-03-03T14:49:00Z</time>
      </trkpt>
      <trkpt lat="43.46861" lon="6.32509">
        <ele>133.8</ele>
        <time>2023-03-03T14:49:01Z</time>
      </trkpt>
      <trkpt lat="43.46862" lon="6.32508">
        <ele>133.9</ele>
        <time>2023-03-03T14:49:02Z</time>
      </trkpt>
      <trkpt lat="43.46863" lon="6.32507">
        <ele>134.1</ele>
        <time>2023-03-03T14:49:03Z</time>
      </trkpt>
      <trkpt lat="43.46864" lon="6.32507">
        <ele>134.2</ele>
        <time>2023-03-03T14:49:04Z</time>
      </trkpt>
      <trkpt lat="43.46865" lon="6.32507">
        <ele>134.3</ele>
        <time>2023-03-03T14:49:05Z</time>
      </trkpt>
      <trkpt lat="43.46866" lon="6.32506">
        <ele>134.4</ele>
        <time>2023-03-03T14:49:06Z</time>
      </trkpt>
      <trkpt lat="43.46867" lon="6.32505">
        <ele>134.7</ele>
        <time>2023-03-03T14:49:07Z</time>
      </trkpt>
      <trkpt lat="43.46867" lon="6.32504">
        <ele>134.8</ele>
        <time>2023-03-03T14:49:08Z</time>
      </trkpt>
      <trkpt lat="43.46868" lon="6.32503">
        <ele>135</ele>
        <time>2023-03-03T14:49:09Z</time>
      </trkpt>
      <trkpt lat="43.46869" lon="6.32502">
        <ele>135.1</ele>
        <time>2023-03-03T14:49:10Z</time>
      </trkpt>
      <trkpt lat="43.4687" lon="6.32501">
        <ele>135.2</ele>
        <time>2023-03-03T14:49:11Z</time>
      </trkpt>
      <trkpt lat="43.46871" lon="6.325">
        <ele>135.3</ele>
        <time>2023-03-03T14:49:12Z</time>
      </trkpt>
      <trkpt lat="43.46872" lon="6.325">
        <ele>135.3</ele>
        <time>2023-03-03T14:49:13Z</time>
      </trkpt>
      <trkpt lat="43.46872" lon="6.32499">
        <ele>135.4</ele>
        <time>2023-03-03T14:49:14Z</time>
      </trkpt>
      <trkpt lat="43.46873" lon="6.32497">
        <ele>135.5</ele>
        <time>2023-03-03T14:49:15Z</time>
      </trkpt>
      <trkpt lat="43.46874" lon="6.32496">
        <ele>135.5</ele>
        <time>2023-03-03T14:49:16Z</time>
      </trkpt>
      <trkpt lat="43.46875" lon="6.32494">
        <ele>135.5</ele>
        <time>2023-03-03T14:49:17Z</time>
      </trkpt>
      <trkpt lat="43.46877" lon="6.32493">
        <ele>135.6</ele>
        <time>2023-03-03T14:49:18Z</time>
      </trkpt>
      <trkpt lat="43.46878" lon="6.32492">
        <ele>135.6</ele>
        <time>2023-03-03T14:49:19Z</time>
      </trkpt>
      <trkpt lat="43.46879" lon="6.3249">
        <ele>135.6</ele>
        <time>2023-03-03T14:49:20Z</time>
      </trkpt>
      <trkpt lat="43.46879" lon="6.32489">
        <ele>135.6</ele>
        <time>2023-03-03T14:49:21Z</time>
      </trkpt>
      <trkpt lat="43.4688" lon="6.32487">
        <ele>135.6</ele>
        <time>2023-03-03T14:49:22Z</time>
      </trkpt>
      <trkpt lat="43.46881" lon="6.32485">
        <ele>135.6</ele>
        <time>2023-03-03T14:49:23Z</time>
      </trkpt>
      <trkpt lat="43.46881" lon="6.32483">
        <ele>135.7</ele>
        <time>2023-03-03T14:49:24Z</time>
      </trkpt>
      <trkpt lat="43.46882" lon="6.32482">
        <ele>135.7</ele>
        <time>2023-03-03T14:49:25Z</time>
      </trkpt>
      <trkpt lat="43.46881" lon="6.3248">
        <ele>135.8</ele>
        <time>2023-03-03T14:49:26Z</time>
      </trkpt>
      <trkpt lat="43.46882" lon="6.32479">
        <ele>135.9</ele>
        <time>2023-03-03T14:49:27Z</time>
      </trkpt>
      <trkpt lat="43.46882" lon="6.32477">
        <ele>135.9</ele>
        <time>2023-03-03T14:49:28Z</time>
      </trkpt>
      <trkpt lat="43.46881" lon="6.32476">
        <ele>135.8</ele>
        <time>2023-03-03T14:49:29Z</time>
      </trkpt>
      <trkpt lat="43.46881" lon="6.32475">
        <ele>135.8</ele>
        <time>2023-03-03T14:49:30Z</time>
      </trkpt>
      <trkpt lat="43.4688" lon="6.32475">
        <ele>135.7</ele>
        <time>2023-03-03T14:49:31Z</time>
      </trkpt>
      <trkpt lat="43.46879" lon="6.32474">
        <ele>135.7</ele>
        <time>2023-03-03T14:49:32Z</time>
      </trkpt>
      <trkpt lat="43.46879" lon="6.32474">
        <ele>135.7</ele>
        <time>2023-03-03T14:49:33Z</time>
      </trkpt>
      <trkpt lat="43.46879" lon="6.32473">
        <ele>135.8</ele>
        <time>2023-03-03T14:49:34Z</time>
      </trkpt>
      <trkpt lat="43.46879" lon="6.32472">
        <ele>135.7</ele>
        <time>2023-03-03T14:49:35Z</time>
      </trkpt>
      <trkpt lat="43.46879" lon="6.3247">
        <ele>135.7</ele>
        <time>2023-03-03T14:49:36Z</time>
      </trkpt>
      <trkpt lat="43.46878" lon="6.32469">
        <ele>135.9</ele>
        <time>2023-03-03T14:49:37Z</time>
      </trkpt>
      <trkpt lat="43.46878" lon="6.32467">
        <ele>135.9</ele>
        <time>2023-03-03T14:49:38Z</time>
      </trkpt>
      <trkpt lat="43.46878" lon="6.32466">
        <ele>135.8</ele>
        <time>2023-03-03T14:49:39Z</time>
      </trkpt>
      <trkpt lat="43.46877" lon="6.32465">
        <ele>135.9</ele>
        <time>2023-03-03T14:49:40Z</time>
      </trkpt>
      <trkpt lat="43.46876" lon="6.32464">
        <ele>135.9</ele>
        <time>2023-03-03T14:49:41Z</time>
      </trkpt>
      <trkpt lat="43.46875" lon="6.32463">
        <ele>135.8</ele>
        <time>2023-03-03T14:49:42Z</time>
      </trkpt>
      <trkpt lat="43.46875" lon="6.32462">
        <ele>135.8</ele>
        <time>2023-03-03T14:49:43Z</time>
      </trkpt>
      <trkpt lat="43.46875" lon="6.32461">
        <ele>135.7</ele>
        <time>2023-03-03T14:49:44Z</time>
      </trkpt>
      <trkpt lat="43.46875" lon="6.32461">
        <ele>135.7</ele>
        <time>2023-03-03T14:49:45Z</time>
      </trkpt>
      <trkpt lat="43.46875" lon="6.3246">
        <ele>135.7</ele>
        <time>2023-03-03T14:49:46Z</time>
      </trkpt>
      <trkpt lat="43.46875" lon="6.3246">
        <ele>135.6</ele>
        <time>2023-03-03T14:49:47Z</time>
      </trkpt>
      <trkpt lat="43.46875" lon="6.3246">
        <ele>135.6</ele>
        <time>2023-03-03T14:49:48Z</time>
      </trkpt>
      <trkpt lat="43.46875" lon="6.3246">
        <ele>135.6</ele>
        <time>2023-03-03T14:49:49Z</time>
      </trkpt>
      <trkpt lat="43.46874" lon="6.32459">
        <ele>135.6</ele>
        <time>2023-03-03T14:49:50Z</time>
      </trkpt>
      <trkpt lat="43.46874" lon="6.32459">
        <ele>135.5</ele>
        <time>2023-03-03T14:49:51Z</time>
      </trkpt>
      <trkpt lat="43.46874" lon="6.32458">
        <ele>135.5</ele>
        <time>2023-03-03T14:49:52Z</time>
      </trkpt>
      <trkpt lat="43.46875" lon="6.32458">
        <ele>135.5</ele>
        <time>2023-03-03T14:49:53Z</time>
      </trkpt>
      <trkpt lat="43.46875" lon="6.32458">
        <ele>135.5</ele>
        <time>2023-03-03T14:49:54Z</time>
      </trkpt>
      <trkpt lat="43.46875" lon="6.32458">
        <ele>135.6</ele>
        <time>2023-03-03T14:49:55Z</time>
      </trkpt>
      <trkpt lat="43.46875" lon="6.32457">
        <ele>135.6</ele>
        <time>2023-03-03T14:49:56Z</time>
      </trkpt>
      <trkpt lat="43.46875" lon="6.32457">
        <ele>135.6</ele>
        <time>2023-03-03T14:49:57Z</time>
      </trkpt>
      <trkpt lat="43.46875" lon="6.32457">
        <ele>135.6</ele>
        <time>2023-03-03T14:49:58Z</time>
      </trkpt>
      <trkpt lat="43.46875" lon="6.32457">
        <ele>135.6</ele>
        <time>2023-03-03T14:49:59Z</time>
      </trkpt>
      <trkpt lat="43.46875" lon="6.32457">
        <ele>135.6</ele>
        <time>2023-03-03T14:50:00Z</time>
      </trkpt>
      <trkpt lat="43.46876" lon="6.32456">
        <ele>135.6</ele>
        <time>2023-03-03T14:50:01Z</time>
      </trkpt>
      <trkpt lat="43.46876" lon="6.32455">
        <ele>135.7</ele>
        <time>2023-03-03T14:50:02Z</time>
      </trkpt>
      <trkpt lat="43.46875" lon="6.32454">
        <ele>135.7</ele>
        <time>2023-03-03T14:50:03Z</time>
      </trkpt>
      <trkpt lat="43.46874" lon="6.32454">
        <ele>135.7</ele>
        <time>2023-03-03T14:50:04Z</time>
      </trkpt>
      <trkpt lat="43.46875" lon="6.32453">
        <ele>135.7</ele>
        <time>2023-03-03T14:50:05Z</time>
      </trkpt>
      <trkpt lat="43.46874" lon="6.32453">
        <ele>135.6</ele>
        <time>2023-03-03T14:50:06Z</time>
      </trkpt>
      <trkpt lat="43.46874" lon="6.32452">
        <ele>135.6</ele>
        <time>2023-03-03T14:50:07Z</time>
      </trkpt>
      <trkpt lat="43.46873" lon="6.32451">
        <ele>135.5</ele>
        <time>2023-03-03T14:50:08Z</time>
      </trkpt>
      <trkpt lat="43.46872" lon="6.32451">
        <ele>135.4</ele>
        <time>2023-03-03T14:50:09Z</time>
      </trkpt>
      <trkpt lat="43.46872" lon="6.32451">
        <ele>135.4</ele>
        <time>2023-03-03T14:50:10Z</time>
      </trkpt>
      <trkpt lat="43.46871" lon="6.32451">
        <ele>135.3</ele>
        <time>2023-03-03T14:50:11Z</time>
      </trkpt>
      <trkpt lat="43.4687" lon="6.32451">
        <ele>135.3</ele>
        <time>2023-03-03T14:50:12Z</time>
      </trkpt>
      <trkpt lat="43.4687" lon="6.3245">
        <ele>135.3</ele>
        <time>2023-03-03T14:50:13Z</time>
      </trkpt>
      <trkpt lat="43.46869" lon="6.3245">
        <ele>135.3</ele>
        <time>2023-03-03T14:50:14Z</time>
      </trkpt>
      <trkpt lat="43.46868" lon="6.32451">
        <ele>135.3</ele>
        <time>2023-03-03T14:50:15Z</time>
      </trkpt>
      <trkpt lat="43.46868" lon="6.32451">
        <ele>135.3</ele>
        <time>2023-03-03T14:50:16Z</time>
      </trkpt>
      <trkpt lat="43.46867" lon="6.32451">
        <ele>135.3</ele>
        <time>2023-03-03T14:50:17Z</time>
      </trkpt>
      <trkpt lat="43.46867" lon="6.32451">
        <ele>135.3</ele>
        <time>2023-03-03T14:50:18Z</time>
      </trkpt>
      <trkpt lat="43.46867" lon="6.32451">
        <ele>135.3</ele>
        <time>2023-03-03T14:50:19Z</time>
      </trkpt>
      <trkpt lat="43.46867" lon="6.32451">
        <ele>135.3</ele>
        <time>2023-03-03T14:50:20Z</time>
      </trkpt>
      <trkpt lat="43.46867" lon="6.32452">
        <ele>135.3</ele>
        <time>2023-03-03T14:50:21Z</time>
      </trkpt>
      <trkpt lat="43.46867" lon="6.32452">
        <ele>135.2</ele>
        <time>2023-03-03T14:50:22Z</time>
      </trkpt>
      <trkpt lat="43.46867" lon="6.32452">
        <ele>135.3</ele>
        <time>2023-03-03T14:50:23Z</time>
      </trkpt>
      <trkpt lat="43.46867" lon="6.32452">
        <ele>135.2</ele>
        <time>2023-03-03T14:50:24Z</time>
      </trkpt>
      <trkpt lat="43.46868" lon="6.32451">
        <ele>135.2</ele>
        <time>2023-03-03T14:50:25Z</time>
      </trkpt>
      <trkpt lat="43.46868" lon="6.32451">
        <ele>135.2</ele>
        <time>2023-03-03T14:50:26Z</time>
      </trkpt>
      <trkpt lat="43.46868" lon="6.32451">
        <ele>135.2</ele>
        <time>2023-03-03T14:50:27Z</time>
      </trkpt>
      <trkpt lat="43.46868" lon="6.32451">
        <ele>135.2</ele>
        <time>2023-03-03T14:50:28Z</time>
      </trkpt>
      <trkpt lat="43.46868" lon="6.32451">
        <ele>135.2</ele>
        <time>2023-03-03T14:50:29Z</time>
      </trkpt>
      <trkpt lat="43.46868" lon="6.32451">
        <ele>135.3</ele>
        <time>2023-03-03T14:50:30Z</time>
      </trkpt>
      <trkpt lat="43.46869" lon="6.32451">
        <ele>135.3</ele>
        <time>2023-03-03T14:50:31Z</time>
      </trkpt>
      <trkpt lat="43.46869" lon="6.32451">
        <ele>135.4</ele>
        <time>2023-03-03T14:50:32Z</time>
      </trkpt>
      <trkpt lat="43.46869" lon="6.32451">
        <ele>135.4</ele>
        <time>2023-03-03T14:50:33Z</time>
      </trkpt>
      <trkpt lat="43.46869" lon="6.3245">
        <ele>135.5</ele>
        <time>2023-03-03T14:50:34Z</time>
      </trkpt>
      <trkpt lat="43.4687" lon="6.32449">
        <ele>135.4</ele>
        <time>2023-03-03T14:50:35Z</time>
      </trkpt>
      <trkpt lat="43.4687" lon="6.32449">
        <ele>135.4</ele>
        <time>2023-03-03T14:50:36Z</time>
      </trkpt>
      <trkpt lat="43.4687" lon="6.32448">
        <ele>135.4</ele>
        <time>2023-03-03T14:50:37Z</time>
      </trkpt>
      <trkpt lat="43.4687" lon="6.32447">
        <ele>135.5</ele>
        <time>2023-03-03T14:50:38Z</time>
      </trkpt>
      <trkpt lat="43.46871" lon="6.32447">
        <ele>135.5</ele>
        <time>2023-03-03T14:50:39Z</time>
      </trkpt>
      <trkpt lat="43.46871" lon="6.32447">
        <ele>135.5</ele>
        <time>2023-03-03T14:50:40Z</time>
      </trkpt>
      <trkpt lat="43.46871" lon="6.32447">
        <ele>135.4</ele>
        <time>2023-03-03T14:50:41Z</time>
      </trkpt>
      <trkpt lat="43.46872" lon="6.32448">
        <ele>135.4</ele>
        <time>2023-03-03T14:50:42Z</time>
      </trkpt>
      <trkpt lat="43.46872" lon="6.32449">
        <ele>135.3</ele>
        <time>2023-03-03T14:50:43Z</time>
      </trkpt>
      <trkpt lat="43.46873" lon="6.3245">
        <ele>135.3</ele>
        <time>2023-03-03T14:50:44Z</time>
      </trkpt>
      <trkpt lat="43.46873" lon="6.3245">
        <ele>135.3</ele>
        <time>2023-03-03T14:50:45Z</time>
      </trkpt>
      <trkpt lat="43.46873" lon="6.32451">
        <ele>135.3</ele>
        <time>2023-03-03T14:50:46Z</time>
      </trkpt>
      <trkpt lat="43.46874" lon="6.32451">
        <ele>135.3</ele>
        <time>2023-03-03T14:50:47Z</time>
      </trkpt>
      <trkpt lat="43.46874" lon="6.32452">
        <ele>135.3</ele>
        <time>2023-03-03T14:50:48Z</time>
      </trkpt>
      <trkpt lat="43.46874" lon="6.32452">
        <ele>135.3</ele>
        <time>2023-03-03T14:50:49Z</time>
      </trkpt>
      <trkpt lat="43.46873" lon="6.32452">
        <ele>135.3</ele>
        <time>2023-03-03T14:50:50Z</time>
      </trkpt>
      <trkpt lat="43.46873" lon="6.32453">
        <ele>135.3</ele>
        <time>2023-03-03T14:50:51Z</time>
      </trkpt>
      <trkpt lat="43.46873" lon="6.32454">
        <ele>135.4</ele>
        <time>2023-03-03T14:50:52Z</time>
      </trkpt>
      <trkpt lat="43.46873" lon="6.32454">
        <ele>135.4</ele>
        <time>2023-03-03T14:50:53Z</time>
      </trkpt>
      <trkpt lat="43.46873" lon="6.32454">
        <ele>135.5</ele>
        <time>2023-03-03T14:50:54Z</time>
      </trkpt>
      <trkpt lat="43.46873" lon="6.32454">
        <ele>135.6</ele>
        <time>2023-03-03T14:50:55Z</time>
      </trkpt>
      <trkpt lat="43.46872" lon="6.32454">
        <ele>135.6</ele>
        <time>2023-03-03T14:50:56Z</time>
      </trkpt>
      <trkpt lat="43.46872" lon="6.32454">
        <ele>135.8</ele>
        <time>2023-03-03T14:50:57Z</time>
      </trkpt>
      <trkpt lat="43.46873" lon="6.32454">
        <ele>135.8</ele>
        <time>2023-03-03T14:50:58Z</time>
      </trkpt>
      <trkpt lat="43.46873" lon="6.32454">
        <ele>135.8</ele>
        <time>2023-03-03T14:50:59Z</time>
      </trkpt>
      <trkpt lat="43.46873" lon="6.32454">
        <ele>135.8</ele>
        <time>2023-03-03T14:51:00Z</time>
      </trkpt>
      <trkpt lat="43.46873" lon="6.32454">
        <ele>135.8</ele>
        <time>2023-03-03T14:51:01Z</time>
      </trkpt>
      <trkpt lat="43.46872" lon="6.32454">
        <ele>135.9</ele>
        <time>2023-03-03T14:51:02Z</time>
      </trkpt>
      <trkpt lat="43.46872" lon="6.32453">
        <ele>136</ele>
        <time>2023-03-03T14:51:03Z</time>
      </trkpt>
      <trkpt lat="43.46872" lon="6.32453">
        <ele>136.1</ele>
        <time>2023-03-03T14:51:04Z</time>
      </trkpt>
      <trkpt lat="43.46872" lon="6.32453">
        <ele>136.2</ele>
        <time>2023-03-03T14:51:05Z</time>
      </trkpt>
      <trkpt lat="43.46872" lon="6.32454">
        <ele>136.2</ele>
        <time>2023-03-03T14:51:06Z</time>
      </trkpt>
      <trkpt lat="43.46872" lon="6.32454">
        <ele>136.2</ele>
        <time>2023-03-03T14:51:07Z</time>
      </trkpt>
      <trkpt lat="43.46872" lon="6.32453">
        <ele>136.3</ele>
        <time>2023-03-03T14:51:08Z</time>
      </trkpt>
      <trkpt lat="43.46872" lon="6.32453">
        <ele>136.4</ele>
        <time>2023-03-03T14:51:09Z</time>
      </trkpt>
      <trkpt lat="43.46872" lon="6.32453">
        <ele>136.5</ele>
        <time>2023-03-03T14:51:10Z</time>
      </trkpt>
      <trkpt lat="43.46872" lon="6.32453">
        <ele>136.6</ele>
        <time>2023-03-03T14:51:11Z</time>
      </trkpt>
      <trkpt lat="43.46872" lon="6.32453">
        <ele>136.6</ele>
        <time>2023-03-03T14:51:12Z</time>
      </trkpt>
      <trkpt lat="43.46872" lon="6.32453">
        <ele>136.6</ele>
        <time>2023-03-03T14:51:13Z</time>
      </trkpt>
      <trkpt lat="43.46872" lon="6.32453">
        <ele>136.6</ele>
        <time>2023-03-03T14:51:14Z</time>
      </trkpt>
      <trkpt lat="43.46872" lon="6.32453">
        <ele>136.6</ele>
        <time>2023-03-03T14:51:15Z</time>
      </trkpt>
      <trkpt lat="43.46872" lon="6.32453">
        <ele>136.6</ele>
        <time>2023-03-03T14:51:16Z</time>
      </trkpt>
      <trkpt lat="43.46872" lon="6.32453">
        <ele>136.5</ele>
        <time>2023-03-03T14:51:17Z</time>
      </trkpt>
      <trkpt lat="43.46872" lon="6.32453">
        <ele>136.5</ele>
        <time>2023-03-03T14:51:18Z</time>
      </trkpt>
      <trkpt lat="43.46872" lon="6.32453">
        <ele>136.6</ele>
        <time>2023-03-03T14:51:19Z</time>
      </trkpt>
      <trkpt lat="43.46872" lon="6.32453">
        <ele>136.6</ele>
        <time>2023-03-03T14:51:20Z</time>
      </trkpt>
      <trkpt lat="43.46872" lon="6.32453">
        <ele>136.6</ele>
        <time>2023-03-03T14:51:21Z</time>
      </trkpt>
      <trkpt lat="43.46872" lon="6.32453">
        <ele>136.6</ele>
        <time>2023-03-03T14:51:22Z</time>
      </trkpt>
      <trkpt lat="43.46872" lon="6.32453">
        <ele>136.6</ele>
        <time>2023-03-03T14:51:23Z</time>
      </trkpt>
      <trkpt lat="43.46872" lon="6.32452">
        <ele>136.5</ele>
        <time>2023-03-03T14:51:24Z</time>
      </trkpt>
      <trkpt lat="43.46872" lon="6.32452">
        <ele>136.5</ele>
        <time>2023-03-03T14:51:25Z</time>
      </trkpt>
      <trkpt lat="43.46872" lon="6.32452">
        <ele>136.5</ele>
        <time>2023-03-03T14:51:26Z</time>
      </trkpt>
      <trkpt lat="43.46872" lon="6.32452">
        <ele>136.5</ele>
        <time>2023-03-03T14:51:27Z</time>
      </trkpt>
      <trkpt lat="43.46872" lon="6.32452">
        <ele>136.5</ele>
        <time>2023-03-03T14:51:28Z</time>
      </trkpt>
      <trkpt lat="43.46872" lon="6.32452">
        <ele>136.5</ele>
        <time>2023-03-03T14:51:29Z</time>
      </trkpt>
      <trkpt lat="43.46872" lon="6.32452">
        <ele>136.5</ele>
        <time>2023-03-03T14:51:30Z</time>
      </trkpt>
      <trkpt lat="43.46872" lon="6.32452">
        <ele>136.5</ele>
        <time>2023-03-03T14:51:31Z</time>
      </trkpt>
      <trkpt lat="43.46872" lon="6.32452">
        <ele>136.5</ele>
        <time>2023-03-03T14:51:32Z</time>
      </trkpt>
      <trkpt lat="43.46872" lon="6.32452">
        <ele>136.5</ele>
        <time>2023-03-03T14:51:33Z</time>
      </trkpt>
      <trkpt lat="43.46872" lon="6.32452">
        <ele>136.5</ele>
        <time>2023-03-03T14:51:34Z</time>
      </trkpt>
      <trkpt lat="43.46873" lon="6.32453">
        <ele>136.5</ele>
        <time>2023-03-03T14:51:35Z</time>
      </trkpt>
      <trkpt lat="43.46873" lon="6.32453">
        <ele>136.6</ele>
        <time>2023-03-03T14:51:36Z</time>
      </trkpt>
      <trkpt lat="43.46873" lon="6.32453">
        <ele>136.6</ele>
        <time>2023-03-03T14:51:37Z</time>
      </trkpt>
      <trkpt lat="43.46873" lon="6.32453">
        <ele>136.6</ele>
        <time>2023-03-03T14:51:38Z</time>
      </trkpt>
      <trkpt lat="43.46873" lon="6.32453">
        <ele>136.6</ele>
        <time>2023-03-03T14:51:39Z</time>
      </trkpt>
      <trkpt lat="43.46873" lon="6.32453">
        <ele>136.6</ele>
        <time>2023-03-03T14:51:40Z</time>
      </trkpt>
      <trkpt lat="43.46873" lon="6.32453">
        <ele>136.6</ele>
        <time>2023-03-03T14:51:41Z</time>
      </trkpt>
      <trkpt lat="43.46873" lon="6.32453">
        <ele>136.7</ele>
        <time>2023-03-03T14:51:42Z</time>
      </trkpt>
      <trkpt lat="43.46873" lon="6.32453">
        <ele>136.7</ele>
        <time>2023-03-03T14:51:43Z</time>
      </trkpt>
      <trkpt lat="43.46873" lon="6.32453">
        <ele>136.7</ele>
        <time>2023-03-03T14:51:44Z</time>
      </trkpt>
      <trkpt lat="43.46873" lon="6.32453">
        <ele>136.7</ele>
        <time>2023-03-03T14:51:45Z</time>
      </trkpt>
      <trkpt lat="43.46873" lon="6.32453">
        <ele>136.7</ele>
        <time>2023-03-03T14:51:46Z</time>
      </trkpt>
      <trkpt lat="43.46874" lon="6.32454">
        <ele>136.7</ele>
        <time>2023-03-03T14:51:47Z</time>
      </trkpt>
      <trkpt lat="43.46874" lon="6.32454">
        <ele>136.7</ele>
        <time>2023-03-03T14:51:48Z</time>
      </trkpt>
      <trkpt lat="43.46874" lon="6.32454">
        <ele>136.6</ele>
        <time>2023-03-03T14:51:49Z</time>
      </trkpt>
      <trkpt lat="43.46874" lon="6.32454">
        <ele>136.6</ele>
        <time>2023-03-03T14:51:50Z</time>
      </trkpt>
      <trkpt lat="43.46874" lon="6.32454">
        <ele>136.6</ele>
        <time>2023-03-03T14:51:51Z</time>
      </trkpt>
      <trkpt lat="43.46874" lon="6.32454">
        <ele>136.5</ele>
        <time>2023-03-03T14:51:52Z</time>
      </trkpt>
      <trkpt lat="43.46874" lon="6.32455">
        <ele>136.5</ele>
        <time>2023-03-03T14:51:53Z</time>
      </trkpt>
      <trkpt lat="43.46874" lon="6.32455">
        <ele>136.4</ele>
        <time>2023-03-03T14:51:54Z</time>
      </trkpt>
      <trkpt lat="43.46874" lon="6.32455">
        <ele>136.5</ele>
        <time>2023-03-03T14:51:55Z</time>
      </trkpt>
      <trkpt lat="43.46874" lon="6.32455">
        <ele>136.5</ele>
        <time>2023-03-03T14:51:56Z</time>
      </trkpt>
      <trkpt lat="43.46874" lon="6.32455">
        <ele>136.6</ele>
        <time>2023-03-03T14:51:57Z</time>
      </trkpt>
      <trkpt lat="43.46873" lon="6.32455">
        <ele>136.6</ele>
        <time>2023-03-03T14:51:58Z</time>
      </trkpt>
      <trkpt lat="43.46873" lon="6.32454">
        <ele>136.6</ele>
        <time>2023-03-03T14:51:59Z</time>
      </trkpt>
      <trkpt lat="43.46873" lon="6.32454">
        <ele>136.6</ele>
        <time>2023-03-03T14:52:00Z</time>
      </trkpt>
      <trkpt lat="43.46873" lon="6.32454">
        <ele>136.5</ele>
        <time>2023-03-03T14:52:01Z</time>
      </trkpt>
      <trkpt lat="43.46874" lon="6.32454">
        <ele>136.3</ele>
        <time>2023-03-03T14:52:02Z</time>
      </trkpt>
      <trkpt lat="43.46875" lon="6.32454">
        <ele>136.2</ele>
        <time>2023-03-03T14:52:03Z</time>
      </trkpt>
      <trkpt lat="43.46875" lon="6.32454">
        <ele>136.1</ele>
        <time>2023-03-03T14:52:04Z</time>
      </trkpt>
      <trkpt lat="43.46875" lon="6.32454">
        <ele>136</ele>
        <time>2023-03-03T14:52:05Z</time>
      </trkpt>
      <trkpt lat="43.46874" lon="6.32454">
        <ele>136</ele>
        <time>2023-03-03T14:52:06Z</time>
      </trkpt>
      <trkpt lat="43.46874" lon="6.32454">
        <ele>135.9</ele>
        <time>2023-03-03T14:52:07Z</time>
      </trkpt>
      <trkpt lat="43.46874" lon="6.32454">
        <ele>135.8</ele>
        <time>2023-03-03T14:52:08Z</time>
      </trkpt>
      <trkpt lat="43.46874" lon="6.32454">
        <ele>135.8</ele>
        <time>2023-03-03T14:52:09Z</time>
      </trkpt>
      <trkpt lat="43.46874" lon="6.32455">
        <ele>135.7</ele>
        <time>2023-03-03T14:52:10Z</time>
      </trkpt>
      <trkpt lat="43.46874" lon="6.32455">
        <ele>135.7</ele>
        <time>2023-03-03T14:52:11Z</time>
      </trkpt>
      <trkpt lat="43.46874" lon="6.32454">
        <ele>135.7</ele>
        <time>2023-03-03T14:52:12Z</time>
      </trkpt>
      <trkpt lat="43.46874" lon="6.32454">
        <ele>135.7</ele>
        <time>2023-03-03T14:52:13Z</time>
      </trkpt>
      <trkpt lat="43.46874" lon="6.32455">
        <ele>135.6</ele>
        <time>2023-03-03T14:52:14Z</time>
      </trkpt>
      <trkpt lat="43.46875" lon="6.32456">
        <ele>135.6</ele>
        <time>2023-03-03T14:52:15Z</time>
      </trkpt>
      <trkpt lat="43.46875" lon="6.32457">
        <ele>135.6</ele>
        <time>2023-03-03T14:52:16Z</time>
      </trkpt>
      <trkpt lat="43.46876" lon="6.32457">
        <ele>135.6</ele>
        <time>2023-03-03T14:52:17Z</time>
      </trkpt>
      <trkpt lat="43.46876" lon="6.32457">
        <ele>135.6</ele>
        <time>2023-03-03T14:52:18Z</time>
      </trkpt>
      <trkpt lat="43.46876" lon="6.32457">
        <ele>135.6</ele>
        <time>2023-03-03T14:52:19Z</time>
      </trkpt>
      <trkpt lat="43.46876" lon="6.32457">
        <ele>135.6</ele>
        <time>2023-03-03T14:52:20Z</time>
      </trkpt>
      <trkpt lat="43.46876" lon="6.32457">
        <ele>135.6</ele>
        <time>2023-03-03T14:52:21Z</time>
      </trkpt>
      <trkpt lat="43.46876" lon="6.32458">
        <ele>135.6</ele>
        <time>2023-03-03T14:52:22Z</time>
      </trkpt>
      <trkpt lat="43.46876" lon="6.32458">
        <ele>135.5</ele>
        <time>2023-03-03T14:52:23Z</time>
      </trkpt>
      <trkpt lat="43.46876" lon="6.32458">
        <ele>135.5</ele>
        <time>2023-03-03T14:52:24Z</time>
      </trkpt>
      <trkpt lat="43.46876" lon="6.32458">
        <ele>135.4</ele>
        <time>2023-03-03T14:52:25Z</time>
      </trkpt>
      <trkpt lat="43.46875" lon="6.32458">
        <ele>135.5</ele>
        <time>2023-03-03T14:52:26Z</time>
      </trkpt>
      <trkpt lat="43.46875" lon="6.32458">
        <ele>135.5</ele>
        <time>2023-03-03T14:52:27Z</time>
      </trkpt>
      <trkpt lat="43.46875" lon="6.32458">
        <ele>135.4</ele>
        <time>2023-03-03T14:52:28Z</time>
      </trkpt>
      <trkpt lat="43.46876" lon="6.32458">
        <ele>135.4</ele>
        <time>2023-03-03T14:52:29Z</time>
      </trkpt>
      <trkpt lat="43.46875" lon="6.32457">
        <ele>135.4</ele>
        <time>2023-03-03T14:52:30Z</time>
      </trkpt>
      <trkpt lat="43.46875" lon="6.32457">
        <ele>135.4</ele>
        <time>2023-03-03T14:52:31Z</time>
      </trkpt>
      <trkpt lat="43.46875" lon="6.32457">
        <ele>135.4</ele>
        <time>2023-03-03T14:52:32Z</time>
      </trkpt>
      <trkpt lat="43.46875" lon="6.32457">
        <ele>135.4</ele>
        <time>2023-03-03T14:52:33Z</time>
      </trkpt>
      <trkpt lat="43.46875" lon="6.32457">
        <ele>135.5</ele>
        <time>2023-03-03T14:52:34Z</time>
      </trkpt>
      <trkpt lat="43.46876" lon="6.32457">
        <ele>135.5</ele>
        <time>2023-03-03T14:52:35Z</time>
      </trkpt>
      <trkpt lat="43.46876" lon="6.32457">
        <ele>135.6</ele>
        <time>2023-03-03T14:52:36Z</time>
      </trkpt>
      <trkpt lat="43.46875" lon="6.32457">
        <ele>135.6</ele>
        <time>2023-03-03T14:52:37Z</time>
      </trkpt>
      <trkpt lat="43.46876" lon="6.32457">
        <ele>135.6</ele>
        <time>2023-03-03T14:52:38Z</time>
      </trkpt>
      <trkpt lat="43.46875" lon="6.32457">
        <ele>135.6</ele>
        <time>2023-03-03T14:52:39Z</time>
      </trkpt>
      <trkpt lat="43.46875" lon="6.32457">
        <ele>135.6</ele>
        <time>2023-03-03T14:52:40Z</time>
      </trkpt>
      <trkpt lat="43.46875" lon="6.32457">
        <ele>135.6</ele>
        <time>2023-03-03T14:52:41Z</time>
      </trkpt>
      <trkpt lat="43.46875" lon="6.32457">
        <ele>135.6</ele>
        <time>2023-03-03T14:52:42Z</time>
      </trkpt>
      <trkpt lat="43.46875" lon="6.32457">
        <ele>135.5</ele>
        <time>2023-03-03T14:52:43Z</time>
      </trkpt>
      <trkpt lat="43.46875" lon="6.32457">
        <ele>135.5</ele>
        <time>2023-03-03T14:52:44Z</time>
      </trkpt>
      <trkpt lat="43.46875" lon="6.32457">
        <ele>135.5</ele>
        <time>2023-03-03T14:52:45Z</time>
      </trkpt>
      <trkpt lat="43.46875" lon="6.32457">
        <ele>135.5</ele>
        <time>2023-03-03T14:52:46Z</time>
      </trkpt>
      <trkpt lat="43.46875" lon="6.32457">
        <ele>135.5</ele>
        <time>2023-03-03T14:52:47Z</time>
      </trkpt>
      <trkpt lat="43.46874" lon="6.32458">
        <ele>135.5</ele>
        <time>2023-03-03T14:52:48Z</time>
      </trkpt>
      <trkpt lat="43.46875" lon="6.32457">
        <ele>135.4</ele>
        <time>2023-03-03T14:52:49Z</time>
      </trkpt>
      <trkpt lat="43.46875" lon="6.32457">
        <ele>135.6</ele>
        <time>2023-03-03T14:52:50Z</time>
      </trkpt>
      <trkpt lat="43.46875" lon="6.32458">
        <ele>135.6</ele>
        <time>2023-03-03T14:52:51Z</time>
      </trkpt>
      <trkpt lat="43.46875" lon="6.32458">
        <ele>135.6</ele>
        <time>2023-03-03T14:52:52Z</time>
      </trkpt>
      <trkpt lat="43.46875" lon="6.32457">
        <ele>135.5</ele>
        <time>2023-03-03T14:52:53Z</time>
      </trkpt>
      <trkpt lat="43.46875" lon="6.32457">
        <ele>135.5</ele>
        <time>2023-03-03T14:52:54Z</time>
      </trkpt>
      <trkpt lat="43.46875" lon="6.32458">
        <ele>135.5</ele>
        <time>2023-03-03T14:52:55Z</time>
      </trkpt>
      <trkpt lat="43.46874" lon="6.32458">
        <ele>135.5</ele>
        <time>2023-03-03T14:52:56Z</time>
      </trkpt>
      <trkpt lat="43.46874" lon="6.32459">
        <ele>135.5</ele>
        <time>2023-03-03T14:52:57Z</time>
      </trkpt>
      <trkpt lat="43.46874" lon="6.32459">
        <ele>135.6</ele>
        <time>2023-03-03T14:52:58Z</time>
      </trkpt>
      <trkpt lat="43.46873" lon="6.3246">
        <ele>135.7</ele>
        <time>2023-03-03T14:52:59Z</time>
      </trkpt>
      <trkpt lat="43.46873" lon="6.3246">
        <ele>135.8</ele>
        <time>2023-03-03T14:53:00Z</time>
      </trkpt>
      <trkpt lat="43.46873" lon="6.3246">
        <ele>135.8</ele>
        <time>2023-03-03T14:53:01Z</time>
      </trkpt>
      <trkpt lat="43.46873" lon="6.3246">
        <ele>135.9</ele>
        <time>2023-03-03T14:53:02Z</time>
      </trkpt>
      <trkpt lat="43.46873" lon="6.3246">
        <ele>136</ele>
        <time>2023-03-03T14:53:03Z</time>
      </trkpt>
      <trkpt lat="43.46873" lon="6.32459">
        <ele>136</ele>
        <time>2023-03-03T14:53:04Z</time>
      </trkpt>
      <trkpt lat="43.46873" lon="6.3246">
        <ele>136</ele>
        <time>2023-03-03T14:53:05Z</time>
      </trkpt>
      <trkpt lat="43.46873" lon="6.3246">
        <ele>136</ele>
        <time>2023-03-03T14:53:06Z</time>
      </trkpt>
      <trkpt lat="43.46873" lon="6.3246">
        <ele>136</ele>
        <time>2023-03-03T14:53:07Z</time>
      </trkpt>
      <trkpt lat="43.46873" lon="6.32459">
        <ele>136</ele>
        <time>2023-03-03T14:53:08Z</time>
      </trkpt>
      <trkpt lat="43.46873" lon="6.32459">
        <ele>136</ele>
        <time>2023-03-03T14:53:09Z</time>
      </trkpt>
      <trkpt lat="43.46873" lon="6.32459">
        <ele>136</ele>
        <time>2023-03-03T14:53:10Z</time>
      </trkpt>
      <trkpt lat="43.46873" lon="6.32459">
        <ele>136.1</ele>
        <time>2023-03-03T14:53:11Z</time>
      </trkpt>
      <trkpt lat="43.46873" lon="6.32459">
        <ele>136.1</ele>
        <time>2023-03-03T14:53:12Z</time>
      </trkpt>
      <trkpt lat="43.46873" lon="6.32459">
        <ele>136.1</ele>
        <time>2023-03-03T14:53:13Z</time>
      </trkpt>
      <trkpt lat="43.46873" lon="6.32459">
        <ele>136.1</ele>
        <time>2023-03-03T14:53:14Z</time>
      </trkpt>
      <trkpt lat="43.46873" lon="6.32459">
        <ele>136.1</ele>
        <time>2023-03-03T14:53:15Z</time>
      </trkpt>
      <trkpt lat="43.46873" lon="6.32459">
        <ele>136.1</ele>
        <time>2023-03-03T14:53:16Z</time>
      </trkpt>
      <trkpt lat="43.46873" lon="6.32459">
        <ele>136.1</ele>
        <time>2023-03-03T14:53:17Z</time>
      </trkpt>
      <trkpt lat="43.46873" lon="6.32459">
        <ele>136.1</ele>
        <time>2023-03-03T14:53:18Z</time>
      </trkpt>
      <trkpt lat="43.46873" lon="6.3246">
        <ele>136</ele>
        <time>2023-03-03T14:53:19Z</time>
      </trkpt>
      <trkpt lat="43.46873" lon="6.3246">
        <ele>135.8</ele>
        <time>2023-03-03T14:53:20Z</time>
      </trkpt>
      <trkpt lat="43.46873" lon="6.3246">
        <ele>135.7</ele>
        <time>2023-03-03T14:53:21Z</time>
      </trkpt>
      <trkpt lat="43.46873" lon="6.3246">
        <ele>135.7</ele>
        <time>2023-03-03T14:53:22Z</time>
      </trkpt>
      <trkpt lat="43.46873" lon="6.3246">
        <ele>135.7</ele>
        <time>2023-03-03T14:53:23Z</time>
      </trkpt>
      <trkpt lat="43.46873" lon="6.3246">
        <ele>135.7</ele>
        <time>2023-03-03T14:53:24Z</time>
      </trkpt>
      <trkpt lat="43.46873" lon="6.32459">
        <ele>135.8</ele>
        <time>2023-03-03T14:53:25Z</time>
      </trkpt>
      <trkpt lat="43.46872" lon="6.32459">
        <ele>135.7</ele>
        <time>2023-03-03T14:53:26Z</time>
      </trkpt>
      <trkpt lat="43.46872" lon="6.32459">
        <ele>135.7</ele>
        <time>2023-03-03T14:53:27Z</time>
      </trkpt>
      <trkpt lat="43.46872" lon="6.3246">
        <ele>135.7</ele>
        <time>2023-03-03T14:53:28Z</time>
      </trkpt>
      <trkpt lat="43.46873" lon="6.3246">
        <ele>135.7</ele>
        <time>2023-03-03T14:53:29Z</time>
      </trkpt>
      <trkpt lat="43.46873" lon="6.32461">
        <ele>135.7</ele>
        <time>2023-03-03T14:53:30Z</time>
      </trkpt>
      <trkpt lat="43.46873" lon="6.32461">
        <ele>135.7</ele>
        <time>2023-03-03T14:53:31Z</time>
      </trkpt>
      <trkpt lat="43.46874" lon="6.32461">
        <ele>135.6</ele>
        <time>2023-03-03T14:53:32Z</time>
      </trkpt>
      <trkpt lat="43.46874" lon="6.32462">
        <ele>135.6</ele>
        <time>2023-03-03T14:53:33Z</time>
      </trkpt>
      <trkpt lat="43.46874" lon="6.32463">
        <ele>135.7</ele>
        <time>2023-03-03T14:53:34Z</time>
      </trkpt>
      <trkpt lat="43.46875" lon="6.32463">
        <ele>135.7</ele>
        <time>2023-03-03T14:53:35Z</time>
      </trkpt>
      <trkpt lat="43.46875" lon="6.32464">
        <ele>135.7</ele>
        <time>2023-03-03T14:53:36Z</time>
      </trkpt>
      <trkpt lat="43.46875" lon="6.32465">
        <ele>135.7</ele>
        <time>2023-03-03T14:53:37Z</time>
      </trkpt>
      <trkpt lat="43.46876" lon="6.32465">
        <ele>135.7</ele>
        <time>2023-03-03T14:53:38Z</time>
      </trkpt>
      <trkpt lat="43.46876" lon="6.32466">
        <ele>135.8</ele>
        <time>2023-03-03T14:53:39Z</time>
      </trkpt>
      <trkpt lat="43.46876" lon="6.32467">
        <ele>135.6</ele>
        <time>2023-03-03T14:53:40Z</time>
      </trkpt>
      <trkpt lat="43.46876" lon="6.32467">
        <ele>135.5</ele>
        <time>2023-03-03T14:53:41Z</time>
      </trkpt>
      <trkpt lat="43.46876" lon="6.32468">
        <ele>135.5</ele>
        <time>2023-03-03T14:53:42Z</time>
      </trkpt>
      <trkpt lat="43.46877" lon="6.32469">
        <ele>135.5</ele>
        <time>2023-03-03T14:53:43Z</time>
      </trkpt>
      <trkpt lat="43.46877" lon="6.3247">
        <ele>135.6</ele>
        <time>2023-03-03T14:53:44Z</time>
      </trkpt>
      <trkpt lat="43.46877" lon="6.3247">
        <ele>135.6</ele>
        <time>2023-03-03T14:53:45Z</time>
      </trkpt>
      <trkpt lat="43.46878" lon="6.32471">
        <ele>135.6</ele>
        <time>2023-03-03T14:53:46Z</time>
      </trkpt>
      <trkpt lat="43.46878" lon="6.32472">
        <ele>135.7</ele>
        <time>2023-03-03T14:53:47Z</time>
      </trkpt>
      <trkpt lat="43.46878" lon="6.32473">
        <ele>135.7</ele>
        <time>2023-03-03T14:53:48Z</time>
      </trkpt>
      <trkpt lat="43.46878" lon="6.32474">
        <ele>135.7</ele>
        <time>2023-03-03T14:53:49Z</time>
      </trkpt>
      <trkpt lat="43.46878" lon="6.32476">
        <ele>135.7</ele>
        <time>2023-03-03T14:53:50Z</time>
      </trkpt>
      <trkpt lat="43.46879" lon="6.32477">
        <ele>135.7</ele>
        <time>2023-03-03T14:53:51Z</time>
      </trkpt>
      <trkpt lat="43.46879" lon="6.32477">
        <ele>135.8</ele>
        <time>2023-03-03T14:53:52Z</time>
      </trkpt>
      <trkpt lat="43.46879" lon="6.32478">
        <ele>135.7</ele>
        <time>2023-03-03T14:53:53Z</time>
      </trkpt>
      <trkpt lat="43.46879" lon="6.32478">
        <ele>135.7</ele>
        <time>2023-03-03T14:53:54Z</time>
      </trkpt>
      <trkpt lat="43.4688" lon="6.32478">
        <ele>135.7</ele>
        <time>2023-03-03T14:53:55Z</time>
      </trkpt>
      <trkpt lat="43.4688" lon="6.32479">
        <ele>135.7</ele>
        <time>2023-03-03T14:53:56Z</time>
      </trkpt>
      <trkpt lat="43.4688" lon="6.32479">
        <ele>135.7</ele>
        <time>2023-03-03T14:53:57Z</time>
      </trkpt>
      <trkpt lat="43.4688" lon="6.32479">
        <ele>135.7</ele>
        <time>2023-03-03T14:53:58Z</time>
      </trkpt>
      <trkpt lat="43.4688" lon="6.32479">
        <ele>135.8</ele>
        <time>2023-03-03T14:53:59Z</time>
      </trkpt>
      <trkpt lat="43.4688" lon="6.32479">
        <ele>135.8</ele>
        <time>2023-03-03T14:54:00Z</time>
      </trkpt>
      <trkpt lat="43.4688" lon="6.3248">
        <ele>135.8</ele>
        <time>2023-03-03T14:54:01Z</time>
      </trkpt>
      <trkpt lat="43.4688" lon="6.3248">
        <ele>135.9</ele>
        <time>2023-03-03T14:54:02Z</time>
      </trkpt>
      <trkpt lat="43.4688" lon="6.3248">
        <ele>135.8</ele>
        <time>2023-03-03T14:54:03Z</time>
      </trkpt>
      <trkpt lat="43.4688" lon="6.3248">
        <ele>135.9</ele>
        <time>2023-03-03T14:54:04Z</time>
      </trkpt>
      <trkpt lat="43.46881" lon="6.3248">
        <ele>135.9</ele>
        <time>2023-03-03T14:54:05Z</time>
      </trkpt>
      <trkpt lat="43.46881" lon="6.32481">
        <ele>136</ele>
        <time>2023-03-03T14:54:06Z</time>
      </trkpt>
      <trkpt lat="43.46881" lon="6.3248">
        <ele>136.1</ele>
        <time>2023-03-03T14:54:07Z</time>
      </trkpt>
      <trkpt lat="43.46881" lon="6.32481">
        <ele>136.2</ele>
        <time>2023-03-03T14:54:08Z</time>
      </trkpt>
      <trkpt lat="43.46881" lon="6.32481">
        <ele>136.3</ele>
        <time>2023-03-03T14:54:09Z</time>
      </trkpt>
      <trkpt lat="43.46881" lon="6.32481">
        <ele>136.3</ele>
        <time>2023-03-03T14:54:10Z</time>
      </trkpt>
      <trkpt lat="43.46881" lon="6.32481">
        <ele>136.2</ele>
        <time>2023-03-03T14:54:11Z</time>
      </trkpt>
      <trkpt lat="43.46881" lon="6.32481">
        <ele>136.2</ele>
        <time>2023-03-03T14:54:12Z</time>
      </trkpt>
      <trkpt lat="43.46882" lon="6.32481">
        <ele>136.2</ele>
        <time>2023-03-03T14:54:13Z</time>
      </trkpt>
      <trkpt lat="43.46882" lon="6.32481">
        <ele>136.1</ele>
        <time>2023-03-03T14:54:14Z</time>
      </trkpt>
      <trkpt lat="43.46882" lon="6.32481">
        <ele>136.1</ele>
        <time>2023-03-03T14:54:15Z</time>
      </trkpt>
      <trkpt lat="43.46882" lon="6.32481">
        <ele>136.1</ele>
        <time>2023-03-03T14:54:16Z</time>
      </trkpt>
      <trkpt lat="43.46882" lon="6.32481">
        <ele>136.1</ele>
        <time>2023-03-03T14:54:17Z</time>
      </trkpt>
      <trkpt lat="43.46882" lon="6.32481">
        <ele>136.1</ele>
        <time>2023-03-03T14:54:18Z</time>
      </trkpt>
      <trkpt lat="43.46882" lon="6.32482">
        <ele>136.1</ele>
        <time>2023-03-03T14:54:19Z</time>
      </trkpt>
      <trkpt lat="43.46882" lon="6.32482">
        <ele>136.1</ele>
        <time>2023-03-03T14:54:20Z</time>
      </trkpt>
      <trkpt lat="43.46882" lon="6.32482">
        <ele>136.1</ele>
        <time>2023-03-03T14:54:21Z</time>
      </trkpt>
      <trkpt lat="43.46882" lon="6.32482">
        <ele>136</ele>
        <time>2023-03-03T14:54:22Z</time>
      </trkpt>
      <trkpt lat="43.46882" lon="6.32482">
        <ele>136</ele>
        <time>2023-03-03T14:54:23Z</time>
      </trkpt>
      <trkpt lat="43.46882" lon="6.32482">
        <ele>135.9</ele>
        <time>2023-03-03T14:54:24Z</time>
      </trkpt>
      <trkpt lat="43.46883" lon="6.32482">
        <ele>135.9</ele>
        <time>2023-03-03T14:54:25Z</time>
      </trkpt>
      <trkpt lat="43.46883" lon="6.32482">
        <ele>135.9</ele>
        <time>2023-03-03T14:54:26Z</time>
      </trkpt>
      <trkpt lat="43.46884" lon="6.32482">
        <ele>135.8</ele>
        <time>2023-03-03T14:54:27Z</time>
      </trkpt>
      <trkpt lat="43.46884" lon="6.32483">
        <ele>135.8</ele>
        <time>2023-03-03T14:54:28Z</time>
      </trkpt>
      <trkpt lat="43.46884" lon="6.32483">
        <ele>135.8</ele>
        <time>2023-03-03T14:54:29Z</time>
      </trkpt>
      <trkpt lat="43.46884" lon="6.32483">
        <ele>135.7</ele>
        <time>2023-03-03T14:54:30Z</time>
      </trkpt>
      <trkpt lat="43.46884" lon="6.32483">
        <ele>135.7</ele>
        <time>2023-03-03T14:54:31Z</time>
      </trkpt>
      <trkpt lat="43.46884" lon="6.32483">
        <ele>135.8</ele>
        <time>2023-03-03T14:54:32Z</time>
      </trkpt>
      <trkpt lat="43.46884" lon="6.32484">
        <ele>135.8</ele>
        <time>2023-03-03T14:54:33Z</time>
      </trkpt>
      <trkpt lat="43.46884" lon="6.32484">
        <ele>135.8</ele>
        <time>2023-03-03T14:54:34Z</time>
      </trkpt>
      <trkpt lat="43.46884" lon="6.32484">
        <ele>135.7</ele>
        <time>2023-03-03T14:54:35Z</time>
      </trkpt>
      <trkpt lat="43.46884" lon="6.32484">
        <ele>135.8</ele>
        <time>2023-03-03T14:54:36Z</time>
      </trkpt>
      <trkpt lat="43.46884" lon="6.32484">
        <ele>135.8</ele>
        <time>2023-03-03T14:54:37Z</time>
      </trkpt>
      <trkpt lat="43.46884" lon="6.32484">
        <ele>135.8</ele>
        <time>2023-03-03T14:54:38Z</time>
      </trkpt>
      <trkpt lat="43.46884" lon="6.32484">
        <ele>135.8</ele>
        <time>2023-03-03T14:54:39Z</time>
      </trkpt>
      <trkpt lat="43.46884" lon="6.32484">
        <ele>135.8</ele>
        <time>2023-03-03T14:54:40Z</time>
      </trkpt>
      <trkpt lat="43.46884" lon="6.32484">
        <ele>135.8</ele>
        <time>2023-03-03T14:54:41Z</time>
      </trkpt>
      <trkpt lat="43.46884" lon="6.32485">
        <ele>135.8</ele>
        <time>2023-03-03T14:54:42Z</time>
      </trkpt>
      <trkpt lat="43.46884" lon="6.32485">
        <ele>135.8</ele>
        <time>2023-03-03T14:54:43Z</time>
      </trkpt>
      <trkpt lat="43.46884" lon="6.32485">
        <ele>135.9</ele>
        <time>2023-03-03T14:54:44Z</time>
      </trkpt>
      <trkpt lat="43.46884" lon="6.32485">
        <ele>135.9</ele>
        <time>2023-03-03T14:54:45Z</time>
      </trkpt>
      <trkpt lat="43.46884" lon="6.32485">
        <ele>136</ele>
        <time>2023-03-03T14:54:46Z</time>
      </trkpt>
      <trkpt lat="43.46884" lon="6.32485">
        <ele>136</ele>
        <time>2023-03-03T14:54:47Z</time>
      </trkpt>
      <trkpt lat="43.46884" lon="6.32485">
        <ele>135.9</ele>
        <time>2023-03-03T14:54:48Z</time>
      </trkpt>
      <trkpt lat="43.46884" lon="6.32485">
        <ele>135.9</ele>
        <time>2023-03-03T14:54:49Z</time>
      </trkpt>
      <trkpt lat="43.46884" lon="6.32485">
        <ele>135.9</ele>
        <time>2023-03-03T14:54:50Z</time>
      </trkpt>
      <trkpt lat="43.46884" lon="6.32486">
        <ele>135.9</ele>
        <time>2023-03-03T14:54:51Z</time>
      </trkpt>
      <trkpt lat="43.46884" lon="6.32485">
        <ele>135.9</ele>
        <time>2023-03-03T14:54:52Z</time>
      </trkpt>
      <trkpt lat="43.46884" lon="6.32485">
        <ele>135.9</ele>
        <time>2023-03-03T14:54:53Z</time>
      </trkpt>
      <trkpt lat="43.46884" lon="6.32485">
        <ele>135.9</ele>
        <time>2023-03-03T14:54:54Z</time>
      </trkpt>
      <trkpt lat="43.46884" lon="6.32485">
        <ele>135.8</ele>
        <time>2023-03-03T14:54:55Z</time>
      </trkpt>
      <trkpt lat="43.46884" lon="6.32485">
        <ele>135.8</ele>
        <time>2023-03-03T14:54:56Z</time>
      </trkpt>
      <trkpt lat="43.46884" lon="6.32485">
        <ele>135.8</ele>
        <time>2023-03-03T14:54:57Z</time>
      </trkpt>
      <trkpt lat="43.46884" lon="6.32485">
        <ele>135.8</ele>
        <time>2023-03-03T14:54:58Z</time>
      </trkpt>
      <trkpt lat="43.46884" lon="6.32485">
        <ele>135.8</ele>
        <time>2023-03-03T14:54:59Z</time>
      </trkpt>
      <trkpt lat="43.46884" lon="6.32485">
        <ele>135.7</ele>
        <time>2023-03-03T14:55:00Z</time>
      </trkpt>
      <trkpt lat="43.46884" lon="6.32485">
        <ele>135.7</ele>
        <time>2023-03-03T14:55:01Z</time>
      </trkpt>
      <trkpt lat="43.46884" lon="6.32485">
        <ele>135.8</ele>
        <time>2023-03-03T14:55:02Z</time>
      </trkpt>
      <trkpt lat="43.46884" lon="6.32484">
        <ele>135.9</ele>
        <time>2023-03-03T14:55:03Z</time>
      </trkpt>
      <trkpt lat="43.46883" lon="6.32484">
        <ele>135.9</ele>
        <time>2023-03-03T14:55:04Z</time>
      </trkpt>
      <trkpt lat="43.46883" lon="6.32484">
        <ele>135.9</ele>
        <time>2023-03-03T14:55:05Z</time>
      </trkpt>
      <trkpt lat="43.46883" lon="6.32484">
        <ele>135.9</ele>
        <time>2023-03-03T14:55:06Z</time>
      </trkpt>
      <trkpt lat="43.46883" lon="6.32484">
        <ele>135.9</ele>
        <time>2023-03-03T14:55:07Z</time>
      </trkpt>
      <trkpt lat="43.46883" lon="6.32483">
        <ele>135.9</ele>
        <time>2023-03-03T14:55:08Z</time>
      </trkpt>
      <trkpt lat="43.46883" lon="6.32483">
        <ele>135.8</ele>
        <time>2023-03-03T14:55:09Z</time>
      </trkpt>
      <trkpt lat="43.46883" lon="6.32483">
        <ele>135.9</ele>
        <time>2023-03-03T14:55:10Z</time>
      </trkpt>
      <trkpt lat="43.46883" lon="6.32483">
        <ele>135.9</ele>
        <time>2023-03-03T14:55:11Z</time>
      </trkpt>
      <trkpt lat="43.46883" lon="6.32483">
        <ele>135.8</ele>
        <time>2023-03-03T14:55:12Z</time>
      </trkpt>
      <trkpt lat="43.46883" lon="6.32483">
        <ele>135.8</ele>
        <time>2023-03-03T14:55:13Z</time>
      </trkpt>
      <trkpt lat="43.46884" lon="6.32483">
        <ele>135.8</ele>
        <time>2023-03-03T14:55:14Z</time>
      </trkpt>
      <trkpt lat="43.46884" lon="6.32482">
        <ele>135.7</ele>
        <time>2023-03-03T14:55:15Z</time>
      </trkpt>
      <trkpt lat="43.46885" lon="6.32482">
        <ele>135.7</ele>
        <time>2023-03-03T14:55:16Z</time>
      </trkpt>
      <trkpt lat="43.46885" lon="6.32482">
        <ele>135.8</ele>
        <time>2023-03-03T14:55:17Z</time>
      </trkpt>
      <trkpt lat="43.46886" lon="6.32482">
        <ele>135.9</ele>
        <time>2023-03-03T14:55:18Z</time>
      </trkpt>
      <trkpt lat="43.46886" lon="6.32482">
        <ele>135.8</ele>
        <time>2023-03-03T14:55:19Z</time>
      </trkpt>
      <trkpt lat="43.46887" lon="6.32481">
        <ele>135.8</ele>
        <time>2023-03-03T14:55:20Z</time>
      </trkpt>
      <trkpt lat="43.46887" lon="6.32481">
        <ele>135.8</ele>
        <time>2023-03-03T14:55:21Z</time>
      </trkpt>
      <trkpt lat="43.46888" lon="6.32481">
        <ele>135.8</ele>
        <time>2023-03-03T14:55:22Z</time>
      </trkpt>
      <trkpt lat="43.46888" lon="6.32481">
        <ele>135.8</ele>
        <time>2023-03-03T14:55:23Z</time>
      </trkpt>
      <trkpt lat="43.46889" lon="6.32481">
        <ele>135.8</ele>
        <time>2023-03-03T14:55:24Z</time>
      </trkpt>
      <trkpt lat="43.4689" lon="6.3248">
        <ele>135.7</ele>
        <time>2023-03-03T14:55:25Z</time>
      </trkpt>
      <trkpt lat="43.46891" lon="6.3248">
        <ele>135.7</ele>
        <time>2023-03-03T14:55:26Z</time>
      </trkpt>
      <trkpt lat="43.46892" lon="6.32479">
        <ele>135.7</ele>
        <time>2023-03-03T14:55:27Z</time>
      </trkpt>
      <trkpt lat="43.46893" lon="6.32479">
        <ele>135.6</ele>
        <time>2023-03-03T14:55:28Z</time>
      </trkpt>
      <trkpt lat="43.46893" lon="6.32478">
        <ele>135.6</ele>
        <time>2023-03-03T14:55:29Z</time>
      </trkpt>
      <trkpt lat="43.46894" lon="6.32478">
        <ele>135.6</ele>
        <time>2023-03-03T14:55:30Z</time>
      </trkpt>
      <trkpt lat="43.46895" lon="6.32477">
        <ele>135.5</ele>
        <time>2023-03-03T14:55:31Z</time>
      </trkpt>
      <trkpt lat="43.46895" lon="6.32477">
        <ele>135.5</ele>
        <time>2023-03-03T14:55:32Z</time>
      </trkpt>
      <trkpt lat="43.46896" lon="6.32476">
        <ele>135.5</ele>
        <time>2023-03-03T14:55:33Z</time>
      </trkpt>
      <trkpt lat="43.46897" lon="6.32476">
        <ele>135.5</ele>
        <time>2023-03-03T14:55:34Z</time>
      </trkpt>
      <trkpt lat="43.46897" lon="6.32476">
        <ele>135.6</ele>
        <time>2023-03-03T14:55:35Z</time>
      </trkpt>
      <trkpt lat="43.46898" lon="6.32475">
        <ele>135.6</ele>
        <time>2023-03-03T14:55:36Z</time>
      </trkpt>
      <trkpt lat="43.46898" lon="6.32475">
        <ele>135.7</ele>
        <time>2023-03-03T14:55:37Z</time>
      </trkpt>
      <trkpt lat="43.46899" lon="6.32473">
        <ele>135.7</ele>
        <time>2023-03-03T14:55:38Z</time>
      </trkpt>
      <trkpt lat="43.469" lon="6.32472">
        <ele>135.8</ele>
        <time>2023-03-03T14:55:39Z</time>
      </trkpt>
      <trkpt lat="43.46901" lon="6.32471">
        <ele>135.8</ele>
        <time>2023-03-03T14:55:40Z</time>
      </trkpt>
      <trkpt lat="43.46902" lon="6.32469">
        <ele>135.8</ele>
        <time>2023-03-03T14:55:41Z</time>
      </trkpt>
      <trkpt lat="43.46902" lon="6.32468">
        <ele>135.8</ele>
        <time>2023-03-03T14:55:42Z</time>
      </trkpt>
      <trkpt lat="43.46903" lon="6.32467">
        <ele>135.8</ele>
        <time>2023-03-03T14:55:43Z</time>
      </trkpt>
      <trkpt lat="43.46903" lon="6.32466">
        <ele>135.9</ele>
        <time>2023-03-03T14:55:44Z</time>
      </trkpt>
      <trkpt lat="43.46904" lon="6.32466">
        <ele>135.9</ele>
        <time>2023-03-03T14:55:45Z</time>
      </trkpt>
      <trkpt lat="43.46905" lon="6.32465">
        <ele>135.9</ele>
        <time>2023-03-03T14:55:46Z</time>
      </trkpt>
      <trkpt lat="43.46906" lon="6.32464">
        <ele>135.9</ele>
        <time>2023-03-03T14:55:47Z</time>
      </trkpt>
      <trkpt lat="43.46907" lon="6.32464">
        <ele>135.9</ele>
        <time>2023-03-03T14:55:48Z</time>
      </trkpt>
      <trkpt lat="43.46908" lon="6.32463">
        <ele>135.9</ele>
        <time>2023-03-03T14:55:49Z</time>
      </trkpt>
      <trkpt lat="43.46908" lon="6.32462">
        <ele>135.9</ele>
        <time>2023-03-03T14:55:50Z</time>
      </trkpt>
      <trkpt lat="43.46909" lon="6.32462">
        <ele>135.9</ele>
        <time>2023-03-03T14:55:51Z</time>
      </trkpt>
      <trkpt lat="43.4691" lon="6.3246">
        <ele>135.8</ele>
        <time>2023-03-03T14:55:52Z</time>
      </trkpt>
      <trkpt lat="43.46911" lon="6.32459">
        <ele>135.8</ele>
        <time>2023-03-03T14:55:53Z</time>
      </trkpt>
      <trkpt lat="43.46911" lon="6.32459">
        <ele>135.8</ele>
        <time>2023-03-03T14:55:54Z</time>
      </trkpt>
      <trkpt lat="43.46912" lon="6.32457">
        <ele>135.9</ele>
        <time>2023-03-03T14:55:55Z</time>
      </trkpt>
      <trkpt lat="43.46912" lon="6.32456">
        <ele>135.9</ele>
        <time>2023-03-03T14:55:56Z</time>
      </trkpt>
      <trkpt lat="43.46912" lon="6.32456">
        <ele>135.9</ele>
        <time>2023-03-03T14:55:57Z</time>
      </trkpt>
      <trkpt lat="43.46912" lon="6.32455">
        <ele>136</ele>
        <time>2023-03-03T14:55:58Z</time>
      </trkpt>
      <trkpt lat="43.46912" lon="6.32455">
        <ele>136</ele>
        <time>2023-03-03T14:55:59Z</time>
      </trkpt>
      <trkpt lat="43.46913" lon="6.32455">
        <ele>136</ele>
        <time>2023-03-03T14:56:00Z</time>
      </trkpt>
      <trkpt lat="43.46913" lon="6.32454">
        <ele>136</ele>
        <time>2023-03-03T14:56:01Z</time>
      </trkpt>
      <trkpt lat="43.46913" lon="6.32454">
        <ele>136.2</ele>
        <time>2023-03-03T14:56:02Z</time>
      </trkpt>
      <trkpt lat="43.46914" lon="6.32454">
        <ele>136.2</ele>
        <time>2023-03-03T14:56:03Z</time>
      </trkpt>
      <trkpt lat="43.46914" lon="6.32453">
        <ele>136.2</ele>
        <time>2023-03-03T14:56:04Z</time>
      </trkpt>
      <trkpt lat="43.46915" lon="6.32453">
        <ele>136.2</ele>
        <time>2023-03-03T14:56:05Z</time>
      </trkpt>
      <trkpt lat="43.46916" lon="6.32452">
        <ele>136.2</ele>
        <time>2023-03-03T14:56:06Z</time>
      </trkpt>
      <trkpt lat="43.46916" lon="6.32451">
        <ele>136.3</ele>
        <time>2023-03-03T14:56:07Z</time>
      </trkpt>
      <trkpt lat="43.46917" lon="6.3245">
        <ele>136.2</ele>
        <time>2023-03-03T14:56:08Z</time>
      </trkpt>
      <trkpt lat="43.46918" lon="6.3245">
        <ele>136.2</ele>
        <time>2023-03-03T14:56:09Z</time>
      </trkpt>
      <trkpt lat="43.46918" lon="6.32449">
        <ele>136.2</ele>
        <time>2023-03-03T14:56:10Z</time>
      </trkpt>
      <trkpt lat="43.46919" lon="6.32448">
        <ele>136.3</ele>
        <time>2023-03-03T14:56:11Z</time>
      </trkpt>
      <trkpt lat="43.4692" lon="6.32447">
        <ele>136.4</ele>
        <time>2023-03-03T14:56:12Z</time>
      </trkpt>
      <trkpt lat="43.4692" lon="6.32446">
        <ele>136.4</ele>
        <time>2023-03-03T14:56:13Z</time>
      </trkpt>
      <trkpt lat="43.46921" lon="6.32446">
        <ele>136.4</ele>
        <time>2023-03-03T14:56:14Z</time>
      </trkpt>
      <trkpt lat="43.46922" lon="6.32445">
        <ele>136.5</ele>
        <time>2023-03-03T14:56:15Z</time>
      </trkpt>
      <trkpt lat="43.46923" lon="6.32444">
        <ele>136.6</ele>
        <time>2023-03-03T14:56:16Z</time>
      </trkpt>
      <trkpt lat="43.46923" lon="6.32443">
        <ele>136.8</ele>
        <time>2023-03-03T14:56:17Z</time>
      </trkpt>
      <trkpt lat="43.46924" lon="6.32442">
        <ele>136.9</ele>
        <time>2023-03-03T14:56:18Z</time>
      </trkpt>
      <trkpt lat="43.46924" lon="6.32442">
        <ele>136.9</ele>
        <time>2023-03-03T14:56:19Z</time>
      </trkpt>
      <trkpt lat="43.46925" lon="6.32442">
        <ele>136.8</ele>
        <time>2023-03-03T14:56:20Z</time>
      </trkpt>
      <trkpt lat="43.46926" lon="6.32441">
        <ele>136.8</ele>
        <time>2023-03-03T14:56:21Z</time>
      </trkpt>
      <trkpt lat="43.46927" lon="6.32441">
        <ele>136.8</ele>
        <time>2023-03-03T14:56:22Z</time>
      </trkpt>
      <trkpt lat="43.46928" lon="6.32441">
        <ele>136.9</ele>
        <time>2023-03-03T14:56:23Z</time>
      </trkpt>
      <trkpt lat="43.46929" lon="6.32441">
        <ele>136.9</ele>
        <time>2023-03-03T14:56:24Z</time>
      </trkpt>
      <trkpt lat="43.46929" lon="6.32441">
        <ele>136.9</ele>
        <time>2023-03-03T14:56:25Z</time>
      </trkpt>
      <trkpt lat="43.4693" lon="6.3244">
        <ele>137</ele>
        <time>2023-03-03T14:56:26Z</time>
      </trkpt>
      <trkpt lat="43.46931" lon="6.3244">
        <ele>137</ele>
        <time>2023-03-03T14:56:27Z</time>
      </trkpt>
      <trkpt lat="43.46932" lon="6.3244">
        <ele>137</ele>
        <time>2023-03-03T14:56:28Z</time>
      </trkpt>
      <trkpt lat="43.46932" lon="6.3244">
        <ele>137.1</ele>
        <time>2023-03-03T14:56:29Z</time>
      </trkpt>
      <trkpt lat="43.46933" lon="6.3244">
        <ele>137.2</ele>
        <time>2023-03-03T14:56:30Z</time>
      </trkpt>
      <trkpt lat="43.46934" lon="6.3244">
        <ele>137.2</ele>
        <time>2023-03-03T14:56:31Z</time>
      </trkpt>
      <trkpt lat="43.46935" lon="6.32439">
        <ele>137.2</ele>
        <time>2023-03-03T14:56:32Z</time>
      </trkpt>
      <trkpt lat="43.46936" lon="6.32439">
        <ele>137.3</ele>
        <time>2023-03-03T14:56:33Z</time>
      </trkpt>
      <trkpt lat="43.46937" lon="6.32439">
        <ele>137.4</ele>
        <time>2023-03-03T14:56:34Z</time>
      </trkpt>
      <trkpt lat="43.46938" lon="6.3244">
        <ele>137.4</ele>
        <time>2023-03-03T14:56:35Z</time>
      </trkpt>
      <trkpt lat="43.46939" lon="6.3244">
        <ele>137.5</ele>
        <time>2023-03-03T14:56:36Z</time>
      </trkpt>
      <trkpt lat="43.46939" lon="6.3244">
        <ele>137.6</ele>
        <time>2023-03-03T14:56:37Z</time>
      </trkpt>
      <trkpt lat="43.4694" lon="6.32441">
        <ele>137.6</ele>
        <time>2023-03-03T14:56:38Z</time>
      </trkpt>
      <trkpt lat="43.46941" lon="6.32442">
        <ele>137.6</ele>
        <time>2023-03-03T14:56:39Z</time>
      </trkpt>
      <trkpt lat="43.46941" lon="6.32442">
        <ele>137.7</ele>
        <time>2023-03-03T14:56:40Z</time>
      </trkpt>
      <trkpt lat="43.46942" lon="6.32443">
        <ele>137.7</ele>
        <time>2023-03-03T14:56:41Z</time>
      </trkpt>
      <trkpt lat="43.46943" lon="6.32444">
        <ele>137.8</ele>
        <time>2023-03-03T14:56:42Z</time>
      </trkpt>
      <trkpt lat="43.46943" lon="6.32444">
        <ele>137.9</ele>
        <time>2023-03-03T14:56:43Z</time>
      </trkpt>
      <trkpt lat="43.46944" lon="6.32445">
        <ele>137.9</ele>
        <time>2023-03-03T14:56:44Z</time>
      </trkpt>
      <trkpt lat="43.46944" lon="6.32446">
        <ele>137.9</ele>
        <time>2023-03-03T14:56:45Z</time>
      </trkpt>
      <trkpt lat="43.46945" lon="6.32446">
        <ele>138.1</ele>
        <time>2023-03-03T14:56:46Z</time>
      </trkpt>
      <trkpt lat="43.46945" lon="6.32447">
        <ele>138.1</ele>
        <time>2023-03-03T14:56:47Z</time>
      </trkpt>
      <trkpt lat="43.46946" lon="6.32447">
        <ele>138.2</ele>
        <time>2023-03-03T14:56:48Z</time>
      </trkpt>
      <trkpt lat="43.46946" lon="6.32447">
        <ele>138.3</ele>
        <time>2023-03-03T14:56:49Z</time>
      </trkpt>
      <trkpt lat="43.46946" lon="6.32448">
        <ele>138.3</ele>
        <time>2023-03-03T14:56:50Z</time>
      </trkpt>
      <trkpt lat="43.46947" lon="6.32448">
        <ele>138.3</ele>
        <time>2023-03-03T14:56:51Z</time>
      </trkpt>
      <trkpt lat="43.46947" lon="6.32448">
        <ele>138.4</ele>
        <time>2023-03-03T14:56:52Z</time>
      </trkpt>
      <trkpt lat="43.46947" lon="6.32449">
        <ele>138.5</ele>
        <time>2023-03-03T14:56:53Z</time>
      </trkpt>
      <trkpt lat="43.46948" lon="6.32449">
        <ele>138.6</ele>
        <time>2023-03-03T14:56:54Z</time>
      </trkpt>
      <trkpt lat="43.46948" lon="6.3245">
        <ele>138.7</ele>
        <time>2023-03-03T14:56:55Z</time>
      </trkpt>
      <trkpt lat="43.46949" lon="6.3245">
        <ele>138.8</ele>
        <time>2023-03-03T14:56:56Z</time>
      </trkpt>
      <trkpt lat="43.4695" lon="6.32451">
        <ele>138.9</ele>
        <time>2023-03-03T14:56:57Z</time>
      </trkpt>
      <trkpt lat="43.4695" lon="6.32451">
        <ele>138.9</ele>
        <time>2023-03-03T14:56:58Z</time>
      </trkpt>
      <trkpt lat="43.46951" lon="6.32451">
        <ele>139.1</ele>
        <time>2023-03-03T14:56:59Z</time>
      </trkpt>
      <trkpt lat="43.46952" lon="6.32451">
        <ele>139.1</ele>
        <time>2023-03-03T14:57:00Z</time>
      </trkpt>
      <trkpt lat="43.46953" lon="6.32451">
        <ele>139.2</ele>
        <time>2023-03-03T14:57:01Z</time>
      </trkpt>
      <trkpt lat="43.46953" lon="6.32451">
        <ele>139.3</ele>
        <time>2023-03-03T14:57:02Z</time>
      </trkpt>
      <trkpt lat="43.46954" lon="6.32452">
        <ele>139.4</ele>
        <time>2023-03-03T14:57:03Z</time>
      </trkpt>
      <trkpt lat="43.46955" lon="6.32452">
        <ele>139.5</ele>
        <time>2023-03-03T14:57:04Z</time>
      </trkpt>
      <trkpt lat="43.46955" lon="6.32453">
        <ele>139.6</ele>
        <time>2023-03-03T14:57:05Z</time>
      </trkpt>
      <trkpt lat="43.46956" lon="6.32453">
        <ele>139.7</ele>
        <time>2023-03-03T14:57:06Z</time>
      </trkpt>
      <trkpt lat="43.46957" lon="6.32454">
        <ele>139.7</ele>
        <time>2023-03-03T14:57:07Z</time>
      </trkpt>
      <trkpt lat="43.46957" lon="6.32454">
        <ele>139.8</ele>
        <time>2023-03-03T14:57:08Z</time>
      </trkpt>
      <trkpt lat="43.46958" lon="6.32455">
        <ele>139.9</ele>
        <time>2023-03-03T14:57:09Z</time>
      </trkpt>
      <trkpt lat="43.46958" lon="6.32456">
        <ele>140</ele>
        <time>2023-03-03T14:57:10Z</time>
      </trkpt>
      <trkpt lat="43.46959" lon="6.32455">
        <ele>140</ele>
        <time>2023-03-03T14:57:11Z</time>
      </trkpt>
      <trkpt lat="43.4696" lon="6.32456">
        <ele>140.1</ele>
        <time>2023-03-03T14:57:12Z</time>
      </trkpt>
      <trkpt lat="43.4696" lon="6.32456">
        <ele>140.1</ele>
        <time>2023-03-03T14:57:13Z</time>
      </trkpt>
      <trkpt lat="43.46961" lon="6.32457">
        <ele>140.1</ele>
        <time>2023-03-03T14:57:14Z</time>
      </trkpt>
      <trkpt lat="43.46961" lon="6.32457">
        <ele>140.1</ele>
        <time>2023-03-03T14:57:15Z</time>
      </trkpt>
      <trkpt lat="43.46962" lon="6.32458">
        <ele>140.2</ele>
        <time>2023-03-03T14:57:16Z</time>
      </trkpt>
      <trkpt lat="43.46963" lon="6.32458">
        <ele>140.3</ele>
        <time>2023-03-03T14:57:17Z</time>
      </trkpt>
      <trkpt lat="43.46963" lon="6.32459">
        <ele>140.4</ele>
        <time>2023-03-03T14:57:18Z</time>
      </trkpt>
      <trkpt lat="43.46964" lon="6.32459">
        <ele>140.4</ele>
        <time>2023-03-03T14:57:19Z</time>
      </trkpt>
      <trkpt lat="43.46964" lon="6.3246">
        <ele>140.4</ele>
        <time>2023-03-03T14:57:20Z</time>
      </trkpt>
      <trkpt lat="43.46964" lon="6.3246">
        <ele>140.4</ele>
        <time>2023-03-03T14:57:21Z</time>
      </trkpt>
      <trkpt lat="43.46965" lon="6.3246">
        <ele>140.4</ele>
        <time>2023-03-03T14:57:22Z</time>
      </trkpt>
      <trkpt lat="43.46965" lon="6.3246">
        <ele>140.4</ele>
        <time>2023-03-03T14:57:23Z</time>
      </trkpt>
      <trkpt lat="43.46965" lon="6.32461">
        <ele>140.5</ele>
        <time>2023-03-03T14:57:24Z</time>
      </trkpt>
      <trkpt lat="43.46966" lon="6.32461">
        <ele>140.6</ele>
        <time>2023-03-03T14:57:25Z</time>
      </trkpt>
      <trkpt lat="43.46967" lon="6.32462">
        <ele>140.7</ele>
        <time>2023-03-03T14:57:26Z</time>
      </trkpt>
      <trkpt lat="43.46967" lon="6.32462">
        <ele>140.8</ele>
        <time>2023-03-03T14:57:27Z</time>
      </trkpt>
      <trkpt lat="43.46967" lon="6.32462">
        <ele>140.9</ele>
        <time>2023-03-03T14:57:28Z</time>
      </trkpt>
      <trkpt lat="43.46968" lon="6.32462">
        <ele>141.1</ele>
        <time>2023-03-03T14:57:29Z</time>
      </trkpt>
      <trkpt lat="43.46969" lon="6.32463">
        <ele>141.2</ele>
        <time>2023-03-03T14:57:30Z</time>
      </trkpt>
      <trkpt lat="43.4697" lon="6.32463">
        <ele>141.3</ele>
        <time>2023-03-03T14:57:31Z</time>
      </trkpt>
      <trkpt lat="43.4697" lon="6.32464">
        <ele>141.4</ele>
        <time>2023-03-03T14:57:32Z</time>
      </trkpt>
      <trkpt lat="43.46971" lon="6.32465">
        <ele>141.5</ele>
        <time>2023-03-03T14:57:33Z</time>
      </trkpt>
      <trkpt lat="43.46972" lon="6.32466">
        <ele>141.5</ele>
        <time>2023-03-03T14:57:34Z</time>
      </trkpt>
      <trkpt lat="43.46972" lon="6.32466">
        <ele>141.6</ele>
        <time>2023-03-03T14:57:35Z</time>
      </trkpt>
      <trkpt lat="43.46973" lon="6.32467">
        <ele>141.6</ele>
        <time>2023-03-03T14:57:36Z</time>
      </trkpt>
      <trkpt lat="43.46974" lon="6.32467">
        <ele>141.7</ele>
        <time>2023-03-03T14:57:37Z</time>
      </trkpt>
      <trkpt lat="43.46975" lon="6.32468">
        <ele>141.8</ele>
        <time>2023-03-03T14:57:38Z</time>
      </trkpt>
      <trkpt lat="43.46975" lon="6.32468">
        <ele>141.9</ele>
        <time>2023-03-03T14:57:39Z</time>
      </trkpt>
      <trkpt lat="43.46976" lon="6.32469">
        <ele>142</ele>
        <time>2023-03-03T14:57:40Z</time>
      </trkpt>
      <trkpt lat="43.46976" lon="6.32469">
        <ele>142.2</ele>
        <time>2023-03-03T14:57:41Z</time>
      </trkpt>
      <trkpt lat="43.46977" lon="6.32469">
        <ele>142.3</ele>
        <time>2023-03-03T14:57:42Z</time>
      </trkpt>
      <trkpt lat="43.46977" lon="6.3247">
        <ele>142.3</ele>
        <time>2023-03-03T14:57:43Z</time>
      </trkpt>
      <trkpt lat="43.46978" lon="6.3247">
        <ele>142.4</ele>
        <time>2023-03-03T14:57:44Z</time>
      </trkpt>
      <trkpt lat="43.46979" lon="6.3247">
        <ele>142.5</ele>
        <time>2023-03-03T14:57:45Z</time>
      </trkpt>
      <trkpt lat="43.4698" lon="6.32471">
        <ele>142.5</ele>
        <time>2023-03-03T14:57:46Z</time>
      </trkpt>
      <trkpt lat="43.4698" lon="6.32471">
        <ele>142.6</ele>
        <time>2023-03-03T14:57:47Z</time>
      </trkpt>
      <trkpt lat="43.46981" lon="6.32472">
        <ele>142.7</ele>
        <time>2023-03-03T14:57:48Z</time>
      </trkpt>
      <trkpt lat="43.46982" lon="6.32472">
        <ele>142.8</ele>
        <time>2023-03-03T14:57:49Z</time>
      </trkpt>
      <trkpt lat="43.46983" lon="6.32472">
        <ele>143</ele>
        <time>2023-03-03T14:57:50Z</time>
      </trkpt>
      <trkpt lat="43.46983" lon="6.32472">
        <ele>143.1</ele>
        <time>2023-03-03T14:57:51Z</time>
      </trkpt>
      <trkpt lat="43.46983" lon="6.32472">
        <ele>143.2</ele>
        <time>2023-03-03T14:57:52Z</time>
      </trkpt>
      <trkpt lat="43.46984" lon="6.32472">
        <ele>143.4</ele>
        <time>2023-03-03T14:57:53Z</time>
      </trkpt>
      <trkpt lat="43.46984" lon="6.32472">
        <ele>143.5</ele>
        <time>2023-03-03T14:57:54Z</time>
      </trkpt>
      <trkpt lat="43.46985" lon="6.32473">
        <ele>143.6</ele>
        <time>2023-03-03T14:57:55Z</time>
      </trkpt>
      <trkpt lat="43.46986" lon="6.32474">
        <ele>143.7</ele>
        <time>2023-03-03T14:57:56Z</time>
      </trkpt>
      <trkpt lat="43.46986" lon="6.32474">
        <ele>143.9</ele>
        <time>2023-03-03T14:57:57Z</time>
      </trkpt>
      <trkpt lat="43.46987" lon="6.32475">
        <ele>144</ele>
        <time>2023-03-03T14:57:58Z</time>
      </trkpt>
      <trkpt lat="43.46987" lon="6.32475">
        <ele>144.1</ele>
        <time>2023-03-03T14:57:59Z</time>
      </trkpt>
      <trkpt lat="43.46988" lon="6.32475">
        <ele>144.1</ele>
        <time>2023-03-03T14:58:00Z</time>
      </trkpt>
      <trkpt lat="43.46988" lon="6.32476">
        <ele>144.2</ele>
        <time>2023-03-03T14:58:01Z</time>
      </trkpt>
      <trkpt lat="43.46989" lon="6.32477">
        <ele>144.2</ele>
        <time>2023-03-03T14:58:02Z</time>
      </trkpt>
      <trkpt lat="43.4699" lon="6.32477">
        <ele>144.2</ele>
        <time>2023-03-03T14:58:03Z</time>
      </trkpt>
      <trkpt lat="43.46991" lon="6.32477">
        <ele>144.2</ele>
        <time>2023-03-03T14:58:04Z</time>
      </trkpt>
      <trkpt lat="43.46992" lon="6.32478">
        <ele>144.2</ele>
        <time>2023-03-03T14:58:05Z</time>
      </trkpt>
      <trkpt lat="43.46992" lon="6.32478">
        <ele>144.2</ele>
        <time>2023-03-03T14:58:06Z</time>
      </trkpt>
      <trkpt lat="43.46993" lon="6.32479">
        <ele>144.4</ele>
        <time>2023-03-03T14:58:07Z</time>
      </trkpt>
      <trkpt lat="43.46994" lon="6.32479">
        <ele>144.5</ele>
        <time>2023-03-03T14:58:08Z</time>
      </trkpt>
      <trkpt lat="43.46995" lon="6.3248">
        <ele>144.6</ele>
        <time>2023-03-03T14:58:09Z</time>
      </trkpt>
      <trkpt lat="43.46995" lon="6.32481">
        <ele>144.7</ele>
        <time>2023-03-03T14:58:10Z</time>
      </trkpt>
      <trkpt lat="43.46995" lon="6.32481">
        <ele>144.7</ele>
        <time>2023-03-03T14:58:11Z</time>
      </trkpt>
      <trkpt lat="43.46996" lon="6.32481">
        <ele>144.8</ele>
        <time>2023-03-03T14:58:12Z</time>
      </trkpt>
      <trkpt lat="43.46997" lon="6.32482">
        <ele>144.9</ele>
        <time>2023-03-03T14:58:13Z</time>
      </trkpt>
      <trkpt lat="43.46997" lon="6.32482">
        <ele>144.9</ele>
        <time>2023-03-03T14:58:14Z</time>
      </trkpt>
      <trkpt lat="43.46998" lon="6.32483">
        <ele>145</ele>
        <time>2023-03-03T14:58:15Z</time>
      </trkpt>
      <trkpt lat="43.46998" lon="6.32483">
        <ele>145</ele>
        <time>2023-03-03T14:58:16Z</time>
      </trkpt>
      <trkpt lat="43.46999" lon="6.32484">
        <ele>145.2</ele>
        <time>2023-03-03T14:58:17Z</time>
      </trkpt>
      <trkpt lat="43.47" lon="6.32484">
        <ele>145.3</ele>
        <time>2023-03-03T14:58:18Z</time>
      </trkpt>
      <trkpt lat="43.47" lon="6.32484">
        <ele>145.4</ele>
        <time>2023-03-03T14:58:19Z</time>
      </trkpt>
      <trkpt lat="43.47" lon="6.32485">
        <ele>145.5</ele>
        <time>2023-03-03T14:58:20Z</time>
      </trkpt>
      <trkpt lat="43.47001" lon="6.32486">
        <ele>145.7</ele>
        <time>2023-03-03T14:58:21Z</time>
      </trkpt>
      <trkpt lat="43.47001" lon="6.32487">
        <ele>145.8</ele>
        <time>2023-03-03T14:58:22Z</time>
      </trkpt>
      <trkpt lat="43.47002" lon="6.32487">
        <ele>145.8</ele>
        <time>2023-03-03T14:58:23Z</time>
      </trkpt>
      <trkpt lat="43.47002" lon="6.32488">
        <ele>145.9</ele>
        <time>2023-03-03T14:58:24Z</time>
      </trkpt>
      <trkpt lat="43.47003" lon="6.32488">
        <ele>146</ele>
        <time>2023-03-03T14:58:25Z</time>
      </trkpt>
      <trkpt lat="43.47003" lon="6.32488">
        <ele>146.2</ele>
        <time>2023-03-03T14:58:26Z</time>
      </trkpt>
      <trkpt lat="43.47004" lon="6.32488">
        <ele>146.3</ele>
        <time>2023-03-03T14:58:27Z</time>
      </trkpt>
      <trkpt lat="43.47005" lon="6.32489">
        <ele>146.4</ele>
        <time>2023-03-03T14:58:28Z</time>
      </trkpt>
      <trkpt lat="43.47005" lon="6.32489">
        <ele>146.4</ele>
        <time>2023-03-03T14:58:29Z</time>
      </trkpt>
      <trkpt lat="43.47006" lon="6.32489">
        <ele>146.5</ele>
        <time>2023-03-03T14:58:30Z</time>
      </trkpt>
      <trkpt lat="43.47007" lon="6.32489">
        <ele>146.6</ele>
        <time>2023-03-03T14:58:31Z</time>
      </trkpt>
      <trkpt lat="43.47007" lon="6.3249">
        <ele>146.7</ele>
        <time>2023-03-03T14:58:32Z</time>
      </trkpt>
      <trkpt lat="43.47007" lon="6.3249">
        <ele>146.9</ele>
        <time>2023-03-03T14:58:33Z</time>
      </trkpt>
      <trkpt lat="43.47008" lon="6.32491">
        <ele>147</ele>
        <time>2023-03-03T14:58:34Z</time>
      </trkpt>
      <trkpt lat="43.47008" lon="6.32491">
        <ele>147</ele>
        <time>2023-03-03T14:58:35Z</time>
      </trkpt>
      <trkpt lat="43.47009" lon="6.32491">
        <ele>147.1</ele>
        <time>2023-03-03T14:58:36Z</time>
      </trkpt>
      <trkpt lat="43.47009" lon="6.32492">
        <ele>147.1</ele>
        <time>2023-03-03T14:58:37Z</time>
      </trkpt>
      <trkpt lat="43.4701" lon="6.32493">
        <ele>147.3</ele>
        <time>2023-03-03T14:58:38Z</time>
      </trkpt>
      <trkpt lat="43.4701" lon="6.32493">
        <ele>147.5</ele>
        <time>2023-03-03T14:58:39Z</time>
      </trkpt>
      <trkpt lat="43.47011" lon="6.32494">
        <ele>147.6</ele>
        <time>2023-03-03T14:58:40Z</time>
      </trkpt>
      <trkpt lat="43.47012" lon="6.32494">
        <ele>147.7</ele>
        <time>2023-03-03T14:58:41Z</time>
      </trkpt>
      <trkpt lat="43.47012" lon="6.32494">
        <ele>147.7</ele>
        <time>2023-03-03T14:58:42Z</time>
      </trkpt>
      <trkpt lat="43.47013" lon="6.32495">
        <ele>147.9</ele>
        <time>2023-03-03T14:58:43Z</time>
      </trkpt>
      <trkpt lat="43.47013" lon="6.32495">
        <ele>148</ele>
        <time>2023-03-03T14:58:44Z</time>
      </trkpt>
      <trkpt lat="43.47014" lon="6.32496">
        <ele>148.1</ele>
        <time>2023-03-03T14:58:45Z</time>
      </trkpt>
      <trkpt lat="43.47015" lon="6.32495">
        <ele>148.2</ele>
        <time>2023-03-03T14:58:46Z</time>
      </trkpt>
      <trkpt lat="43.47016" lon="6.32495">
        <ele>148.3</ele>
        <time>2023-03-03T14:58:47Z</time>
      </trkpt>
      <trkpt lat="43.47017" lon="6.32495">
        <ele>148.4</ele>
        <time>2023-03-03T14:58:48Z</time>
      </trkpt>
      <trkpt lat="43.47018" lon="6.32495">
        <ele>148.5</ele>
        <time>2023-03-03T14:58:49Z</time>
      </trkpt>
      <trkpt lat="43.47018" lon="6.32495">
        <ele>148.6</ele>
        <time>2023-03-03T14:58:50Z</time>
      </trkpt>
      <trkpt lat="43.47019" lon="6.32495">
        <ele>148.6</ele>
        <time>2023-03-03T14:58:51Z</time>
      </trkpt>
      <trkpt lat="43.4702" lon="6.32496">
        <ele>148.6</ele>
        <time>2023-03-03T14:58:52Z</time>
      </trkpt>
      <trkpt lat="43.4702" lon="6.32495">
        <ele>148.7</ele>
        <time>2023-03-03T14:58:53Z</time>
      </trkpt>
      <trkpt lat="43.47021" lon="6.32495">
        <ele>148.7</ele>
        <time>2023-03-03T14:58:54Z</time>
      </trkpt>
      <trkpt lat="43.47022" lon="6.32495">
        <ele>148.8</ele>
        <time>2023-03-03T14:58:55Z</time>
      </trkpt>
      <trkpt lat="43.47022" lon="6.32496">
        <ele>148.8</ele>
        <time>2023-03-03T14:58:56Z</time>
      </trkpt>
      <trkpt lat="43.47022" lon="6.32496">
        <ele>148.9</ele>
        <time>2023-03-03T14:58:57Z</time>
      </trkpt>
      <trkpt lat="43.47023" lon="6.32496">
        <ele>149</ele>
        <time>2023-03-03T14:58:58Z</time>
      </trkpt>
      <trkpt lat="43.47024" lon="6.32496">
        <ele>149.1</ele>
        <time>2023-03-03T14:58:59Z</time>
      </trkpt>
      <trkpt lat="43.47024" lon="6.32496">
        <ele>149.2</ele>
        <time>2023-03-03T14:59:00Z</time>
      </trkpt>
      <trkpt lat="43.47025" lon="6.32496">
        <ele>149.4</ele>
        <time>2023-03-03T14:59:01Z</time>
      </trkpt>
      <trkpt lat="43.47026" lon="6.32496">
        <ele>149.5</ele>
        <time>2023-03-03T14:59:02Z</time>
      </trkpt>
      <trkpt lat="43.47027" lon="6.32496">
        <ele>149.6</ele>
        <time>2023-03-03T14:59:03Z</time>
      </trkpt>
      <trkpt lat="43.47027" lon="6.32496">
        <ele>149.6</ele>
        <time>2023-03-03T14:59:04Z</time>
      </trkpt>
      <trkpt lat="43.47028" lon="6.32496">
        <ele>149.7</ele>
        <time>2023-03-03T14:59:05Z</time>
      </trkpt>
      <trkpt lat="43.47028" lon="6.32496">
        <ele>149.8</ele>
        <time>2023-03-03T14:59:06Z</time>
      </trkpt>
      <trkpt lat="43.47028" lon="6.32496">
        <ele>149.9</ele>
        <time>2023-03-03T14:59:07Z</time>
      </trkpt>
      <trkpt lat="43.47029" lon="6.32495">
        <ele>150</ele>
        <time>2023-03-03T14:59:08Z</time>
      </trkpt>
      <trkpt lat="43.4703" lon="6.32495">
        <ele>150.2</ele>
        <time>2023-03-03T14:59:09Z</time>
      </trkpt>
      <trkpt lat="43.4703" lon="6.32496">
        <ele>150.2</ele>
        <time>2023-03-03T14:59:10Z</time>
      </trkpt>
      <trkpt lat="43.47032" lon="6.32496">
        <ele>150.3</ele>
        <time>2023-03-03T14:59:11Z</time>
      </trkpt>
      <trkpt lat="43.47032" lon="6.32496">
        <ele>150.4</ele>
        <time>2023-03-03T14:59:12Z</time>
      </trkpt>
      <trkpt lat="43.47033" lon="6.32496">
        <ele>150.4</ele>
        <time>2023-03-03T14:59:13Z</time>
      </trkpt>
      <trkpt lat="43.47034" lon="6.32496">
        <ele>150.4</ele>
        <time>2023-03-03T14:59:14Z</time>
      </trkpt>
      <trkpt lat="43.47034" lon="6.32496">
        <ele>150.5</ele>
        <time>2023-03-03T14:59:15Z</time>
      </trkpt>
      <trkpt lat="43.47035" lon="6.32496">
        <ele>150.6</ele>
        <time>2023-03-03T14:59:16Z</time>
      </trkpt>
      <trkpt lat="43.47035" lon="6.32496">
        <ele>150.7</ele>
        <time>2023-03-03T14:59:17Z</time>
      </trkpt>
      <trkpt lat="43.47036" lon="6.32496">
        <ele>150.7</ele>
        <time>2023-03-03T14:59:18Z</time>
      </trkpt>
      <trkpt lat="43.47036" lon="6.32496">
        <ele>150.8</ele>
        <time>2023-03-03T14:59:19Z</time>
      </trkpt>
      <trkpt lat="43.47037" lon="6.32496">
        <ele>150.8</ele>
        <time>2023-03-03T14:59:20Z</time>
      </trkpt>
      <trkpt lat="43.47037" lon="6.32496">
        <ele>150.8</ele>
        <time>2023-03-03T14:59:21Z</time>
      </trkpt>
      <trkpt lat="43.47038" lon="6.32496">
        <ele>150.8</ele>
        <time>2023-03-03T14:59:22Z</time>
      </trkpt>
      <trkpt lat="43.47038" lon="6.32495">
        <ele>150.8</ele>
        <time>2023-03-03T14:59:23Z</time>
      </trkpt>
      <trkpt lat="43.47039" lon="6.32495">
        <ele>150.9</ele>
        <time>2023-03-03T14:59:24Z</time>
      </trkpt>
      <trkpt lat="43.47039" lon="6.32495">
        <ele>150.8</ele>
        <time>2023-03-03T14:59:25Z</time>
      </trkpt>
      <trkpt lat="43.4704" lon="6.32495">
        <ele>150.9</ele>
        <time>2023-03-03T14:59:26Z</time>
      </trkpt>
      <trkpt lat="43.4704" lon="6.32496">
        <ele>151</ele>
        <time>2023-03-03T14:59:27Z</time>
      </trkpt>
      <trkpt lat="43.47041" lon="6.32495">
        <ele>151.1</ele>
        <time>2023-03-03T14:59:28Z</time>
      </trkpt>
      <trkpt lat="43.47041" lon="6.32495">
        <ele>151.2</ele>
        <time>2023-03-03T14:59:29Z</time>
      </trkpt>
      <trkpt lat="43.47042" lon="6.32494">
        <ele>151.3</ele>
        <time>2023-03-03T14:59:30Z</time>
      </trkpt>
      <trkpt lat="43.47042" lon="6.32495">
        <ele>151.5</ele>
        <time>2023-03-03T14:59:31Z</time>
      </trkpt>
      <trkpt lat="43.47043" lon="6.32495">
        <ele>151.6</ele>
        <time>2023-03-03T14:59:32Z</time>
      </trkpt>
      <trkpt lat="43.47043" lon="6.32495">
        <ele>151.7</ele>
        <time>2023-03-03T14:59:33Z</time>
      </trkpt>
      <trkpt lat="43.47044" lon="6.32495">
        <ele>151.8</ele>
        <time>2023-03-03T14:59:34Z</time>
      </trkpt>
      <trkpt lat="43.47045" lon="6.32495">
        <ele>151.8</ele>
        <time>2023-03-03T14:59:35Z</time>
      </trkpt>
      <trkpt lat="43.47045" lon="6.32496">
        <ele>151.9</ele>
        <time>2023-03-03T14:59:36Z</time>
      </trkpt>
      <trkpt lat="43.47046" lon="6.32496">
        <ele>151.9</ele>
        <time>2023-03-03T14:59:37Z</time>
      </trkpt>
      <trkpt lat="43.47046" lon="6.32496">
        <ele>152.1</ele>
        <time>2023-03-03T14:59:38Z</time>
      </trkpt>
      <trkpt lat="43.47046" lon="6.32496">
        <ele>152.2</ele>
        <time>2023-03-03T14:59:39Z</time>
      </trkpt>
      <trkpt lat="43.47047" lon="6.32496">
        <ele>152.3</ele>
        <time>2023-03-03T14:59:40Z</time>
      </trkpt>
      <trkpt lat="43.47047" lon="6.32496">
        <ele>152.3</ele>
        <time>2023-03-03T14:59:41Z</time>
      </trkpt>
      <trkpt lat="43.47048" lon="6.32496">
        <ele>152.4</ele>
        <time>2023-03-03T14:59:42Z</time>
      </trkpt>
      <trkpt lat="43.47049" lon="6.32495">
        <ele>152.5</ele>
        <time>2023-03-03T14:59:43Z</time>
      </trkpt>
      <trkpt lat="43.47049" lon="6.32495">
        <ele>152.6</ele>
        <time>2023-03-03T14:59:44Z</time>
      </trkpt>
      <trkpt lat="43.4705" lon="6.32496">
        <ele>152.6</ele>
        <time>2023-03-03T14:59:45Z</time>
      </trkpt>
      <trkpt lat="43.47051" lon="6.32495">
        <ele>152.7</ele>
        <time>2023-03-03T14:59:46Z</time>
      </trkpt>
      <trkpt lat="43.47052" lon="6.32495">
        <ele>152.9</ele>
        <time>2023-03-03T14:59:47Z</time>
      </trkpt>
      <trkpt lat="43.47052" lon="6.32495">
        <ele>153.1</ele>
        <time>2023-03-03T14:59:48Z</time>
      </trkpt>
      <trkpt lat="43.47053" lon="6.32495">
        <ele>153.2</ele>
        <time>2023-03-03T14:59:49Z</time>
      </trkpt>
      <trkpt lat="43.47054" lon="6.32495">
        <ele>153.4</ele>
        <time>2023-03-03T14:59:50Z</time>
      </trkpt>
      <trkpt lat="43.47055" lon="6.32495">
        <ele>153.5</ele>
        <time>2023-03-03T14:59:51Z</time>
      </trkpt>
      <trkpt lat="43.47055" lon="6.32495">
        <ele>153.6</ele>
        <time>2023-03-03T14:59:52Z</time>
      </trkpt>
      <trkpt lat="43.47056" lon="6.32495">
        <ele>153.8</ele>
        <time>2023-03-03T14:59:53Z</time>
      </trkpt>
      <trkpt lat="43.47057" lon="6.32494">
        <ele>154</ele>
        <time>2023-03-03T14:59:54Z</time>
      </trkpt>
      <trkpt lat="43.47058" lon="6.32494">
        <ele>154.1</ele>
        <time>2023-03-03T14:59:55Z</time>
      </trkpt>
      <trkpt lat="43.47058" lon="6.32494">
        <ele>154.2</ele>
        <time>2023-03-03T14:59:56Z</time>
      </trkpt>
      <trkpt lat="43.47059" lon="6.32494">
        <ele>154.4</ele>
        <time>2023-03-03T14:59:57Z</time>
      </trkpt>
      <trkpt lat="43.4706" lon="6.32493">
        <ele>154.5</ele>
        <time>2023-03-03T14:59:58Z</time>
      </trkpt>
      <trkpt lat="43.47061" lon="6.32493">
        <ele>154.5</ele>
        <time>2023-03-03T14:59:59Z</time>
      </trkpt>
      <trkpt lat="43.47061" lon="6.32493">
        <ele>154.7</ele>
        <time>2023-03-03T15:00:00Z</time>
      </trkpt>
      <trkpt lat="43.47062" lon="6.32492">
        <ele>154.8</ele>
        <time>2023-03-03T15:00:01Z</time>
      </trkpt>
      <trkpt lat="43.47063" lon="6.32492">
        <ele>154.9</ele>
        <time>2023-03-03T15:00:02Z</time>
      </trkpt>
      <trkpt lat="43.47063" lon="6.32491">
        <ele>155</ele>
        <time>2023-03-03T15:00:03Z</time>
      </trkpt>
      <trkpt lat="43.47064" lon="6.32491">
        <ele>155.1</ele>
        <time>2023-03-03T15:00:04Z</time>
      </trkpt>
      <trkpt lat="43.47064" lon="6.32491">
        <ele>155.2</ele>
        <time>2023-03-03T15:00:05Z</time>
      </trkpt>
      <trkpt lat="43.47064" lon="6.32491">
        <ele>155.2</ele>
        <time>2023-03-03T15:00:06Z</time>
      </trkpt>
      <trkpt lat="43.47065" lon="6.3249">
        <ele>155.3</ele>
        <time>2023-03-03T15:00:07Z</time>
      </trkpt>
      <trkpt lat="43.47065" lon="6.3249">
        <ele>155.3</ele>
        <time>2023-03-03T15:00:08Z</time>
      </trkpt>
      <trkpt lat="43.47065" lon="6.3249">
        <ele>155.5</ele>
        <time>2023-03-03T15:00:09Z</time>
      </trkpt>
      <trkpt lat="43.47066" lon="6.32489">
        <ele>155.6</ele>
        <time>2023-03-03T15:00:10Z</time>
      </trkpt>
      <trkpt lat="43.47067" lon="6.32489">
        <ele>155.5</ele>
        <time>2023-03-03T15:00:11Z</time>
      </trkpt>
      <trkpt lat="43.47067" lon="6.32488">
        <ele>155.6</ele>
        <time>2023-03-03T15:00:12Z</time>
      </trkpt>
      <trkpt lat="43.47068" lon="6.32488">
        <ele>155.7</ele>
        <time>2023-03-03T15:00:13Z</time>
      </trkpt>
      <trkpt lat="43.47068" lon="6.32487">
        <ele>155.8</ele>
        <time>2023-03-03T15:00:14Z</time>
      </trkpt>
      <trkpt lat="43.47069" lon="6.32487">
        <ele>155.9</ele>
        <time>2023-03-03T15:00:15Z</time>
      </trkpt>
      <trkpt lat="43.47069" lon="6.32487">
        <ele>156</ele>
        <time>2023-03-03T15:00:16Z</time>
      </trkpt>
      <trkpt lat="43.4707" lon="6.32487">
        <ele>156.1</ele>
        <time>2023-03-03T15:00:17Z</time>
      </trkpt>
      <trkpt lat="43.4707" lon="6.32487">
        <ele>156.2</ele>
        <time>2023-03-03T15:00:18Z</time>
      </trkpt>
      <trkpt lat="43.47071" lon="6.32487">
        <ele>156.4</ele>
        <time>2023-03-03T15:00:19Z</time>
      </trkpt>
      <trkpt lat="43.47072" lon="6.32486">
        <ele>156.5</ele>
        <time>2023-03-03T15:00:20Z</time>
      </trkpt>
      <trkpt lat="43.47073" lon="6.32486">
        <ele>156.6</ele>
        <time>2023-03-03T15:00:21Z</time>
      </trkpt>
      <trkpt lat="43.47074" lon="6.32486">
        <ele>156.6</ele>
        <time>2023-03-03T15:00:22Z</time>
      </trkpt>
      <trkpt lat="43.47075" lon="6.32486">
        <ele>156.7</ele>
        <time>2023-03-03T15:00:23Z</time>
      </trkpt>
      <trkpt lat="43.47075" lon="6.32486">
        <ele>156.8</ele>
        <time>2023-03-03T15:00:24Z</time>
      </trkpt>
      <trkpt lat="43.47076" lon="6.32486">
        <ele>156.9</ele>
        <time>2023-03-03T15:00:25Z</time>
      </trkpt>
      <trkpt lat="43.47077" lon="6.32486">
        <ele>157</ele>
        <time>2023-03-03T15:00:26Z</time>
      </trkpt>
      <trkpt lat="43.47077" lon="6.32486">
        <ele>157.1</ele>
        <time>2023-03-03T15:00:27Z</time>
      </trkpt>
      <trkpt lat="43.47078" lon="6.32486">
        <ele>157.2</ele>
        <time>2023-03-03T15:00:28Z</time>
      </trkpt>
      <trkpt lat="43.47079" lon="6.32487">
        <ele>157.3</ele>
        <time>2023-03-03T15:00:29Z</time>
      </trkpt>
      <trkpt lat="43.47079" lon="6.32488">
        <ele>157.4</ele>
        <time>2023-03-03T15:00:30Z</time>
      </trkpt>
      <trkpt lat="43.47079" lon="6.32488">
        <ele>157.5</ele>
        <time>2023-03-03T15:00:31Z</time>
      </trkpt>
      <trkpt lat="43.4708" lon="6.32489">
        <ele>157.6</ele>
        <time>2023-03-03T15:00:32Z</time>
      </trkpt>
      <trkpt lat="43.47081" lon="6.32489">
        <ele>157.7</ele>
        <time>2023-03-03T15:00:33Z</time>
      </trkpt>
      <trkpt lat="43.47081" lon="6.3249">
        <ele>157.8</ele>
        <time>2023-03-03T15:00:34Z</time>
      </trkpt>
      <trkpt lat="43.47082" lon="6.3249">
        <ele>158</ele>
        <time>2023-03-03T15:00:35Z</time>
      </trkpt>
      <trkpt lat="43.47083" lon="6.3249">
        <ele>158.1</ele>
        <time>2023-03-03T15:00:36Z</time>
      </trkpt>
      <trkpt lat="43.47083" lon="6.32491">
        <ele>158.2</ele>
        <time>2023-03-03T15:00:37Z</time>
      </trkpt>
      <trkpt lat="43.47084" lon="6.3249">
        <ele>158.3</ele>
        <time>2023-03-03T15:00:38Z</time>
      </trkpt>
      <trkpt lat="43.47085" lon="6.32491">
        <ele>158.4</ele>
        <time>2023-03-03T15:00:39Z</time>
      </trkpt>
      <trkpt lat="43.47085" lon="6.32491">
        <ele>158.5</ele>
        <time>2023-03-03T15:00:40Z</time>
      </trkpt>
      <trkpt lat="43.47085" lon="6.32491">
        <ele>158.6</ele>
        <time>2023-03-03T15:00:41Z</time>
      </trkpt>
      <trkpt lat="43.47086" lon="6.32491">
        <ele>158.7</ele>
        <time>2023-03-03T15:00:42Z</time>
      </trkpt>
      <trkpt lat="43.47087" lon="6.32491">
        <ele>158.7</ele>
        <time>2023-03-03T15:00:43Z</time>
      </trkpt>
      <trkpt lat="43.47087" lon="6.32491">
        <ele>158.9</ele>
        <time>2023-03-03T15:00:44Z</time>
      </trkpt>
      <trkpt lat="43.47088" lon="6.32491">
        <ele>159</ele>
        <time>2023-03-03T15:00:45Z</time>
      </trkpt>
      <trkpt lat="43.47089" lon="6.32491">
        <ele>159</ele>
        <time>2023-03-03T15:00:46Z</time>
      </trkpt>
      <trkpt lat="43.47089" lon="6.32491">
        <ele>159.1</ele>
        <time>2023-03-03T15:00:47Z</time>
      </trkpt>
      <trkpt lat="43.4709" lon="6.32492">
        <ele>159.2</ele>
        <time>2023-03-03T15:00:48Z</time>
      </trkpt>
      <trkpt lat="43.47091" lon="6.32492">
        <ele>159.4</ele>
        <time>2023-03-03T15:00:49Z</time>
      </trkpt>
      <trkpt lat="43.47091" lon="6.32492">
        <ele>159.4</ele>
        <time>2023-03-03T15:00:50Z</time>
      </trkpt>
      <trkpt lat="43.47092" lon="6.32492">
        <ele>159.5</ele>
        <time>2023-03-03T15:00:51Z</time>
      </trkpt>
      <trkpt lat="43.47093" lon="6.32492">
        <ele>159.6</ele>
        <time>2023-03-03T15:00:52Z</time>
      </trkpt>
      <trkpt lat="43.47093" lon="6.32492">
        <ele>159.6</ele>
        <time>2023-03-03T15:00:53Z</time>
      </trkpt>
      <trkpt lat="43.47094" lon="6.32492">
        <ele>159.7</ele>
        <time>2023-03-03T15:00:54Z</time>
      </trkpt>
      <trkpt lat="43.47095" lon="6.32491">
        <ele>159.8</ele>
        <time>2023-03-03T15:00:55Z</time>
      </trkpt>
      <trkpt lat="43.47095" lon="6.32491">
        <ele>159.9</ele>
        <time>2023-03-03T15:00:56Z</time>
      </trkpt>
      <trkpt lat="43.47096" lon="6.32491">
        <ele>160</ele>
        <time>2023-03-03T15:00:57Z</time>
      </trkpt>
      <trkpt lat="43.47097" lon="6.32491">
        <ele>160.1</ele>
        <time>2023-03-03T15:00:58Z</time>
      </trkpt>
      <trkpt lat="43.47098" lon="6.32491">
        <ele>160.2</ele>
        <time>2023-03-03T15:00:59Z</time>
      </trkpt>
      <trkpt lat="43.47099" lon="6.3249">
        <ele>160.3</ele>
        <time>2023-03-03T15:01:00Z</time>
      </trkpt>
      <trkpt lat="43.471" lon="6.3249">
        <ele>160.3</ele>
        <time>2023-03-03T15:01:01Z</time>
      </trkpt>
      <trkpt lat="43.471" lon="6.3249">
        <ele>160.4</ele>
        <time>2023-03-03T15:01:02Z</time>
      </trkpt>
      <trkpt lat="43.47101" lon="6.3249">
        <ele>160.4</ele>
        <time>2023-03-03T15:01:03Z</time>
      </trkpt>
      <trkpt lat="43.47102" lon="6.32489">
        <ele>160.5</ele>
        <time>2023-03-03T15:01:04Z</time>
      </trkpt>
      <trkpt lat="43.47103" lon="6.32489">
        <ele>160.5</ele>
        <time>2023-03-03T15:01:05Z</time>
      </trkpt>
      <trkpt lat="43.47103" lon="6.32489">
        <ele>160.5</ele>
        <time>2023-03-03T15:01:06Z</time>
      </trkpt>
      <trkpt lat="43.47104" lon="6.32489">
        <ele>160.6</ele>
        <time>2023-03-03T15:01:07Z</time>
      </trkpt>
      <trkpt lat="43.47104" lon="6.32488">
        <ele>160.7</ele>
        <time>2023-03-03T15:01:08Z</time>
      </trkpt>
      <trkpt lat="43.47105" lon="6.32487">
        <ele>160.8</ele>
        <time>2023-03-03T15:01:09Z</time>
      </trkpt>
      <trkpt lat="43.47106" lon="6.32487">
        <ele>160.9</ele>
        <time>2023-03-03T15:01:10Z</time>
      </trkpt>
      <trkpt lat="43.47106" lon="6.32486">
        <ele>160.9</ele>
        <time>2023-03-03T15:01:11Z</time>
      </trkpt>
      <trkpt lat="43.47107" lon="6.32486">
        <ele>161</ele>
        <time>2023-03-03T15:01:12Z</time>
      </trkpt>
      <trkpt lat="43.47108" lon="6.32486">
        <ele>161.1</ele>
        <time>2023-03-03T15:01:13Z</time>
      </trkpt>
      <trkpt lat="43.47109" lon="6.32486">
        <ele>161.2</ele>
        <time>2023-03-03T15:01:14Z</time>
      </trkpt>
      <trkpt lat="43.47109" lon="6.32485">
        <ele>161.3</ele>
        <time>2023-03-03T15:01:15Z</time>
      </trkpt>
      <trkpt lat="43.4711" lon="6.32485">
        <ele>161.4</ele>
        <time>2023-03-03T15:01:16Z</time>
      </trkpt>
      <trkpt lat="43.47111" lon="6.32484">
        <ele>161.5</ele>
        <time>2023-03-03T15:01:17Z</time>
      </trkpt>
      <trkpt lat="43.47111" lon="6.32484">
        <ele>161.5</ele>
        <time>2023-03-03T15:01:18Z</time>
      </trkpt>
      <trkpt lat="43.47112" lon="6.32484">
        <ele>161.5</ele>
        <time>2023-03-03T15:01:19Z</time>
      </trkpt>
      <trkpt lat="43.47113" lon="6.32483">
        <ele>161.6</ele>
        <time>2023-03-03T15:01:20Z</time>
      </trkpt>
      <trkpt lat="43.47113" lon="6.32483">
        <ele>161.8</ele>
        <time>2023-03-03T15:01:21Z</time>
      </trkpt>
      <trkpt lat="43.47114" lon="6.32482">
        <ele>161.9</ele>
        <time>2023-03-03T15:01:22Z</time>
      </trkpt>
      <trkpt lat="43.47115" lon="6.32482">
        <ele>161.9</ele>
        <time>2023-03-03T15:01:23Z</time>
      </trkpt>
      <trkpt lat="43.47115" lon="6.32481">
        <ele>162</ele>
        <time>2023-03-03T15:01:24Z</time>
      </trkpt>
      <trkpt lat="43.47116" lon="6.3248">
        <ele>162</ele>
        <time>2023-03-03T15:01:25Z</time>
      </trkpt>
      <trkpt lat="43.47117" lon="6.3248">
        <ele>162.1</ele>
        <time>2023-03-03T15:01:26Z</time>
      </trkpt>
      <trkpt lat="43.47117" lon="6.32479">
        <ele>162.2</ele>
        <time>2023-03-03T15:01:27Z</time>
      </trkpt>
      <trkpt lat="43.47118" lon="6.32479">
        <ele>162.3</ele>
        <time>2023-03-03T15:01:28Z</time>
      </trkpt>
      <trkpt lat="43.47119" lon="6.32479">
        <ele>162.4</ele>
        <time>2023-03-03T15:01:29Z</time>
      </trkpt>
      <trkpt lat="43.47119" lon="6.32479">
        <ele>162.4</ele>
        <time>2023-03-03T15:01:30Z</time>
      </trkpt>
      <trkpt lat="43.47119" lon="6.32479">
        <ele>162.5</ele>
        <time>2023-03-03T15:01:31Z</time>
      </trkpt>
      <trkpt lat="43.4712" lon="6.32478">
        <ele>162.6</ele>
        <time>2023-03-03T15:01:32Z</time>
      </trkpt>
      <trkpt lat="43.4712" lon="6.32478">
        <ele>162.6</ele>
        <time>2023-03-03T15:01:33Z</time>
      </trkpt>
      <trkpt lat="43.47121" lon="6.32478">
        <ele>162.6</ele>
        <time>2023-03-03T15:01:34Z</time>
      </trkpt>
      <trkpt lat="43.47122" lon="6.32478">
        <ele>162.5</ele>
        <time>2023-03-03T15:01:35Z</time>
      </trkpt>
      <trkpt lat="43.47123" lon="6.32476">
        <ele>162.5</ele>
        <time>2023-03-03T15:01:36Z</time>
      </trkpt>
      <trkpt lat="43.47124" lon="6.32476">
        <ele>162.6</ele>
        <time>2023-03-03T15:01:37Z</time>
      </trkpt>
      <trkpt lat="43.47124" lon="6.32476">
        <ele>162.6</ele>
        <time>2023-03-03T15:01:38Z</time>
      </trkpt>
      <trkpt lat="43.47125" lon="6.32475">
        <ele>162.7</ele>
        <time>2023-03-03T15:01:39Z</time>
      </trkpt>
      <trkpt lat="43.47126" lon="6.32475">
        <ele>162.9</ele>
        <time>2023-03-03T15:01:40Z</time>
      </trkpt>
      <trkpt lat="43.47127" lon="6.32474">
        <ele>163.1</ele>
        <time>2023-03-03T15:01:41Z</time>
      </trkpt>
      <trkpt lat="43.47128" lon="6.32473">
        <ele>163.2</ele>
        <time>2023-03-03T15:01:42Z</time>
      </trkpt>
      <trkpt lat="43.47128" lon="6.32472">
        <ele>163.3</ele>
        <time>2023-03-03T15:01:43Z</time>
      </trkpt>
      <trkpt lat="43.47129" lon="6.32472">
        <ele>163.4</ele>
        <time>2023-03-03T15:01:44Z</time>
      </trkpt>
      <trkpt lat="43.4713" lon="6.32471">
        <ele>163.4</ele>
        <time>2023-03-03T15:01:45Z</time>
      </trkpt>
      <trkpt lat="43.4713" lon="6.32471">
        <ele>163.5</ele>
        <time>2023-03-03T15:01:46Z</time>
      </trkpt>
      <trkpt lat="43.47131" lon="6.32471">
        <ele>163.6</ele>
        <time>2023-03-03T15:01:47Z</time>
      </trkpt>
      <trkpt lat="43.47131" lon="6.32471">
        <ele>163.6</ele>
        <time>2023-03-03T15:01:48Z</time>
      </trkpt>
      <trkpt lat="43.47132" lon="6.3247">
        <ele>163.6</ele>
        <time>2023-03-03T15:01:49Z</time>
      </trkpt>
      <trkpt lat="43.47133" lon="6.3247">
        <ele>163.8</ele>
        <time>2023-03-03T15:01:50Z</time>
      </trkpt>
      <trkpt lat="43.47133" lon="6.3247">
        <ele>163.9</ele>
        <time>2023-03-03T15:01:51Z</time>
      </trkpt>
      <trkpt lat="43.47134" lon="6.3247">
        <ele>164</ele>
        <time>2023-03-03T15:01:52Z</time>
      </trkpt>
      <trkpt lat="43.47135" lon="6.32469">
        <ele>164.1</ele>
        <time>2023-03-03T15:01:53Z</time>
      </trkpt>
      <trkpt lat="43.47135" lon="6.32469">
        <ele>164.2</ele>
        <time>2023-03-03T15:01:54Z</time>
      </trkpt>
      <trkpt lat="43.47136" lon="6.32469">
        <ele>164.2</ele>
        <time>2023-03-03T15:01:55Z</time>
      </trkpt>
      <trkpt lat="43.47137" lon="6.32469">
        <ele>164.3</ele>
        <time>2023-03-03T15:01:56Z</time>
      </trkpt>
      <trkpt lat="43.47138" lon="6.32469">
        <ele>164.3</ele>
        <time>2023-03-03T15:01:57Z</time>
      </trkpt>
      <trkpt lat="43.47139" lon="6.32469">
        <ele>164.4</ele>
        <time>2023-03-03T15:01:58Z</time>
      </trkpt>
      <trkpt lat="43.47139" lon="6.3247">
        <ele>164.5</ele>
        <time>2023-03-03T15:01:59Z</time>
      </trkpt>
      <trkpt lat="43.4714" lon="6.3247">
        <ele>164.5</ele>
        <time>2023-03-03T15:02:00Z</time>
      </trkpt>
      <trkpt lat="43.47141" lon="6.3247">
        <ele>164.6</ele>
        <time>2023-03-03T15:02:01Z</time>
      </trkpt>
      <trkpt lat="43.47142" lon="6.3247">
        <ele>164.7</ele>
        <time>2023-03-03T15:02:02Z</time>
      </trkpt>
      <trkpt lat="43.47143" lon="6.32471">
        <ele>164.7</ele>
        <time>2023-03-03T15:02:03Z</time>
      </trkpt>
      <trkpt lat="43.47143" lon="6.32471">
        <ele>164.8</ele>
        <time>2023-03-03T15:02:04Z</time>
      </trkpt>
      <trkpt lat="43.47143" lon="6.32472">
        <ele>164.9</ele>
        <time>2023-03-03T15:02:05Z</time>
      </trkpt>
      <trkpt lat="43.47144" lon="6.32472">
        <ele>164.9</ele>
        <time>2023-03-03T15:02:06Z</time>
      </trkpt>
      <trkpt lat="43.47145" lon="6.32472">
        <ele>165</ele>
        <time>2023-03-03T15:02:07Z</time>
      </trkpt>
      <trkpt lat="43.47145" lon="6.32472">
        <ele>165</ele>
        <time>2023-03-03T15:02:08Z</time>
      </trkpt>
      <trkpt lat="43.47146" lon="6.32473">
        <ele>165.1</ele>
        <time>2023-03-03T15:02:09Z</time>
      </trkpt>
      <trkpt lat="43.47147" lon="6.32473">
        <ele>165.1</ele>
        <time>2023-03-03T15:02:10Z</time>
      </trkpt>
      <trkpt lat="43.47148" lon="6.32473">
        <ele>165.1</ele>
        <time>2023-03-03T15:02:11Z</time>
      </trkpt>
      <trkpt lat="43.47149" lon="6.32473">
        <ele>165.1</ele>
        <time>2023-03-03T15:02:12Z</time>
      </trkpt>
      <trkpt lat="43.47149" lon="6.32473">
        <ele>165.2</ele>
        <time>2023-03-03T15:02:13Z</time>
      </trkpt>
      <trkpt lat="43.4715" lon="6.32473">
        <ele>165.2</ele>
        <time>2023-03-03T15:02:14Z</time>
      </trkpt>
      <trkpt lat="43.47151" lon="6.32474">
        <ele>165.3</ele>
        <time>2023-03-03T15:02:15Z</time>
      </trkpt>
      <trkpt lat="43.47151" lon="6.32474">
        <ele>165.4</ele>
        <time>2023-03-03T15:02:16Z</time>
      </trkpt>
      <trkpt lat="43.47152" lon="6.32475">
        <ele>165.5</ele>
        <time>2023-03-03T15:02:17Z</time>
      </trkpt>
      <trkpt lat="43.47153" lon="6.32476">
        <ele>165.5</ele>
        <time>2023-03-03T15:02:18Z</time>
      </trkpt>
      <trkpt lat="43.47154" lon="6.32475">
        <ele>165.6</ele>
        <time>2023-03-03T15:02:19Z</time>
      </trkpt>
      <trkpt lat="43.47155" lon="6.32475">
        <ele>165.6</ele>
        <time>2023-03-03T15:02:20Z</time>
      </trkpt>
      <trkpt lat="43.47156" lon="6.32476">
        <ele>165.5</ele>
        <time>2023-03-03T15:02:21Z</time>
      </trkpt>
      <trkpt lat="43.47156" lon="6.32477">
        <ele>165.5</ele>
        <time>2023-03-03T15:02:22Z</time>
      </trkpt>
      <trkpt lat="43.47157" lon="6.32477">
        <ele>165.6</ele>
        <time>2023-03-03T15:02:23Z</time>
      </trkpt>
      <trkpt lat="43.47158" lon="6.32477">
        <ele>165.7</ele>
        <time>2023-03-03T15:02:24Z</time>
      </trkpt>
      <trkpt lat="43.47159" lon="6.32477">
        <ele>165.8</ele>
        <time>2023-03-03T15:02:25Z</time>
      </trkpt>
      <trkpt lat="43.4716" lon="6.32477">
        <ele>165.9</ele>
        <time>2023-03-03T15:02:26Z</time>
      </trkpt>
      <trkpt lat="43.47161" lon="6.32477">
        <ele>166</ele>
        <time>2023-03-03T15:02:27Z</time>
      </trkpt>
      <trkpt lat="43.47162" lon="6.32477">
        <ele>166</ele>
        <time>2023-03-03T15:02:28Z</time>
      </trkpt>
      <trkpt lat="43.47162" lon="6.32478">
        <ele>166.1</ele>
        <time>2023-03-03T15:02:29Z</time>
      </trkpt>
      <trkpt lat="43.47163" lon="6.32479">
        <ele>166.1</ele>
        <time>2023-03-03T15:02:30Z</time>
      </trkpt>
      <trkpt lat="43.47164" lon="6.32479">
        <ele>166.2</ele>
        <time>2023-03-03T15:02:31Z</time>
      </trkpt>
      <trkpt lat="43.47164" lon="6.32479">
        <ele>166.2</ele>
        <time>2023-03-03T15:02:32Z</time>
      </trkpt>
      <trkpt lat="43.47165" lon="6.32478">
        <ele>166.2</ele>
        <time>2023-03-03T15:02:33Z</time>
      </trkpt>
      <trkpt lat="43.47165" lon="6.32478">
        <ele>166.2</ele>
        <time>2023-03-03T15:02:34Z</time>
      </trkpt>
      <trkpt lat="43.47166" lon="6.32478">
        <ele>166.2</ele>
        <time>2023-03-03T15:02:35Z</time>
      </trkpt>
      <trkpt lat="43.47166" lon="6.32477">
        <ele>166.3</ele>
        <time>2023-03-03T15:02:36Z</time>
      </trkpt>
      <trkpt lat="43.47168" lon="6.32476">
        <ele>166.4</ele>
        <time>2023-03-03T15:02:37Z</time>
      </trkpt>
      <trkpt lat="43.47168" lon="6.32476">
        <ele>166.5</ele>
        <time>2023-03-03T15:02:38Z</time>
      </trkpt>
      <trkpt lat="43.47168" lon="6.32475">
        <ele>166.5</ele>
        <time>2023-03-03T15:02:39Z</time>
      </trkpt>
      <trkpt lat="43.4717" lon="6.32474">
        <ele>166.6</ele>
        <time>2023-03-03T15:02:40Z</time>
      </trkpt>
      <trkpt lat="43.4717" lon="6.32474">
        <ele>166.7</ele>
        <time>2023-03-03T15:02:41Z</time>
      </trkpt>
      <trkpt lat="43.47171" lon="6.32473">
        <ele>166.7</ele>
        <time>2023-03-03T15:02:42Z</time>
      </trkpt>
      <trkpt lat="43.47172" lon="6.32472">
        <ele>166.8</ele>
        <time>2023-03-03T15:02:43Z</time>
      </trkpt>
      <trkpt lat="43.47173" lon="6.32471">
        <ele>166.8</ele>
        <time>2023-03-03T15:02:44Z</time>
      </trkpt>
      <trkpt lat="43.47174" lon="6.32471">
        <ele>166.9</ele>
        <time>2023-03-03T15:02:45Z</time>
      </trkpt>
      <trkpt lat="43.47174" lon="6.32471">
        <ele>166.9</ele>
        <time>2023-03-03T15:02:46Z</time>
      </trkpt>
      <trkpt lat="43.47175" lon="6.3247">
        <ele>166.9</ele>
        <time>2023-03-03T15:02:47Z</time>
      </trkpt>
      <trkpt lat="43.47175" lon="6.32469">
        <ele>166.9</ele>
        <time>2023-03-03T15:02:48Z</time>
      </trkpt>
      <trkpt lat="43.47176" lon="6.32469">
        <ele>167</ele>
        <time>2023-03-03T15:02:49Z</time>
      </trkpt>
      <trkpt lat="43.47176" lon="6.32468">
        <ele>167</ele>
        <time>2023-03-03T15:02:50Z</time>
      </trkpt>
      <trkpt lat="43.47176" lon="6.32467">
        <ele>167</ele>
        <time>2023-03-03T15:02:51Z</time>
      </trkpt>
      <trkpt lat="43.47177" lon="6.32466">
        <ele>166.9</ele>
        <time>2023-03-03T15:02:52Z</time>
      </trkpt>
      <trkpt lat="43.47177" lon="6.32465">
        <ele>167</ele>
        <time>2023-03-03T15:02:53Z</time>
      </trkpt>
      <trkpt lat="43.47178" lon="6.32463">
        <ele>167</ele>
        <time>2023-03-03T15:02:54Z</time>
      </trkpt>
      <trkpt lat="43.47179" lon="6.32462">
        <ele>166.9</ele>
        <time>2023-03-03T15:02:55Z</time>
      </trkpt>
      <trkpt lat="43.47179" lon="6.32462">
        <ele>166.9</ele>
        <time>2023-03-03T15:02:56Z</time>
      </trkpt>
      <trkpt lat="43.4718" lon="6.32461">
        <ele>166.9</ele>
        <time>2023-03-03T15:02:57Z</time>
      </trkpt>
      <trkpt lat="43.4718" lon="6.3246">
        <ele>166.9</ele>
        <time>2023-03-03T15:02:58Z</time>
      </trkpt>
      <trkpt lat="43.47181" lon="6.3246">
        <ele>167</ele>
        <time>2023-03-03T15:02:59Z</time>
      </trkpt>
      <trkpt lat="43.47181" lon="6.32459">
        <ele>167</ele>
        <time>2023-03-03T15:03:00Z</time>
      </trkpt>
      <trkpt lat="43.47182" lon="6.32458">
        <ele>166.9</ele>
        <time>2023-03-03T15:03:01Z</time>
      </trkpt>
      <trkpt lat="43.47183" lon="6.32457">
        <ele>166.9</ele>
        <time>2023-03-03T15:03:02Z</time>
      </trkpt>
      <trkpt lat="43.47184" lon="6.32456">
        <ele>166.9</ele>
        <time>2023-03-03T15:03:03Z</time>
      </trkpt>
      <trkpt lat="43.47184" lon="6.32455">
        <ele>166.9</ele>
        <time>2023-03-03T15:03:04Z</time>
      </trkpt>
      <trkpt lat="43.47184" lon="6.32454">
        <ele>167</ele>
        <time>2023-03-03T15:03:05Z</time>
      </trkpt>
      <trkpt lat="43.47185" lon="6.32453">
        <ele>167</ele>
        <time>2023-03-03T15:03:06Z</time>
      </trkpt>
      <trkpt lat="43.47186" lon="6.32452">
        <ele>167</ele>
        <time>2023-03-03T15:03:07Z</time>
      </trkpt>
      <trkpt lat="43.47187" lon="6.32451">
        <ele>167</ele>
        <time>2023-03-03T15:03:08Z</time>
      </trkpt>
      <trkpt lat="43.47188" lon="6.3245">
        <ele>167</ele>
        <time>2023-03-03T15:03:09Z</time>
      </trkpt>
      <trkpt lat="43.47189" lon="6.32449">
        <ele>167</ele>
        <time>2023-03-03T15:03:10Z</time>
      </trkpt>
      <trkpt lat="43.4719" lon="6.32448">
        <ele>167</ele>
        <time>2023-03-03T15:03:11Z</time>
      </trkpt>
      <trkpt lat="43.4719" lon="6.32447">
        <ele>166.9</ele>
        <time>2023-03-03T15:03:12Z</time>
      </trkpt>
      <trkpt lat="43.4719" lon="6.32447">
        <ele>166.9</ele>
        <time>2023-03-03T15:03:13Z</time>
      </trkpt>
      <trkpt lat="43.47191" lon="6.32446">
        <ele>166.9</ele>
        <time>2023-03-03T15:03:14Z</time>
      </trkpt>
      <trkpt lat="43.47192" lon="6.32445">
        <ele>166.8</ele>
        <time>2023-03-03T15:03:15Z</time>
      </trkpt>
      <trkpt lat="43.47192" lon="6.32444">
        <ele>166.7</ele>
        <time>2023-03-03T15:03:16Z</time>
      </trkpt>
      <trkpt lat="43.47193" lon="6.32443">
        <ele>166.7</ele>
        <time>2023-03-03T15:03:17Z</time>
      </trkpt>
      <trkpt lat="43.47193" lon="6.32443">
        <ele>166.6</ele>
        <time>2023-03-03T15:03:18Z</time>
      </trkpt>
      <trkpt lat="43.47193" lon="6.32443">
        <ele>166.5</ele>
        <time>2023-03-03T15:03:19Z</time>
      </trkpt>
      <trkpt lat="43.47193" lon="6.32442">
        <ele>166.5</ele>
        <time>2023-03-03T15:03:20Z</time>
      </trkpt>
      <trkpt lat="43.47195" lon="6.3244">
        <ele>166.5</ele>
        <time>2023-03-03T15:03:21Z</time>
      </trkpt>
      <trkpt lat="43.47195" lon="6.32439">
        <ele>166.4</ele>
        <time>2023-03-03T15:03:22Z</time>
      </trkpt>
      <trkpt lat="43.47196" lon="6.32438">
        <ele>166.4</ele>
        <time>2023-03-03T15:03:23Z</time>
      </trkpt>
      <trkpt lat="43.47196" lon="6.32436">
        <ele>166.4</ele>
        <time>2023-03-03T15:03:24Z</time>
      </trkpt>
      <trkpt lat="43.47196" lon="6.32435">
        <ele>166.3</ele>
        <time>2023-03-03T15:03:25Z</time>
      </trkpt>
      <trkpt lat="43.47197" lon="6.32434">
        <ele>166.3</ele>
        <time>2023-03-03T15:03:26Z</time>
      </trkpt>
      <trkpt lat="43.47197" lon="6.32432">
        <ele>166.2</ele>
        <time>2023-03-03T15:03:27Z</time>
      </trkpt>
      <trkpt lat="43.47197" lon="6.32431">
        <ele>166.2</ele>
        <time>2023-03-03T15:03:28Z</time>
      </trkpt>
      <trkpt lat="43.47198" lon="6.3243">
        <ele>166.2</ele>
        <time>2023-03-03T15:03:29Z</time>
      </trkpt>
      <trkpt lat="43.47198" lon="6.32429">
        <ele>166.1</ele>
        <time>2023-03-03T15:03:30Z</time>
      </trkpt>
      <trkpt lat="43.47198" lon="6.32428">
        <ele>166</ele>
        <time>2023-03-03T15:03:31Z</time>
      </trkpt>
      <trkpt lat="43.47198" lon="6.32428">
        <ele>166.1</ele>
        <time>2023-03-03T15:03:32Z</time>
      </trkpt>
      <trkpt lat="43.47199" lon="6.32427">
        <ele>166.1</ele>
        <time>2023-03-03T15:03:33Z</time>
      </trkpt>
      <trkpt lat="43.47199" lon="6.32425">
        <ele>166.1</ele>
        <time>2023-03-03T15:03:34Z</time>
      </trkpt>
      <trkpt lat="43.47198" lon="6.32424">
        <ele>166.2</ele>
        <time>2023-03-03T15:03:35Z</time>
      </trkpt>
      <trkpt lat="43.47199" lon="6.32422">
        <ele>166.1</ele>
        <time>2023-03-03T15:03:36Z</time>
      </trkpt>
      <trkpt lat="43.47199" lon="6.32421">
        <ele>166.1</ele>
        <time>2023-03-03T15:03:37Z</time>
      </trkpt>
      <trkpt lat="43.47199" lon="6.32419">
        <ele>166.1</ele>
        <time>2023-03-03T15:03:38Z</time>
      </trkpt>
      <trkpt lat="43.47199" lon="6.32418">
        <ele>166</ele>
        <time>2023-03-03T15:03:39Z</time>
      </trkpt>
      <trkpt lat="43.47199" lon="6.32417">
        <ele>166.1</ele>
        <time>2023-03-03T15:03:40Z</time>
      </trkpt>
      <trkpt lat="43.47199" lon="6.32415">
        <ele>166</ele>
        <time>2023-03-03T15:03:41Z</time>
      </trkpt>
      <trkpt lat="43.47198" lon="6.32415">
        <ele>166</ele>
        <time>2023-03-03T15:03:42Z</time>
      </trkpt>
      <trkpt lat="43.47198" lon="6.32413">
        <ele>166.1</ele>
        <time>2023-03-03T15:03:43Z</time>
      </trkpt>
      <trkpt lat="43.47197" lon="6.32412">
        <ele>166.1</ele>
        <time>2023-03-03T15:03:44Z</time>
      </trkpt>
      <trkpt lat="43.47198" lon="6.32411">
        <ele>166.1</ele>
        <time>2023-03-03T15:03:45Z</time>
      </trkpt>
      <trkpt lat="43.47197" lon="6.3241">
        <ele>166.1</ele>
        <time>2023-03-03T15:03:46Z</time>
      </trkpt>
      <trkpt lat="43.47197" lon="6.32409">
        <ele>166.1</ele>
        <time>2023-03-03T15:03:47Z</time>
      </trkpt>
      <trkpt lat="43.47197" lon="6.32409">
        <ele>166</ele>
        <time>2023-03-03T15:03:48Z</time>
      </trkpt>
      <trkpt lat="43.47196" lon="6.32408">
        <ele>166</ele>
        <time>2023-03-03T15:03:49Z</time>
      </trkpt>
      <trkpt lat="43.47196" lon="6.32407">
        <ele>166</ele>
        <time>2023-03-03T15:03:50Z</time>
      </trkpt>
      <trkpt lat="43.47196" lon="6.32406">
        <ele>166</ele>
        <time>2023-03-03T15:03:51Z</time>
      </trkpt>
      <trkpt lat="43.47196" lon="6.32405">
        <ele>166</ele>
        <time>2023-03-03T15:03:52Z</time>
      </trkpt>
      <trkpt lat="43.47196" lon="6.32404">
        <ele>166</ele>
        <time>2023-03-03T15:03:53Z</time>
      </trkpt>
      <trkpt lat="43.47196" lon="6.32404">
        <ele>165.9</ele>
        <time>2023-03-03T15:03:54Z</time>
      </trkpt>
      <trkpt lat="43.47196" lon="6.32403">
        <ele>165.9</ele>
        <time>2023-03-03T15:03:55Z</time>
      </trkpt>
      <trkpt lat="43.47196" lon="6.32401">
        <ele>165.9</ele>
        <time>2023-03-03T15:03:56Z</time>
      </trkpt>
      <trkpt lat="43.47196" lon="6.324">
        <ele>165.9</ele>
        <time>2023-03-03T15:03:57Z</time>
      </trkpt>
      <trkpt lat="43.47196" lon="6.32399">
        <ele>165.9</ele>
        <time>2023-03-03T15:03:58Z</time>
      </trkpt>
      <trkpt lat="43.47196" lon="6.32398">
        <ele>165.8</ele>
        <time>2023-03-03T15:03:59Z</time>
      </trkpt>
      <trkpt lat="43.47195" lon="6.32397">
        <ele>165.8</ele>
        <time>2023-03-03T15:04:00Z</time>
      </trkpt>
      <trkpt lat="43.47195" lon="6.32396">
        <ele>165.9</ele>
        <time>2023-03-03T15:04:01Z</time>
      </trkpt>
      <trkpt lat="43.47195" lon="6.32395">
        <ele>166</ele>
        <time>2023-03-03T15:04:02Z</time>
      </trkpt>
      <trkpt lat="43.47195" lon="6.32394">
        <ele>166</ele>
        <time>2023-03-03T15:04:03Z</time>
      </trkpt>
      <trkpt lat="43.47195" lon="6.32393">
        <ele>166.1</ele>
        <time>2023-03-03T15:04:04Z</time>
      </trkpt>
      <trkpt lat="43.47195" lon="6.32392">
        <ele>166.1</ele>
        <time>2023-03-03T15:04:05Z</time>
      </trkpt>
      <trkpt lat="43.47196" lon="6.32391">
        <ele>166</ele>
        <time>2023-03-03T15:04:06Z</time>
      </trkpt>
      <trkpt lat="43.47196" lon="6.3239">
        <ele>166</ele>
        <time>2023-03-03T15:04:07Z</time>
      </trkpt>
      <trkpt lat="43.47196" lon="6.32389">
        <ele>166</ele>
        <time>2023-03-03T15:04:08Z</time>
      </trkpt>
      <trkpt lat="43.47197" lon="6.32388">
        <ele>166</ele>
        <time>2023-03-03T15:04:09Z</time>
      </trkpt>
      <trkpt lat="43.47198" lon="6.32386">
        <ele>166</ele>
        <time>2023-03-03T15:04:10Z</time>
      </trkpt>
      <trkpt lat="43.47198" lon="6.32384">
        <ele>166.1</ele>
        <time>2023-03-03T15:04:11Z</time>
      </trkpt>
      <trkpt lat="43.47198" lon="6.32384">
        <ele>166.1</ele>
        <time>2023-03-03T15:04:12Z</time>
      </trkpt>
      <trkpt lat="43.47199" lon="6.32383">
        <ele>166.2</ele>
        <time>2023-03-03T15:04:13Z</time>
      </trkpt>
      <trkpt lat="43.47199" lon="6.32382">
        <ele>166.3</ele>
        <time>2023-03-03T15:04:14Z</time>
      </trkpt>
      <trkpt lat="43.472" lon="6.32382">
        <ele>166.4</ele>
        <time>2023-03-03T15:04:15Z</time>
      </trkpt>
      <trkpt lat="43.472" lon="6.3238">
        <ele>166.5</ele>
        <time>2023-03-03T15:04:16Z</time>
      </trkpt>
      <trkpt lat="43.47201" lon="6.32379">
        <ele>166.5</ele>
        <time>2023-03-03T15:04:17Z</time>
      </trkpt>
      <trkpt lat="43.47201" lon="6.32379">
        <ele>166.7</ele>
        <time>2023-03-03T15:04:18Z</time>
      </trkpt>
      <trkpt lat="43.47201" lon="6.32378">
        <ele>166.7</ele>
        <time>2023-03-03T15:04:19Z</time>
      </trkpt>
      <trkpt lat="43.47201" lon="6.32377">
        <ele>166.9</ele>
        <time>2023-03-03T15:04:20Z</time>
      </trkpt>
      <trkpt lat="43.47202" lon="6.32376">
        <ele>167</ele>
        <time>2023-03-03T15:04:21Z</time>
      </trkpt>
      <trkpt lat="43.47202" lon="6.32376">
        <ele>167.1</ele>
        <time>2023-03-03T15:04:22Z</time>
      </trkpt>
      <trkpt lat="43.47203" lon="6.32375">
        <ele>167.2</ele>
        <time>2023-03-03T15:04:23Z</time>
      </trkpt>
      <trkpt lat="43.47203" lon="6.32375">
        <ele>167.3</ele>
        <time>2023-03-03T15:04:24Z</time>
      </trkpt>
      <trkpt lat="43.47204" lon="6.32375">
        <ele>167.4</ele>
        <time>2023-03-03T15:04:25Z</time>
      </trkpt>
      <trkpt lat="43.47204" lon="6.32374">
        <ele>167.4</ele>
        <time>2023-03-03T15:04:26Z</time>
      </trkpt>
      <trkpt lat="43.47205" lon="6.32374">
        <ele>167.5</ele>
        <time>2023-03-03T15:04:27Z</time>
      </trkpt>
      <trkpt lat="43.47205" lon="6.32373">
        <ele>167.5</ele>
        <time>2023-03-03T15:04:28Z</time>
      </trkpt>
      <trkpt lat="43.47206" lon="6.32373">
        <ele>167.6</ele>
        <time>2023-03-03T15:04:29Z</time>
      </trkpt>
      <trkpt lat="43.47207" lon="6.32372">
        <ele>167.6</ele>
        <time>2023-03-03T15:04:30Z</time>
      </trkpt>
      <trkpt lat="43.47207" lon="6.32371">
        <ele>167.6</ele>
        <time>2023-03-03T15:04:31Z</time>
      </trkpt>
      <trkpt lat="43.47208" lon="6.32371">
        <ele>167.7</ele>
        <time>2023-03-03T15:04:32Z</time>
      </trkpt>
      <trkpt lat="43.47209" lon="6.32371">
        <ele>167.7</ele>
        <time>2023-03-03T15:04:33Z</time>
      </trkpt>
      <trkpt lat="43.47209" lon="6.3237">
        <ele>167.8</ele>
        <time>2023-03-03T15:04:34Z</time>
      </trkpt>
      <trkpt lat="43.4721" lon="6.3237">
        <ele>167.8</ele>
        <time>2023-03-03T15:04:35Z</time>
      </trkpt>
      <trkpt lat="43.47211" lon="6.32369">
        <ele>167.9</ele>
        <time>2023-03-03T15:04:36Z</time>
      </trkpt>
      <trkpt lat="43.47211" lon="6.32368">
        <ele>167.9</ele>
        <time>2023-03-03T15:04:37Z</time>
      </trkpt>
      <trkpt lat="43.47212" lon="6.32368">
        <ele>167.9</ele>
        <time>2023-03-03T15:04:38Z</time>
      </trkpt>
      <trkpt lat="43.47212" lon="6.32368">
        <ele>167.9</ele>
        <time>2023-03-03T15:04:39Z</time>
      </trkpt>
      <trkpt lat="43.47213" lon="6.32368">
        <ele>167.9</ele>
        <time>2023-03-03T15:04:40Z</time>
      </trkpt>
      <trkpt lat="43.47213" lon="6.32368">
        <ele>167.9</ele>
        <time>2023-03-03T15:04:41Z</time>
      </trkpt>
      <trkpt lat="43.47214" lon="6.32368">
        <ele>167.9</ele>
        <time>2023-03-03T15:04:42Z</time>
      </trkpt>
      <trkpt lat="43.47215" lon="6.32367">
        <ele>167.9</ele>
        <time>2023-03-03T15:04:43Z</time>
      </trkpt>
      <trkpt lat="43.47215" lon="6.32367">
        <ele>167.8</ele>
        <time>2023-03-03T15:04:44Z</time>
      </trkpt>
      <trkpt lat="43.47216" lon="6.32366">
        <ele>167.8</ele>
        <time>2023-03-03T15:04:45Z</time>
      </trkpt>
      <trkpt lat="43.47216" lon="6.32366">
        <ele>167.8</ele>
        <time>2023-03-03T15:04:46Z</time>
      </trkpt>
      <trkpt lat="43.47217" lon="6.32365">
        <ele>167.8</ele>
        <time>2023-03-03T15:04:47Z</time>
      </trkpt>
      <trkpt lat="43.47217" lon="6.32364">
        <ele>167.8</ele>
        <time>2023-03-03T15:04:48Z</time>
      </trkpt>
      <trkpt lat="43.47218" lon="6.32363">
        <ele>167.8</ele>
        <time>2023-03-03T15:04:49Z</time>
      </trkpt>
      <trkpt lat="43.47218" lon="6.32362">
        <ele>167.8</ele>
        <time>2023-03-03T15:04:50Z</time>
      </trkpt>
      <trkpt lat="43.47219" lon="6.3236">
        <ele>167.9</ele>
        <time>2023-03-03T15:04:51Z</time>
      </trkpt>
      <trkpt lat="43.47219" lon="6.32359">
        <ele>167.9</ele>
        <time>2023-03-03T15:04:52Z</time>
      </trkpt>
      <trkpt lat="43.47219" lon="6.32358">
        <ele>167.9</ele>
        <time>2023-03-03T15:04:53Z</time>
      </trkpt>
      <trkpt lat="43.4722" lon="6.32358">
        <ele>167.9</ele>
        <time>2023-03-03T15:04:54Z</time>
      </trkpt>
      <trkpt lat="43.47219" lon="6.32357">
        <ele>167.9</ele>
        <time>2023-03-03T15:04:55Z</time>
      </trkpt>
      <trkpt lat="43.4722" lon="6.32356">
        <ele>168</ele>
        <time>2023-03-03T15:04:56Z</time>
      </trkpt>
      <trkpt lat="43.4722" lon="6.32355">
        <ele>168.1</ele>
        <time>2023-03-03T15:04:57Z</time>
      </trkpt>
      <trkpt lat="43.4722" lon="6.32354">
        <ele>168</ele>
        <time>2023-03-03T15:04:58Z</time>
      </trkpt>
      <trkpt lat="43.4722" lon="6.32353">
        <ele>168.1</ele>
        <time>2023-03-03T15:04:59Z</time>
      </trkpt>
      <trkpt lat="43.4722" lon="6.32353">
        <ele>168.1</ele>
        <time>2023-03-03T15:05:00Z</time>
      </trkpt>
      <trkpt lat="43.4722" lon="6.32351">
        <ele>168.1</ele>
        <time>2023-03-03T15:05:01Z</time>
      </trkpt>
      <trkpt lat="43.4722" lon="6.32351">
        <ele>168.1</ele>
        <time>2023-03-03T15:05:02Z</time>
      </trkpt>
      <trkpt lat="43.47219" lon="6.3235">
        <ele>168.2</ele>
        <time>2023-03-03T15:05:03Z</time>
      </trkpt>
      <trkpt lat="43.47219" lon="6.3235">
        <ele>168.2</ele>
        <time>2023-03-03T15:05:04Z</time>
      </trkpt>
      <trkpt lat="43.47219" lon="6.3235">
        <ele>168.2</ele>
        <time>2023-03-03T15:05:05Z</time>
      </trkpt>
      <trkpt lat="43.47219" lon="6.3235">
        <ele>168.3</ele>
        <time>2023-03-03T15:05:06Z</time>
      </trkpt>
      <trkpt lat="43.47219" lon="6.3235">
        <ele>168.4</ele>
        <time>2023-03-03T15:05:07Z</time>
      </trkpt>
      <trkpt lat="43.47219" lon="6.3235">
        <ele>168.5</ele>
        <time>2023-03-03T15:05:08Z</time>
      </trkpt>
      <trkpt lat="43.47219" lon="6.3235">
        <ele>168.5</ele>
        <time>2023-03-03T15:05:09Z</time>
      </trkpt>
      <trkpt lat="43.47219" lon="6.3235">
        <ele>168.5</ele>
        <time>2023-03-03T15:05:10Z</time>
      </trkpt>
      <trkpt lat="43.47219" lon="6.3235">
        <ele>168.5</ele>
        <time>2023-03-03T15:05:11Z</time>
      </trkpt>
      <trkpt lat="43.47219" lon="6.3235">
        <ele>168.6</ele>
        <time>2023-03-03T15:05:12Z</time>
      </trkpt>
      <trkpt lat="43.47219" lon="6.32351">
        <ele>168.6</ele>
        <time>2023-03-03T15:05:13Z</time>
      </trkpt>
      <trkpt lat="43.47219" lon="6.3235">
        <ele>168.6</ele>
        <time>2023-03-03T15:05:14Z</time>
      </trkpt>
      <trkpt lat="43.47219" lon="6.3235">
        <ele>168.7</ele>
        <time>2023-03-03T15:05:15Z</time>
      </trkpt>
      <trkpt lat="43.47219" lon="6.32351">
        <ele>168.7</ele>
        <time>2023-03-03T15:05:16Z</time>
      </trkpt>
      <trkpt lat="43.4722" lon="6.32351">
        <ele>168.6</ele>
        <time>2023-03-03T15:05:17Z</time>
      </trkpt>
      <trkpt lat="43.4722" lon="6.32351">
        <ele>168.6</ele>
        <time>2023-03-03T15:05:18Z</time>
      </trkpt>
      <trkpt lat="43.4722" lon="6.32351">
        <ele>168.5</ele>
        <time>2023-03-03T15:05:19Z</time>
      </trkpt>
      <trkpt lat="43.4722" lon="6.32351">
        <ele>168.4</ele>
        <time>2023-03-03T15:05:20Z</time>
      </trkpt>
      <trkpt lat="43.47221" lon="6.32351">
        <ele>168.4</ele>
        <time>2023-03-03T15:05:21Z</time>
      </trkpt>
      <trkpt lat="43.47221" lon="6.3235">
        <ele>168.4</ele>
        <time>2023-03-03T15:05:22Z</time>
      </trkpt>
      <trkpt lat="43.47221" lon="6.3235">
        <ele>168.4</ele>
        <time>2023-03-03T15:05:23Z</time>
      </trkpt>
      <trkpt lat="43.47222" lon="6.3235">
        <ele>168.4</ele>
        <time>2023-03-03T15:05:24Z</time>
      </trkpt>
      <trkpt lat="43.47221" lon="6.3235">
        <ele>168.3</ele>
        <time>2023-03-03T15:05:25Z</time>
      </trkpt>
      <trkpt lat="43.47221" lon="6.32349">
        <ele>168.3</ele>
        <time>2023-03-03T15:05:26Z</time>
      </trkpt>
      <trkpt lat="43.47221" lon="6.32349">
        <ele>168.3</ele>
        <time>2023-03-03T15:05:27Z</time>
      </trkpt>
      <trkpt lat="43.47221" lon="6.32349">
        <ele>168.3</ele>
        <time>2023-03-03T15:05:28Z</time>
      </trkpt>
      <trkpt lat="43.47221" lon="6.32349">
        <ele>168.3</ele>
        <time>2023-03-03T15:05:29Z</time>
      </trkpt>
      <trkpt lat="43.47221" lon="6.32349">
        <ele>168.3</ele>
        <time>2023-03-03T15:05:30Z</time>
      </trkpt>
      <trkpt lat="43.47221" lon="6.32348">
        <ele>168.2</ele>
        <time>2023-03-03T15:05:31Z</time>
      </trkpt>
      <trkpt lat="43.47221" lon="6.32348">
        <ele>168.1</ele>
        <time>2023-03-03T15:05:32Z</time>
      </trkpt>
      <trkpt lat="43.47221" lon="6.32348">
        <ele>168.1</ele>
        <time>2023-03-03T15:05:33Z</time>
      </trkpt>
      <trkpt lat="43.47222" lon="6.32348">
        <ele>168.1</ele>
        <time>2023-03-03T15:05:34Z</time>
      </trkpt>
      <trkpt lat="43.47222" lon="6.32347">
        <ele>168.1</ele>
        <time>2023-03-03T15:05:35Z</time>
      </trkpt>
      <trkpt lat="43.47222" lon="6.32346">
        <ele>168.1</ele>
        <time>2023-03-03T15:05:36Z</time>
      </trkpt>
      <trkpt lat="43.47223" lon="6.32346">
        <ele>168.1</ele>
        <time>2023-03-03T15:05:37Z</time>
      </trkpt>
      <trkpt lat="43.47223" lon="6.32345">
        <ele>168.1</ele>
        <time>2023-03-03T15:05:38Z</time>
      </trkpt>
      <trkpt lat="43.47223" lon="6.32345">
        <ele>168.2</ele>
        <time>2023-03-03T15:05:39Z</time>
      </trkpt>
      <trkpt lat="43.47223" lon="6.32344">
        <ele>168.2</ele>
        <time>2023-03-03T15:05:40Z</time>
      </trkpt>
      <trkpt lat="43.47223" lon="6.32344">
        <ele>168.3</ele>
        <time>2023-03-03T15:05:41Z</time>
      </trkpt>
      <trkpt lat="43.47223" lon="6.32343">
        <ele>168.3</ele>
        <time>2023-03-03T15:05:42Z</time>
      </trkpt>
      <trkpt lat="43.47223" lon="6.32343">
        <ele>168.3</ele>
        <time>2023-03-03T15:05:43Z</time>
      </trkpt>
      <trkpt lat="43.47223" lon="6.32342">
        <ele>168.3</ele>
        <time>2023-03-03T15:05:44Z</time>
      </trkpt>
      <trkpt lat="43.47223" lon="6.32341">
        <ele>168.3</ele>
        <time>2023-03-03T15:05:45Z</time>
      </trkpt>
      <trkpt lat="43.47223" lon="6.32341">
        <ele>168.3</ele>
        <time>2023-03-03T15:05:46Z</time>
      </trkpt>
      <trkpt lat="43.47223" lon="6.3234">
        <ele>168.2</ele>
        <time>2023-03-03T15:05:47Z</time>
      </trkpt>
      <trkpt lat="43.47224" lon="6.32339">
        <ele>168.2</ele>
        <time>2023-03-03T15:05:48Z</time>
      </trkpt>
      <trkpt lat="43.47224" lon="6.32338">
        <ele>168.2</ele>
        <time>2023-03-03T15:05:49Z</time>
      </trkpt>
      <trkpt lat="43.47224" lon="6.32338">
        <ele>168.2</ele>
        <time>2023-03-03T15:05:50Z</time>
      </trkpt>
      <trkpt lat="43.47224" lon="6.32338">
        <ele>168.2</ele>
        <time>2023-03-03T15:05:51Z</time>
      </trkpt>
      <trkpt lat="43.47224" lon="6.32337">
        <ele>168.2</ele>
        <time>2023-03-03T15:05:52Z</time>
      </trkpt>
      <trkpt lat="43.47224" lon="6.32336">
        <ele>168.3</ele>
        <time>2023-03-03T15:05:53Z</time>
      </trkpt>
      <trkpt lat="43.47225" lon="6.32336">
        <ele>168.3</ele>
        <time>2023-03-03T15:05:54Z</time>
      </trkpt>
      <trkpt lat="43.47225" lon="6.32335">
        <ele>168.3</ele>
        <time>2023-03-03T15:05:55Z</time>
      </trkpt>
      <trkpt lat="43.47226" lon="6.32335">
        <ele>168.5</ele>
        <time>2023-03-03T15:05:56Z</time>
      </trkpt>
      <trkpt lat="43.47226" lon="6.32334">
        <ele>168.6</ele>
        <time>2023-03-03T15:05:57Z</time>
      </trkpt>
      <trkpt lat="43.47227" lon="6.32334">
        <ele>168.7</ele>
        <time>2023-03-03T15:05:58Z</time>
      </trkpt>
      <trkpt lat="43.47227" lon="6.32333">
        <ele>168.7</ele>
        <time>2023-03-03T15:05:59Z</time>
      </trkpt>
      <trkpt lat="43.47228" lon="6.32332">
        <ele>168.7</ele>
        <time>2023-03-03T15:06:00Z</time>
      </trkpt>
      <trkpt lat="43.47228" lon="6.32332">
        <ele>168.7</ele>
        <time>2023-03-03T15:06:01Z</time>
      </trkpt>
      <trkpt lat="43.47229" lon="6.32331">
        <ele>168.8</ele>
        <time>2023-03-03T15:06:02Z</time>
      </trkpt>
      <trkpt lat="43.47229" lon="6.32331">
        <ele>168.8</ele>
        <time>2023-03-03T15:06:03Z</time>
      </trkpt>
      <trkpt lat="43.4723" lon="6.3233">
        <ele>168.8</ele>
        <time>2023-03-03T15:06:04Z</time>
      </trkpt>
      <trkpt lat="43.4723" lon="6.3233">
        <ele>168.9</ele>
        <time>2023-03-03T15:06:05Z</time>
      </trkpt>
      <trkpt lat="43.47231" lon="6.32331">
        <ele>168.9</ele>
        <time>2023-03-03T15:06:06Z</time>
      </trkpt>
      <trkpt lat="43.47231" lon="6.32331">
        <ele>168.9</ele>
        <time>2023-03-03T15:06:07Z</time>
      </trkpt>
      <trkpt lat="43.47232" lon="6.32332">
        <ele>168.9</ele>
        <time>2023-03-03T15:06:08Z</time>
      </trkpt>
      <trkpt lat="43.47233" lon="6.32332">
        <ele>168.8</ele>
        <time>2023-03-03T15:06:09Z</time>
      </trkpt>
      <trkpt lat="43.47234" lon="6.32332">
        <ele>168.8</ele>
        <time>2023-03-03T15:06:10Z</time>
      </trkpt>
      <trkpt lat="43.47234" lon="6.32333">
        <ele>168.7</ele>
        <time>2023-03-03T15:06:11Z</time>
      </trkpt>
      <trkpt lat="43.47235" lon="6.32333">
        <ele>168.6</ele>
        <time>2023-03-03T15:06:12Z</time>
      </trkpt>
      <trkpt lat="43.47236" lon="6.32334">
        <ele>168.5</ele>
        <time>2023-03-03T15:06:13Z</time>
      </trkpt>
      <trkpt lat="43.47236" lon="6.32335">
        <ele>168.4</ele>
        <time>2023-03-03T15:06:14Z</time>
      </trkpt>
      <trkpt lat="43.47237" lon="6.32335">
        <ele>168.4</ele>
        <time>2023-03-03T15:06:15Z</time>
      </trkpt>
      <trkpt lat="43.47238" lon="6.32336">
        <ele>168.3</ele>
        <time>2023-03-03T15:06:16Z</time>
      </trkpt>
      <trkpt lat="43.47239" lon="6.32336">
        <ele>168.2</ele>
        <time>2023-03-03T15:06:17Z</time>
      </trkpt>
      <trkpt lat="43.47239" lon="6.32336">
        <ele>168</ele>
        <time>2023-03-03T15:06:18Z</time>
      </trkpt>
      <trkpt lat="43.4724" lon="6.32336">
        <ele>167.9</ele>
        <time>2023-03-03T15:06:19Z</time>
      </trkpt>
      <trkpt lat="43.4724" lon="6.32336">
        <ele>167.8</ele>
        <time>2023-03-03T15:06:20Z</time>
      </trkpt>
      <trkpt lat="43.47241" lon="6.32336">
        <ele>167.8</ele>
        <time>2023-03-03T15:06:21Z</time>
      </trkpt>
      <trkpt lat="43.47242" lon="6.32335">
        <ele>167.7</ele>
        <time>2023-03-03T15:06:22Z</time>
      </trkpt>
      <trkpt lat="43.47243" lon="6.32333">
        <ele>167.6</ele>
        <time>2023-03-03T15:06:23Z</time>
      </trkpt>
      <trkpt lat="43.47244" lon="6.32332">
        <ele>167.6</ele>
        <time>2023-03-03T15:06:24Z</time>
      </trkpt>
      <trkpt lat="43.47244" lon="6.32331">
        <ele>167.6</ele>
        <time>2023-03-03T15:06:25Z</time>
      </trkpt>
      <trkpt lat="43.47245" lon="6.32331">
        <ele>167.6</ele>
        <time>2023-03-03T15:06:26Z</time>
      </trkpt>
      <trkpt lat="43.47246" lon="6.3233">
        <ele>167.5</ele>
        <time>2023-03-03T15:06:27Z</time>
      </trkpt>
      <trkpt lat="43.47247" lon="6.32329">
        <ele>167.5</ele>
        <time>2023-03-03T15:06:28Z</time>
      </trkpt>
      <trkpt lat="43.47248" lon="6.32329">
        <ele>167.4</ele>
        <time>2023-03-03T15:06:29Z</time>
      </trkpt>
      <trkpt lat="43.47248" lon="6.32328">
        <ele>167.4</ele>
        <time>2023-03-03T15:06:30Z</time>
      </trkpt>
      <trkpt lat="43.47249" lon="6.32327">
        <ele>167.3</ele>
        <time>2023-03-03T15:06:31Z</time>
      </trkpt>
      <trkpt lat="43.47249" lon="6.32326">
        <ele>167.4</ele>
        <time>2023-03-03T15:06:32Z</time>
      </trkpt>
      <trkpt lat="43.4725" lon="6.32325">
        <ele>167.5</ele>
        <time>2023-03-03T15:06:33Z</time>
      </trkpt>
      <trkpt lat="43.47252" lon="6.32325">
        <ele>167.5</ele>
        <time>2023-03-03T15:06:34Z</time>
      </trkpt>
      <trkpt lat="43.47252" lon="6.32324">
        <ele>167.5</ele>
        <time>2023-03-03T15:06:35Z</time>
      </trkpt>
      <trkpt lat="43.47254" lon="6.32323">
        <ele>167.5</ele>
        <time>2023-03-03T15:06:36Z</time>
      </trkpt>
      <trkpt lat="43.47255" lon="6.32323">
        <ele>167.5</ele>
        <time>2023-03-03T15:06:37Z</time>
      </trkpt>
      <trkpt lat="43.47256" lon="6.32323">
        <ele>167.5</ele>
        <time>2023-03-03T15:06:38Z</time>
      </trkpt>
      <trkpt lat="43.47256" lon="6.32323">
        <ele>167.5</ele>
        <time>2023-03-03T15:06:39Z</time>
      </trkpt>
      <trkpt lat="43.47257" lon="6.32323">
        <ele>167.5</ele>
        <time>2023-03-03T15:06:40Z</time>
      </trkpt>
      <trkpt lat="43.47258" lon="6.32322">
        <ele>167.5</ele>
        <time>2023-03-03T15:06:41Z</time>
      </trkpt>
      <trkpt lat="43.47259" lon="6.32322">
        <ele>167.5</ele>
        <time>2023-03-03T15:06:42Z</time>
      </trkpt>
      <trkpt lat="43.4726" lon="6.32321">
        <ele>167.5</ele>
        <time>2023-03-03T15:06:43Z</time>
      </trkpt>
      <trkpt lat="43.47261" lon="6.32321">
        <ele>167.4</ele>
        <time>2023-03-03T15:06:44Z</time>
      </trkpt>
      <trkpt lat="43.47261" lon="6.32321">
        <ele>167.4</ele>
        <time>2023-03-03T15:06:45Z</time>
      </trkpt>
      <trkpt lat="43.47262" lon="6.3232">
        <ele>167.3</ele>
        <time>2023-03-03T15:06:46Z</time>
      </trkpt>
      <trkpt lat="43.47263" lon="6.32319">
        <ele>167.3</ele>
        <time>2023-03-03T15:06:47Z</time>
      </trkpt>
      <trkpt lat="43.47264" lon="6.32319">
        <ele>167.2</ele>
        <time>2023-03-03T15:06:48Z</time>
      </trkpt>
      <trkpt lat="43.47264" lon="6.32318">
        <ele>167.2</ele>
        <time>2023-03-03T15:06:49Z</time>
      </trkpt>
      <trkpt lat="43.47265" lon="6.32318">
        <ele>167</ele>
        <time>2023-03-03T15:06:50Z</time>
      </trkpt>
      <trkpt lat="43.47266" lon="6.32318">
        <ele>166.9</ele>
        <time>2023-03-03T15:06:51Z</time>
      </trkpt>
      <trkpt lat="43.47267" lon="6.32317">
        <ele>166.7</ele>
        <time>2023-03-03T15:06:52Z</time>
      </trkpt>
      <trkpt lat="43.47268" lon="6.32317">
        <ele>166.6</ele>
        <time>2023-03-03T15:06:53Z</time>
      </trkpt>
      <trkpt lat="43.47269" lon="6.32316">
        <ele>166.4</ele>
        <time>2023-03-03T15:06:54Z</time>
      </trkpt>
      <trkpt lat="43.4727" lon="6.32316">
        <ele>166.3</ele>
        <time>2023-03-03T15:06:55Z</time>
      </trkpt>
      <trkpt lat="43.47271" lon="6.32315">
        <ele>166.1</ele>
        <time>2023-03-03T15:06:56Z</time>
      </trkpt>
      <trkpt lat="43.47272" lon="6.32315">
        <ele>166</ele>
        <time>2023-03-03T15:06:57Z</time>
      </trkpt>
      <trkpt lat="43.47273" lon="6.32315">
        <ele>165.9</ele>
        <time>2023-03-03T15:06:58Z</time>
      </trkpt>
      <trkpt lat="43.47274" lon="6.32314">
        <ele>165.8</ele>
        <time>2023-03-03T15:06:59Z</time>
      </trkpt>
      <trkpt lat="43.47275" lon="6.32313">
        <ele>165.6</ele>
        <time>2023-03-03T15:07:00Z</time>
      </trkpt>
      <trkpt lat="43.47276" lon="6.32313">
        <ele>165.5</ele>
        <time>2023-03-03T15:07:01Z</time>
      </trkpt>
      <trkpt lat="43.47277" lon="6.32313">
        <ele>165.3</ele>
        <time>2023-03-03T15:07:02Z</time>
      </trkpt>
      <trkpt lat="43.47278" lon="6.32312">
        <ele>165.2</ele>
        <time>2023-03-03T15:07:03Z</time>
      </trkpt>
      <trkpt lat="43.47279" lon="6.32312">
        <ele>165.1</ele>
        <time>2023-03-03T15:07:04Z</time>
      </trkpt>
      <trkpt lat="43.4728" lon="6.32312">
        <ele>165</ele>
        <time>2023-03-03T15:07:05Z</time>
      </trkpt>
      <trkpt lat="43.4728" lon="6.32312">
        <ele>165</ele>
        <time>2023-03-03T15:07:06Z</time>
      </trkpt>
      <trkpt lat="43.47281" lon="6.32311">
        <ele>164.9</ele>
        <time>2023-03-03T15:07:07Z</time>
      </trkpt>
      <trkpt lat="43.47282" lon="6.32311">
        <ele>164.8</ele>
        <time>2023-03-03T15:07:08Z</time>
      </trkpt>
      <trkpt lat="43.47283" lon="6.3231">
        <ele>164.6</ele>
        <time>2023-03-03T15:07:09Z</time>
      </trkpt>
      <trkpt lat="43.47283" lon="6.3231">
        <ele>164.5</ele>
        <time>2023-03-03T15:07:10Z</time>
      </trkpt>
      <trkpt lat="43.47284" lon="6.3231">
        <ele>164.3</ele>
        <time>2023-03-03T15:07:11Z</time>
      </trkpt>
      <trkpt lat="43.47285" lon="6.32309">
        <ele>164.2</ele>
        <time>2023-03-03T15:07:12Z</time>
      </trkpt>
      <trkpt lat="43.47286" lon="6.32309">
        <ele>164</ele>
        <time>2023-03-03T15:07:13Z</time>
      </trkpt>
      <trkpt lat="43.47287" lon="6.32308">
        <ele>164</ele>
        <time>2023-03-03T15:07:14Z</time>
      </trkpt>
      <trkpt lat="43.47288" lon="6.32308">
        <ele>163.9</ele>
        <time>2023-03-03T15:07:15Z</time>
      </trkpt>
      <trkpt lat="43.47288" lon="6.32308">
        <ele>163.9</ele>
        <time>2023-03-03T15:07:16Z</time>
      </trkpt>
      <trkpt lat="43.47289" lon="6.32308">
        <ele>163.9</ele>
        <time>2023-03-03T15:07:17Z</time>
      </trkpt>
      <trkpt lat="43.47289" lon="6.32308">
        <ele>163.9</ele>
        <time>2023-03-03T15:07:18Z</time>
      </trkpt>
      <trkpt lat="43.4729" lon="6.32308">
        <ele>163.9</ele>
        <time>2023-03-03T15:07:19Z</time>
      </trkpt>
      <trkpt lat="43.47291" lon="6.32308">
        <ele>163.9</ele>
        <time>2023-03-03T15:07:20Z</time>
      </trkpt>
      <trkpt lat="43.47292" lon="6.32307">
        <ele>163.8</ele>
        <time>2023-03-03T15:07:21Z</time>
      </trkpt>
      <trkpt lat="43.47292" lon="6.32307">
        <ele>163.7</ele>
        <time>2023-03-03T15:07:22Z</time>
      </trkpt>
      <trkpt lat="43.47293" lon="6.32307">
        <ele>163.7</ele>
        <time>2023-03-03T15:07:23Z</time>
      </trkpt>
      <trkpt lat="43.47294" lon="6.32307">
        <ele>163.6</ele>
        <time>2023-03-03T15:07:24Z</time>
      </trkpt>
      <trkpt lat="43.47295" lon="6.32307">
        <ele>163.4</ele>
        <time>2023-03-03T15:07:25Z</time>
      </trkpt>
      <trkpt lat="43.47295" lon="6.32308">
        <ele>163.4</ele>
        <time>2023-03-03T15:07:26Z</time>
      </trkpt>
      <trkpt lat="43.47295" lon="6.32309">
        <ele>163.4</ele>
        <time>2023-03-03T15:07:27Z</time>
      </trkpt>
      <trkpt lat="43.47296" lon="6.32309">
        <ele>163.3</ele>
        <time>2023-03-03T15:07:28Z</time>
      </trkpt>
      <trkpt lat="43.47296" lon="6.32309">
        <ele>163.2</ele>
        <time>2023-03-03T15:07:29Z</time>
      </trkpt>
      <trkpt lat="43.47297" lon="6.32308">
        <ele>163.2</ele>
        <time>2023-03-03T15:07:30Z</time>
      </trkpt>
      <trkpt lat="43.47298" lon="6.32309">
        <ele>163.1</ele>
        <time>2023-03-03T15:07:31Z</time>
      </trkpt>
      <trkpt lat="43.47299" lon="6.32309">
        <ele>163</ele>
        <time>2023-03-03T15:07:32Z</time>
      </trkpt>
      <trkpt lat="43.473" lon="6.32308">
        <ele>163.1</ele>
        <time>2023-03-03T15:07:33Z</time>
      </trkpt>
      <trkpt lat="43.47301" lon="6.32308">
        <ele>162.9</ele>
        <time>2023-03-03T15:07:34Z</time>
      </trkpt>
      <trkpt lat="43.47302" lon="6.32308">
        <ele>162.9</ele>
        <time>2023-03-03T15:07:35Z</time>
      </trkpt>
      <trkpt lat="43.47303" lon="6.32307">
        <ele>162.9</ele>
        <time>2023-03-03T15:07:36Z</time>
      </trkpt>
      <trkpt lat="43.47304" lon="6.32307">
        <ele>162.9</ele>
        <time>2023-03-03T15:07:37Z</time>
      </trkpt>
      <trkpt lat="43.47305" lon="6.32307">
        <ele>162.8</ele>
        <time>2023-03-03T15:07:38Z</time>
      </trkpt>
      <trkpt lat="43.47306" lon="6.32308">
        <ele>162.7</ele>
        <time>2023-03-03T15:07:39Z</time>
      </trkpt>
      <trkpt lat="43.47307" lon="6.32308">
        <ele>162.6</ele>
        <time>2023-03-03T15:07:40Z</time>
      </trkpt>
      <trkpt lat="43.47307" lon="6.32308">
        <ele>162.6</ele>
        <time>2023-03-03T15:07:41Z</time>
      </trkpt>
      <trkpt lat="43.47308" lon="6.32307">
        <ele>162.6</ele>
        <time>2023-03-03T15:07:42Z</time>
      </trkpt>
      <trkpt lat="43.4731" lon="6.32306">
        <ele>162.5</ele>
        <time>2023-03-03T15:07:43Z</time>
      </trkpt>
      <trkpt lat="43.4731" lon="6.32306">
        <ele>162.5</ele>
        <time>2023-03-03T15:07:44Z</time>
      </trkpt>
      <trkpt lat="43.47311" lon="6.32306">
        <ele>162.5</ele>
        <time>2023-03-03T15:07:45Z</time>
      </trkpt>
      <trkpt lat="43.47312" lon="6.32306">
        <ele>162.4</ele>
        <time>2023-03-03T15:07:46Z</time>
      </trkpt>
      <trkpt lat="43.47313" lon="6.32305">
        <ele>162.4</ele>
        <time>2023-03-03T15:07:47Z</time>
      </trkpt>
      <trkpt lat="43.47314" lon="6.32305">
        <ele>162.4</ele>
        <time>2023-03-03T15:07:48Z</time>
      </trkpt>
      <trkpt lat="43.47315" lon="6.32305">
        <ele>162.4</ele>
        <time>2023-03-03T15:07:49Z</time>
      </trkpt>
      <trkpt lat="43.47315" lon="6.32304">
        <ele>162.3</ele>
        <time>2023-03-03T15:07:50Z</time>
      </trkpt>
      <trkpt lat="43.47317" lon="6.32304">
        <ele>162.3</ele>
        <time>2023-03-03T15:07:51Z</time>
      </trkpt>
      <trkpt lat="43.47318" lon="6.32304">
        <ele>162.3</ele>
        <time>2023-03-03T15:07:52Z</time>
      </trkpt>
      <trkpt lat="43.47319" lon="6.32304">
        <ele>162.3</ele>
        <time>2023-03-03T15:07:53Z</time>
      </trkpt>
      <trkpt lat="43.47319" lon="6.32304">
        <ele>162.3</ele>
        <time>2023-03-03T15:07:54Z</time>
      </trkpt>
      <trkpt lat="43.4732" lon="6.32305">
        <ele>162.3</ele>
        <time>2023-03-03T15:07:55Z</time>
      </trkpt>
      <trkpt lat="43.47321" lon="6.32304">
        <ele>162.3</ele>
        <time>2023-03-03T15:07:56Z</time>
      </trkpt>
      <trkpt lat="43.47322" lon="6.32304">
        <ele>162.3</ele>
        <time>2023-03-03T15:07:57Z</time>
      </trkpt>
      <trkpt lat="43.47323" lon="6.32304">
        <ele>162.4</ele>
        <time>2023-03-03T15:07:58Z</time>
      </trkpt>
      <trkpt lat="43.47324" lon="6.32304">
        <ele>162.5</ele>
        <time>2023-03-03T15:07:59Z</time>
      </trkpt>
      <trkpt lat="43.47325" lon="6.32304">
        <ele>162.5</ele>
        <time>2023-03-03T15:08:00Z</time>
      </trkpt>
      <trkpt lat="43.47326" lon="6.32304">
        <ele>162.6</ele>
        <time>2023-03-03T15:08:01Z</time>
      </trkpt>
      <trkpt lat="43.47327" lon="6.32303">
        <ele>162.7</ele>
        <time>2023-03-03T15:08:02Z</time>
      </trkpt>
      <trkpt lat="43.47328" lon="6.32303">
        <ele>162.8</ele>
        <time>2023-03-03T15:08:03Z</time>
      </trkpt>
      <trkpt lat="43.47329" lon="6.32304">
        <ele>162.8</ele>
        <time>2023-03-03T15:08:04Z</time>
      </trkpt>
      <trkpt lat="43.47329" lon="6.32304">
        <ele>162.8</ele>
        <time>2023-03-03T15:08:05Z</time>
      </trkpt>
      <trkpt lat="43.4733" lon="6.32304">
        <ele>162.9</ele>
        <time>2023-03-03T15:08:06Z</time>
      </trkpt>
      <trkpt lat="43.4733" lon="6.32304">
        <ele>162.9</ele>
        <time>2023-03-03T15:08:07Z</time>
      </trkpt>
      <trkpt lat="43.47331" lon="6.32303">
        <ele>162.9</ele>
        <time>2023-03-03T15:08:08Z</time>
      </trkpt>
      <trkpt lat="43.47332" lon="6.32303">
        <ele>162.8</ele>
        <time>2023-03-03T15:08:09Z</time>
      </trkpt>
      <trkpt lat="43.47333" lon="6.32303">
        <ele>163</ele>
        <time>2023-03-03T15:08:10Z</time>
      </trkpt>
      <trkpt lat="43.47334" lon="6.32303">
        <ele>163</ele>
        <time>2023-03-03T15:08:11Z</time>
      </trkpt>
      <trkpt lat="43.47334" lon="6.32303">
        <ele>162.9</ele>
        <time>2023-03-03T15:08:12Z</time>
      </trkpt>
      <trkpt lat="43.47335" lon="6.32303">
        <ele>163</ele>
        <time>2023-03-03T15:08:13Z</time>
      </trkpt>
      <trkpt lat="43.47335" lon="6.32303">
        <ele>163</ele>
        <time>2023-03-03T15:08:14Z</time>
      </trkpt>
      <trkpt lat="43.47336" lon="6.32303">
        <ele>163.1</ele>
        <time>2023-03-03T15:08:15Z</time>
      </trkpt>
      <trkpt lat="43.47337" lon="6.32303">
        <ele>163.1</ele>
        <time>2023-03-03T15:08:16Z</time>
      </trkpt>
      <trkpt lat="43.47338" lon="6.32303">
        <ele>163.2</ele>
        <time>2023-03-03T15:08:17Z</time>
      </trkpt>
      <trkpt lat="43.47339" lon="6.32303">
        <ele>163.2</ele>
        <time>2023-03-03T15:08:18Z</time>
      </trkpt>
      <trkpt lat="43.47339" lon="6.32303">
        <ele>163.2</ele>
        <time>2023-03-03T15:08:19Z</time>
      </trkpt>
      <trkpt lat="43.47341" lon="6.32303">
        <ele>163.2</ele>
        <time>2023-03-03T15:08:20Z</time>
      </trkpt>
      <trkpt lat="43.47342" lon="6.32303">
        <ele>163.2</ele>
        <time>2023-03-03T15:08:21Z</time>
      </trkpt>
      <trkpt lat="43.47343" lon="6.32303">
        <ele>163.2</ele>
        <time>2023-03-03T15:08:22Z</time>
      </trkpt>
      <trkpt lat="43.47343" lon="6.32303">
        <ele>163.2</ele>
        <time>2023-03-03T15:08:23Z</time>
      </trkpt>
      <trkpt lat="43.47344" lon="6.32303">
        <ele>163.3</ele>
        <time>2023-03-03T15:08:24Z</time>
      </trkpt>
      <trkpt lat="43.47345" lon="6.32303">
        <ele>163.4</ele>
        <time>2023-03-03T15:08:25Z</time>
      </trkpt>
      <trkpt lat="43.47346" lon="6.32303">
        <ele>163.3</ele>
        <time>2023-03-03T15:08:26Z</time>
      </trkpt>
      <trkpt lat="43.47346" lon="6.32303">
        <ele>163.3</ele>
        <time>2023-03-03T15:08:27Z</time>
      </trkpt>
      <trkpt lat="43.47347" lon="6.32303">
        <ele>163.3</ele>
        <time>2023-03-03T15:08:28Z</time>
      </trkpt>
      <trkpt lat="43.47348" lon="6.32303">
        <ele>163.2</ele>
        <time>2023-03-03T15:08:29Z</time>
      </trkpt>
      <trkpt lat="43.47349" lon="6.32303">
        <ele>163.2</ele>
        <time>2023-03-03T15:08:30Z</time>
      </trkpt>
      <trkpt lat="43.4735" lon="6.32304">
        <ele>163.2</ele>
        <time>2023-03-03T15:08:31Z</time>
      </trkpt>
      <trkpt lat="43.4735" lon="6.32304">
        <ele>163.2</ele>
        <time>2023-03-03T15:08:32Z</time>
      </trkpt>
      <trkpt lat="43.47351" lon="6.32304">
        <ele>163.1</ele>
        <time>2023-03-03T15:08:33Z</time>
      </trkpt>
      <trkpt lat="43.47353" lon="6.32305">
        <ele>163.1</ele>
        <time>2023-03-03T15:08:34Z</time>
      </trkpt>
      <trkpt lat="43.47354" lon="6.32305">
        <ele>163.1</ele>
        <time>2023-03-03T15:08:35Z</time>
      </trkpt>
      <trkpt lat="43.47355" lon="6.32305">
        <ele>163.1</ele>
        <time>2023-03-03T15:08:36Z</time>
      </trkpt>
      <trkpt lat="43.47355" lon="6.32305">
        <ele>163.1</ele>
        <time>2023-03-03T15:08:37Z</time>
      </trkpt>
      <trkpt lat="43.47356" lon="6.32305">
        <ele>163.1</ele>
        <time>2023-03-03T15:08:38Z</time>
      </trkpt>
      <trkpt lat="43.47356" lon="6.32304">
        <ele>163.2</ele>
        <time>2023-03-03T15:08:39Z</time>
      </trkpt>
      <trkpt lat="43.47357" lon="6.32305">
        <ele>163.1</ele>
        <time>2023-03-03T15:08:40Z</time>
      </trkpt>
      <trkpt lat="43.47358" lon="6.32304">
        <ele>163.1</ele>
        <time>2023-03-03T15:08:41Z</time>
      </trkpt>
      <trkpt lat="43.47359" lon="6.32304">
        <ele>163.1</ele>
        <time>2023-03-03T15:08:42Z</time>
      </trkpt>
      <trkpt lat="43.47359" lon="6.32303">
        <ele>163.1</ele>
        <time>2023-03-03T15:08:43Z</time>
      </trkpt>
      <trkpt lat="43.4736" lon="6.32304">
        <ele>163.1</ele>
        <time>2023-03-03T15:08:44Z</time>
      </trkpt>
      <trkpt lat="43.47361" lon="6.32304">
        <ele>163.2</ele>
        <time>2023-03-03T15:08:45Z</time>
      </trkpt>
      <trkpt lat="43.47363" lon="6.32304">
        <ele>163.3</ele>
        <time>2023-03-03T15:08:46Z</time>
      </trkpt>
      <trkpt lat="43.47364" lon="6.32304">
        <ele>163.2</ele>
        <time>2023-03-03T15:08:47Z</time>
      </trkpt>
      <trkpt lat="43.47366" lon="6.32305">
        <ele>163.2</ele>
        <time>2023-03-03T15:08:48Z</time>
      </trkpt>
      <trkpt lat="43.47366" lon="6.32306">
        <ele>163.2</ele>
        <time>2023-03-03T15:08:49Z</time>
      </trkpt>
      <trkpt lat="43.47367" lon="6.32306">
        <ele>163.2</ele>
        <time>2023-03-03T15:08:50Z</time>
      </trkpt>
      <trkpt lat="43.47368" lon="6.32307">
        <ele>163.3</ele>
        <time>2023-03-03T15:08:51Z</time>
      </trkpt>
      <trkpt lat="43.47369" lon="6.32307">
        <ele>163.3</ele>
        <time>2023-03-03T15:08:52Z</time>
      </trkpt>
      <trkpt lat="43.4737" lon="6.32307">
        <ele>163.3</ele>
        <time>2023-03-03T15:08:53Z</time>
      </trkpt>
      <trkpt lat="43.47371" lon="6.32307">
        <ele>163.4</ele>
        <time>2023-03-03T15:08:54Z</time>
      </trkpt>
      <trkpt lat="43.47372" lon="6.32307">
        <ele>163.4</ele>
        <time>2023-03-03T15:08:55Z</time>
      </trkpt>
      <trkpt lat="43.47372" lon="6.32308">
        <ele>163.4</ele>
        <time>2023-03-03T15:08:56Z</time>
      </trkpt>
      <trkpt lat="43.47373" lon="6.32308">
        <ele>163.4</ele>
        <time>2023-03-03T15:08:57Z</time>
      </trkpt>
      <trkpt lat="43.47374" lon="6.32308">
        <ele>163.5</ele>
        <time>2023-03-03T15:08:58Z</time>
      </trkpt>
      <trkpt lat="43.47375" lon="6.32308">
        <ele>163.5</ele>
        <time>2023-03-03T15:08:59Z</time>
      </trkpt>
      <trkpt lat="43.47376" lon="6.32308">
        <ele>163.6</ele>
        <time>2023-03-03T15:09:00Z</time>
      </trkpt>
      <trkpt lat="43.47377" lon="6.32308">
        <ele>163.7</ele>
        <time>2023-03-03T15:09:01Z</time>
      </trkpt>
      <trkpt lat="43.47378" lon="6.32308">
        <ele>163.8</ele>
        <time>2023-03-03T15:09:02Z</time>
      </trkpt>
      <trkpt lat="43.47379" lon="6.32309">
        <ele>163.8</ele>
        <time>2023-03-03T15:09:03Z</time>
      </trkpt>
      <trkpt lat="43.4738" lon="6.3231">
        <ele>163.9</ele>
        <time>2023-03-03T15:09:04Z</time>
      </trkpt>
      <trkpt lat="43.47381" lon="6.32311">
        <ele>163.9</ele>
        <time>2023-03-03T15:09:05Z</time>
      </trkpt>
      <trkpt lat="43.47382" lon="6.32311">
        <ele>164</ele>
        <time>2023-03-03T15:09:06Z</time>
      </trkpt>
      <trkpt lat="43.47383" lon="6.32311">
        <ele>163.9</ele>
        <time>2023-03-03T15:09:07Z</time>
      </trkpt>
      <trkpt lat="43.47384" lon="6.32311">
        <ele>164</ele>
        <time>2023-03-03T15:09:08Z</time>
      </trkpt>
      <trkpt lat="43.47385" lon="6.32311">
        <ele>164</ele>
        <time>2023-03-03T15:09:09Z</time>
      </trkpt>
      <trkpt lat="43.47386" lon="6.32311">
        <ele>164.1</ele>
        <time>2023-03-03T15:09:10Z</time>
      </trkpt>
      <trkpt lat="43.47387" lon="6.32311">
        <ele>164</ele>
        <time>2023-03-03T15:09:11Z</time>
      </trkpt>
      <trkpt lat="43.47388" lon="6.32311">
        <ele>164</ele>
        <time>2023-03-03T15:09:12Z</time>
      </trkpt>
      <trkpt lat="43.47389" lon="6.32311">
        <ele>164.1</ele>
        <time>2023-03-03T15:09:13Z</time>
      </trkpt>
      <trkpt lat="43.4739" lon="6.32312">
        <ele>164.2</ele>
        <time>2023-03-03T15:09:14Z</time>
      </trkpt>
      <trkpt lat="43.47391" lon="6.32312">
        <ele>164.2</ele>
        <time>2023-03-03T15:09:15Z</time>
      </trkpt>
      <trkpt lat="43.47392" lon="6.32312">
        <ele>164.4</ele>
        <time>2023-03-03T15:09:16Z</time>
      </trkpt>
      <trkpt lat="43.47393" lon="6.32312">
        <ele>164.4</ele>
        <time>2023-03-03T15:09:17Z</time>
      </trkpt>
      <trkpt lat="43.47394" lon="6.32312">
        <ele>164.5</ele>
        <time>2023-03-03T15:09:18Z</time>
      </trkpt>
      <trkpt lat="43.47395" lon="6.32312">
        <ele>164.5</ele>
        <time>2023-03-03T15:09:19Z</time>
      </trkpt>
      <trkpt lat="43.47396" lon="6.32312">
        <ele>164.5</ele>
        <time>2023-03-03T15:09:20Z</time>
      </trkpt>
      <trkpt lat="43.47397" lon="6.32313">
        <ele>164.5</ele>
        <time>2023-03-03T15:09:21Z</time>
      </trkpt>
      <trkpt lat="43.47398" lon="6.32313">
        <ele>164.4</ele>
        <time>2023-03-03T15:09:22Z</time>
      </trkpt>
      <trkpt lat="43.474" lon="6.32313">
        <ele>164.4</ele>
        <time>2023-03-03T15:09:23Z</time>
      </trkpt>
      <trkpt lat="43.47401" lon="6.32314">
        <ele>164.5</ele>
        <time>2023-03-03T15:09:24Z</time>
      </trkpt>
      <trkpt lat="43.47403" lon="6.32314">
        <ele>164.5</ele>
        <time>2023-03-03T15:09:25Z</time>
      </trkpt>
      <trkpt lat="43.47404" lon="6.32314">
        <ele>164.5</ele>
        <time>2023-03-03T15:09:26Z</time>
      </trkpt>
      <trkpt lat="43.47405" lon="6.32315">
        <ele>164.5</ele>
        <time>2023-03-03T15:09:27Z</time>
      </trkpt>
      <trkpt lat="43.47406" lon="6.32315">
        <ele>164.5</ele>
        <time>2023-03-03T15:09:28Z</time>
      </trkpt>
      <trkpt lat="43.47407" lon="6.32315">
        <ele>164.6</ele>
        <time>2023-03-03T15:09:29Z</time>
      </trkpt>
      <trkpt lat="43.47407" lon="6.32315">
        <ele>164.6</ele>
        <time>2023-03-03T15:09:30Z</time>
      </trkpt>
      <trkpt lat="43.47408" lon="6.32316">
        <ele>164.6</ele>
        <time>2023-03-03T15:09:31Z</time>
      </trkpt>
      <trkpt lat="43.47409" lon="6.32316">
        <ele>164.7</ele>
        <time>2023-03-03T15:09:32Z</time>
      </trkpt>
      <trkpt lat="43.4741" lon="6.32316">
        <ele>164.7</ele>
        <time>2023-03-03T15:09:33Z</time>
      </trkpt>
      <trkpt lat="43.47411" lon="6.32316">
        <ele>164.8</ele>
        <time>2023-03-03T15:09:34Z</time>
      </trkpt>
      <trkpt lat="43.47411" lon="6.32316">
        <ele>164.8</ele>
        <time>2023-03-03T15:09:35Z</time>
      </trkpt>
      <trkpt lat="43.47412" lon="6.32316">
        <ele>164.8</ele>
        <time>2023-03-03T15:09:36Z</time>
      </trkpt>
      <trkpt lat="43.47413" lon="6.32317">
        <ele>164.9</ele>
        <time>2023-03-03T15:09:37Z</time>
      </trkpt>
      <trkpt lat="43.47414" lon="6.32317">
        <ele>165</ele>
        <time>2023-03-03T15:09:38Z</time>
      </trkpt>
      <trkpt lat="43.47414" lon="6.32318">
        <ele>165</ele>
        <time>2023-03-03T15:09:39Z</time>
      </trkpt>
      <trkpt lat="43.47415" lon="6.32318">
        <ele>165</ele>
        <time>2023-03-03T15:09:40Z</time>
      </trkpt>
      <trkpt lat="43.47416" lon="6.32317">
        <ele>165.1</ele>
        <time>2023-03-03T15:09:41Z</time>
      </trkpt>
      <trkpt lat="43.47417" lon="6.32317">
        <ele>165.1</ele>
        <time>2023-03-03T15:09:42Z</time>
      </trkpt>
      <trkpt lat="43.47417" lon="6.32317">
        <ele>165.1</ele>
        <time>2023-03-03T15:09:43Z</time>
      </trkpt>
      <trkpt lat="43.47418" lon="6.32317">
        <ele>165.1</ele>
        <time>2023-03-03T15:09:44Z</time>
      </trkpt>
      <trkpt lat="43.4742" lon="6.32318">
        <ele>165.1</ele>
        <time>2023-03-03T15:09:45Z</time>
      </trkpt>
      <trkpt lat="43.47421" lon="6.32318">
        <ele>165.2</ele>
        <time>2023-03-03T15:09:46Z</time>
      </trkpt>
      <trkpt lat="43.47422" lon="6.32318">
        <ele>165.2</ele>
        <time>2023-03-03T15:09:47Z</time>
      </trkpt>
      <trkpt lat="43.47423" lon="6.32319">
        <ele>165.1</ele>
        <time>2023-03-03T15:09:48Z</time>
      </trkpt>
      <trkpt lat="43.47424" lon="6.32319">
        <ele>165.1</ele>
        <time>2023-03-03T15:09:49Z</time>
      </trkpt>
      <trkpt lat="43.47426" lon="6.32319">
        <ele>165.1</ele>
        <time>2023-03-03T15:09:50Z</time>
      </trkpt>
      <trkpt lat="43.47427" lon="6.3232">
        <ele>165.1</ele>
        <time>2023-03-03T15:09:51Z</time>
      </trkpt>
      <trkpt lat="43.47428" lon="6.3232">
        <ele>165.1</ele>
        <time>2023-03-03T15:09:52Z</time>
      </trkpt>
      <trkpt lat="43.4743" lon="6.32321">
        <ele>165.1</ele>
        <time>2023-03-03T15:09:53Z</time>
      </trkpt>
      <trkpt lat="43.47431" lon="6.32321">
        <ele>165.1</ele>
        <time>2023-03-03T15:09:54Z</time>
      </trkpt>
      <trkpt lat="43.47432" lon="6.32321">
        <ele>165.1</ele>
        <time>2023-03-03T15:09:55Z</time>
      </trkpt>
      <trkpt lat="43.47433" lon="6.32321">
        <ele>165.1</ele>
        <time>2023-03-03T15:09:56Z</time>
      </trkpt>
      <trkpt lat="43.47434" lon="6.32322">
        <ele>165.2</ele>
        <time>2023-03-03T15:09:57Z</time>
      </trkpt>
      <trkpt lat="43.47435" lon="6.32323">
        <ele>165.2</ele>
        <time>2023-03-03T15:09:58Z</time>
      </trkpt>
      <trkpt lat="43.47436" lon="6.32324">
        <ele>165.2</ele>
        <time>2023-03-03T15:09:59Z</time>
      </trkpt>
      <trkpt lat="43.47437" lon="6.32324">
        <ele>165.2</ele>
        <time>2023-03-03T15:10:00Z</time>
      </trkpt>
      <trkpt lat="43.47438" lon="6.32324">
        <ele>165.2</ele>
        <time>2023-03-03T15:10:01Z</time>
      </trkpt>
      <trkpt lat="43.4744" lon="6.32324">
        <ele>165.2</ele>
        <time>2023-03-03T15:10:02Z</time>
      </trkpt>
      <trkpt lat="43.47441" lon="6.32324">
        <ele>165.3</ele>
        <time>2023-03-03T15:10:03Z</time>
      </trkpt>
      <trkpt lat="43.47442" lon="6.32324">
        <ele>165.3</ele>
        <time>2023-03-03T15:10:04Z</time>
      </trkpt>
      <trkpt lat="43.47443" lon="6.32323">
        <ele>165.3</ele>
        <time>2023-03-03T15:10:05Z</time>
      </trkpt>
      <trkpt lat="43.47444" lon="6.32324">
        <ele>165.3</ele>
        <time>2023-03-03T15:10:06Z</time>
      </trkpt>
      <trkpt lat="43.47445" lon="6.32323">
        <ele>165.3</ele>
        <time>2023-03-03T15:10:07Z</time>
      </trkpt>
      <trkpt lat="43.47447" lon="6.32323">
        <ele>165.2</ele>
        <time>2023-03-03T15:10:08Z</time>
      </trkpt>
      <trkpt lat="43.47448" lon="6.32323">
        <ele>165.3</ele>
        <time>2023-03-03T15:10:09Z</time>
      </trkpt>
      <trkpt lat="43.47449" lon="6.32323">
        <ele>165.3</ele>
        <time>2023-03-03T15:10:10Z</time>
      </trkpt>
      <trkpt lat="43.4745" lon="6.32323">
        <ele>165.3</ele>
        <time>2023-03-03T15:10:11Z</time>
      </trkpt>
      <trkpt lat="43.47451" lon="6.32322">
        <ele>165.4</ele>
        <time>2023-03-03T15:10:12Z</time>
      </trkpt>
      <trkpt lat="43.47452" lon="6.32322">
        <ele>165.4</ele>
        <time>2023-03-03T15:10:13Z</time>
      </trkpt>
      <trkpt lat="43.47453" lon="6.32321">
        <ele>165.5</ele>
        <time>2023-03-03T15:10:14Z</time>
      </trkpt>
      <trkpt lat="43.47454" lon="6.32321">
        <ele>165.5</ele>
        <time>2023-03-03T15:10:15Z</time>
      </trkpt>
      <trkpt lat="43.47455" lon="6.32321">
        <ele>165.6</ele>
        <time>2023-03-03T15:10:16Z</time>
      </trkpt>
      <trkpt lat="43.47456" lon="6.32321">
        <ele>165.7</ele>
        <time>2023-03-03T15:10:17Z</time>
      </trkpt>
      <trkpt lat="43.47456" lon="6.32322">
        <ele>165.8</ele>
        <time>2023-03-03T15:10:18Z</time>
      </trkpt>
      <trkpt lat="43.47457" lon="6.32321">
        <ele>165.8</ele>
        <time>2023-03-03T15:10:19Z</time>
      </trkpt>
      <trkpt lat="43.47459" lon="6.32321">
        <ele>165.9</ele>
        <time>2023-03-03T15:10:20Z</time>
      </trkpt>
      <trkpt lat="43.47459" lon="6.32321">
        <ele>165.9</ele>
        <time>2023-03-03T15:10:21Z</time>
      </trkpt>
      <trkpt lat="43.4746" lon="6.32322">
        <ele>166</ele>
        <time>2023-03-03T15:10:22Z</time>
      </trkpt>
      <trkpt lat="43.47461" lon="6.32322">
        <ele>166.1</ele>
        <time>2023-03-03T15:10:23Z</time>
      </trkpt>
      <trkpt lat="43.47462" lon="6.32323">
        <ele>166</ele>
        <time>2023-03-03T15:10:24Z</time>
      </trkpt>
      <trkpt lat="43.47463" lon="6.32324">
        <ele>166</ele>
        <time>2023-03-03T15:10:25Z</time>
      </trkpt>
      <trkpt lat="43.47464" lon="6.32326">
        <ele>165.9</ele>
        <time>2023-03-03T15:10:26Z</time>
      </trkpt>
      <trkpt lat="43.47465" lon="6.32326">
        <ele>165.9</ele>
        <time>2023-03-03T15:10:27Z</time>
      </trkpt>
      <trkpt lat="43.47466" lon="6.32326">
        <ele>165.9</ele>
        <time>2023-03-03T15:10:28Z</time>
      </trkpt>
      <trkpt lat="43.47466" lon="6.32328">
        <ele>166</ele>
        <time>2023-03-03T15:10:29Z</time>
      </trkpt>
      <trkpt lat="43.47467" lon="6.32328">
        <ele>166</ele>
        <time>2023-03-03T15:10:30Z</time>
      </trkpt>
      <trkpt lat="43.47468" lon="6.32328">
        <ele>166</ele>
        <time>2023-03-03T15:10:31Z</time>
      </trkpt>
      <trkpt lat="43.4747" lon="6.32328">
        <ele>166</ele>
        <time>2023-03-03T15:10:32Z</time>
      </trkpt>
      <trkpt lat="43.47471" lon="6.32328">
        <ele>166</ele>
        <time>2023-03-03T15:10:33Z</time>
      </trkpt>
      <trkpt lat="43.47472" lon="6.32328">
        <ele>166</ele>
        <time>2023-03-03T15:10:34Z</time>
      </trkpt>
      <trkpt lat="43.47472" lon="6.32329">
        <ele>166.1</ele>
        <time>2023-03-03T15:10:35Z</time>
      </trkpt>
      <trkpt lat="43.47473" lon="6.32329">
        <ele>166.1</ele>
        <time>2023-03-03T15:10:36Z</time>
      </trkpt>
      <trkpt lat="43.47473" lon="6.32329">
        <ele>166.1</ele>
        <time>2023-03-03T15:10:37Z</time>
      </trkpt>
      <trkpt lat="43.47474" lon="6.3233">
        <ele>166.1</ele>
        <time>2023-03-03T15:10:38Z</time>
      </trkpt>
      <trkpt lat="43.47475" lon="6.3233">
        <ele>166.1</ele>
        <time>2023-03-03T15:10:39Z</time>
      </trkpt>
      <trkpt lat="43.47476" lon="6.3233">
        <ele>166</ele>
        <time>2023-03-03T15:10:40Z</time>
      </trkpt>
      <trkpt lat="43.47476" lon="6.3233">
        <ele>166</ele>
        <time>2023-03-03T15:10:41Z</time>
      </trkpt>
      <trkpt lat="43.47477" lon="6.32331">
        <ele>166.1</ele>
        <time>2023-03-03T15:10:42Z</time>
      </trkpt>
      <trkpt lat="43.47477" lon="6.3233">
        <ele>166.1</ele>
        <time>2023-03-03T15:10:43Z</time>
      </trkpt>
      <trkpt lat="43.47478" lon="6.3233">
        <ele>166.1</ele>
        <time>2023-03-03T15:10:44Z</time>
      </trkpt>
      <trkpt lat="43.47478" lon="6.32331">
        <ele>166.1</ele>
        <time>2023-03-03T15:10:45Z</time>
      </trkpt>
      <trkpt lat="43.47479" lon="6.32332">
        <ele>166</ele>
        <time>2023-03-03T15:10:46Z</time>
      </trkpt>
      <trkpt lat="43.4748" lon="6.32332">
        <ele>165.9</ele>
        <time>2023-03-03T15:10:47Z</time>
      </trkpt>
      <trkpt lat="43.47481" lon="6.32333">
        <ele>165.9</ele>
        <time>2023-03-03T15:10:48Z</time>
      </trkpt>
      <trkpt lat="43.47482" lon="6.32334">
        <ele>165.8</ele>
        <time>2023-03-03T15:10:49Z</time>
      </trkpt>
      <trkpt lat="43.47483" lon="6.32334">
        <ele>165.8</ele>
        <time>2023-03-03T15:10:50Z</time>
      </trkpt>
      <trkpt lat="43.47483" lon="6.32335">
        <ele>165.7</ele>
        <time>2023-03-03T15:10:51Z</time>
      </trkpt>
      <trkpt lat="43.47484" lon="6.32335">
        <ele>165.7</ele>
        <time>2023-03-03T15:10:52Z</time>
      </trkpt>
      <trkpt lat="43.47485" lon="6.32336">
        <ele>165.7</ele>
        <time>2023-03-03T15:10:53Z</time>
      </trkpt>
      <trkpt lat="43.47486" lon="6.32337">
        <ele>165.7</ele>
        <time>2023-03-03T15:10:54Z</time>
      </trkpt>
      <trkpt lat="43.47487" lon="6.32337">
        <ele>165.7</ele>
        <time>2023-03-03T15:10:55Z</time>
      </trkpt>
      <trkpt lat="43.47488" lon="6.32337">
        <ele>165.6</ele>
        <time>2023-03-03T15:10:56Z</time>
      </trkpt>
      <trkpt lat="43.47488" lon="6.32338">
        <ele>165.6</ele>
        <time>2023-03-03T15:10:57Z</time>
      </trkpt>
      <trkpt lat="43.47489" lon="6.32339">
        <ele>165.6</ele>
        <time>2023-03-03T15:10:58Z</time>
      </trkpt>
      <trkpt lat="43.4749" lon="6.3234">
        <ele>165.6</ele>
        <time>2023-03-03T15:10:59Z</time>
      </trkpt>
      <trkpt lat="43.47491" lon="6.32339">
        <ele>165.7</ele>
        <time>2023-03-03T15:11:00Z</time>
      </trkpt>
      <trkpt lat="43.47492" lon="6.3234">
        <ele>165.6</ele>
        <time>2023-03-03T15:11:01Z</time>
      </trkpt>
      <trkpt lat="43.47493" lon="6.3234">
        <ele>165.6</ele>
        <time>2023-03-03T15:11:02Z</time>
      </trkpt>
      <trkpt lat="43.47494" lon="6.3234">
        <ele>165.7</ele>
        <time>2023-03-03T15:11:03Z</time>
      </trkpt>
      <trkpt lat="43.47495" lon="6.3234">
        <ele>165.7</ele>
        <time>2023-03-03T15:11:04Z</time>
      </trkpt>
      <trkpt lat="43.47495" lon="6.32341">
        <ele>165.7</ele>
        <time>2023-03-03T15:11:05Z</time>
      </trkpt>
      <trkpt lat="43.47496" lon="6.3234">
        <ele>165.7</ele>
        <time>2023-03-03T15:11:06Z</time>
      </trkpt>
      <trkpt lat="43.47496" lon="6.32341">
        <ele>165.7</ele>
        <time>2023-03-03T15:11:07Z</time>
      </trkpt>
      <trkpt lat="43.47497" lon="6.32341">
        <ele>165.6</ele>
        <time>2023-03-03T15:11:08Z</time>
      </trkpt>
      <trkpt lat="43.47498" lon="6.32341">
        <ele>165.5</ele>
        <time>2023-03-03T15:11:09Z</time>
      </trkpt>
      <trkpt lat="43.47499" lon="6.32341">
        <ele>165.4</ele>
        <time>2023-03-03T15:11:10Z</time>
      </trkpt>
      <trkpt lat="43.47499" lon="6.32341">
        <ele>165.3</ele>
        <time>2023-03-03T15:11:11Z</time>
      </trkpt>
      <trkpt lat="43.475" lon="6.32341">
        <ele>165.3</ele>
        <time>2023-03-03T15:11:12Z</time>
      </trkpt>
      <trkpt lat="43.47501" lon="6.32341">
        <ele>165.4</ele>
        <time>2023-03-03T15:11:13Z</time>
      </trkpt>
      <trkpt lat="43.47502" lon="6.3234">
        <ele>165.3</ele>
        <time>2023-03-03T15:11:14Z</time>
      </trkpt>
      <trkpt lat="43.47503" lon="6.3234">
        <ele>165.3</ele>
        <time>2023-03-03T15:11:15Z</time>
      </trkpt>
      <trkpt lat="43.47504" lon="6.3234">
        <ele>165.3</ele>
        <time>2023-03-03T15:11:16Z</time>
      </trkpt>
      <trkpt lat="43.47505" lon="6.32339">
        <ele>165.3</ele>
        <time>2023-03-03T15:11:17Z</time>
      </trkpt>
      <trkpt lat="43.47505" lon="6.3234">
        <ele>165.4</ele>
        <time>2023-03-03T15:11:18Z</time>
      </trkpt>
      <trkpt lat="43.47505" lon="6.3234">
        <ele>165.4</ele>
        <time>2023-03-03T15:11:19Z</time>
      </trkpt>
      <trkpt lat="43.47506" lon="6.3234">
        <ele>165.3</ele>
        <time>2023-03-03T15:11:20Z</time>
      </trkpt>
      <trkpt lat="43.47506" lon="6.32339">
        <ele>165.2</ele>
        <time>2023-03-03T15:11:21Z</time>
      </trkpt>
      <trkpt lat="43.47507" lon="6.32339">
        <ele>165.2</ele>
        <time>2023-03-03T15:11:22Z</time>
      </trkpt>
      <trkpt lat="43.47509" lon="6.32338">
        <ele>165.2</ele>
        <time>2023-03-03T15:11:23Z</time>
      </trkpt>
      <trkpt lat="43.4751" lon="6.32338">
        <ele>165</ele>
        <time>2023-03-03T15:11:24Z</time>
      </trkpt>
      <trkpt lat="43.47511" lon="6.32337">
        <ele>164.9</ele>
        <time>2023-03-03T15:11:25Z</time>
      </trkpt>
      <trkpt lat="43.47512" lon="6.32337">
        <ele>164.9</ele>
        <time>2023-03-03T15:11:26Z</time>
      </trkpt>
      <trkpt lat="43.47512" lon="6.32337">
        <ele>164.9</ele>
        <time>2023-03-03T15:11:27Z</time>
      </trkpt>
      <trkpt lat="43.47513" lon="6.32337">
        <ele>164.8</ele>
        <time>2023-03-03T15:11:28Z</time>
      </trkpt>
      <trkpt lat="43.47513" lon="6.32337">
        <ele>164.7</ele>
        <time>2023-03-03T15:11:29Z</time>
      </trkpt>
      <trkpt lat="43.47515" lon="6.32336">
        <ele>164.7</ele>
        <time>2023-03-03T15:11:30Z</time>
      </trkpt>
      <trkpt lat="43.47516" lon="6.32336">
        <ele>164.6</ele>
        <time>2023-03-03T15:11:31Z</time>
      </trkpt>
      <trkpt lat="43.47517" lon="6.32335">
        <ele>164.6</ele>
        <time>2023-03-03T15:11:32Z</time>
      </trkpt>
      <trkpt lat="43.47518" lon="6.32335">
        <ele>164.6</ele>
        <time>2023-03-03T15:11:33Z</time>
      </trkpt>
      <trkpt lat="43.47518" lon="6.32334">
        <ele>164.6</ele>
        <time>2023-03-03T15:11:34Z</time>
      </trkpt>
      <trkpt lat="43.47519" lon="6.32334">
        <ele>164.6</ele>
        <time>2023-03-03T15:11:35Z</time>
      </trkpt>
      <trkpt lat="43.47519" lon="6.32334">
        <ele>164.6</ele>
        <time>2023-03-03T15:11:36Z</time>
      </trkpt>
      <trkpt lat="43.4752" lon="6.32334">
        <ele>164.6</ele>
        <time>2023-03-03T15:11:37Z</time>
      </trkpt>
      <trkpt lat="43.4752" lon="6.32333">
        <ele>164.6</ele>
        <time>2023-03-03T15:11:38Z</time>
      </trkpt>
      <trkpt lat="43.47521" lon="6.32332">
        <ele>164.6</ele>
        <time>2023-03-03T15:11:39Z</time>
      </trkpt>
      <trkpt lat="43.47523" lon="6.32331">
        <ele>164.6</ele>
        <time>2023-03-03T15:11:40Z</time>
      </trkpt>
      <trkpt lat="43.47524" lon="6.3233">
        <ele>164.6</ele>
        <time>2023-03-03T15:11:41Z</time>
      </trkpt>
      <trkpt lat="43.47525" lon="6.32329">
        <ele>164.7</ele>
        <time>2023-03-03T15:11:42Z</time>
      </trkpt>
      <trkpt lat="43.47526" lon="6.32328">
        <ele>164.7</ele>
        <time>2023-03-03T15:11:43Z</time>
      </trkpt>
      <trkpt lat="43.47527" lon="6.32326">
        <ele>164.7</ele>
        <time>2023-03-03T15:11:44Z</time>
      </trkpt>
      <trkpt lat="43.47528" lon="6.32324">
        <ele>164.8</ele>
        <time>2023-03-03T15:11:45Z</time>
      </trkpt>
      <trkpt lat="43.47529" lon="6.32323">
        <ele>164.8</ele>
        <time>2023-03-03T15:11:46Z</time>
      </trkpt>
      <trkpt lat="43.4753" lon="6.32321">
        <ele>164.8</ele>
        <time>2023-03-03T15:11:47Z</time>
      </trkpt>
      <trkpt lat="43.47531" lon="6.3232">
        <ele>164.8</ele>
        <time>2023-03-03T15:11:48Z</time>
      </trkpt>
      <trkpt lat="43.47531" lon="6.32318">
        <ele>164.9</ele>
        <time>2023-03-03T15:11:49Z</time>
      </trkpt>
      <trkpt lat="43.47531" lon="6.32317">
        <ele>164.9</ele>
        <time>2023-03-03T15:11:50Z</time>
      </trkpt>
      <trkpt lat="43.47531" lon="6.32315">
        <ele>164.9</ele>
        <time>2023-03-03T15:11:51Z</time>
      </trkpt>
      <trkpt lat="43.47532" lon="6.32313">
        <ele>164.9</ele>
        <time>2023-03-03T15:11:52Z</time>
      </trkpt>
      <trkpt lat="43.47532" lon="6.32312">
        <ele>164.9</ele>
        <time>2023-03-03T15:11:53Z</time>
      </trkpt>
      <trkpt lat="43.47533" lon="6.3231">
        <ele>164.8</ele>
        <time>2023-03-03T15:11:54Z</time>
      </trkpt>
      <trkpt lat="43.47532" lon="6.32308">
        <ele>164.8</ele>
        <time>2023-03-03T15:11:55Z</time>
      </trkpt>
      <trkpt lat="43.47532" lon="6.32307">
        <ele>164.8</ele>
        <time>2023-03-03T15:11:56Z</time>
      </trkpt>
      <trkpt lat="43.47532" lon="6.32306">
        <ele>164.8</ele>
        <time>2023-03-03T15:11:57Z</time>
      </trkpt>
      <trkpt lat="43.47531" lon="6.32305">
        <ele>164.7</ele>
        <time>2023-03-03T15:11:58Z</time>
      </trkpt>
      <trkpt lat="43.47531" lon="6.32304">
        <ele>164.6</ele>
        <time>2023-03-03T15:11:59Z</time>
      </trkpt>
      <trkpt lat="43.47531" lon="6.32302">
        <ele>164.6</ele>
        <time>2023-03-03T15:12:00Z</time>
      </trkpt>
      <trkpt lat="43.47531" lon="6.32301">
        <ele>164.6</ele>
        <time>2023-03-03T15:12:01Z</time>
      </trkpt>
      <trkpt lat="43.47531" lon="6.32299">
        <ele>164.6</ele>
        <time>2023-03-03T15:12:02Z</time>
      </trkpt>
      <trkpt lat="43.47531" lon="6.32298">
        <ele>164.6</ele>
        <time>2023-03-03T15:12:03Z</time>
      </trkpt>
      <trkpt lat="43.47531" lon="6.32297">
        <ele>164.5</ele>
        <time>2023-03-03T15:12:04Z</time>
      </trkpt>
      <trkpt lat="43.47531" lon="6.32295">
        <ele>164.4</ele>
        <time>2023-03-03T15:12:05Z</time>
      </trkpt>
      <trkpt lat="43.47531" lon="6.32294">
        <ele>164.4</ele>
        <time>2023-03-03T15:12:06Z</time>
      </trkpt>
      <trkpt lat="43.4753" lon="6.32293">
        <ele>164.4</ele>
        <time>2023-03-03T15:12:07Z</time>
      </trkpt>
      <trkpt lat="43.4753" lon="6.32292">
        <ele>164.3</ele>
        <time>2023-03-03T15:12:08Z</time>
      </trkpt>
      <trkpt lat="43.4753" lon="6.3229">
        <ele>164.3</ele>
        <time>2023-03-03T15:12:09Z</time>
      </trkpt>
      <trkpt lat="43.4753" lon="6.32289">
        <ele>164.3</ele>
        <time>2023-03-03T15:12:10Z</time>
      </trkpt>
      <trkpt lat="43.4753" lon="6.32288">
        <ele>164.3</ele>
        <time>2023-03-03T15:12:11Z</time>
      </trkpt>
      <trkpt lat="43.4753" lon="6.32287">
        <ele>164.2</ele>
        <time>2023-03-03T15:12:12Z</time>
      </trkpt>
      <trkpt lat="43.4753" lon="6.32287">
        <ele>164.2</ele>
        <time>2023-03-03T15:12:13Z</time>
      </trkpt>
      <trkpt lat="43.47531" lon="6.32285">
        <ele>164.2</ele>
        <time>2023-03-03T15:12:14Z</time>
      </trkpt>
      <trkpt lat="43.4753" lon="6.32283">
        <ele>164.2</ele>
        <time>2023-03-03T15:12:15Z</time>
      </trkpt>
      <trkpt lat="43.4753" lon="6.32282">
        <ele>164.1</ele>
        <time>2023-03-03T15:12:16Z</time>
      </trkpt>
      <trkpt lat="43.47529" lon="6.3228">
        <ele>164.1</ele>
        <time>2023-03-03T15:12:17Z</time>
      </trkpt>
      <trkpt lat="43.47529" lon="6.3228">
        <ele>164.1</ele>
        <time>2023-03-03T15:12:18Z</time>
      </trkpt>
      <trkpt lat="43.47529" lon="6.32279">
        <ele>164</ele>
        <time>2023-03-03T15:12:19Z</time>
      </trkpt>
      <trkpt lat="43.47528" lon="6.32278">
        <ele>164</ele>
        <time>2023-03-03T15:12:20Z</time>
      </trkpt>
      <trkpt lat="43.47528" lon="6.32277">
        <ele>163.9</ele>
        <time>2023-03-03T15:12:21Z</time>
      </trkpt>
      <trkpt lat="43.47528" lon="6.32274">
        <ele>163.9</ele>
        <time>2023-03-03T15:12:22Z</time>
      </trkpt>
      <trkpt lat="43.47528" lon="6.32273">
        <ele>163.9</ele>
        <time>2023-03-03T15:12:23Z</time>
      </trkpt>
      <trkpt lat="43.47527" lon="6.32272">
        <ele>163.9</ele>
        <time>2023-03-03T15:12:24Z</time>
      </trkpt>
      <trkpt lat="43.47527" lon="6.3227">
        <ele>163.9</ele>
        <time>2023-03-03T15:12:25Z</time>
      </trkpt>
      <trkpt lat="43.47527" lon="6.32269">
        <ele>164</ele>
        <time>2023-03-03T15:12:26Z</time>
      </trkpt>
      <trkpt lat="43.47528" lon="6.32267">
        <ele>164</ele>
        <time>2023-03-03T15:12:27Z</time>
      </trkpt>
      <trkpt lat="43.47528" lon="6.32266">
        <ele>164</ele>
        <time>2023-03-03T15:12:28Z</time>
      </trkpt>
      <trkpt lat="43.47528" lon="6.32265">
        <ele>164</ele>
        <time>2023-03-03T15:12:29Z</time>
      </trkpt>
      <trkpt lat="43.47528" lon="6.32264">
        <ele>163.9</ele>
        <time>2023-03-03T15:12:30Z</time>
      </trkpt>
      <trkpt lat="43.47528" lon="6.32263">
        <ele>163.8</ele>
        <time>2023-03-03T15:12:31Z</time>
      </trkpt>
      <trkpt lat="43.47528" lon="6.32262">
        <ele>163.8</ele>
        <time>2023-03-03T15:12:32Z</time>
      </trkpt>
      <trkpt lat="43.47529" lon="6.32261">
        <ele>163.9</ele>
        <time>2023-03-03T15:12:33Z</time>
      </trkpt>
      <trkpt lat="43.4753" lon="6.32259">
        <ele>163.9</ele>
        <time>2023-03-03T15:12:34Z</time>
      </trkpt>
      <trkpt lat="43.4753" lon="6.32258">
        <ele>164</ele>
        <time>2023-03-03T15:12:35Z</time>
      </trkpt>
      <trkpt lat="43.47531" lon="6.32257">
        <ele>164</ele>
        <time>2023-03-03T15:12:36Z</time>
      </trkpt>
      <trkpt lat="43.47532" lon="6.32256">
        <ele>163.9</ele>
        <time>2023-03-03T15:12:37Z</time>
      </trkpt>
      <trkpt lat="43.47532" lon="6.32256">
        <ele>163.9</ele>
        <time>2023-03-03T15:12:38Z</time>
      </trkpt>
      <trkpt lat="43.47533" lon="6.32254">
        <ele>163.9</ele>
        <time>2023-03-03T15:12:39Z</time>
      </trkpt>
      <trkpt lat="43.47534" lon="6.32253">
        <ele>163.8</ele>
        <time>2023-03-03T15:12:40Z</time>
      </trkpt>
      <trkpt lat="43.47534" lon="6.32252">
        <ele>163.7</ele>
        <time>2023-03-03T15:12:41Z</time>
      </trkpt>
      <trkpt lat="43.47535" lon="6.32252">
        <ele>163.5</ele>
        <time>2023-03-03T15:12:42Z</time>
      </trkpt>
      <trkpt lat="43.47536" lon="6.32251">
        <ele>163.5</ele>
        <time>2023-03-03T15:12:43Z</time>
      </trkpt>
      <trkpt lat="43.47536" lon="6.3225">
        <ele>163.4</ele>
        <time>2023-03-03T15:12:44Z</time>
      </trkpt>
      <trkpt lat="43.47537" lon="6.32249">
        <ele>163.3</ele>
        <time>2023-03-03T15:12:45Z</time>
      </trkpt>
      <trkpt lat="43.47537" lon="6.32248">
        <ele>163.3</ele>
        <time>2023-03-03T15:12:46Z</time>
      </trkpt>
      <trkpt lat="43.47538" lon="6.32247">
        <ele>163.1</ele>
        <time>2023-03-03T15:12:47Z</time>
      </trkpt>
      <trkpt lat="43.47539" lon="6.32246">
        <ele>163</ele>
        <time>2023-03-03T15:12:48Z</time>
      </trkpt>
      <trkpt lat="43.4754" lon="6.32245">
        <ele>162.9</ele>
        <time>2023-03-03T15:12:49Z</time>
      </trkpt>
      <trkpt lat="43.47541" lon="6.32244">
        <ele>163</ele>
        <time>2023-03-03T15:12:50Z</time>
      </trkpt>
      <trkpt lat="43.47542" lon="6.32243">
        <ele>163</ele>
        <time>2023-03-03T15:12:51Z</time>
      </trkpt>
      <trkpt lat="43.47542" lon="6.32242">
        <ele>163</ele>
        <time>2023-03-03T15:12:52Z</time>
      </trkpt>
      <trkpt lat="43.47543" lon="6.32241">
        <ele>162.9</ele>
        <time>2023-03-03T15:12:53Z</time>
      </trkpt>
      <trkpt lat="43.47544" lon="6.3224">
        <ele>162.8</ele>
        <time>2023-03-03T15:12:54Z</time>
      </trkpt>
      <trkpt lat="43.47545" lon="6.32239">
        <ele>162.7</ele>
        <time>2023-03-03T15:12:55Z</time>
      </trkpt>
      <trkpt lat="43.47546" lon="6.32238">
        <ele>162.6</ele>
        <time>2023-03-03T15:12:56Z</time>
      </trkpt>
      <trkpt lat="43.47547" lon="6.32237">
        <ele>162.4</ele>
        <time>2023-03-03T15:12:57Z</time>
      </trkpt>
      <trkpt lat="43.47547" lon="6.32237">
        <ele>162.3</ele>
        <time>2023-03-03T15:12:58Z</time>
      </trkpt>
      <trkpt lat="43.47548" lon="6.32237">
        <ele>162.1</ele>
        <time>2023-03-03T15:12:59Z</time>
      </trkpt>
      <trkpt lat="43.47548" lon="6.32236">
        <ele>162</ele>
        <time>2023-03-03T15:13:00Z</time>
      </trkpt>
      <trkpt lat="43.47548" lon="6.32236">
        <ele>161.8</ele>
        <time>2023-03-03T15:13:01Z</time>
      </trkpt>
      <trkpt lat="43.47548" lon="6.32235">
        <ele>161.7</ele>
        <time>2023-03-03T15:13:02Z</time>
      </trkpt>
      <trkpt lat="43.47549" lon="6.32234">
        <ele>161.7</ele>
        <time>2023-03-03T15:13:03Z</time>
      </trkpt>
      <trkpt lat="43.47549" lon="6.32233">
        <ele>161.6</ele>
        <time>2023-03-03T15:13:04Z</time>
      </trkpt>
      <trkpt lat="43.4755" lon="6.32233">
        <ele>161.5</ele>
        <time>2023-03-03T15:13:05Z</time>
      </trkpt>
      <trkpt lat="43.47551" lon="6.32232">
        <ele>161.3</ele>
        <time>2023-03-03T15:13:06Z</time>
      </trkpt>
      <trkpt lat="43.47552" lon="6.32232">
        <ele>161.1</ele>
        <time>2023-03-03T15:13:07Z</time>
      </trkpt>
      <trkpt lat="43.47552" lon="6.32231">
        <ele>161</ele>
        <time>2023-03-03T15:13:08Z</time>
      </trkpt>
      <trkpt lat="43.47553" lon="6.3223">
        <ele>160.9</ele>
        <time>2023-03-03T15:13:09Z</time>
      </trkpt>
      <trkpt lat="43.47553" lon="6.32229">
        <ele>160.9</ele>
        <time>2023-03-03T15:13:10Z</time>
      </trkpt>
      <trkpt lat="43.47554" lon="6.3223">
        <ele>160.7</ele>
        <time>2023-03-03T15:13:11Z</time>
      </trkpt>
      <trkpt lat="43.47554" lon="6.32229">
        <ele>160.5</ele>
        <time>2023-03-03T15:13:12Z</time>
      </trkpt>
      <trkpt lat="43.47555" lon="6.32228">
        <ele>160.4</ele>
        <time>2023-03-03T15:13:13Z</time>
      </trkpt>
      <trkpt lat="43.47555" lon="6.32228">
        <ele>160.3</ele>
        <time>2023-03-03T15:13:14Z</time>
      </trkpt>
      <trkpt lat="43.47556" lon="6.32227">
        <ele>160.2</ele>
        <time>2023-03-03T15:13:15Z</time>
      </trkpt>
      <trkpt lat="43.47556" lon="6.32227">
        <ele>160.1</ele>
        <time>2023-03-03T15:13:16Z</time>
      </trkpt>
      <trkpt lat="43.47557" lon="6.32226">
        <ele>160</ele>
        <time>2023-03-03T15:13:17Z</time>
      </trkpt>
      <trkpt lat="43.47557" lon="6.32225">
        <ele>160</ele>
        <time>2023-03-03T15:13:18Z</time>
      </trkpt>
      <trkpt lat="43.47558" lon="6.32224">
        <ele>159.9</ele>
        <time>2023-03-03T15:13:19Z</time>
      </trkpt>
      <trkpt lat="43.47559" lon="6.32223">
        <ele>159.8</ele>
        <time>2023-03-03T15:13:20Z</time>
      </trkpt>
      <trkpt lat="43.47559" lon="6.32223">
        <ele>159.7</ele>
        <time>2023-03-03T15:13:21Z</time>
      </trkpt>
      <trkpt lat="43.47559" lon="6.32223">
        <ele>159.6</ele>
        <time>2023-03-03T15:13:22Z</time>
      </trkpt>
      <trkpt lat="43.4756" lon="6.32222">
        <ele>159.6</ele>
        <time>2023-03-03T15:13:23Z</time>
      </trkpt>
      <trkpt lat="43.47561" lon="6.32222">
        <ele>159.5</ele>
        <time>2023-03-03T15:13:24Z</time>
      </trkpt>
      <trkpt lat="43.47562" lon="6.3222">
        <ele>159.4</ele>
        <time>2023-03-03T15:13:25Z</time>
      </trkpt>
      <trkpt lat="43.47563" lon="6.32219">
        <ele>159.3</ele>
        <time>2023-03-03T15:13:26Z</time>
      </trkpt>
      <trkpt lat="43.47563" lon="6.32218">
        <ele>159.2</ele>
        <time>2023-03-03T15:13:27Z</time>
      </trkpt>
      <trkpt lat="43.47563" lon="6.32218">
        <ele>159.2</ele>
        <time>2023-03-03T15:13:28Z</time>
      </trkpt>
      <trkpt lat="43.47564" lon="6.32217">
        <ele>159</ele>
        <time>2023-03-03T15:13:29Z</time>
      </trkpt>
      <trkpt lat="43.47565" lon="6.32217">
        <ele>159</ele>
        <time>2023-03-03T15:13:30Z</time>
      </trkpt>
      <trkpt lat="43.47566" lon="6.32215">
        <ele>158.9</ele>
        <time>2023-03-03T15:13:31Z</time>
      </trkpt>
      <trkpt lat="43.47566" lon="6.32214">
        <ele>158.8</ele>
        <time>2023-03-03T15:13:32Z</time>
      </trkpt>
      <trkpt lat="43.47567" lon="6.32213">
        <ele>158.8</ele>
        <time>2023-03-03T15:13:33Z</time>
      </trkpt>
      <trkpt lat="43.47568" lon="6.32212">
        <ele>158.6</ele>
        <time>2023-03-03T15:13:34Z</time>
      </trkpt>
      <trkpt lat="43.47568" lon="6.32211">
        <ele>158.5</ele>
        <time>2023-03-03T15:13:35Z</time>
      </trkpt>
      <trkpt lat="43.47569" lon="6.32209">
        <ele>158.4</ele>
        <time>2023-03-03T15:13:36Z</time>
      </trkpt>
      <trkpt lat="43.47569" lon="6.32208">
        <ele>158.3</ele>
        <time>2023-03-03T15:13:37Z</time>
      </trkpt>
      <trkpt lat="43.4757" lon="6.32207">
        <ele>158.2</ele>
        <time>2023-03-03T15:13:38Z</time>
      </trkpt>
      <trkpt lat="43.47571" lon="6.32205">
        <ele>158.1</ele>
        <time>2023-03-03T15:13:39Z</time>
      </trkpt>
      <trkpt lat="43.47571" lon="6.32203">
        <ele>158</ele>
        <time>2023-03-03T15:13:40Z</time>
      </trkpt>
      <trkpt lat="43.47571" lon="6.32203">
        <ele>158</ele>
        <time>2023-03-03T15:13:41Z</time>
      </trkpt>
      <trkpt lat="43.47571" lon="6.32202">
        <ele>157.9</ele>
        <time>2023-03-03T15:13:42Z</time>
      </trkpt>
      <trkpt lat="43.47571" lon="6.32201">
        <ele>157.9</ele>
        <time>2023-03-03T15:13:43Z</time>
      </trkpt>
      <trkpt lat="43.47572" lon="6.32199">
        <ele>158</ele>
        <time>2023-03-03T15:13:44Z</time>
      </trkpt>
      <trkpt lat="43.47572" lon="6.32198">
        <ele>157.9</ele>
        <time>2023-03-03T15:13:45Z</time>
      </trkpt>
      <trkpt lat="43.47572" lon="6.32196">
        <ele>157.9</ele>
        <time>2023-03-03T15:13:46Z</time>
      </trkpt>
      <trkpt lat="43.47572" lon="6.32196">
        <ele>158</ele>
        <time>2023-03-03T15:13:47Z</time>
      </trkpt>
      <trkpt lat="43.47572" lon="6.32194">
        <ele>158</ele>
        <time>2023-03-03T15:13:48Z</time>
      </trkpt>
      <trkpt lat="43.47573" lon="6.32193">
        <ele>158</ele>
        <time>2023-03-03T15:13:49Z</time>
      </trkpt>
      <trkpt lat="43.47573" lon="6.32192">
        <ele>157.9</ele>
        <time>2023-03-03T15:13:50Z</time>
      </trkpt>
      <trkpt lat="43.47573" lon="6.32191">
        <ele>157.9</ele>
        <time>2023-03-03T15:13:51Z</time>
      </trkpt>
      <trkpt lat="43.47574" lon="6.3219">
        <ele>157.7</ele>
        <time>2023-03-03T15:13:52Z</time>
      </trkpt>
      <trkpt lat="43.47575" lon="6.32189">
        <ele>157.7</ele>
        <time>2023-03-03T15:13:53Z</time>
      </trkpt>
      <trkpt lat="43.47575" lon="6.32187">
        <ele>157.6</ele>
        <time>2023-03-03T15:13:54Z</time>
      </trkpt>
      <trkpt lat="43.47576" lon="6.32186">
        <ele>157.5</ele>
        <time>2023-03-03T15:13:55Z</time>
      </trkpt>
      <trkpt lat="43.47577" lon="6.32185">
        <ele>157.5</ele>
        <time>2023-03-03T15:13:56Z</time>
      </trkpt>
      <trkpt lat="43.47578" lon="6.32184">
        <ele>157.4</ele>
        <time>2023-03-03T15:13:57Z</time>
      </trkpt>
      <trkpt lat="43.47578" lon="6.32183">
        <ele>157.4</ele>
        <time>2023-03-03T15:13:58Z</time>
      </trkpt>
      <trkpt lat="43.47579" lon="6.32182">
        <ele>157.4</ele>
        <time>2023-03-03T15:13:59Z</time>
      </trkpt>
      <trkpt lat="43.47579" lon="6.32181">
        <ele>157.4</ele>
        <time>2023-03-03T15:14:00Z</time>
      </trkpt>
      <trkpt lat="43.47579" lon="6.32179">
        <ele>157.3</ele>
        <time>2023-03-03T15:14:01Z</time>
      </trkpt>
      <trkpt lat="43.4758" lon="6.32178">
        <ele>157.2</ele>
        <time>2023-03-03T15:14:02Z</time>
      </trkpt>
      <trkpt lat="43.47581" lon="6.32178">
        <ele>157.2</ele>
        <time>2023-03-03T15:14:03Z</time>
      </trkpt>
      <trkpt lat="43.47582" lon="6.32177">
        <ele>157.1</ele>
        <time>2023-03-03T15:14:04Z</time>
      </trkpt>
      <trkpt lat="43.47582" lon="6.32176">
        <ele>157.1</ele>
        <time>2023-03-03T15:14:05Z</time>
      </trkpt>
      <trkpt lat="43.47583" lon="6.32175">
        <ele>157</ele>
        <time>2023-03-03T15:14:06Z</time>
      </trkpt>
      <trkpt lat="43.47584" lon="6.32173">
        <ele>157</ele>
        <time>2023-03-03T15:14:07Z</time>
      </trkpt>
      <trkpt lat="43.47584" lon="6.32172">
        <ele>156.8</ele>
        <time>2023-03-03T15:14:08Z</time>
      </trkpt>
      <trkpt lat="43.47585" lon="6.32171">
        <ele>156.8</ele>
        <time>2023-03-03T15:14:09Z</time>
      </trkpt>
      <trkpt lat="43.47586" lon="6.3217">
        <ele>156.7</ele>
        <time>2023-03-03T15:14:10Z</time>
      </trkpt>
      <trkpt lat="43.47586" lon="6.32168">
        <ele>156.7</ele>
        <time>2023-03-03T15:14:11Z</time>
      </trkpt>
      <trkpt lat="43.47587" lon="6.32167">
        <ele>156.6</ele>
        <time>2023-03-03T15:14:12Z</time>
      </trkpt>
      <trkpt lat="43.47587" lon="6.32165">
        <ele>156.5</ele>
        <time>2023-03-03T15:14:13Z</time>
      </trkpt>
      <trkpt lat="43.47587" lon="6.32164">
        <ele>156.5</ele>
        <time>2023-03-03T15:14:14Z</time>
      </trkpt>
      <trkpt lat="43.47588" lon="6.32163">
        <ele>156.5</ele>
        <time>2023-03-03T15:14:15Z</time>
      </trkpt>
      <trkpt lat="43.47588" lon="6.32162">
        <ele>156.4</ele>
        <time>2023-03-03T15:14:16Z</time>
      </trkpt>
      <trkpt lat="43.47589" lon="6.3216">
        <ele>156.4</ele>
        <time>2023-03-03T15:14:17Z</time>
      </trkpt>
      <trkpt lat="43.47589" lon="6.32159">
        <ele>156.3</ele>
        <time>2023-03-03T15:14:18Z</time>
      </trkpt>
      <trkpt lat="43.4759" lon="6.32158">
        <ele>156.3</ele>
        <time>2023-03-03T15:14:19Z</time>
      </trkpt>
      <trkpt lat="43.47591" lon="6.32156">
        <ele>156.3</ele>
        <time>2023-03-03T15:14:20Z</time>
      </trkpt>
      <trkpt lat="43.47591" lon="6.32155">
        <ele>156.2</ele>
        <time>2023-03-03T15:14:21Z</time>
      </trkpt>
      <trkpt lat="43.47591" lon="6.32154">
        <ele>156.2</ele>
        <time>2023-03-03T15:14:22Z</time>
      </trkpt>
      <trkpt lat="43.47591" lon="6.32153">
        <ele>156.1</ele>
        <time>2023-03-03T15:14:23Z</time>
      </trkpt>
      <trkpt lat="43.47592" lon="6.32151">
        <ele>156.1</ele>
        <time>2023-03-03T15:14:24Z</time>
      </trkpt>
      <trkpt lat="43.47593" lon="6.32149">
        <ele>156</ele>
        <time>2023-03-03T15:14:25Z</time>
      </trkpt>
      <trkpt lat="43.47593" lon="6.32148">
        <ele>155.9</ele>
        <time>2023-03-03T15:14:26Z</time>
      </trkpt>
      <trkpt lat="43.47593" lon="6.32146">
        <ele>155.9</ele>
        <time>2023-03-03T15:14:27Z</time>
      </trkpt>
      <trkpt lat="43.47594" lon="6.32145">
        <ele>155.8</ele>
        <time>2023-03-03T15:14:28Z</time>
      </trkpt>
      <trkpt lat="43.47594" lon="6.32144">
        <ele>155.7</ele>
        <time>2023-03-03T15:14:29Z</time>
      </trkpt>
      <trkpt lat="43.47594" lon="6.32142">
        <ele>155.7</ele>
        <time>2023-03-03T15:14:30Z</time>
      </trkpt>
      <trkpt lat="43.47594" lon="6.32141">
        <ele>155.6</ele>
        <time>2023-03-03T15:14:31Z</time>
      </trkpt>
      <trkpt lat="43.47595" lon="6.3214">
        <ele>155.5</ele>
        <time>2023-03-03T15:14:32Z</time>
      </trkpt>
      <trkpt lat="43.47595" lon="6.32139">
        <ele>155.4</ele>
        <time>2023-03-03T15:14:33Z</time>
      </trkpt>
      <trkpt lat="43.47596" lon="6.32137">
        <ele>155.3</ele>
        <time>2023-03-03T15:14:34Z</time>
      </trkpt>
      <trkpt lat="43.47596" lon="6.32136">
        <ele>155.2</ele>
        <time>2023-03-03T15:14:35Z</time>
      </trkpt>
      <trkpt lat="43.47597" lon="6.32135">
        <ele>155.1</ele>
        <time>2023-03-03T15:14:36Z</time>
      </trkpt>
      <trkpt lat="43.47598" lon="6.32134">
        <ele>155</ele>
        <time>2023-03-03T15:14:37Z</time>
      </trkpt>
      <trkpt lat="43.47598" lon="6.32133">
        <ele>154.9</ele>
        <time>2023-03-03T15:14:38Z</time>
      </trkpt>
      <trkpt lat="43.47599" lon="6.32132">
        <ele>154.7</ele>
        <time>2023-03-03T15:14:39Z</time>
      </trkpt>
      <trkpt lat="43.47599" lon="6.32131">
        <ele>154.5</ele>
        <time>2023-03-03T15:14:40Z</time>
      </trkpt>
      <trkpt lat="43.476" lon="6.3213">
        <ele>154.3</ele>
        <time>2023-03-03T15:14:41Z</time>
      </trkpt>
      <trkpt lat="43.47601" lon="6.32129">
        <ele>154.3</ele>
        <time>2023-03-03T15:14:42Z</time>
      </trkpt>
      <trkpt lat="43.47602" lon="6.32128">
        <ele>154.2</ele>
        <time>2023-03-03T15:14:43Z</time>
      </trkpt>
      <trkpt lat="43.47603" lon="6.32127">
        <ele>154.1</ele>
        <time>2023-03-03T15:14:44Z</time>
      </trkpt>
      <trkpt lat="43.47603" lon="6.32125">
        <ele>154</ele>
        <time>2023-03-03T15:14:45Z</time>
      </trkpt>
      <trkpt lat="43.47604" lon="6.32124">
        <ele>153.9</ele>
        <time>2023-03-03T15:14:46Z</time>
      </trkpt>
      <trkpt lat="43.47604" lon="6.32123">
        <ele>153.9</ele>
        <time>2023-03-03T15:14:47Z</time>
      </trkpt>
      <trkpt lat="43.47605" lon="6.32121">
        <ele>153.9</ele>
        <time>2023-03-03T15:14:48Z</time>
      </trkpt>
      <trkpt lat="43.47605" lon="6.3212">
        <ele>153.9</ele>
        <time>2023-03-03T15:14:49Z</time>
      </trkpt>
      <trkpt lat="43.47606" lon="6.32119">
        <ele>153.8</ele>
        <time>2023-03-03T15:14:50Z</time>
      </trkpt>
      <trkpt lat="43.47606" lon="6.32117">
        <ele>153.7</ele>
        <time>2023-03-03T15:14:51Z</time>
      </trkpt>
      <trkpt lat="43.47607" lon="6.32116">
        <ele>153.7</ele>
        <time>2023-03-03T15:14:52Z</time>
      </trkpt>
      <trkpt lat="43.47607" lon="6.32114">
        <ele>153.7</ele>
        <time>2023-03-03T15:14:53Z</time>
      </trkpt>
      <trkpt lat="43.47608" lon="6.32114">
        <ele>153.7</ele>
        <time>2023-03-03T15:14:54Z</time>
      </trkpt>
      <trkpt lat="43.47607" lon="6.32114">
        <ele>153.7</ele>
        <time>2023-03-03T15:14:55Z</time>
      </trkpt>
      <trkpt lat="43.47607" lon="6.32113">
        <ele>153.7</ele>
        <time>2023-03-03T15:14:56Z</time>
      </trkpt>
      <trkpt lat="43.47608" lon="6.32112">
        <ele>153.7</ele>
        <time>2023-03-03T15:14:57Z</time>
      </trkpt>
      <trkpt lat="43.47608" lon="6.32112">
        <ele>153.5</ele>
        <time>2023-03-03T15:14:58Z</time>
      </trkpt>
      <trkpt lat="43.47609" lon="6.32112">
        <ele>153.3</ele>
        <time>2023-03-03T15:14:59Z</time>
      </trkpt>
      <trkpt lat="43.47609" lon="6.32112">
        <ele>153.2</ele>
        <time>2023-03-03T15:15:00Z</time>
      </trkpt>
      <trkpt lat="43.4761" lon="6.32112">
        <ele>153</ele>
        <time>2023-03-03T15:15:01Z</time>
      </trkpt>
      <trkpt lat="43.4761" lon="6.32112">
        <ele>152.9</ele>
        <time>2023-03-03T15:15:02Z</time>
      </trkpt>
      <trkpt lat="43.47611" lon="6.32111">
        <ele>152.7</ele>
        <time>2023-03-03T15:15:03Z</time>
      </trkpt>
      <trkpt lat="43.47612" lon="6.32111">
        <ele>152.6</ele>
        <time>2023-03-03T15:15:04Z</time>
      </trkpt>
      <trkpt lat="43.47612" lon="6.32111">
        <ele>152.4</ele>
        <time>2023-03-03T15:15:05Z</time>
      </trkpt>
      <trkpt lat="43.47613" lon="6.32111">
        <ele>152.5</ele>
        <time>2023-03-03T15:15:06Z</time>
      </trkpt>
      <trkpt lat="43.47614" lon="6.32111">
        <ele>152.5</ele>
        <time>2023-03-03T15:15:07Z</time>
      </trkpt>
      <trkpt lat="43.47614" lon="6.32112">
        <ele>152.4</ele>
        <time>2023-03-03T15:15:08Z</time>
      </trkpt>
      <trkpt lat="43.47615" lon="6.32112">
        <ele>152.3</ele>
        <time>2023-03-03T15:15:09Z</time>
      </trkpt>
      <trkpt lat="43.47615" lon="6.32113">
        <ele>152.2</ele>
        <time>2023-03-03T15:15:10Z</time>
      </trkpt>
      <trkpt lat="43.47616" lon="6.32113">
        <ele>152.1</ele>
        <time>2023-03-03T15:15:11Z</time>
      </trkpt>
      <trkpt lat="43.47616" lon="6.32112">
        <ele>151.9</ele>
        <time>2023-03-03T15:15:12Z</time>
      </trkpt>
      <trkpt lat="43.47617" lon="6.32111">
        <ele>151.7</ele>
        <time>2023-03-03T15:15:13Z</time>
      </trkpt>
      <trkpt lat="43.47618" lon="6.3211">
        <ele>151.6</ele>
        <time>2023-03-03T15:15:14Z</time>
      </trkpt>
      <trkpt lat="43.47618" lon="6.3211">
        <ele>151.6</ele>
        <time>2023-03-03T15:15:15Z</time>
      </trkpt>
      <trkpt lat="43.47619" lon="6.32109">
        <ele>151.5</ele>
        <time>2023-03-03T15:15:16Z</time>
      </trkpt>
      <trkpt lat="43.47619" lon="6.32108">
        <ele>151.5</ele>
        <time>2023-03-03T15:15:17Z</time>
      </trkpt>
      <trkpt lat="43.4762" lon="6.32107">
        <ele>151.4</ele>
        <time>2023-03-03T15:15:18Z</time>
      </trkpt>
      <trkpt lat="43.4762" lon="6.32107">
        <ele>151.3</ele>
        <time>2023-03-03T15:15:19Z</time>
      </trkpt>
      <trkpt lat="43.4762" lon="6.32107">
        <ele>151.3</ele>
        <time>2023-03-03T15:15:20Z</time>
      </trkpt>
      <trkpt lat="43.47621" lon="6.32108">
        <ele>151.2</ele>
        <time>2023-03-03T15:15:21Z</time>
      </trkpt>
      <trkpt lat="43.47621" lon="6.32108">
        <ele>151.2</ele>
        <time>2023-03-03T15:15:22Z</time>
      </trkpt>
      <trkpt lat="43.47621" lon="6.32109">
        <ele>151.2</ele>
        <time>2023-03-03T15:15:23Z</time>
      </trkpt>
      <trkpt lat="43.47622" lon="6.32109">
        <ele>151.1</ele>
        <time>2023-03-03T15:15:24Z</time>
      </trkpt>
      <trkpt lat="43.47622" lon="6.32109">
        <ele>151</ele>
        <time>2023-03-03T15:15:25Z</time>
      </trkpt>
      <trkpt lat="43.47623" lon="6.3211">
        <ele>151</ele>
        <time>2023-03-03T15:15:26Z</time>
      </trkpt>
      <trkpt lat="43.47623" lon="6.3211">
        <ele>150.9</ele>
        <time>2023-03-03T15:15:27Z</time>
      </trkpt>
      <trkpt lat="43.47623" lon="6.3211">
        <ele>150.9</ele>
        <time>2023-03-03T15:15:28Z</time>
      </trkpt>
      <trkpt lat="43.47623" lon="6.32111">
        <ele>150.7</ele>
        <time>2023-03-03T15:15:29Z</time>
      </trkpt>
      <trkpt lat="43.47624" lon="6.32112">
        <ele>150.6</ele>
        <time>2023-03-03T15:15:30Z</time>
      </trkpt>
      <trkpt lat="43.47624" lon="6.32112">
        <ele>150.6</ele>
        <time>2023-03-03T15:15:31Z</time>
      </trkpt>
      <trkpt lat="43.47625" lon="6.32112">
        <ele>150.5</ele>
        <time>2023-03-03T15:15:32Z</time>
      </trkpt>
      <trkpt lat="43.47625" lon="6.32113">
        <ele>150.5</ele>
        <time>2023-03-03T15:15:33Z</time>
      </trkpt>
      <trkpt lat="43.47626" lon="6.32113">
        <ele>150.5</ele>
        <time>2023-03-03T15:15:34Z</time>
      </trkpt>
      <trkpt lat="43.47626" lon="6.32113">
        <ele>150.4</ele>
        <time>2023-03-03T15:15:35Z</time>
      </trkpt>
      <trkpt lat="43.47627" lon="6.32114">
        <ele>150.4</ele>
        <time>2023-03-03T15:15:36Z</time>
      </trkpt>
      <trkpt lat="43.47627" lon="6.32115">
        <ele>150.4</ele>
        <time>2023-03-03T15:15:37Z</time>
      </trkpt>
      <trkpt lat="43.47627" lon="6.32116">
        <ele>150.3</ele>
        <time>2023-03-03T15:15:38Z</time>
      </trkpt>
      <trkpt lat="43.47628" lon="6.32116">
        <ele>150.3</ele>
        <time>2023-03-03T15:15:39Z</time>
      </trkpt>
      <trkpt lat="43.47628" lon="6.32116">
        <ele>150.3</ele>
        <time>2023-03-03T15:15:40Z</time>
      </trkpt>
      <trkpt lat="43.47628" lon="6.32116">
        <ele>150.3</ele>
        <time>2023-03-03T15:15:41Z</time>
      </trkpt>
      <trkpt lat="43.47628" lon="6.32117">
        <ele>150.1</ele>
        <time>2023-03-03T15:15:42Z</time>
      </trkpt>
      <trkpt lat="43.47629" lon="6.32117">
        <ele>150</ele>
        <time>2023-03-03T15:15:43Z</time>
      </trkpt>
      <trkpt lat="43.47629" lon="6.32118">
        <ele>149.9</ele>
        <time>2023-03-03T15:15:44Z</time>
      </trkpt>
      <trkpt lat="43.4763" lon="6.32119">
        <ele>149.8</ele>
        <time>2023-03-03T15:15:45Z</time>
      </trkpt>
      <trkpt lat="43.4763" lon="6.32119">
        <ele>149.7</ele>
        <time>2023-03-03T15:15:46Z</time>
      </trkpt>
      <trkpt lat="43.4763" lon="6.32119">
        <ele>149.6</ele>
        <time>2023-03-03T15:15:47Z</time>
      </trkpt>
      <trkpt lat="43.47631" lon="6.3212">
        <ele>149.5</ele>
        <time>2023-03-03T15:15:48Z</time>
      </trkpt>
      <trkpt lat="43.47631" lon="6.3212">
        <ele>149.5</ele>
        <time>2023-03-03T15:15:49Z</time>
      </trkpt>
      <trkpt lat="43.47632" lon="6.32121">
        <ele>149.4</ele>
        <time>2023-03-03T15:15:50Z</time>
      </trkpt>
      <trkpt lat="43.47632" lon="6.32122">
        <ele>149.4</ele>
        <time>2023-03-03T15:15:51Z</time>
      </trkpt>
      <trkpt lat="43.47632" lon="6.32123">
        <ele>149.4</ele>
        <time>2023-03-03T15:15:52Z</time>
      </trkpt>
      <trkpt lat="43.47633" lon="6.32123">
        <ele>149.3</ele>
        <time>2023-03-03T15:15:53Z</time>
      </trkpt>
      <trkpt lat="43.47633" lon="6.32125">
        <ele>149.3</ele>
        <time>2023-03-03T15:15:54Z</time>
      </trkpt>
      <trkpt lat="43.47634" lon="6.32125">
        <ele>149.3</ele>
        <time>2023-03-03T15:15:55Z</time>
      </trkpt>
      <trkpt lat="43.47634" lon="6.32126">
        <ele>149.4</ele>
        <time>2023-03-03T15:15:56Z</time>
      </trkpt>
      <trkpt lat="43.47634" lon="6.32127">
        <ele>149.3</ele>
        <time>2023-03-03T15:15:57Z</time>
      </trkpt>
      <trkpt lat="43.47635" lon="6.32128">
        <ele>149.3</ele>
        <time>2023-03-03T15:15:58Z</time>
      </trkpt>
      <trkpt lat="43.47635" lon="6.32128">
        <ele>149.2</ele>
        <time>2023-03-03T15:15:59Z</time>
      </trkpt>
      <trkpt lat="43.47636" lon="6.32129">
        <ele>149.1</ele>
        <time>2023-03-03T15:16:00Z</time>
      </trkpt>
      <trkpt lat="43.47637" lon="6.32129">
        <ele>149.1</ele>
        <time>2023-03-03T15:16:01Z</time>
      </trkpt>
      <trkpt lat="43.47637" lon="6.3213">
        <ele>149</ele>
        <time>2023-03-03T15:16:02Z</time>
      </trkpt>
      <trkpt lat="43.47638" lon="6.3213">
        <ele>148.9</ele>
        <time>2023-03-03T15:16:03Z</time>
      </trkpt>
      <trkpt lat="43.47638" lon="6.32131">
        <ele>148.9</ele>
        <time>2023-03-03T15:16:04Z</time>
      </trkpt>
      <trkpt lat="43.47638" lon="6.32133">
        <ele>148.9</ele>
        <time>2023-03-03T15:16:05Z</time>
      </trkpt>
      <trkpt lat="43.47638" lon="6.32134">
        <ele>148.8</ele>
        <time>2023-03-03T15:16:06Z</time>
      </trkpt>
      <trkpt lat="43.47639" lon="6.32135">
        <ele>148.8</ele>
        <time>2023-03-03T15:16:07Z</time>
      </trkpt>
      <trkpt lat="43.47639" lon="6.32135">
        <ele>148.8</ele>
        <time>2023-03-03T15:16:08Z</time>
      </trkpt>
      <trkpt lat="43.47639" lon="6.32136">
        <ele>148.8</ele>
        <time>2023-03-03T15:16:09Z</time>
      </trkpt>
      <trkpt lat="43.4764" lon="6.32136">
        <ele>148.8</ele>
        <time>2023-03-03T15:16:10Z</time>
      </trkpt>
      <trkpt lat="43.4764" lon="6.32137">
        <ele>148.7</ele>
        <time>2023-03-03T15:16:11Z</time>
      </trkpt>
      <trkpt lat="43.4764" lon="6.32138">
        <ele>148.7</ele>
        <time>2023-03-03T15:16:12Z</time>
      </trkpt>
      <trkpt lat="43.47641" lon="6.32139">
        <ele>148.6</ele>
        <time>2023-03-03T15:16:13Z</time>
      </trkpt>
      <trkpt lat="43.47641" lon="6.32139">
        <ele>148.6</ele>
        <time>2023-03-03T15:16:14Z</time>
      </trkpt>
      <trkpt lat="43.47641" lon="6.3214">
        <ele>148.6</ele>
        <time>2023-03-03T15:16:15Z</time>
      </trkpt>
      <trkpt lat="43.47642" lon="6.32141">
        <ele>148.5</ele>
        <time>2023-03-03T15:16:16Z</time>
      </trkpt>
      <trkpt lat="43.47642" lon="6.32142">
        <ele>148.4</ele>
        <time>2023-03-03T15:16:17Z</time>
      </trkpt>
      <trkpt lat="43.47642" lon="6.32143">
        <ele>148.3</ele>
        <time>2023-03-03T15:16:18Z</time>
      </trkpt>
      <trkpt lat="43.47642" lon="6.32145">
        <ele>148.3</ele>
        <time>2023-03-03T15:16:19Z</time>
      </trkpt>
      <trkpt lat="43.47642" lon="6.32146">
        <ele>148.2</ele>
        <time>2023-03-03T15:16:20Z</time>
      </trkpt>
      <trkpt lat="43.47643" lon="6.32146">
        <ele>148.2</ele>
        <time>2023-03-03T15:16:21Z</time>
      </trkpt>
      <trkpt lat="43.47643" lon="6.32147">
        <ele>148.1</ele>
        <time>2023-03-03T15:16:22Z</time>
      </trkpt>
      <trkpt lat="43.47644" lon="6.32147">
        <ele>148</ele>
        <time>2023-03-03T15:16:23Z</time>
      </trkpt>
      <trkpt lat="43.47644" lon="6.32148">
        <ele>147.9</ele>
        <time>2023-03-03T15:16:24Z</time>
      </trkpt>
      <trkpt lat="43.47645" lon="6.32149">
        <ele>147.9</ele>
        <time>2023-03-03T15:16:25Z</time>
      </trkpt>
      <trkpt lat="43.47645" lon="6.32149">
        <ele>147.9</ele>
        <time>2023-03-03T15:16:26Z</time>
      </trkpt>
      <trkpt lat="43.47646" lon="6.3215">
        <ele>147.9</ele>
        <time>2023-03-03T15:16:27Z</time>
      </trkpt>
      <trkpt lat="43.47646" lon="6.3215">
        <ele>147.9</ele>
        <time>2023-03-03T15:16:28Z</time>
      </trkpt>
      <trkpt lat="43.47647" lon="6.32151">
        <ele>147.8</ele>
        <time>2023-03-03T15:16:29Z</time>
      </trkpt>
      <trkpt lat="43.47647" lon="6.32152">
        <ele>147.9</ele>
        <time>2023-03-03T15:16:30Z</time>
      </trkpt>
      <trkpt lat="43.47648" lon="6.32153">
        <ele>147.8</ele>
        <time>2023-03-03T15:16:31Z</time>
      </trkpt>
      <trkpt lat="43.47648" lon="6.32154">
        <ele>147.8</ele>
        <time>2023-03-03T15:16:32Z</time>
      </trkpt>
      <trkpt lat="43.47649" lon="6.32154">
        <ele>147.8</ele>
        <time>2023-03-03T15:16:33Z</time>
      </trkpt>
      <trkpt lat="43.47649" lon="6.32155">
        <ele>147.7</ele>
        <time>2023-03-03T15:16:34Z</time>
      </trkpt>
      <trkpt lat="43.47649" lon="6.32156">
        <ele>147.7</ele>
        <time>2023-03-03T15:16:35Z</time>
      </trkpt>
      <trkpt lat="43.4765" lon="6.32157">
        <ele>147.7</ele>
        <time>2023-03-03T15:16:36Z</time>
      </trkpt>
      <trkpt lat="43.4765" lon="6.32158">
        <ele>147.7</ele>
        <time>2023-03-03T15:16:37Z</time>
      </trkpt>
      <trkpt lat="43.47651" lon="6.32159">
        <ele>147.6</ele>
        <time>2023-03-03T15:16:38Z</time>
      </trkpt>
      <trkpt lat="43.47651" lon="6.32159">
        <ele>147.5</ele>
        <time>2023-03-03T15:16:39Z</time>
      </trkpt>
      <trkpt lat="43.47652" lon="6.3216">
        <ele>147.3</ele>
        <time>2023-03-03T15:16:40Z</time>
      </trkpt>
      <trkpt lat="43.47652" lon="6.32161">
        <ele>147.3</ele>
        <time>2023-03-03T15:16:41Z</time>
      </trkpt>
      <trkpt lat="43.47653" lon="6.32161">
        <ele>147.2</ele>
        <time>2023-03-03T15:16:42Z</time>
      </trkpt>
      <trkpt lat="43.47653" lon="6.32163">
        <ele>147.2</ele>
        <time>2023-03-03T15:16:43Z</time>
      </trkpt>
      <trkpt lat="43.47653" lon="6.32163">
        <ele>147.1</ele>
        <time>2023-03-03T15:16:44Z</time>
      </trkpt>
      <trkpt lat="43.47654" lon="6.32164">
        <ele>147</ele>
        <time>2023-03-03T15:16:45Z</time>
      </trkpt>
      <trkpt lat="43.47654" lon="6.32165">
        <ele>146.9</ele>
        <time>2023-03-03T15:16:46Z</time>
      </trkpt>
      <trkpt lat="43.47655" lon="6.32165">
        <ele>146.9</ele>
        <time>2023-03-03T15:16:47Z</time>
      </trkpt>
      <trkpt lat="43.47656" lon="6.32166">
        <ele>146.9</ele>
        <time>2023-03-03T15:16:48Z</time>
      </trkpt>
      <trkpt lat="43.47656" lon="6.32167">
        <ele>146.9</ele>
        <time>2023-03-03T15:16:49Z</time>
      </trkpt>
      <trkpt lat="43.47656" lon="6.32168">
        <ele>146.8</ele>
        <time>2023-03-03T15:16:50Z</time>
      </trkpt>
      <trkpt lat="43.47656" lon="6.32169">
        <ele>146.8</ele>
        <time>2023-03-03T15:16:51Z</time>
      </trkpt>
      <trkpt lat="43.47656" lon="6.3217">
        <ele>146.8</ele>
        <time>2023-03-03T15:16:52Z</time>
      </trkpt>
      <trkpt lat="43.47656" lon="6.32171">
        <ele>146.7</ele>
        <time>2023-03-03T15:16:53Z</time>
      </trkpt>
      <trkpt lat="43.47657" lon="6.32171">
        <ele>146.7</ele>
        <time>2023-03-03T15:16:54Z</time>
      </trkpt>
      <trkpt lat="43.47657" lon="6.32172">
        <ele>146.6</ele>
        <time>2023-03-03T15:16:55Z</time>
      </trkpt>
      <trkpt lat="43.47658" lon="6.32173">
        <ele>146.6</ele>
        <time>2023-03-03T15:16:56Z</time>
      </trkpt>
      <trkpt lat="43.47658" lon="6.32173">
        <ele>146.6</ele>
        <time>2023-03-03T15:16:57Z</time>
      </trkpt>
      <trkpt lat="43.47658" lon="6.32174">
        <ele>146.5</ele>
        <time>2023-03-03T15:16:58Z</time>
      </trkpt>
      <trkpt lat="43.47659" lon="6.32174">
        <ele>146.5</ele>
        <time>2023-03-03T15:16:59Z</time>
      </trkpt>
      <trkpt lat="43.47659" lon="6.32175">
        <ele>146.4</ele>
        <time>2023-03-03T15:17:00Z</time>
      </trkpt>
      <trkpt lat="43.47659" lon="6.32176">
        <ele>146.3</ele>
        <time>2023-03-03T15:17:01Z</time>
      </trkpt>
      <trkpt lat="43.47659" lon="6.32176">
        <ele>146.2</ele>
        <time>2023-03-03T15:17:02Z</time>
      </trkpt>
      <trkpt lat="43.4766" lon="6.32177">
        <ele>146.2</ele>
        <time>2023-03-03T15:17:03Z</time>
      </trkpt>
      <trkpt lat="43.47661" lon="6.32177">
        <ele>146.1</ele>
        <time>2023-03-03T15:17:04Z</time>
      </trkpt>
      <trkpt lat="43.47661" lon="6.32178">
        <ele>146</ele>
        <time>2023-03-03T15:17:05Z</time>
      </trkpt>
      <trkpt lat="43.47662" lon="6.32179">
        <ele>145.9</ele>
        <time>2023-03-03T15:17:06Z</time>
      </trkpt>
      <trkpt lat="43.47662" lon="6.32179">
        <ele>145.8</ele>
        <time>2023-03-03T15:17:07Z</time>
      </trkpt>
      <trkpt lat="43.47663" lon="6.3218">
        <ele>145.7</ele>
        <time>2023-03-03T15:17:08Z</time>
      </trkpt>
      <trkpt lat="43.47663" lon="6.3218">
        <ele>145.7</ele>
        <time>2023-03-03T15:17:09Z</time>
      </trkpt>
      <trkpt lat="43.47664" lon="6.32181">
        <ele>145.7</ele>
        <time>2023-03-03T15:17:10Z</time>
      </trkpt>
      <trkpt lat="43.47664" lon="6.32182">
        <ele>145.6</ele>
        <time>2023-03-03T15:17:11Z</time>
      </trkpt>
      <trkpt lat="43.47665" lon="6.32183">
        <ele>145.6</ele>
        <time>2023-03-03T15:17:12Z</time>
      </trkpt>
      <trkpt lat="43.47665" lon="6.32184">
        <ele>145.6</ele>
        <time>2023-03-03T15:17:13Z</time>
      </trkpt>
      <trkpt lat="43.47666" lon="6.32185">
        <ele>145.6</ele>
        <time>2023-03-03T15:17:14Z</time>
      </trkpt>
      <trkpt lat="43.47666" lon="6.32185">
        <ele>145.6</ele>
        <time>2023-03-03T15:17:15Z</time>
      </trkpt>
      <trkpt lat="43.47667" lon="6.32187">
        <ele>145.6</ele>
        <time>2023-03-03T15:17:16Z</time>
      </trkpt>
      <trkpt lat="43.47668" lon="6.32187">
        <ele>145.6</ele>
        <time>2023-03-03T15:17:17Z</time>
      </trkpt>
      <trkpt lat="43.47668" lon="6.32188">
        <ele>145.5</ele>
        <time>2023-03-03T15:17:18Z</time>
      </trkpt>
      <trkpt lat="43.47669" lon="6.32189">
        <ele>145.5</ele>
        <time>2023-03-03T15:17:19Z</time>
      </trkpt>
      <trkpt lat="43.47669" lon="6.32189">
        <ele>145.5</ele>
        <time>2023-03-03T15:17:20Z</time>
      </trkpt>
      <trkpt lat="43.4767" lon="6.3219">
        <ele>145.5</ele>
        <time>2023-03-03T15:17:21Z</time>
      </trkpt>
      <trkpt lat="43.4767" lon="6.3219">
        <ele>145.5</ele>
        <time>2023-03-03T15:17:22Z</time>
      </trkpt>
      <trkpt lat="43.47671" lon="6.32191">
        <ele>145.5</ele>
        <time>2023-03-03T15:17:23Z</time>
      </trkpt>
      <trkpt lat="43.47671" lon="6.32192">
        <ele>145.4</ele>
        <time>2023-03-03T15:17:24Z</time>
      </trkpt>
      <trkpt lat="43.47671" lon="6.32193">
        <ele>145.4</ele>
        <time>2023-03-03T15:17:25Z</time>
      </trkpt>
      <trkpt lat="43.47671" lon="6.32194">
        <ele>145.3</ele>
        <time>2023-03-03T15:17:26Z</time>
      </trkpt>
      <trkpt lat="43.47672" lon="6.32195">
        <ele>145.2</ele>
        <time>2023-03-03T15:17:27Z</time>
      </trkpt>
      <trkpt lat="43.47672" lon="6.32196">
        <ele>145.2</ele>
        <time>2023-03-03T15:17:28Z</time>
      </trkpt>
      <trkpt lat="43.47672" lon="6.32197">
        <ele>145.1</ele>
        <time>2023-03-03T15:17:29Z</time>
      </trkpt>
      <trkpt lat="43.47672" lon="6.32198">
        <ele>145</ele>
        <time>2023-03-03T15:17:30Z</time>
      </trkpt>
      <trkpt lat="43.47673" lon="6.32199">
        <ele>144.9</ele>
        <time>2023-03-03T15:17:31Z</time>
      </trkpt>
      <trkpt lat="43.47673" lon="6.322">
        <ele>144.8</ele>
        <time>2023-03-03T15:17:32Z</time>
      </trkpt>
      <trkpt lat="43.47674" lon="6.32201">
        <ele>144.7</ele>
        <time>2023-03-03T15:17:33Z</time>
      </trkpt>
      <trkpt lat="43.47674" lon="6.32202">
        <ele>144.7</ele>
        <time>2023-03-03T15:17:34Z</time>
      </trkpt>
      <trkpt lat="43.47675" lon="6.32203">
        <ele>144.7</ele>
        <time>2023-03-03T15:17:35Z</time>
      </trkpt>
      <trkpt lat="43.47676" lon="6.32203">
        <ele>144.6</ele>
        <time>2023-03-03T15:17:36Z</time>
      </trkpt>
      <trkpt lat="43.47676" lon="6.32204">
        <ele>144.6</ele>
        <time>2023-03-03T15:17:37Z</time>
      </trkpt>
      <trkpt lat="43.47677" lon="6.32205">
        <ele>144.6</ele>
        <time>2023-03-03T15:17:38Z</time>
      </trkpt>
      <trkpt lat="43.47677" lon="6.32206">
        <ele>144.6</ele>
        <time>2023-03-03T15:17:39Z</time>
      </trkpt>
      <trkpt lat="43.47677" lon="6.32206">
        <ele>144.5</ele>
        <time>2023-03-03T15:17:40Z</time>
      </trkpt>
      <trkpt lat="43.47677" lon="6.32207">
        <ele>144.5</ele>
        <time>2023-03-03T15:17:41Z</time>
      </trkpt>
      <trkpt lat="43.47678" lon="6.32208">
        <ele>144.5</ele>
        <time>2023-03-03T15:17:42Z</time>
      </trkpt>
      <trkpt lat="43.47678" lon="6.32209">
        <ele>144.4</ele>
        <time>2023-03-03T15:17:43Z</time>
      </trkpt>
      <trkpt lat="43.47678" lon="6.3221">
        <ele>144.4</ele>
        <time>2023-03-03T15:17:44Z</time>
      </trkpt>
      <trkpt lat="43.47679" lon="6.32211">
        <ele>144.3</ele>
        <time>2023-03-03T15:17:45Z</time>
      </trkpt>
      <trkpt lat="43.47679" lon="6.32211">
        <ele>144.2</ele>
        <time>2023-03-03T15:17:46Z</time>
      </trkpt>
      <trkpt lat="43.4768" lon="6.32213">
        <ele>144.2</ele>
        <time>2023-03-03T15:17:47Z</time>
      </trkpt>
      <trkpt lat="43.4768" lon="6.32213">
        <ele>144.2</ele>
        <time>2023-03-03T15:17:48Z</time>
      </trkpt>
      <trkpt lat="43.47681" lon="6.32214">
        <ele>144.1</ele>
        <time>2023-03-03T15:17:49Z</time>
      </trkpt>
      <trkpt lat="43.47681" lon="6.32215">
        <ele>143.9</ele>
        <time>2023-03-03T15:17:50Z</time>
      </trkpt>
      <trkpt lat="43.47682" lon="6.32216">
        <ele>143.8</ele>
        <time>2023-03-03T15:17:51Z</time>
      </trkpt>
      <trkpt lat="43.47682" lon="6.32217">
        <ele>143.8</ele>
        <time>2023-03-03T15:17:52Z</time>
      </trkpt>
      <trkpt lat="43.47683" lon="6.32218">
        <ele>143.8</ele>
        <time>2023-03-03T15:17:53Z</time>
      </trkpt>
      <trkpt lat="43.47683" lon="6.32219">
        <ele>143.8</ele>
        <time>2023-03-03T15:17:54Z</time>
      </trkpt>
      <trkpt lat="43.47683" lon="6.3222">
        <ele>143.6</ele>
        <time>2023-03-03T15:17:55Z</time>
      </trkpt>
      <trkpt lat="43.47684" lon="6.32221">
        <ele>143.4</ele>
        <time>2023-03-03T15:17:56Z</time>
      </trkpt>
      <trkpt lat="43.47684" lon="6.32222">
        <ele>143.2</ele>
        <time>2023-03-03T15:17:57Z</time>
      </trkpt>
      <trkpt lat="43.47685" lon="6.32223">
        <ele>143.1</ele>
        <time>2023-03-03T15:17:58Z</time>
      </trkpt>
      <trkpt lat="43.47686" lon="6.32224">
        <ele>143</ele>
        <time>2023-03-03T15:17:59Z</time>
      </trkpt>
      <trkpt lat="43.47686" lon="6.32224">
        <ele>142.9</ele>
        <time>2023-03-03T15:18:00Z</time>
      </trkpt>
      <trkpt lat="43.47687" lon="6.32225">
        <ele>142.9</ele>
        <time>2023-03-03T15:18:01Z</time>
      </trkpt>
      <trkpt lat="43.47687" lon="6.32226">
        <ele>142.8</ele>
        <time>2023-03-03T15:18:02Z</time>
      </trkpt>
      <trkpt lat="43.47688" lon="6.32226">
        <ele>142.8</ele>
        <time>2023-03-03T15:18:03Z</time>
      </trkpt>
      <trkpt lat="43.47688" lon="6.32227">
        <ele>142.7</ele>
        <time>2023-03-03T15:18:04Z</time>
      </trkpt>
      <trkpt lat="43.47689" lon="6.32228">
        <ele>142.6</ele>
        <time>2023-03-03T15:18:05Z</time>
      </trkpt>
      <trkpt lat="43.47689" lon="6.32228">
        <ele>142.6</ele>
        <time>2023-03-03T15:18:06Z</time>
      </trkpt>
      <trkpt lat="43.4769" lon="6.32229">
        <ele>142.5</ele>
        <time>2023-03-03T15:18:07Z</time>
      </trkpt>
      <trkpt lat="43.4769" lon="6.32229">
        <ele>142.3</ele>
        <time>2023-03-03T15:18:08Z</time>
      </trkpt>
      <trkpt lat="43.47691" lon="6.3223">
        <ele>142.3</ele>
        <time>2023-03-03T15:18:09Z</time>
      </trkpt>
      <trkpt lat="43.47692" lon="6.3223">
        <ele>142.2</ele>
        <time>2023-03-03T15:18:10Z</time>
      </trkpt>
      <trkpt lat="43.47691" lon="6.32232">
        <ele>142.2</ele>
        <time>2023-03-03T15:18:11Z</time>
      </trkpt>
      <trkpt lat="43.47691" lon="6.32233">
        <ele>142.2</ele>
        <time>2023-03-03T15:18:12Z</time>
      </trkpt>
      <trkpt lat="43.47692" lon="6.32234">
        <ele>142</ele>
        <time>2023-03-03T15:18:13Z</time>
      </trkpt>
      <trkpt lat="43.47692" lon="6.32235">
        <ele>141.9</ele>
        <time>2023-03-03T15:18:14Z</time>
      </trkpt>
      <trkpt lat="43.47693" lon="6.32236">
        <ele>141.9</ele>
        <time>2023-03-03T15:18:15Z</time>
      </trkpt>
      <trkpt lat="43.47693" lon="6.32237">
        <ele>141.7</ele>
        <time>2023-03-03T15:18:16Z</time>
      </trkpt>
      <trkpt lat="43.47694" lon="6.32238">
        <ele>141.6</ele>
        <time>2023-03-03T15:18:17Z</time>
      </trkpt>
      <trkpt lat="43.47694" lon="6.32239">
        <ele>141.5</ele>
        <time>2023-03-03T15:18:18Z</time>
      </trkpt>
      <trkpt lat="43.47694" lon="6.3224">
        <ele>141.4</ele>
        <time>2023-03-03T15:18:19Z</time>
      </trkpt>
      <trkpt lat="43.47694" lon="6.32241">
        <ele>141.3</ele>
        <time>2023-03-03T15:18:20Z</time>
      </trkpt>
      <trkpt lat="43.47695" lon="6.32241">
        <ele>141.2</ele>
        <time>2023-03-03T15:18:21Z</time>
      </trkpt>
      <trkpt lat="43.47695" lon="6.32242">
        <ele>141.1</ele>
        <time>2023-03-03T15:18:22Z</time>
      </trkpt>
      <trkpt lat="43.47695" lon="6.32242">
        <ele>141.1</ele>
        <time>2023-03-03T15:18:23Z</time>
      </trkpt>
      <trkpt lat="43.47695" lon="6.32243">
        <ele>141</ele>
        <time>2023-03-03T15:18:24Z</time>
      </trkpt>
      <trkpt lat="43.47695" lon="6.32244">
        <ele>141</ele>
        <time>2023-03-03T15:18:25Z</time>
      </trkpt>
      <trkpt lat="43.47696" lon="6.32246">
        <ele>141</ele>
        <time>2023-03-03T15:18:26Z</time>
      </trkpt>
      <trkpt lat="43.47696" lon="6.32246">
        <ele>140.9</ele>
        <time>2023-03-03T15:18:27Z</time>
      </trkpt>
      <trkpt lat="43.47697" lon="6.32247">
        <ele>140.8</ele>
        <time>2023-03-03T15:18:28Z</time>
      </trkpt>
      <trkpt lat="43.47696" lon="6.32248">
        <ele>140.7</ele>
        <time>2023-03-03T15:18:29Z</time>
      </trkpt>
      <trkpt lat="43.47697" lon="6.32249">
        <ele>140.6</ele>
        <time>2023-03-03T15:18:30Z</time>
      </trkpt>
      <trkpt lat="43.47697" lon="6.32249">
        <ele>140.5</ele>
        <time>2023-03-03T15:18:31Z</time>
      </trkpt>
      <trkpt lat="43.47697" lon="6.32251">
        <ele>140.3</ele>
        <time>2023-03-03T15:18:32Z</time>
      </trkpt>
      <trkpt lat="43.47697" lon="6.32251">
        <ele>140.2</ele>
        <time>2023-03-03T15:18:33Z</time>
      </trkpt>
      <trkpt lat="43.47697" lon="6.32252">
        <ele>140.1</ele>
        <time>2023-03-03T15:18:34Z</time>
      </trkpt>
      <trkpt lat="43.47697" lon="6.32252">
        <ele>140.1</ele>
        <time>2023-03-03T15:18:35Z</time>
      </trkpt>
      <trkpt lat="43.47697" lon="6.32253">
        <ele>139.9</ele>
        <time>2023-03-03T15:18:36Z</time>
      </trkpt>
      <trkpt lat="43.47697" lon="6.32254">
        <ele>139.8</ele>
        <time>2023-03-03T15:18:37Z</time>
      </trkpt>
      <trkpt lat="43.47698" lon="6.32254">
        <ele>139.8</ele>
        <time>2023-03-03T15:18:38Z</time>
      </trkpt>
      <trkpt lat="43.47698" lon="6.32255">
        <ele>139.7</ele>
        <time>2023-03-03T15:18:39Z</time>
      </trkpt>
      <trkpt lat="43.47698" lon="6.32256">
        <ele>139.7</ele>
        <time>2023-03-03T15:18:40Z</time>
      </trkpt>
      <trkpt lat="43.47699" lon="6.32256">
        <ele>139.7</ele>
        <time>2023-03-03T15:18:41Z</time>
      </trkpt>
      <trkpt lat="43.47699" lon="6.32256">
        <ele>139.7</ele>
        <time>2023-03-03T15:18:42Z</time>
      </trkpt>
      <trkpt lat="43.47699" lon="6.32257">
        <ele>139.6</ele>
        <time>2023-03-03T15:18:43Z</time>
      </trkpt>
      <trkpt lat="43.47699" lon="6.32258">
        <ele>139.6</ele>
        <time>2023-03-03T15:18:44Z</time>
      </trkpt>
      <trkpt lat="43.47699" lon="6.32258">
        <ele>139.6</ele>
        <time>2023-03-03T15:18:45Z</time>
      </trkpt>
      <trkpt lat="43.477" lon="6.32259">
        <ele>139.6</ele>
        <time>2023-03-03T15:18:46Z</time>
      </trkpt>
      <trkpt lat="43.477" lon="6.3226">
        <ele>139.5</ele>
        <time>2023-03-03T15:18:47Z</time>
      </trkpt>
      <trkpt lat="43.47701" lon="6.32261">
        <ele>139.4</ele>
        <time>2023-03-03T15:18:48Z</time>
      </trkpt>
      <trkpt lat="43.47701" lon="6.32262">
        <ele>139.4</ele>
        <time>2023-03-03T15:18:49Z</time>
      </trkpt>
      <trkpt lat="43.47701" lon="6.32263">
        <ele>139.4</ele>
        <time>2023-03-03T15:18:50Z</time>
      </trkpt>
      <trkpt lat="43.47701" lon="6.32263">
        <ele>139.4</ele>
        <time>2023-03-03T15:18:51Z</time>
      </trkpt>
      <trkpt lat="43.47701" lon="6.32264">
        <ele>139.4</ele>
        <time>2023-03-03T15:18:52Z</time>
      </trkpt>
      <trkpt lat="43.47702" lon="6.32264">
        <ele>139.3</ele>
        <time>2023-03-03T15:18:53Z</time>
      </trkpt>
      <trkpt lat="43.47702" lon="6.32265">
        <ele>139.2</ele>
        <time>2023-03-03T15:18:54Z</time>
      </trkpt>
      <trkpt lat="43.47702" lon="6.32267">
        <ele>139.3</ele>
        <time>2023-03-03T15:18:55Z</time>
      </trkpt>
      <trkpt lat="43.47703" lon="6.32268">
        <ele>139.3</ele>
        <time>2023-03-03T15:18:56Z</time>
      </trkpt>
      <trkpt lat="43.47703" lon="6.3227">
        <ele>139.2</ele>
        <time>2023-03-03T15:18:57Z</time>
      </trkpt>
      <trkpt lat="43.47703" lon="6.32271">
        <ele>139.2</ele>
        <time>2023-03-03T15:18:58Z</time>
      </trkpt>
      <trkpt lat="43.47704" lon="6.32272">
        <ele>139.1</ele>
        <time>2023-03-03T15:18:59Z</time>
      </trkpt>
      <trkpt lat="43.47704" lon="6.32273">
        <ele>139.1</ele>
        <time>2023-03-03T15:19:00Z</time>
      </trkpt>
      <trkpt lat="43.47704" lon="6.32274">
        <ele>139</ele>
        <time>2023-03-03T15:19:01Z</time>
      </trkpt>
      <trkpt lat="43.47704" lon="6.32275">
        <ele>138.9</ele>
        <time>2023-03-03T15:19:02Z</time>
      </trkpt>
      <trkpt lat="43.47704" lon="6.32276">
        <ele>138.9</ele>
        <time>2023-03-03T15:19:03Z</time>
      </trkpt>
      <trkpt lat="43.47705" lon="6.32277">
        <ele>138.8</ele>
        <time>2023-03-03T15:19:04Z</time>
      </trkpt>
      <trkpt lat="43.47705" lon="6.32278">
        <ele>138.7</ele>
        <time>2023-03-03T15:19:05Z</time>
      </trkpt>
      <trkpt lat="43.47706" lon="6.32279">
        <ele>138.5</ele>
        <time>2023-03-03T15:19:06Z</time>
      </trkpt>
      <trkpt lat="43.47706" lon="6.3228">
        <ele>138.5</ele>
        <time>2023-03-03T15:19:07Z</time>
      </trkpt>
      <trkpt lat="43.47707" lon="6.32281">
        <ele>138.4</ele>
        <time>2023-03-03T15:19:08Z</time>
      </trkpt>
      <trkpt lat="43.47707" lon="6.32282">
        <ele>138.4</ele>
        <time>2023-03-03T15:19:09Z</time>
      </trkpt>
      <trkpt lat="43.47708" lon="6.32283">
        <ele>138.4</ele>
        <time>2023-03-03T15:19:10Z</time>
      </trkpt>
      <trkpt lat="43.47708" lon="6.32284">
        <ele>138.4</ele>
        <time>2023-03-03T15:19:11Z</time>
      </trkpt>
      <trkpt lat="43.47708" lon="6.32286">
        <ele>138.4</ele>
        <time>2023-03-03T15:19:12Z</time>
      </trkpt>
      <trkpt lat="43.47709" lon="6.32287">
        <ele>138.3</ele>
        <time>2023-03-03T15:19:13Z</time>
      </trkpt>
      <trkpt lat="43.47709" lon="6.32288">
        <ele>138.3</ele>
        <time>2023-03-03T15:19:14Z</time>
      </trkpt>
      <trkpt lat="43.47709" lon="6.32288">
        <ele>138.3</ele>
        <time>2023-03-03T15:19:15Z</time>
      </trkpt>
      <trkpt lat="43.4771" lon="6.3229">
        <ele>138.3</ele>
        <time>2023-03-03T15:19:16Z</time>
      </trkpt>
      <trkpt lat="43.4771" lon="6.32291">
        <ele>138.2</ele>
        <time>2023-03-03T15:19:17Z</time>
      </trkpt>
      <trkpt lat="43.4771" lon="6.32292">
        <ele>138.2</ele>
        <time>2023-03-03T15:19:18Z</time>
      </trkpt>
      <trkpt lat="43.47711" lon="6.32293">
        <ele>138.1</ele>
        <time>2023-03-03T15:19:19Z</time>
      </trkpt>
      <trkpt lat="43.47711" lon="6.32293">
        <ele>138.1</ele>
        <time>2023-03-03T15:19:20Z</time>
      </trkpt>
      <trkpt lat="43.47711" lon="6.32294">
        <ele>138.1</ele>
        <time>2023-03-03T15:19:21Z</time>
      </trkpt>
      <trkpt lat="43.47711" lon="6.32295">
        <ele>138.1</ele>
        <time>2023-03-03T15:19:22Z</time>
      </trkpt>
      <trkpt lat="43.47711" lon="6.32297">
        <ele>138.1</ele>
        <time>2023-03-03T15:19:23Z</time>
      </trkpt>
      <trkpt lat="43.47712" lon="6.32297">
        <ele>138.1</ele>
        <time>2023-03-03T15:19:24Z</time>
      </trkpt>
      <trkpt lat="43.47712" lon="6.32298">
        <ele>138.1</ele>
        <time>2023-03-03T15:19:25Z</time>
      </trkpt>
      <trkpt lat="43.47712" lon="6.323">
        <ele>138</ele>
        <time>2023-03-03T15:19:26Z</time>
      </trkpt>
      <trkpt lat="43.47712" lon="6.32301">
        <ele>138</ele>
        <time>2023-03-03T15:19:27Z</time>
      </trkpt>
      <trkpt lat="43.47713" lon="6.32302">
        <ele>137.9</ele>
        <time>2023-03-03T15:19:28Z</time>
      </trkpt>
      <trkpt lat="43.47713" lon="6.32303">
        <ele>137.9</ele>
        <time>2023-03-03T15:19:29Z</time>
      </trkpt>
      <trkpt lat="43.47713" lon="6.32305">
        <ele>137.8</ele>
        <time>2023-03-03T15:19:30Z</time>
      </trkpt>
      <trkpt lat="43.47713" lon="6.32306">
        <ele>137.7</ele>
        <time>2023-03-03T15:19:31Z</time>
      </trkpt>
      <trkpt lat="43.47713" lon="6.32307">
        <ele>137.6</ele>
        <time>2023-03-03T15:19:32Z</time>
      </trkpt>
      <trkpt lat="43.47714" lon="6.32309">
        <ele>137.5</ele>
        <time>2023-03-03T15:19:33Z</time>
      </trkpt>
      <trkpt lat="43.47714" lon="6.3231">
        <ele>137.5</ele>
        <time>2023-03-03T15:19:34Z</time>
      </trkpt>
      <trkpt lat="43.47714" lon="6.32311">
        <ele>137.4</ele>
        <time>2023-03-03T15:19:35Z</time>
      </trkpt>
      <trkpt lat="43.47715" lon="6.32312">
        <ele>137.4</ele>
        <time>2023-03-03T15:19:36Z</time>
      </trkpt>
      <trkpt lat="43.47715" lon="6.32314">
        <ele>137.3</ele>
        <time>2023-03-03T15:19:37Z</time>
      </trkpt>
      <trkpt lat="43.47715" lon="6.32316">
        <ele>137.1</ele>
        <time>2023-03-03T15:19:38Z</time>
      </trkpt>
      <trkpt lat="43.47715" lon="6.32318">
        <ele>137</ele>
        <time>2023-03-03T15:19:39Z</time>
      </trkpt>
      <trkpt lat="43.47716" lon="6.32318">
        <ele>136.9</ele>
        <time>2023-03-03T15:19:40Z</time>
      </trkpt>
      <trkpt lat="43.47716" lon="6.32319">
        <ele>136.8</ele>
        <time>2023-03-03T15:19:41Z</time>
      </trkpt>
      <trkpt lat="43.47717" lon="6.32321">
        <ele>136.7</ele>
        <time>2023-03-03T15:19:42Z</time>
      </trkpt>
      <trkpt lat="43.47717" lon="6.32323">
        <ele>136.7</ele>
        <time>2023-03-03T15:19:43Z</time>
      </trkpt>
      <trkpt lat="43.47717" lon="6.32323">
        <ele>136.6</ele>
        <time>2023-03-03T15:19:44Z</time>
      </trkpt>
      <trkpt lat="43.47717" lon="6.32325">
        <ele>136.5</ele>
        <time>2023-03-03T15:19:45Z</time>
      </trkpt>
      <trkpt lat="43.47718" lon="6.32326">
        <ele>136.4</ele>
        <time>2023-03-03T15:19:46Z</time>
      </trkpt>
      <trkpt lat="43.47719" lon="6.32327">
        <ele>136.3</ele>
        <time>2023-03-03T15:19:47Z</time>
      </trkpt>
      <trkpt lat="43.47719" lon="6.32328">
        <ele>136.3</ele>
        <time>2023-03-03T15:19:48Z</time>
      </trkpt>
      <trkpt lat="43.4772" lon="6.32328">
        <ele>136.2</ele>
        <time>2023-03-03T15:19:49Z</time>
      </trkpt>
      <trkpt lat="43.4772" lon="6.3233">
        <ele>136.1</ele>
        <time>2023-03-03T15:19:50Z</time>
      </trkpt>
      <trkpt lat="43.4772" lon="6.32331">
        <ele>136</ele>
        <time>2023-03-03T15:19:51Z</time>
      </trkpt>
      <trkpt lat="43.47721" lon="6.32332">
        <ele>135.9</ele>
        <time>2023-03-03T15:19:52Z</time>
      </trkpt>
      <trkpt lat="43.47721" lon="6.32333">
        <ele>135.8</ele>
        <time>2023-03-03T15:19:53Z</time>
      </trkpt>
      <trkpt lat="43.47722" lon="6.32334">
        <ele>135.7</ele>
        <time>2023-03-03T15:19:54Z</time>
      </trkpt>
      <trkpt lat="43.47722" lon="6.32335">
        <ele>135.6</ele>
        <time>2023-03-03T15:19:55Z</time>
      </trkpt>
      <trkpt lat="43.47723" lon="6.32335">
        <ele>135.4</ele>
        <time>2023-03-03T15:19:56Z</time>
      </trkpt>
      <trkpt lat="43.47723" lon="6.32336">
        <ele>135.3</ele>
        <time>2023-03-03T15:19:57Z</time>
      </trkpt>
      <trkpt lat="43.47723" lon="6.32338">
        <ele>135.3</ele>
        <time>2023-03-03T15:19:58Z</time>
      </trkpt>
      <trkpt lat="43.47722" lon="6.32339">
        <ele>135.3</ele>
        <time>2023-03-03T15:19:59Z</time>
      </trkpt>
      <trkpt lat="43.47723" lon="6.3234">
        <ele>135.2</ele>
        <time>2023-03-03T15:20:00Z</time>
      </trkpt>
      <trkpt lat="43.47723" lon="6.32341">
        <ele>135.1</ele>
        <time>2023-03-03T15:20:01Z</time>
      </trkpt>
      <trkpt lat="43.47724" lon="6.32342">
        <ele>134.9</ele>
        <time>2023-03-03T15:20:02Z</time>
      </trkpt>
      <trkpt lat="43.47724" lon="6.32343">
        <ele>134.8</ele>
        <time>2023-03-03T15:20:03Z</time>
      </trkpt>
      <trkpt lat="43.47724" lon="6.32344">
        <ele>134.8</ele>
        <time>2023-03-03T15:20:04Z</time>
      </trkpt>
      <trkpt lat="43.47726" lon="6.32345">
        <ele>134.7</ele>
        <time>2023-03-03T15:20:05Z</time>
      </trkpt>
      <trkpt lat="43.47726" lon="6.32346">
        <ele>134.7</ele>
        <time>2023-03-03T15:20:06Z</time>
      </trkpt>
      <trkpt lat="43.47727" lon="6.32347">
        <ele>134.6</ele>
        <time>2023-03-03T15:20:07Z</time>
      </trkpt>
      <trkpt lat="43.47728" lon="6.32348">
        <ele>134.6</ele>
        <time>2023-03-03T15:20:08Z</time>
      </trkpt>
      <trkpt lat="43.47729" lon="6.32348">
        <ele>134.5</ele>
        <time>2023-03-03T15:20:09Z</time>
      </trkpt>
      <trkpt lat="43.4773" lon="6.32349">
        <ele>134.5</ele>
        <time>2023-03-03T15:20:10Z</time>
      </trkpt>
      <trkpt lat="43.47731" lon="6.32351">
        <ele>134.5</ele>
        <time>2023-03-03T15:20:11Z</time>
      </trkpt>
      <trkpt lat="43.47731" lon="6.32352">
        <ele>134.5</ele>
        <time>2023-03-03T15:20:12Z</time>
      </trkpt>
      <trkpt lat="43.47732" lon="6.32353">
        <ele>134.4</ele>
        <time>2023-03-03T15:20:13Z</time>
      </trkpt>
      <trkpt lat="43.47733" lon="6.32354">
        <ele>134.3</ele>
        <time>2023-03-03T15:20:14Z</time>
      </trkpt>
      <trkpt lat="43.47734" lon="6.32355">
        <ele>134.3</ele>
        <time>2023-03-03T15:20:15Z</time>
      </trkpt>
      <trkpt lat="43.47735" lon="6.32356">
        <ele>134.2</ele>
        <time>2023-03-03T15:20:16Z</time>
      </trkpt>
      <trkpt lat="43.47735" lon="6.32358">
        <ele>134.1</ele>
        <time>2023-03-03T15:20:17Z</time>
      </trkpt>
      <trkpt lat="43.47736" lon="6.32359">
        <ele>133.9</ele>
        <time>2023-03-03T15:20:18Z</time>
      </trkpt>
      <trkpt lat="43.47736" lon="6.3236">
        <ele>133.8</ele>
        <time>2023-03-03T15:20:19Z</time>
      </trkpt>
      <trkpt lat="43.47737" lon="6.32361">
        <ele>133.8</ele>
        <time>2023-03-03T15:20:20Z</time>
      </trkpt>
      <trkpt lat="43.47737" lon="6.32362">
        <ele>133.7</ele>
        <time>2023-03-03T15:20:21Z</time>
      </trkpt>
      <trkpt lat="43.47738" lon="6.32364">
        <ele>133.7</ele>
        <time>2023-03-03T15:20:22Z</time>
      </trkpt>
      <trkpt lat="43.47739" lon="6.32364">
        <ele>133.6</ele>
        <time>2023-03-03T15:20:23Z</time>
      </trkpt>
      <trkpt lat="43.4774" lon="6.32365">
        <ele>133.5</ele>
        <time>2023-03-03T15:20:24Z</time>
      </trkpt>
      <trkpt lat="43.4774" lon="6.32366">
        <ele>133.5</ele>
        <time>2023-03-03T15:20:25Z</time>
      </trkpt>
      <trkpt lat="43.47741" lon="6.32367">
        <ele>133.4</ele>
        <time>2023-03-03T15:20:26Z</time>
      </trkpt>
      <trkpt lat="43.47741" lon="6.32369">
        <ele>133.3</ele>
        <time>2023-03-03T15:20:27Z</time>
      </trkpt>
      <trkpt lat="43.47742" lon="6.32369">
        <ele>133.2</ele>
        <time>2023-03-03T15:20:28Z</time>
      </trkpt>
      <trkpt lat="43.47742" lon="6.32371">
        <ele>133.1</ele>
        <time>2023-03-03T15:20:29Z</time>
      </trkpt>
      <trkpt lat="43.47743" lon="6.32372">
        <ele>133</ele>
        <time>2023-03-03T15:20:30Z</time>
      </trkpt>
      <trkpt lat="43.47743" lon="6.32374">
        <ele>133</ele>
        <time>2023-03-03T15:20:31Z</time>
      </trkpt>
      <trkpt lat="43.47744" lon="6.32375">
        <ele>132.9</ele>
        <time>2023-03-03T15:20:32Z</time>
      </trkpt>
      <trkpt lat="43.47745" lon="6.32376">
        <ele>132.9</ele>
        <time>2023-03-03T15:20:33Z</time>
      </trkpt>
      <trkpt lat="43.47746" lon="6.32377">
        <ele>132.9</ele>
        <time>2023-03-03T15:20:34Z</time>
      </trkpt>
      <trkpt lat="43.47747" lon="6.32377">
        <ele>132.9</ele>
        <time>2023-03-03T15:20:35Z</time>
      </trkpt>
      <trkpt lat="43.47748" lon="6.32379">
        <ele>132.9</ele>
        <time>2023-03-03T15:20:36Z</time>
      </trkpt>
      <trkpt lat="43.47749" lon="6.3238">
        <ele>132.8</ele>
        <time>2023-03-03T15:20:37Z</time>
      </trkpt>
      <trkpt lat="43.4775" lon="6.3238">
        <ele>132.8</ele>
        <time>2023-03-03T15:20:38Z</time>
      </trkpt>
      <trkpt lat="43.4775" lon="6.3238">
        <ele>132.8</ele>
        <time>2023-03-03T15:20:39Z</time>
      </trkpt>
      <trkpt lat="43.4775" lon="6.3238">
        <ele>132.8</ele>
        <time>2023-03-03T15:20:40Z</time>
      </trkpt>
      <trkpt lat="43.4775" lon="6.32381">
        <ele>132.8</ele>
        <time>2023-03-03T15:20:41Z</time>
      </trkpt>
      <trkpt lat="43.4775" lon="6.32381">
        <ele>132.7</ele>
        <time>2023-03-03T15:20:42Z</time>
      </trkpt>
      <trkpt lat="43.47751" lon="6.32382">
        <ele>132.7</ele>
        <time>2023-03-03T15:20:43Z</time>
      </trkpt>
      <trkpt lat="43.47751" lon="6.32382">
        <ele>132.7</ele>
        <time>2023-03-03T15:20:44Z</time>
      </trkpt>
      <trkpt lat="43.47751" lon="6.32382">
        <ele>132.7</ele>
        <time>2023-03-03T15:20:45Z</time>
      </trkpt>
      <trkpt lat="43.47751" lon="6.32382">
        <ele>132.5</ele>
        <time>2023-03-03T15:20:46Z</time>
      </trkpt>
      <trkpt lat="43.47751" lon="6.32382">
        <ele>132.5</ele>
        <time>2023-03-03T15:20:47Z</time>
      </trkpt>
      <trkpt lat="43.47751" lon="6.32382">
        <ele>132.4</ele>
        <time>2023-03-03T15:20:48Z</time>
      </trkpt>
      <trkpt lat="43.47751" lon="6.32382">
        <ele>132.4</ele>
        <time>2023-03-03T15:20:49Z</time>
      </trkpt>
      <trkpt lat="43.47751" lon="6.32382">
        <ele>132.6</ele>
        <time>2023-03-03T15:20:50Z</time>
      </trkpt>
      <trkpt lat="43.47751" lon="6.32383">
        <ele>132.5</ele>
        <time>2023-03-03T15:20:51Z</time>
      </trkpt>
      <trkpt lat="43.47751" lon="6.32383">
        <ele>132.5</ele>
        <time>2023-03-03T15:20:52Z</time>
      </trkpt>
      <trkpt lat="43.47752" lon="6.32384">
        <ele>132.5</ele>
        <time>2023-03-03T15:20:53Z</time>
      </trkpt>
      <trkpt lat="43.47752" lon="6.32384">
        <ele>132.5</ele>
        <time>2023-03-03T15:20:54Z</time>
      </trkpt>
      <trkpt lat="43.47752" lon="6.32385">
        <ele>132.5</ele>
        <time>2023-03-03T15:20:55Z</time>
      </trkpt>
      <trkpt lat="43.47752" lon="6.32385">
        <ele>132.4</ele>
        <time>2023-03-03T15:20:56Z</time>
      </trkpt>
      <trkpt lat="43.47752" lon="6.32386">
        <ele>132.4</ele>
        <time>2023-03-03T15:20:57Z</time>
      </trkpt>
      <trkpt lat="43.47752" lon="6.32388">
        <ele>132.4</ele>
        <time>2023-03-03T15:20:58Z</time>
      </trkpt>
      <trkpt lat="43.47752" lon="6.32389">
        <ele>132.4</ele>
        <time>2023-03-03T15:20:59Z</time>
      </trkpt>
      <trkpt lat="43.47752" lon="6.3239">
        <ele>132.4</ele>
        <time>2023-03-03T15:21:00Z</time>
      </trkpt>
      <trkpt lat="43.47753" lon="6.3239">
        <ele>132.4</ele>
        <time>2023-03-03T15:21:01Z</time>
      </trkpt>
      <trkpt lat="43.47753" lon="6.32391">
        <ele>132.4</ele>
        <time>2023-03-03T15:21:02Z</time>
      </trkpt>
      <trkpt lat="43.47754" lon="6.32392">
        <ele>132.3</ele>
        <time>2023-03-03T15:21:03Z</time>
      </trkpt>
      <trkpt lat="43.47754" lon="6.32393">
        <ele>132.3</ele>
        <time>2023-03-03T15:21:04Z</time>
      </trkpt>
      <trkpt lat="43.47755" lon="6.32394">
        <ele>132.3</ele>
        <time>2023-03-03T15:21:05Z</time>
      </trkpt>
      <trkpt lat="43.47755" lon="6.32396">
        <ele>132.2</ele>
        <time>2023-03-03T15:21:06Z</time>
      </trkpt>
      <trkpt lat="43.47756" lon="6.32397">
        <ele>132.2</ele>
        <time>2023-03-03T15:21:07Z</time>
      </trkpt>
      <trkpt lat="43.47756" lon="6.32398">
        <ele>132.2</ele>
        <time>2023-03-03T15:21:08Z</time>
      </trkpt>
      <trkpt lat="43.47756" lon="6.32399">
        <ele>132.2</ele>
        <time>2023-03-03T15:21:09Z</time>
      </trkpt>
      <trkpt lat="43.47757" lon="6.324">
        <ele>132.3</ele>
        <time>2023-03-03T15:21:10Z</time>
      </trkpt>
      <trkpt lat="43.47757" lon="6.32402">
        <ele>132.2</ele>
        <time>2023-03-03T15:21:11Z</time>
      </trkpt>
      <trkpt lat="43.47758" lon="6.32403">
        <ele>132.2</ele>
        <time>2023-03-03T15:21:12Z</time>
      </trkpt>
      <trkpt lat="43.47758" lon="6.32404">
        <ele>132.3</ele>
        <time>2023-03-03T15:21:13Z</time>
      </trkpt>
      <trkpt lat="43.47758" lon="6.32405">
        <ele>132.3</ele>
        <time>2023-03-03T15:21:14Z</time>
      </trkpt>
      <trkpt lat="43.47758" lon="6.32406">
        <ele>132.4</ele>
        <time>2023-03-03T15:21:15Z</time>
      </trkpt>
      <trkpt lat="43.47759" lon="6.32407">
        <ele>132.3</ele>
        <time>2023-03-03T15:21:16Z</time>
      </trkpt>
      <trkpt lat="43.47759" lon="6.32409">
        <ele>132.3</ele>
        <time>2023-03-03T15:21:17Z</time>
      </trkpt>
      <trkpt lat="43.47759" lon="6.3241">
        <ele>132.3</ele>
        <time>2023-03-03T15:21:18Z</time>
      </trkpt>
      <trkpt lat="43.4776" lon="6.32411">
        <ele>132.3</ele>
        <time>2023-03-03T15:21:19Z</time>
      </trkpt>
      <trkpt lat="43.4776" lon="6.32412">
        <ele>132.3</ele>
        <time>2023-03-03T15:21:20Z</time>
      </trkpt>
      <trkpt lat="43.47761" lon="6.32414">
        <ele>132.3</ele>
        <time>2023-03-03T15:21:21Z</time>
      </trkpt>
      <trkpt lat="43.47761" lon="6.32415">
        <ele>132.3</ele>
        <time>2023-03-03T15:21:22Z</time>
      </trkpt>
      <trkpt lat="43.47761" lon="6.32416">
        <ele>132.3</ele>
        <time>2023-03-03T15:21:23Z</time>
      </trkpt>
      <trkpt lat="43.47761" lon="6.32417">
        <ele>132.4</ele>
        <time>2023-03-03T15:21:24Z</time>
      </trkpt>
      <trkpt lat="43.47762" lon="6.32419">
        <ele>132.4</ele>
        <time>2023-03-03T15:21:25Z</time>
      </trkpt>
      <trkpt lat="43.47762" lon="6.3242">
        <ele>132.4</ele>
        <time>2023-03-03T15:21:26Z</time>
      </trkpt>
      <trkpt lat="43.47762" lon="6.32422">
        <ele>132.5</ele>
        <time>2023-03-03T15:21:27Z</time>
      </trkpt>
      <trkpt lat="43.47762" lon="6.32423">
        <ele>132.5</ele>
        <time>2023-03-03T15:21:28Z</time>
      </trkpt>
      <trkpt lat="43.47763" lon="6.32424">
        <ele>132.5</ele>
        <time>2023-03-03T15:21:29Z</time>
      </trkpt>
      <trkpt lat="43.47763" lon="6.32425">
        <ele>132.5</ele>
        <time>2023-03-03T15:21:30Z</time>
      </trkpt>
      <trkpt lat="43.47763" lon="6.32426">
        <ele>132.5</ele>
        <time>2023-03-03T15:21:31Z</time>
      </trkpt>
      <trkpt lat="43.47763" lon="6.32428">
        <ele>132.5</ele>
        <time>2023-03-03T15:21:32Z</time>
      </trkpt>
      <trkpt lat="43.47763" lon="6.32429">
        <ele>132.5</ele>
        <time>2023-03-03T15:21:33Z</time>
      </trkpt>
      <trkpt lat="43.47763" lon="6.32431">
        <ele>132.5</ele>
        <time>2023-03-03T15:21:34Z</time>
      </trkpt>
      <trkpt lat="43.47763" lon="6.32432">
        <ele>132.5</ele>
        <time>2023-03-03T15:21:35Z</time>
      </trkpt>
      <trkpt lat="43.47764" lon="6.32433">
        <ele>132.5</ele>
        <time>2023-03-03T15:21:36Z</time>
      </trkpt>
      <trkpt lat="43.47764" lon="6.32435">
        <ele>132.5</ele>
        <time>2023-03-03T15:21:37Z</time>
      </trkpt>
      <trkpt lat="43.47764" lon="6.32436">
        <ele>132.5</ele>
        <time>2023-03-03T15:21:38Z</time>
      </trkpt>
      <trkpt lat="43.47764" lon="6.32437">
        <ele>132.5</ele>
        <time>2023-03-03T15:21:39Z</time>
      </trkpt>
      <trkpt lat="43.47765" lon="6.32439">
        <ele>132.6</ele>
        <time>2023-03-03T15:21:40Z</time>
      </trkpt>
      <trkpt lat="43.47765" lon="6.3244">
        <ele>132.5</ele>
        <time>2023-03-03T15:21:41Z</time>
      </trkpt>
      <trkpt lat="43.47766" lon="6.32441">
        <ele>132.6</ele>
        <time>2023-03-03T15:21:42Z</time>
      </trkpt>
      <trkpt lat="43.47766" lon="6.32442">
        <ele>132.7</ele>
        <time>2023-03-03T15:21:43Z</time>
      </trkpt>
      <trkpt lat="43.47766" lon="6.32443">
        <ele>132.7</ele>
        <time>2023-03-03T15:21:44Z</time>
      </trkpt>
      <trkpt lat="43.47766" lon="6.32444">
        <ele>132.7</ele>
        <time>2023-03-03T15:21:45Z</time>
      </trkpt>
      <trkpt lat="43.47767" lon="6.32445">
        <ele>132.6</ele>
        <time>2023-03-03T15:21:46Z</time>
      </trkpt>
      <trkpt lat="43.47767" lon="6.32446">
        <ele>132.5</ele>
        <time>2023-03-03T15:21:47Z</time>
      </trkpt>
      <trkpt lat="43.47767" lon="6.32447">
        <ele>132.4</ele>
        <time>2023-03-03T15:21:48Z</time>
      </trkpt>
      <trkpt lat="43.47767" lon="6.32447">
        <ele>132.4</ele>
        <time>2023-03-03T15:21:49Z</time>
      </trkpt>
      <trkpt lat="43.47767" lon="6.32448">
        <ele>132.4</ele>
        <time>2023-03-03T15:21:50Z</time>
      </trkpt>
      <trkpt lat="43.47766" lon="6.32449">
        <ele>132.5</ele>
        <time>2023-03-03T15:21:51Z</time>
      </trkpt>
      <trkpt lat="43.47767" lon="6.3245">
        <ele>132.5</ele>
        <time>2023-03-03T15:21:52Z</time>
      </trkpt>
      <trkpt lat="43.47767" lon="6.32451">
        <ele>132.6</ele>
        <time>2023-03-03T15:21:53Z</time>
      </trkpt>
      <trkpt lat="43.47768" lon="6.32452">
        <ele>132.6</ele>
        <time>2023-03-03T15:21:54Z</time>
      </trkpt>
      <trkpt lat="43.47768" lon="6.32454">
        <ele>132.7</ele>
        <time>2023-03-03T15:21:55Z</time>
      </trkpt>
      <trkpt lat="43.47768" lon="6.32455">
        <ele>132.7</ele>
        <time>2023-03-03T15:21:56Z</time>
      </trkpt>
      <trkpt lat="43.47768" lon="6.32456">
        <ele>132.6</ele>
        <time>2023-03-03T15:21:57Z</time>
      </trkpt>
      <trkpt lat="43.47768" lon="6.32457">
        <ele>132.6</ele>
        <time>2023-03-03T15:21:58Z</time>
      </trkpt>
      <trkpt lat="43.47769" lon="6.32458">
        <ele>132.6</ele>
        <time>2023-03-03T15:21:59Z</time>
      </trkpt>
      <trkpt lat="43.47769" lon="6.32459">
        <ele>132.6</ele>
        <time>2023-03-03T15:22:00Z</time>
      </trkpt>
      <trkpt lat="43.47769" lon="6.3246">
        <ele>132.6</ele>
        <time>2023-03-03T15:22:01Z</time>
      </trkpt>
      <trkpt lat="43.4777" lon="6.32462">
        <ele>132.7</ele>
        <time>2023-03-03T15:22:02Z</time>
      </trkpt>
      <trkpt lat="43.4777" lon="6.32463">
        <ele>132.6</ele>
        <time>2023-03-03T15:22:03Z</time>
      </trkpt>
      <trkpt lat="43.4777" lon="6.32464">
        <ele>132.8</ele>
        <time>2023-03-03T15:22:04Z</time>
      </trkpt>
      <trkpt lat="43.4777" lon="6.32465">
        <ele>132.8</ele>
        <time>2023-03-03T15:22:05Z</time>
      </trkpt>
      <trkpt lat="43.4777" lon="6.32467">
        <ele>132.8</ele>
        <time>2023-03-03T15:22:06Z</time>
      </trkpt>
      <trkpt lat="43.47771" lon="6.32468">
        <ele>132.9</ele>
        <time>2023-03-03T15:22:07Z</time>
      </trkpt>
      <trkpt lat="43.47771" lon="6.32469">
        <ele>132.9</ele>
        <time>2023-03-03T15:22:08Z</time>
      </trkpt>
      <trkpt lat="43.47771" lon="6.3247">
        <ele>133</ele>
        <time>2023-03-03T15:22:09Z</time>
      </trkpt>
      <trkpt lat="43.47771" lon="6.32472">
        <ele>132.9</ele>
        <time>2023-03-03T15:22:10Z</time>
      </trkpt>
      <trkpt lat="43.47771" lon="6.32473">
        <ele>132.9</ele>
        <time>2023-03-03T15:22:11Z</time>
      </trkpt>
      <trkpt lat="43.47771" lon="6.32474">
        <ele>133</ele>
        <time>2023-03-03T15:22:12Z</time>
      </trkpt>
      <trkpt lat="43.47772" lon="6.32475">
        <ele>133</ele>
        <time>2023-03-03T15:22:13Z</time>
      </trkpt>
      <trkpt lat="43.47772" lon="6.32476">
        <ele>133.1</ele>
        <time>2023-03-03T15:22:14Z</time>
      </trkpt>
      <trkpt lat="43.47772" lon="6.32478">
        <ele>133.2</ele>
        <time>2023-03-03T15:22:15Z</time>
      </trkpt>
      <trkpt lat="43.47772" lon="6.32479">
        <ele>133.3</ele>
        <time>2023-03-03T15:22:16Z</time>
      </trkpt>
      <trkpt lat="43.47772" lon="6.3248">
        <ele>133.4</ele>
        <time>2023-03-03T15:22:17Z</time>
      </trkpt>
      <trkpt lat="43.47772" lon="6.32482">
        <ele>133.4</ele>
        <time>2023-03-03T15:22:18Z</time>
      </trkpt>
      <trkpt lat="43.47772" lon="6.32484">
        <ele>133.4</ele>
        <time>2023-03-03T15:22:19Z</time>
      </trkpt>
      <trkpt lat="43.47772" lon="6.32485">
        <ele>133.5</ele>
        <time>2023-03-03T15:22:20Z</time>
      </trkpt>
      <trkpt lat="43.47773" lon="6.32486">
        <ele>133.6</ele>
        <time>2023-03-03T15:22:21Z</time>
      </trkpt>
      <trkpt lat="43.47773" lon="6.32487">
        <ele>133.6</ele>
        <time>2023-03-03T15:22:22Z</time>
      </trkpt>
      <trkpt lat="43.47773" lon="6.32489">
        <ele>133.8</ele>
        <time>2023-03-03T15:22:23Z</time>
      </trkpt>
      <trkpt lat="43.47773" lon="6.3249">
        <ele>133.9</ele>
        <time>2023-03-03T15:22:24Z</time>
      </trkpt>
      <trkpt lat="43.47773" lon="6.32491">
        <ele>134</ele>
        <time>2023-03-03T15:22:25Z</time>
      </trkpt>
      <trkpt lat="43.47773" lon="6.32492">
        <ele>134.1</ele>
        <time>2023-03-03T15:22:26Z</time>
      </trkpt>
      <trkpt lat="43.47773" lon="6.32493">
        <ele>134.2</ele>
        <time>2023-03-03T15:22:27Z</time>
      </trkpt>
      <trkpt lat="43.47773" lon="6.32494">
        <ele>134.2</ele>
        <time>2023-03-03T15:22:28Z</time>
      </trkpt>
      <trkpt lat="43.47773" lon="6.32496">
        <ele>134.3</ele>
        <time>2023-03-03T15:22:29Z</time>
      </trkpt>
      <trkpt lat="43.47773" lon="6.32497">
        <ele>134.4</ele>
        <time>2023-03-03T15:22:30Z</time>
      </trkpt>
      <trkpt lat="43.47773" lon="6.32498">
        <ele>134.5</ele>
        <time>2023-03-03T15:22:31Z</time>
      </trkpt>
      <trkpt lat="43.47773" lon="6.32499">
        <ele>134.6</ele>
        <time>2023-03-03T15:22:32Z</time>
      </trkpt>
      <trkpt lat="43.47773" lon="6.32501">
        <ele>134.7</ele>
        <time>2023-03-03T15:22:33Z</time>
      </trkpt>
      <trkpt lat="43.47773" lon="6.32502">
        <ele>134.7</ele>
        <time>2023-03-03T15:22:34Z</time>
      </trkpt>
      <trkpt lat="43.47773" lon="6.32503">
        <ele>134.9</ele>
        <time>2023-03-03T15:22:35Z</time>
      </trkpt>
      <trkpt lat="43.47773" lon="6.32505">
        <ele>135.1</ele>
        <time>2023-03-03T15:22:36Z</time>
      </trkpt>
      <trkpt lat="43.47774" lon="6.32506">
        <ele>135.2</ele>
        <time>2023-03-03T15:22:37Z</time>
      </trkpt>
      <trkpt lat="43.47774" lon="6.32507">
        <ele>135.3</ele>
        <time>2023-03-03T15:22:38Z</time>
      </trkpt>
      <trkpt lat="43.47774" lon="6.32508">
        <ele>135.5</ele>
        <time>2023-03-03T15:22:39Z</time>
      </trkpt>
      <trkpt lat="43.47774" lon="6.3251">
        <ele>135.6</ele>
        <time>2023-03-03T15:22:40Z</time>
      </trkpt>
      <trkpt lat="43.47775" lon="6.32511">
        <ele>135.7</ele>
        <time>2023-03-03T15:22:41Z</time>
      </trkpt>
      <trkpt lat="43.47775" lon="6.32513">
        <ele>135.8</ele>
        <time>2023-03-03T15:22:42Z</time>
      </trkpt>
      <trkpt lat="43.47775" lon="6.32514">
        <ele>135.9</ele>
        <time>2023-03-03T15:22:43Z</time>
      </trkpt>
      <trkpt lat="43.47776" lon="6.32515">
        <ele>136</ele>
        <time>2023-03-03T15:22:44Z</time>
      </trkpt>
      <trkpt lat="43.47776" lon="6.32516">
        <ele>136.1</ele>
        <time>2023-03-03T15:22:45Z</time>
      </trkpt>
      <trkpt lat="43.47776" lon="6.32517">
        <ele>136.2</ele>
        <time>2023-03-03T15:22:46Z</time>
      </trkpt>
      <trkpt lat="43.47776" lon="6.32519">
        <ele>136.3</ele>
        <time>2023-03-03T15:22:47Z</time>
      </trkpt>
      <trkpt lat="43.47776" lon="6.3252">
        <ele>136.4</ele>
        <time>2023-03-03T15:22:48Z</time>
      </trkpt>
      <trkpt lat="43.47776" lon="6.32521">
        <ele>136.5</ele>
        <time>2023-03-03T15:22:49Z</time>
      </trkpt>
      <trkpt lat="43.47776" lon="6.32522">
        <ele>136.6</ele>
        <time>2023-03-03T15:22:50Z</time>
      </trkpt>
      <trkpt lat="43.47776" lon="6.32523">
        <ele>136.7</ele>
        <time>2023-03-03T15:22:51Z</time>
      </trkpt>
      <trkpt lat="43.47776" lon="6.32525">
        <ele>136.8</ele>
        <time>2023-03-03T15:22:52Z</time>
      </trkpt>
      <trkpt lat="43.47776" lon="6.32526">
        <ele>136.9</ele>
        <time>2023-03-03T15:22:53Z</time>
      </trkpt>
      <trkpt lat="43.47776" lon="6.32527">
        <ele>137</ele>
        <time>2023-03-03T15:22:54Z</time>
      </trkpt>
      <trkpt lat="43.47777" lon="6.32529">
        <ele>137</ele>
        <time>2023-03-03T15:22:55Z</time>
      </trkpt>
      <trkpt lat="43.47777" lon="6.3253">
        <ele>137</ele>
        <time>2023-03-03T15:22:56Z</time>
      </trkpt>
      <trkpt lat="43.47777" lon="6.32531">
        <ele>137.1</ele>
        <time>2023-03-03T15:22:57Z</time>
      </trkpt>
      <trkpt lat="43.47777" lon="6.32532">
        <ele>137.1</ele>
        <time>2023-03-03T15:22:58Z</time>
      </trkpt>
      <trkpt lat="43.47777" lon="6.32533">
        <ele>137.2</ele>
        <time>2023-03-03T15:22:59Z</time>
      </trkpt>
      <trkpt lat="43.47778" lon="6.32534">
        <ele>137.2</ele>
        <time>2023-03-03T15:23:00Z</time>
      </trkpt>
      <trkpt lat="43.47778" lon="6.32535">
        <ele>137.3</ele>
        <time>2023-03-03T15:23:01Z</time>
      </trkpt>
      <trkpt lat="43.47778" lon="6.32537">
        <ele>137.3</ele>
        <time>2023-03-03T15:23:02Z</time>
      </trkpt>
      <trkpt lat="43.47778" lon="6.32538">
        <ele>137.3</ele>
        <time>2023-03-03T15:23:03Z</time>
      </trkpt>
      <trkpt lat="43.47778" lon="6.32539">
        <ele>137.4</ele>
        <time>2023-03-03T15:23:04Z</time>
      </trkpt>
      <trkpt lat="43.47778" lon="6.3254">
        <ele>137.5</ele>
        <time>2023-03-03T15:23:05Z</time>
      </trkpt>
      <trkpt lat="43.47778" lon="6.32541">
        <ele>137.5</ele>
        <time>2023-03-03T15:23:06Z</time>
      </trkpt>
      <trkpt lat="43.47778" lon="6.32543">
        <ele>137.6</ele>
        <time>2023-03-03T15:23:07Z</time>
      </trkpt>
      <trkpt lat="43.47778" lon="6.32544">
        <ele>137.6</ele>
        <time>2023-03-03T15:23:08Z</time>
      </trkpt>
      <trkpt lat="43.47778" lon="6.32545">
        <ele>137.8</ele>
        <time>2023-03-03T15:23:09Z</time>
      </trkpt>
      <trkpt lat="43.47778" lon="6.32547">
        <ele>137.9</ele>
        <time>2023-03-03T15:23:10Z</time>
      </trkpt>
      <trkpt lat="43.47778" lon="6.32548">
        <ele>138</ele>
        <time>2023-03-03T15:23:11Z</time>
      </trkpt>
      <trkpt lat="43.47778" lon="6.32548">
        <ele>138.1</ele>
        <time>2023-03-03T15:23:12Z</time>
      </trkpt>
      <trkpt lat="43.47779" lon="6.32549">
        <ele>138.2</ele>
        <time>2023-03-03T15:23:13Z</time>
      </trkpt>
      <trkpt lat="43.47779" lon="6.32549">
        <ele>138.2</ele>
        <time>2023-03-03T15:23:14Z</time>
      </trkpt>
      <trkpt lat="43.47779" lon="6.3255">
        <ele>138.4</ele>
        <time>2023-03-03T15:23:15Z</time>
      </trkpt>
      <trkpt lat="43.47779" lon="6.32551">
        <ele>138.4</ele>
        <time>2023-03-03T15:23:16Z</time>
      </trkpt>
      <trkpt lat="43.47779" lon="6.32552">
        <ele>138.5</ele>
        <time>2023-03-03T15:23:17Z</time>
      </trkpt>
      <trkpt lat="43.47779" lon="6.32554">
        <ele>138.6</ele>
        <time>2023-03-03T15:23:18Z</time>
      </trkpt>
      <trkpt lat="43.47779" lon="6.32555">
        <ele>138.7</ele>
        <time>2023-03-03T15:23:19Z</time>
      </trkpt>
      <trkpt lat="43.47779" lon="6.32556">
        <ele>138.9</ele>
        <time>2023-03-03T15:23:20Z</time>
      </trkpt>
      <trkpt lat="43.4778" lon="6.32558">
        <ele>138.8</ele>
        <time>2023-03-03T15:23:21Z</time>
      </trkpt>
      <trkpt lat="43.4778" lon="6.32559">
        <ele>138.9</ele>
        <time>2023-03-03T15:23:22Z</time>
      </trkpt>
      <trkpt lat="43.4778" lon="6.3256">
        <ele>139.1</ele>
        <time>2023-03-03T15:23:23Z</time>
      </trkpt>
      <trkpt lat="43.47781" lon="6.32561">
        <ele>139.2</ele>
        <time>2023-03-03T15:23:24Z</time>
      </trkpt>
      <trkpt lat="43.47781" lon="6.32562">
        <ele>139.3</ele>
        <time>2023-03-03T15:23:25Z</time>
      </trkpt>
      <trkpt lat="43.47781" lon="6.32564">
        <ele>139.4</ele>
        <time>2023-03-03T15:23:26Z</time>
      </trkpt>
      <trkpt lat="43.47781" lon="6.32565">
        <ele>139.5</ele>
        <time>2023-03-03T15:23:27Z</time>
      </trkpt>
      <trkpt lat="43.47781" lon="6.32566">
        <ele>139.5</ele>
        <time>2023-03-03T15:23:28Z</time>
      </trkpt>
      <trkpt lat="43.47782" lon="6.32567">
        <ele>139.6</ele>
        <time>2023-03-03T15:23:29Z</time>
      </trkpt>
      <trkpt lat="43.47782" lon="6.32568">
        <ele>139.6</ele>
        <time>2023-03-03T15:23:30Z</time>
      </trkpt>
      <trkpt lat="43.47782" lon="6.3257">
        <ele>139.6</ele>
        <time>2023-03-03T15:23:31Z</time>
      </trkpt>
      <trkpt lat="43.47783" lon="6.32571">
        <ele>139.7</ele>
        <time>2023-03-03T15:23:32Z</time>
      </trkpt>
      <trkpt lat="43.47784" lon="6.32571">
        <ele>139.8</ele>
        <time>2023-03-03T15:23:33Z</time>
      </trkpt>
      <trkpt lat="43.47784" lon="6.32573">
        <ele>139.9</ele>
        <time>2023-03-03T15:23:34Z</time>
      </trkpt>
      <trkpt lat="43.47785" lon="6.32574">
        <ele>139.9</ele>
        <time>2023-03-03T15:23:35Z</time>
      </trkpt>
      <trkpt lat="43.47785" lon="6.32575">
        <ele>140</ele>
        <time>2023-03-03T15:23:36Z</time>
      </trkpt>
      <trkpt lat="43.47786" lon="6.32577">
        <ele>140.2</ele>
        <time>2023-03-03T15:23:37Z</time>
      </trkpt>
      <trkpt lat="43.47786" lon="6.32578">
        <ele>140.3</ele>
        <time>2023-03-03T15:23:38Z</time>
      </trkpt>
      <trkpt lat="43.47787" lon="6.32579">
        <ele>140.3</ele>
        <time>2023-03-03T15:23:39Z</time>
      </trkpt>
      <trkpt lat="43.47787" lon="6.3258">
        <ele>140.4</ele>
        <time>2023-03-03T15:23:40Z</time>
      </trkpt>
      <trkpt lat="43.47788" lon="6.32581">
        <ele>140.5</ele>
        <time>2023-03-03T15:23:41Z</time>
      </trkpt>
      <trkpt lat="43.47788" lon="6.32582">
        <ele>140.5</ele>
        <time>2023-03-03T15:23:42Z</time>
      </trkpt>
      <trkpt lat="43.47788" lon="6.32583">
        <ele>140.6</ele>
        <time>2023-03-03T15:23:43Z</time>
      </trkpt>
      <trkpt lat="43.47788" lon="6.32584">
        <ele>140.6</ele>
        <time>2023-03-03T15:23:44Z</time>
      </trkpt>
      <trkpt lat="43.47789" lon="6.32585">
        <ele>140.7</ele>
        <time>2023-03-03T15:23:45Z</time>
      </trkpt>
      <trkpt lat="43.47789" lon="6.32586">
        <ele>140.8</ele>
        <time>2023-03-03T15:23:46Z</time>
      </trkpt>
      <trkpt lat="43.47789" lon="6.32587">
        <ele>140.9</ele>
        <time>2023-03-03T15:23:47Z</time>
      </trkpt>
      <trkpt lat="43.47789" lon="6.32588">
        <ele>140.9</ele>
        <time>2023-03-03T15:23:48Z</time>
      </trkpt>
      <trkpt lat="43.4779" lon="6.3259">
        <ele>141</ele>
        <time>2023-03-03T15:23:49Z</time>
      </trkpt>
      <trkpt lat="43.4779" lon="6.3259">
        <ele>141.1</ele>
        <time>2023-03-03T15:23:50Z</time>
      </trkpt>
      <trkpt lat="43.47791" lon="6.32591">
        <ele>141.2</ele>
        <time>2023-03-03T15:23:51Z</time>
      </trkpt>
      <trkpt lat="43.47791" lon="6.32593">
        <ele>141.3</ele>
        <time>2023-03-03T15:23:52Z</time>
      </trkpt>
      <trkpt lat="43.47792" lon="6.32593">
        <ele>141.4</ele>
        <time>2023-03-03T15:23:53Z</time>
      </trkpt>
      <trkpt lat="43.47792" lon="6.32594">
        <ele>141.4</ele>
        <time>2023-03-03T15:23:54Z</time>
      </trkpt>
      <trkpt lat="43.47793" lon="6.32595">
        <ele>141.6</ele>
        <time>2023-03-03T15:23:55Z</time>
      </trkpt>
      <trkpt lat="43.47793" lon="6.32596">
        <ele>141.7</ele>
        <time>2023-03-03T15:23:56Z</time>
      </trkpt>
      <trkpt lat="43.47794" lon="6.32596">
        <ele>141.8</ele>
        <time>2023-03-03T15:23:57Z</time>
      </trkpt>
      <trkpt lat="43.47794" lon="6.32598">
        <ele>141.9</ele>
        <time>2023-03-03T15:23:58Z</time>
      </trkpt>
      <trkpt lat="43.47795" lon="6.32599">
        <ele>142</ele>
        <time>2023-03-03T15:23:59Z</time>
      </trkpt>
      <trkpt lat="43.47795" lon="6.326">
        <ele>142</ele>
        <time>2023-03-03T15:24:00Z</time>
      </trkpt>
      <trkpt lat="43.47796" lon="6.32601">
        <ele>142</ele>
        <time>2023-03-03T15:24:01Z</time>
      </trkpt>
      <trkpt lat="43.47796" lon="6.32602">
        <ele>142</ele>
        <time>2023-03-03T15:24:02Z</time>
      </trkpt>
      <trkpt lat="43.47797" lon="6.32603">
        <ele>142.1</ele>
        <time>2023-03-03T15:24:03Z</time>
      </trkpt>
      <trkpt lat="43.47797" lon="6.32604">
        <ele>142.1</ele>
        <time>2023-03-03T15:24:04Z</time>
      </trkpt>
      <trkpt lat="43.47798" lon="6.32604">
        <ele>142.2</ele>
        <time>2023-03-03T15:24:05Z</time>
      </trkpt>
      <trkpt lat="43.47798" lon="6.32606">
        <ele>142.4</ele>
        <time>2023-03-03T15:24:07Z</time>
      </trkpt>
      <trkpt lat="43.47799" lon="6.32607">
        <ele>142.5</ele>
        <time>2023-03-03T15:24:08Z</time>
      </trkpt>
      <trkpt lat="43.47799" lon="6.32608">
        <ele>142.6</ele>
        <time>2023-03-03T15:24:09Z</time>
      </trkpt>
      <trkpt lat="43.478" lon="6.32609">
        <ele>142.7</ele>
        <time>2023-03-03T15:24:10Z</time>
      </trkpt>
      <trkpt lat="43.478" lon="6.3261">
        <ele>142.9</ele>
        <time>2023-03-03T15:24:11Z</time>
      </trkpt>
      <trkpt lat="43.478" lon="6.32611">
        <ele>143</ele>
        <time>2023-03-03T15:24:12Z</time>
      </trkpt>
      <trkpt lat="43.47801" lon="6.32612">
        <ele>143</ele>
        <time>2023-03-03T15:24:13Z</time>
      </trkpt>
      <trkpt lat="43.47801" lon="6.32613">
        <ele>143.1</ele>
        <time>2023-03-03T15:24:14Z</time>
      </trkpt>
      <trkpt lat="43.47801" lon="6.32614">
        <ele>143.2</ele>
        <time>2023-03-03T15:24:15Z</time>
      </trkpt>
      <trkpt lat="43.47802" lon="6.32615">
        <ele>143.3</ele>
        <time>2023-03-03T15:24:16Z</time>
      </trkpt>
      <trkpt lat="43.47802" lon="6.32616">
        <ele>143.3</ele>
        <time>2023-03-03T15:24:17Z</time>
      </trkpt>
      <trkpt lat="43.47802" lon="6.32616">
        <ele>143.4</ele>
        <time>2023-03-03T15:24:18Z</time>
      </trkpt>
      <trkpt lat="43.47803" lon="6.32618">
        <ele>143.5</ele>
        <time>2023-03-03T15:24:19Z</time>
      </trkpt>
      <trkpt lat="43.47803" lon="6.32619">
        <ele>143.5</ele>
        <time>2023-03-03T15:24:20Z</time>
      </trkpt>
      <trkpt lat="43.47803" lon="6.3262">
        <ele>143.6</ele>
        <time>2023-03-03T15:24:21Z</time>
      </trkpt>
      <trkpt lat="43.47804" lon="6.32621">
        <ele>143.6</ele>
        <time>2023-03-03T15:24:22Z</time>
      </trkpt>
      <trkpt lat="43.47804" lon="6.32623">
        <ele>143.8</ele>
        <time>2023-03-03T15:24:24Z</time>
      </trkpt>
      <trkpt lat="43.47805" lon="6.32624">
        <ele>143.9</ele>
        <time>2023-03-03T15:24:25Z</time>
      </trkpt>
      <trkpt lat="43.47805" lon="6.32626">
        <ele>144</ele>
        <time>2023-03-03T15:24:26Z</time>
      </trkpt>
      <trkpt lat="43.47806" lon="6.32626">
        <ele>144.1</ele>
        <time>2023-03-03T15:24:27Z</time>
      </trkpt>
      <trkpt lat="43.47806" lon="6.32628">
        <ele>144.2</ele>
        <time>2023-03-03T15:24:28Z</time>
      </trkpt>
      <trkpt lat="43.47807" lon="6.32629">
        <ele>144.4</ele>
        <time>2023-03-03T15:24:29Z</time>
      </trkpt>
      <trkpt lat="43.47807" lon="6.3263">
        <ele>144.5</ele>
        <time>2023-03-03T15:24:30Z</time>
      </trkpt>
      <trkpt lat="43.47807" lon="6.32631">
        <ele>144.6</ele>
        <time>2023-03-03T15:24:31Z</time>
      </trkpt>
      <trkpt lat="43.47808" lon="6.32632">
        <ele>144.8</ele>
        <time>2023-03-03T15:24:32Z</time>
      </trkpt>
      <trkpt lat="43.47808" lon="6.32633">
        <ele>144.9</ele>
        <time>2023-03-03T15:24:33Z</time>
      </trkpt>
      <trkpt lat="43.47809" lon="6.32634">
        <ele>145</ele>
        <time>2023-03-03T15:24:34Z</time>
      </trkpt>
      <trkpt lat="43.4781" lon="6.32635">
        <ele>145</ele>
        <time>2023-03-03T15:24:35Z</time>
      </trkpt>
      <trkpt lat="43.4781" lon="6.32637">
        <ele>145.1</ele>
        <time>2023-03-03T15:24:36Z</time>
      </trkpt>
      <trkpt lat="43.4781" lon="6.32638">
        <ele>145.3</ele>
        <time>2023-03-03T15:24:37Z</time>
      </trkpt>
      <trkpt lat="43.47811" lon="6.32639">
        <ele>145.4</ele>
        <time>2023-03-03T15:24:38Z</time>
      </trkpt>
      <trkpt lat="43.47811" lon="6.3264">
        <ele>145.5</ele>
        <time>2023-03-03T15:24:39Z</time>
      </trkpt>
      <trkpt lat="43.47811" lon="6.32641">
        <ele>145.6</ele>
        <time>2023-03-03T15:24:40Z</time>
      </trkpt>
      <trkpt lat="43.47812" lon="6.32642">
        <ele>145.7</ele>
        <time>2023-03-03T15:24:41Z</time>
      </trkpt>
      <trkpt lat="43.47812" lon="6.32643">
        <ele>145.6</ele>
        <time>2023-03-03T15:24:42Z</time>
      </trkpt>
      <trkpt lat="43.47813" lon="6.32643">
        <ele>145.7</ele>
        <time>2023-03-03T15:24:43Z</time>
      </trkpt>
      <trkpt lat="43.47814" lon="6.32644">
        <ele>145.7</ele>
        <time>2023-03-03T15:24:44Z</time>
      </trkpt>
      <trkpt lat="43.47814" lon="6.32645">
        <ele>145.7</ele>
        <time>2023-03-03T15:24:45Z</time>
      </trkpt>
      <trkpt lat="43.47814" lon="6.32646">
        <ele>145.8</ele>
        <time>2023-03-03T15:24:46Z</time>
      </trkpt>
      <trkpt lat="43.47815" lon="6.32647">
        <ele>145.9</ele>
        <time>2023-03-03T15:24:47Z</time>
      </trkpt>
      <trkpt lat="43.47815" lon="6.32649">
        <ele>146</ele>
        <time>2023-03-03T15:24:49Z</time>
      </trkpt>
      <trkpt lat="43.47815" lon="6.3265">
        <ele>146</ele>
        <time>2023-03-03T15:24:50Z</time>
      </trkpt>
      <trkpt lat="43.47816" lon="6.32651">
        <ele>146.1</ele>
        <time>2023-03-03T15:24:51Z</time>
      </trkpt>
      <trkpt lat="43.47816" lon="6.32652">
        <ele>146.1</ele>
        <time>2023-03-03T15:24:52Z</time>
      </trkpt>
      <trkpt lat="43.47817" lon="6.32653">
        <ele>146.2</ele>
        <time>2023-03-03T15:24:53Z</time>
      </trkpt>
      <trkpt lat="43.47817" lon="6.32653">
        <ele>146.2</ele>
        <time>2023-03-03T15:24:54Z</time>
      </trkpt>
      <trkpt lat="43.47817" lon="6.32654">
        <ele>146.3</ele>
        <time>2023-03-03T15:24:55Z</time>
      </trkpt>
      <trkpt lat="43.47818" lon="6.32655">
        <ele>146.4</ele>
        <time>2023-03-03T15:24:56Z</time>
      </trkpt>
      <trkpt lat="43.47818" lon="6.32656">
        <ele>146.5</ele>
        <time>2023-03-03T15:24:57Z</time>
      </trkpt>
      <trkpt lat="43.47819" lon="6.32657">
        <ele>146.6</ele>
        <time>2023-03-03T15:24:58Z</time>
      </trkpt>
      <trkpt lat="43.47819" lon="6.32657">
        <ele>146.7</ele>
        <time>2023-03-03T15:24:59Z</time>
      </trkpt>
      <trkpt lat="43.4782" lon="6.32658">
        <ele>146.8</ele>
        <time>2023-03-03T15:25:00Z</time>
      </trkpt>
      <trkpt lat="43.4782" lon="6.32659">
        <ele>146.8</ele>
        <time>2023-03-03T15:25:01Z</time>
      </trkpt>
      <trkpt lat="43.47821" lon="6.3266">
        <ele>146.9</ele>
        <time>2023-03-03T15:25:02Z</time>
      </trkpt>
      <trkpt lat="43.47822" lon="6.32661">
        <ele>147</ele>
        <time>2023-03-03T15:25:03Z</time>
      </trkpt>
      <trkpt lat="43.47822" lon="6.32662">
        <ele>147.1</ele>
        <time>2023-03-03T15:25:04Z</time>
      </trkpt>
      <trkpt lat="43.47823" lon="6.32663">
        <ele>147.3</ele>
        <time>2023-03-03T15:25:05Z</time>
      </trkpt>
      <trkpt lat="43.47823" lon="6.32664">
        <ele>147.4</ele>
        <time>2023-03-03T15:25:06Z</time>
      </trkpt>
      <trkpt lat="43.47823" lon="6.32665">
        <ele>147.5</ele>
        <time>2023-03-03T15:25:07Z</time>
      </trkpt>
      <trkpt lat="43.47824" lon="6.32666">
        <ele>147.6</ele>
        <time>2023-03-03T15:25:08Z</time>
      </trkpt>
      <trkpt lat="43.47824" lon="6.32667">
        <ele>147.7</ele>
        <time>2023-03-03T15:25:09Z</time>
      </trkpt>
      <trkpt lat="43.47825" lon="6.32667">
        <ele>147.8</ele>
        <time>2023-03-03T15:25:10Z</time>
      </trkpt>
      <trkpt lat="43.47825" lon="6.32668">
        <ele>147.9</ele>
        <time>2023-03-03T15:25:11Z</time>
      </trkpt>
      <trkpt lat="43.47825" lon="6.32669">
        <ele>148</ele>
        <time>2023-03-03T15:25:12Z</time>
      </trkpt>
      <trkpt lat="43.47825" lon="6.32669">
        <ele>148.1</ele>
        <time>2023-03-03T15:25:14Z</time>
      </trkpt>
      <trkpt lat="43.47826" lon="6.32669">
        <ele>148.1</ele>
        <time>2023-03-03T15:25:15Z</time>
      </trkpt>
      <trkpt lat="43.47826" lon="6.32669">
        <ele>148.1</ele>
        <time>2023-03-03T15:25:16Z</time>
      </trkpt>
      <trkpt lat="43.47826" lon="6.32669">
        <ele>148.1</ele>
        <time>2023-03-03T15:25:17Z</time>
      </trkpt>
      <trkpt lat="43.47826" lon="6.32669">
        <ele>148.2</ele>
        <time>2023-03-03T15:25:18Z</time>
      </trkpt>
      <trkpt lat="43.47826" lon="6.32669">
        <ele>148.2</ele>
        <time>2023-03-03T15:25:19Z</time>
      </trkpt>
      <trkpt lat="43.47826" lon="6.32669">
        <ele>148.2</ele>
        <time>2023-03-03T15:25:20Z</time>
      </trkpt>
      <trkpt lat="43.47826" lon="6.32669">
        <ele>148.2</ele>
        <time>2023-03-03T15:25:21Z</time>
      </trkpt>
      <trkpt lat="43.47827" lon="6.32669">
        <ele>148.3</ele>
        <time>2023-03-03T15:25:22Z</time>
      </trkpt>
      <trkpt lat="43.47827" lon="6.32669">
        <ele>148.3</ele>
        <time>2023-03-03T15:25:23Z</time>
      </trkpt>
      <trkpt lat="43.47827" lon="6.3267">
        <ele>148.3</ele>
        <time>2023-03-03T15:25:24Z</time>
      </trkpt>
      <trkpt lat="43.47827" lon="6.3267">
        <ele>148.4</ele>
        <time>2023-03-03T15:25:25Z</time>
      </trkpt>
      <trkpt lat="43.47827" lon="6.32671">
        <ele>148.4</ele>
        <time>2023-03-03T15:25:26Z</time>
      </trkpt>
      <trkpt lat="43.47827" lon="6.32671">
        <ele>148.4</ele>
        <time>2023-03-03T15:25:27Z</time>
      </trkpt>
      <trkpt lat="43.47827" lon="6.32671">
        <ele>148.4</ele>
        <time>2023-03-03T15:25:28Z</time>
      </trkpt>
      <trkpt lat="43.47827" lon="6.32671">
        <ele>148.4</ele>
        <time>2023-03-03T15:25:29Z</time>
      </trkpt>
      <trkpt lat="43.47827" lon="6.32671">
        <ele>148.4</ele>
        <time>2023-03-03T15:25:30Z</time>
      </trkpt>
      <trkpt lat="43.47827" lon="6.32672">
        <ele>148.4</ele>
        <time>2023-03-03T15:25:31Z</time>
      </trkpt>
      <trkpt lat="43.47827" lon="6.32672">
        <ele>148.4</ele>
        <time>2023-03-03T15:25:32Z</time>
      </trkpt>
      <trkpt lat="43.47827" lon="6.32671">
        <ele>148.4</ele>
        <time>2023-03-03T15:25:33Z</time>
      </trkpt>
      <trkpt lat="43.47827" lon="6.32671">
        <ele>148.3</ele>
        <time>2023-03-03T15:25:34Z</time>
      </trkpt>
      <trkpt lat="43.47827" lon="6.32671">
        <ele>148.3</ele>
        <time>2023-03-03T15:25:35Z</time>
      </trkpt>
      <trkpt lat="43.47828" lon="6.32672">
        <ele>148.3</ele>
        <time>2023-03-03T15:25:36Z</time>
      </trkpt>
      <trkpt lat="43.47828" lon="6.32672">
        <ele>148.3</ele>
        <time>2023-03-03T15:25:37Z</time>
      </trkpt>
      <trkpt lat="43.47828" lon="6.32672">
        <ele>148.4</ele>
        <time>2023-03-03T15:25:38Z</time>
      </trkpt>
      <trkpt lat="43.47828" lon="6.32672">
        <ele>148.4</ele>
        <time>2023-03-03T15:25:39Z</time>
      </trkpt>
      <trkpt lat="43.47828" lon="6.32672">
        <ele>148.4</ele>
        <time>2023-03-03T15:25:40Z</time>
      </trkpt>
      <trkpt lat="43.47828" lon="6.32672">
        <ele>148.4</ele>
        <time>2023-03-03T15:25:41Z</time>
      </trkpt>
      <trkpt lat="43.47828" lon="6.32673">
        <ele>148.4</ele>
        <time>2023-03-03T15:25:42Z</time>
      </trkpt>
      <trkpt lat="43.47828" lon="6.32673">
        <ele>148.5</ele>
        <time>2023-03-03T15:25:43Z</time>
      </trkpt>
      <trkpt lat="43.47828" lon="6.32673">
        <ele>148.5</ele>
        <time>2023-03-03T15:25:44Z</time>
      </trkpt>
      <trkpt lat="43.47828" lon="6.32673">
        <ele>148.5</ele>
        <time>2023-03-03T15:25:45Z</time>
      </trkpt>
      <trkpt lat="43.47827" lon="6.32673">
        <ele>148.6</ele>
        <time>2023-03-03T15:25:46Z</time>
      </trkpt>
      <trkpt lat="43.47827" lon="6.32673">
        <ele>148.6</ele>
        <time>2023-03-03T15:25:47Z</time>
      </trkpt>
      <trkpt lat="43.47827" lon="6.32673">
        <ele>148.5</ele>
        <time>2023-03-03T15:25:48Z</time>
      </trkpt>
      <trkpt lat="43.47827" lon="6.32674">
        <ele>148.5</ele>
        <time>2023-03-03T15:25:49Z</time>
      </trkpt>
      <trkpt lat="43.47827" lon="6.32674">
        <ele>148.5</ele>
        <time>2023-03-03T15:25:50Z</time>
      </trkpt>
      <trkpt lat="43.47827" lon="6.32674">
        <ele>148.5</ele>
        <time>2023-03-03T15:25:51Z</time>
      </trkpt>
      <trkpt lat="43.47827" lon="6.32674">
        <ele>148.4</ele>
        <time>2023-03-03T15:25:52Z</time>
      </trkpt>
      <trkpt lat="43.47827" lon="6.32674">
        <ele>148.4</ele>
        <time>2023-03-03T15:25:53Z</time>
      </trkpt>
      <trkpt lat="43.47827" lon="6.32674">
        <ele>148.4</ele>
        <time>2023-03-03T15:25:54Z</time>
      </trkpt>
      <trkpt lat="43.47827" lon="6.32674">
        <ele>148.4</ele>
        <time>2023-03-03T15:25:55Z</time>
      </trkpt>
      <trkpt lat="43.47827" lon="6.32674">
        <ele>148.4</ele>
        <time>2023-03-03T15:25:56Z</time>
      </trkpt>
      <trkpt lat="43.47827" lon="6.32674">
        <ele>148.4</ele>
        <time>2023-03-03T15:25:57Z</time>
      </trkpt>
      <trkpt lat="43.47827" lon="6.32674">
        <ele>148.3</ele>
        <time>2023-03-03T15:25:58Z</time>
      </trkpt>
      <trkpt lat="43.47827" lon="6.32674">
        <ele>148.3</ele>
        <time>2023-03-03T15:25:59Z</time>
      </trkpt>
      <trkpt lat="43.47827" lon="6.32674">
        <ele>148.3</ele>
        <time>2023-03-03T15:26:00Z</time>
      </trkpt>
      <trkpt lat="43.47827" lon="6.32674">
        <ele>148.3</ele>
        <time>2023-03-03T15:26:01Z</time>
      </trkpt>
      <trkpt lat="43.47827" lon="6.32675">
        <ele>148.3</ele>
        <time>2023-03-03T15:26:02Z</time>
      </trkpt>
      <trkpt lat="43.47827" lon="6.32675">
        <ele>148.4</ele>
        <time>2023-03-03T15:26:03Z</time>
      </trkpt>
      <trkpt lat="43.47827" lon="6.32675">
        <ele>148.4</ele>
        <time>2023-03-03T15:26:04Z</time>
      </trkpt>
      <trkpt lat="43.47827" lon="6.32675">
        <ele>148.4</ele>
        <time>2023-03-03T15:26:05Z</time>
      </trkpt>
      <trkpt lat="43.47827" lon="6.32675">
        <ele>148.4</ele>
        <time>2023-03-03T15:26:06Z</time>
      </trkpt>
      <trkpt lat="43.47827" lon="6.32675">
        <ele>148.5</ele>
        <time>2023-03-03T15:26:07Z</time>
      </trkpt>
      <trkpt lat="43.47827" lon="6.32674">
        <ele>148.5</ele>
        <time>2023-03-03T15:26:08Z</time>
      </trkpt>
      <trkpt lat="43.47827" lon="6.32675">
        <ele>148.5</ele>
        <time>2023-03-03T15:26:09Z</time>
      </trkpt>
      <trkpt lat="43.47827" lon="6.32674">
        <ele>148.5</ele>
        <time>2023-03-03T15:26:10Z</time>
      </trkpt>
      <trkpt lat="43.47827" lon="6.32675">
        <ele>148.4</ele>
        <time>2023-03-03T15:26:11Z</time>
      </trkpt>
      <trkpt lat="43.47827" lon="6.32675">
        <ele>148.4</ele>
        <time>2023-03-03T15:26:12Z</time>
      </trkpt>
      <trkpt lat="43.47827" lon="6.32675">
        <ele>148.4</ele>
        <time>2023-03-03T15:26:13Z</time>
      </trkpt>
      <trkpt lat="43.47827" lon="6.32675">
        <ele>148.4</ele>
        <time>2023-03-03T15:26:14Z</time>
      </trkpt>
      <trkpt lat="43.47827" lon="6.32675">
        <ele>148.4</ele>
        <time>2023-03-03T15:26:15Z</time>
      </trkpt>
      <trkpt lat="43.47827" lon="6.32675">
        <ele>148.3</ele>
        <time>2023-03-03T15:26:16Z</time>
      </trkpt>
      <trkpt lat="43.47826" lon="6.32675">
        <ele>148.3</ele>
        <time>2023-03-03T15:26:17Z</time>
      </trkpt>
      <trkpt lat="43.47826" lon="6.32675">
        <ele>148.4</ele>
        <time>2023-03-03T15:26:18Z</time>
      </trkpt>
      <trkpt lat="43.47826" lon="6.32675">
        <ele>148.4</ele>
        <time>2023-03-03T15:26:19Z</time>
      </trkpt>
      <trkpt lat="43.47826" lon="6.32675">
        <ele>148.5</ele>
        <time>2023-03-03T15:26:20Z</time>
      </trkpt>
      <trkpt lat="43.47826" lon="6.32675">
        <ele>148.5</ele>
        <time>2023-03-03T15:26:21Z</time>
      </trkpt>
      <trkpt lat="43.47826" lon="6.32675">
        <ele>148.5</ele>
        <time>2023-03-03T15:26:22Z</time>
      </trkpt>
      <trkpt lat="43.47826" lon="6.32675">
        <ele>148.5</ele>
        <time>2023-03-03T15:26:23Z</time>
      </trkpt>
      <trkpt lat="43.47826" lon="6.32675">
        <ele>148.5</ele>
        <time>2023-03-03T15:26:24Z</time>
      </trkpt>
      <trkpt lat="43.47826" lon="6.32675">
        <ele>148.5</ele>
        <time>2023-03-03T15:26:25Z</time>
      </trkpt>
      <trkpt lat="43.47826" lon="6.32675">
        <ele>148.5</ele>
        <time>2023-03-03T15:26:26Z</time>
      </trkpt>
      <trkpt lat="43.47826" lon="6.32675">
        <ele>148.5</ele>
        <time>2023-03-03T15:26:27Z</time>
      </trkpt>
      <trkpt lat="43.47826" lon="6.32675">
        <ele>148.5</ele>
        <time>2023-03-03T15:26:28Z</time>
      </trkpt>
      <trkpt lat="43.47826" lon="6.32675">
        <ele>148.5</ele>
        <time>2023-03-03T15:26:29Z</time>
      </trkpt>
      <trkpt lat="43.47826" lon="6.32676">
        <ele>148.5</ele>
        <time>2023-03-03T15:26:30Z</time>
      </trkpt>
      <trkpt lat="43.47826" lon="6.32676">
        <ele>148.4</ele>
        <time>2023-03-03T15:26:31Z</time>
      </trkpt>
      <trkpt lat="43.47826" lon="6.32676">
        <ele>148.5</ele>
        <time>2023-03-03T15:26:32Z</time>
      </trkpt>
      <trkpt lat="43.47827" lon="6.32676">
        <ele>148.5</ele>
        <time>2023-03-03T15:26:33Z</time>
      </trkpt>
      <trkpt lat="43.47827" lon="6.32676">
        <ele>148.5</ele>
        <time>2023-03-03T15:26:34Z</time>
      </trkpt>
      <trkpt lat="43.47827" lon="6.32676">
        <ele>148.5</ele>
        <time>2023-03-03T15:26:35Z</time>
      </trkpt>
      <trkpt lat="43.47827" lon="6.32676">
        <ele>148.5</ele>
        <time>2023-03-03T15:26:36Z</time>
      </trkpt>
      <trkpt lat="43.47827" lon="6.32676">
        <ele>148.5</ele>
        <time>2023-03-03T15:26:37Z</time>
      </trkpt>
      <trkpt lat="43.47827" lon="6.32676">
        <ele>148.5</ele>
        <time>2023-03-03T15:26:38Z</time>
      </trkpt>
      <trkpt lat="43.47827" lon="6.32675">
        <ele>148.5</ele>
        <time>2023-03-03T15:26:39Z</time>
      </trkpt>
      <trkpt lat="43.47827" lon="6.32675">
        <ele>148.5</ele>
        <time>2023-03-03T15:26:40Z</time>
      </trkpt>
      <trkpt lat="43.47827" lon="6.32675">
        <ele>148.6</ele>
        <time>2023-03-03T15:26:41Z</time>
      </trkpt>
      <trkpt lat="43.47827" lon="6.32675">
        <ele>148.6</ele>
        <time>2023-03-03T15:26:42Z</time>
      </trkpt>
      <trkpt lat="43.47827" lon="6.32676">
        <ele>148.6</ele>
        <time>2023-03-03T15:26:43Z</time>
      </trkpt>
      <trkpt lat="43.47827" lon="6.32676">
        <ele>148.6</ele>
        <time>2023-03-03T15:26:44Z</time>
      </trkpt>
      <trkpt lat="43.47827" lon="6.32676">
        <ele>148.7</ele>
        <time>2023-03-03T15:26:45Z</time>
      </trkpt>
      <trkpt lat="43.47827" lon="6.32676">
        <ele>148.7</ele>
        <time>2023-03-03T15:26:46Z</time>
      </trkpt>
      <trkpt lat="43.47827" lon="6.32676">
        <ele>148.6</ele>
        <time>2023-03-03T15:26:47Z</time>
      </trkpt>
      <trkpt lat="43.47827" lon="6.32675">
        <ele>148.6</ele>
        <time>2023-03-03T15:26:48Z</time>
      </trkpt>
      <trkpt lat="43.47827" lon="6.32675">
        <ele>148.7</ele>
        <time>2023-03-03T15:26:49Z</time>
      </trkpt>
      <trkpt lat="43.47827" lon="6.32675">
        <ele>148.7</ele>
        <time>2023-03-03T15:26:50Z</time>
      </trkpt>
      <trkpt lat="43.47827" lon="6.32675">
        <ele>148.8</ele>
        <time>2023-03-03T15:26:51Z</time>
      </trkpt>
      <trkpt lat="43.47827" lon="6.32675">
        <ele>148.8</ele>
        <time>2023-03-03T15:26:52Z</time>
      </trkpt>
      <trkpt lat="43.47827" lon="6.32675">
        <ele>148.9</ele>
        <time>2023-03-03T15:26:53Z</time>
      </trkpt>
      <trkpt lat="43.47827" lon="6.32675">
        <ele>149</ele>
        <time>2023-03-03T15:26:54Z</time>
      </trkpt>
      <trkpt lat="43.47827" lon="6.32675">
        <ele>149</ele>
        <time>2023-03-03T15:26:55Z</time>
      </trkpt>
      <trkpt lat="43.47827" lon="6.32675">
        <ele>148.9</ele>
        <time>2023-03-03T15:26:56Z</time>
      </trkpt>
      <trkpt lat="43.47827" lon="6.32675">
        <ele>148.9</ele>
        <time>2023-03-03T15:26:57Z</time>
      </trkpt>
      <trkpt lat="43.47827" lon="6.32675">
        <ele>149</ele>
        <time>2023-03-03T15:26:58Z</time>
      </trkpt>
      <trkpt lat="43.47827" lon="6.32675">
        <ele>149</ele>
        <time>2023-03-03T15:26:59Z</time>
      </trkpt>
      <trkpt lat="43.47827" lon="6.32675">
        <ele>149</ele>
        <time>2023-03-03T15:27:00Z</time>
      </trkpt>
      <trkpt lat="43.47827" lon="6.32675">
        <ele>149</ele>
        <time>2023-03-03T15:27:01Z</time>
      </trkpt>
      <trkpt lat="43.47827" lon="6.32675">
        <ele>149</ele>
        <time>2023-03-03T15:27:02Z</time>
      </trkpt>
      <trkpt lat="43.47827" lon="6.32675">
        <ele>148.9</ele>
        <time>2023-03-03T15:27:03Z</time>
      </trkpt>
      <trkpt lat="43.47827" lon="6.32675">
        <ele>149</ele>
        <time>2023-03-03T15:27:04Z</time>
      </trkpt>
      <trkpt lat="43.47827" lon="6.32675">
        <ele>148.9</ele>
        <time>2023-03-03T15:27:05Z</time>
      </trkpt>
      <trkpt lat="43.47827" lon="6.32675">
        <ele>149</ele>
        <time>2023-03-03T15:27:06Z</time>
      </trkpt>
      <trkpt lat="43.47827" lon="6.32675">
        <ele>149</ele>
        <time>2023-03-03T15:27:07Z</time>
      </trkpt>
      <trkpt lat="43.47827" lon="6.32675">
        <ele>149</ele>
        <time>2023-03-03T15:27:08Z</time>
      </trkpt>
      <trkpt lat="43.47827" lon="6.32675">
        <ele>149</ele>
        <time>2023-03-03T15:27:09Z</time>
      </trkpt>
      <trkpt lat="43.47827" lon="6.32675">
        <ele>148.9</ele>
        <time>2023-03-03T15:27:10Z</time>
      </trkpt>
      <trkpt lat="43.47826" lon="6.32675">
        <ele>148.9</ele>
        <time>2023-03-03T15:27:11Z</time>
      </trkpt>
      <trkpt lat="43.47827" lon="6.32674">
        <ele>148.9</ele>
        <time>2023-03-03T15:27:12Z</time>
      </trkpt>
      <trkpt lat="43.47827" lon="6.32674">
        <ele>148.9</ele>
        <time>2023-03-03T15:27:13Z</time>
      </trkpt>
      <trkpt lat="43.47827" lon="6.32675">
        <ele>148.9</ele>
        <time>2023-03-03T15:27:14Z</time>
      </trkpt>
      <trkpt lat="43.47827" lon="6.32675">
        <ele>148.9</ele>
        <time>2023-03-03T15:27:15Z</time>
      </trkpt>
      <trkpt lat="43.47827" lon="6.32675">
        <ele>149</ele>
        <time>2023-03-03T15:27:16Z</time>
      </trkpt>
      <trkpt lat="43.47827" lon="6.32675">
        <ele>149</ele>
        <time>2023-03-03T15:27:17Z</time>
      </trkpt>
      <trkpt lat="43.47827" lon="6.32675">
        <ele>149</ele>
        <time>2023-03-03T15:27:18Z</time>
      </trkpt>
      <trkpt lat="43.47827" lon="6.32675">
        <ele>149</ele>
        <time>2023-03-03T15:27:19Z</time>
      </trkpt>
      <trkpt lat="43.47827" lon="6.32675">
        <ele>149</ele>
        <time>2023-03-03T15:27:20Z</time>
      </trkpt>
      <trkpt lat="43.47827" lon="6.32675">
        <ele>148.9</ele>
        <time>2023-03-03T15:27:21Z</time>
      </trkpt>
      <trkpt lat="43.47827" lon="6.32675">
        <ele>148.9</ele>
        <time>2023-03-03T15:27:22Z</time>
      </trkpt>
      <trkpt lat="43.47827" lon="6.32675">
        <ele>148.8</ele>
        <time>2023-03-03T15:27:23Z</time>
      </trkpt>
      <trkpt lat="43.47827" lon="6.32675">
        <ele>148.8</ele>
        <time>2023-03-03T15:27:24Z</time>
      </trkpt>
      <trkpt lat="43.47827" lon="6.32675">
        <ele>148.7</ele>
        <time>2023-03-03T15:27:25Z</time>
      </trkpt>
      <trkpt lat="43.47827" lon="6.32675">
        <ele>148.7</ele>
        <time>2023-03-03T15:27:26Z</time>
      </trkpt>
      <trkpt lat="43.47827" lon="6.32675">
        <ele>148.6</ele>
        <time>2023-03-03T15:27:27Z</time>
      </trkpt>
      <trkpt lat="43.47827" lon="6.32674">
        <ele>148.5</ele>
        <time>2023-03-03T15:27:28Z</time>
      </trkpt>
      <trkpt lat="43.47827" lon="6.32674">
        <ele>148.6</ele>
        <time>2023-03-03T15:27:29Z</time>
      </trkpt>
      <trkpt lat="43.47827" lon="6.32674">
        <ele>148.6</ele>
        <time>2023-03-03T15:27:30Z</time>
      </trkpt>
      <trkpt lat="43.47827" lon="6.32674">
        <ele>148.6</ele>
        <time>2023-03-03T15:27:31Z</time>
      </trkpt>
      <trkpt lat="43.47827" lon="6.32675">
        <ele>148.6</ele>
        <time>2023-03-03T15:27:32Z</time>
      </trkpt>
      <trkpt lat="43.47827" lon="6.32675">
        <ele>148.7</ele>
        <time>2023-03-03T15:27:33Z</time>
      </trkpt>
      <trkpt lat="43.47826" lon="6.32675">
        <ele>148.8</ele>
        <time>2023-03-03T15:27:34Z</time>
      </trkpt>
      <trkpt lat="43.47826" lon="6.32675">
        <ele>148.9</ele>
        <time>2023-03-03T15:27:35Z</time>
      </trkpt>
      <trkpt lat="43.47826" lon="6.32675">
        <ele>148.9</ele>
        <time>2023-03-03T15:27:36Z</time>
      </trkpt>
      <trkpt lat="43.47826" lon="6.32675">
        <ele>149</ele>
        <time>2023-03-03T15:27:37Z</time>
      </trkpt>
      <trkpt lat="43.47826" lon="6.32675">
        <ele>149</ele>
        <time>2023-03-03T15:27:38Z</time>
      </trkpt>
      <trkpt lat="43.47826" lon="6.32675">
        <ele>149</ele>
        <time>2023-03-03T15:27:39Z</time>
      </trkpt>
      <trkpt lat="43.47826" lon="6.32675">
        <ele>149</ele>
        <time>2023-03-03T15:27:40Z</time>
      </trkpt>
      <trkpt lat="43.47826" lon="6.32674">
        <ele>149.1</ele>
        <time>2023-03-03T15:27:41Z</time>
      </trkpt>
      <trkpt lat="43.47827" lon="6.32674">
        <ele>149.1</ele>
        <time>2023-03-03T15:27:42Z</time>
      </trkpt>
      <trkpt lat="43.47827" lon="6.32674">
        <ele>149</ele>
        <time>2023-03-03T15:27:43Z</time>
      </trkpt>
      <trkpt lat="43.47835" lon="6.32679">
        <ele>149.1</ele>
        <time>2023-03-03T15:29:07Z</time>
      </trkpt>
      <trkpt lat="43.47836" lon="6.3268">
        <ele>149.1</ele>
        <time>2023-03-03T15:29:08Z</time>
      </trkpt>
      <trkpt lat="43.47836" lon="6.32681">
        <ele>149.1</ele>
        <time>2023-03-03T15:29:09Z</time>
      </trkpt>
      <trkpt lat="43.47837" lon="6.32682">
        <ele>149.1</ele>
        <time>2023-03-03T15:29:10Z</time>
      </trkpt>
      <trkpt lat="43.47838" lon="6.32683">
        <ele>149.2</ele>
        <time>2023-03-03T15:29:11Z</time>
      </trkpt>
      <trkpt lat="43.47838" lon="6.32684">
        <ele>149.2</ele>
        <time>2023-03-03T15:29:12Z</time>
      </trkpt>
      <trkpt lat="43.47839" lon="6.32685">
        <ele>149.2</ele>
        <time>2023-03-03T15:29:13Z</time>
      </trkpt>
      <trkpt lat="43.47839" lon="6.32686">
        <ele>149.2</ele>
        <time>2023-03-03T15:29:14Z</time>
      </trkpt>
      <trkpt lat="43.4784" lon="6.32687">
        <ele>149.1</ele>
        <time>2023-03-03T15:29:15Z</time>
      </trkpt>
      <trkpt lat="43.4784" lon="6.32688">
        <ele>149.1</ele>
        <time>2023-03-03T15:29:16Z</time>
      </trkpt>
      <trkpt lat="43.47841" lon="6.32689">
        <ele>149.1</ele>
        <time>2023-03-03T15:29:17Z</time>
      </trkpt>
      <trkpt lat="43.47842" lon="6.3269">
        <ele>149</ele>
        <time>2023-03-03T15:29:18Z</time>
      </trkpt>
      <trkpt lat="43.47843" lon="6.3269">
        <ele>149.1</ele>
        <time>2023-03-03T15:29:19Z</time>
      </trkpt>
      <trkpt lat="43.47844" lon="6.32692">
        <ele>149.1</ele>
        <time>2023-03-03T15:29:20Z</time>
      </trkpt>
      <trkpt lat="43.47845" lon="6.32693">
        <ele>149</ele>
        <time>2023-03-03T15:29:21Z</time>
      </trkpt>
      <trkpt lat="43.47846" lon="6.32693">
        <ele>149</ele>
        <time>2023-03-03T15:29:22Z</time>
      </trkpt>
      <trkpt lat="43.47847" lon="6.32694">
        <ele>149</ele>
        <time>2023-03-03T15:29:23Z</time>
      </trkpt>
      <trkpt lat="43.47847" lon="6.32695">
        <ele>149</ele>
        <time>2023-03-03T15:29:24Z</time>
      </trkpt>
      <trkpt lat="43.47848" lon="6.32696">
        <ele>148.9</ele>
        <time>2023-03-03T15:29:25Z</time>
      </trkpt>
      <trkpt lat="43.47849" lon="6.32697">
        <ele>148.9</ele>
        <time>2023-03-03T15:29:26Z</time>
      </trkpt>
      <trkpt lat="43.4785" lon="6.32698">
        <ele>148.9</ele>
        <time>2023-03-03T15:29:27Z</time>
      </trkpt>
      <trkpt lat="43.47851" lon="6.32699">
        <ele>148.9</ele>
        <time>2023-03-03T15:29:28Z</time>
      </trkpt>
      <trkpt lat="43.47852" lon="6.327">
        <ele>148.8</ele>
        <time>2023-03-03T15:29:29Z</time>
      </trkpt>
      <trkpt lat="43.47853" lon="6.32701">
        <ele>148.9</ele>
        <time>2023-03-03T15:29:30Z</time>
      </trkpt>
      <trkpt lat="43.47854" lon="6.32702">
        <ele>148.9</ele>
        <time>2023-03-03T15:29:31Z</time>
      </trkpt>
      <trkpt lat="43.47855" lon="6.32703">
        <ele>148.8</ele>
        <time>2023-03-03T15:29:32Z</time>
      </trkpt>
      <trkpt lat="43.47856" lon="6.32704">
        <ele>148.8</ele>
        <time>2023-03-03T15:29:33Z</time>
      </trkpt>
      <trkpt lat="43.47857" lon="6.32705">
        <ele>148.7</ele>
        <time>2023-03-03T15:29:34Z</time>
      </trkpt>
      <trkpt lat="43.47858" lon="6.32706">
        <ele>148.7</ele>
        <time>2023-03-03T15:29:35Z</time>
      </trkpt>
      <trkpt lat="43.47858" lon="6.32707">
        <ele>148.7</ele>
        <time>2023-03-03T15:29:36Z</time>
      </trkpt>
      <trkpt lat="43.47859" lon="6.32708">
        <ele>148.6</ele>
        <time>2023-03-03T15:29:37Z</time>
      </trkpt>
      <trkpt lat="43.4786" lon="6.32709">
        <ele>148.6</ele>
        <time>2023-03-03T15:29:38Z</time>
      </trkpt>
      <trkpt lat="43.47861" lon="6.3271">
        <ele>148.6</ele>
        <time>2023-03-03T15:29:39Z</time>
      </trkpt>
      <trkpt lat="43.47862" lon="6.32711">
        <ele>148.5</ele>
        <time>2023-03-03T15:29:40Z</time>
      </trkpt>
      <trkpt lat="43.47863" lon="6.32712">
        <ele>148.5</ele>
        <time>2023-03-03T15:29:41Z</time>
      </trkpt>
      <trkpt lat="43.47864" lon="6.32713">
        <ele>148.5</ele>
        <time>2023-03-03T15:29:42Z</time>
      </trkpt>
      <trkpt lat="43.47865" lon="6.32714">
        <ele>148.4</ele>
        <time>2023-03-03T15:29:43Z</time>
      </trkpt>
      <trkpt lat="43.47866" lon="6.32715">
        <ele>148.4</ele>
        <time>2023-03-03T15:29:44Z</time>
      </trkpt>
      <trkpt lat="43.47867" lon="6.32717">
        <ele>148.4</ele>
        <time>2023-03-03T15:29:45Z</time>
      </trkpt>
      <trkpt lat="43.47867" lon="6.32718">
        <ele>148.3</ele>
        <time>2023-03-03T15:29:46Z</time>
      </trkpt>
      <trkpt lat="43.47868" lon="6.32719">
        <ele>148.3</ele>
        <time>2023-03-03T15:29:47Z</time>
      </trkpt>
      <trkpt lat="43.47869" lon="6.3272">
        <ele>148.1</ele>
        <time>2023-03-03T15:29:48Z</time>
      </trkpt>
      <trkpt lat="43.4787" lon="6.32721">
        <ele>148.1</ele>
        <time>2023-03-03T15:29:49Z</time>
      </trkpt>
      <trkpt lat="43.47871" lon="6.32722">
        <ele>148</ele>
        <time>2023-03-03T15:29:50Z</time>
      </trkpt>
      <trkpt lat="43.47871" lon="6.32722">
        <ele>148</ele>
        <time>2023-03-03T15:29:51Z</time>
      </trkpt>
      <trkpt lat="43.47872" lon="6.32723">
        <ele>148</ele>
        <time>2023-03-03T15:29:52Z</time>
      </trkpt>
      <trkpt lat="43.47873" lon="6.32724">
        <ele>148</ele>
        <time>2023-03-03T15:29:53Z</time>
      </trkpt>
      <trkpt lat="43.47874" lon="6.32726">
        <ele>147.9</ele>
        <time>2023-03-03T15:29:54Z</time>
      </trkpt>
      <trkpt lat="43.47875" lon="6.32726">
        <ele>147.8</ele>
        <time>2023-03-03T15:29:55Z</time>
      </trkpt>
      <trkpt lat="43.47876" lon="6.32727">
        <ele>147.7</ele>
        <time>2023-03-03T15:29:56Z</time>
      </trkpt>
      <trkpt lat="43.47876" lon="6.32729">
        <ele>147.6</ele>
        <time>2023-03-03T15:29:57Z</time>
      </trkpt>
      <trkpt lat="43.47877" lon="6.32729">
        <ele>147.5</ele>
        <time>2023-03-03T15:29:58Z</time>
      </trkpt>
      <trkpt lat="43.47878" lon="6.3273">
        <ele>147.5</ele>
        <time>2023-03-03T15:29:59Z</time>
      </trkpt>
      <trkpt lat="43.47879" lon="6.32731">
        <ele>147.4</ele>
        <time>2023-03-03T15:30:00Z</time>
      </trkpt>
      <trkpt lat="43.4788" lon="6.32732">
        <ele>147.4</ele>
        <time>2023-03-03T15:30:01Z</time>
      </trkpt>
      <trkpt lat="43.47881" lon="6.32733">
        <ele>147.3</ele>
        <time>2023-03-03T15:30:02Z</time>
      </trkpt>
      <trkpt lat="43.47882" lon="6.32734">
        <ele>147.2</ele>
        <time>2023-03-03T15:30:03Z</time>
      </trkpt>
      <trkpt lat="43.47882" lon="6.32735">
        <ele>147.2</ele>
        <time>2023-03-03T15:30:04Z</time>
      </trkpt>
      <trkpt lat="43.47884" lon="6.32735">
        <ele>147.2</ele>
        <time>2023-03-03T15:30:05Z</time>
      </trkpt>
      <trkpt lat="43.47885" lon="6.32736">
        <ele>147.2</ele>
        <time>2023-03-03T15:30:06Z</time>
      </trkpt>
      <trkpt lat="43.47886" lon="6.32737">
        <ele>147.2</ele>
        <time>2023-03-03T15:30:07Z</time>
      </trkpt>
      <trkpt lat="43.47887" lon="6.32738">
        <ele>147.1</ele>
        <time>2023-03-03T15:30:08Z</time>
      </trkpt>
      <trkpt lat="43.47888" lon="6.32738">
        <ele>147.1</ele>
        <time>2023-03-03T15:30:09Z</time>
      </trkpt>
      <trkpt lat="43.47889" lon="6.32739">
        <ele>147.1</ele>
        <time>2023-03-03T15:30:10Z</time>
      </trkpt>
      <trkpt lat="43.4789" lon="6.3274">
        <ele>147.1</ele>
        <time>2023-03-03T15:30:11Z</time>
      </trkpt>
      <trkpt lat="43.47891" lon="6.32741">
        <ele>147.2</ele>
        <time>2023-03-03T15:30:12Z</time>
      </trkpt>
      <trkpt lat="43.47893" lon="6.32742">
        <ele>147.2</ele>
        <time>2023-03-03T15:30:13Z</time>
      </trkpt>
      <trkpt lat="43.47894" lon="6.32743">
        <ele>147.2</ele>
        <time>2023-03-03T15:30:14Z</time>
      </trkpt>
      <trkpt lat="43.47894" lon="6.32744">
        <ele>147.2</ele>
        <time>2023-03-03T15:30:15Z</time>
      </trkpt>
      <trkpt lat="43.47895" lon="6.32745">
        <ele>147.1</ele>
        <time>2023-03-03T15:30:16Z</time>
      </trkpt>
      <trkpt lat="43.47896" lon="6.32746">
        <ele>147.1</ele>
        <time>2023-03-03T15:30:17Z</time>
      </trkpt>
      <trkpt lat="43.47897" lon="6.32746">
        <ele>147.1</ele>
        <time>2023-03-03T15:30:18Z</time>
      </trkpt>
      <trkpt lat="43.47898" lon="6.32747">
        <ele>147.2</ele>
        <time>2023-03-03T15:30:19Z</time>
      </trkpt>
      <trkpt lat="43.47899" lon="6.32748">
        <ele>147.2</ele>
        <time>2023-03-03T15:30:20Z</time>
      </trkpt>
      <trkpt lat="43.479" lon="6.32749">
        <ele>147.3</ele>
        <time>2023-03-03T15:30:21Z</time>
      </trkpt>
      <trkpt lat="43.47901" lon="6.32749">
        <ele>147.2</ele>
        <time>2023-03-03T15:30:22Z</time>
      </trkpt>
      <trkpt lat="43.47902" lon="6.3275">
        <ele>147.3</ele>
        <time>2023-03-03T15:30:23Z</time>
      </trkpt>
      <trkpt lat="43.47903" lon="6.32751">
        <ele>147.4</ele>
        <time>2023-03-03T15:30:24Z</time>
      </trkpt>
      <trkpt lat="43.47904" lon="6.32752">
        <ele>147.4</ele>
        <time>2023-03-03T15:30:25Z</time>
      </trkpt>
      <trkpt lat="43.47905" lon="6.32752">
        <ele>147.5</ele>
        <time>2023-03-03T15:30:26Z</time>
      </trkpt>
      <trkpt lat="43.47906" lon="6.32753">
        <ele>147.6</ele>
        <time>2023-03-03T15:30:27Z</time>
      </trkpt>
      <trkpt lat="43.47907" lon="6.32754">
        <ele>147.6</ele>
        <time>2023-03-03T15:30:28Z</time>
      </trkpt>
      <trkpt lat="43.47908" lon="6.32754">
        <ele>147.7</ele>
        <time>2023-03-03T15:30:29Z</time>
      </trkpt>
      <trkpt lat="43.4791" lon="6.32754">
        <ele>147.9</ele>
        <time>2023-03-03T15:30:30Z</time>
      </trkpt>
      <trkpt lat="43.47911" lon="6.32754">
        <ele>147.9</ele>
        <time>2023-03-03T15:30:31Z</time>
      </trkpt>
      <trkpt lat="43.47913" lon="6.32754">
        <ele>148</ele>
        <time>2023-03-03T15:30:32Z</time>
      </trkpt>
      <trkpt lat="43.47914" lon="6.32754">
        <ele>148.1</ele>
        <time>2023-03-03T15:30:33Z</time>
      </trkpt>
      <trkpt lat="43.47915" lon="6.32755">
        <ele>148.1</ele>
        <time>2023-03-03T15:30:34Z</time>
      </trkpt>
      <trkpt lat="43.47916" lon="6.32756">
        <ele>148.1</ele>
        <time>2023-03-03T15:30:35Z</time>
      </trkpt>
      <trkpt lat="43.47918" lon="6.32755">
        <ele>148.1</ele>
        <time>2023-03-03T15:30:36Z</time>
      </trkpt>
      <trkpt lat="43.47919" lon="6.32756">
        <ele>148.1</ele>
        <time>2023-03-03T15:30:37Z</time>
      </trkpt>
      <trkpt lat="43.47921" lon="6.32756">
        <ele>148.1</ele>
        <time>2023-03-03T15:30:38Z</time>
      </trkpt>
      <trkpt lat="43.47922" lon="6.32756">
        <ele>148.1</ele>
        <time>2023-03-03T15:30:39Z</time>
      </trkpt>
      <trkpt lat="43.47923" lon="6.32756">
        <ele>148.1</ele>
        <time>2023-03-03T15:30:40Z</time>
      </trkpt>
      <trkpt lat="43.47925" lon="6.32757">
        <ele>148</ele>
        <time>2023-03-03T15:30:41Z</time>
      </trkpt>
      <trkpt lat="43.47926" lon="6.32757">
        <ele>148</ele>
        <time>2023-03-03T15:30:42Z</time>
      </trkpt>
      <trkpt lat="43.47927" lon="6.32757">
        <ele>147.9</ele>
        <time>2023-03-03T15:30:43Z</time>
      </trkpt>
      <trkpt lat="43.47928" lon="6.32758">
        <ele>147.9</ele>
        <time>2023-03-03T15:30:44Z</time>
      </trkpt>
      <trkpt lat="43.47929" lon="6.32759">
        <ele>147.8</ele>
        <time>2023-03-03T15:30:45Z</time>
      </trkpt>
      <trkpt lat="43.47931" lon="6.32759">
        <ele>147.7</ele>
        <time>2023-03-03T15:30:46Z</time>
      </trkpt>
      <trkpt lat="43.47932" lon="6.32759">
        <ele>147.7</ele>
        <time>2023-03-03T15:30:47Z</time>
      </trkpt>
      <trkpt lat="43.47933" lon="6.3276">
        <ele>147.7</ele>
        <time>2023-03-03T15:30:48Z</time>
      </trkpt>
      <trkpt lat="43.47935" lon="6.3276">
        <ele>147.5</ele>
        <time>2023-03-03T15:30:49Z</time>
      </trkpt>
      <trkpt lat="43.47936" lon="6.32761">
        <ele>147.3</ele>
        <time>2023-03-03T15:30:50Z</time>
      </trkpt>
      <trkpt lat="43.47937" lon="6.32761">
        <ele>147.3</ele>
        <time>2023-03-03T15:30:51Z</time>
      </trkpt>
      <trkpt lat="43.47938" lon="6.32761">
        <ele>147.2</ele>
        <time>2023-03-03T15:30:52Z</time>
      </trkpt>
      <trkpt lat="43.47938" lon="6.32761">
        <ele>147.1</ele>
        <time>2023-03-03T15:30:53Z</time>
      </trkpt>
      <trkpt lat="43.47939" lon="6.32761">
        <ele>147.1</ele>
        <time>2023-03-03T15:30:54Z</time>
      </trkpt>
      <trkpt lat="43.47941" lon="6.32761">
        <ele>146.9</ele>
        <time>2023-03-03T15:30:55Z</time>
      </trkpt>
      <trkpt lat="43.47942" lon="6.32761">
        <ele>146.8</ele>
        <time>2023-03-03T15:30:56Z</time>
      </trkpt>
      <trkpt lat="43.47944" lon="6.32761">
        <ele>146.6</ele>
        <time>2023-03-03T15:30:57Z</time>
      </trkpt>
      <trkpt lat="43.47945" lon="6.32761">
        <ele>146.5</ele>
        <time>2023-03-03T15:30:58Z</time>
      </trkpt>
      <trkpt lat="43.47946" lon="6.3276">
        <ele>146.5</ele>
        <time>2023-03-03T15:30:59Z</time>
      </trkpt>
      <trkpt lat="43.47947" lon="6.3276">
        <ele>146.4</ele>
        <time>2023-03-03T15:31:00Z</time>
      </trkpt>
      <trkpt lat="43.47947" lon="6.3276">
        <ele>146.3</ele>
        <time>2023-03-03T15:31:01Z</time>
      </trkpt>
      <trkpt lat="43.47948" lon="6.3276">
        <ele>146.2</ele>
        <time>2023-03-03T15:31:02Z</time>
      </trkpt>
      <trkpt lat="43.47949" lon="6.3276">
        <ele>146.2</ele>
        <time>2023-03-03T15:31:03Z</time>
      </trkpt>
      <trkpt lat="43.4795" lon="6.32759">
        <ele>146.1</ele>
        <time>2023-03-03T15:31:04Z</time>
      </trkpt>
      <trkpt lat="43.47952" lon="6.32759">
        <ele>146.2</ele>
        <time>2023-03-03T15:31:05Z</time>
      </trkpt>
      <trkpt lat="43.47953" lon="6.3276">
        <ele>146.1</ele>
        <time>2023-03-03T15:31:06Z</time>
      </trkpt>
      <trkpt lat="43.47954" lon="6.32761">
        <ele>146.1</ele>
        <time>2023-03-03T15:31:07Z</time>
      </trkpt>
      <trkpt lat="43.47955" lon="6.32761">
        <ele>146.1</ele>
        <time>2023-03-03T15:31:08Z</time>
      </trkpt>
      <trkpt lat="43.47956" lon="6.32761">
        <ele>146.1</ele>
        <time>2023-03-03T15:31:09Z</time>
      </trkpt>
      <trkpt lat="43.47957" lon="6.32759">
        <ele>146</ele>
        <time>2023-03-03T15:31:10Z</time>
      </trkpt>
      <trkpt lat="43.47958" lon="6.32759">
        <ele>146</ele>
        <time>2023-03-03T15:31:11Z</time>
      </trkpt>
      <trkpt lat="43.47959" lon="6.32758">
        <ele>145.9</ele>
        <time>2023-03-03T15:31:12Z</time>
      </trkpt>
      <trkpt lat="43.4796" lon="6.32758">
        <ele>145.9</ele>
        <time>2023-03-03T15:31:13Z</time>
      </trkpt>
      <trkpt lat="43.4796" lon="6.32759">
        <ele>145.9</ele>
        <time>2023-03-03T15:31:14Z</time>
      </trkpt>
      <trkpt lat="43.47961" lon="6.3276">
        <ele>145.8</ele>
        <time>2023-03-03T15:31:15Z</time>
      </trkpt>
      <trkpt lat="43.47963" lon="6.3276">
        <ele>145.7</ele>
        <time>2023-03-03T15:31:16Z</time>
      </trkpt>
      <trkpt lat="43.47964" lon="6.32761">
        <ele>145.6</ele>
        <time>2023-03-03T15:31:17Z</time>
      </trkpt>
      <trkpt lat="43.47965" lon="6.32762">
        <ele>145.5</ele>
        <time>2023-03-03T15:31:18Z</time>
      </trkpt>
      <trkpt lat="43.47966" lon="6.32763">
        <ele>145.5</ele>
        <time>2023-03-03T15:31:19Z</time>
      </trkpt>
      <trkpt lat="43.47967" lon="6.32762">
        <ele>145.5</ele>
        <time>2023-03-03T15:31:20Z</time>
      </trkpt>
      <trkpt lat="43.47968" lon="6.32761">
        <ele>145.5</ele>
        <time>2023-03-03T15:31:21Z</time>
      </trkpt>
      <trkpt lat="43.47969" lon="6.32762">
        <ele>145.5</ele>
        <time>2023-03-03T15:31:22Z</time>
      </trkpt>
      <trkpt lat="43.47971" lon="6.32762">
        <ele>145.5</ele>
        <time>2023-03-03T15:31:23Z</time>
      </trkpt>
      <trkpt lat="43.47971" lon="6.32763">
        <ele>145.6</ele>
        <time>2023-03-03T15:31:24Z</time>
      </trkpt>
      <trkpt lat="43.47972" lon="6.32762">
        <ele>145.6</ele>
        <time>2023-03-03T15:31:25Z</time>
      </trkpt>
      <trkpt lat="43.47973" lon="6.32762">
        <ele>145.5</ele>
        <time>2023-03-03T15:31:26Z</time>
      </trkpt>
      <trkpt lat="43.47974" lon="6.32762">
        <ele>145.5</ele>
        <time>2023-03-03T15:31:27Z</time>
      </trkpt>
      <trkpt lat="43.47975" lon="6.32761">
        <ele>145.5</ele>
        <time>2023-03-03T15:31:28Z</time>
      </trkpt>
      <trkpt lat="43.47976" lon="6.3276">
        <ele>145.6</ele>
        <time>2023-03-03T15:31:29Z</time>
      </trkpt>
      <trkpt lat="43.47977" lon="6.3276">
        <ele>145.6</ele>
        <time>2023-03-03T15:31:30Z</time>
      </trkpt>
      <trkpt lat="43.47977" lon="6.3276">
        <ele>145.6</ele>
        <time>2023-03-03T15:31:31Z</time>
      </trkpt>
      <trkpt lat="43.47979" lon="6.32759">
        <ele>145.6</ele>
        <time>2023-03-03T15:31:32Z</time>
      </trkpt>
      <trkpt lat="43.4798" lon="6.32758">
        <ele>145.7</ele>
        <time>2023-03-03T15:31:33Z</time>
      </trkpt>
      <trkpt lat="43.47981" lon="6.32758">
        <ele>145.7</ele>
        <time>2023-03-03T15:31:34Z</time>
      </trkpt>
      <trkpt lat="43.47982" lon="6.32757">
        <ele>145.6</ele>
        <time>2023-03-03T15:31:35Z</time>
      </trkpt>
      <trkpt lat="43.47983" lon="6.32756">
        <ele>145.6</ele>
        <time>2023-03-03T15:31:36Z</time>
      </trkpt>
      <trkpt lat="43.47985" lon="6.32755">
        <ele>145.5</ele>
        <time>2023-03-03T15:31:37Z</time>
      </trkpt>
      <trkpt lat="43.47985" lon="6.32755">
        <ele>145.5</ele>
        <time>2023-03-03T15:31:38Z</time>
      </trkpt>
      <trkpt lat="43.47987" lon="6.32755">
        <ele>145.5</ele>
        <time>2023-03-03T15:31:39Z</time>
      </trkpt>
      <trkpt lat="43.47988" lon="6.32755">
        <ele>145.5</ele>
        <time>2023-03-03T15:31:40Z</time>
      </trkpt>
      <trkpt lat="43.47989" lon="6.32755">
        <ele>145.5</ele>
        <time>2023-03-03T15:31:41Z</time>
      </trkpt>
      <trkpt lat="43.4799" lon="6.32755">
        <ele>145.6</ele>
        <time>2023-03-03T15:31:42Z</time>
      </trkpt>
      <trkpt lat="43.4799" lon="6.32755">
        <ele>145.6</ele>
        <time>2023-03-03T15:31:43Z</time>
      </trkpt>
      <trkpt lat="43.47992" lon="6.32755">
        <ele>145.6</ele>
        <time>2023-03-03T15:31:44Z</time>
      </trkpt>
      <trkpt lat="43.47994" lon="6.32755">
        <ele>145.5</ele>
        <time>2023-03-03T15:31:45Z</time>
      </trkpt>
      <trkpt lat="43.47995" lon="6.32754">
        <ele>145.6</ele>
        <time>2023-03-03T15:31:46Z</time>
      </trkpt>
      <trkpt lat="43.47998" lon="6.32753">
        <ele>145.6</ele>
        <time>2023-03-03T15:31:47Z</time>
      </trkpt>
      <trkpt lat="43.47999" lon="6.32752">
        <ele>145.7</ele>
        <time>2023-03-03T15:31:48Z</time>
      </trkpt>
      <trkpt lat="43.48001" lon="6.32751">
        <ele>145.7</ele>
        <time>2023-03-03T15:31:49Z</time>
      </trkpt>
      <trkpt lat="43.48002" lon="6.32755">
        <ele>144.4</ele>
        <time>2023-03-03T15:31:49Z</time>
      </trkpt>
      <trkpt lat="43.48002" lon="6.32751">
        <ele>145.7</ele>
        <time>2023-03-03T15:31:50Z</time>
      </trkpt>
      <trkpt lat="43.48003" lon="6.32752">
        <ele>145.7</ele>
        <time>2023-03-03T15:31:51Z</time>
      </trkpt>
      <trkpt lat="43.48004" lon="6.32751">
        <ele>145.7</ele>
        <time>2023-03-03T15:31:52Z</time>
      </trkpt>
      <trkpt lat="43.48005" lon="6.3275">
        <ele>145.7</ele>
        <time>2023-03-03T15:31:53Z</time>
      </trkpt>
      <trkpt lat="43.48006" lon="6.32749">
        <ele>145.7</ele>
        <time>2023-03-03T15:31:54Z</time>
      </trkpt>
      <trkpt lat="43.48007" lon="6.32749">
        <ele>145.7</ele>
        <time>2023-03-03T15:31:55Z</time>
      </trkpt>
      <trkpt lat="43.48008" lon="6.32749">
        <ele>145.7</ele>
        <time>2023-03-03T15:31:56Z</time>
      </trkpt>
      <trkpt lat="43.4801" lon="6.32749">
        <ele>145.7</ele>
        <time>2023-03-03T15:31:57Z</time>
      </trkpt>
      <trkpt lat="43.48011" lon="6.32748">
        <ele>145.8</ele>
        <time>2023-03-03T15:31:58Z</time>
      </trkpt>
      <trkpt lat="43.48013" lon="6.32748">
        <ele>145.8</ele>
        <time>2023-03-03T15:31:59Z</time>
      </trkpt>
      <trkpt lat="43.48013" lon="6.32747">
        <ele>145.9</ele>
        <time>2023-03-03T15:32:00Z</time>
      </trkpt>
      <trkpt lat="43.48014" lon="6.32747">
        <ele>145.9</ele>
        <time>2023-03-03T15:32:01Z</time>
      </trkpt>
      <trkpt lat="43.48016" lon="6.32747">
        <ele>145.9</ele>
        <time>2023-03-03T15:32:02Z</time>
      </trkpt>
      <trkpt lat="43.48017" lon="6.32747">
        <ele>145.9</ele>
        <time>2023-03-03T15:32:03Z</time>
      </trkpt>
      <trkpt lat="43.48018" lon="6.32747">
        <ele>145.9</ele>
        <time>2023-03-03T15:32:04Z</time>
      </trkpt>
      <trkpt lat="43.4802" lon="6.32747">
        <ele>146</ele>
        <time>2023-03-03T15:32:05Z</time>
      </trkpt>
      <trkpt lat="43.48021" lon="6.32747">
        <ele>146.2</ele>
        <time>2023-03-03T15:32:06Z</time>
      </trkpt>
      <trkpt lat="43.48022" lon="6.32747">
        <ele>146.3</ele>
        <time>2023-03-03T15:32:07Z</time>
      </trkpt>
      <trkpt lat="43.48024" lon="6.32747">
        <ele>146.4</ele>
        <time>2023-03-03T15:32:08Z</time>
      </trkpt>
      <trkpt lat="43.48025" lon="6.32746">
        <ele>146.5</ele>
        <time>2023-03-03T15:32:09Z</time>
      </trkpt>
      <trkpt lat="43.48028" lon="6.32747">
        <ele>146.6</ele>
        <time>2023-03-03T15:32:10Z</time>
      </trkpt>
      <trkpt lat="43.48029" lon="6.32748">
        <ele>146.7</ele>
        <time>2023-03-03T15:32:11Z</time>
      </trkpt>
      <trkpt lat="43.4803" lon="6.32749">
        <ele>146.6</ele>
        <time>2023-03-03T15:32:12Z</time>
      </trkpt>
      <trkpt lat="43.48032" lon="6.32748">
        <ele>146.6</ele>
        <time>2023-03-03T15:32:13Z</time>
      </trkpt>
      <trkpt lat="43.48034" lon="6.32748">
        <ele>146.6</ele>
        <time>2023-03-03T15:32:14Z</time>
      </trkpt>
      <trkpt lat="43.48035" lon="6.32748">
        <ele>146.6</ele>
        <time>2023-03-03T15:32:15Z</time>
      </trkpt>
      <trkpt lat="43.48037" lon="6.32748">
        <ele>146.6</ele>
        <time>2023-03-03T15:32:16Z</time>
      </trkpt>
      <trkpt lat="43.48038" lon="6.32748">
        <ele>146.7</ele>
        <time>2023-03-03T15:32:17Z</time>
      </trkpt>
      <trkpt lat="43.48039" lon="6.32748">
        <ele>146.8</ele>
        <time>2023-03-03T15:32:18Z</time>
      </trkpt>
      <trkpt lat="43.4804" lon="6.32748">
        <ele>146.8</ele>
        <time>2023-03-03T15:32:19Z</time>
      </trkpt>
      <trkpt lat="43.48041" lon="6.32748">
        <ele>146.9</ele>
        <time>2023-03-03T15:32:20Z</time>
      </trkpt>
      <trkpt lat="43.48042" lon="6.32747">
        <ele>147</ele>
        <time>2023-03-03T15:32:21Z</time>
      </trkpt>
      <trkpt lat="43.48043" lon="6.32748">
        <ele>147</ele>
        <time>2023-03-03T15:32:22Z</time>
      </trkpt>
      <trkpt lat="43.48044" lon="6.32749">
        <ele>147.1</ele>
        <time>2023-03-03T15:32:23Z</time>
      </trkpt>
      <trkpt lat="43.48045" lon="6.3275">
        <ele>147.2</ele>
        <time>2023-03-03T15:32:24Z</time>
      </trkpt>
      <trkpt lat="43.48046" lon="6.3275">
        <ele>147.3</ele>
        <time>2023-03-03T15:32:25Z</time>
      </trkpt>
      <trkpt lat="43.48047" lon="6.3275">
        <ele>147.4</ele>
        <time>2023-03-03T15:32:26Z</time>
      </trkpt>
      <trkpt lat="43.48048" lon="6.32751">
        <ele>147.5</ele>
        <time>2023-03-03T15:32:27Z</time>
      </trkpt>
      <trkpt lat="43.4805" lon="6.32753">
        <ele>147.6</ele>
        <time>2023-03-03T15:32:28Z</time>
      </trkpt>
      <trkpt lat="43.48051" lon="6.32754">
        <ele>147.7</ele>
        <time>2023-03-03T15:32:29Z</time>
      </trkpt>
      <trkpt lat="43.48052" lon="6.32754">
        <ele>147.9</ele>
        <time>2023-03-03T15:32:30Z</time>
      </trkpt>
      <trkpt lat="43.48053" lon="6.32755">
        <ele>147.9</ele>
        <time>2023-03-03T15:32:31Z</time>
      </trkpt>
      <trkpt lat="43.48054" lon="6.32756">
        <ele>148</ele>
        <time>2023-03-03T15:32:32Z</time>
      </trkpt>
      <trkpt lat="43.48055" lon="6.32756">
        <ele>148.2</ele>
        <time>2023-03-03T15:32:33Z</time>
      </trkpt>
      <trkpt lat="43.48056" lon="6.32757">
        <ele>148.3</ele>
        <time>2023-03-03T15:32:34Z</time>
      </trkpt>
      <trkpt lat="43.48058" lon="6.32757">
        <ele>148.4</ele>
        <time>2023-03-03T15:32:35Z</time>
      </trkpt>
      <trkpt lat="43.48059" lon="6.32758">
        <ele>148.5</ele>
        <time>2023-03-03T15:32:36Z</time>
      </trkpt>
      <trkpt lat="43.4806" lon="6.32759">
        <ele>148.6</ele>
        <time>2023-03-03T15:32:37Z</time>
      </trkpt>
      <trkpt lat="43.48061" lon="6.3276">
        <ele>148.7</ele>
        <time>2023-03-03T15:32:38Z</time>
      </trkpt>
      <trkpt lat="43.48062" lon="6.32761">
        <ele>148.7</ele>
        <time>2023-03-03T15:32:39Z</time>
      </trkpt>
      <trkpt lat="43.48062" lon="6.32762">
        <ele>148.8</ele>
        <time>2023-03-03T15:32:40Z</time>
      </trkpt>
      <trkpt lat="43.48063" lon="6.32762">
        <ele>149</ele>
        <time>2023-03-03T15:32:41Z</time>
      </trkpt>
      <trkpt lat="43.48064" lon="6.32762">
        <ele>149.2</ele>
        <time>2023-03-03T15:32:42Z</time>
      </trkpt>
      <trkpt lat="43.48065" lon="6.32763">
        <ele>149.3</ele>
        <time>2023-03-03T15:32:43Z</time>
      </trkpt>
      <trkpt lat="43.48066" lon="6.32763">
        <ele>149.4</ele>
        <time>2023-03-03T15:32:44Z</time>
      </trkpt>
      <trkpt lat="43.48067" lon="6.32764">
        <ele>149.5</ele>
        <time>2023-03-03T15:32:45Z</time>
      </trkpt>
      <trkpt lat="43.48068" lon="6.32764">
        <ele>149.5</ele>
        <time>2023-03-03T15:32:46Z</time>
      </trkpt>
      <trkpt lat="43.48068" lon="6.32765">
        <ele>149.6</ele>
        <time>2023-03-03T15:32:47Z</time>
      </trkpt>
      <trkpt lat="43.48069" lon="6.32765">
        <ele>149.8</ele>
        <time>2023-03-03T15:32:48Z</time>
      </trkpt>
      <trkpt lat="43.4807" lon="6.32766">
        <ele>149.9</ele>
        <time>2023-03-03T15:32:49Z</time>
      </trkpt>
      <trkpt lat="43.48071" lon="6.32766">
        <ele>150.1</ele>
        <time>2023-03-03T15:32:50Z</time>
      </trkpt>
      <trkpt lat="43.48072" lon="6.32766">
        <ele>150.2</ele>
        <time>2023-03-03T15:32:51Z</time>
      </trkpt>
      <trkpt lat="43.48072" lon="6.32767">
        <ele>150.4</ele>
        <time>2023-03-03T15:32:52Z</time>
      </trkpt>
      <trkpt lat="43.48073" lon="6.32767">
        <ele>150.4</ele>
        <time>2023-03-03T15:32:53Z</time>
      </trkpt>
      <trkpt lat="43.48074" lon="6.32769">
        <ele>150.5</ele>
        <time>2023-03-03T15:32:54Z</time>
      </trkpt>
      <trkpt lat="43.48074" lon="6.3277">
        <ele>150.6</ele>
        <time>2023-03-03T15:32:55Z</time>
      </trkpt>
      <trkpt lat="43.48075" lon="6.32771">
        <ele>150.6</ele>
        <time>2023-03-03T15:32:56Z</time>
      </trkpt>
      <trkpt lat="43.48076" lon="6.32772">
        <ele>150.7</ele>
        <time>2023-03-03T15:32:57Z</time>
      </trkpt>
      <trkpt lat="43.48077" lon="6.32772">
        <ele>150.7</ele>
        <time>2023-03-03T15:32:58Z</time>
      </trkpt>
      <trkpt lat="43.48078" lon="6.32773">
        <ele>150.9</ele>
        <time>2023-03-03T15:32:59Z</time>
      </trkpt>
      <trkpt lat="43.48079" lon="6.32774">
        <ele>151</ele>
        <time>2023-03-03T15:33:00Z</time>
      </trkpt>
      <trkpt lat="43.4808" lon="6.32774">
        <ele>151.1</ele>
        <time>2023-03-03T15:33:01Z</time>
      </trkpt>
      <trkpt lat="43.48082" lon="6.32774">
        <ele>151.1</ele>
        <time>2023-03-03T15:33:02Z</time>
      </trkpt>
      <trkpt lat="43.48083" lon="6.32775">
        <ele>151.2</ele>
        <time>2023-03-03T15:33:03Z</time>
      </trkpt>
      <trkpt lat="43.48083" lon="6.32776">
        <ele>151.3</ele>
        <time>2023-03-03T15:33:04Z</time>
      </trkpt>
      <trkpt lat="43.48083" lon="6.32778">
        <ele>151.4</ele>
        <time>2023-03-03T15:33:05Z</time>
      </trkpt>
      <trkpt lat="43.48084" lon="6.32779">
        <ele>151.6</ele>
        <time>2023-03-03T15:33:06Z</time>
      </trkpt>
      <trkpt lat="43.48085" lon="6.32779">
        <ele>151.7</ele>
        <time>2023-03-03T15:33:07Z</time>
      </trkpt>
      <trkpt lat="43.48085" lon="6.3278">
        <ele>151.8</ele>
        <time>2023-03-03T15:33:08Z</time>
      </trkpt>
      <trkpt lat="43.48086" lon="6.32781">
        <ele>151.9</ele>
        <time>2023-03-03T15:33:09Z</time>
      </trkpt>
      <trkpt lat="43.48087" lon="6.32781">
        <ele>151.9</ele>
        <time>2023-03-03T15:33:10Z</time>
      </trkpt>
      <trkpt lat="43.48088" lon="6.32782">
        <ele>152</ele>
        <time>2023-03-03T15:33:11Z</time>
      </trkpt>
      <trkpt lat="43.48089" lon="6.32783">
        <ele>152.1</ele>
        <time>2023-03-03T15:33:12Z</time>
      </trkpt>
      <trkpt lat="43.48089" lon="6.32783">
        <ele>152.2</ele>
        <time>2023-03-03T15:33:13Z</time>
      </trkpt>
      <trkpt lat="43.48089" lon="6.32784">
        <ele>152.3</ele>
        <time>2023-03-03T15:33:14Z</time>
      </trkpt>
      <trkpt lat="43.4809" lon="6.32785">
        <ele>152.4</ele>
        <time>2023-03-03T15:33:15Z</time>
      </trkpt>
      <trkpt lat="43.4809" lon="6.32785">
        <ele>152.4</ele>
        <time>2023-03-03T15:33:16Z</time>
      </trkpt>
      <trkpt lat="43.48091" lon="6.32786">
        <ele>152.6</ele>
        <time>2023-03-03T15:33:17Z</time>
      </trkpt>
      <trkpt lat="43.48093" lon="6.32787">
        <ele>152.7</ele>
        <time>2023-03-03T15:33:18Z</time>
      </trkpt>
      <trkpt lat="43.48093" lon="6.32788">
        <ele>152.8</ele>
        <time>2023-03-03T15:33:19Z</time>
      </trkpt>
      <trkpt lat="43.48094" lon="6.32789">
        <ele>152.9</ele>
        <time>2023-03-03T15:33:20Z</time>
      </trkpt>
      <trkpt lat="43.48094" lon="6.3279">
        <ele>153</ele>
        <time>2023-03-03T15:33:21Z</time>
      </trkpt>
      <trkpt lat="43.48096" lon="6.32791">
        <ele>153</ele>
        <time>2023-03-03T15:33:22Z</time>
      </trkpt>
      <trkpt lat="43.48096" lon="6.32791">
        <ele>153</ele>
        <time>2023-03-03T15:33:23Z</time>
      </trkpt>
      <trkpt lat="43.48097" lon="6.32792">
        <ele>153.2</ele>
        <time>2023-03-03T15:33:24Z</time>
      </trkpt>
      <trkpt lat="43.48098" lon="6.32793">
        <ele>153.3</ele>
        <time>2023-03-03T15:33:25Z</time>
      </trkpt>
      <trkpt lat="43.48098" lon="6.32793">
        <ele>153.4</ele>
        <time>2023-03-03T15:33:26Z</time>
      </trkpt>
      <trkpt lat="43.48099" lon="6.32794">
        <ele>153.5</ele>
        <time>2023-03-03T15:33:27Z</time>
      </trkpt>
      <trkpt lat="43.48099" lon="6.32795">
        <ele>153.6</ele>
        <time>2023-03-03T15:33:28Z</time>
      </trkpt>
      <trkpt lat="43.48101" lon="6.32796">
        <ele>153.9</ele>
        <time>2023-03-03T15:33:29Z</time>
      </trkpt>
      <trkpt lat="43.48101" lon="6.32797">
        <ele>153.9</ele>
        <time>2023-03-03T15:33:30Z</time>
      </trkpt>
      <trkpt lat="43.48102" lon="6.32798">
        <ele>154</ele>
        <time>2023-03-03T15:33:31Z</time>
      </trkpt>
      <trkpt lat="43.48103" lon="6.32799">
        <ele>154</ele>
        <time>2023-03-03T15:33:32Z</time>
      </trkpt>
      <trkpt lat="43.48103" lon="6.328">
        <ele>154.1</ele>
        <time>2023-03-03T15:33:33Z</time>
      </trkpt>
      <trkpt lat="43.48104" lon="6.32801">
        <ele>154.1</ele>
        <time>2023-03-03T15:33:34Z</time>
      </trkpt>
      <trkpt lat="43.48105" lon="6.32802">
        <ele>154.2</ele>
        <time>2023-03-03T15:33:35Z</time>
      </trkpt>
      <trkpt lat="43.48105" lon="6.32802">
        <ele>154.2</ele>
        <time>2023-03-03T15:33:36Z</time>
      </trkpt>
      <trkpt lat="43.48105" lon="6.32802">
        <ele>154.2</ele>
        <time>2023-03-03T15:33:37Z</time>
      </trkpt>
      <trkpt lat="43.48106" lon="6.32802">
        <ele>154.2</ele>
        <time>2023-03-03T15:33:38Z</time>
      </trkpt>
      <trkpt lat="43.48106" lon="6.32803">
        <ele>154.1</ele>
        <time>2023-03-03T15:33:39Z</time>
      </trkpt>
      <trkpt lat="43.48106" lon="6.32804">
        <ele>154.1</ele>
        <time>2023-03-03T15:33:40Z</time>
      </trkpt>
      <trkpt lat="43.48107" lon="6.32804">
        <ele>154</ele>
        <time>2023-03-03T15:33:41Z</time>
      </trkpt>
      <trkpt lat="43.48107" lon="6.32805">
        <ele>154</ele>
        <time>2023-03-03T15:33:42Z</time>
      </trkpt>
      <trkpt lat="43.48108" lon="6.32805">
        <ele>154.1</ele>
        <time>2023-03-03T15:33:43Z</time>
      </trkpt>
      <trkpt lat="43.48108" lon="6.32805">
        <ele>154.1</ele>
        <time>2023-03-03T15:33:44Z</time>
      </trkpt>
      <trkpt lat="43.48109" lon="6.32805">
        <ele>154.1</ele>
        <time>2023-03-03T15:33:45Z</time>
      </trkpt>
      <trkpt lat="43.48109" lon="6.32806">
        <ele>154.1</ele>
        <time>2023-03-03T15:33:46Z</time>
      </trkpt>
      <trkpt lat="43.48109" lon="6.32806">
        <ele>154.1</ele>
        <time>2023-03-03T15:33:47Z</time>
      </trkpt>
      <trkpt lat="43.48109" lon="6.32806">
        <ele>154.1</ele>
        <time>2023-03-03T15:33:48Z</time>
      </trkpt>
      <trkpt lat="43.48109" lon="6.32806">
        <ele>154.1</ele>
        <time>2023-03-03T15:33:49Z</time>
      </trkpt>
      <trkpt lat="43.48109" lon="6.32807">
        <ele>154.1</ele>
        <time>2023-03-03T15:33:50Z</time>
      </trkpt>
      <trkpt lat="43.48109" lon="6.32807">
        <ele>154.1</ele>
        <time>2023-03-03T15:33:51Z</time>
      </trkpt>
      <trkpt lat="43.48109" lon="6.32807">
        <ele>154.2</ele>
        <time>2023-03-03T15:33:52Z</time>
      </trkpt>
      <trkpt lat="43.48109" lon="6.32806">
        <ele>154.3</ele>
        <time>2023-03-03T15:33:53Z</time>
      </trkpt>
      <trkpt lat="43.48109" lon="6.32806">
        <ele>154.3</ele>
        <time>2023-03-03T15:33:54Z</time>
      </trkpt>
      <trkpt lat="43.48109" lon="6.32806">
        <ele>154.3</ele>
        <time>2023-03-03T15:33:55Z</time>
      </trkpt>
      <trkpt lat="43.48109" lon="6.32806">
        <ele>154.2</ele>
        <time>2023-03-03T15:33:56Z</time>
      </trkpt>
      <trkpt lat="43.48109" lon="6.32806">
        <ele>154.2</ele>
        <time>2023-03-03T15:33:57Z</time>
      </trkpt>
      <trkpt lat="43.48109" lon="6.32806">
        <ele>154.2</ele>
        <time>2023-03-03T15:33:58Z</time>
      </trkpt>
      <trkpt lat="43.48109" lon="6.32806">
        <ele>154.3</ele>
        <time>2023-03-03T15:33:59Z</time>
      </trkpt>
      <trkpt lat="43.48109" lon="6.32806">
        <ele>154.3</ele>
        <time>2023-03-03T15:34:00Z</time>
      </trkpt>
      <trkpt lat="43.48109" lon="6.32806">
        <ele>154.3</ele>
        <time>2023-03-03T15:34:01Z</time>
      </trkpt>
      <trkpt lat="43.48109" lon="6.32806">
        <ele>154.4</ele>
        <time>2023-03-03T15:34:02Z</time>
      </trkpt>
      <trkpt lat="43.4811" lon="6.32807">
        <ele>154.4</ele>
        <time>2023-03-03T15:34:03Z</time>
      </trkpt>
      <trkpt lat="43.4811" lon="6.32807">
        <ele>154.4</ele>
        <time>2023-03-03T15:34:04Z</time>
      </trkpt>
      <trkpt lat="43.4811" lon="6.32808">
        <ele>154.3</ele>
        <time>2023-03-03T15:34:05Z</time>
      </trkpt>
      <trkpt lat="43.48111" lon="6.32809">
        <ele>154.4</ele>
        <time>2023-03-03T15:34:06Z</time>
      </trkpt>
      <trkpt lat="43.48111" lon="6.3281">
        <ele>154.4</ele>
        <time>2023-03-03T15:34:07Z</time>
      </trkpt>
      <trkpt lat="43.48112" lon="6.3281">
        <ele>154.3</ele>
        <time>2023-03-03T15:34:08Z</time>
      </trkpt>
      <trkpt lat="43.48113" lon="6.32811">
        <ele>154.3</ele>
        <time>2023-03-03T15:34:09Z</time>
      </trkpt>
      <trkpt lat="43.48113" lon="6.32812">
        <ele>154.3</ele>
        <time>2023-03-03T15:34:10Z</time>
      </trkpt>
      <trkpt lat="43.48114" lon="6.32813">
        <ele>154.3</ele>
        <time>2023-03-03T15:34:11Z</time>
      </trkpt>
      <trkpt lat="43.48115" lon="6.32813">
        <ele>154.3</ele>
        <time>2023-03-03T15:34:12Z</time>
      </trkpt>
      <trkpt lat="43.48116" lon="6.32814">
        <ele>154.3</ele>
        <time>2023-03-03T15:34:13Z</time>
      </trkpt>
      <trkpt lat="43.48116" lon="6.32815">
        <ele>154.3</ele>
        <time>2023-03-03T15:34:14Z</time>
      </trkpt>
      <trkpt lat="43.48117" lon="6.32816">
        <ele>154.4</ele>
        <time>2023-03-03T15:34:15Z</time>
      </trkpt>
      <trkpt lat="43.48117" lon="6.32817">
        <ele>154.6</ele>
        <time>2023-03-03T15:34:16Z</time>
      </trkpt>
      <trkpt lat="43.48118" lon="6.32818">
        <ele>154.6</ele>
        <time>2023-03-03T15:34:17Z</time>
      </trkpt>
      <trkpt lat="43.48118" lon="6.32819">
        <ele>154.7</ele>
        <time>2023-03-03T15:34:18Z</time>
      </trkpt>
      <trkpt lat="43.48119" lon="6.3282">
        <ele>154.8</ele>
        <time>2023-03-03T15:34:19Z</time>
      </trkpt>
      <trkpt lat="43.4812" lon="6.3282">
        <ele>154.9</ele>
        <time>2023-03-03T15:34:20Z</time>
      </trkpt>
      <trkpt lat="43.4812" lon="6.32821">
        <ele>154.8</ele>
        <time>2023-03-03T15:34:21Z</time>
      </trkpt>
      <trkpt lat="43.48121" lon="6.32822">
        <ele>154.8</ele>
        <time>2023-03-03T15:34:22Z</time>
      </trkpt>
      <trkpt lat="43.48122" lon="6.32823">
        <ele>154.8</ele>
        <time>2023-03-03T15:34:23Z</time>
      </trkpt>
      <trkpt lat="43.48122" lon="6.32823">
        <ele>154.9</ele>
        <time>2023-03-03T15:34:24Z</time>
      </trkpt>
      <trkpt lat="43.48123" lon="6.32824">
        <ele>155</ele>
        <time>2023-03-03T15:34:25Z</time>
      </trkpt>
      <trkpt lat="43.48123" lon="6.32825">
        <ele>155</ele>
        <time>2023-03-03T15:34:26Z</time>
      </trkpt>
      <trkpt lat="43.48123" lon="6.32825">
        <ele>155</ele>
        <time>2023-03-03T15:34:27Z</time>
      </trkpt>
      <trkpt lat="43.48124" lon="6.32826">
        <ele>155</ele>
        <time>2023-03-03T15:34:28Z</time>
      </trkpt>
      <trkpt lat="43.48124" lon="6.32826">
        <ele>155.1</ele>
        <time>2023-03-03T15:34:29Z</time>
      </trkpt>
      <trkpt lat="43.48124" lon="6.32827">
        <ele>155.1</ele>
        <time>2023-03-03T15:34:30Z</time>
      </trkpt>
      <trkpt lat="43.48124" lon="6.32827">
        <ele>155.1</ele>
        <time>2023-03-03T15:34:31Z</time>
      </trkpt>
      <trkpt lat="43.48124" lon="6.32827">
        <ele>155.1</ele>
        <time>2023-03-03T15:34:32Z</time>
      </trkpt>
      <trkpt lat="43.48124" lon="6.32827">
        <ele>155</ele>
        <time>2023-03-03T15:34:33Z</time>
      </trkpt>
      <trkpt lat="43.48124" lon="6.32827">
        <ele>155</ele>
        <time>2023-03-03T15:34:34Z</time>
      </trkpt>
      <trkpt lat="43.48124" lon="6.32828">
        <ele>155</ele>
        <time>2023-03-03T15:34:35Z</time>
      </trkpt>
      <trkpt lat="43.48124" lon="6.32828">
        <ele>155</ele>
        <time>2023-03-03T15:34:36Z</time>
      </trkpt>
      <trkpt lat="43.48124" lon="6.32828">
        <ele>155</ele>
        <time>2023-03-03T15:34:37Z</time>
      </trkpt>
      <trkpt lat="43.48125" lon="6.32828">
        <ele>155.1</ele>
        <time>2023-03-03T15:34:38Z</time>
      </trkpt>
      <trkpt lat="43.48125" lon="6.32827">
        <ele>155.1</ele>
        <time>2023-03-03T15:34:39Z</time>
      </trkpt>
      <trkpt lat="43.48125" lon="6.32827">
        <ele>155.2</ele>
        <time>2023-03-03T15:34:40Z</time>
      </trkpt>
      <trkpt lat="43.48125" lon="6.32827">
        <ele>155.2</ele>
        <time>2023-03-03T15:34:41Z</time>
      </trkpt>
      <trkpt lat="43.48125" lon="6.32827">
        <ele>155.2</ele>
        <time>2023-03-03T15:34:42Z</time>
      </trkpt>
      <trkpt lat="43.48125" lon="6.32827">
        <ele>155.1</ele>
        <time>2023-03-03T15:34:43Z</time>
      </trkpt>
      <trkpt lat="43.48125" lon="6.32826">
        <ele>155.2</ele>
        <time>2023-03-03T15:34:44Z</time>
      </trkpt>
      <trkpt lat="43.48125" lon="6.32826">
        <ele>155.2</ele>
        <time>2023-03-03T15:34:45Z</time>
      </trkpt>
      <trkpt lat="43.48125" lon="6.32826">
        <ele>155.2</ele>
        <time>2023-03-03T15:34:46Z</time>
      </trkpt>
      <trkpt lat="43.48125" lon="6.32826">
        <ele>155.3</ele>
        <time>2023-03-03T15:34:47Z</time>
      </trkpt>
      <trkpt lat="43.48125" lon="6.32826">
        <ele>155.3</ele>
        <time>2023-03-03T15:34:48Z</time>
      </trkpt>
      <trkpt lat="43.48125" lon="6.32826">
        <ele>155.3</ele>
        <time>2023-03-03T15:34:49Z</time>
      </trkpt>
      <trkpt lat="43.48125" lon="6.32825">
        <ele>155.3</ele>
        <time>2023-03-03T15:34:50Z</time>
      </trkpt>
      <trkpt lat="43.48125" lon="6.32825">
        <ele>155.4</ele>
        <time>2023-03-03T15:34:51Z</time>
      </trkpt>
      <trkpt lat="43.48125" lon="6.32825">
        <ele>155.4</ele>
        <time>2023-03-03T15:34:52Z</time>
      </trkpt>
      <trkpt lat="43.48125" lon="6.32825">
        <ele>155.4</ele>
        <time>2023-03-03T15:34:53Z</time>
      </trkpt>
      <trkpt lat="43.48125" lon="6.32825">
        <ele>155.4</ele>
        <time>2023-03-03T15:34:54Z</time>
      </trkpt>
      <trkpt lat="43.48125" lon="6.32825">
        <ele>155.4</ele>
        <time>2023-03-03T15:34:55Z</time>
      </trkpt>
      <trkpt lat="43.48125" lon="6.32825">
        <ele>155.3</ele>
        <time>2023-03-03T15:34:56Z</time>
      </trkpt>
      <trkpt lat="43.48125" lon="6.32825">
        <ele>155.3</ele>
        <time>2023-03-03T15:34:57Z</time>
      </trkpt>
      <trkpt lat="43.48125" lon="6.32825">
        <ele>155.3</ele>
        <time>2023-03-03T15:34:58Z</time>
      </trkpt>
      <trkpt lat="43.48125" lon="6.32825">
        <ele>155.3</ele>
        <time>2023-03-03T15:34:59Z</time>
      </trkpt>
      <trkpt lat="43.48125" lon="6.32825">
        <ele>155.2</ele>
        <time>2023-03-03T15:35:00Z</time>
      </trkpt>
      <trkpt lat="43.48125" lon="6.32825">
        <ele>155.1</ele>
        <time>2023-03-03T15:35:01Z</time>
      </trkpt>
      <trkpt lat="43.48125" lon="6.32824">
        <ele>155.2</ele>
        <time>2023-03-03T15:35:02Z</time>
      </trkpt>
      <trkpt lat="43.48125" lon="6.32825">
        <ele>155.2</ele>
        <time>2023-03-03T15:35:03Z</time>
      </trkpt>
      <trkpt lat="43.48125" lon="6.32825">
        <ele>155.3</ele>
        <time>2023-03-03T15:35:04Z</time>
      </trkpt>
      <trkpt lat="43.48125" lon="6.32825">
        <ele>155.2</ele>
        <time>2023-03-03T15:35:05Z</time>
      </trkpt>
      <trkpt lat="43.48125" lon="6.32825">
        <ele>155.2</ele>
        <time>2023-03-03T15:35:06Z</time>
      </trkpt>
      <trkpt lat="43.48125" lon="6.32825">
        <ele>155.3</ele>
        <time>2023-03-03T15:35:07Z</time>
      </trkpt>
      <trkpt lat="43.48125" lon="6.32825">
        <ele>155.4</ele>
        <time>2023-03-03T15:35:08Z</time>
      </trkpt>
      <trkpt lat="43.48126" lon="6.32825">
        <ele>155.5</ele>
        <time>2023-03-03T15:35:09Z</time>
      </trkpt>
      <trkpt lat="43.48126" lon="6.32825">
        <ele>155.5</ele>
        <time>2023-03-03T15:35:10Z</time>
      </trkpt>
      <trkpt lat="43.48126" lon="6.32825">
        <ele>155.5</ele>
        <time>2023-03-03T15:35:11Z</time>
      </trkpt>
      <trkpt lat="43.48126" lon="6.32825">
        <ele>155.5</ele>
        <time>2023-03-03T15:35:12Z</time>
      </trkpt>
      <trkpt lat="43.48126" lon="6.32825">
        <ele>155.5</ele>
        <time>2023-03-03T15:35:13Z</time>
      </trkpt>
      <trkpt lat="43.48126" lon="6.32825">
        <ele>155.5</ele>
        <time>2023-03-03T15:35:14Z</time>
      </trkpt>
      <trkpt lat="43.48126" lon="6.32825">
        <ele>155.5</ele>
        <time>2023-03-03T15:35:15Z</time>
      </trkpt>
      <trkpt lat="43.48126" lon="6.32825">
        <ele>155.7</ele>
        <time>2023-03-03T15:35:16Z</time>
      </trkpt>
      <trkpt lat="43.48126" lon="6.32825">
        <ele>155.7</ele>
        <time>2023-03-03T15:35:17Z</time>
      </trkpt>
      <trkpt lat="43.48126" lon="6.32825">
        <ele>155.7</ele>
        <time>2023-03-03T15:35:18Z</time>
      </trkpt>
      <trkpt lat="43.48126" lon="6.32825">
        <ele>155.5</ele>
        <time>2023-03-03T15:35:19Z</time>
      </trkpt>
      <trkpt lat="43.48126" lon="6.32825">
        <ele>155.5</ele>
        <time>2023-03-03T15:35:20Z</time>
      </trkpt>
      <trkpt lat="43.48126" lon="6.32825">
        <ele>155.6</ele>
        <time>2023-03-03T15:35:21Z</time>
      </trkpt>
      <trkpt lat="43.48126" lon="6.32825">
        <ele>155.6</ele>
        <time>2023-03-03T15:35:22Z</time>
      </trkpt>
      <trkpt lat="43.48126" lon="6.32825">
        <ele>155.6</ele>
        <time>2023-03-03T15:35:23Z</time>
      </trkpt>
      <trkpt lat="43.48127" lon="6.32825">
        <ele>155.6</ele>
        <time>2023-03-03T15:35:24Z</time>
      </trkpt>
      <trkpt lat="43.48127" lon="6.32825">
        <ele>155.7</ele>
        <time>2023-03-03T15:35:25Z</time>
      </trkpt>
      <trkpt lat="43.48127" lon="6.32825">
        <ele>155.7</ele>
        <time>2023-03-03T15:35:26Z</time>
      </trkpt>
      <trkpt lat="43.48127" lon="6.32825">
        <ele>155.7</ele>
        <time>2023-03-03T15:35:27Z</time>
      </trkpt>
      <trkpt lat="43.48127" lon="6.32825">
        <ele>155.7</ele>
        <time>2023-03-03T15:35:28Z</time>
      </trkpt>
      <trkpt lat="43.48127" lon="6.32825">
        <ele>155.7</ele>
        <time>2023-03-03T15:35:29Z</time>
      </trkpt>
      <trkpt lat="43.48127" lon="6.32825">
        <ele>155.7</ele>
        <time>2023-03-03T15:35:30Z</time>
      </trkpt>
      <trkpt lat="43.48127" lon="6.32825">
        <ele>155.7</ele>
        <time>2023-03-03T15:35:31Z</time>
      </trkpt>
      <trkpt lat="43.48127" lon="6.32825">
        <ele>155.7</ele>
        <time>2023-03-03T15:35:32Z</time>
      </trkpt>
      <trkpt lat="43.48128" lon="6.32825">
        <ele>155.6</ele>
        <time>2023-03-03T15:35:33Z</time>
      </trkpt>
      <trkpt lat="43.48128" lon="6.32825">
        <ele>155.6</ele>
        <time>2023-03-03T15:35:34Z</time>
      </trkpt>
      <trkpt lat="43.48128" lon="6.32825">
        <ele>155.6</ele>
        <time>2023-03-03T15:35:35Z</time>
      </trkpt>
      <trkpt lat="43.48128" lon="6.32825">
        <ele>155.6</ele>
        <time>2023-03-03T15:35:36Z</time>
      </trkpt>
      <trkpt lat="43.48128" lon="6.32825">
        <ele>155.6</ele>
        <time>2023-03-03T15:35:37Z</time>
      </trkpt>
      <trkpt lat="43.48128" lon="6.32825">
        <ele>155.5</ele>
        <time>2023-03-03T15:35:38Z</time>
      </trkpt>
      <trkpt lat="43.48128" lon="6.32825">
        <ele>155.5</ele>
        <time>2023-03-03T15:35:39Z</time>
      </trkpt>
      <trkpt lat="43.48128" lon="6.32825">
        <ele>155.5</ele>
        <time>2023-03-03T15:35:40Z</time>
      </trkpt>
      <trkpt lat="43.48128" lon="6.32825">
        <ele>155.5</ele>
        <time>2023-03-03T15:35:41Z</time>
      </trkpt>
      <trkpt lat="43.48128" lon="6.32825">
        <ele>155.5</ele>
        <time>2023-03-03T15:35:42Z</time>
      </trkpt>
      <trkpt lat="43.48128" lon="6.32825">
        <ele>155.5</ele>
        <time>2023-03-03T15:35:43Z</time>
      </trkpt>
      <trkpt lat="43.48128" lon="6.32825">
        <ele>155.5</ele>
        <time>2023-03-03T15:35:44Z</time>
      </trkpt>
      <trkpt lat="43.48128" lon="6.32824">
        <ele>155.5</ele>
        <time>2023-03-03T15:35:45Z</time>
      </trkpt>
      <trkpt lat="43.48128" lon="6.32824">
        <ele>155.5</ele>
        <time>2023-03-03T15:35:46Z</time>
      </trkpt>
      <trkpt lat="43.48128" lon="6.32824">
        <ele>155.5</ele>
        <time>2023-03-03T15:35:46Z</time>
      </trkpt>
      <trkpt lat="43.48128" lon="6.32824">
        <ele>155.5</ele>
        <time>2023-03-03T15:35:46Z</time>
      </trkpt>
    </trkseg>
  </trk>
</gpx>